<gpx xmlns="http://www.topografix.com/GPX/1/1" xmlns:xsi="http://www.w3.org/2001/XMLSchema-instance" version="1.1" xsi:schemaLocation="http://www.topografix.com/GPX/1/1 http://www.topografix.com/GPX/1/1/gpx.xsd" creator="MotionXGPSFull 24.1 Build 5049R64">
<trk>
<name>Christine's Run</name>
<desc>17 May 2017  9:45 am</desc>
<trkseg>
<trkpt lat="-27.3568935" lon="152.9564117">
<ele>57.634</ele>
<time>2017-05-16T23:45:51.038Z</time>
</trkpt>
<trkpt lat="-27.3562868" lon="152.9568381">
<ele>57.593</ele>
<time>2017-05-16T23:46:12.075Z</time>
</trkpt>
<trkpt lat="-27.3558232" lon="152.9571577">
<ele>54.701</ele>
<time>2017-05-16T23:46:28.065Z</time>
</trkpt>
<trkpt lat="-27.3553299" lon="152.9572981">
<ele>47.147</ele>
<time>2017-05-16T23:46:43.032Z</time>
</trkpt>
<trkpt lat="-27.3550855" lon="152.9572923">
<ele>39.273</ele>
<time>2017-05-16T23:46:50.222Z</time>
</trkpt>
<trkpt lat="-27.3549152" lon="152.9572274">
<ele>35.276</ele>
<time>2017-05-16T23:46:55.510Z</time>
</trkpt>
<trkpt lat="-27.3548431" lon="152.9573030">
<ele>34.262</ele>
<time>2017-05-16T23:46:58.406Z</time>
</trkpt>
<trkpt lat="-27.3549064" lon="152.9575548">
<ele>34.471</ele>
<time>2017-05-16T23:47:05.242Z</time>
</trkpt>
<trkpt lat="-27.3549423" lon="152.9577903">
<ele>34.892</ele>
<time>2017-05-16T23:47:11.484Z</time>
</trkpt>
<trkpt lat="-27.3549473" lon="152.9582021">
<ele>35.243</ele>
<time>2017-05-16T23:47:22.241Z</time>
</trkpt>
<trkpt lat="-27.3549561" lon="152.9586300">
<ele>35.690</ele>
<time>2017-05-16T23:47:33.424Z</time>
</trkpt>
<trkpt lat="-27.3549600" lon="152.9589182">
<ele>36.525</ele>
<time>2017-05-16T23:47:40.953Z</time>
</trkpt>
<trkpt lat="-27.3549827" lon="152.9592081">
<ele>37.720</ele>
<time>2017-05-16T23:47:48.555Z</time>
</trkpt>
<trkpt lat="-27.3550447" lon="152.9594975">
<ele>38.879</ele>
<time>2017-05-16T23:47:56.329Z</time>
</trkpt>
<trkpt lat="-27.3551983" lon="152.9599099">
<ele>39.713</ele>
<time>2017-05-16T23:48:08.012Z</time>
</trkpt>
<trkpt lat="-27.3553119" lon="152.9601731">
<ele>40.233</ele>
<time>2017-05-16T23:48:15.657Z</time>
</trkpt>
<trkpt lat="-27.3554175" lon="152.9604375">
<ele>40.528</ele>
<time>2017-05-16T23:48:23.230Z</time>
</trkpt>
<trkpt lat="-27.3555670" lon="152.9608120">
<ele>40.660</ele>
<time>2017-05-16T23:48:33.956Z</time>
</trkpt>
<trkpt lat="-27.3556326" lon="152.9610920">
<ele>40.698</ele>
<time>2017-05-16T23:48:37.728Z</time>
</trkpt>
<trkpt lat="-27.3556414" lon="152.9612122">
<ele>40.599</ele>
<time>2017-05-16T23:48:39.291Z</time>
</trkpt>
<trkpt lat="-27.3557124" lon="152.9613835">
<ele>40.230</ele>
<time>2017-05-16T23:48:41.744Z</time>
</trkpt>
<trkpt lat="-27.3558723" lon="152.9616403">
<ele>39.621</ele>
<time>2017-05-16T23:48:46.068Z</time>
</trkpt>
<trkpt lat="-27.3560146" lon="152.9619196">
<ele>39.017</ele>
<time>2017-05-16T23:48:52.662Z</time>
</trkpt>
<trkpt lat="-27.3561552" lon="152.9622369">
<ele>38.651</ele>
<time>2017-05-16T23:48:58.489Z</time>
</trkpt>
<trkpt lat="-27.3563337" lon="152.9626061">
<ele>38.605</ele>
<time>2017-05-16T23:49:03.185Z</time>
</trkpt>
<trkpt lat="-27.3564785" lon="152.9628779">
<ele>38.881</ele>
<time>2017-05-16T23:49:06.500Z</time>
</trkpt>
<trkpt lat="-27.3566341" lon="152.9631608">
<ele>39.426</ele>
<time>2017-05-16T23:49:09.907Z</time>
</trkpt>
<trkpt lat="-27.3569212" lon="152.9635585">
<ele>40.076</ele>
<time>2017-05-16T23:49:15.162Z</time>
</trkpt>
<trkpt lat="-27.3571456" lon="152.9637866">
<ele>40.781</ele>
<time>2017-05-16T23:49:18.777Z</time>
</trkpt>
<trkpt lat="-27.3573770" lon="152.9640082">
<ele>41.657</ele>
<time>2017-05-16T23:49:23.532Z</time>
</trkpt>
<trkpt lat="-27.3575975" lon="152.9642402">
<ele>42.800</ele>
<time>2017-05-16T23:49:30.107Z</time>
</trkpt>
<trkpt lat="-27.3579168" lon="152.9645998">
<ele>44.249</ele>
<time>2017-05-16T23:49:37.160Z</time>
</trkpt>
<trkpt lat="-27.3582361" lon="152.9649653">
<ele>46.145</ele>
<time>2017-05-16T23:49:42.562Z</time>
</trkpt>
<trkpt lat="-27.3584024" lon="152.9652567">
<ele>48.623</ele>
<time>2017-05-16T23:49:45.725Z</time>
</trkpt>
<trkpt lat="-27.3586521" lon="152.9656947">
<ele>51.358</ele>
<time>2017-05-16T23:49:50.359Z</time>
</trkpt>
<trkpt lat="-27.3587456" lon="152.9660268">
<ele>53.677</ele>
<time>2017-05-16T23:49:53.451Z</time>
</trkpt>
<trkpt lat="-27.3587987" lon="152.9665493">
<ele>55.150</ele>
<time>2017-05-16T23:49:58.110Z</time>
</trkpt>
<trkpt lat="-27.3586942" lon="152.9670403">
<ele>55.599</ele>
<time>2017-05-16T23:50:02.536Z</time>
</trkpt>
<trkpt lat="-27.3585489" lon="152.9673382">
<ele>54.995</ele>
<time>2017-05-16T23:50:05.488Z</time>
</trkpt>
<trkpt lat="-27.3583937" lon="152.9676370">
<ele>53.716</ele>
<time>2017-05-16T23:50:08.501Z</time>
</trkpt>
<trkpt lat="-27.3581883" lon="152.9680947">
<ele>52.302</ele>
<time>2017-05-16T23:50:13.041Z</time>
</trkpt>
<trkpt lat="-27.3579676" lon="152.9685171">
<ele>50.938</ele>
<time>2017-05-16T23:50:17.362Z</time>
</trkpt>
<trkpt lat="-27.3578299" lon="152.9688307">
<ele>49.464</ele>
<time>2017-05-16T23:50:20.499Z</time>
</trkpt>
<trkpt lat="-27.3577992" lon="152.9689539">
<ele>47.771</ele>
<time>2017-05-16T23:50:21.762Z</time>
</trkpt>
<trkpt lat="-27.3578349" lon="152.9690651">
<ele>46.020</ele>
<time>2017-05-16T23:50:23.006Z</time>
</trkpt>
<trkpt lat="-27.3580217" lon="152.9691701">
<ele>44.517</ele>
<time>2017-05-16T23:50:26.242Z</time>
</trkpt>
<trkpt lat="-27.3581640" lon="152.9692123">
<ele>43.455</ele>
<time>2017-05-16T23:50:30.389Z</time>
</trkpt>
<trkpt lat="-27.3582894" lon="152.9692923">
<ele>42.848</ele>
<time>2017-05-16T23:50:33.963Z</time>
</trkpt>
<trkpt lat="-27.3583659" lon="152.9693654">
<ele>42.553</ele>
<time>2017-05-16T23:50:36.505Z</time>
</trkpt>
<trkpt lat="-27.3582859" lon="152.9694586">
<ele>42.354</ele>
<time>2017-05-16T23:50:40.832Z</time>
</trkpt>
<trkpt lat="-27.3581874" lon="152.9694741">
<ele>42.129</ele>
<time>2017-05-16T23:50:45.993Z</time>
</trkpt>
<trkpt lat="-27.3581874" lon="152.9694741">
<ele>41.902</ele>
<time>2017-05-16T23:50:48.993Z</time>
</trkpt>
<trkpt lat="-27.3581874" lon="152.9694741">
<ele>41.768</ele>
<time>2017-05-16T23:56:29.102Z</time>
</trkpt>
<trkpt lat="-27.3583059" lon="152.9693949">
<ele>41.792</ele>
<time>2017-05-16T23:56:36.456Z</time>
</trkpt>
<trkpt lat="-27.3583145" lon="152.9692804">
<ele>41.941</ele>
<time>2017-05-16T23:56:40.384Z</time>
</trkpt>
<trkpt lat="-27.3582240" lon="152.9692182">
<ele>42.125</ele>
<time>2017-05-16T23:56:42.429Z</time>
</trkpt>
<trkpt lat="-27.3580313" lon="152.9690925">
<ele>42.286</ele>
<time>2017-05-16T23:56:45.985Z</time>
</trkpt>
<trkpt lat="-27.3579036" lon="152.9690135">
<ele>42.412</ele>
<time>2017-05-16T23:56:48.528Z</time>
</trkpt>
<trkpt lat="-27.3577781" lon="152.9689824">
<ele>42.488</ele>
<time>2017-05-16T23:56:50.932Z</time>
</trkpt>
<trkpt lat="-27.3576534" lon="152.9691368">
<ele>42.510</ele>
<time>2017-05-16T23:56:54.394Z</time>
</trkpt>
<trkpt lat="-27.3575942" lon="152.9692654">
<ele>42.505</ele>
<time>2017-05-16T23:56:57.217Z</time>
</trkpt>
<trkpt lat="-27.3575359" lon="152.9693607">
<ele>42.470</ele>
<time>2017-05-16T23:57:00.001Z</time>
</trkpt>
<trkpt lat="-27.3575359" lon="152.9693607">
<ele>42.401</ele>
<time>2017-05-16T23:57:03.001Z</time>
</trkpt>
<trkpt lat="-27.3575359" lon="152.9693607">
<ele>42.340</ele>
<time>2017-05-16T23:58:01.863Z</time>
</trkpt>
<trkpt lat="-27.3575303" lon="152.9695893">
<ele>42.324</ele>
<time>2017-05-16T23:58:07.530Z</time>
</trkpt>
<trkpt lat="-27.3576666" lon="152.9697260">
<ele>42.335</ele>
<time>2017-05-16T23:58:09.324Z</time>
</trkpt>
<trkpt lat="-27.3580682" lon="152.9699358">
<ele>42.393</ele>
<time>2017-05-16T23:58:12.468Z</time>
</trkpt>
<trkpt lat="-27.3583993" lon="152.9701542">
<ele>42.831</ele>
<time>2017-05-16T23:58:14.571Z</time>
</trkpt>
<trkpt lat="-27.3587212" lon="152.9703473">
<ele>44.053</ele>
<time>2017-05-16T23:58:16.539Z</time>
</trkpt>
<trkpt lat="-27.3589953" lon="152.9705759">
<ele>45.846</ele>
<time>2017-05-16T23:58:18.468Z</time>
</trkpt>
<trkpt lat="-27.3594040" lon="152.9708759">
<ele>47.496</ele>
<time>2017-05-16T23:58:21.357Z</time>
</trkpt>
<trkpt lat="-27.3598020" lon="152.9711239">
<ele>48.667</ele>
<time>2017-05-16T23:58:24.248Z</time>
</trkpt>
<trkpt lat="-27.3601590" lon="152.9713359">
<ele>49.597</ele>
<time>2017-05-16T23:58:27.116Z</time>
</trkpt>
<trkpt lat="-27.3604220" lon="152.9715116">
<ele>50.581</ele>
<time>2017-05-16T23:58:29.737Z</time>
</trkpt>
<trkpt lat="-27.3605254" lon="152.9715760">
<ele>51.538</ele>
<time>2017-05-16T23:58:31.001Z</time>
</trkpt>
<trkpt lat="-27.3605254" lon="152.9715760">
<ele>52.176</ele>
<time>2017-05-16T23:58:35.001Z</time>
</trkpt>
<trkpt lat="-27.3605254" lon="152.9715760">
<ele>52.388</ele>
<time>2017-05-16T23:58:35.535Z</time>
</trkpt>
<trkpt lat="-27.3607063" lon="152.9717377">
<ele>52.325</ele>
<time>2017-05-16T23:58:40.239Z</time>
</trkpt>
<trkpt lat="-27.3610088" lon="152.9719448">
<ele>52.366</ele>
<time>2017-05-16T23:58:43.660Z</time>
</trkpt>
<trkpt lat="-27.3613348" lon="152.9721218">
<ele>52.984</ele>
<time>2017-05-16T23:58:46.478Z</time>
</trkpt>
<trkpt lat="-27.3617293" lon="152.9723171">
<ele>54.380</ele>
<time>2017-05-16T23:58:49.469Z</time>
</trkpt>
<trkpt lat="-27.3619943" lon="152.9724736">
<ele>56.380</ele>
<time>2017-05-16T23:58:51.381Z</time>
</trkpt>
<trkpt lat="-27.3622652" lon="152.9726836">
<ele>58.557</ele>
<time>2017-05-16T23:58:53.399Z</time>
</trkpt>
<trkpt lat="-27.3626345" lon="152.9730278">
<ele>60.454</ele>
<time>2017-05-16T23:58:56.315Z</time>
</trkpt>
<trkpt lat="-27.3628853" lon="152.9732326">
<ele>61.924</ele>
<time>2017-05-16T23:58:58.247Z</time>
</trkpt>
<trkpt lat="-27.3632141" lon="152.9735666">
<ele>63.061</ele>
<time>2017-05-16T23:59:01.093Z</time>
</trkpt>
<trkpt lat="-27.3634594" lon="152.9737209">
<ele>63.942</ele>
<time>2017-05-16T23:59:02.980Z</time>
</trkpt>
<trkpt lat="-27.3638657" lon="152.9738848">
<ele>64.657</ele>
<time>2017-05-16T23:59:05.981Z</time>
</trkpt>
<trkpt lat="-27.3641822" lon="152.9740598">
<ele>65.281</ele>
<time>2017-05-16T23:59:08.757Z</time>
</trkpt>
<trkpt lat="-27.3642871" lon="152.9741330">
<ele>65.760</ele>
<time>2017-05-16T23:59:10.001Z</time>
</trkpt>
<trkpt lat="-27.3642871" lon="152.9741330">
<ele>65.972</ele>
<time>2017-05-16T23:59:14.001Z</time>
</trkpt>
<trkpt lat="-27.3642871" lon="152.9741330">
<ele>65.919</ele>
<time>2017-05-17T00:00:22.492Z</time>
</trkpt>
<trkpt lat="-27.3644665" lon="152.9741096">
<ele>65.779</ele>
<time>2017-05-17T00:00:27.294Z</time>
</trkpt>
<trkpt lat="-27.3645841" lon="152.9739462">
<ele>65.613</ele>
<time>2017-05-17T00:00:29.354Z</time>
</trkpt>
<trkpt lat="-27.3646842" lon="152.9735617">
<ele>65.387</ele>
<time>2017-05-17T00:00:32.473Z</time>
</trkpt>
<trkpt lat="-27.3647847" lon="152.9732712">
<ele>65.466</ele>
<time>2017-05-17T00:00:34.440Z</time>
</trkpt>
<trkpt lat="-27.3649710" lon="152.9727652">
<ele>66.311</ele>
<time>2017-05-17T00:00:37.660Z</time>
</trkpt>
<trkpt lat="-27.3651295" lon="152.9724974">
<ele>67.908</ele>
<time>2017-05-17T00:00:39.480Z</time>
</trkpt>
<trkpt lat="-27.3652750" lon="152.9722059">
<ele>69.786</ele>
<time>2017-05-17T00:00:41.386Z</time>
</trkpt>
<trkpt lat="-27.3654961" lon="152.9717569">
<ele>71.362</ele>
<time>2017-05-17T00:00:44.336Z</time>
</trkpt>
<trkpt lat="-27.3656690" lon="152.9714804">
<ele>72.439</ele>
<time>2017-05-17T00:00:46.292Z</time>
</trkpt>
<trkpt lat="-27.3658330" lon="152.9711801">
<ele>73.326</ele>
<time>2017-05-17T00:00:48.317Z</time>
</trkpt>
<trkpt lat="-27.3661282" lon="152.9707684">
<ele>74.334</ele>
<time>2017-05-17T00:00:51.324Z</time>
</trkpt>
<trkpt lat="-27.3664652" lon="152.9704013">
<ele>75.701</ele>
<time>2017-05-17T00:00:54.285Z</time>
</trkpt>
<trkpt lat="-27.3667263" lon="152.9701908">
<ele>77.559</ele>
<time>2017-05-17T00:00:56.296Z</time>
</trkpt>
<trkpt lat="-27.3669762" lon="152.9699663">
<ele>79.582</ele>
<time>2017-05-17T00:00:58.292Z</time>
</trkpt>
<trkpt lat="-27.3672384" lon="152.9697531">
<ele>81.154</ele>
<time>2017-05-17T00:01:00.336Z</time>
</trkpt>
<trkpt lat="-27.3675061" lon="152.9695944">
<ele>81.973</ele>
<time>2017-05-17T00:01:02.270Z</time>
</trkpt>
<trkpt lat="-27.3678104" lon="152.9695047">
<ele>82.190</ele>
<time>2017-05-17T00:01:04.277Z</time>
</trkpt>
<trkpt lat="-27.3682545" lon="152.9693451">
<ele>82.113</ele>
<time>2017-05-17T00:01:07.251Z</time>
</trkpt>
<trkpt lat="-27.3685339" lon="152.9691968">
<ele>82.093</ele>
<time>2017-05-17T00:01:09.219Z</time>
</trkpt>
<trkpt lat="-27.3689279" lon="152.9688824">
<ele>82.419</ele>
<time>2017-05-17T00:01:12.257Z</time>
</trkpt>
<trkpt lat="-27.3692868" lon="152.9684590">
<ele>83.167</ele>
<time>2017-05-17T00:01:15.388Z</time>
</trkpt>
<trkpt lat="-27.3696423" lon="152.9680051">
<ele>84.150</ele>
<time>2017-05-17T00:01:18.369Z</time>
</trkpt>
<trkpt lat="-27.3699626" lon="152.9677104">
<ele>85.148</ele>
<time>2017-05-17T00:01:20.469Z</time>
</trkpt>
<trkpt lat="-27.3704846" lon="152.9673521">
<ele>86.096</ele>
<time>2017-05-17T00:01:23.504Z</time>
</trkpt>
<trkpt lat="-27.3710288" lon="152.9670427">
<ele>86.947</ele>
<time>2017-05-17T00:01:26.510Z</time>
</trkpt>
<trkpt lat="-27.3715602" lon="152.9667326">
<ele>87.533</ele>
<time>2017-05-17T00:01:29.580Z</time>
</trkpt>
<trkpt lat="-27.3719514" lon="152.9663604">
<ele>87.670</ele>
<time>2017-05-17T00:01:32.442Z</time>
</trkpt>
<trkpt lat="-27.3721035" lon="152.9660199">
<ele>87.317</ele>
<time>2017-05-17T00:01:34.432Z</time>
</trkpt>
<trkpt lat="-27.3722027" lon="152.9656479">
<ele>86.742</ele>
<time>2017-05-17T00:01:36.449Z</time>
</trkpt>
<trkpt lat="-27.3722671" lon="152.9652632">
<ele>86.328</ele>
<time>2017-05-17T00:01:38.474Z</time>
</trkpt>
<trkpt lat="-27.3724423" lon="152.9647257">
<ele>86.220</ele>
<time>2017-05-17T00:01:41.462Z</time>
</trkpt>
<trkpt lat="-27.3725930" lon="152.9643965">
<ele>86.393</ele>
<time>2017-05-17T00:01:43.396Z</time>
</trkpt>
<trkpt lat="-27.3729854" lon="152.9639964">
<ele>86.783</ele>
<time>2017-05-17T00:01:46.454Z</time>
</trkpt>
<trkpt lat="-27.3732728" lon="152.9637705">
<ele>87.369</ele>
<time>2017-05-17T00:01:48.461Z</time>
</trkpt>
<trkpt lat="-27.3734576" lon="152.9634472">
<ele>88.116</ele>
<time>2017-05-17T00:01:50.425Z</time>
</trkpt>
<trkpt lat="-27.3736447" lon="152.9628952">
<ele>88.862</ele>
<time>2017-05-17T00:01:53.434Z</time>
</trkpt>
<trkpt lat="-27.3736908" lon="152.9625002">
<ele>89.520</ele>
<time>2017-05-17T00:01:55.457Z</time>
</trkpt>
<trkpt lat="-27.3737187" lon="152.9619142">
<ele>90.185</ele>
<time>2017-05-17T00:01:58.465Z</time>
</trkpt>
<trkpt lat="-27.3737267" lon="152.9613436">
<ele>90.983</ele>
<time>2017-05-17T00:02:01.442Z</time>
</trkpt>
<trkpt lat="-27.3737744" lon="152.9609710">
<ele>92.024</ele>
<time>2017-05-17T00:02:03.428Z</time>
</trkpt>
<trkpt lat="-27.3737769" lon="152.9604004">
<ele>93.249</ele>
<time>2017-05-17T00:02:06.418Z</time>
</trkpt>
<trkpt lat="-27.3737812" lon="152.9598196">
<ele>94.466</ele>
<time>2017-05-17T00:02:09.422Z</time>
</trkpt>
<trkpt lat="-27.3738291" lon="152.9592518">
<ele>95.618</ele>
<time>2017-05-17T00:02:12.372Z</time>
</trkpt>
<trkpt lat="-27.3738474" lon="152.9588692">
<ele>96.654</ele>
<time>2017-05-17T00:02:14.366Z</time>
</trkpt>
<trkpt lat="-27.3738432" lon="152.9584868">
<ele>97.436</ele>
<time>2017-05-17T00:02:16.356Z</time>
</trkpt>
<trkpt lat="-27.3738803" lon="152.9579213">
<ele>97.969</ele>
<time>2017-05-17T00:02:19.315Z</time>
</trkpt>
<trkpt lat="-27.3739473" lon="152.9575540">
<ele>98.458</ele>
<time>2017-05-17T00:02:21.293Z</time>
</trkpt>
<trkpt lat="-27.3740981" lon="152.9572261">
<ele>99.104</ele>
<time>2017-05-17T00:02:23.260Z</time>
</trkpt>
<trkpt lat="-27.3742984" lon="152.9569303">
<ele>99.959</ele>
<time>2017-05-17T00:02:25.267Z</time>
</trkpt>
<trkpt lat="-27.3745578" lon="152.9564741">
<ele>100.969</ele>
<time>2017-05-17T00:02:28.218Z</time>
</trkpt>
<trkpt lat="-27.3746942" lon="152.9561491">
<ele>102.103</ele>
<time>2017-05-17T00:02:30.180Z</time>
</trkpt>
<trkpt lat="-27.3747977" lon="152.9556105">
<ele>103.272</ele>
<time>2017-05-17T00:02:33.157Z</time>
</trkpt>
<trkpt lat="-27.3748554" lon="152.9552330">
<ele>104.330</ele>
<time>2017-05-17T00:02:35.170Z</time>
</trkpt>
<trkpt lat="-27.3748620" lon="152.9546520">
<ele>105.183</ele>
<time>2017-05-17T00:02:38.150Z</time>
</trkpt>
<trkpt lat="-27.3747943" lon="152.9540546">
<ele>105.817</ele>
<time>2017-05-17T00:02:41.150Z</time>
</trkpt>
<trkpt lat="-27.3748408" lon="152.9534465">
<ele>106.286</ele>
<time>2017-05-17T00:02:44.166Z</time>
</trkpt>
<trkpt lat="-27.3748909" lon="152.9530600">
<ele>106.647</ele>
<time>2017-05-17T00:02:46.128Z</time>
</trkpt>
<trkpt lat="-27.3751962" lon="152.9525771">
<ele>106.896</ele>
<time>2017-05-17T00:02:49.118Z</time>
</trkpt>
<trkpt lat="-27.3755910" lon="152.9521762">
<ele>107.041</ele>
<time>2017-05-17T00:02:52.113Z</time>
</trkpt>
<trkpt lat="-27.3759339" lon="152.9517047">
<ele>107.093</ele>
<time>2017-05-17T00:02:55.127Z</time>
</trkpt>
<trkpt lat="-27.3762978" lon="152.9512641">
<ele>107.068</ele>
<time>2017-05-17T00:02:58.091Z</time>
</trkpt>
<trkpt lat="-27.3765665" lon="152.9509967">
<ele>107.022</ele>
<time>2017-05-17T00:03:00.057Z</time>
</trkpt>
<trkpt lat="-27.3768784" lon="152.9507643">
<ele>107.031</ele>
<time>2017-05-17T00:03:02.092Z</time>
</trkpt>
<trkpt lat="-27.3773373" lon="152.9504247">
<ele>107.264</ele>
<time>2017-05-17T00:03:05.081Z</time>
</trkpt>
<trkpt lat="-27.3777754" lon="152.9500677">
<ele>107.997</ele>
<time>2017-05-17T00:03:08.048Z</time>
</trkpt>
<trkpt lat="-27.3782471" lon="152.9498103">
<ele>109.327</ele>
<time>2017-05-17T00:03:10.976Z</time>
</trkpt>
<trkpt lat="-27.3787327" lon="152.9495790">
<ele>110.948</ele>
<time>2017-05-17T00:03:13.974Z</time>
</trkpt>
<trkpt lat="-27.3791963" lon="152.9493552">
<ele>112.302</ele>
<time>2017-05-17T00:03:16.915Z</time>
</trkpt>
<trkpt lat="-27.3794691" lon="152.9491687">
<ele>112.916</ele>
<time>2017-05-17T00:03:18.862Z</time>
</trkpt>
<trkpt lat="-27.3797024" lon="152.9489228">
<ele>112.720</ele>
<time>2017-05-17T00:03:20.860Z</time>
</trkpt>
<trkpt lat="-27.3800458" lon="152.9485632">
<ele>112.111</ele>
<time>2017-05-17T00:03:23.838Z</time>
</trkpt>
<trkpt lat="-27.3802585" lon="152.9483336">
<ele>111.562</ele>
<time>2017-05-17T00:03:25.817Z</time>
</trkpt>
<trkpt lat="-27.3806434" lon="152.9481364">
<ele>111.325</ele>
<time>2017-05-17T00:03:28.995Z</time>
</trkpt>
<trkpt lat="-27.3809445" lon="152.9482320">
<ele>111.541</ele>
<time>2017-05-17T00:03:31.889Z</time>
</trkpt>
<trkpt lat="-27.3810531" lon="152.9483085">
<ele>112.253</ele>
<time>2017-05-17T00:03:33.479Z</time>
</trkpt>
<trkpt lat="-27.3811525" lon="152.9483555">
<ele>113.207</ele>
<time>2017-05-17T00:03:35.237Z</time>
</trkpt>
<trkpt lat="-27.3812828" lon="152.9484093">
<ele>114.024</ele>
<time>2017-05-17T00:03:38.000Z</time>
</trkpt>
<trkpt lat="-27.3812828" lon="152.9484093">
<ele>114.521</ele>
<time>2017-05-17T00:03:43.000Z</time>
</trkpt>
<trkpt lat="-27.3812828" lon="152.9484093">
<ele>114.679</ele>
<time>2017-05-17T00:03:46.554Z</time>
</trkpt>
<trkpt lat="-27.3815059" lon="152.9483606">
<ele>114.600</ele>
<time>2017-05-17T00:03:52.607Z</time>
</trkpt>
<trkpt lat="-27.3815438" lon="152.9480509">
<ele>114.656</ele>
<time>2017-05-17T00:03:55.855Z</time>
</trkpt>
<trkpt lat="-27.3815625" lon="152.9477952">
<ele>115.155</ele>
<time>2017-05-17T00:03:57.860Z</time>
</trkpt>
<trkpt lat="-27.3815971" lon="152.9475215">
<ele>115.916</ele>
<time>2017-05-17T00:03:59.732Z</time>
</trkpt>
<trkpt lat="-27.3816620" lon="152.9470514">
<ele>116.540</ele>
<time>2017-05-17T00:04:02.729Z</time>
</trkpt>
<trkpt lat="-27.3817333" lon="152.9467238">
<ele>116.846</ele>
<time>2017-05-17T00:04:04.703Z</time>
</trkpt>
<trkpt lat="-27.3817654" lon="152.9462098">
<ele>116.811</ele>
<time>2017-05-17T00:04:07.639Z</time>
</trkpt>
<trkpt lat="-27.3818409" lon="152.9456518">
<ele>116.475</ele>
<time>2017-05-17T00:04:10.740Z</time>
</trkpt>
<trkpt lat="-27.3818752" lon="152.9452784">
<ele>115.845</ele>
<time>2017-05-17T00:04:12.787Z</time>
</trkpt>
<trkpt lat="-27.3819500" lon="152.9447489">
<ele>114.909</ele>
<time>2017-05-17T00:04:15.764Z</time>
</trkpt>
<trkpt lat="-27.3820065" lon="152.9444146">
<ele>113.837</ele>
<time>2017-05-17T00:04:17.741Z</time>
</trkpt>
<trkpt lat="-27.3820796" lon="152.9439513">
<ele>112.995</ele>
<time>2017-05-17T00:04:20.571Z</time>
</trkpt>
<trkpt lat="-27.3821580" lon="152.9435014">
<ele>112.682</ele>
<time>2017-05-17T00:04:23.474Z</time>
</trkpt>
<trkpt lat="-27.3822590" lon="152.9432344">
<ele>112.874</ele>
<time>2017-05-17T00:04:25.375Z</time>
</trkpt>
<trkpt lat="-27.3823766" lon="152.9429631">
<ele>113.239</ele>
<time>2017-05-17T00:04:27.340Z</time>
</trkpt>
<trkpt lat="-27.3825912" lon="152.9425796">
<ele>113.503</ele>
<time>2017-05-17T00:04:30.260Z</time>
</trkpt>
<trkpt lat="-27.3828220" lon="152.9421994">
<ele>113.749</ele>
<time>2017-05-17T00:04:33.130Z</time>
</trkpt>
<trkpt lat="-27.3830348" lon="152.9417454">
<ele>114.318</ele>
<time>2017-05-17T00:04:36.145Z</time>
</trkpt>
<trkpt lat="-27.3831184" lon="152.9414152">
<ele>115.574</ele>
<time>2017-05-17T00:04:38.098Z</time>
</trkpt>
<trkpt lat="-27.3832069" lon="152.9409090">
<ele>117.420</ele>
<time>2017-05-17T00:04:41.028Z</time>
</trkpt>
<trkpt lat="-27.3832584" lon="152.9405649">
<ele>119.386</ele>
<time>2017-05-17T00:04:43.014Z</time>
</trkpt>
<trkpt lat="-27.3832880" lon="152.9402358">
<ele>121.127</ele>
<time>2017-05-17T00:04:44.927Z</time>
</trkpt>
<trkpt lat="-27.3832752" lon="152.9397238">
<ele>122.381</ele>
<time>2017-05-17T00:04:47.896Z</time>
</trkpt>
<trkpt lat="-27.3831820" lon="152.9393828">
<ele>122.931</ele>
<time>2017-05-17T00:04:49.903Z</time>
</trkpt>
<trkpt lat="-27.3831001" lon="152.9390391">
<ele>122.842</ele>
<time>2017-05-17T00:04:51.863Z</time>
</trkpt>
<trkpt lat="-27.3828986" lon="152.9385416">
<ele>122.271</ele>
<time>2017-05-17T00:04:54.854Z</time>
</trkpt>
<trkpt lat="-27.3827753" lon="152.9382060">
<ele>121.366</ele>
<time>2017-05-17T00:04:56.820Z</time>
</trkpt>
<trkpt lat="-27.3824125" lon="152.9378313">
<ele>120.445</ele>
<time>2017-05-17T00:04:59.785Z</time>
</trkpt>
<trkpt lat="-27.3821901" lon="152.9375766">
<ele>119.865</ele>
<time>2017-05-17T00:05:01.710Z</time>
</trkpt>
<trkpt lat="-27.3817974" lon="152.9372091">
<ele>119.658</ele>
<time>2017-05-17T00:05:04.910Z</time>
</trkpt>
<trkpt lat="-27.3815474" lon="152.9370765">
<ele>119.430</ele>
<time>2017-05-17T00:05:06.708Z</time>
</trkpt>
<trkpt lat="-27.3810931" lon="152.9371652">
<ele>118.748</ele>
<time>2017-05-17T00:05:09.714Z</time>
</trkpt>
<trkpt lat="-27.3806268" lon="152.9372124">
<ele>117.450</ele>
<time>2017-05-17T00:05:12.685Z</time>
</trkpt>
<trkpt lat="-27.3801593" lon="152.9372183">
<ele>115.656</ele>
<time>2017-05-17T00:05:15.581Z</time>
</trkpt>
<trkpt lat="-27.3798468" lon="152.9373619">
<ele>113.697</ele>
<time>2017-05-17T00:05:17.595Z</time>
</trkpt>
<trkpt lat="-27.3793858" lon="152.9376194">
<ele>112.037</ele>
<time>2017-05-17T00:05:20.569Z</time>
</trkpt>
<trkpt lat="-27.3791102" lon="152.9378483">
<ele>110.850</ele>
<time>2017-05-17T00:05:22.517Z</time>
</trkpt>
<trkpt lat="-27.3788793" lon="152.9381404">
<ele>110.025</ele>
<time>2017-05-17T00:05:24.488Z</time>
</trkpt>
<trkpt lat="-27.3785855" lon="152.9386950">
<ele>109.438</ele>
<time>2017-05-17T00:05:27.713Z</time>
</trkpt>
<trkpt lat="-27.3782485" lon="152.9391577">
<ele>108.924</ele>
<time>2017-05-17T00:05:30.676Z</time>
</trkpt>
<trkpt lat="-27.3779143" lon="152.9396550">
<ele>108.342</ele>
<time>2017-05-17T00:05:33.737Z</time>
</trkpt>
<trkpt lat="-27.3776038" lon="152.9401428">
<ele>107.696</ele>
<time>2017-05-17T00:05:36.663Z</time>
</trkpt>
<trkpt lat="-27.3772981" lon="152.9405890">
<ele>107.008</ele>
<time>2017-05-17T00:05:39.461Z</time>
</trkpt>
<trkpt lat="-27.3770949" lon="152.9409158">
<ele>106.359</ele>
<time>2017-05-17T00:05:41.501Z</time>
</trkpt>
<trkpt lat="-27.3769037" lon="152.9412219">
<ele>105.844</ele>
<time>2017-05-17T00:05:43.430Z</time>
</trkpt>
<trkpt lat="-27.3766947" lon="152.9415440">
<ele>105.459</ele>
<time>2017-05-17T00:05:45.494Z</time>
</trkpt>
<trkpt lat="-27.3765038" lon="152.9418434">
<ele>105.190</ele>
<time>2017-05-17T00:05:47.447Z</time>
</trkpt>
<trkpt lat="-27.3760757" lon="152.9420215">
<ele>105.057</ele>
<time>2017-05-17T00:05:50.279Z</time>
</trkpt>
<trkpt lat="-27.3757200" lon="152.9418593">
<ele>105.057</ele>
<time>2017-05-17T00:05:52.564Z</time>
</trkpt>
<trkpt lat="-27.3751471" lon="152.9418174">
<ele>105.218</ele>
<time>2017-05-17T00:05:55.732Z</time>
</trkpt>
<trkpt lat="-27.3747779" lon="152.9417995">
<ele>105.603</ele>
<time>2017-05-17T00:05:57.718Z</time>
</trkpt>
<trkpt lat="-27.3742435" lon="152.9416972">
<ele>106.098</ele>
<time>2017-05-17T00:06:00.658Z</time>
</trkpt>
<trkpt lat="-27.3736972" lon="152.9415510">
<ele>106.435</ele>
<time>2017-05-17T00:06:03.741Z</time>
</trkpt>
<trkpt lat="-27.3732233" lon="152.9413067">
<ele>106.515</ele>
<time>2017-05-17T00:06:06.607Z</time>
</trkpt>
<trkpt lat="-27.3728170" lon="152.9408886">
<ele>106.407</ele>
<time>2017-05-17T00:06:09.609Z</time>
</trkpt>
<trkpt lat="-27.3725030" lon="152.9403821">
<ele>105.987</ele>
<time>2017-05-17T00:06:12.602Z</time>
</trkpt>
<trkpt lat="-27.3721291" lon="152.9399917">
<ele>104.961</ele>
<time>2017-05-17T00:06:15.487Z</time>
</trkpt>
<trkpt lat="-27.3716632" lon="152.9398865">
<ele>103.316</ele>
<time>2017-05-17T00:06:18.360Z</time>
</trkpt>
<trkpt lat="-27.3713544" lon="152.9399563">
<ele>101.352</ele>
<time>2017-05-17T00:06:20.341Z</time>
</trkpt>
<trkpt lat="-27.3710483" lon="152.9399993">
<ele>99.402</ele>
<time>2017-05-17T00:06:22.297Z</time>
</trkpt>
<trkpt lat="-27.3706227" lon="152.9398770">
<ele>97.657</ele>
<time>2017-05-17T00:06:25.196Z</time>
</trkpt>
<trkpt lat="-27.3702556" lon="152.9394209">
<ele>95.913</ele>
<time>2017-05-17T00:06:28.680Z</time>
</trkpt>
<trkpt lat="-27.3700770" lon="152.9387767">
<ele>93.744</ele>
<time>2017-05-17T00:06:31.868Z</time>
</trkpt>
<trkpt lat="-27.3699358" lon="152.9383026">
<ele>91.335</ele>
<time>2017-05-17T00:06:33.953Z</time>
</trkpt>
<trkpt lat="-27.3698423" lon="152.9378530">
<ele>89.425</ele>
<time>2017-05-17T00:06:35.908Z</time>
</trkpt>
<trkpt lat="-27.3697649" lon="152.9374526">
<ele>88.175</ele>
<time>2017-05-17T00:06:37.794Z</time>
</trkpt>
<trkpt lat="-27.3695295" lon="152.9369838">
<ele>86.851</ele>
<time>2017-05-17T00:06:40.503Z</time>
</trkpt>
<trkpt lat="-27.3691028" lon="152.9366599">
<ele>84.549</ele>
<time>2017-05-17T00:06:43.539Z</time>
</trkpt>
<trkpt lat="-27.3686233" lon="152.9363318">
<ele>81.044</ele>
<time>2017-05-17T00:06:46.615Z</time>
</trkpt>
<trkpt lat="-27.3681170" lon="152.9360486">
<ele>76.810</ele>
<time>2017-05-17T00:06:49.608Z</time>
</trkpt>
<trkpt lat="-27.3676944" lon="152.9356542">
<ele>72.031</ele>
<time>2017-05-17T00:06:52.521Z</time>
</trkpt>
<trkpt lat="-27.3675121" lon="152.9350138">
<ele>67.330</ele>
<time>2017-05-17T00:06:55.621Z</time>
</trkpt>
<trkpt lat="-27.3672889" lon="152.9344032">
<ele>63.844</ele>
<time>2017-05-17T00:06:58.639Z</time>
</trkpt>
<trkpt lat="-27.3671728" lon="152.9338288">
<ele>61.302</ele>
<time>2017-05-17T00:07:01.433Z</time>
</trkpt>
<trkpt lat="-27.3672333" lon="152.9333464">
<ele>58.548</ele>
<time>2017-05-17T00:07:03.710Z</time>
</trkpt>
<trkpt lat="-27.3672773" lon="152.9329133">
<ele>55.792</ele>
<time>2017-05-17T00:07:05.700Z</time>
</trkpt>
<trkpt lat="-27.3673240" lon="152.9322924">
<ele>54.014</ele>
<time>2017-05-17T00:07:08.614Z</time>
</trkpt>
<trkpt lat="-27.3672986" lon="152.9319123">
<ele>53.459</ele>
<time>2017-05-17T00:07:10.491Z</time>
</trkpt>
<trkpt lat="-27.3671179" lon="152.9315953">
<ele>53.375</ele>
<time>2017-05-17T00:07:12.374Z</time>
</trkpt>
<trkpt lat="-27.3667445" lon="152.9312602">
<ele>52.822</ele>
<time>2017-05-17T00:07:14.938Z</time>
</trkpt>
<trkpt lat="-27.3663352" lon="152.9308262">
<ele>51.312</ele>
<time>2017-05-17T00:07:17.877Z</time>
</trkpt>
<trkpt lat="-27.3660926" lon="152.9305181">
<ele>48.899</ele>
<time>2017-05-17T00:07:19.823Z</time>
</trkpt>
<trkpt lat="-27.3657003" lon="152.9301126">
<ele>46.286</ele>
<time>2017-05-17T00:07:22.698Z</time>
</trkpt>
<trkpt lat="-27.3657400" lon="152.9293795">
<ele>44.529</ele>
<time>2017-05-17T00:07:26.052Z</time>
</trkpt>
<trkpt lat="-27.3658057" lon="152.9286459">
<ele>42.788</ele>
<time>2017-05-17T00:07:29.235Z</time>
</trkpt>
<trkpt lat="-27.3657032" lon="152.9280024">
<ele>39.822</ele>
<time>2017-05-17T00:07:32.109Z</time>
</trkpt>
<trkpt lat="-27.3656457" lon="152.9275915">
<ele>37.443</ele>
<time>2017-05-17T00:07:34.026Z</time>
</trkpt>
<trkpt lat="-27.3656570" lon="152.9271846">
<ele>37.837</ele>
<time>2017-05-17T00:07:35.953Z</time>
</trkpt>
<trkpt lat="-27.3656507" lon="152.9267877">
<ele>40.335</ele>
<time>2017-05-17T00:07:37.870Z</time>
</trkpt>
<trkpt lat="-27.3654391" lon="152.9262520">
<ele>43.246</ele>
<time>2017-05-17T00:07:40.732Z</time>
</trkpt>
<trkpt lat="-27.3652452" lon="152.9256937">
<ele>45.676</ele>
<time>2017-05-17T00:07:43.675Z</time>
</trkpt>
<trkpt lat="-27.3650533" lon="152.9253849">
<ele>47.602</ele>
<time>2017-05-17T00:07:45.564Z</time>
</trkpt>
<trkpt lat="-27.3647654" lon="152.9251560">
<ele>49.168</ele>
<time>2017-05-17T00:07:47.575Z</time>
</trkpt>
<trkpt lat="-27.3643694" lon="152.9249900">
<ele>50.391</ele>
<time>2017-05-17T00:07:49.957Z</time>
</trkpt>
<trkpt lat="-27.3638380" lon="152.9249286">
<ele>51.544</ele>
<time>2017-05-17T00:07:52.981Z</time>
</trkpt>
<trkpt lat="-27.3634922" lon="152.9250396">
<ele>53.425</ele>
<time>2017-05-17T00:07:55.059Z</time>
</trkpt>
<trkpt lat="-27.3631981" lon="152.9252516">
<ele>56.538</ele>
<time>2017-05-17T00:07:57.135Z</time>
</trkpt>
<trkpt lat="-27.3629476" lon="152.9254735">
<ele>60.051</ele>
<time>2017-05-17T00:07:59.069Z</time>
</trkpt>
<trkpt lat="-27.3627574" lon="152.9257838">
<ele>62.560</ele>
<time>2017-05-17T00:08:01.085Z</time>
</trkpt>
<trkpt lat="-27.3626202" lon="152.9261382">
<ele>63.601</ele>
<time>2017-05-17T00:08:03.104Z</time>
</trkpt>
<trkpt lat="-27.3625384" lon="152.9265125">
<ele>63.589</ele>
<time>2017-05-17T00:08:05.100Z</time>
</trkpt>
<trkpt lat="-27.3624602" lon="152.9268811">
<ele>63.127</ele>
<time>2017-05-17T00:08:07.069Z</time>
</trkpt>
<trkpt lat="-27.3622969" lon="152.9274178">
<ele>62.717</ele>
<time>2017-05-17T00:08:10.029Z</time>
</trkpt>
<trkpt lat="-27.3620850" lon="152.9279207">
<ele>62.805</ele>
<time>2017-05-17T00:08:12.961Z</time>
</trkpt>
<trkpt lat="-27.3618636" lon="152.9281924">
<ele>63.917</ele>
<time>2017-05-17T00:08:14.943Z</time>
</trkpt>
<trkpt lat="-27.3615342" lon="152.9285787">
<ele>66.238</ele>
<time>2017-05-17T00:08:17.863Z</time>
</trkpt>
<trkpt lat="-27.3610719" lon="152.9287072">
<ele>69.324</ele>
<time>2017-05-17T00:08:20.808Z</time>
</trkpt>
<trkpt lat="-27.3606369" lon="152.9284642">
<ele>72.564</ele>
<time>2017-05-17T00:08:23.764Z</time>
</trkpt>
<trkpt lat="-27.3603725" lon="152.9282136">
<ele>75.364</ele>
<time>2017-05-17T00:08:25.777Z</time>
</trkpt>
<trkpt lat="-27.3601045" lon="152.9279290">
<ele>77.181</ele>
<time>2017-05-17T00:08:27.836Z</time>
</trkpt>
<trkpt lat="-27.3597078" lon="152.9274914">
<ele>77.924</ele>
<time>2017-05-17T00:08:30.893Z</time>
</trkpt>
<trkpt lat="-27.3593278" lon="152.9270743">
<ele>77.804</ele>
<time>2017-05-17T00:08:33.876Z</time>
</trkpt>
<trkpt lat="-27.3589334" lon="152.9269252">
<ele>76.985</ele>
<time>2017-05-17T00:08:36.257Z</time>
</trkpt>
<trkpt lat="-27.3583297" lon="152.9270796">
<ele>75.613</ele>
<time>2017-05-17T00:08:39.650Z</time>
</trkpt>
<trkpt lat="-27.3579715" lon="152.9270901">
<ele>73.680</ele>
<time>2017-05-17T00:08:41.578Z</time>
</trkpt>
<trkpt lat="-27.3574380" lon="152.9269443">
<ele>71.165</ele>
<time>2017-05-17T00:08:44.527Z</time>
</trkpt>
<trkpt lat="-27.3569518" lon="152.9266088">
<ele>68.566</ele>
<time>2017-05-17T00:08:47.634Z</time>
</trkpt>
<trkpt lat="-27.3564790" lon="152.9264093">
<ele>66.667</ele>
<time>2017-05-17T00:08:50.455Z</time>
</trkpt>
<trkpt lat="-27.3561153" lon="152.9265093">
<ele>66.362</ele>
<time>2017-05-17T00:08:52.497Z</time>
</trkpt>
<trkpt lat="-27.3555555" lon="152.9265867">
<ele>67.738</ele>
<time>2017-05-17T00:08:55.487Z</time>
</trkpt>
<trkpt lat="-27.3551565" lon="152.9265388">
<ele>69.439</ele>
<time>2017-05-17T00:08:57.529Z</time>
</trkpt>
<trkpt lat="-27.3547336" lon="152.9264882">
<ele>70.169</ele>
<time>2017-05-17T00:08:59.649Z</time>
</trkpt>
<trkpt lat="-27.3541479" lon="152.9264025">
<ele>69.761</ele>
<time>2017-05-17T00:09:02.600Z</time>
</trkpt>
<trkpt lat="-27.3537608" lon="152.9264011">
<ele>68.552</ele>
<time>2017-05-17T00:09:04.543Z</time>
</trkpt>
<trkpt lat="-27.3531792" lon="152.9262871">
<ele>67.207</ele>
<time>2017-05-17T00:09:07.499Z</time>
</trkpt>
<trkpt lat="-27.3527946" lon="152.9261980">
<ele>66.385</ele>
<time>2017-05-17T00:09:09.470Z</time>
</trkpt>
<trkpt lat="-27.3524267" lon="152.9260696">
<ele>66.227</ele>
<time>2017-05-17T00:09:11.466Z</time>
</trkpt>
<trkpt lat="-27.3519468" lon="152.9257606">
<ele>66.389</ele>
<time>2017-05-17T00:09:14.453Z</time>
</trkpt>
<trkpt lat="-27.3516443" lon="152.9252736">
<ele>66.418</ele>
<time>2017-05-17T00:09:17.361Z</time>
</trkpt>
<trkpt lat="-27.3515275" lon="152.9246353">
<ele>65.968</ele>
<time>2017-05-17T00:09:20.443Z</time>
</trkpt>
<trkpt lat="-27.3514222" lon="152.9240005">
<ele>65.059</ele>
<time>2017-05-17T00:09:23.456Z</time>
</trkpt>
<trkpt lat="-27.3512858" lon="152.9236347">
<ele>63.961</ele>
<time>2017-05-17T00:09:25.426Z</time>
</trkpt>
<trkpt lat="-27.3509956" lon="152.9231760">
<ele>62.906</ele>
<time>2017-05-17T00:09:28.417Z</time>
</trkpt>
<trkpt lat="-27.3508548" lon="152.9228955">
<ele>62.021</ele>
<time>2017-05-17T00:09:30.304Z</time>
</trkpt>
<trkpt lat="-27.3506250" lon="152.9224859">
<ele>61.354</ele>
<time>2017-05-17T00:09:33.212Z</time>
</trkpt>
<trkpt lat="-27.3504284" lon="152.9222265">
<ele>60.938</ele>
<time>2017-05-17T00:09:35.224Z</time>
</trkpt>
<trkpt lat="-27.3501980" lon="152.9217500">
<ele>60.694</ele>
<time>2017-05-17T00:09:38.358Z</time>
</trkpt>
<trkpt lat="-27.3501124" lon="152.9212462">
<ele>60.063</ele>
<time>2017-05-17T00:09:41.309Z</time>
</trkpt>
<trkpt lat="-27.3501951" lon="152.9208458">
<ele>58.240</ele>
<time>2017-05-17T00:09:43.685Z</time>
</trkpt>
<trkpt lat="-27.3502766" lon="152.9205410">
<ele>55.163</ele>
<time>2017-05-17T00:09:45.573Z</time>
</trkpt>
<trkpt lat="-27.3503428" lon="152.9202452">
<ele>51.849</ele>
<time>2017-05-17T00:09:47.470Z</time>
</trkpt>
<trkpt lat="-27.3503294" lon="152.9197586">
<ele>49.419</ele>
<time>2017-05-17T00:09:50.534Z</time>
</trkpt>
<trkpt lat="-27.3502447" lon="152.9194261">
<ele>48.045</ele>
<time>2017-05-17T00:09:52.666Z</time>
</trkpt>
<trkpt lat="-27.3501273" lon="152.9191343">
<ele>46.558</ele>
<time>2017-05-17T00:09:54.811Z</time>
</trkpt>
<trkpt lat="-27.3500744" lon="152.9187595">
<ele>44.064</ele>
<time>2017-05-17T00:09:57.781Z</time>
</trkpt>
<trkpt lat="-27.3501914" lon="152.9186170">
<ele>41.029</ele>
<time>2017-05-17T00:09:59.836Z</time>
</trkpt>
<trkpt lat="-27.3504843" lon="152.9185416">
<ele>38.058</ele>
<time>2017-05-17T00:10:03.532Z</time>
</trkpt>
<trkpt lat="-27.3506906" lon="152.9185701">
<ele>35.098</ele>
<time>2017-05-17T00:10:05.880Z</time>
</trkpt>
<trkpt lat="-27.3509669" lon="152.9185027">
<ele>32.348</ele>
<time>2017-05-17T00:10:09.018Z</time>
</trkpt>
<trkpt lat="-27.3510783" lon="152.9183209">
<ele>30.428</ele>
<time>2017-05-17T00:10:11.620Z</time>
</trkpt>
<trkpt lat="-27.3512318" lon="152.9181576">
<ele>29.725</ele>
<time>2017-05-17T00:10:16.619Z</time>
</trkpt>
<trkpt lat="-27.3512877" lon="152.9180531">
<ele>29.957</ele>
<time>2017-05-17T00:10:19.183Z</time>
</trkpt>
<trkpt lat="-27.3512558" lon="152.9179342">
<ele>30.633</ele>
<time>2017-05-17T00:10:20.630Z</time>
</trkpt>
<trkpt lat="-27.3511898" lon="152.9177245">
<ele>31.456</ele>
<time>2017-05-17T00:10:22.432Z</time>
</trkpt>
<trkpt lat="-27.3510670" lon="152.9174552">
<ele>32.354</ele>
<time>2017-05-17T00:10:24.493Z</time>
</trkpt>
<trkpt lat="-27.3508868" lon="152.9172116">
<ele>33.273</ele>
<time>2017-05-17T00:10:26.554Z</time>
</trkpt>
<trkpt lat="-27.3506479" lon="152.9170948">
<ele>34.082</ele>
<time>2017-05-17T00:10:28.430Z</time>
</trkpt>
<trkpt lat="-27.3501133" lon="152.9171269">
<ele>34.634</ele>
<time>2017-05-17T00:10:31.962Z</time>
</trkpt>
<trkpt lat="-27.3498148" lon="152.9171914">
<ele>35.075</ele>
<time>2017-05-17T00:10:33.898Z</time>
</trkpt>
<trkpt lat="-27.3494977" lon="152.9171390">
<ele>35.877</ele>
<time>2017-05-17T00:10:35.982Z</time>
</trkpt>
<trkpt lat="-27.3490943" lon="152.9170272">
<ele>37.334</ele>
<time>2017-05-17T00:10:38.807Z</time>
</trkpt>
<trkpt lat="-27.3488518" lon="152.9165983">
<ele>39.413</ele>
<time>2017-05-17T00:10:41.809Z</time>
</trkpt>
<trkpt lat="-27.3487638" lon="152.9162583">
<ele>41.569</ele>
<time>2017-05-17T00:10:43.862Z</time>
</trkpt>
<trkpt lat="-27.3488335" lon="152.9157406">
<ele>43.021</ele>
<time>2017-05-17T00:10:46.843Z</time>
</trkpt>
<trkpt lat="-27.3489080" lon="152.9152283">
<ele>43.589</ele>
<time>2017-05-17T00:10:49.800Z</time>
</trkpt>
<trkpt lat="-27.3489802" lon="152.9148932">
<ele>43.838</ele>
<time>2017-05-17T00:10:51.771Z</time>
</trkpt>
<trkpt lat="-27.3489937" lon="152.9145503">
<ele>44.212</ele>
<time>2017-05-17T00:10:53.727Z</time>
</trkpt>
<trkpt lat="-27.3490187" lon="152.9141997">
<ele>44.610</ele>
<time>2017-05-17T00:10:55.746Z</time>
</trkpt>
<trkpt lat="-27.3489510" lon="152.9138585">
<ele>44.824</ele>
<time>2017-05-17T00:10:57.775Z</time>
</trkpt>
<trkpt lat="-27.3486758" lon="152.9134723">
<ele>45.048</ele>
<time>2017-05-17T00:11:00.566Z</time>
</trkpt>
<trkpt lat="-27.3483147" lon="152.9131120">
<ele>45.505</ele>
<time>2017-05-17T00:11:03.462Z</time>
</trkpt>
<trkpt lat="-27.3479785" lon="152.9128916">
<ele>46.058</ele>
<time>2017-05-17T00:11:05.747Z</time>
</trkpt>
<trkpt lat="-27.3475900" lon="152.9124515">
<ele>46.302</ele>
<time>2017-05-17T00:11:09.061Z</time>
</trkpt>
<trkpt lat="-27.3473552" lon="152.9119926">
<ele>46.118</ele>
<time>2017-05-17T00:11:12.026Z</time>
</trkpt>
<trkpt lat="-27.3472860" lon="152.9116322">
<ele>46.016</ele>
<time>2017-05-17T00:11:14.151Z</time>
</trkpt>
<trkpt lat="-27.3470960" lon="152.9111912">
<ele>46.645</ele>
<time>2017-05-17T00:11:17.072Z</time>
</trkpt>
<trkpt lat="-27.3467399" lon="152.9109080">
<ele>47.976</ele>
<time>2017-05-17T00:11:19.993Z</time>
</trkpt>
<trkpt lat="-27.3463377" lon="152.9107032">
<ele>49.335</ele>
<time>2017-05-17T00:11:22.939Z</time>
</trkpt>
<trkpt lat="-27.3460781" lon="152.9105404">
<ele>49.926</ele>
<time>2017-05-17T00:11:24.942Z</time>
</trkpt>
<trkpt lat="-27.3458232" lon="152.9104196">
<ele>49.579</ele>
<time>2017-05-17T00:11:26.797Z</time>
</trkpt>
<trkpt lat="-27.3453649" lon="152.9103862">
<ele>48.735</ele>
<time>2017-05-17T00:11:29.788Z</time>
</trkpt>
<trkpt lat="-27.3450075" lon="152.9105993">
<ele>47.319</ele>
<time>2017-05-17T00:11:32.817Z</time>
</trkpt>
<trkpt lat="-27.3447727" lon="152.9107367">
<ele>45.163</ele>
<time>2017-05-17T00:11:35.867Z</time>
</trkpt>
<trkpt lat="-27.3446219" lon="152.9108442">
<ele>43.096</ele>
<time>2017-05-17T00:11:38.329Z</time>
</trkpt>
<trkpt lat="-27.3444746" lon="152.9107980">
<ele>41.955</ele>
<time>2017-05-17T00:11:39.811Z</time>
</trkpt>
<trkpt lat="-27.3444080" lon="152.9105920">
<ele>41.440</ele>
<time>2017-05-17T00:11:41.514Z</time>
</trkpt>
<trkpt lat="-27.3445181" lon="152.9101449">
<ele>40.475</ele>
<time>2017-05-17T00:11:44.390Z</time>
</trkpt>
<trkpt lat="-27.3446096" lon="152.9098341">
<ele>38.760</ele>
<time>2017-05-17T00:11:46.387Z</time>
</trkpt>
<trkpt lat="-27.3446864" lon="152.9095113">
<ele>37.472</ele>
<time>2017-05-17T00:11:48.462Z</time>
</trkpt>
<trkpt lat="-27.3447976" lon="152.9090546">
<ele>37.606</ele>
<time>2017-05-17T00:11:51.739Z</time>
</trkpt>
<trkpt lat="-27.3448239" lon="152.9087699">
<ele>38.950</ele>
<time>2017-05-17T00:11:54.610Z</time>
</trkpt>
<trkpt lat="-27.3448691" lon="152.9085339">
<ele>40.838</ele>
<time>2017-05-17T00:11:59.056Z</time>
</trkpt>
<trkpt lat="-27.3449248" lon="152.9083493">
<ele>42.758</ele>
<time>2017-05-17T00:12:01.194Z</time>
</trkpt>
<trkpt lat="-27.3447778" lon="152.9083634">
<ele>44.529</ele>
<time>2017-05-17T00:12:02.265Z</time>
</trkpt>
<trkpt lat="-27.3446298" lon="152.9085811">
<ele>46.146</ele>
<time>2017-05-17T00:12:03.806Z</time>
</trkpt>
<trkpt lat="-27.3443943" lon="152.9088342">
<ele>47.531</ele>
<time>2017-05-17T00:12:05.649Z</time>
</trkpt>
<trkpt lat="-27.3440249" lon="152.9093327">
<ele>48.620</ele>
<time>2017-05-17T00:12:08.581Z</time>
</trkpt>
<trkpt lat="-27.3436061" lon="152.9098443">
<ele>49.370</ele>
<time>2017-05-17T00:12:11.656Z</time>
</trkpt>
<trkpt lat="-27.3433159" lon="152.9104387">
<ele>49.515</ele>
<time>2017-05-17T00:12:14.592Z</time>
</trkpt>
<trkpt lat="-27.3431955" lon="152.9111274">
<ele>48.368</ele>
<time>2017-05-17T00:12:17.576Z</time>
</trkpt>
<trkpt lat="-27.3432174" lon="152.9118324">
<ele>45.483</ele>
<time>2017-05-17T00:12:20.590Z</time>
</trkpt>
<trkpt lat="-27.3432752" lon="152.9122948">
<ele>41.504</ele>
<time>2017-05-17T00:12:22.587Z</time>
</trkpt>
<trkpt lat="-27.3433523" lon="152.9127494">
<ele>37.868</ele>
<time>2017-05-17T00:12:24.567Z</time>
</trkpt>
<trkpt lat="-27.3434374" lon="152.9134304">
<ele>35.646</ele>
<time>2017-05-17T00:12:27.549Z</time>
</trkpt>
<trkpt lat="-27.3435150" lon="152.9138680">
<ele>35.231</ele>
<time>2017-05-17T00:12:29.526Z</time>
</trkpt>
<trkpt lat="-27.3434995" lon="152.9145122">
<ele>36.513</ele>
<time>2017-05-17T00:12:32.416Z</time>
</trkpt>
<trkpt lat="-27.3432933" lon="152.9148777">
<ele>39.142</ele>
<time>2017-05-17T00:12:34.358Z</time>
</trkpt>
<trkpt lat="-27.3429454" lon="152.9154121">
<ele>42.390</ele>
<time>2017-05-17T00:12:37.301Z</time>
</trkpt>
<trkpt lat="-27.3424502" lon="152.9157991">
<ele>45.319</ele>
<time>2017-05-17T00:12:40.283Z</time>
</trkpt>
<trkpt lat="-27.3420690" lon="152.9159481">
<ele>47.861</ele>
<time>2017-05-17T00:12:42.261Z</time>
</trkpt>
<trkpt lat="-27.3416688" lon="152.9160153">
<ele>50.698</ele>
<time>2017-05-17T00:12:44.224Z</time>
</trkpt>
<trkpt lat="-27.3410696" lon="152.9158529">
<ele>53.896</ele>
<time>2017-05-17T00:12:47.197Z</time>
</trkpt>
<trkpt lat="-27.3404920" lon="152.9156266">
<ele>57.247</ele>
<time>2017-05-17T00:12:50.123Z</time>
</trkpt>
<trkpt lat="-27.3398974" lon="152.9154338">
<ele>60.822</ele>
<time>2017-05-17T00:12:53.055Z</time>
</trkpt>
<trkpt lat="-27.3393013" lon="152.9152136">
<ele>64.501</ele>
<time>2017-05-17T00:12:56.014Z</time>
</trkpt>
<trkpt lat="-27.3388889" lon="152.9151146">
<ele>67.892</ele>
<time>2017-05-17T00:12:58.006Z</time>
</trkpt>
<trkpt lat="-27.3382689" lon="152.9149324">
<ele>70.633</ele>
<time>2017-05-17T00:13:01.040Z</time>
</trkpt>
<trkpt lat="-27.3378429" lon="152.9148026">
<ele>72.641</ele>
<time>2017-05-17T00:13:03.133Z</time>
</trkpt>
<trkpt lat="-27.3372029" lon="152.9149303">
<ele>74.028</ele>
<time>2017-05-17T00:13:06.215Z</time>
</trkpt>
<trkpt lat="-27.3366409" lon="152.9152226">
<ele>74.940</ele>
<time>2017-05-17T00:13:09.144Z</time>
</trkpt>
<trkpt lat="-27.3363169" lon="152.9155247">
<ele>75.578</ele>
<time>2017-05-17T00:13:11.124Z</time>
</trkpt>
<trkpt lat="-27.3359221" lon="152.9160851">
<ele>76.107</ele>
<time>2017-05-17T00:13:14.153Z</time>
</trkpt>
<trkpt lat="-27.3355198" lon="152.9165914">
<ele>76.704</ele>
<time>2017-05-17T00:13:17.094Z</time>
</trkpt>
<trkpt lat="-27.3352023" lon="152.9168626">
<ele>77.722</ele>
<time>2017-05-17T00:13:19.075Z</time>
</trkpt>
<trkpt lat="-27.3346251" lon="152.9170133">
<ele>79.342</ele>
<time>2017-05-17T00:13:22.046Z</time>
</trkpt>
<trkpt lat="-27.3340715" lon="152.9168492">
<ele>81.689</ele>
<time>2017-05-17T00:13:24.990Z</time>
</trkpt>
<trkpt lat="-27.3337162" lon="152.9167398">
<ele>84.521</ele>
<time>2017-05-17T00:13:26.997Z</time>
</trkpt>
<trkpt lat="-27.3333407" lon="152.9167010">
<ele>86.893</ele>
<time>2017-05-17T00:13:29.382Z</time>
</trkpt>
<trkpt lat="-27.3328875" lon="152.9168743">
<ele>88.418</ele>
<time>2017-05-17T00:13:33.125Z</time>
</trkpt>
<trkpt lat="-27.3327213" lon="152.9170379">
<ele>89.916</ele>
<time>2017-05-17T00:13:35.004Z</time>
</trkpt>
<trkpt lat="-27.3325058" lon="152.9170643">
<ele>91.705</ele>
<time>2017-05-17T00:13:36.705Z</time>
</trkpt>
<trkpt lat="-27.3322601" lon="152.9170110">
<ele>93.230</ele>
<time>2017-05-17T00:13:38.515Z</time>
</trkpt>
<trkpt lat="-27.3317997" lon="152.9169208">
<ele>94.393</ele>
<time>2017-05-17T00:13:41.517Z</time>
</trkpt>
<trkpt lat="-27.3313770" lon="152.9166214">
<ele>95.858</ele>
<time>2017-05-17T00:13:44.500Z</time>
</trkpt>
<trkpt lat="-27.3311560" lon="152.9163155">
<ele>97.876</ele>
<time>2017-05-17T00:13:46.575Z</time>
</trkpt>
<trkpt lat="-27.3309758" lon="152.9159937">
<ele>99.829</ele>
<time>2017-05-17T00:13:48.620Z</time>
</trkpt>
<trkpt lat="-27.3306781" lon="152.9155728">
<ele>101.083</ele>
<time>2017-05-17T00:13:51.723Z</time>
</trkpt>
<trkpt lat="-27.3304780" lon="152.9153445">
<ele>101.714</ele>
<time>2017-05-17T00:13:53.644Z</time>
</trkpt>
<trkpt lat="-27.3302265" lon="152.9152864">
<ele>102.075</ele>
<time>2017-05-17T00:13:55.290Z</time>
</trkpt>
<trkpt lat="-27.3298497" lon="152.9154071">
<ele>102.344</ele>
<time>2017-05-17T00:13:57.568Z</time>
</trkpt>
<trkpt lat="-27.3292296" lon="152.9154590">
<ele>102.630</ele>
<time>2017-05-17T00:14:01.003Z</time>
</trkpt>
<trkpt lat="-27.3287494" lon="152.9152239">
<ele>102.961</ele>
<time>2017-05-17T00:14:04.019Z</time>
</trkpt>
<trkpt lat="-27.3284499" lon="152.9151011">
<ele>103.123</ele>
<time>2017-05-17T00:14:05.904Z</time>
</trkpt>
<trkpt lat="-27.3281795" lon="152.9148462">
<ele>102.987</ele>
<time>2017-05-17T00:14:07.938Z</time>
</trkpt>
<trkpt lat="-27.3279586" lon="152.9145351">
<ele>102.816</ele>
<time>2017-05-17T00:14:09.938Z</time>
</trkpt>
<trkpt lat="-27.3276142" lon="152.9140724">
<ele>102.850</ele>
<time>2017-05-17T00:14:12.932Z</time>
</trkpt>
<trkpt lat="-27.3273395" lon="152.9138138">
<ele>102.818</ele>
<time>2017-05-17T00:14:14.949Z</time>
</trkpt>
<trkpt lat="-27.3270217" lon="152.9136461">
<ele>102.314</ele>
<time>2017-05-17T00:14:16.943Z</time>
</trkpt>
<trkpt lat="-27.3265193" lon="152.9135077">
<ele>101.496</ele>
<time>2017-05-17T00:14:20.057Z</time>
</trkpt>
<trkpt lat="-27.3262306" lon="152.9133189">
<ele>101.032</ele>
<time>2017-05-17T00:14:22.155Z</time>
</trkpt>
<trkpt lat="-27.3260408" lon="152.9128245">
<ele>101.328</ele>
<time>2017-05-17T00:14:25.270Z</time>
</trkpt>
<trkpt lat="-27.3258301" lon="152.9125881">
<ele>102.097</ele>
<time>2017-05-17T00:14:27.120Z</time>
</trkpt>
<trkpt lat="-27.3253195" lon="152.9124129">
<ele>102.794</ele>
<time>2017-05-17T00:14:30.057Z</time>
</trkpt>
<trkpt lat="-27.3249450" lon="152.9124060">
<ele>103.252</ele>
<time>2017-05-17T00:14:32.050Z</time>
</trkpt>
<trkpt lat="-27.3244857" lon="152.9124118">
<ele>103.685</ele>
<time>2017-05-17T00:14:34.511Z</time>
</trkpt>
<trkpt lat="-27.3239686" lon="152.9123210">
<ele>104.308</ele>
<time>2017-05-17T00:14:37.516Z</time>
</trkpt>
<trkpt lat="-27.3235213" lon="152.9121670">
<ele>105.013</ele>
<time>2017-05-17T00:14:40.425Z</time>
</trkpt>
<trkpt lat="-27.3232923" lon="152.9119022">
<ele>105.487</ele>
<time>2017-05-17T00:14:42.333Z</time>
</trkpt>
<trkpt lat="-27.3231745" lon="152.9115337">
<ele>105.521</ele>
<time>2017-05-17T00:14:44.291Z</time>
</trkpt>
<trkpt lat="-27.3231326" lon="152.9108892">
<ele>105.039</ele>
<time>2017-05-17T00:14:47.488Z</time>
</trkpt>
<trkpt lat="-27.3231280" lon="152.9105087">
<ele>104.046</ele>
<time>2017-05-17T00:14:49.479Z</time>
</trkpt>
<trkpt lat="-27.3230954" lon="152.9101149">
<ele>102.738</ele>
<time>2017-05-17T00:14:51.542Z</time>
</trkpt>
<trkpt lat="-27.3229390" lon="152.9097752">
<ele>101.377</ele>
<time>2017-05-17T00:14:53.507Z</time>
</trkpt>
<trkpt lat="-27.3225112" lon="152.9093144">
<ele>100.084</ele>
<time>2017-05-17T00:14:56.867Z</time>
</trkpt>
<trkpt lat="-27.3223221" lon="152.9090053">
<ele>98.765</ele>
<time>2017-05-17T00:14:58.806Z</time>
</trkpt>
<trkpt lat="-27.3221281" lon="152.9086981">
<ele>97.385</ele>
<time>2017-05-17T00:15:00.755Z</time>
</trkpt>
<trkpt lat="-27.3218249" lon="152.9082564">
<ele>96.202</ele>
<time>2017-05-17T00:15:03.661Z</time>
</trkpt>
<trkpt lat="-27.3217324" lon="152.9078833">
<ele>95.508</ele>
<time>2017-05-17T00:15:05.730Z</time>
</trkpt>
<trkpt lat="-27.3216259" lon="152.9073529">
<ele>95.407</ele>
<time>2017-05-17T00:15:08.740Z</time>
</trkpt>
<trkpt lat="-27.3215131" lon="152.9070206">
<ele>95.757</ele>
<time>2017-05-17T00:15:10.615Z</time>
</trkpt>
<trkpt lat="-27.3212124" lon="152.9066768">
<ele>96.135</ele>
<time>2017-05-17T00:15:13.045Z</time>
</trkpt>
<trkpt lat="-27.3208380" lon="152.9066087">
<ele>96.064</ele>
<time>2017-05-17T00:15:15.201Z</time>
</trkpt>
<trkpt lat="-27.3204656" lon="152.9067172">
<ele>95.516</ele>
<time>2017-05-17T00:15:17.554Z</time>
</trkpt>
<trkpt lat="-27.3199579" lon="152.9067145">
<ele>95.042</ele>
<time>2017-05-17T00:15:21.211Z</time>
</trkpt>
<trkpt lat="-27.3195493" lon="152.9066392">
<ele>95.368</ele>
<time>2017-05-17T00:15:24.465Z</time>
</trkpt>
<trkpt lat="-27.3193709" lon="152.9064954">
<ele>96.675</ele>
<time>2017-05-17T00:15:26.040Z</time>
</trkpt>
<trkpt lat="-27.3192059" lon="152.9060323">
<ele>98.529</ele>
<time>2017-05-17T00:15:29.179Z</time>
</trkpt>
<trkpt lat="-27.3190515" lon="152.9057599">
<ele>100.695</ele>
<time>2017-05-17T00:15:31.068Z</time>
</trkpt>
<trkpt lat="-27.3187607" lon="152.9053736">
<ele>102.973</ele>
<time>2017-05-17T00:15:33.891Z</time>
</trkpt>
<trkpt lat="-27.3186663" lon="152.9048305">
<ele>104.627</ele>
<time>2017-05-17T00:15:36.957Z</time>
</trkpt>
<trkpt lat="-27.3186377" lon="152.9044649">
<ele>105.266</ele>
<time>2017-05-17T00:15:39.236Z</time>
</trkpt>
<trkpt lat="-27.3186367" lon="152.9040989">
<ele>105.269</ele>
<time>2017-05-17T00:15:41.630Z</time>
</trkpt>
<trkpt lat="-27.3185698" lon="152.9038036">
<ele>105.082</ele>
<time>2017-05-17T00:15:43.569Z</time>
</trkpt>
<trkpt lat="-27.3182029" lon="152.9036543">
<ele>104.869</ele>
<time>2017-05-17T00:15:46.251Z</time>
</trkpt>
<trkpt lat="-27.3177999" lon="152.9038246">
<ele>104.481</ele>
<time>2017-05-17T00:15:49.275Z</time>
</trkpt>
<trkpt lat="-27.3174984" lon="152.9038507">
<ele>103.836</ele>
<time>2017-05-17T00:15:51.260Z</time>
</trkpt>
<trkpt lat="-27.3171100" lon="152.9036922">
<ele>103.208</ele>
<time>2017-05-17T00:15:53.805Z</time>
</trkpt>
<trkpt lat="-27.3169471" lon="152.9034270">
<ele>102.896</ele>
<time>2017-05-17T00:15:55.500Z</time>
</trkpt>
<trkpt lat="-27.3168754" lon="152.9028100">
<ele>102.891</ele>
<time>2017-05-17T00:15:58.778Z</time>
</trkpt>
<trkpt lat="-27.3167837" lon="152.9022641">
<ele>103.002</ele>
<time>2017-05-17T00:16:01.547Z</time>
</trkpt>
<trkpt lat="-27.3163418" lon="152.9018140">
<ele>103.021</ele>
<time>2017-05-17T00:16:04.961Z</time>
</trkpt>
<trkpt lat="-27.3159918" lon="152.9016962">
<ele>102.787</ele>
<time>2017-05-17T00:16:07.149Z</time>
</trkpt>
<trkpt lat="-27.3155141" lon="152.9015591">
<ele>102.366</ele>
<time>2017-05-17T00:16:10.143Z</time>
</trkpt>
<trkpt lat="-27.3152017" lon="152.9015178">
<ele>102.272</ele>
<time>2017-05-17T00:16:12.155Z</time>
</trkpt>
<trkpt lat="-27.3148779" lon="152.9016177">
<ele>103.031</ele>
<time>2017-05-17T00:16:14.454Z</time>
</trkpt>
<trkpt lat="-27.3144177" lon="152.9016893">
<ele>104.416</ele>
<time>2017-05-17T00:16:18.425Z</time>
</trkpt>
<trkpt lat="-27.3139944" lon="152.9018355">
<ele>105.644</ele>
<time>2017-05-17T00:16:22.638Z</time>
</trkpt>
<trkpt lat="-27.3136697" lon="152.9020317">
<ele>106.128</ele>
<time>2017-05-17T00:16:25.325Z</time>
</trkpt>
<trkpt lat="-27.3134865" lon="152.9019755">
<ele>105.886</ele>
<time>2017-05-17T00:16:26.553Z</time>
</trkpt>
<trkpt lat="-27.3133324" lon="152.9017744">
<ele>105.408</ele>
<time>2017-05-17T00:16:27.951Z</time>
</trkpt>
<trkpt lat="-27.3129850" lon="152.9012490">
<ele>105.216</ele>
<time>2017-05-17T00:16:31.283Z</time>
</trkpt>
<trkpt lat="-27.3125164" lon="152.9010155">
<ele>105.496</ele>
<time>2017-05-17T00:16:34.433Z</time>
</trkpt>
<trkpt lat="-27.3122379" lon="152.9007854">
<ele>106.167</ele>
<time>2017-05-17T00:16:36.523Z</time>
</trkpt>
<trkpt lat="-27.3119992" lon="152.9005378">
<ele>107.148</ele>
<time>2017-05-17T00:16:38.467Z</time>
</trkpt>
<trkpt lat="-27.3118677" lon="152.9002359">
<ele>108.460</ele>
<time>2017-05-17T00:16:40.276Z</time>
</trkpt>
<trkpt lat="-27.3118390" lon="152.8998511">
<ele>110.140</ele>
<time>2017-05-17T00:16:42.475Z</time>
</trkpt>
<trkpt lat="-27.3117998" lon="152.8992790">
<ele>112.156</ele>
<time>2017-05-17T00:16:45.856Z</time>
</trkpt>
<trkpt lat="-27.3117417" lon="152.8989094">
<ele>114.231</ele>
<time>2017-05-17T00:16:48.047Z</time>
</trkpt>
<trkpt lat="-27.3114690" lon="152.8985307">
<ele>115.875</ele>
<time>2017-05-17T00:16:50.886Z</time>
</trkpt>
<trkpt lat="-27.3111948" lon="152.8984048">
<ele>116.819</ele>
<time>2017-05-17T00:16:52.749Z</time>
</trkpt>
<trkpt lat="-27.3108310" lon="152.8983887">
<ele>117.191</ele>
<time>2017-05-17T00:16:54.923Z</time>
</trkpt>
<trkpt lat="-27.3105603" lon="152.8982355">
<ele>117.254</ele>
<time>2017-05-17T00:16:56.745Z</time>
</trkpt>
<trkpt lat="-27.3103760" lon="152.8977341">
<ele>117.154</ele>
<time>2017-05-17T00:16:59.678Z</time>
</trkpt>
<trkpt lat="-27.3102986" lon="152.8973538">
<ele>116.988</ele>
<time>2017-05-17T00:17:01.783Z</time>
</trkpt>
<trkpt lat="-27.3101687" lon="152.8970162">
<ele>116.871</ele>
<time>2017-05-17T00:17:03.956Z</time>
</trkpt>
<trkpt lat="-27.3098209" lon="152.8966106">
<ele>116.893</ele>
<time>2017-05-17T00:17:07.961Z</time>
</trkpt>
<trkpt lat="-27.3094243" lon="152.8962784">
<ele>117.027</ele>
<time>2017-05-17T00:17:11.583Z</time>
</trkpt>
<trkpt lat="-27.3091805" lon="152.8962991">
<ele>117.171</ele>
<time>2017-05-17T00:17:13.027Z</time>
</trkpt>
<trkpt lat="-27.3088292" lon="152.8964105">
<ele>117.156</ele>
<time>2017-05-17T00:17:14.961Z</time>
</trkpt>
<trkpt lat="-27.3084799" lon="152.8964753">
<ele>116.691</ele>
<time>2017-05-17T00:17:16.660Z</time>
</trkpt>
<trkpt lat="-27.3081618" lon="152.8964810">
<ele>115.782</ele>
<time>2017-05-17T00:17:18.095Z</time>
</trkpt>
<trkpt lat="-27.3075997" lon="152.8963620">
<ele>114.931</ele>
<time>2017-05-17T00:17:20.637Z</time>
</trkpt>
<trkpt lat="-27.3069454" lon="152.8961176">
<ele>114.523</ele>
<time>2017-05-17T00:17:23.784Z</time>
</trkpt>
<trkpt lat="-27.3062878" lon="152.8959050">
<ele>114.619</ele>
<time>2017-05-17T00:17:27.131Z</time>
</trkpt>
<trkpt lat="-27.3056928" lon="152.8956653">
<ele>115.474</ele>
<time>2017-05-17T00:17:30.362Z</time>
</trkpt>
<trkpt lat="-27.3051359" lon="152.8954265">
<ele>117.997</ele>
<time>2017-05-17T00:17:33.679Z</time>
</trkpt>
<trkpt lat="-27.3048212" lon="152.8951583">
<ele>123.385</ele>
<time>2017-05-17T00:17:36.147Z</time>
</trkpt>
<trkpt lat="-27.3043650" lon="152.8947216">
<ele>131.147</ele>
<time>2017-05-17T00:17:39.865Z</time>
</trkpt>
<trkpt lat="-27.3040737" lon="152.8945258">
<ele>139.274</ele>
<time>2017-05-17T00:17:41.966Z</time>
</trkpt>
<trkpt lat="-27.3038153" lon="152.8941398">
<ele>146.382</ele>
<time>2017-05-17T00:17:44.581Z</time>
</trkpt>
<trkpt lat="-27.3036550" lon="152.8937818">
<ele>152.352</ele>
<time>2017-05-17T00:17:46.591Z</time>
</trkpt>
<trkpt lat="-27.3033369" lon="152.8933898">
<ele>157.465</ele>
<time>2017-05-17T00:17:49.211Z</time>
</trkpt>
<trkpt lat="-27.3031718" lon="152.8931100">
<ele>162.102</ele>
<time>2017-05-17T00:17:50.860Z</time>
</trkpt>
<trkpt lat="-27.3029570" lon="152.8927701">
<ele>166.359</ele>
<time>2017-05-17T00:17:52.900Z</time>
</trkpt>
<trkpt lat="-27.3027221" lon="152.8921898">
<ele>170.011</ele>
<time>2017-05-17T00:17:55.864Z</time>
</trkpt>
<trkpt lat="-27.3026126" lon="152.8918125">
<ele>172.749</ele>
<time>2017-05-17T00:17:57.681Z</time>
</trkpt>
<trkpt lat="-27.3024730" lon="152.8912173">
<ele>174.565</ele>
<time>2017-05-17T00:18:00.554Z</time>
</trkpt>
<trkpt lat="-27.3024156" lon="152.8907737">
<ele>175.637</ele>
<time>2017-05-17T00:18:02.706Z</time>
</trkpt>
<trkpt lat="-27.3023324" lon="152.8901208">
<ele>176.259</ele>
<time>2017-05-17T00:18:05.947Z</time>
</trkpt>
<trkpt lat="-27.3021712" lon="152.8895252">
<ele>176.607</ele>
<time>2017-05-17T00:18:09.080Z</time>
</trkpt>
<trkpt lat="-27.3021446" lon="152.8889274">
<ele>176.655</ele>
<time>2017-05-17T00:18:12.193Z</time>
</trkpt>
<trkpt lat="-27.3021337" lon="152.8883260">
<ele>176.166</ele>
<time>2017-05-17T00:18:15.358Z</time>
</trkpt>
<trkpt lat="-27.3021462" lon="152.8879396">
<ele>174.946</ele>
<time>2017-05-17T00:18:17.233Z</time>
</trkpt>
<trkpt lat="-27.3024386" lon="152.8873933">
<ele>173.362</ele>
<time>2017-05-17T00:18:20.260Z</time>
</trkpt>
<trkpt lat="-27.3027971" lon="152.8871276">
<ele>171.987</ele>
<time>2017-05-17T00:18:22.748Z</time>
</trkpt>
<trkpt lat="-27.3031660" lon="152.8870265">
<ele>171.057</ele>
<time>2017-05-17T00:18:25.087Z</time>
</trkpt>
<trkpt lat="-27.3035330" lon="152.8868760">
<ele>170.723</ele>
<time>2017-05-17T00:18:27.708Z</time>
</trkpt>
<trkpt lat="-27.3037950" lon="152.8866512">
<ele>171.423</ele>
<time>2017-05-17T00:18:30.302Z</time>
</trkpt>
<trkpt lat="-27.3042407" lon="152.8863946">
<ele>173.786</ele>
<time>2017-05-17T00:18:35.418Z</time>
</trkpt>
<trkpt lat="-27.3045789" lon="152.8863632">
<ele>178.346</ele>
<time>2017-05-17T00:18:38.368Z</time>
</trkpt>
<trkpt lat="-27.3048505" lon="152.8862795">
<ele>184.580</ele>
<time>2017-05-17T00:18:40.369Z</time>
</trkpt>
<trkpt lat="-27.3051808" lon="152.8862312">
<ele>190.911</ele>
<time>2017-05-17T00:18:42.622Z</time>
</trkpt>
<trkpt lat="-27.3054370" lon="152.8861396">
<ele>196.501</ele>
<time>2017-05-17T00:18:44.418Z</time>
</trkpt>
<trkpt lat="-27.3054156" lon="152.8857708">
<ele>201.837</ele>
<time>2017-05-17T00:18:46.663Z</time>
</trkpt>
<trkpt lat="-27.3052258" lon="152.8855177">
<ele>207.043</ele>
<time>2017-05-17T00:18:48.656Z</time>
</trkpt>
<trkpt lat="-27.3050197" lon="152.8850616">
<ele>211.361</ele>
<time>2017-05-17T00:18:51.635Z</time>
</trkpt>
<trkpt lat="-27.3048730" lon="152.8845854">
<ele>214.496</ele>
<time>2017-05-17T00:18:54.500Z</time>
</trkpt>
<trkpt lat="-27.3048010" lon="152.8842729">
<ele>216.893</ele>
<time>2017-05-17T00:18:56.239Z</time>
</trkpt>
<trkpt lat="-27.3047983" lon="152.8839256">
<ele>218.620</ele>
<time>2017-05-17T00:18:58.075Z</time>
</trkpt>
<trkpt lat="-27.3048869" lon="152.8835920">
<ele>219.288</ele>
<time>2017-05-17T00:18:59.789Z</time>
</trkpt>
<trkpt lat="-27.3048262" lon="152.8830707">
<ele>218.750</ele>
<time>2017-05-17T00:19:02.257Z</time>
</trkpt>
<trkpt lat="-27.3046741" lon="152.8827539">
<ele>217.520</ele>
<time>2017-05-17T00:19:03.873Z</time>
</trkpt>
<trkpt lat="-27.3045595" lon="152.8821461">
<ele>216.699</ele>
<time>2017-05-17T00:19:06.552Z</time>
</trkpt>
<trkpt lat="-27.3044918" lon="152.8816791">
<ele>217.183</ele>
<time>2017-05-17T00:19:08.603Z</time>
</trkpt>
<trkpt lat="-27.3042955" lon="152.8813003">
<ele>218.666</ele>
<time>2017-05-17T00:19:10.583Z</time>
</trkpt>
<trkpt lat="-27.3039800" lon="152.8809889">
<ele>219.825</ele>
<time>2017-05-17T00:19:12.789Z</time>
</trkpt>
<trkpt lat="-27.3036581" lon="152.8807185">
<ele>219.691</ele>
<time>2017-05-17T00:19:15.029Z</time>
</trkpt>
<trkpt lat="-27.3033045" lon="152.8801875">
<ele>217.305</ele>
<time>2017-05-17T00:19:18.403Z</time>
</trkpt>
<trkpt lat="-27.3029293" lon="152.8797513">
<ele>212.861</ele>
<time>2017-05-17T00:19:21.577Z</time>
</trkpt>
<trkpt lat="-27.3026847" lon="152.8794750">
<ele>209.143</ele>
<time>2017-05-17T00:19:23.799Z</time>
</trkpt>
<trkpt lat="-27.3024619" lon="152.8789531">
<ele>208.232</ele>
<time>2017-05-17T00:19:27.205Z</time>
</trkpt>
<trkpt lat="-27.3026121" lon="152.8783921">
<ele>209.382</ele>
<time>2017-05-17T00:19:30.633Z</time>
</trkpt>
<trkpt lat="-27.3027847" lon="152.8780925">
<ele>211.639</ele>
<time>2017-05-17T00:19:32.635Z</time>
</trkpt>
<trkpt lat="-27.3028546" lon="152.8775819">
<ele>214.538</ele>
<time>2017-05-17T00:19:35.425Z</time>
</trkpt>
<trkpt lat="-27.3027675" lon="152.8772532">
<ele>217.651</ele>
<time>2017-05-17T00:19:37.403Z</time>
</trkpt>
<trkpt lat="-27.3025118" lon="152.8768002">
<ele>220.691</ele>
<time>2017-05-17T00:19:40.837Z</time>
</trkpt>
<trkpt lat="-27.3020224" lon="152.8765512">
<ele>223.592</ele>
<time>2017-05-17T00:19:44.787Z</time>
</trkpt>
<trkpt lat="-27.3017368" lon="152.8764149">
<ele>226.347</ele>
<time>2017-05-17T00:19:46.938Z</time>
</trkpt>
<trkpt lat="-27.3013673" lon="152.8761714">
<ele>228.623</ele>
<time>2017-05-17T00:19:49.843Z</time>
</trkpt>
<trkpt lat="-27.3012379" lon="152.8759168">
<ele>229.772</ele>
<time>2017-05-17T00:19:51.576Z</time>
</trkpt>
<trkpt lat="-27.3011332" lon="152.8756598">
<ele>229.580</ele>
<time>2017-05-17T00:19:53.267Z</time>
</trkpt>
<trkpt lat="-27.3008193" lon="152.8752034">
<ele>228.327</ele>
<time>2017-05-17T00:19:56.761Z</time>
</trkpt>
<trkpt lat="-27.3004741" lon="152.8748985">
<ele>226.028</ele>
<time>2017-05-17T00:19:59.798Z</time>
</trkpt>
<trkpt lat="-27.3002526" lon="152.8746725">
<ele>223.088</ele>
<time>2017-05-17T00:20:01.920Z</time>
</trkpt>
<trkpt lat="-27.3000803" lon="152.8744246">
<ele>220.757</ele>
<time>2017-05-17T00:20:03.880Z</time>
</trkpt>
<trkpt lat="-27.2998408" lon="152.8740297">
<ele>219.664</ele>
<time>2017-05-17T00:20:06.785Z</time>
</trkpt>
<trkpt lat="-27.2996275" lon="152.8736036">
<ele>219.150</ele>
<time>2017-05-17T00:20:09.632Z</time>
</trkpt>
<trkpt lat="-27.2994577" lon="152.8733604">
<ele>218.441</ele>
<time>2017-05-17T00:20:11.436Z</time>
</trkpt>
<trkpt lat="-27.2992400" lon="152.8731625">
<ele>217.347</ele>
<time>2017-05-17T00:20:13.318Z</time>
</trkpt>
<trkpt lat="-27.2989968" lon="152.8727668">
<ele>216.179</ele>
<time>2017-05-17T00:20:16.263Z</time>
</trkpt>
<trkpt lat="-27.2988061" lon="152.8725056">
<ele>215.082</ele>
<time>2017-05-17T00:20:18.379Z</time>
</trkpt>
<trkpt lat="-27.2985792" lon="152.8722691">
<ele>213.942</ele>
<time>2017-05-17T00:20:20.593Z</time>
</trkpt>
<trkpt lat="-27.2982648" lon="152.8719280">
<ele>212.884</ele>
<time>2017-05-17T00:20:23.785Z</time>
</trkpt>
<trkpt lat="-27.2980844" lon="152.8716832">
<ele>212.219</ele>
<time>2017-05-17T00:20:25.823Z</time>
</trkpt>
<trkpt lat="-27.2977504" lon="152.8713810">
<ele>212.112</ele>
<time>2017-05-17T00:20:28.788Z</time>
</trkpt>
<trkpt lat="-27.2975149" lon="152.8710117">
<ele>212.545</ele>
<time>2017-05-17T00:20:31.415Z</time>
</trkpt>
<trkpt lat="-27.2975128" lon="152.8705505">
<ele>213.247</ele>
<time>2017-05-17T00:20:34.026Z</time>
</trkpt>
<trkpt lat="-27.2974456" lon="152.8702644">
<ele>213.803</ele>
<time>2017-05-17T00:20:35.677Z</time>
</trkpt>
<trkpt lat="-27.2971520" lon="152.8698479">
<ele>213.994</ele>
<time>2017-05-17T00:20:38.630Z</time>
</trkpt>
<trkpt lat="-27.2968981" lon="152.8696558">
<ele>213.732</ele>
<time>2017-05-17T00:20:40.559Z</time>
</trkpt>
<trkpt lat="-27.2965038" lon="152.8693813">
<ele>212.868</ele>
<time>2017-05-17T00:20:43.582Z</time>
</trkpt>
<trkpt lat="-27.2962380" lon="152.8691951">
<ele>211.066</ele>
<time>2017-05-17T00:20:45.743Z</time>
</trkpt>
<trkpt lat="-27.2959771" lon="152.8689718">
<ele>208.266</ele>
<time>2017-05-17T00:20:48.054Z</time>
</trkpt>
<trkpt lat="-27.2955430" lon="152.8687789">
<ele>205.093</ele>
<time>2017-05-17T00:20:51.385Z</time>
</trkpt>
<trkpt lat="-27.2951048" lon="152.8686628">
<ele>201.865</ele>
<time>2017-05-17T00:20:54.467Z</time>
</trkpt>
<trkpt lat="-27.2948415" lon="152.8685342">
<ele>198.099</ele>
<time>2017-05-17T00:20:56.357Z</time>
</trkpt>
<trkpt lat="-27.2946230" lon="152.8681061">
<ele>193.903</ele>
<time>2017-05-17T00:20:59.126Z</time>
</trkpt>
<trkpt lat="-27.2943901" lon="152.8679376">
<ele>190.053</ele>
<time>2017-05-17T00:21:00.760Z</time>
</trkpt>
<trkpt lat="-27.2939480" lon="152.8678711">
<ele>186.853</ele>
<time>2017-05-17T00:21:03.271Z</time>
</trkpt>
<trkpt lat="-27.2934577" lon="152.8678115">
<ele>184.073</ele>
<time>2017-05-17T00:21:05.940Z</time>
</trkpt>
<trkpt lat="-27.2929389" lon="152.8677760">
<ele>181.366</ele>
<time>2017-05-17T00:21:08.766Z</time>
</trkpt>
<trkpt lat="-27.2925994" lon="152.8677088">
<ele>178.351</ele>
<time>2017-05-17T00:21:10.692Z</time>
</trkpt>
<trkpt lat="-27.2922543" lon="152.8676846">
<ele>175.118</ele>
<time>2017-05-17T00:21:12.673Z</time>
</trkpt>
<trkpt lat="-27.2918786" lon="152.8676894">
<ele>172.237</ele>
<time>2017-05-17T00:21:14.815Z</time>
</trkpt>
<trkpt lat="-27.2913875" lon="152.8678204">
<ele>169.901</ele>
<time>2017-05-17T00:21:17.637Z</time>
</trkpt>
<trkpt lat="-27.2909178" lon="152.8679965">
<ele>167.086</ele>
<time>2017-05-17T00:21:20.405Z</time>
</trkpt>
<trkpt lat="-27.2905860" lon="152.8680288">
<ele>162.485</ele>
<time>2017-05-17T00:21:22.276Z</time>
</trkpt>
<trkpt lat="-27.2902341" lon="152.8680216">
<ele>156.866</ele>
<time>2017-05-17T00:21:24.295Z</time>
</trkpt>
<trkpt lat="-27.2897270" lon="152.8678800">
<ele>152.633</ele>
<time>2017-05-17T00:21:27.339Z</time>
</trkpt>
<trkpt lat="-27.2894017" lon="152.8677415">
<ele>150.799</ele>
<time>2017-05-17T00:21:29.379Z</time>
</trkpt>
<trkpt lat="-27.2890970" lon="152.8675574">
<ele>150.601</ele>
<time>2017-05-17T00:21:31.454Z</time>
</trkpt>
<trkpt lat="-27.2886717" lon="152.8672496">
<ele>151.047</ele>
<time>2017-05-17T00:21:34.742Z</time>
</trkpt>
<trkpt lat="-27.2883391" lon="152.8670184">
<ele>151.445</ele>
<time>2017-05-17T00:21:37.526Z</time>
</trkpt>
<trkpt lat="-27.2878950" lon="152.8667832">
<ele>151.388</ele>
<time>2017-05-17T00:21:41.580Z</time>
</trkpt>
<trkpt lat="-27.2876096" lon="152.8666489">
<ele>150.394</ele>
<time>2017-05-17T00:21:45.370Z</time>
</trkpt>
<trkpt lat="-27.2872072" lon="152.8665446">
<ele>147.852</ele>
<time>2017-05-17T00:21:51.631Z</time>
</trkpt>
<trkpt lat="-27.2868022" lon="152.8664941">
<ele>143.382</ele>
<time>2017-05-17T00:21:54.523Z</time>
</trkpt>
<trkpt lat="-27.2864930" lon="152.8665876">
<ele>137.394</ele>
<time>2017-05-17T00:21:56.330Z</time>
</trkpt>
<trkpt lat="-27.2862761" lon="152.8666242">
<ele>130.847</ele>
<time>2017-05-17T00:21:57.499Z</time>
</trkpt>
<trkpt lat="-27.2862660" lon="152.8664747">
<ele>124.364</ele>
<time>2017-05-17T00:21:58.199Z</time>
</trkpt>
<trkpt lat="-27.2864077" lon="152.8662801">
<ele>118.120</ele>
<time>2017-05-17T00:21:59.337Z</time>
</trkpt>
<trkpt lat="-27.2865787" lon="152.8660627">
<ele>112.357</ele>
<time>2017-05-17T00:22:00.643Z</time>
</trkpt>
<trkpt lat="-27.2868441" lon="152.8654918">
<ele>107.864</ele>
<time>2017-05-17T00:22:03.489Z</time>
</trkpt>
<trkpt lat="-27.2870264" lon="152.8648743">
<ele>105.501</ele>
<time>2017-05-17T00:22:06.320Z</time>
</trkpt>
<trkpt lat="-27.2870400" lon="152.8644309">
<ele>105.004</ele>
<time>2017-05-17T00:22:08.281Z</time>
</trkpt>
<trkpt lat="-27.2869722" lon="152.8639918">
<ele>105.083</ele>
<time>2017-05-17T00:22:10.301Z</time>
</trkpt>
<trkpt lat="-27.2869053" lon="152.8635366">
<ele>104.647</ele>
<time>2017-05-17T00:22:12.418Z</time>
</trkpt>
<trkpt lat="-27.2868448" lon="152.8630869">
<ele>103.454</ele>
<time>2017-05-17T00:22:14.490Z</time>
</trkpt>
<trkpt lat="-27.2868169" lon="152.8626465">
<ele>101.923</ele>
<time>2017-05-17T00:22:16.441Z</time>
</trkpt>
<trkpt lat="-27.2867279" lon="152.8620191">
<ele>100.442</ele>
<time>2017-05-17T00:22:19.214Z</time>
</trkpt>
<trkpt lat="-27.2867046" lon="152.8615876">
<ele>98.945</ele>
<time>2017-05-17T00:22:21.093Z</time>
</trkpt>
<trkpt lat="-27.2866641" lon="152.8611444">
<ele>97.122</ele>
<time>2017-05-17T00:22:23.064Z</time>
</trkpt>
<trkpt lat="-27.2866840" lon="152.8604586">
<ele>94.919</ele>
<time>2017-05-17T00:22:26.127Z</time>
</trkpt>
<trkpt lat="-27.2866962" lon="152.8597865">
<ele>92.434</ele>
<time>2017-05-17T00:22:29.111Z</time>
</trkpt>
<trkpt lat="-27.2867357" lon="152.8593361">
<ele>89.712</ele>
<time>2017-05-17T00:22:31.109Z</time>
</trkpt>
<trkpt lat="-27.2868211" lon="152.8587037">
<ele>86.923</ele>
<time>2017-05-17T00:22:33.922Z</time>
</trkpt>
<trkpt lat="-27.2869511" lon="152.8581118">
<ele>84.111</ele>
<time>2017-05-17T00:22:36.609Z</time>
</trkpt>
<trkpt lat="-27.2873401" lon="152.8574764">
<ele>81.262</ele>
<time>2017-05-17T00:22:40.178Z</time>
</trkpt>
<trkpt lat="-27.2878091" lon="152.8568474">
<ele>78.685</ele>
<time>2017-05-17T00:22:44.061Z</time>
</trkpt>
<trkpt lat="-27.2880394" lon="152.8565287">
<ele>76.871</ele>
<time>2017-05-17T00:22:46.017Z</time>
</trkpt>
<trkpt lat="-27.2882400" lon="152.8562137">
<ele>76.173</ele>
<time>2017-05-17T00:22:47.885Z</time>
</trkpt>
<trkpt lat="-27.2885229" lon="152.8559513">
<ele>76.552</ele>
<time>2017-05-17T00:22:49.925Z</time>
</trkpt>
<trkpt lat="-27.2889498" lon="152.8555352">
<ele>77.406</ele>
<time>2017-05-17T00:22:53.120Z</time>
</trkpt>
<trkpt lat="-27.2893316" lon="152.8550853">
<ele>78.102</ele>
<time>2017-05-17T00:22:56.188Z</time>
</trkpt>
<trkpt lat="-27.2895077" lon="152.8547215">
<ele>78.477</ele>
<time>2017-05-17T00:22:58.179Z</time>
</trkpt>
<trkpt lat="-27.2898194" lon="152.8542661">
<ele>78.702</ele>
<time>2017-05-17T00:23:00.949Z</time>
</trkpt>
<trkpt lat="-27.2900569" lon="152.8539637">
<ele>78.897</ele>
<time>2017-05-17T00:23:02.976Z</time>
</trkpt>
<trkpt lat="-27.2903632" lon="152.8537409">
<ele>78.798</ele>
<time>2017-05-17T00:23:05.119Z</time>
</trkpt>
<trkpt lat="-27.2908290" lon="152.8534175">
<ele>77.935</ele>
<time>2017-05-17T00:23:08.506Z</time>
</trkpt>
<trkpt lat="-27.2911321" lon="152.8531982">
<ele>76.230</ele>
<time>2017-05-17T00:23:10.766Z</time>
</trkpt>
<trkpt lat="-27.2915445" lon="152.8528850">
<ele>74.180</ele>
<time>2017-05-17T00:23:13.918Z</time>
</trkpt>
<trkpt lat="-27.2919218" lon="152.8525893">
<ele>72.319</ele>
<time>2017-05-17T00:23:16.982Z</time>
</trkpt>
<trkpt lat="-27.2921990" lon="152.8524175">
<ele>70.799</ele>
<time>2017-05-17T00:23:19.187Z</time>
</trkpt>
<trkpt lat="-27.2924642" lon="152.8522261">
<ele>69.606</ele>
<time>2017-05-17T00:23:21.437Z</time>
</trkpt>
<trkpt lat="-27.2928781" lon="152.8520329">
<ele>68.792</ele>
<time>2017-05-17T00:23:24.688Z</time>
</trkpt>
<trkpt lat="-27.2932633" lon="152.8518384">
<ele>68.286</ele>
<time>2017-05-17T00:23:27.611Z</time>
</trkpt>
<trkpt lat="-27.2935277" lon="152.8517375">
<ele>67.947</ele>
<time>2017-05-17T00:23:29.486Z</time>
</trkpt>
<trkpt lat="-27.2937918" lon="152.8516389">
<ele>67.699</ele>
<time>2017-05-17T00:23:31.325Z</time>
</trkpt>
<trkpt lat="-27.2941790" lon="152.8515244">
<ele>67.547</ele>
<time>2017-05-17T00:23:33.984Z</time>
</trkpt>
<trkpt lat="-27.2944671" lon="152.8514688">
<ele>67.517</ele>
<time>2017-05-17T00:23:35.943Z</time>
</trkpt>
<trkpt lat="-27.2949198" lon="152.8514334">
<ele>67.653</ele>
<time>2017-05-17T00:23:38.992Z</time>
</trkpt>
<trkpt lat="-27.2952109" lon="152.8514284">
<ele>68.076</ele>
<time>2017-05-17T00:23:40.935Z</time>
</trkpt>
<trkpt lat="-27.2956578" lon="152.8513072">
<ele>68.951</ele>
<time>2017-05-17T00:23:43.941Z</time>
</trkpt>
<trkpt lat="-27.2960860" lon="152.8511709">
<ele>70.618</ele>
<time>2017-05-17T00:23:46.794Z</time>
</trkpt>
<trkpt lat="-27.2963422" lon="152.8510275">
<ele>73.389</ele>
<time>2017-05-17T00:23:48.633Z</time>
</trkpt>
<trkpt lat="-27.2965168" lon="152.8507477">
<ele>76.834</ele>
<time>2017-05-17T00:23:50.612Z</time>
</trkpt>
<trkpt lat="-27.2966962" lon="152.8502520">
<ele>79.942</ele>
<time>2017-05-17T00:23:53.632Z</time>
</trkpt>
<trkpt lat="-27.2967584" lon="152.8499005">
<ele>82.176</ele>
<time>2017-05-17T00:23:55.477Z</time>
</trkpt>
<trkpt lat="-27.2967811" lon="152.8493752">
<ele>83.620</ele>
<time>2017-05-17T00:23:58.104Z</time>
</trkpt>
<trkpt lat="-27.2969373" lon="152.8488936">
<ele>84.430</ele>
<time>2017-05-17T00:24:00.591Z</time>
</trkpt>
<trkpt lat="-27.2970449" lon="152.8485110">
<ele>84.703</ele>
<time>2017-05-17T00:24:02.519Z</time>
</trkpt>
<trkpt lat="-27.2973152" lon="152.8479551">
<ele>84.444</ele>
<time>2017-05-17T00:24:05.533Z</time>
</trkpt>
<trkpt lat="-27.2974556" lon="152.8475181">
<ele>83.451</ele>
<time>2017-05-17T00:24:07.784Z</time>
</trkpt>
<trkpt lat="-27.2979630" lon="152.8471479">
<ele>81.737</ele>
<time>2017-05-17T00:24:11.250Z</time>
</trkpt>
<trkpt lat="-27.2983556" lon="152.8470094">
<ele>79.665</ele>
<time>2017-05-17T00:24:13.645Z</time>
</trkpt>
<trkpt lat="-27.2989568" lon="152.8468072">
<ele>77.621</ele>
<time>2017-05-17T00:24:17.083Z</time>
</trkpt>
<trkpt lat="-27.2992732" lon="152.8466767">
<ele>75.816</ele>
<time>2017-05-17T00:24:18.853Z</time>
</trkpt>
<trkpt lat="-27.2995798" lon="152.8465431">
<ele>74.270</ele>
<time>2017-05-17T00:24:20.559Z</time>
</trkpt>
<trkpt lat="-27.2999349" lon="152.8461577">
<ele>72.982</ele>
<time>2017-05-17T00:24:23.149Z</time>
</trkpt>
<trkpt lat="-27.3001106" lon="152.8457659">
<ele>72.038</ele>
<time>2017-05-17T00:24:25.286Z</time>
</trkpt>
<trkpt lat="-27.3003929" lon="152.8451984">
<ele>71.460</ele>
<time>2017-05-17T00:24:28.866Z</time>
</trkpt>
<trkpt lat="-27.3006133" lon="152.8448553">
<ele>71.149</ele>
<time>2017-05-17T00:24:31.686Z</time>
</trkpt>
<trkpt lat="-27.3008351" lon="152.8445284">
<ele>70.895</ele>
<time>2017-05-17T00:24:36.571Z</time>
</trkpt>
<trkpt lat="-27.3010448" lon="152.8442116">
<ele>70.541</ele>
<time>2017-05-17T00:24:40.110Z</time>
</trkpt>
<trkpt lat="-27.3013948" lon="152.8438740">
<ele>70.086</ele>
<time>2017-05-17T00:24:42.677Z</time>
</trkpt>
<trkpt lat="-27.3016081" lon="152.8435523">
<ele>69.598</ele>
<time>2017-05-17T00:24:44.200Z</time>
</trkpt>
<trkpt lat="-27.3016871" lon="152.8434071">
<ele>69.131</ele>
<time>2017-05-17T00:24:44.846Z</time>
</trkpt>
<trkpt lat="-27.3016226" lon="152.8433330">
<ele>68.746</ele>
<time>2017-05-17T00:24:45.213Z</time>
</trkpt>
<trkpt lat="-27.3013026" lon="152.8433262">
<ele>68.562</ele>
<time>2017-05-17T00:24:46.431Z</time>
</trkpt>
<trkpt lat="-27.3006201" lon="152.8434500">
<ele>68.800</ele>
<time>2017-05-17T00:24:49.067Z</time>
</trkpt>
<trkpt lat="-27.2998161" lon="152.8433369">
<ele>70.035</ele>
<time>2017-05-17T00:24:52.176Z</time>
</trkpt>
<trkpt lat="-27.2990653" lon="152.8431470">
<ele>72.739</ele>
<time>2017-05-17T00:24:55.133Z</time>
</trkpt>
<trkpt lat="-27.2983375" lon="152.8429677">
<ele>76.238</ele>
<time>2017-05-17T00:24:57.994Z</time>
</trkpt>
<trkpt lat="-27.2975820" lon="152.8427978">
<ele>79.322</ele>
<time>2017-05-17T00:25:00.957Z</time>
</trkpt>
<trkpt lat="-27.2970834" lon="152.8426794">
<ele>81.369</ele>
<time>2017-05-17T00:25:02.914Z</time>
</trkpt>
<trkpt lat="-27.2963238" lon="152.8425117">
<ele>82.303</ele>
<time>2017-05-17T00:25:05.883Z</time>
</trkpt>
<trkpt lat="-27.2958156" lon="152.8424179">
<ele>82.362</ele>
<time>2017-05-17T00:25:07.852Z</time>
</trkpt>
<trkpt lat="-27.2950536" lon="152.8422823">
<ele>81.983</ele>
<time>2017-05-17T00:25:10.795Z</time>
</trkpt>
<trkpt lat="-27.2945486" lon="152.8421898">
<ele>81.524</ele>
<time>2017-05-17T00:25:12.742Z</time>
</trkpt>
<trkpt lat="-27.2940378" lon="152.8420897">
<ele>81.181</ele>
<time>2017-05-17T00:25:14.718Z</time>
</trkpt>
<trkpt lat="-27.2932667" lon="152.8420564">
<ele>80.924</ele>
<time>2017-05-17T00:25:17.671Z</time>
</trkpt>
<trkpt lat="-27.2927518" lon="152.8421019">
<ele>80.647</ele>
<time>2017-05-17T00:25:19.656Z</time>
</trkpt>
<trkpt lat="-27.2919831" lon="152.8421913">
<ele>80.362</ele>
<time>2017-05-17T00:25:22.626Z</time>
</trkpt>
<trkpt lat="-27.2914770" lon="152.8422468">
<ele>80.209</ele>
<time>2017-05-17T00:25:24.580Z</time>
</trkpt>
<trkpt lat="-27.2907269" lon="152.8424367">
<ele>80.277</ele>
<time>2017-05-17T00:25:27.527Z</time>
</trkpt>
<trkpt lat="-27.2902228" lon="152.8425358">
<ele>80.694</ele>
<time>2017-05-17T00:25:29.483Z</time>
</trkpt>
<trkpt lat="-27.2894804" lon="152.8427706">
<ele>81.434</ele>
<time>2017-05-17T00:25:32.439Z</time>
</trkpt>
<trkpt lat="-27.2889780" lon="152.8428937">
<ele>82.041</ele>
<time>2017-05-17T00:25:34.410Z</time>
</trkpt>
<trkpt lat="-27.2884778" lon="152.8430233">
<ele>82.189</ele>
<time>2017-05-17T00:25:36.372Z</time>
</trkpt>
<trkpt lat="-27.2877231" lon="152.8431696">
<ele>82.133</ele>
<time>2017-05-17T00:25:39.294Z</time>
</trkpt>
<trkpt lat="-27.2872286" lon="152.8433220">
<ele>82.293</ele>
<time>2017-05-17T00:25:41.248Z</time>
</trkpt>
<trkpt lat="-27.2864674" lon="152.8434847">
<ele>82.793</ele>
<time>2017-05-17T00:25:44.196Z</time>
</trkpt>
<trkpt lat="-27.2857136" lon="152.8436942">
<ele>83.355</ele>
<time>2017-05-17T00:25:47.154Z</time>
</trkpt>
<trkpt lat="-27.2852412" lon="152.8439476">
<ele>83.600</ele>
<time>2017-05-17T00:25:49.151Z</time>
</trkpt>
<trkpt lat="-27.2845550" lon="152.8443347">
<ele>83.360</ele>
<time>2017-05-17T00:25:52.088Z</time>
</trkpt>
<trkpt lat="-27.2838785" lon="152.8447505">
<ele>82.742</ele>
<time>2017-05-17T00:25:55.040Z</time>
</trkpt>
<trkpt lat="-27.2831618" lon="152.8450861">
<ele>81.946</ele>
<time>2017-05-17T00:25:58.017Z</time>
</trkpt>
<trkpt lat="-27.2827154" lon="152.8453715">
<ele>81.186</ele>
<time>2017-05-17T00:25:59.987Z</time>
</trkpt>
<trkpt lat="-27.2820170" lon="152.8457264">
<ele>80.779</ele>
<time>2017-05-17T00:26:02.932Z</time>
</trkpt>
<trkpt lat="-27.2815541" lon="152.8459725">
<ele>80.930</ele>
<time>2017-05-17T00:26:04.903Z</time>
</trkpt>
<trkpt lat="-27.2810950" lon="152.8462227">
<ele>81.464</ele>
<time>2017-05-17T00:26:06.868Z</time>
</trkpt>
<trkpt lat="-27.2804035" lon="152.8465788">
<ele>82.081</ele>
<time>2017-05-17T00:26:09.792Z</time>
</trkpt>
<trkpt lat="-27.2799425" lon="152.8468143">
<ele>82.780</ele>
<time>2017-05-17T00:26:11.734Z</time>
</trkpt>
<trkpt lat="-27.2792800" lon="152.8472488">
<ele>83.711</ele>
<time>2017-05-17T00:26:14.669Z</time>
</trkpt>
<trkpt lat="-27.2788123" lon="152.8474926">
<ele>84.853</ele>
<time>2017-05-17T00:26:16.642Z</time>
</trkpt>
<trkpt lat="-27.2783439" lon="152.8477345">
<ele>86.062</ele>
<time>2017-05-17T00:26:18.617Z</time>
</trkpt>
<trkpt lat="-27.2776456" lon="152.8481042">
<ele>87.186</ele>
<time>2017-05-17T00:26:21.566Z</time>
</trkpt>
<trkpt lat="-27.2769150" lon="152.8483724">
<ele>88.198</ele>
<time>2017-05-17T00:26:24.500Z</time>
</trkpt>
<trkpt lat="-27.2761799" lon="152.8486454">
<ele>89.107</ele>
<time>2017-05-17T00:26:27.463Z</time>
</trkpt>
<trkpt lat="-27.2757045" lon="152.8488644">
<ele>89.761</ele>
<time>2017-05-17T00:26:29.426Z</time>
</trkpt>
<trkpt lat="-27.2752179" lon="152.8490487">
<ele>90.050</ele>
<time>2017-05-17T00:26:31.384Z</time>
</trkpt>
<trkpt lat="-27.2744634" lon="152.8492411">
<ele>90.033</ele>
<time>2017-05-17T00:26:34.340Z</time>
</trkpt>
<trkpt lat="-27.2739566" lon="152.8493683">
<ele>89.688</ele>
<time>2017-05-17T00:26:36.327Z</time>
</trkpt>
<trkpt lat="-27.2731964" lon="152.8495272">
<ele>88.823</ele>
<time>2017-05-17T00:26:39.290Z</time>
</trkpt>
<trkpt lat="-27.2724380" lon="152.8496925">
<ele>87.419</ele>
<time>2017-05-17T00:26:42.254Z</time>
</trkpt>
<trkpt lat="-27.2719287" lon="152.8497318">
<ele>85.966</ele>
<time>2017-05-17T00:26:44.210Z</time>
</trkpt>
<trkpt lat="-27.2714179" lon="152.8498003">
<ele>85.048</ele>
<time>2017-05-17T00:26:46.181Z</time>
</trkpt>
<trkpt lat="-27.2706653" lon="152.8499817">
<ele>84.871</ele>
<time>2017-05-17T00:26:49.134Z</time>
</trkpt>
<trkpt lat="-27.2699054" lon="152.8501269">
<ele>85.375</ele>
<time>2017-05-17T00:26:52.090Z</time>
</trkpt>
<trkpt lat="-27.2691452" lon="152.8502549">
<ele>86.333</ele>
<time>2017-05-17T00:26:55.044Z</time>
</trkpt>
<trkpt lat="-27.2683894" lon="152.8504029">
<ele>87.409</ele>
<time>2017-05-17T00:26:58.002Z</time>
</trkpt>
<trkpt lat="-27.2676350" lon="152.8505394">
<ele>88.497</ele>
<time>2017-05-17T00:27:00.953Z</time>
</trkpt>
<trkpt lat="-27.2668805" lon="152.8506623">
<ele>89.711</ele>
<time>2017-05-17T00:27:03.876Z</time>
</trkpt>
<trkpt lat="-27.2663738" lon="152.8507597">
<ele>91.032</ele>
<time>2017-05-17T00:27:05.837Z</time>
</trkpt>
<trkpt lat="-27.2658643" lon="152.8508832">
<ele>92.190</ele>
<time>2017-05-17T00:27:07.830Z</time>
</trkpt>
<trkpt lat="-27.2650945" lon="152.8510052">
<ele>92.954</ele>
<time>2017-05-17T00:27:10.811Z</time>
</trkpt>
<trkpt lat="-27.2645905" lon="152.8511022">
<ele>93.338</ele>
<time>2017-05-17T00:27:12.768Z</time>
</trkpt>
<trkpt lat="-27.2640829" lon="152.8512162">
<ele>93.469</ele>
<time>2017-05-17T00:27:14.740Z</time>
</trkpt>
<trkpt lat="-27.2633161" lon="152.8513716">
<ele>93.305</ele>
<time>2017-05-17T00:27:17.707Z</time>
</trkpt>
<trkpt lat="-27.2628041" lon="152.8514556">
<ele>92.615</ele>
<time>2017-05-17T00:27:19.684Z</time>
</trkpt>
<trkpt lat="-27.2620362" lon="152.8516116">
<ele>91.291</ele>
<time>2017-05-17T00:27:22.673Z</time>
</trkpt>
<trkpt lat="-27.2612830" lon="152.8517850">
<ele>89.418</ele>
<time>2017-05-17T00:27:25.619Z</time>
</trkpt>
<trkpt lat="-27.2605102" lon="152.8517629">
<ele>87.156</ele>
<time>2017-05-17T00:27:28.569Z</time>
</trkpt>
<trkpt lat="-27.2597422" lon="152.8517021">
<ele>84.841</ele>
<time>2017-05-17T00:27:31.501Z</time>
</trkpt>
<trkpt lat="-27.2589710" lon="152.8515735">
<ele>83.029</ele>
<time>2017-05-17T00:27:34.477Z</time>
</trkpt>
<trkpt lat="-27.2582287" lon="152.8513208">
<ele>82.267</ele>
<time>2017-05-17T00:27:37.439Z</time>
</trkpt>
<trkpt lat="-27.2575100" lon="152.8510012">
<ele>82.747</ele>
<time>2017-05-17T00:27:40.385Z</time>
</trkpt>
<trkpt lat="-27.2568066" lon="152.8506627">
<ele>84.020</ele>
<time>2017-05-17T00:27:43.302Z</time>
</trkpt>
<trkpt lat="-27.2561551" lon="152.8502155">
<ele>85.393</ele>
<time>2017-05-17T00:27:46.216Z</time>
</trkpt>
<trkpt lat="-27.2555460" lon="152.8497038">
<ele>86.528</ele>
<time>2017-05-17T00:27:49.123Z</time>
</trkpt>
<trkpt lat="-27.2551238" lon="152.8493475">
<ele>87.344</ele>
<time>2017-05-17T00:27:51.147Z</time>
</trkpt>
<trkpt lat="-27.2547413" lon="152.8489706">
<ele>87.743</ele>
<time>2017-05-17T00:27:53.095Z</time>
</trkpt>
<trkpt lat="-27.2543610" lon="152.8485857">
<ele>87.711</ele>
<time>2017-05-17T00:27:55.052Z</time>
</trkpt>
<trkpt lat="-27.2538770" lon="152.8478968">
<ele>87.308</ele>
<time>2017-05-17T00:27:58.031Z</time>
</trkpt>
<trkpt lat="-27.2533973" lon="152.8472069">
<ele>86.541</ele>
<time>2017-05-17T00:28:01.001Z</time>
</trkpt>
<trkpt lat="-27.2529360" lon="152.8465092">
<ele>85.460</ele>
<time>2017-05-17T00:28:03.954Z</time>
</trkpt>
<trkpt lat="-27.2524445" lon="152.8458393">
<ele>84.224</ele>
<time>2017-05-17T00:28:06.914Z</time>
</trkpt>
<trkpt lat="-27.2521150" lon="152.8454014">
<ele>83.053</ele>
<time>2017-05-17T00:28:08.874Z</time>
</trkpt>
<trkpt lat="-27.2516362" lon="152.8447322">
<ele>82.164</ele>
<time>2017-05-17T00:28:11.810Z</time>
</trkpt>
<trkpt lat="-27.2513238" lon="152.8442762">
<ele>81.681</ele>
<time>2017-05-17T00:28:13.776Z</time>
</trkpt>
<trkpt lat="-27.2509034" lon="152.8435524">
<ele>81.524</ele>
<time>2017-05-17T00:28:16.734Z</time>
</trkpt>
<trkpt lat="-27.2507151" lon="152.8430184">
<ele>81.560</ele>
<time>2017-05-17T00:28:18.707Z</time>
</trkpt>
<trkpt lat="-27.2505005" lon="152.8421985">
<ele>81.806</ele>
<time>2017-05-17T00:28:21.653Z</time>
</trkpt>
<trkpt lat="-27.2503591" lon="152.8413634">
<ele>82.527</ele>
<time>2017-05-17T00:28:24.569Z</time>
</trkpt>
<trkpt lat="-27.2502261" lon="152.8405154">
<ele>84.184</ele>
<time>2017-05-17T00:28:27.497Z</time>
</trkpt>
<trkpt lat="-27.2500468" lon="152.8396670">
<ele>86.976</ele>
<time>2017-05-17T00:28:30.478Z</time>
</trkpt>
<trkpt lat="-27.2497942" lon="152.8388619">
<ele>90.371</ele>
<time>2017-05-17T00:28:33.417Z</time>
</trkpt>
<trkpt lat="-27.2494392" lon="152.8381036">
<ele>93.249</ele>
<time>2017-05-17T00:28:36.355Z</time>
</trkpt>
<trkpt lat="-27.2489888" lon="152.8373800">
<ele>94.792</ele>
<time>2017-05-17T00:28:39.358Z</time>
</trkpt>
<trkpt lat="-27.2486223" lon="152.8369601">
<ele>94.827</ele>
<time>2017-05-17T00:28:41.352Z</time>
</trkpt>
<trkpt lat="-27.2480653" lon="152.8363545">
<ele>93.595</ele>
<time>2017-05-17T00:28:44.304Z</time>
</trkpt>
<trkpt lat="-27.2475123" lon="152.8357577">
<ele>91.682</ele>
<time>2017-05-17T00:28:47.266Z</time>
</trkpt>
<trkpt lat="-27.2471595" lon="152.8353578">
<ele>89.948</ele>
<time>2017-05-17T00:28:49.203Z</time>
</trkpt>
<trkpt lat="-27.2468034" lon="152.8349530">
<ele>89.099</ele>
<time>2017-05-17T00:28:51.152Z</time>
</trkpt>
<trkpt lat="-27.2462339" lon="152.8343722">
<ele>89.458</ele>
<time>2017-05-17T00:28:54.081Z</time>
</trkpt>
<trkpt lat="-27.2458004" lon="152.8340605">
<ele>91.125</ele>
<time>2017-05-17T00:28:56.050Z</time>
</trkpt>
<trkpt lat="-27.2450978" lon="152.8337486">
<ele>93.874</ele>
<time>2017-05-17T00:28:58.967Z</time>
</trkpt>
<trkpt lat="-27.2445982" lon="152.8336415">
<ele>96.967</ele>
<time>2017-05-17T00:29:00.932Z</time>
</trkpt>
<trkpt lat="-27.2440962" lon="152.8335713">
<ele>99.630</ele>
<time>2017-05-17T00:29:02.886Z</time>
</trkpt>
<trkpt lat="-27.2432952" lon="152.8334830">
<ele>101.438</ele>
<time>2017-05-17T00:29:05.974Z</time>
</trkpt>
<trkpt lat="-27.2425516" lon="152.8332393">
<ele>102.493</ele>
<time>2017-05-17T00:29:08.935Z</time>
</trkpt>
<trkpt lat="-27.2420629" lon="152.8330492">
<ele>103.331</ele>
<time>2017-05-17T00:29:10.921Z</time>
</trkpt>
<trkpt lat="-27.2413635" lon="152.8326979">
<ele>104.207</ele>
<time>2017-05-17T00:29:13.930Z</time>
</trkpt>
<trkpt lat="-27.2408820" lon="152.8325385">
<ele>105.064</ele>
<time>2017-05-17T00:29:15.935Z</time>
</trkpt>
<trkpt lat="-27.2403933" lon="152.8323944">
<ele>105.929</ele>
<time>2017-05-17T00:29:17.943Z</time>
</trkpt>
<trkpt lat="-27.2398493" lon="152.8323656">
<ele>106.816</ele>
<time>2017-05-17T00:29:20.057Z</time>
</trkpt>
<trkpt lat="-27.2393188" lon="152.8324552">
<ele>107.653</ele>
<time>2017-05-17T00:29:22.095Z</time>
</trkpt>
<trkpt lat="-27.2388043" lon="152.8324677">
<ele>108.319</ele>
<time>2017-05-17T00:29:24.034Z</time>
</trkpt>
<trkpt lat="-27.2382701" lon="152.8324169">
<ele>108.725</ele>
<time>2017-05-17T00:29:26.053Z</time>
</trkpt>
<trkpt lat="-27.2375173" lon="152.8322688">
<ele>108.959</ele>
<time>2017-05-17T00:29:28.980Z</time>
</trkpt>
<trkpt lat="-27.2367956" lon="152.8319995">
<ele>109.234</ele>
<time>2017-05-17T00:29:31.910Z</time>
</trkpt>
<trkpt lat="-27.2360873" lon="152.8316722">
<ele>109.835</ele>
<time>2017-05-17T00:29:34.844Z</time>
</trkpt>
<trkpt lat="-27.2356224" lon="152.8314125">
<ele>111.149</ele>
<time>2017-05-17T00:29:36.829Z</time>
</trkpt>
<trkpt lat="-27.2349286" lon="152.8310390">
<ele>113.213</ele>
<time>2017-05-17T00:29:39.770Z</time>
</trkpt>
<trkpt lat="-27.2344666" lon="152.8307863">
<ele>115.589</ele>
<time>2017-05-17T00:29:41.740Z</time>
</trkpt>
<trkpt lat="-27.2339845" lon="152.8305998">
<ele>117.808</ele>
<time>2017-05-17T00:29:43.700Z</time>
</trkpt>
<trkpt lat="-27.2332642" lon="152.8303249">
<ele>119.575</ele>
<time>2017-05-17T00:29:46.628Z</time>
</trkpt>
<trkpt lat="-27.2325206" lon="152.8300989">
<ele>120.679</ele>
<time>2017-05-17T00:29:49.576Z</time>
</trkpt>
<trkpt lat="-27.2317575" lon="152.8299319">
<ele>121.132</ele>
<time>2017-05-17T00:29:52.546Z</time>
</trkpt>
<trkpt lat="-27.2309846" lon="152.8298698">
<ele>121.112</ele>
<time>2017-05-17T00:29:55.517Z</time>
</trkpt>
<trkpt lat="-27.2304651" lon="152.8298686">
<ele>120.748</ele>
<time>2017-05-17T00:29:57.505Z</time>
</trkpt>
<trkpt lat="-27.2299391" lon="152.8298895">
<ele>120.026</ele>
<time>2017-05-17T00:29:59.516Z</time>
</trkpt>
<trkpt lat="-27.2291631" lon="152.8298284">
<ele>118.962</ele>
<time>2017-05-17T00:30:02.493Z</time>
</trkpt>
<trkpt lat="-27.2283881" lon="152.8297773">
<ele>117.583</ele>
<time>2017-05-17T00:30:05.460Z</time>
</trkpt>
<trkpt lat="-27.2278719" lon="152.8297477">
<ele>115.847</ele>
<time>2017-05-17T00:30:07.434Z</time>
</trkpt>
<trkpt lat="-27.2271021" lon="152.8296573">
<ele>113.879</ele>
<time>2017-05-17T00:30:10.395Z</time>
</trkpt>
<trkpt lat="-27.2265877" lon="152.8296544">
<ele>112.006</ele>
<time>2017-05-17T00:30:12.373Z</time>
</trkpt>
<trkpt lat="-27.2260786" lon="152.8296661">
<ele>110.546</ele>
<time>2017-05-17T00:30:14.332Z</time>
</trkpt>
<trkpt lat="-27.2253295" lon="152.8297937">
<ele>109.709</ele>
<time>2017-05-17T00:30:17.226Z</time>
</trkpt>
<trkpt lat="-27.2245725" lon="152.8300236">
<ele>109.377</ele>
<time>2017-05-17T00:30:20.202Z</time>
</trkpt>
<trkpt lat="-27.2238268" lon="152.8302787">
<ele>108.977</ele>
<time>2017-05-17T00:30:23.152Z</time>
</trkpt>
<trkpt lat="-27.2231085" lon="152.8306263">
<ele>107.858</ele>
<time>2017-05-17T00:30:26.117Z</time>
</trkpt>
<trkpt lat="-27.2224074" lon="152.8310023">
<ele>105.670</ele>
<time>2017-05-17T00:30:29.077Z</time>
</trkpt>
<trkpt lat="-27.2219248" lon="152.8312055">
<ele>102.531</ele>
<time>2017-05-17T00:30:31.055Z</time>
</trkpt>
<trkpt lat="-27.2212185" lon="152.8315396">
<ele>99.088</ele>
<time>2017-05-17T00:30:34.005Z</time>
</trkpt>
<trkpt lat="-27.2205174" lon="152.8318640">
<ele>96.047</ele>
<time>2017-05-17T00:30:36.930Z</time>
</trkpt>
<trkpt lat="-27.2200722" lon="152.8321391">
<ele>93.711</ele>
<time>2017-05-17T00:30:38.885Z</time>
</trkpt>
<trkpt lat="-27.2195995" lon="152.8323834">
<ele>92.107</ele>
<time>2017-05-17T00:30:40.878Z</time>
</trkpt>
<trkpt lat="-27.2191335" lon="152.8326266">
<ele>91.102</ele>
<time>2017-05-17T00:30:42.841Z</time>
</trkpt>
<trkpt lat="-27.2184206" lon="152.8329493">
<ele>90.422</ele>
<time>2017-05-17T00:30:45.780Z</time>
</trkpt>
<trkpt lat="-27.2176790" lon="152.8331686">
<ele>89.806</ele>
<time>2017-05-17T00:30:48.717Z</time>
</trkpt>
<trkpt lat="-27.2169212" lon="152.8333041">
<ele>89.120</ele>
<time>2017-05-17T00:30:51.725Z</time>
</trkpt>
<trkpt lat="-27.2164468" lon="152.8333156">
<ele>88.270</ele>
<time>2017-05-17T00:30:53.791Z</time>
</trkpt>
<trkpt lat="-27.2158238" lon="152.8332931">
<ele>87.093</ele>
<time>2017-05-17T00:30:56.693Z</time>
</trkpt>
<trkpt lat="-27.2154381" lon="152.8332319">
<ele>85.345</ele>
<time>2017-05-17T00:30:58.616Z</time>
</trkpt>
<trkpt lat="-27.2148324" lon="152.8331795">
<ele>83.078</ele>
<time>2017-05-17T00:31:01.613Z</time>
</trkpt>
<trkpt lat="-27.2142428" lon="152.8329823">
<ele>80.737</ele>
<time>2017-05-17T00:31:04.628Z</time>
</trkpt>
<trkpt lat="-27.2138604" lon="152.8328244">
<ele>78.753</ele>
<time>2017-05-17T00:31:06.626Z</time>
</trkpt>
<trkpt lat="-27.2133010" lon="152.8325907">
<ele>77.305</ele>
<time>2017-05-17T00:31:09.558Z</time>
</trkpt>
<trkpt lat="-27.2129164" lon="152.8324564">
<ele>76.428</ele>
<time>2017-05-17T00:31:11.535Z</time>
</trkpt>
<trkpt lat="-27.2125278" lon="152.8323079">
<ele>75.940</ele>
<time>2017-05-17T00:31:13.547Z</time>
</trkpt>
<trkpt lat="-27.2121501" lon="152.8321509">
<ele>75.609</ele>
<time>2017-05-17T00:31:15.517Z</time>
</trkpt>
<trkpt lat="-27.2115776" lon="152.8319260">
<ele>75.349</ele>
<time>2017-05-17T00:31:18.481Z</time>
</trkpt>
<trkpt lat="-27.2110129" lon="152.8316777">
<ele>75.238</ele>
<time>2017-05-17T00:31:21.441Z</time>
</trkpt>
<trkpt lat="-27.2106329" lon="152.8315306">
<ele>75.415</ele>
<time>2017-05-17T00:31:23.404Z</time>
</trkpt>
<trkpt lat="-27.2100821" lon="152.8312522">
<ele>75.946</ele>
<time>2017-05-17T00:31:26.343Z</time>
</trkpt>
<trkpt lat="-27.2095226" lon="152.8309703">
<ele>76.788</ele>
<time>2017-05-17T00:31:29.309Z</time>
</trkpt>
<trkpt lat="-27.2091583" lon="152.8307594">
<ele>77.835</ele>
<time>2017-05-17T00:31:31.291Z</time>
</trkpt>
<trkpt lat="-27.2087912" lon="152.8305619">
<ele>78.899</ele>
<time>2017-05-17T00:31:33.265Z</time>
</trkpt>
<trkpt lat="-27.2082513" lon="152.8302528">
<ele>79.747</ele>
<time>2017-05-17T00:31:36.207Z</time>
</trkpt>
<trkpt lat="-27.2078783" lon="152.8300692">
<ele>80.291</ele>
<time>2017-05-17T00:31:38.179Z</time>
</trkpt>
<trkpt lat="-27.2073515" lon="152.8297054">
<ele>80.580</ele>
<time>2017-05-17T00:31:41.172Z</time>
</trkpt>
<trkpt lat="-27.2070385" lon="152.8294306">
<ele>80.650</ele>
<time>2017-05-17T00:31:43.100Z</time>
</trkpt>
<trkpt lat="-27.2065424" lon="152.8290274">
<ele>80.447</ele>
<time>2017-05-17T00:31:46.071Z</time>
</trkpt>
<trkpt lat="-27.2062067" lon="152.8287692">
<ele>79.929</ele>
<time>2017-05-17T00:31:48.101Z</time>
</trkpt>
<trkpt lat="-27.2057313" lon="152.8285144">
<ele>79.147</ele>
<time>2017-05-17T00:31:50.861Z</time>
</trkpt>
<trkpt lat="-27.2052634" lon="152.8282536">
<ele>77.995</ele>
<time>2017-05-17T00:31:53.751Z</time>
</trkpt>
<trkpt lat="-27.2049965" lon="152.8280022">
<ele>76.399</ele>
<time>2017-05-17T00:31:55.689Z</time>
</trkpt>
<trkpt lat="-27.2045424" lon="152.8276808">
<ele>74.810</ele>
<time>2017-05-17T00:31:58.657Z</time>
</trkpt>
<trkpt lat="-27.2042653" lon="152.8274362">
<ele>73.801</ele>
<time>2017-05-17T00:32:00.599Z</time>
</trkpt>
<trkpt lat="-27.2040091" lon="152.8271662">
<ele>73.517</ele>
<time>2017-05-17T00:32:02.544Z</time>
</trkpt>
<trkpt lat="-27.2037172" lon="152.8269280">
<ele>73.833</ele>
<time>2017-05-17T00:32:04.543Z</time>
</trkpt>
<trkpt lat="-27.2034510" lon="152.8266482">
<ele>74.422</ele>
<time>2017-05-17T00:32:06.544Z</time>
</trkpt>
<trkpt lat="-27.2031722" lon="152.8264077">
<ele>74.862</ele>
<time>2017-05-17T00:32:08.473Z</time>
</trkpt>
<trkpt lat="-27.2028980" lon="152.8261633">
<ele>74.933</ele>
<time>2017-05-17T00:32:10.409Z</time>
</trkpt>
<trkpt lat="-27.2024893" lon="152.8257746">
<ele>74.735</ele>
<time>2017-05-17T00:32:13.367Z</time>
</trkpt>
<trkpt lat="-27.2020987" lon="152.8253722">
<ele>74.479</ele>
<time>2017-05-17T00:32:16.280Z</time>
</trkpt>
<trkpt lat="-27.2017840" lon="152.8251633">
<ele>74.266</ele>
<time>2017-05-17T00:32:18.292Z</time>
</trkpt>
<trkpt lat="-27.2015560" lon="152.8248717">
<ele>74.067</ele>
<time>2017-05-17T00:32:20.227Z</time>
</trkpt>
<trkpt lat="-27.2013165" lon="152.8246444">
<ele>73.812</ele>
<time>2017-05-17T00:32:22.050Z</time>
</trkpt>
<trkpt lat="-27.2011098" lon="152.8244372">
<ele>73.418</ele>
<time>2017-05-17T00:32:23.801Z</time>
</trkpt>
<trkpt lat="-27.2008515" lon="152.8241596">
<ele>72.841</ele>
<time>2017-05-17T00:32:26.385Z</time>
</trkpt>
<trkpt lat="-27.2006723" lon="152.8239825">
<ele>72.134</ele>
<time>2017-05-17T00:32:28.240Z</time>
</trkpt>
<trkpt lat="-27.2004729" lon="152.8238144">
<ele>71.503</ele>
<time>2017-05-17T00:32:30.234Z</time>
</trkpt>
<trkpt lat="-27.2001721" lon="152.8235589">
<ele>71.185</ele>
<time>2017-05-17T00:32:33.227Z</time>
</trkpt>
<trkpt lat="-27.1999417" lon="152.8234848">
<ele>71.289</ele>
<time>2017-05-17T00:32:35.136Z</time>
</trkpt>
<trkpt lat="-27.1997043" lon="152.8234151">
<ele>71.769</ele>
<time>2017-05-17T00:32:37.101Z</time>
</trkpt>
<trkpt lat="-27.1993357" lon="152.8233307">
<ele>72.469</ele>
<time>2017-05-17T00:32:40.087Z</time>
</trkpt>
<trkpt lat="-27.1990775" lon="152.8233114">
<ele>73.263</ele>
<time>2017-05-17T00:32:42.118Z</time>
</trkpt>
<trkpt lat="-27.1986889" lon="152.8232722">
<ele>74.060</ele>
<time>2017-05-17T00:32:45.142Z</time>
</trkpt>
<trkpt lat="-27.1983066" lon="152.8232047">
<ele>74.703</ele>
<time>2017-05-17T00:32:48.126Z</time>
</trkpt>
<trkpt lat="-27.1980677" lon="152.8231046">
<ele>75.126</ele>
<time>2017-05-17T00:32:50.094Z</time>
</trkpt>
<trkpt lat="-27.1977084" lon="152.8229779">
<ele>75.457</ele>
<time>2017-05-17T00:32:53.016Z</time>
</trkpt>
<trkpt lat="-27.1974972" lon="152.8228589">
<ele>75.922</ele>
<time>2017-05-17T00:32:54.863Z</time>
</trkpt>
<trkpt lat="-27.1972346" lon="152.8227160">
<ele>76.540</ele>
<time>2017-05-17T00:32:57.318Z</time>
</trkpt>
<trkpt lat="-27.1971193" lon="152.8226466">
<ele>76.909</ele>
<time>2017-05-17T00:32:58.487Z</time>
</trkpt>
<trkpt lat="-27.1970392" lon="152.8227794">
<ele>76.647</ele>
<time>2017-05-17T00:32:59.945Z</time>
</trkpt>
<trkpt lat="-27.1968475" lon="152.8231653">
<ele>75.815</ele>
<time>2017-05-17T00:33:04.943Z</time>
</trkpt>
<trkpt lat="-27.1967029" lon="152.8235161">
<ele>74.715</ele>
<time>2017-05-17T00:33:08.680Z</time>
</trkpt>
<trkpt lat="-27.1965591" lon="152.8237161">
<ele>73.621</ele>
<time>2017-05-17T00:33:10.788Z</time>
</trkpt>
<trkpt lat="-27.1963655" lon="152.8240221">
<ele>72.710</ele>
<time>2017-05-17T00:33:13.669Z</time>
</trkpt>
<trkpt lat="-27.1961775" lon="152.8242759">
<ele>72.046</ele>
<time>2017-05-17T00:33:16.244Z</time>
</trkpt>
<trkpt lat="-27.1960407" lon="152.8245369">
<ele>71.581</ele>
<time>2017-05-17T00:33:18.752Z</time>
</trkpt>
<trkpt lat="-27.1959372" lon="152.8247905">
<ele>71.228</ele>
<time>2017-05-17T00:33:21.281Z</time>
</trkpt>
<trkpt lat="-27.1959679" lon="152.8249629">
<ele>70.971</ele>
<time>2017-05-17T00:33:23.015Z</time>
</trkpt>
<trkpt lat="-27.1959577" lon="152.8251601">
<ele>70.811</ele>
<time>2017-05-17T00:33:25.033Z</time>
</trkpt>
<trkpt lat="-27.1959453" lon="152.8254311">
<ele>70.714</ele>
<time>2017-05-17T00:33:28.219Z</time>
</trkpt>
<trkpt lat="-27.1959087" lon="152.8256214">
<ele>70.679</ele>
<time>2017-05-17T00:33:30.633Z</time>
</trkpt>
<trkpt lat="-27.1958499" lon="152.8258753">
<ele>70.721</ele>
<time>2017-05-17T00:33:33.658Z</time>
</trkpt>
<trkpt lat="-27.1956239" lon="152.8260024">
<ele>70.797</ele>
<time>2017-05-17T00:33:36.882Z</time>
</trkpt>
<trkpt lat="-27.1954090" lon="152.8260145">
<ele>70.874</ele>
<time>2017-05-17T00:33:39.546Z</time>
</trkpt>
<trkpt lat="-27.1950567" lon="152.8260526">
<ele>70.984</ele>
<time>2017-05-17T00:33:43.177Z</time>
</trkpt>
<trkpt lat="-27.1948033" lon="152.8261410">
<ele>71.230</ele>
<time>2017-05-17T00:33:45.544Z</time>
</trkpt>
<trkpt lat="-27.1944112" lon="152.8262808">
<ele>71.667</ele>
<time>2017-05-17T00:33:48.806Z</time>
</trkpt>
<trkpt lat="-27.1941324" lon="152.8263227">
<ele>72.232</ele>
<time>2017-05-17T00:33:50.954Z</time>
</trkpt>
<trkpt lat="-27.1937122" lon="152.8264614">
<ele>72.832</ele>
<time>2017-05-17T00:33:54.132Z</time>
</trkpt>
<trkpt lat="-27.1934249" lon="152.8265198">
<ele>73.452</ele>
<time>2017-05-17T00:33:56.158Z</time>
</trkpt>
<trkpt lat="-27.1929983" lon="152.8267056">
<ele>74.173</ele>
<time>2017-05-17T00:33:59.195Z</time>
</trkpt>
<trkpt lat="-27.1925312" lon="152.8266847">
<ele>75.069</ele>
<time>2017-05-17T00:34:02.230Z</time>
</trkpt>
<trkpt lat="-27.1920688" lon="152.8266055">
<ele>76.014</ele>
<time>2017-05-17T00:34:05.252Z</time>
</trkpt>
<trkpt lat="-27.1917591" lon="152.8265899">
<ele>76.753</ele>
<time>2017-05-17T00:34:07.245Z</time>
</trkpt>
<trkpt lat="-27.1913026" lon="152.8265103">
<ele>77.189</ele>
<time>2017-05-17T00:34:10.208Z</time>
</trkpt>
<trkpt lat="-27.1908510" lon="152.8264865">
<ele>77.475</ele>
<time>2017-05-17T00:34:13.125Z</time>
</trkpt>
<trkpt lat="-27.1903885" lon="152.8264543">
<ele>77.821</ele>
<time>2017-05-17T00:34:16.119Z</time>
</trkpt>
<trkpt lat="-27.1899431" lon="152.8264108">
<ele>78.266</ele>
<time>2017-05-17T00:34:19.021Z</time>
</trkpt>
<trkpt lat="-27.1895038" lon="152.8263803">
<ele>78.677</ele>
<time>2017-05-17T00:34:21.935Z</time>
</trkpt>
<trkpt lat="-27.1890615" lon="152.8263097">
<ele>78.983</ele>
<time>2017-05-17T00:34:24.936Z</time>
</trkpt>
<trkpt lat="-27.1887604" lon="152.8263766">
<ele>79.238</ele>
<time>2017-05-17T00:34:26.998Z</time>
</trkpt>
<trkpt lat="-27.1884687" lon="152.8265175">
<ele>79.488</ele>
<time>2017-05-17T00:34:29.108Z</time>
</trkpt>
<trkpt lat="-27.1880517" lon="152.8267859">
<ele>79.751</ele>
<time>2017-05-17T00:34:32.216Z</time>
</trkpt>
<trkpt lat="-27.1876970" lon="152.8272212">
<ele>80.030</ele>
<time>2017-05-17T00:34:35.423Z</time>
</trkpt>
<trkpt lat="-27.1874205" lon="152.8275106">
<ele>80.380</ele>
<time>2017-05-17T00:34:37.573Z</time>
</trkpt>
<trkpt lat="-27.1870252" lon="152.8279392">
<ele>80.829</ele>
<time>2017-05-17T00:34:40.546Z</time>
</trkpt>
<trkpt lat="-27.1865400" lon="152.8282058">
<ele>81.232</ele>
<time>2017-05-17T00:34:43.464Z</time>
</trkpt>
<trkpt lat="-27.1862121" lon="152.8283789">
<ele>81.364</ele>
<time>2017-05-17T00:34:45.439Z</time>
</trkpt>
<trkpt lat="-27.1857679" lon="152.8287276">
<ele>81.203</ele>
<time>2017-05-17T00:34:48.412Z</time>
</trkpt>
<trkpt lat="-27.1854685" lon="152.8289207">
<ele>80.948</ele>
<time>2017-05-17T00:34:50.317Z</time>
</trkpt>
<trkpt lat="-27.1849897" lon="152.8290372">
<ele>80.788</ele>
<time>2017-05-17T00:34:53.115Z</time>
</trkpt>
<trkpt lat="-27.1845692" lon="152.8287820">
<ele>80.936</ele>
<time>2017-05-17T00:34:55.973Z</time>
</trkpt>
<trkpt lat="-27.1842120" lon="152.8284251">
<ele>81.666</ele>
<time>2017-05-17T00:34:58.921Z</time>
</trkpt>
<trkpt lat="-27.1839562" lon="152.8282105">
<ele>82.972</ele>
<time>2017-05-17T00:35:00.916Z</time>
</trkpt>
<trkpt lat="-27.1835388" lon="152.8279609">
<ele>84.528</ele>
<time>2017-05-17T00:35:03.893Z</time>
</trkpt>
<trkpt lat="-27.1830824" lon="152.8278241">
<ele>86.199</ele>
<time>2017-05-17T00:35:06.878Z</time>
</trkpt>
<trkpt lat="-27.1826319" lon="152.8276909">
<ele>88.063</ele>
<time>2017-05-17T00:35:09.830Z</time>
</trkpt>
<trkpt lat="-27.1823168" lon="152.8276452">
<ele>90.092</ele>
<time>2017-05-17T00:35:11.844Z</time>
</trkpt>
<trkpt lat="-27.1820077" lon="152.8275653">
<ele>92.057</ele>
<time>2017-05-17T00:35:13.844Z</time>
</trkpt>
<trkpt lat="-27.1815419" lon="152.8274999">
<ele>93.683</ele>
<time>2017-05-17T00:35:16.820Z</time>
</trkpt>
<trkpt lat="-27.1810894" lon="152.8274954">
<ele>94.836</ele>
<time>2017-05-17T00:35:19.778Z</time>
</trkpt>
<trkpt lat="-27.1806482" lon="152.8274821">
<ele>95.819</ele>
<time>2017-05-17T00:35:22.715Z</time>
</trkpt>
<trkpt lat="-27.1803416" lon="152.8274262">
<ele>97.123</ele>
<time>2017-05-17T00:35:24.763Z</time>
</trkpt>
<trkpt lat="-27.1800811" lon="152.8273493">
<ele>98.716</ele>
<time>2017-05-17T00:35:26.521Z</time>
</trkpt>
<trkpt lat="-27.1797609" lon="152.8272404">
<ele>100.034</ele>
<time>2017-05-17T00:35:28.847Z</time>
</trkpt>
<trkpt lat="-27.1795318" lon="152.8271842">
<ele>100.753</ele>
<time>2017-05-17T00:35:30.634Z</time>
</trkpt>
<trkpt lat="-27.1794501" lon="152.8271413">
<ele>101.010</ele>
<time>2017-05-17T00:35:31.423Z</time>
</trkpt>
<trkpt lat="-27.1793474" lon="152.8271001">
<ele>101.048</ele>
<time>2017-05-17T00:35:32.513Z</time>
</trkpt>
<trkpt lat="-27.1792013" lon="152.8270365">
<ele>101.092</ele>
<time>2017-05-17T00:35:34.119Z</time>
</trkpt>
<trkpt lat="-27.1790157" lon="152.8270036">
<ele>101.327</ele>
<time>2017-05-17T00:35:37.177Z</time>
</trkpt>
<trkpt lat="-27.1787092" lon="152.8269705">
<ele>101.819</ele>
<time>2017-05-17T00:35:41.741Z</time>
</trkpt>
<trkpt lat="-27.1783987" lon="152.8268772">
<ele>102.569</ele>
<time>2017-05-17T00:35:45.123Z</time>
</trkpt>
<trkpt lat="-27.1781790" lon="152.8268391">
<ele>103.525</ele>
<time>2017-05-17T00:35:47.259Z</time>
</trkpt>
<trkpt lat="-27.1778488" lon="152.8267439">
<ele>104.425</ele>
<time>2017-05-17T00:35:50.382Z</time>
</trkpt>
<trkpt lat="-27.1776248" lon="152.8267164">
<ele>104.968</ele>
<time>2017-05-17T00:35:52.365Z</time>
</trkpt>
<trkpt lat="-27.1773052" lon="152.8266108">
<ele>105.100</ele>
<time>2017-05-17T00:35:55.285Z</time>
</trkpt>
<trkpt lat="-27.1770876" lon="152.8265575">
<ele>104.948</ele>
<time>2017-05-17T00:35:57.251Z</time>
</trkpt>
<trkpt lat="-27.1767624" lon="152.8265212">
<ele>104.670</ele>
<time>2017-05-17T00:36:00.148Z</time>
</trkpt>
<trkpt lat="-27.1765376" lon="152.8264618">
<ele>104.408</ele>
<time>2017-05-17T00:36:02.216Z</time>
</trkpt>
<trkpt lat="-27.1762034" lon="152.8264582">
<ele>104.242</ele>
<time>2017-05-17T00:36:05.239Z</time>
</trkpt>
<trkpt lat="-27.1760068" lon="152.8263492">
<ele>104.177</ele>
<time>2017-05-17T00:36:07.223Z</time>
</trkpt>
<trkpt lat="-27.1758041" lon="152.8262849">
<ele>104.179</ele>
<time>2017-05-17T00:36:09.138Z</time>
</trkpt>
<trkpt lat="-27.1754576" lon="152.8261787">
<ele>104.234</ele>
<time>2017-05-17T00:36:12.426Z</time>
</trkpt>
<trkpt lat="-27.1752131" lon="152.8260404">
<ele>104.445</ele>
<time>2017-05-17T00:36:14.816Z</time>
</trkpt>
<trkpt lat="-27.1748969" lon="152.8256443">
<ele>105.004</ele>
<time>2017-05-17T00:36:18.387Z</time>
</trkpt>
<trkpt lat="-27.1746114" lon="152.8252474">
<ele>106.204</ele>
<time>2017-05-17T00:36:21.458Z</time>
</trkpt>
<trkpt lat="-27.1743674" lon="152.8250418">
<ele>108.267</ele>
<time>2017-05-17T00:36:23.461Z</time>
</trkpt>
<trkpt lat="-27.1739167" lon="152.8249083">
<ele>110.882</ele>
<time>2017-05-17T00:36:26.538Z</time>
</trkpt>
<trkpt lat="-27.1735610" lon="152.8249409">
<ele>113.573</ele>
<time>2017-05-17T00:36:28.863Z</time>
</trkpt>
<trkpt lat="-27.1731165" lon="152.8248827">
<ele>116.164</ele>
<time>2017-05-17T00:36:31.725Z</time>
</trkpt>
<trkpt lat="-27.1726425" lon="152.8249330">
<ele>118.557</ele>
<time>2017-05-17T00:36:34.785Z</time>
</trkpt>
<trkpt lat="-27.1722033" lon="152.8251341">
<ele>120.767</ele>
<time>2017-05-17T00:36:37.852Z</time>
</trkpt>
<trkpt lat="-27.1719050" lon="152.8252191">
<ele>122.985</ele>
<time>2017-05-17T00:36:39.845Z</time>
</trkpt>
<trkpt lat="-27.1715900" lon="152.8252018">
<ele>125.164</ele>
<time>2017-05-17T00:36:41.880Z</time>
</trkpt>
<trkpt lat="-27.1711308" lon="152.8250423">
<ele>127.125</ele>
<time>2017-05-17T00:36:44.913Z</time>
</trkpt>
<trkpt lat="-27.1708289" lon="152.8250188">
<ele>128.982</ele>
<time>2017-05-17T00:36:46.810Z</time>
</trkpt>
<trkpt lat="-27.1703743" lon="152.8251479">
<ele>130.928</ele>
<time>2017-05-17T00:36:49.807Z</time>
</trkpt>
<trkpt lat="-27.1701343" lon="152.8253942">
<ele>132.996</ele>
<time>2017-05-17T00:36:51.898Z</time>
</trkpt>
<trkpt lat="-27.1697670" lon="152.8257461">
<ele>135.114</ele>
<time>2017-05-17T00:36:54.929Z</time>
</trkpt>
<trkpt lat="-27.1693859" lon="152.8260377">
<ele>137.086</ele>
<time>2017-05-17T00:36:57.816Z</time>
</trkpt>
<trkpt lat="-27.1692843" lon="152.8265163">
<ele>138.849</ele>
<time>2017-05-17T00:37:00.589Z</time>
</trkpt>
<trkpt lat="-27.1691611" lon="152.8269829">
<ele>140.676</ele>
<time>2017-05-17T00:37:03.400Z</time>
</trkpt>
<trkpt lat="-27.1687402" lon="152.8271808">
<ele>142.720</ele>
<time>2017-05-17T00:37:06.492Z</time>
</trkpt>
<trkpt lat="-27.1683203" lon="152.8269578">
<ele>144.915</ele>
<time>2017-05-17T00:37:09.620Z</time>
</trkpt>
<trkpt lat="-27.1680137" lon="152.8267529">
<ele>147.257</ele>
<time>2017-05-17T00:37:11.873Z</time>
</trkpt>
<trkpt lat="-27.1675422" lon="152.8265240">
<ele>149.707</ele>
<time>2017-05-17T00:37:14.891Z</time>
</trkpt>
<trkpt lat="-27.1670132" lon="152.8264900">
<ele>152.103</ele>
<time>2017-05-17T00:37:17.977Z</time>
</trkpt>
<trkpt lat="-27.1665025" lon="152.8266373">
<ele>154.502</ele>
<time>2017-05-17T00:37:21.030Z</time>
</trkpt>
<trkpt lat="-27.1660216" lon="152.8268066">
<ele>157.099</ele>
<time>2017-05-17T00:37:23.944Z</time>
</trkpt>
<trkpt lat="-27.1655285" lon="152.8269586">
<ele>159.842</ele>
<time>2017-05-17T00:37:26.934Z</time>
</trkpt>
<trkpt lat="-27.1652215" lon="152.8270441">
<ele>162.547</ele>
<time>2017-05-17T00:37:28.797Z</time>
</trkpt>
<trkpt lat="-27.1647433" lon="152.8270289">
<ele>165.054</ele>
<time>2017-05-17T00:37:31.654Z</time>
</trkpt>
<trkpt lat="-27.1642908" lon="152.8268541">
<ele>167.353</ele>
<time>2017-05-17T00:37:34.578Z</time>
</trkpt>
<trkpt lat="-27.1638752" lon="152.8266107">
<ele>169.642</ele>
<time>2017-05-17T00:37:37.591Z</time>
</trkpt>
<trkpt lat="-27.1637942" lon="152.8263443">
<ele>171.930</ele>
<time>2017-05-17T00:37:39.297Z</time>
</trkpt>
<trkpt lat="-27.1640405" lon="152.8258575">
<ele>173.893</ele>
<time>2017-05-17T00:37:43.027Z</time>
</trkpt>
<trkpt lat="-27.1642041" lon="152.8254408">
<ele>175.704</ele>
<time>2017-05-17T00:37:45.661Z</time>
</trkpt>
<trkpt lat="-27.1643902" lon="152.8249122">
<ele>177.984</ele>
<time>2017-05-17T00:37:48.574Z</time>
</trkpt>
<trkpt lat="-27.1644050" lon="152.8243748">
<ele>180.888</ele>
<time>2017-05-17T00:37:51.430Z</time>
</trkpt>
<trkpt lat="-27.1641081" lon="152.8239372">
<ele>184.022</ele>
<time>2017-05-17T00:37:54.425Z</time>
</trkpt>
<trkpt lat="-27.1636785" lon="152.8235699">
<ele>186.650</ele>
<time>2017-05-17T00:37:57.560Z</time>
</trkpt>
<trkpt lat="-27.1632248" lon="152.8232579">
<ele>188.566</ele>
<time>2017-05-17T00:38:00.538Z</time>
</trkpt>
<trkpt lat="-27.1628014" lon="152.8229878">
<ele>191.204</ele>
<time>2017-05-17T00:38:03.347Z</time>
</trkpt>
<trkpt lat="-27.1622990" lon="152.8229850">
<ele>195.432</ele>
<time>2017-05-17T00:38:06.296Z</time>
</trkpt>
<trkpt lat="-27.1620154" lon="152.8231312">
<ele>199.932</ele>
<time>2017-05-17T00:38:08.164Z</time>
</trkpt>
<trkpt lat="-27.1617293" lon="152.8233362">
<ele>203.320</ele>
<time>2017-05-17T00:38:10.237Z</time>
</trkpt>
<trkpt lat="-27.1614401" lon="152.8234989">
<ele>205.585</ele>
<time>2017-05-17T00:38:12.193Z</time>
</trkpt>
<trkpt lat="-27.1612096" lon="152.8238990">
<ele>207.337</ele>
<time>2017-05-17T00:38:14.869Z</time>
</trkpt>
<trkpt lat="-27.1610989" lon="152.8241227">
<ele>209.136</ele>
<time>2017-05-17T00:38:16.404Z</time>
</trkpt>
<trkpt lat="-27.1609400" lon="152.8242795">
<ele>210.941</ele>
<time>2017-05-17T00:38:18.030Z</time>
</trkpt>
<trkpt lat="-27.1609701" lon="152.8244621">
<ele>212.375</ele>
<time>2017-05-17T00:38:19.834Z</time>
</trkpt>
<trkpt lat="-27.1611670" lon="152.8245441">
<ele>213.352</ele>
<time>2017-05-17T00:38:22.655Z</time>
</trkpt>
<trkpt lat="-27.1613611" lon="152.8244443">
<ele>214.300</ele>
<time>2017-05-17T00:38:25.874Z</time>
</trkpt>
<trkpt lat="-27.1616168" lon="152.8241601">
<ele>215.704</ele>
<time>2017-05-17T00:38:29.822Z</time>
</trkpt>
<trkpt lat="-27.1619652" lon="152.8239870">
<ele>217.373</ele>
<time>2017-05-17T00:38:33.110Z</time>
</trkpt>
<trkpt lat="-27.1623156" lon="152.8239728">
<ele>218.568</ele>
<time>2017-05-17T00:38:35.992Z</time>
</trkpt>
<trkpt lat="-27.1625056" lon="152.8241373">
<ele>218.707</ele>
<time>2017-05-17T00:38:38.003Z</time>
</trkpt>
<trkpt lat="-27.1627667" lon="152.8244808">
<ele>217.922</ele>
<time>2017-05-17T00:38:41.373Z</time>
</trkpt>
<trkpt lat="-27.1628346" lon="152.8247450">
<ele>217.414</ele>
<time>2017-05-17T00:38:43.626Z</time>
</trkpt>
<trkpt lat="-27.1625826" lon="152.8249852">
<ele>218.593</ele>
<time>2017-05-17T00:38:46.970Z</time>
</trkpt>
<trkpt lat="-27.1623293" lon="152.8251705">
<ele>221.754</ele>
<time>2017-05-17T00:38:49.729Z</time>
</trkpt>
<trkpt lat="-27.1620237" lon="152.8255105">
<ele>226.074</ele>
<time>2017-05-17T00:38:52.906Z</time>
</trkpt>
<trkpt lat="-27.1617724" lon="152.8260133">
<ele>230.679</ele>
<time>2017-05-17T00:38:56.364Z</time>
</trkpt>
<trkpt lat="-27.1614614" lon="152.8263700">
<ele>235.375</ele>
<time>2017-05-17T00:38:59.280Z</time>
</trkpt>
<trkpt lat="-27.1609587" lon="152.8264634">
<ele>240.217</ele>
<time>2017-05-17T00:39:02.556Z</time>
</trkpt>
<trkpt lat="-27.1605747" lon="152.8266810">
<ele>245.032</ele>
<time>2017-05-17T00:39:05.347Z</time>
</trkpt>
<trkpt lat="-27.1602411" lon="152.8269178">
<ele>249.682</ele>
<time>2017-05-17T00:39:08.107Z</time>
</trkpt>
<trkpt lat="-27.1598647" lon="152.8269878">
<ele>254.242</ele>
<time>2017-05-17T00:39:11.066Z</time>
</trkpt>
<trkpt lat="-27.1596966" lon="152.8273540">
<ele>258.989</ele>
<time>2017-05-17T00:39:14.052Z</time>
</trkpt>
<trkpt lat="-27.1596817" lon="152.8276418">
<ele>264.043</ele>
<time>2017-05-17T00:39:16.109Z</time>
</trkpt>
<trkpt lat="-27.1597792" lon="152.8279255">
<ele>268.927</ele>
<time>2017-05-17T00:39:18.204Z</time>
</trkpt>
<trkpt lat="-27.1599724" lon="152.8283170">
<ele>273.025</ele>
<time>2017-05-17T00:39:21.257Z</time>
</trkpt>
<trkpt lat="-27.1601602" lon="152.8285946">
<ele>276.581</ele>
<time>2017-05-17T00:39:23.887Z</time>
</trkpt>
<trkpt lat="-27.1600944" lon="152.8288068">
<ele>280.328</ele>
<time>2017-05-17T00:39:25.852Z</time>
</trkpt>
<trkpt lat="-27.1597265" lon="152.8290297">
<ele>284.395</ele>
<time>2017-05-17T00:39:29.647Z</time>
</trkpt>
<trkpt lat="-27.1593058" lon="152.8292051">
<ele>288.844</ele>
<time>2017-05-17T00:39:33.036Z</time>
</trkpt>
<trkpt lat="-27.1589857" lon="152.8294225">
<ele>294.165</ele>
<time>2017-05-17T00:39:35.988Z</time>
</trkpt>
<trkpt lat="-27.1588467" lon="152.8295319">
<ele>300.376</ele>
<time>2017-05-17T00:39:37.591Z</time>
</trkpt>
<trkpt lat="-27.1585839" lon="152.8293616">
<ele>306.597</ele>
<time>2017-05-17T00:39:40.570Z</time>
</trkpt>
<trkpt lat="-27.1583017" lon="152.8290445">
<ele>312.215</ele>
<time>2017-05-17T00:39:43.969Z</time>
</trkpt>
<trkpt lat="-27.1580216" lon="152.8287852">
<ele>317.588</ele>
<time>2017-05-17T00:39:47.084Z</time>
</trkpt>
<trkpt lat="-27.1578148" lon="152.8288999">
<ele>323.147</ele>
<time>2017-05-17T00:39:49.376Z</time>
</trkpt>
<trkpt lat="-27.1576629" lon="152.8292167">
<ele>328.372</ele>
<time>2017-05-17T00:39:52.386Z</time>
</trkpt>
<trkpt lat="-27.1575463" lon="152.8295968">
<ele>332.450</ele>
<time>2017-05-17T00:39:55.274Z</time>
</trkpt>
<trkpt lat="-27.1575814" lon="152.8299040">
<ele>335.404</ele>
<time>2017-05-17T00:39:57.273Z</time>
</trkpt>
<trkpt lat="-27.1576564" lon="152.8302178">
<ele>337.861</ele>
<time>2017-05-17T00:39:59.317Z</time>
</trkpt>
<trkpt lat="-27.1578271" lon="152.8306475">
<ele>340.147</ele>
<time>2017-05-17T00:40:02.364Z</time>
</trkpt>
<trkpt lat="-27.1578881" lon="152.8309036">
<ele>342.461</ele>
<time>2017-05-17T00:40:04.264Z</time>
</trkpt>
<trkpt lat="-27.1578364" lon="152.8312935">
<ele>344.906</ele>
<time>2017-05-17T00:40:07.313Z</time>
</trkpt>
<trkpt lat="-27.1576796" lon="152.8315642">
<ele>347.168</ele>
<time>2017-05-17T00:40:09.900Z</time>
</trkpt>
<trkpt lat="-27.1574104" lon="152.8316082">
<ele>348.800</ele>
<time>2017-05-17T00:40:12.051Z</time>
</trkpt>
<trkpt lat="-27.1569001" lon="152.8317636">
<ele>349.613</ele>
<time>2017-05-17T00:40:15.737Z</time>
</trkpt>
<trkpt lat="-27.1564349" lon="152.8315928">
<ele>349.864</ele>
<time>2017-05-17T00:40:18.858Z</time>
</trkpt>
<trkpt lat="-27.1559649" lon="152.8313868">
<ele>350.197</ele>
<time>2017-05-17T00:40:21.902Z</time>
</trkpt>
<trkpt lat="-27.1556452" lon="152.8312874">
<ele>351.117</ele>
<time>2017-05-17T00:40:23.907Z</time>
</trkpt>
<trkpt lat="-27.1551911" lon="152.8311057">
<ele>352.639</ele>
<time>2017-05-17T00:40:26.902Z</time>
</trkpt>
<trkpt lat="-27.1549289" lon="152.8309597">
<ele>354.580</ele>
<time>2017-05-17T00:40:28.961Z</time>
</trkpt>
<trkpt lat="-27.1545863" lon="152.8309409">
<ele>356.765</ele>
<time>2017-05-17T00:40:31.477Z</time>
</trkpt>
<trkpt lat="-27.1542179" lon="152.8311756">
<ele>359.011</ele>
<time>2017-05-17T00:40:34.602Z</time>
</trkpt>
<trkpt lat="-27.1539394" lon="152.8311899">
<ele>361.210</ele>
<time>2017-05-17T00:40:36.536Z</time>
</trkpt>
<trkpt lat="-27.1536388" lon="152.8310784">
<ele>363.131</ele>
<time>2017-05-17T00:40:38.570Z</time>
</trkpt>
<trkpt lat="-27.1533667" lon="152.8308529">
<ele>364.444</ele>
<time>2017-05-17T00:40:40.622Z</time>
</trkpt>
<trkpt lat="-27.1529187" lon="152.8305977">
<ele>365.234</ele>
<time>2017-05-17T00:40:43.644Z</time>
</trkpt>
<trkpt lat="-27.1525048" lon="152.8303185">
<ele>365.926</ele>
<time>2017-05-17T00:40:46.560Z</time>
</trkpt>
<trkpt lat="-27.1521095" lon="152.8299987">
<ele>366.715</ele>
<time>2017-05-17T00:40:49.485Z</time>
</trkpt>
<trkpt lat="-27.1518394" lon="152.8297641">
<ele>367.392</ele>
<time>2017-05-17T00:40:51.501Z</time>
</trkpt>
<trkpt lat="-27.1514331" lon="152.8294237">
<ele>367.576</ele>
<time>2017-05-17T00:40:54.454Z</time>
</trkpt>
<trkpt lat="-27.1511265" lon="152.8289373">
<ele>366.913</ele>
<time>2017-05-17T00:40:57.457Z</time>
</trkpt>
<trkpt lat="-27.1509538" lon="152.8285661">
<ele>365.549</ele>
<time>2017-05-17T00:40:59.542Z</time>
</trkpt>
<trkpt lat="-27.1506722" lon="152.8280890">
<ele>364.259</ele>
<time>2017-05-17T00:41:02.454Z</time>
</trkpt>
<trkpt lat="-27.1504865" lon="152.8277785">
<ele>363.968</ele>
<time>2017-05-17T00:41:04.466Z</time>
</trkpt>
<trkpt lat="-27.1503508" lon="152.8274559">
<ele>365.178</ele>
<time>2017-05-17T00:41:06.633Z</time>
</trkpt>
<trkpt lat="-27.1503312" lon="152.8270477">
<ele>367.624</ele>
<time>2017-05-17T00:41:09.438Z</time>
</trkpt>
<trkpt lat="-27.1503351" lon="152.8267956">
<ele>370.786</ele>
<time>2017-05-17T00:41:11.550Z</time>
</trkpt>
<trkpt lat="-27.1502180" lon="152.8265268">
<ele>374.187</ele>
<time>2017-05-17T00:41:14.166Z</time>
</trkpt>
<trkpt lat="-27.1499954" lon="152.8264313">
<ele>377.088</ele>
<time>2017-05-17T00:41:16.266Z</time>
</trkpt>
<trkpt lat="-27.1496078" lon="152.8263630">
<ele>378.999</ele>
<time>2017-05-17T00:41:19.299Z</time>
</trkpt>
<trkpt lat="-27.1493088" lon="152.8262897">
<ele>379.984</ele>
<time>2017-05-17T00:41:21.311Z</time>
</trkpt>
<trkpt lat="-27.1489613" lon="152.8262572">
<ele>380.115</ele>
<time>2017-05-17T00:41:23.367Z</time>
</trkpt>
<trkpt lat="-27.1483912" lon="152.8257621">
<ele>379.231</ele>
<time>2017-05-17T00:41:27.281Z</time>
</trkpt>
<trkpt lat="-27.1480020" lon="152.8253099">
<ele>377.063</ele>
<time>2017-05-17T00:41:30.186Z</time>
</trkpt>
<trkpt lat="-27.1475656" lon="152.8249553">
<ele>373.913</ele>
<time>2017-05-17T00:41:33.068Z</time>
</trkpt>
<trkpt lat="-27.1470662" lon="152.8247979">
<ele>371.007</ele>
<time>2017-05-17T00:41:35.961Z</time>
</trkpt>
<trkpt lat="-27.1467413" lon="152.8246878">
<ele>369.789</ele>
<time>2017-05-17T00:41:37.903Z</time>
</trkpt>
<trkpt lat="-27.1462548" lon="152.8245060">
<ele>370.805</ele>
<time>2017-05-17T00:41:40.864Z</time>
</trkpt>
<trkpt lat="-27.1459615" lon="152.8243558">
<ele>373.668</ele>
<time>2017-05-17T00:41:42.848Z</time>
</trkpt>
<trkpt lat="-27.1457900" lon="152.8241011">
<ele>377.443</ele>
<time>2017-05-17T00:41:44.703Z</time>
</trkpt>
<trkpt lat="-27.1456248" lon="152.8236246">
<ele>381.056</ele>
<time>2017-05-17T00:41:47.660Z</time>
</trkpt>
<trkpt lat="-27.1453507" lon="152.8231308">
<ele>384.201</ele>
<time>2017-05-17T00:41:51.022Z</time>
</trkpt>
<trkpt lat="-27.1452350" lon="152.8228411">
<ele>387.996</ele>
<time>2017-05-17T00:41:52.867Z</time>
</trkpt>
<trkpt lat="-27.1451850" lon="152.8223558">
<ele>393.347</ele>
<time>2017-05-17T00:41:55.619Z</time>
</trkpt>
<trkpt lat="-27.1451642" lon="152.8218060">
<ele>399.899</ele>
<time>2017-05-17T00:41:58.597Z</time>
</trkpt>
<trkpt lat="-27.1452303" lon="152.8212374">
<ele>406.777</ele>
<time>2017-05-17T00:42:01.616Z</time>
</trkpt>
<trkpt lat="-27.1451606" lon="152.8206775">
<ele>412.887</ele>
<time>2017-05-17T00:42:04.601Z</time>
</trkpt>
<trkpt lat="-27.1451321" lon="152.8201397">
<ele>417.295</ele>
<time>2017-05-17T00:42:07.589Z</time>
</trkpt>
<trkpt lat="-27.1450277" lon="152.8198559">
<ele>420.138</ele>
<time>2017-05-17T00:42:09.386Z</time>
</trkpt>
<trkpt lat="-27.1447944" lon="152.8196383">
<ele>422.110</ele>
<time>2017-05-17T00:42:11.341Z</time>
</trkpt>
<trkpt lat="-27.1444624" lon="152.8192000">
<ele>423.714</ele>
<time>2017-05-17T00:42:14.581Z</time>
</trkpt>
<trkpt lat="-27.1442894" lon="152.8189231">
<ele>425.149</ele>
<time>2017-05-17T00:42:16.464Z</time>
</trkpt>
<trkpt lat="-27.1440314" lon="152.8184843">
<ele>426.265</ele>
<time>2017-05-17T00:42:19.343Z</time>
</trkpt>
<trkpt lat="-27.1437367" lon="152.8180235">
<ele>426.606</ele>
<time>2017-05-17T00:42:22.355Z</time>
</trkpt>
<trkpt lat="-27.1434316" lon="152.8174909">
<ele>425.715</ele>
<time>2017-05-17T00:42:25.651Z</time>
</trkpt>
<trkpt lat="-27.1430681" lon="152.8170932">
<ele>423.989</ele>
<time>2017-05-17T00:42:28.656Z</time>
</trkpt>
<trkpt lat="-27.1427878" lon="152.8166665">
<ele>422.600</ele>
<time>2017-05-17T00:42:31.573Z</time>
</trkpt>
<trkpt lat="-27.1425893" lon="152.8164208">
<ele>422.339</ele>
<time>2017-05-17T00:42:33.491Z</time>
</trkpt>
<trkpt lat="-27.1423707" lon="152.8161948">
<ele>423.173</ele>
<time>2017-05-17T00:42:35.418Z</time>
</trkpt>
<trkpt lat="-27.1419088" lon="152.8160855">
<ele>424.614</ele>
<time>2017-05-17T00:42:38.405Z</time>
</trkpt>
<trkpt lat="-27.1415786" lon="152.8160198">
<ele>425.967</ele>
<time>2017-05-17T00:42:40.427Z</time>
</trkpt>
<trkpt lat="-27.1412586" lon="152.8158947">
<ele>426.679</ele>
<time>2017-05-17T00:42:42.415Z</time>
</trkpt>
<trkpt lat="-27.1407582" lon="152.8157221">
<ele>426.433</ele>
<time>2017-05-17T00:42:45.440Z</time>
</trkpt>
<trkpt lat="-27.1402761" lon="152.8155175">
<ele>425.054</ele>
<time>2017-05-17T00:42:48.409Z</time>
</trkpt>
<trkpt lat="-27.1398150" lon="152.8152824">
<ele>422.952</ele>
<time>2017-05-17T00:42:51.363Z</time>
</trkpt>
<trkpt lat="-27.1395109" lon="152.8151345">
<ele>421.180</ele>
<time>2017-05-17T00:42:53.344Z</time>
</trkpt>
<trkpt lat="-27.1390533" lon="152.8149519">
<ele>420.615</ele>
<time>2017-05-17T00:42:56.326Z</time>
</trkpt>
<trkpt lat="-27.1387658" lon="152.8148879">
<ele>421.736</ele>
<time>2017-05-17T00:42:58.300Z</time>
</trkpt>
<trkpt lat="-27.1384397" lon="152.8146677">
<ele>424.472</ele>
<time>2017-05-17T00:43:01.106Z</time>
</trkpt>
<trkpt lat="-27.1383118" lon="152.8144547">
<ele>428.036</ele>
<time>2017-05-17T00:43:03.103Z</time>
</trkpt>
<trkpt lat="-27.1380842" lon="152.8142823">
<ele>431.619</ele>
<time>2017-05-17T00:43:05.879Z</time>
</trkpt>
<trkpt lat="-27.1379792" lon="152.8141449">
<ele>435.266</ele>
<time>2017-05-17T00:43:07.862Z</time>
</trkpt>
<trkpt lat="-27.1379390" lon="152.8139631">
<ele>439.135</ele>
<time>2017-05-17T00:43:10.271Z</time>
</trkpt>
<trkpt lat="-27.1379399" lon="152.8136423">
<ele>442.519</ele>
<time>2017-05-17T00:43:13.743Z</time>
</trkpt>
<trkpt lat="-27.1379691" lon="152.8133711">
<ele>444.701</ele>
<time>2017-05-17T00:43:16.810Z</time>
</trkpt>
<trkpt lat="-27.1379271" lon="152.8132254">
<ele>445.840</ele>
<time>2017-05-17T00:43:18.999Z</time>
</trkpt>
<trkpt lat="-27.1379271" lon="152.8132254">
<ele>446.296</ele>
<time>2017-05-17T00:43:22.999Z</time>
</trkpt>
<trkpt lat="-27.1379271" lon="152.8132254">
<ele>446.301</ele>
<time>2017-05-17T00:45:14.498Z</time>
</trkpt>
<trkpt lat="-27.1378160" lon="152.8130112">
<ele>446.078</ele>
<time>2017-05-17T00:45:20.735Z</time>
</trkpt>
<trkpt lat="-27.1377672" lon="152.8127520">
<ele>446.020</ele>
<time>2017-05-17T00:45:23.983Z</time>
</trkpt>
<trkpt lat="-27.1377148" lon="152.8124824">
<ele>446.342</ele>
<time>2017-05-17T00:45:26.971Z</time>
</trkpt>
<trkpt lat="-27.1377149" lon="152.8122857">
<ele>446.759</ele>
<time>2017-05-17T00:45:28.823Z</time>
</trkpt>
<trkpt lat="-27.1376437" lon="152.8120710">
<ele>446.841</ele>
<time>2017-05-17T00:45:30.596Z</time>
</trkpt>
<trkpt lat="-27.1375133" lon="152.8116516">
<ele>446.285</ele>
<time>2017-05-17T00:45:33.657Z</time>
</trkpt>
<trkpt lat="-27.1374891" lon="152.8113200">
<ele>445.083</ele>
<time>2017-05-17T00:45:35.628Z</time>
</trkpt>
<trkpt lat="-27.1374733" lon="152.8108623">
<ele>443.782</ele>
<time>2017-05-17T00:45:38.239Z</time>
</trkpt>
<trkpt lat="-27.1374232" lon="152.8104201">
<ele>444.137</ele>
<time>2017-05-17T00:45:40.640Z</time>
</trkpt>
<trkpt lat="-27.1373666" lon="152.8099499">
<ele>446.918</ele>
<time>2017-05-17T00:45:43.100Z</time>
</trkpt>
<trkpt lat="-27.1372980" lon="152.8095850">
<ele>450.001</ele>
<time>2017-05-17T00:45:45.035Z</time>
</trkpt>
<trkpt lat="-27.1372053" lon="152.8092296">
<ele>450.748</ele>
<time>2017-05-17T00:45:47.095Z</time>
</trkpt>
<trkpt lat="-27.1371553" lon="152.8087424">
<ele>448.463</ele>
<time>2017-05-17T00:45:50.086Z</time>
</trkpt>
<trkpt lat="-27.1371701" lon="152.8083133">
<ele>443.963</ele>
<time>2017-05-17T00:45:53.377Z</time>
</trkpt>
<trkpt lat="-27.1370932" lon="152.8081396">
<ele>439.186</ele>
<time>2017-05-17T00:45:55.621Z</time>
</trkpt>
<trkpt lat="-27.1369605" lon="152.8080556">
<ele>435.706</ele>
<time>2017-05-17T00:45:57.601Z</time>
</trkpt>
<trkpt lat="-27.1367268" lon="152.8080782">
<ele>433.619</ele>
<time>2017-05-17T00:46:00.526Z</time>
</trkpt>
<trkpt lat="-27.1363126" lon="152.8080631">
<ele>432.335</ele>
<time>2017-05-17T00:46:04.029Z</time>
</trkpt>
<trkpt lat="-27.1359249" lon="152.8080061">
<ele>431.759</ele>
<time>2017-05-17T00:46:06.645Z</time>
</trkpt>
<trkpt lat="-27.1353995" lon="152.8078513">
<ele>431.803</ele>
<time>2017-05-17T00:46:09.944Z</time>
</trkpt>
<trkpt lat="-27.1350721" lon="152.8077839">
<ele>431.906</ele>
<time>2017-05-17T00:46:11.902Z</time>
</trkpt>
<trkpt lat="-27.1346237" lon="152.8076639">
<ele>431.498</ele>
<time>2017-05-17T00:46:14.671Z</time>
</trkpt>
<trkpt lat="-27.1343229" lon="152.8075554">
<ele>430.287</ele>
<time>2017-05-17T00:46:16.622Z</time>
</trkpt>
<trkpt lat="-27.1339433" lon="152.8072335">
<ele>428.345</ele>
<time>2017-05-17T00:46:19.573Z</time>
</trkpt>
<trkpt lat="-27.1336842" lon="152.8070422">
<ele>426.010</ele>
<time>2017-05-17T00:46:21.512Z</time>
</trkpt>
<trkpt lat="-27.1333122" lon="152.8067554">
<ele>423.582</ele>
<time>2017-05-17T00:46:24.379Z</time>
</trkpt>
<trkpt lat="-27.1330219" lon="152.8066763">
<ele>421.086</ele>
<time>2017-05-17T00:46:26.310Z</time>
</trkpt>
<trkpt lat="-27.1327079" lon="152.8067242">
<ele>418.709</ele>
<time>2017-05-17T00:46:28.340Z</time>
</trkpt>
<trkpt lat="-27.1323954" lon="152.8067809">
<ele>416.893</ele>
<time>2017-05-17T00:46:30.340Z</time>
</trkpt>
<trkpt lat="-27.1319460" lon="152.8068917">
<ele>415.779</ele>
<time>2017-05-17T00:46:33.296Z</time>
</trkpt>
<trkpt lat="-27.1316618" lon="152.8069871">
<ele>415.079</ele>
<time>2017-05-17T00:46:35.285Z</time>
</trkpt>
<trkpt lat="-27.1313345" lon="152.8070567">
<ele>414.620</ele>
<time>2017-05-17T00:46:37.770Z</time>
</trkpt>
<trkpt lat="-27.1310069" lon="152.8068226">
<ele>414.453</ele>
<time>2017-05-17T00:46:40.843Z</time>
</trkpt>
<trkpt lat="-27.1308111" lon="152.8065660">
<ele>414.555</ele>
<time>2017-05-17T00:46:43.013Z</time>
</trkpt>
<trkpt lat="-27.1306332" lon="152.8060565">
<ele>414.718</ele>
<time>2017-05-17T00:46:46.182Z</time>
</trkpt>
<trkpt lat="-27.1304978" lon="152.8055246">
<ele>414.690</ele>
<time>2017-05-17T00:46:49.238Z</time>
</trkpt>
<trkpt lat="-27.1303370" lon="152.8052167">
<ele>414.432</ele>
<time>2017-05-17T00:46:51.265Z</time>
</trkpt>
<trkpt lat="-27.1300594" lon="152.8049867">
<ele>414.190</ele>
<time>2017-05-17T00:46:53.495Z</time>
</trkpt>
<trkpt lat="-27.1296416" lon="152.8047703">
<ele>414.241</ele>
<time>2017-05-17T00:46:56.406Z</time>
</trkpt>
<trkpt lat="-27.1294014" lon="152.8045325">
<ele>414.772</ele>
<time>2017-05-17T00:46:58.403Z</time>
</trkpt>
<trkpt lat="-27.1291521" lon="152.8040753">
<ele>415.880</ele>
<time>2017-05-17T00:47:01.366Z</time>
</trkpt>
<trkpt lat="-27.1289659" lon="152.8037618">
<ele>417.518</ele>
<time>2017-05-17T00:47:03.412Z</time>
</trkpt>
<trkpt lat="-27.1288066" lon="152.8034447">
<ele>419.463</ele>
<time>2017-05-17T00:47:05.377Z</time>
</trkpt>
<trkpt lat="-27.1285056" lon="152.8030495">
<ele>421.422</ele>
<time>2017-05-17T00:47:08.231Z</time>
</trkpt>
<trkpt lat="-27.1281968" lon="152.8028534">
<ele>423.387</ele>
<time>2017-05-17T00:47:10.434Z</time>
</trkpt>
<trkpt lat="-27.1278811" lon="152.8027220">
<ele>425.405</ele>
<time>2017-05-17T00:47:12.492Z</time>
</trkpt>
<trkpt lat="-27.1275795" lon="152.8025813">
<ele>427.105</ele>
<time>2017-05-17T00:47:14.473Z</time>
</trkpt>
<trkpt lat="-27.1272686" lon="152.8024425">
<ele>428.143</ele>
<time>2017-05-17T00:47:16.493Z</time>
</trkpt>
<trkpt lat="-27.1268234" lon="152.8022046">
<ele>428.665</ele>
<time>2017-05-17T00:47:19.462Z</time>
</trkpt>
<trkpt lat="-27.1265612" lon="152.8019934">
<ele>429.241</ele>
<time>2017-05-17T00:47:21.427Z</time>
</trkpt>
<trkpt lat="-27.1262429" lon="152.8015963">
<ele>430.397</ele>
<time>2017-05-17T00:47:24.360Z</time>
</trkpt>
<trkpt lat="-27.1261450" lon="152.8012433">
<ele>432.228</ele>
<time>2017-05-17T00:47:26.378Z</time>
</trkpt>
<trkpt lat="-27.1261960" lon="152.8006782">
<ele>434.442</ele>
<time>2017-05-17T00:47:29.435Z</time>
</trkpt>
<trkpt lat="-27.1262744" lon="152.8003131">
<ele>436.757</ele>
<time>2017-05-17T00:47:31.433Z</time>
</trkpt>
<trkpt lat="-27.1263063" lon="152.7997525">
<ele>439.037</ele>
<time>2017-05-17T00:47:34.404Z</time>
</trkpt>
<trkpt lat="-27.1262635" lon="152.7994188">
<ele>441.319</ele>
<time>2017-05-17T00:47:36.248Z</time>
</trkpt>
<trkpt lat="-27.1261449" lon="152.7989832">
<ele>443.539</ele>
<time>2017-05-17T00:47:38.990Z</time>
</trkpt>
<trkpt lat="-27.1260095" lon="152.7987645">
<ele>445.409</ele>
<time>2017-05-17T00:47:40.858Z</time>
</trkpt>
<trkpt lat="-27.1256897" lon="152.7987471">
<ele>446.725</ele>
<time>2017-05-17T00:47:43.533Z</time>
</trkpt>
<trkpt lat="-27.1254644" lon="152.7986368">
<ele>447.690</ele>
<time>2017-05-17T00:47:45.515Z</time>
</trkpt>
<trkpt lat="-27.1252648" lon="152.7983897">
<ele>448.573</ele>
<time>2017-05-17T00:47:47.618Z</time>
</trkpt>
<trkpt lat="-27.1250317" lon="152.7978918">
<ele>449.507</ele>
<time>2017-05-17T00:47:50.751Z</time>
</trkpt>
<trkpt lat="-27.1248863" lon="152.7975595">
<ele>450.691</ele>
<time>2017-05-17T00:47:52.745Z</time>
</trkpt>
<trkpt lat="-27.1245694" lon="152.7971623">
<ele>452.264</ele>
<time>2017-05-17T00:47:55.673Z</time>
</trkpt>
<trkpt lat="-27.1242794" lon="152.7970205">
<ele>454.015</ele>
<time>2017-05-17T00:47:57.702Z</time>
</trkpt>
<trkpt lat="-27.1239981" lon="152.7969183">
<ele>455.595</ele>
<time>2017-05-17T00:47:59.710Z</time>
</trkpt>
<trkpt lat="-27.1237115" lon="152.7965751">
<ele>456.751</ele>
<time>2017-05-17T00:48:02.784Z</time>
</trkpt>
<trkpt lat="-27.1236408" lon="152.7961999">
<ele>457.418</ele>
<time>2017-05-17T00:48:05.466Z</time>
</trkpt>
<trkpt lat="-27.1239109" lon="152.7958303">
<ele>457.767</ele>
<time>2017-05-17T00:48:08.836Z</time>
</trkpt>
<trkpt lat="-27.1238742" lon="152.7954075">
<ele>457.956</ele>
<time>2017-05-17T00:48:11.674Z</time>
</trkpt>
<trkpt lat="-27.1236902" lon="152.7951299">
<ele>458.132</ele>
<time>2017-05-17T00:48:13.662Z</time>
</trkpt>
<trkpt lat="-27.1233722" lon="152.7946997">
<ele>458.645</ele>
<time>2017-05-17T00:48:16.719Z</time>
</trkpt>
<trkpt lat="-27.1231188" lon="152.7942191">
<ele>459.898</ele>
<time>2017-05-17T00:48:19.701Z</time>
</trkpt>
<trkpt lat="-27.1229140" lon="152.7938896">
<ele>461.827</ele>
<time>2017-05-17T00:48:21.827Z</time>
</trkpt>
<trkpt lat="-27.1226928" lon="152.7935847">
<ele>463.805</ele>
<time>2017-05-17T00:48:23.916Z</time>
</trkpt>
<trkpt lat="-27.1223381" lon="152.7932093">
<ele>465.233</ele>
<time>2017-05-17T00:48:26.831Z</time>
</trkpt>
<trkpt lat="-27.1220744" lon="152.7929776">
<ele>466.160</ele>
<time>2017-05-17T00:48:28.822Z</time>
</trkpt>
<trkpt lat="-27.1216347" lon="152.7926909">
<ele>467.071</ele>
<time>2017-05-17T00:48:31.837Z</time>
</trkpt>
<trkpt lat="-27.1211554" lon="152.7925114">
<ele>468.350</ele>
<time>2017-05-17T00:48:34.825Z</time>
</trkpt>
<trkpt lat="-27.1208139" lon="152.7924071">
<ele>470.027</ele>
<time>2017-05-17T00:48:36.939Z</time>
</trkpt>
<trkpt lat="-27.1203813" lon="152.7921036">
<ele>471.750</ele>
<time>2017-05-17T00:48:39.985Z</time>
</trkpt>
<trkpt lat="-27.1200662" lon="152.7916433">
<ele>473.162</ele>
<time>2017-05-17T00:48:43.038Z</time>
</trkpt>
<trkpt lat="-27.1198886" lon="152.7913252">
<ele>474.388</ele>
<time>2017-05-17T00:48:45.034Z</time>
</trkpt>
<trkpt lat="-27.1197606" lon="152.7909931">
<ele>475.608</ele>
<time>2017-05-17T00:48:46.964Z</time>
</trkpt>
<trkpt lat="-27.1196444" lon="152.7904246">
<ele>476.651</ele>
<time>2017-05-17T00:48:50.038Z</time>
</trkpt>
<trkpt lat="-27.1195356" lon="152.7900682">
<ele>477.361</ele>
<time>2017-05-17T00:48:51.987Z</time>
</trkpt>
<trkpt lat="-27.1191483" lon="152.7896564">
<ele>477.770</ele>
<time>2017-05-17T00:48:55.070Z</time>
</trkpt>
<trkpt lat="-27.1187943" lon="152.7892064">
<ele>477.852</ele>
<time>2017-05-17T00:48:58.197Z</time>
</trkpt>
<trkpt lat="-27.1185954" lon="152.7888902">
<ele>477.632</ele>
<time>2017-05-17T00:49:00.255Z</time>
</trkpt>
<trkpt lat="-27.1181120" lon="152.7886418">
<ele>477.372</ele>
<time>2017-05-17T00:49:03.441Z</time>
</trkpt>
<trkpt lat="-27.1176193" lon="152.7884795">
<ele>477.592</ele>
<time>2017-05-17T00:49:06.574Z</time>
</trkpt>
<trkpt lat="-27.1173373" lon="152.7883283">
<ele>478.708</ele>
<time>2017-05-17T00:49:08.512Z</time>
</trkpt>
<trkpt lat="-27.1169170" lon="152.7880484">
<ele>480.504</ele>
<time>2017-05-17T00:49:11.486Z</time>
</trkpt>
<trkpt lat="-27.1167204" lon="152.7877385">
<ele>482.535</ele>
<time>2017-05-17T00:49:13.493Z</time>
</trkpt>
<trkpt lat="-27.1164322" lon="152.7872664">
<ele>484.675</ele>
<time>2017-05-17T00:49:16.478Z</time>
</trkpt>
<trkpt lat="-27.1163146" lon="152.7868938">
<ele>486.878</ele>
<time>2017-05-17T00:49:18.518Z</time>
</trkpt>
<trkpt lat="-27.1162348" lon="152.7863188">
<ele>488.946</ele>
<time>2017-05-17T00:49:21.399Z</time>
</trkpt>
<trkpt lat="-27.1161268" lon="152.7859186">
<ele>490.596</ele>
<time>2017-05-17T00:49:23.306Z</time>
</trkpt>
<trkpt lat="-27.1161614" lon="152.7852072">
<ele>491.732</ele>
<time>2017-05-17T00:49:26.422Z</time>
</trkpt>
<trkpt lat="-27.1161616" lon="152.7847520">
<ele>492.455</ele>
<time>2017-05-17T00:49:28.412Z</time>
</trkpt>
<trkpt lat="-27.1161963" lon="152.7840845">
<ele>492.756</ele>
<time>2017-05-17T00:49:31.318Z</time>
</trkpt>
<trkpt lat="-27.1161655" lon="152.7833820">
<ele>492.505</ele>
<time>2017-05-17T00:49:34.323Z</time>
</trkpt>
<trkpt lat="-27.1160948" lon="152.7826872">
<ele>491.497</ele>
<time>2017-05-17T00:49:37.324Z</time>
</trkpt>
<trkpt lat="-27.1160255" lon="152.7822447">
<ele>489.715</ele>
<time>2017-05-17T00:49:39.315Z</time>
</trkpt>
<trkpt lat="-27.1160390" lon="152.7818186">
<ele>487.619</ele>
<time>2017-05-17T00:49:41.243Z</time>
</trkpt>
<trkpt lat="-27.1161014" lon="152.7813948">
<ele>485.776</ele>
<time>2017-05-17T00:49:43.179Z</time>
</trkpt>
<trkpt lat="-27.1164068" lon="152.7808025">
<ele>484.447</ele>
<time>2017-05-17T00:49:46.182Z</time>
</trkpt>
<trkpt lat="-27.1167769" lon="152.7803940">
<ele>483.677</ele>
<time>2017-05-17T00:49:48.645Z</time>
</trkpt>
<trkpt lat="-27.1172840" lon="152.7799902">
<ele>483.531</ele>
<time>2017-05-17T00:49:51.646Z</time>
</trkpt>
<trkpt lat="-27.1177467" lon="152.7795456">
<ele>484.225</ele>
<time>2017-05-17T00:49:54.662Z</time>
</trkpt>
<trkpt lat="-27.1180727" lon="152.7792687">
<ele>485.906</ele>
<time>2017-05-17T00:49:56.696Z</time>
</trkpt>
<trkpt lat="-27.1185108" lon="152.7788191">
<ele>488.173</ele>
<time>2017-05-17T00:49:59.670Z</time>
</trkpt>
<trkpt lat="-27.1189165" lon="152.7783651">
<ele>490.289</ele>
<time>2017-05-17T00:50:02.553Z</time>
</trkpt>
<trkpt lat="-27.1191907" lon="152.7780411">
<ele>491.731</ele>
<time>2017-05-17T00:50:04.566Z</time>
</trkpt>
<trkpt lat="-27.1194788" lon="152.7777227">
<ele>492.355</ele>
<time>2017-05-17T00:50:06.627Z</time>
</trkpt>
<trkpt lat="-27.1196913" lon="152.7770577">
<ele>492.352</ele>
<time>2017-05-17T00:50:09.784Z</time>
</trkpt>
<trkpt lat="-27.1198488" lon="152.7766351">
<ele>492.102</ele>
<time>2017-05-17T00:50:11.796Z</time>
</trkpt>
<trkpt lat="-27.1201132" lon="152.7760271">
<ele>492.012</ele>
<time>2017-05-17T00:50:14.822Z</time>
</trkpt>
<trkpt lat="-27.1203116" lon="152.7756496">
<ele>492.529</ele>
<time>2017-05-17T00:50:16.806Z</time>
</trkpt>
<trkpt lat="-27.1205899" lon="152.7753499">
<ele>493.685</ele>
<time>2017-05-17T00:50:18.743Z</time>
</trkpt>
<trkpt lat="-27.1211025" lon="152.7749681">
<ele>494.961</ele>
<time>2017-05-17T00:50:21.775Z</time>
</trkpt>
<trkpt lat="-27.1213960" lon="152.7746706">
<ele>495.983</ele>
<time>2017-05-17T00:50:23.744Z</time>
</trkpt>
<trkpt lat="-27.1218386" lon="152.7742324">
<ele>496.698</ele>
<time>2017-05-17T00:50:26.700Z</time>
</trkpt>
<trkpt lat="-27.1221120" lon="152.7739157">
<ele>497.029</ele>
<time>2017-05-17T00:50:28.636Z</time>
</trkpt>
<trkpt lat="-27.1225469" lon="152.7734330">
<ele>496.986</ele>
<time>2017-05-17T00:50:31.583Z</time>
</trkpt>
<trkpt lat="-27.1228102" lon="152.7730769">
<ele>496.645</ele>
<time>2017-05-17T00:50:33.555Z</time>
</trkpt>
<trkpt lat="-27.1231821" lon="152.7725135">
<ele>496.082</ele>
<time>2017-05-17T00:50:36.606Z</time>
</trkpt>
<trkpt lat="-27.1236185" lon="152.7720781">
<ele>495.473</ele>
<time>2017-05-17T00:50:39.549Z</time>
</trkpt>
<trkpt lat="-27.1241514" lon="152.7718090">
<ele>495.023</ele>
<time>2017-05-17T00:50:42.611Z</time>
</trkpt>
<trkpt lat="-27.1246383" lon="152.7715416">
<ele>494.872</ele>
<time>2017-05-17T00:50:45.578Z</time>
</trkpt>
<trkpt lat="-27.1248953" lon="152.7712685">
<ele>495.027</ele>
<time>2017-05-17T00:50:47.489Z</time>
</trkpt>
<trkpt lat="-27.1250197" lon="152.7708142">
<ele>495.320</ele>
<time>2017-05-17T00:50:49.707Z</time>
</trkpt>
<trkpt lat="-27.1251646" lon="152.7701664">
<ele>495.580</ele>
<time>2017-05-17T00:50:52.839Z</time>
</trkpt>
<trkpt lat="-27.1253264" lon="152.7695878">
<ele>495.696</ele>
<time>2017-05-17T00:50:55.833Z</time>
</trkpt>
<trkpt lat="-27.1257397" lon="152.7692755">
<ele>495.363</ele>
<time>2017-05-17T00:50:58.613Z</time>
</trkpt>
<trkpt lat="-27.1263107" lon="152.7691739">
<ele>494.237</ele>
<time>2017-05-17T00:51:01.765Z</time>
</trkpt>
<trkpt lat="-27.1268834" lon="152.7690957">
<ele>492.513</ele>
<time>2017-05-17T00:51:05.035Z</time>
</trkpt>
<trkpt lat="-27.1273853" lon="152.7689133">
<ele>490.844</ele>
<time>2017-05-17T00:51:08.141Z</time>
</trkpt>
<trkpt lat="-27.1275805" lon="152.7683115">
<ele>489.715</ele>
<time>2017-05-17T00:51:11.396Z</time>
</trkpt>
<trkpt lat="-27.1275651" lon="152.7677007">
<ele>489.491</ele>
<time>2017-05-17T00:51:14.402Z</time>
</trkpt>
<trkpt lat="-27.1274341" lon="152.7672735">
<ele>490.527</ele>
<time>2017-05-17T00:51:16.583Z</time>
</trkpt>
<trkpt lat="-27.1271099" lon="152.7667826">
<ele>492.664</ele>
<time>2017-05-17T00:51:19.457Z</time>
</trkpt>
<trkpt lat="-27.1265633" lon="152.7664170">
<ele>495.420</ele>
<time>2017-05-17T00:51:22.778Z</time>
</trkpt>
<trkpt lat="-27.1262599" lon="152.7661924">
<ele>498.656</ele>
<time>2017-05-17T00:51:24.695Z</time>
</trkpt>
<trkpt lat="-27.1257501" lon="152.7659394">
<ele>502.162</ele>
<time>2017-05-17T00:51:27.703Z</time>
</trkpt>
<trkpt lat="-27.1252179" lon="152.7657832">
<ele>505.521</ele>
<time>2017-05-17T00:51:30.753Z</time>
</trkpt>
<trkpt lat="-27.1247903" lon="152.7654472">
<ele>508.594</ele>
<time>2017-05-17T00:51:33.617Z</time>
</trkpt>
<trkpt lat="-27.1245016" lon="152.7649249">
<ele>511.349</ele>
<time>2017-05-17T00:51:36.536Z</time>
</trkpt>
<trkpt lat="-27.1243319" lon="152.7645411">
<ele>513.745</ele>
<time>2017-05-17T00:51:38.558Z</time>
</trkpt>
<trkpt lat="-27.1242105" lon="152.7641275">
<ele>515.693</ele>
<time>2017-05-17T00:51:40.550Z</time>
</trkpt>
<trkpt lat="-27.1240745" lon="152.7637189">
<ele>516.914</ele>
<time>2017-05-17T00:51:42.515Z</time>
</trkpt>
<trkpt lat="-27.1239124" lon="152.7630438">
<ele>517.323</ele>
<time>2017-05-17T00:51:45.595Z</time>
</trkpt>
<trkpt lat="-27.1239060" lon="152.7625759">
<ele>517.225</ele>
<time>2017-05-17T00:51:47.651Z</time>
</trkpt>
<trkpt lat="-27.1238973" lon="152.7621319">
<ele>517.169</ele>
<time>2017-05-17T00:51:49.605Z</time>
</trkpt>
<trkpt lat="-27.1238066" lon="152.7614612">
<ele>517.653</ele>
<time>2017-05-17T00:51:52.615Z</time>
</trkpt>
<trkpt lat="-27.1237136" lon="152.7607947">
<ele>518.833</ele>
<time>2017-05-17T00:51:55.677Z</time>
</trkpt>
<trkpt lat="-27.1235436" lon="152.7601857">
<ele>520.473</ele>
<time>2017-05-17T00:51:58.588Z</time>
</trkpt>
<trkpt lat="-27.1233516" lon="152.7598054">
<ele>522.035</ele>
<time>2017-05-17T00:52:00.557Z</time>
</trkpt>
<trkpt lat="-27.1230414" lon="152.7592085">
<ele>523.069</ele>
<time>2017-05-17T00:52:03.633Z</time>
</trkpt>
<trkpt lat="-27.1228802" lon="152.7587923">
<ele>523.574</ele>
<time>2017-05-17T00:52:05.681Z</time>
</trkpt>
<trkpt lat="-27.1227511" lon="152.7583614">
<ele>523.761</ele>
<time>2017-05-17T00:52:07.731Z</time>
</trkpt>
<trkpt lat="-27.1224427" lon="152.7577244">
<ele>523.768</ele>
<time>2017-05-17T00:52:10.928Z</time>
</trkpt>
<trkpt lat="-27.1221903" lon="152.7573302">
<ele>523.594</ele>
<time>2017-05-17T00:52:12.998Z</time>
</trkpt>
<trkpt lat="-27.1218502" lon="152.7570346">
<ele>523.210</ele>
<time>2017-05-17T00:52:15.062Z</time>
</trkpt>
<trkpt lat="-27.1212952" lon="152.7566440">
<ele>522.712</ele>
<time>2017-05-17T00:52:18.239Z</time>
</trkpt>
<trkpt lat="-27.1207682" lon="152.7563367">
<ele>522.227</ele>
<time>2017-05-17T00:52:21.168Z</time>
</trkpt>
<trkpt lat="-27.1202618" lon="152.7560111">
<ele>521.833</ele>
<time>2017-05-17T00:52:24.116Z</time>
</trkpt>
<trkpt lat="-27.1199599" lon="152.7557121">
<ele>521.642</ele>
<time>2017-05-17T00:52:26.175Z</time>
</trkpt>
<trkpt lat="-27.1194962" lon="152.7553497">
<ele>521.850</ele>
<time>2017-05-17T00:52:29.036Z</time>
</trkpt>
<trkpt lat="-27.1191357" lon="152.7551379">
<ele>522.741</ele>
<time>2017-05-17T00:52:31.082Z</time>
</trkpt>
<trkpt lat="-27.1186092" lon="152.7548626">
<ele>524.349</ele>
<time>2017-05-17T00:52:33.972Z</time>
</trkpt>
<trkpt lat="-27.1182587" lon="152.7547391">
<ele>526.341</ele>
<time>2017-05-17T00:52:35.777Z</time>
</trkpt>
<trkpt lat="-27.1176067" lon="152.7544987">
<ele>528.315</ele>
<time>2017-05-17T00:52:39.125Z</time>
</trkpt>
<trkpt lat="-27.1170157" lon="152.7542985">
<ele>530.160</ele>
<time>2017-05-17T00:52:42.185Z</time>
</trkpt>
<trkpt lat="-27.1166476" lon="152.7541311">
<ele>532.046</ele>
<time>2017-05-17T00:52:44.140Z</time>
</trkpt>
<trkpt lat="-27.1161817" lon="152.7536910">
<ele>533.948</ele>
<time>2017-05-17T00:52:47.105Z</time>
</trkpt>
<trkpt lat="-27.1157636" lon="152.7531840">
<ele>535.679</ele>
<time>2017-05-17T00:52:50.056Z</time>
</trkpt>
<trkpt lat="-27.1155078" lon="152.7528216">
<ele>537.247</ele>
<time>2017-05-17T00:52:52.025Z</time>
</trkpt>
<trkpt lat="-27.1150274" lon="152.7523659">
<ele>538.582</ele>
<time>2017-05-17T00:52:55.043Z</time>
</trkpt>
<trkpt lat="-27.1146420" lon="152.7521564">
<ele>539.601</ele>
<time>2017-05-17T00:52:57.060Z</time>
</trkpt>
<trkpt lat="-27.1140428" lon="152.7518786">
<ele>540.407</ele>
<time>2017-05-17T00:52:59.990Z</time>
</trkpt>
<trkpt lat="-27.1133342" lon="152.7515786">
<ele>541.070</ele>
<time>2017-05-17T00:53:03.196Z</time>
</trkpt>
<trkpt lat="-27.1126689" lon="152.7513193">
<ele>541.658</ele>
<time>2017-05-17T00:53:06.096Z</time>
</trkpt>
<trkpt lat="-27.1122203" lon="152.7511353">
<ele>542.284</ele>
<time>2017-05-17T00:53:08.079Z</time>
</trkpt>
<trkpt lat="-27.1115796" lon="152.7508203">
<ele>542.863</ele>
<time>2017-05-17T00:53:10.959Z</time>
</trkpt>
<trkpt lat="-27.1111113" lon="152.7506678">
<ele>542.995</ele>
<time>2017-05-17T00:53:12.910Z</time>
</trkpt>
<trkpt lat="-27.1106223" lon="152.7505208">
<ele>542.472</ele>
<time>2017-05-17T00:53:14.972Z</time>
</trkpt>
<trkpt lat="-27.1101327" lon="152.7504361">
<ele>541.691</ele>
<time>2017-05-17T00:53:17.007Z</time>
</trkpt>
<trkpt lat="-27.1094276" lon="152.7504463">
<ele>541.142</ele>
<time>2017-05-17T00:53:19.902Z</time>
</trkpt>
<trkpt lat="-27.1087144" lon="152.7505752">
<ele>540.909</ele>
<time>2017-05-17T00:53:22.763Z</time>
</trkpt>
<trkpt lat="-27.1082210" lon="152.7507152">
<ele>540.983</ele>
<time>2017-05-17T00:53:24.749Z</time>
</trkpt>
<trkpt lat="-27.1077138" lon="152.7507978">
<ele>541.392</ele>
<time>2017-05-17T00:53:26.749Z</time>
</trkpt>
<trkpt lat="-27.1069694" lon="152.7509633">
<ele>541.942</ele>
<time>2017-05-17T00:53:29.732Z</time>
</trkpt>
<trkpt lat="-27.1064820" lon="152.7510949">
<ele>542.208</ele>
<time>2017-05-17T00:53:31.736Z</time>
</trkpt>
<trkpt lat="-27.1059865" lon="152.7511676">
<ele>542.030</ele>
<time>2017-05-17T00:53:33.745Z</time>
</trkpt>
<trkpt lat="-27.1052621" lon="152.7513259">
<ele>541.552</ele>
<time>2017-05-17T00:53:36.727Z</time>
</trkpt>
<trkpt lat="-27.1047748" lon="152.7514144">
<ele>540.761</ele>
<time>2017-05-17T00:53:38.717Z</time>
</trkpt>
<trkpt lat="-27.1040416" lon="152.7515468">
<ele>539.667</ele>
<time>2017-05-17T00:53:41.694Z</time>
</trkpt>
<trkpt lat="-27.1033016" lon="152.7513960">
<ele>538.494</ele>
<time>2017-05-17T00:53:44.694Z</time>
</trkpt>
<trkpt lat="-27.1025771" lon="152.7511323">
<ele>537.325</ele>
<time>2017-05-17T00:53:47.754Z</time>
</trkpt>
<trkpt lat="-27.1020891" lon="152.7509946">
<ele>536.002</ele>
<time>2017-05-17T00:53:49.778Z</time>
</trkpt>
<trkpt lat="-27.1014875" lon="152.7505333">
<ele>534.376</ele>
<time>2017-05-17T00:53:52.660Z</time>
</trkpt>
<trkpt lat="-27.1009219" lon="152.7498421">
<ele>532.259</ele>
<time>2017-05-17T00:53:55.881Z</time>
</trkpt>
<trkpt lat="-27.1006209" lon="152.7493636">
<ele>529.659</ele>
<time>2017-05-17T00:53:57.925Z</time>
</trkpt>
<trkpt lat="-27.1002355" lon="152.7489496">
<ele>527.244</ele>
<time>2017-05-17T00:54:00.042Z</time>
</trkpt>
<trkpt lat="-27.0996013" lon="152.7485556">
<ele>525.827</ele>
<time>2017-05-17T00:54:02.958Z</time>
</trkpt>
<trkpt lat="-27.0989242" lon="152.7482629">
<ele>525.527</ele>
<time>2017-05-17T00:54:05.875Z</time>
</trkpt>
<trkpt lat="-27.0981935" lon="152.7481610">
<ele>525.960</ele>
<time>2017-05-17T00:54:08.810Z</time>
</trkpt>
<trkpt lat="-27.0974472" lon="152.7482728">
<ele>526.646</ele>
<time>2017-05-17T00:54:11.783Z</time>
</trkpt>
<trkpt lat="-27.0967108" lon="152.7484353">
<ele>527.171</ele>
<time>2017-05-17T00:54:14.763Z</time>
</trkpt>
<trkpt lat="-27.0962176" lon="152.7485407">
<ele>527.367</ele>
<time>2017-05-17T00:54:16.791Z</time>
</trkpt>
<trkpt lat="-27.0957404" lon="152.7486654">
<ele>527.336</ele>
<time>2017-05-17T00:54:18.787Z</time>
</trkpt>
<trkpt lat="-27.0950044" lon="152.7487428">
<ele>527.309</ele>
<time>2017-05-17T00:54:21.840Z</time>
</trkpt>
<trkpt lat="-27.0942780" lon="152.7487057">
<ele>527.770</ele>
<time>2017-05-17T00:54:24.832Z</time>
</trkpt>
<trkpt lat="-27.0938573" lon="152.7485281">
<ele>529.360</ele>
<time>2017-05-17T00:54:26.656Z</time>
</trkpt>
<trkpt lat="-27.0932307" lon="152.7480829">
<ele>532.060</ele>
<time>2017-05-17T00:54:29.631Z</time>
</trkpt>
<trkpt lat="-27.0926270" lon="152.7475792">
<ele>535.289</ele>
<time>2017-05-17T00:54:32.669Z</time>
</trkpt>
<trkpt lat="-27.0922548" lon="152.7472206">
<ele>538.681</ele>
<time>2017-05-17T00:54:34.672Z</time>
</trkpt>
<trkpt lat="-27.0916523" lon="152.7467771">
<ele>541.836</ele>
<time>2017-05-17T00:54:37.640Z</time>
</trkpt>
<trkpt lat="-27.0911855" lon="152.7466398">
<ele>544.426</ele>
<time>2017-05-17T00:54:39.616Z</time>
</trkpt>
<trkpt lat="-27.0906862" lon="152.7466540">
<ele>546.659</ele>
<time>2017-05-17T00:54:41.657Z</time>
</trkpt>
<trkpt lat="-27.0899434" lon="152.7467930">
<ele>548.838</ele>
<time>2017-05-17T00:54:44.726Z</time>
</trkpt>
<trkpt lat="-27.0892972" lon="152.7471580">
<ele>551.270</ele>
<time>2017-05-17T00:54:47.646Z</time>
</trkpt>
<trkpt lat="-27.0889027" lon="152.7474897">
<ele>554.253</ele>
<time>2017-05-17T00:54:49.620Z</time>
</trkpt>
<trkpt lat="-27.0884198" lon="152.7481337">
<ele>557.403</ele>
<time>2017-05-17T00:54:52.603Z</time>
</trkpt>
<trkpt lat="-27.0882144" lon="152.7486386">
<ele>560.061</ele>
<time>2017-05-17T00:54:54.562Z</time>
</trkpt>
<trkpt lat="-27.0880094" lon="152.7494469">
<ele>561.995</ele>
<time>2017-05-17T00:54:57.508Z</time>
</trkpt>
<trkpt lat="-27.0878123" lon="152.7502643">
<ele>563.154</ele>
<time>2017-05-17T00:55:00.470Z</time>
</trkpt>
<trkpt lat="-27.0876259" lon="152.7510832">
<ele>563.307</ele>
<time>2017-05-17T00:55:03.416Z</time>
</trkpt>
<trkpt lat="-27.0874425" lon="152.7519010">
<ele>561.992</ele>
<time>2017-05-17T00:55:06.309Z</time>
</trkpt>
<trkpt lat="-27.0872856" lon="152.7524601">
<ele>558.473</ele>
<time>2017-05-17T00:55:08.317Z</time>
</trkpt>
<trkpt lat="-27.0871284" lon="152.7530149">
<ele>552.962</ele>
<time>2017-05-17T00:55:10.322Z</time>
</trkpt>
<trkpt lat="-27.0869746" lon="152.7535604">
<ele>547.220</ele>
<time>2017-05-17T00:55:12.294Z</time>
</trkpt>
<trkpt lat="-27.0866632" lon="152.7543444">
<ele>542.833</ele>
<time>2017-05-17T00:55:15.249Z</time>
</trkpt>
<trkpt lat="-27.0863752" lon="152.7548265">
<ele>539.417</ele>
<time>2017-05-17T00:55:17.266Z</time>
</trkpt>
<trkpt lat="-27.0861293" lon="152.7553139">
<ele>535.729</ele>
<time>2017-05-17T00:55:19.221Z</time>
</trkpt>
<trkpt lat="-27.0858417" lon="152.7560997">
<ele>531.376</ele>
<time>2017-05-17T00:55:22.234Z</time>
</trkpt>
<trkpt lat="-27.0857379" lon="152.7566363">
<ele>526.493</ele>
<time>2017-05-17T00:55:24.193Z</time>
</trkpt>
<trkpt lat="-27.0855510" lon="152.7574405">
<ele>521.628</ele>
<time>2017-05-17T00:55:27.139Z</time>
</trkpt>
<trkpt lat="-27.0851616" lon="152.7581623">
<ele>517.883</ele>
<time>2017-05-17T00:55:30.139Z</time>
</trkpt>
<trkpt lat="-27.0848151" lon="152.7585497">
<ele>515.699</ele>
<time>2017-05-17T00:55:32.134Z</time>
</trkpt>
<trkpt lat="-27.0844533" lon="152.7589168">
<ele>514.629</ele>
<time>2017-05-17T00:55:34.158Z</time>
</trkpt>
<trkpt lat="-27.0839569" lon="152.7594623">
<ele>513.973</ele>
<time>2017-05-17T00:55:37.306Z</time>
</trkpt>
<trkpt lat="-27.0836685" lon="152.7598195">
<ele>512.651</ele>
<time>2017-05-17T00:55:39.466Z</time>
</trkpt>
<trkpt lat="-27.0834184" lon="152.7601447">
<ele>510.095</ele>
<time>2017-05-17T00:55:41.487Z</time>
</trkpt>
<trkpt lat="-27.0829577" lon="152.7603987">
<ele>506.847</ele>
<time>2017-05-17T00:55:44.448Z</time>
</trkpt>
<trkpt lat="-27.0826304" lon="152.7605180">
<ele>503.937</ele>
<time>2017-05-17T00:55:46.525Z</time>
</trkpt>
<trkpt lat="-27.0823797" lon="152.7607561">
<ele>501.707</ele>
<time>2017-05-17T00:55:48.479Z</time>
</trkpt>
<trkpt lat="-27.0822613" lon="152.7613029">
<ele>499.859</ele>
<time>2017-05-17T00:55:51.172Z</time>
</trkpt>
<trkpt lat="-27.0823458" lon="152.7617394">
<ele>498.395</ele>
<time>2017-05-17T00:55:53.204Z</time>
</trkpt>
<trkpt lat="-27.0824160" lon="152.7624029">
<ele>497.717</ele>
<time>2017-05-17T00:55:56.204Z</time>
</trkpt>
<trkpt lat="-27.0823689" lon="152.7630491">
<ele>497.950</ele>
<time>2017-05-17T00:55:59.064Z</time>
</trkpt>
<trkpt lat="-27.0819818" lon="152.7635744">
<ele>498.903</ele>
<time>2017-05-17T00:56:01.968Z</time>
</trkpt>
<trkpt lat="-27.0815076" lon="152.7640992">
<ele>500.283</ele>
<time>2017-05-17T00:56:05.219Z</time>
</trkpt>
<trkpt lat="-27.0812921" lon="152.7644542">
<ele>502.069</ele>
<time>2017-05-17T00:56:07.111Z</time>
</trkpt>
<trkpt lat="-27.0811173" lon="152.7648298">
<ele>504.143</ele>
<time>2017-05-17T00:56:08.966Z</time>
</trkpt>
<trkpt lat="-27.0810170" lon="152.7655444">
<ele>505.840</ele>
<time>2017-05-17T00:56:12.013Z</time>
</trkpt>
<trkpt lat="-27.0809898" lon="152.7662632">
<ele>506.534</ele>
<time>2017-05-17T00:56:15.082Z</time>
</trkpt>
<trkpt lat="-27.0809593" lon="152.7667340">
<ele>506.272</ele>
<time>2017-05-17T00:56:17.188Z</time>
</trkpt>
<trkpt lat="-27.0809217" lon="152.7673595">
<ele>505.516</ele>
<time>2017-05-17T00:56:20.475Z</time>
</trkpt>
<trkpt lat="-27.0809288" lon="152.7677221">
<ele>504.659</ele>
<time>2017-05-17T00:56:22.616Z</time>
</trkpt>
<trkpt lat="-27.0809183" lon="152.7680406">
<ele>503.918</ele>
<time>2017-05-17T00:56:24.538Z</time>
</trkpt>
<trkpt lat="-27.0809033" lon="152.7683508">
<ele>503.455</ele>
<time>2017-05-17T00:56:26.401Z</time>
</trkpt>
<trkpt lat="-27.0808902" lon="152.7688556">
<ele>503.319</ele>
<time>2017-05-17T00:56:29.340Z</time>
</trkpt>
<trkpt lat="-27.0808716" lon="152.7691966">
<ele>503.409</ele>
<time>2017-05-17T00:56:31.383Z</time>
</trkpt>
<trkpt lat="-27.0808626" lon="152.7695358">
<ele>503.410</ele>
<time>2017-05-17T00:56:33.534Z</time>
</trkpt>
<trkpt lat="-27.0807500" lon="152.7699808">
<ele>502.957</ele>
<time>2017-05-17T00:56:37.671Z</time>
</trkpt>
<trkpt lat="-27.0806118" lon="152.7701105">
<ele>501.838</ele>
<time>2017-05-17T00:56:40.090Z</time>
</trkpt>
<trkpt lat="-27.0805074" lon="152.7701984">
<ele>500.085</ele>
<time>2017-05-17T00:56:41.796Z</time>
</trkpt>
<trkpt lat="-27.0803008" lon="152.7701960">
<ele>498.002</ele>
<time>2017-05-17T00:56:44.085Z</time>
</trkpt>
<trkpt lat="-27.0801372" lon="152.7702595">
<ele>495.965</ele>
<time>2017-05-17T00:56:45.800Z</time>
</trkpt>
<trkpt lat="-27.0798709" lon="152.7704321">
<ele>494.283</ele>
<time>2017-05-17T00:56:48.480Z</time>
</trkpt>
<trkpt lat="-27.0795034" lon="152.7704730">
<ele>493.133</ele>
<time>2017-05-17T00:56:51.139Z</time>
</trkpt>
<trkpt lat="-27.0792513" lon="152.7702858">
<ele>492.330</ele>
<time>2017-05-17T00:56:53.106Z</time>
</trkpt>
<trkpt lat="-27.0787016" lon="152.7699427">
<ele>491.583</ele>
<time>2017-05-17T00:56:56.625Z</time>
</trkpt>
<trkpt lat="-27.0784072" lon="152.7697638">
<ele>490.645</ele>
<time>2017-05-17T00:56:58.440Z</time>
</trkpt>
<trkpt lat="-27.0778729" lon="152.7695826">
<ele>489.231</ele>
<time>2017-05-17T00:57:01.394Z</time>
</trkpt>
<trkpt lat="-27.0774934" lon="152.7695661">
<ele>487.066</ele>
<time>2017-05-17T00:57:03.394Z</time>
</trkpt>
<trkpt lat="-27.0769302" lon="152.7695626">
<ele>484.237</ele>
<time>2017-05-17T00:57:06.378Z</time>
</trkpt>
<trkpt lat="-27.0763681" lon="152.7695511">
<ele>481.411</ele>
<time>2017-05-17T00:57:09.396Z</time>
</trkpt>
<trkpt lat="-27.0760173" lon="152.7695421">
<ele>479.333</ele>
<time>2017-05-17T00:57:11.251Z</time>
</trkpt>
<trkpt lat="-27.0756407" lon="152.7695574">
<ele>478.224</ele>
<time>2017-05-17T00:57:13.225Z</time>
</trkpt>
<trkpt lat="-27.0752675" lon="152.7696969">
<ele>477.985</ele>
<time>2017-05-17T00:57:15.298Z</time>
</trkpt>
<trkpt lat="-27.0749030" lon="152.7698139">
<ele>478.297</ele>
<time>2017-05-17T00:57:17.307Z</time>
</trkpt>
<trkpt lat="-27.0743549" lon="152.7698942">
<ele>478.603</ele>
<time>2017-05-17T00:57:20.250Z</time>
</trkpt>
<trkpt lat="-27.0739914" lon="152.7698256">
<ele>478.294</ele>
<time>2017-05-17T00:57:22.209Z</time>
</trkpt>
<trkpt lat="-27.0736668" lon="152.7695603">
<ele>477.237</ele>
<time>2017-05-17T00:57:24.444Z</time>
</trkpt>
<trkpt lat="-27.0733894" lon="152.7692970">
<ele>475.964</ele>
<time>2017-05-17T00:57:26.561Z</time>
</trkpt>
<trkpt lat="-27.0729255" lon="152.7690699">
<ele>474.961</ele>
<time>2017-05-17T00:57:29.645Z</time>
</trkpt>
<trkpt lat="-27.0726164" lon="152.7690761">
<ele>474.125</ele>
<time>2017-05-17T00:57:31.492Z</time>
</trkpt>
<trkpt lat="-27.0721079" lon="152.7692191">
<ele>473.341</ele>
<time>2017-05-17T00:57:34.580Z</time>
</trkpt>
<trkpt lat="-27.0716137" lon="152.7693453">
<ele>472.763</ele>
<time>2017-05-17T00:57:37.729Z</time>
</trkpt>
<trkpt lat="-27.0713237" lon="152.7693282">
<ele>472.365</ele>
<time>2017-05-17T00:57:39.488Z</time>
</trkpt>
<trkpt lat="-27.0709320" lon="152.7690497">
<ele>471.873</ele>
<time>2017-05-17T00:57:42.059Z</time>
</trkpt>
<trkpt lat="-27.0706365" lon="152.7687859">
<ele>471.086</ele>
<time>2017-05-17T00:57:44.040Z</time>
</trkpt>
<trkpt lat="-27.0703249" lon="152.7685474">
<ele>469.971</ele>
<time>2017-05-17T00:57:45.977Z</time>
</trkpt>
<trkpt lat="-27.0697361" lon="152.7684050">
<ele>468.568</ele>
<time>2017-05-17T00:57:48.983Z</time>
</trkpt>
<trkpt lat="-27.0691011" lon="152.7683383">
<ele>466.886</ele>
<time>2017-05-17T00:57:52.213Z</time>
</trkpt>
<trkpt lat="-27.0687121" lon="152.7682773">
<ele>465.221</ele>
<time>2017-05-17T00:57:54.237Z</time>
</trkpt>
<trkpt lat="-27.0681589" lon="152.7681612">
<ele>464.250</ele>
<time>2017-05-17T00:57:57.181Z</time>
</trkpt>
<trkpt lat="-27.0676205" lon="152.7679744">
<ele>464.496</ele>
<time>2017-05-17T00:58:00.088Z</time>
</trkpt>
<trkpt lat="-27.0673105" lon="152.7676992">
<ele>465.892</ele>
<time>2017-05-17T00:58:02.060Z</time>
</trkpt>
<trkpt lat="-27.0669271" lon="152.7674737">
<ele>467.808</ele>
<time>2017-05-17T00:58:04.185Z</time>
</trkpt>
<trkpt lat="-27.0663656" lon="152.7671868">
<ele>469.593</ele>
<time>2017-05-17T00:58:07.243Z</time>
</trkpt>
<trkpt lat="-27.0660132" lon="152.7669945">
<ele>470.969</ele>
<time>2017-05-17T00:58:09.258Z</time>
</trkpt>
<trkpt lat="-27.0657102" lon="152.7667641">
<ele>471.800</ele>
<time>2017-05-17T00:58:11.148Z</time>
</trkpt>
<trkpt lat="-27.0651592" lon="152.7667747">
<ele>471.996</ele>
<time>2017-05-17T00:58:13.838Z</time>
</trkpt>
<trkpt lat="-27.0645143" lon="152.7669067">
<ele>471.545</ele>
<time>2017-05-17T00:58:16.847Z</time>
</trkpt>
<trkpt lat="-27.0638659" lon="152.7669658">
<ele>470.675</ele>
<time>2017-05-17T00:58:19.788Z</time>
</trkpt>
<trkpt lat="-27.0631974" lon="152.7669739">
<ele>469.884</ele>
<time>2017-05-17T00:58:22.865Z</time>
</trkpt>
<trkpt lat="-27.0625777" lon="152.7670756">
<ele>469.623</ele>
<time>2017-05-17T00:58:26.010Z</time>
</trkpt>
<trkpt lat="-27.0620512" lon="152.7672371">
<ele>469.902</ele>
<time>2017-05-17T00:58:29.184Z</time>
</trkpt>
<trkpt lat="-27.0615856" lon="152.7673166">
<ele>470.213</ele>
<time>2017-05-17T00:58:32.176Z</time>
</trkpt>
<trkpt lat="-27.0611292" lon="152.7673366">
<ele>470.056</ele>
<time>2017-05-17T00:58:35.186Z</time>
</trkpt>
<trkpt lat="-27.0608347" lon="152.7673395">
<ele>469.465</ele>
<time>2017-05-17T00:58:37.136Z</time>
</trkpt>
<trkpt lat="-27.0604016" lon="152.7672363">
<ele>468.791</ele>
<time>2017-05-17T00:58:40.029Z</time>
</trkpt>
<trkpt lat="-27.0601216" lon="152.7671087">
<ele>468.316</ele>
<time>2017-05-17T00:58:41.996Z</time>
</trkpt>
<trkpt lat="-27.0597010" lon="152.7669151">
<ele>468.114</ele>
<time>2017-05-17T00:58:45.073Z</time>
</trkpt>
<trkpt lat="-27.0594439" lon="152.7667769">
<ele>468.086</ele>
<time>2017-05-17T00:58:47.160Z</time>
</trkpt>
<trkpt lat="-27.0592044" lon="152.7666427">
<ele>468.049</ele>
<time>2017-05-17T00:58:49.188Z</time>
</trkpt>
<trkpt lat="-27.0589666" lon="152.7666074">
<ele>467.874</ele>
<time>2017-05-17T00:58:51.000Z</time>
</trkpt>
<trkpt lat="-27.0585607" lon="152.7667834">
<ele>467.551</ele>
<time>2017-05-17T00:58:53.953Z</time>
</trkpt>
<trkpt lat="-27.0581344" lon="152.7669621">
<ele>467.132</ele>
<time>2017-05-17T00:58:56.904Z</time>
</trkpt>
<trkpt lat="-27.0577073" lon="152.7671367">
<ele>466.641</ele>
<time>2017-05-17T00:58:59.835Z</time>
</trkpt>
<trkpt lat="-27.0574236" lon="152.7672178">
<ele>466.147</ele>
<time>2017-05-17T00:59:01.717Z</time>
</trkpt>
<trkpt lat="-27.0569957" lon="152.7674039">
<ele>465.739</ele>
<time>2017-05-17T00:59:04.620Z</time>
</trkpt>
<trkpt lat="-27.0567059" lon="152.7675343">
<ele>465.320</ele>
<time>2017-05-17T00:59:06.539Z</time>
</trkpt>
<trkpt lat="-27.0564019" lon="152.7676608">
<ele>464.715</ele>
<time>2017-05-17T00:59:08.471Z</time>
</trkpt>
<trkpt lat="-27.0560689" lon="152.7677238">
<ele>463.901</ele>
<time>2017-05-17T00:59:10.431Z</time>
</trkpt>
<trkpt lat="-27.0555603" lon="152.7679276">
<ele>462.832</ele>
<time>2017-05-17T00:59:13.463Z</time>
</trkpt>
<trkpt lat="-27.0550782" lon="152.7681934">
<ele>461.130</ele>
<time>2017-05-17T00:59:16.394Z</time>
</trkpt>
<trkpt lat="-27.0547392" lon="152.7683367">
<ele>458.343</ele>
<time>2017-05-17T00:59:18.337Z</time>
</trkpt>
<trkpt lat="-27.0542234" lon="152.7685844">
<ele>454.705</ele>
<time>2017-05-17T00:59:21.311Z</time>
</trkpt>
<trkpt lat="-27.0538654" lon="152.7687039">
<ele>450.800</ele>
<time>2017-05-17T00:59:23.276Z</time>
</trkpt>
<trkpt lat="-27.0533276" lon="152.7688833">
<ele>446.972</ele>
<time>2017-05-17T00:59:26.239Z</time>
</trkpt>
<trkpt lat="-27.0529699" lon="152.7689631">
<ele>443.529</ele>
<time>2017-05-17T00:59:28.181Z</time>
</trkpt>
<trkpt lat="-27.0526019" lon="152.7689595">
<ele>440.770</ele>
<time>2017-05-17T00:59:30.134Z</time>
</trkpt>
<trkpt lat="-27.0520391" lon="152.7689408">
<ele>438.650</ele>
<time>2017-05-17T00:59:33.121Z</time>
</trkpt>
<trkpt lat="-27.0514995" lon="152.7690921">
<ele>437.142</ele>
<time>2017-05-17T00:59:36.198Z</time>
</trkpt>
<trkpt lat="-27.0511799" lon="152.7691871">
<ele>436.497</ele>
<time>2017-05-17T00:59:38.192Z</time>
</trkpt>
<trkpt lat="-27.0508738" lon="152.7692854">
<ele>436.934</ele>
<time>2017-05-17T00:59:40.125Z</time>
</trkpt>
<trkpt lat="-27.0504965" lon="152.7696244">
<ele>438.286</ele>
<time>2017-05-17T00:59:43.061Z</time>
</trkpt>
<trkpt lat="-27.0501981" lon="152.7700437">
<ele>440.444</ele>
<time>2017-05-17T00:59:46.129Z</time>
</trkpt>
<trkpt lat="-27.0500627" lon="152.7703231">
<ele>443.419</ele>
<time>2017-05-17T00:59:48.273Z</time>
</trkpt>
<trkpt lat="-27.0499340" lon="152.7706795">
<ele>446.653</ele>
<time>2017-05-17T00:59:51.646Z</time>
</trkpt>
<trkpt lat="-27.0498309" lon="152.7708665">
<ele>449.108</ele>
<time>2017-05-17T00:59:55.193Z</time>
</trkpt>
<trkpt lat="-27.0499243" lon="152.7708937">
<ele>450.289</ele>
<time>2017-05-17T00:59:57.190Z</time>
</trkpt>
<trkpt lat="-27.0500328" lon="152.7709051">
<ele>450.447</ele>
<time>2017-05-17T00:59:58.337Z</time>
</trkpt>
<trkpt lat="-27.0503992" lon="152.7709103">
<ele>450.107</ele>
<time>2017-05-17T01:00:01.288Z</time>
</trkpt>
<trkpt lat="-27.0510320" lon="152.7710412">
<ele>449.985</ele>
<time>2017-05-17T01:00:04.723Z</time>
</trkpt>
<trkpt lat="-27.0515166" lon="152.7714099">
<ele>451.023</ele>
<time>2017-05-17T01:00:07.100Z</time>
</trkpt>
<trkpt lat="-27.0520714" lon="152.7720401">
<ele>453.382</ele>
<time>2017-05-17T01:00:10.153Z</time>
</trkpt>
<trkpt lat="-27.0524522" lon="152.7724150">
<ele>455.852</ele>
<time>2017-05-17T01:00:12.093Z</time>
</trkpt>
<trkpt lat="-27.0528435" lon="152.7727682">
<ele>457.123</ele>
<time>2017-05-17T01:00:14.041Z</time>
</trkpt>
<trkpt lat="-27.0532233" lon="152.7731342">
<ele>457.021</ele>
<time>2017-05-17T01:00:16.039Z</time>
</trkpt>
<trkpt lat="-27.0538344" lon="152.7735832">
<ele>456.179</ele>
<time>2017-05-17T01:00:18.942Z</time>
</trkpt>
<trkpt lat="-27.0545521" lon="152.7738419">
<ele>455.010</ele>
<time>2017-05-17T01:00:21.882Z</time>
</trkpt>
<trkpt lat="-27.0550598" lon="152.7739282">
<ele>453.556</ele>
<time>2017-05-17T01:00:23.871Z</time>
</trkpt>
<trkpt lat="-27.0555495" lon="152.7740775">
<ele>452.204</ele>
<time>2017-05-17T01:00:25.849Z</time>
</trkpt>
<trkpt lat="-27.0560515" lon="152.7741643">
<ele>451.483</ele>
<time>2017-05-17T01:00:27.845Z</time>
</trkpt>
<trkpt lat="-27.0567794" lon="152.7743678">
<ele>451.399</ele>
<time>2017-05-17T01:00:30.813Z</time>
</trkpt>
<trkpt lat="-27.0575104" lon="152.7745557">
<ele>451.705</ele>
<time>2017-05-17T01:00:33.833Z</time>
</trkpt>
<trkpt lat="-27.0579663" lon="152.7746705">
<ele>452.255</ele>
<time>2017-05-17T01:00:35.810Z</time>
</trkpt>
<trkpt lat="-27.0583874" lon="152.7748148">
<ele>452.851</ele>
<time>2017-05-17T01:00:37.750Z</time>
</trkpt>
<trkpt lat="-27.0589340" lon="152.7751631">
<ele>453.223</ele>
<time>2017-05-17T01:00:40.517Z</time>
</trkpt>
<trkpt lat="-27.0592818" lon="152.7755521">
<ele>453.314</ele>
<time>2017-05-17T01:00:42.640Z</time>
</trkpt>
<trkpt lat="-27.0595728" lon="152.7759505">
<ele>453.403</ele>
<time>2017-05-17T01:00:44.609Z</time>
</trkpt>
<trkpt lat="-27.0598733" lon="152.7763557">
<ele>453.892</ele>
<time>2017-05-17T01:00:46.581Z</time>
</trkpt>
<trkpt lat="-27.0603387" lon="152.7769956">
<ele>454.975</ele>
<time>2017-05-17T01:00:49.615Z</time>
</trkpt>
<trkpt lat="-27.0606249" lon="152.7774356">
<ele>456.597</ele>
<time>2017-05-17T01:00:51.595Z</time>
</trkpt>
<trkpt lat="-27.0609316" lon="152.7778498">
<ele>458.435</ele>
<time>2017-05-17T01:00:53.543Z</time>
</trkpt>
<trkpt lat="-27.0614347" lon="152.7784596">
<ele>459.975</ele>
<time>2017-05-17T01:00:56.540Z</time>
</trkpt>
<trkpt lat="-27.0619897" lon="152.7790080">
<ele>461.204</ele>
<time>2017-05-17T01:00:59.576Z</time>
</trkpt>
<trkpt lat="-27.0623420" lon="152.7793203">
<ele>462.651</ele>
<time>2017-05-17T01:01:01.544Z</time>
</trkpt>
<trkpt lat="-27.0626545" lon="152.7796200">
<ele>464.475</ele>
<time>2017-05-17T01:01:03.455Z</time>
</trkpt>
<trkpt lat="-27.0629592" lon="152.7799214">
<ele>466.359</ele>
<time>2017-05-17T01:01:05.405Z</time>
</trkpt>
<trkpt lat="-27.0634525" lon="152.7803237">
<ele>468.165</ele>
<time>2017-05-17T01:01:08.397Z</time>
</trkpt>
<trkpt lat="-27.0639443" lon="152.7806564">
<ele>470.202</ele>
<time>2017-05-17T01:01:11.327Z</time>
</trkpt>
<trkpt lat="-27.0642804" lon="152.7808041">
<ele>472.790</ele>
<time>2017-05-17T01:01:13.319Z</time>
</trkpt>
<trkpt lat="-27.0647568" lon="152.7808398">
<ele>475.618</ele>
<time>2017-05-17T01:01:16.206Z</time>
</trkpt>
<trkpt lat="-27.0651354" lon="152.7808643">
<ele>478.148</ele>
<time>2017-05-17T01:01:19.199Z</time>
</trkpt>
<trkpt lat="-27.0652279" lon="152.7809343">
<ele>480.153</ele>
<time>2017-05-17T01:01:20.410Z</time>
</trkpt>
<trkpt lat="-27.0651953" lon="152.7810469">
<ele>481.438</ele>
<time>2017-05-17T01:01:22.149Z</time>
</trkpt>
<trkpt lat="-27.0652809" lon="152.7811259">
<ele>481.921</ele>
<time>2017-05-17T01:01:25.073Z</time>
</trkpt>
<trkpt lat="-27.0654112" lon="152.7810335">
<ele>481.903</ele>
<time>2017-05-17T01:01:29.118Z</time>
</trkpt>
<trkpt lat="-27.0655181" lon="152.7809743">
<ele>481.747</ele>
<time>2017-05-17T01:01:32.000Z</time>
</trkpt>
<trkpt lat="-27.0655181" lon="152.7809743">
<ele>481.636</ele>
<time>2017-05-17T01:01:37.000Z</time>
</trkpt>
<trkpt lat="-27.0655181" lon="152.7809743">
<ele>481.538</ele>
<time>2017-05-17T01:01:37.100Z</time>
</trkpt>
<trkpt lat="-27.0657240" lon="152.7809733">
<ele>481.386</ele>
<time>2017-05-17T01:18:13.999Z</time>
</trkpt>
<trkpt lat="-27.0657240" lon="152.7809733">
<ele>481.224</ele>
<time>2017-05-17T01:18:16.999Z</time>
</trkpt>
<trkpt lat="-27.0657240" lon="152.7809733">
<ele>481.083</ele>
<time>2017-05-17T01:18:22.208Z</time>
</trkpt>
<trkpt lat="-27.0655122" lon="152.7809379">
<ele>480.943</ele>
<time>2017-05-17T01:18:34.590Z</time>
</trkpt>
<trkpt lat="-27.0654060" lon="152.7809887">
<ele>481.152</ele>
<time>2017-05-17T01:18:38.419Z</time>
</trkpt>
<trkpt lat="-27.0652945" lon="152.7810287">
<ele>481.920</ele>
<time>2017-05-17T01:18:42.870Z</time>
</trkpt>
<trkpt lat="-27.0652208" lon="152.7809304">
<ele>482.664</ele>
<time>2017-05-17T01:18:47.411Z</time>
</trkpt>
<trkpt lat="-27.0653123" lon="152.7808995">
<ele>482.855</ele>
<time>2017-05-17T01:18:49.089Z</time>
</trkpt>
<trkpt lat="-27.0657027" lon="152.7808697">
<ele>482.797</ele>
<time>2017-05-17T01:18:52.824Z</time>
</trkpt>
<trkpt lat="-27.0661634" lon="152.7808563">
<ele>483.251</ele>
<time>2017-05-17T01:18:55.990Z</time>
</trkpt>
<trkpt lat="-27.0666164" lon="152.7809488">
<ele>484.936</ele>
<time>2017-05-17T01:18:58.939Z</time>
</trkpt>
<trkpt lat="-27.0669439" lon="152.7810229">
<ele>487.828</ele>
<time>2017-05-17T01:19:00.885Z</time>
</trkpt>
<trkpt lat="-27.0674900" lon="152.7811114">
<ele>491.114</ele>
<time>2017-05-17T01:19:03.991Z</time>
</trkpt>
<trkpt lat="-27.0680294" lon="152.7812123">
<ele>494.116</ele>
<time>2017-05-17T01:19:06.904Z</time>
</trkpt>
<trkpt lat="-27.0686657" lon="152.7812629">
<ele>496.674</ele>
<time>2017-05-17T01:19:10.129Z</time>
</trkpt>
<trkpt lat="-27.0692601" lon="152.7813623">
<ele>498.714</ele>
<time>2017-05-17T01:19:13.141Z</time>
</trkpt>
<trkpt lat="-27.0696294" lon="152.7814797">
<ele>500.042</ele>
<time>2017-05-17T01:19:15.098Z</time>
</trkpt>
<trkpt lat="-27.0700156" lon="152.7815765">
<ele>500.528</ele>
<time>2017-05-17T01:19:17.097Z</time>
</trkpt>
<trkpt lat="-27.0704121" lon="152.7816292">
<ele>500.268</ele>
<time>2017-05-17T01:19:19.087Z</time>
</trkpt>
<trkpt lat="-27.0708194" lon="152.7816772">
<ele>499.509</ele>
<time>2017-05-17T01:19:21.118Z</time>
</trkpt>
<trkpt lat="-27.0712167" lon="152.7816048">
<ele>498.499</ele>
<time>2017-05-17T01:19:23.145Z</time>
</trkpt>
<trkpt lat="-27.0717869" lon="152.7815868">
<ele>497.520</ele>
<time>2017-05-17T01:19:26.037Z</time>
</trkpt>
<trkpt lat="-27.0721728" lon="152.7816899">
<ele>496.616</ele>
<time>2017-05-17T01:19:28.082Z</time>
</trkpt>
<trkpt lat="-27.0726942" lon="152.7818948">
<ele>495.447</ele>
<time>2017-05-17T01:19:31.060Z</time>
</trkpt>
<trkpt lat="-27.0731788" lon="152.7819950">
<ele>493.342</ele>
<time>2017-05-17T01:19:33.790Z</time>
</trkpt>
<trkpt lat="-27.0735681" lon="152.7820070">
<ele>489.742</ele>
<time>2017-05-17T01:19:35.796Z</time>
</trkpt>
<trkpt lat="-27.0741646" lon="152.7818739">
<ele>485.289</ele>
<time>2017-05-17T01:19:38.791Z</time>
</trkpt>
<trkpt lat="-27.0748826" lon="152.7818284">
<ele>481.422</ele>
<time>2017-05-17T01:19:42.233Z</time>
</trkpt>
<trkpt lat="-27.0752444" lon="152.7818973">
<ele>478.732</ele>
<time>2017-05-17T01:19:43.995Z</time>
</trkpt>
<trkpt lat="-27.0756486" lon="152.7819617">
<ele>477.044</ele>
<time>2017-05-17T01:19:45.983Z</time>
</trkpt>
<trkpt lat="-27.0760358" lon="152.7819936">
<ele>476.106</ele>
<time>2017-05-17T01:19:47.882Z</time>
</trkpt>
<trkpt lat="-27.0766425" lon="152.7819649">
<ele>475.552</ele>
<time>2017-05-17T01:19:50.833Z</time>
</trkpt>
<trkpt lat="-27.0770294" lon="152.7818077">
<ele>475.051</ele>
<time>2017-05-17T01:19:52.809Z</time>
</trkpt>
<trkpt lat="-27.0775693" lon="152.7814550">
<ele>474.565</ele>
<time>2017-05-17T01:19:55.807Z</time>
</trkpt>
<trkpt lat="-27.0778852" lon="152.7811617">
<ele>474.360</ele>
<time>2017-05-17T01:19:57.791Z</time>
</trkpt>
<trkpt lat="-27.0782732" lon="152.7806285">
<ele>474.758</ele>
<time>2017-05-17T01:20:00.854Z</time>
</trkpt>
<trkpt lat="-27.0786814" lon="152.7801797">
<ele>476.065</ele>
<time>2017-05-17T01:20:04.151Z</time>
</trkpt>
<trkpt lat="-27.0789137" lon="152.7797726">
<ele>478.326</ele>
<time>2017-05-17T01:20:07.860Z</time>
</trkpt>
<trkpt lat="-27.0789579" lon="152.7795914">
<ele>480.887</ele>
<time>2017-05-17T01:20:10.203Z</time>
</trkpt>
<trkpt lat="-27.0790556" lon="152.7795172">
<ele>482.802</ele>
<time>2017-05-17T01:20:12.332Z</time>
</trkpt>
<trkpt lat="-27.0791854" lon="152.7795788">
<ele>483.741</ele>
<time>2017-05-17T01:20:14.303Z</time>
</trkpt>
<trkpt lat="-27.0793106" lon="152.7797324">
<ele>484.020</ele>
<time>2017-05-17T01:20:16.323Z</time>
</trkpt>
<trkpt lat="-27.0796127" lon="152.7800476">
<ele>484.047</ele>
<time>2017-05-17T01:20:20.160Z</time>
</trkpt>
<trkpt lat="-27.0798756" lon="152.7801510">
<ele>483.993</ele>
<time>2017-05-17T01:20:22.543Z</time>
</trkpt>
<trkpt lat="-27.0802109" lon="152.7801627">
<ele>483.849</ele>
<time>2017-05-17T01:20:25.348Z</time>
</trkpt>
<trkpt lat="-27.0804167" lon="152.7802903">
<ele>483.410</ele>
<time>2017-05-17T01:20:27.306Z</time>
</trkpt>
<trkpt lat="-27.0805623" lon="152.7804896">
<ele>482.447</ele>
<time>2017-05-17T01:20:29.204Z</time>
</trkpt>
<trkpt lat="-27.0806867" lon="152.7808641">
<ele>480.943</ele>
<time>2017-05-17T01:20:32.037Z</time>
</trkpt>
<trkpt lat="-27.0806813" lon="152.7813022">
<ele>478.865</ele>
<time>2017-05-17T01:20:35.099Z</time>
</trkpt>
<trkpt lat="-27.0806637" lon="152.7815715">
<ele>476.046</ele>
<time>2017-05-17T01:20:36.988Z</time>
</trkpt>
<trkpt lat="-27.0806547" lon="152.7819994">
<ele>472.737</ele>
<time>2017-05-17T01:20:39.898Z</time>
</trkpt>
<trkpt lat="-27.0806921" lon="152.7822940">
<ele>469.418</ele>
<time>2017-05-17T01:20:41.893Z</time>
</trkpt>
<trkpt lat="-27.0807418" lon="152.7827348">
<ele>466.363</ele>
<time>2017-05-17T01:20:44.738Z</time>
</trkpt>
<trkpt lat="-27.0811060" lon="152.7831829">
<ele>463.603</ele>
<time>2017-05-17T01:20:48.372Z</time>
</trkpt>
<trkpt lat="-27.0813449" lon="152.7833413">
<ele>461.036</ele>
<time>2017-05-17T01:20:50.195Z</time>
</trkpt>
<trkpt lat="-27.0818344" lon="152.7837182">
<ele>458.662</ele>
<time>2017-05-17T01:20:54.151Z</time>
</trkpt>
<trkpt lat="-27.0821330" lon="152.7840562">
<ele>456.415</ele>
<time>2017-05-17T01:20:56.929Z</time>
</trkpt>
<trkpt lat="-27.0822918" lon="152.7843613">
<ele>453.841</ele>
<time>2017-05-17T01:20:58.823Z</time>
</trkpt>
<trkpt lat="-27.0823717" lon="152.7846984">
<ele>450.863</ele>
<time>2017-05-17T01:21:00.656Z</time>
</trkpt>
<trkpt lat="-27.0824952" lon="152.7852644">
<ele>448.215</ele>
<time>2017-05-17T01:21:03.588Z</time>
</trkpt>
<trkpt lat="-27.0825976" lon="152.7856487">
<ele>446.418</ele>
<time>2017-05-17T01:21:05.550Z</time>
</trkpt>
<trkpt lat="-27.0826202" lon="152.7862447">
<ele>445.053</ele>
<time>2017-05-17T01:21:08.263Z</time>
</trkpt>
<trkpt lat="-27.0826217" lon="152.7866799">
<ele>443.357</ele>
<time>2017-05-17T01:21:10.174Z</time>
</trkpt>
<trkpt lat="-27.0825764" lon="152.7873635">
<ele>441.017</ele>
<time>2017-05-17T01:21:13.120Z</time>
</trkpt>
<trkpt lat="-27.0825060" lon="152.7880507">
<ele>437.843</ele>
<time>2017-05-17T01:21:16.088Z</time>
</trkpt>
<trkpt lat="-27.0824197" lon="152.7887363">
<ele>433.484</ele>
<time>2017-05-17T01:21:19.112Z</time>
</trkpt>
<trkpt lat="-27.0824560" lon="152.7893969">
<ele>427.838</ele>
<time>2017-05-17T01:21:22.287Z</time>
</trkpt>
<trkpt lat="-27.0825104" lon="152.7898028">
<ele>421.320</ele>
<time>2017-05-17T01:21:24.474Z</time>
</trkpt>
<trkpt lat="-27.0824383" lon="152.7903035">
<ele>414.898</ele>
<time>2017-05-17T01:21:27.537Z</time>
</trkpt>
<trkpt lat="-27.0822020" lon="152.7904700">
<ele>409.530</ele>
<time>2017-05-17T01:21:29.411Z</time>
</trkpt>
<trkpt lat="-27.0819154" lon="152.7905654">
<ele>405.763</ele>
<time>2017-05-17T01:21:31.387Z</time>
</trkpt>
<trkpt lat="-27.0815475" lon="152.7905197">
<ele>403.891</ele>
<time>2017-05-17T01:21:33.740Z</time>
</trkpt>
<trkpt lat="-27.0810774" lon="152.7905304">
<ele>403.495</ele>
<time>2017-05-17T01:21:36.462Z</time>
</trkpt>
<trkpt lat="-27.0806137" lon="152.7908431">
<ele>403.297</ele>
<time>2017-05-17T01:21:39.278Z</time>
</trkpt>
<trkpt lat="-27.0803066" lon="152.7911045">
<ele>402.190</ele>
<time>2017-05-17T01:21:41.264Z</time>
</trkpt>
<trkpt lat="-27.0799780" lon="152.7913469">
<ele>399.905</ele>
<time>2017-05-17T01:21:43.276Z</time>
</trkpt>
<trkpt lat="-27.0796360" lon="152.7915355">
<ele>396.898</ele>
<time>2017-05-17T01:21:45.220Z</time>
</trkpt>
<trkpt lat="-27.0790774" lon="152.7917235">
<ele>393.817</ele>
<time>2017-05-17T01:21:48.271Z</time>
</trkpt>
<trkpt lat="-27.0787377" lon="152.7918495">
<ele>390.738</ele>
<time>2017-05-17T01:21:50.180Z</time>
</trkpt>
<trkpt lat="-27.0782966" lon="152.7922188">
<ele>387.764</ele>
<time>2017-05-17T01:21:53.271Z</time>
</trkpt>
<trkpt lat="-27.0779297" lon="152.7925813">
<ele>386.067</ele>
<time>2017-05-17T01:21:56.160Z</time>
</trkpt>
<trkpt lat="-27.0776662" lon="152.7928065">
<ele>386.752</ele>
<time>2017-05-17T01:21:58.050Z</time>
</trkpt>
<trkpt lat="-27.0774297" lon="152.7930847">
<ele>389.275</ele>
<time>2017-05-17T01:21:59.957Z</time>
</trkpt>
<trkpt lat="-27.0771941" lon="152.7936490">
<ele>392.038</ele>
<time>2017-05-17T01:22:02.939Z</time>
</trkpt>
<trkpt lat="-27.0769968" lon="152.7942444">
<ele>393.765</ele>
<time>2017-05-17T01:22:06.230Z</time>
</trkpt>
<trkpt lat="-27.0769656" lon="152.7945845">
<ele>394.262</ele>
<time>2017-05-17T01:22:07.986Z</time>
</trkpt>
<trkpt lat="-27.0770795" lon="152.7949823">
<ele>394.031</ele>
<time>2017-05-17T01:22:10.088Z</time>
</trkpt>
<trkpt lat="-27.0772353" lon="152.7955489">
<ele>393.748</ele>
<time>2017-05-17T01:22:13.218Z</time>
</trkpt>
<trkpt lat="-27.0773574" lon="152.7958832">
<ele>393.903</ele>
<time>2017-05-17T01:22:15.312Z</time>
</trkpt>
<trkpt lat="-27.0775901" lon="152.7961757">
<ele>394.581</ele>
<time>2017-05-17T01:22:17.643Z</time>
</trkpt>
<trkpt lat="-27.0779443" lon="152.7964190">
<ele>395.660</ele>
<time>2017-05-17T01:22:20.259Z</time>
</trkpt>
<trkpt lat="-27.0780612" lon="152.7967557">
<ele>397.057</ele>
<time>2017-05-17T01:22:22.122Z</time>
</trkpt>
<trkpt lat="-27.0781885" lon="152.7971381">
<ele>398.447</ele>
<time>2017-05-17T01:22:24.150Z</time>
</trkpt>
<trkpt lat="-27.0783821" lon="152.7974826">
<ele>399.242</ele>
<time>2017-05-17T01:22:26.154Z</time>
</trkpt>
<trkpt lat="-27.0785823" lon="152.7980380">
<ele>399.245</ele>
<time>2017-05-17T01:22:29.131Z</time>
</trkpt>
<trkpt lat="-27.0787266" lon="152.7986042">
<ele>398.857</ele>
<time>2017-05-17T01:22:32.309Z</time>
</trkpt>
<trkpt lat="-27.0788982" lon="152.7989108">
<ele>398.598</ele>
<time>2017-05-17T01:22:34.358Z</time>
</trkpt>
<trkpt lat="-27.0789285" lon="152.7994178">
<ele>398.740</ele>
<time>2017-05-17T01:22:37.244Z</time>
</trkpt>
<trkpt lat="-27.0787295" lon="152.7999269">
<ele>399.148</ele>
<time>2017-05-17T01:22:40.271Z</time>
</trkpt>
<trkpt lat="-27.0784331" lon="152.8003734">
<ele>399.430</ele>
<time>2017-05-17T01:22:43.314Z</time>
</trkpt>
<trkpt lat="-27.0783141" lon="152.8007135">
<ele>398.885</ele>
<time>2017-05-17T01:22:45.286Z</time>
</trkpt>
<trkpt lat="-27.0783960" lon="152.8010753">
<ele>396.988</ele>
<time>2017-05-17T01:22:47.251Z</time>
</trkpt>
<trkpt lat="-27.0784761" lon="152.8017401">
<ele>394.219</ele>
<time>2017-05-17T01:22:50.676Z</time>
</trkpt>
<trkpt lat="-27.0784297" lon="152.8021243">
<ele>391.592</ele>
<time>2017-05-17T01:22:52.702Z</time>
</trkpt>
<trkpt lat="-27.0782812" lon="152.8026642">
<ele>389.739</ele>
<time>2017-05-17T01:22:55.684Z</time>
</trkpt>
<trkpt lat="-27.0781341" lon="152.8030185">
<ele>388.785</ele>
<time>2017-05-17T01:22:57.764Z</time>
</trkpt>
<trkpt lat="-27.0778686" lon="152.8035192">
<ele>388.253</ele>
<time>2017-05-17T01:23:00.982Z</time>
</trkpt>
<trkpt lat="-27.0775680" lon="152.8039535">
<ele>387.226</ele>
<time>2017-05-17T01:23:04.398Z</time>
</trkpt>
<trkpt lat="-27.0774523" lon="152.8042078">
<ele>385.212</ele>
<time>2017-05-17T01:23:06.220Z</time>
</trkpt>
<trkpt lat="-27.0774813" lon="152.8046157">
<ele>382.659</ele>
<time>2017-05-17T01:23:08.767Z</time>
</trkpt>
<trkpt lat="-27.0774190" lon="152.8050888">
<ele>380.514</ele>
<time>2017-05-17T01:23:11.477Z</time>
</trkpt>
<trkpt lat="-27.0772426" lon="152.8053929">
<ele>379.377</ele>
<time>2017-05-17T01:23:13.470Z</time>
</trkpt>
<trkpt lat="-27.0769453" lon="152.8058163">
<ele>379.358</ele>
<time>2017-05-17T01:23:16.427Z</time>
</trkpt>
<trkpt lat="-27.0767501" lon="152.8061191">
<ele>380.460</ele>
<time>2017-05-17T01:23:18.493Z</time>
</trkpt>
<trkpt lat="-27.0763311" lon="152.8064122">
<ele>382.448</ele>
<time>2017-05-17T01:23:21.549Z</time>
</trkpt>
<trkpt lat="-27.0760359" lon="152.8065651">
<ele>384.569</ele>
<time>2017-05-17T01:23:23.521Z</time>
</trkpt>
<trkpt lat="-27.0755776" lon="152.8069413">
<ele>386.069</ele>
<time>2017-05-17T01:23:26.892Z</time>
</trkpt>
<trkpt lat="-27.0752951" lon="152.8071892">
<ele>386.246</ele>
<time>2017-05-17T01:23:29.378Z</time>
</trkpt>
<trkpt lat="-27.0750750" lon="152.8074882">
<ele>384.619</ele>
<time>2017-05-17T01:23:32.175Z</time>
</trkpt>
<trkpt lat="-27.0748852" lon="152.8078276">
<ele>381.486</ele>
<time>2017-05-17T01:23:34.972Z</time>
</trkpt>
<trkpt lat="-27.0746824" lon="152.8078948">
<ele>377.610</ele>
<time>2017-05-17T01:23:36.467Z</time>
</trkpt>
<trkpt lat="-27.0743982" lon="152.8077756">
<ele>373.653</ele>
<time>2017-05-17T01:23:38.457Z</time>
</trkpt>
<trkpt lat="-27.0738914" lon="152.8074914">
<ele>369.974</ele>
<time>2017-05-17T01:23:42.166Z</time>
</trkpt>
<trkpt lat="-27.0736449" lon="152.8073305">
<ele>366.229</ele>
<time>2017-05-17T01:23:44.129Z</time>
</trkpt>
<trkpt lat="-27.0733729" lon="152.8072453">
<ele>362.101</ele>
<time>2017-05-17T01:23:46.062Z</time>
</trkpt>
<trkpt lat="-27.0730899" lon="152.8072835">
<ele>358.001</ele>
<time>2017-05-17T01:23:47.985Z</time>
</trkpt>
<trkpt lat="-27.0728191" lon="152.8073553">
<ele>354.206</ele>
<time>2017-05-17T01:23:49.778Z</time>
</trkpt>
<trkpt lat="-27.0723931" lon="152.8076083">
<ele>350.381</ele>
<time>2017-05-17T01:23:52.851Z</time>
</trkpt>
<trkpt lat="-27.0720896" lon="152.8080281">
<ele>346.050</ele>
<time>2017-05-17T01:23:55.885Z</time>
</trkpt>
<trkpt lat="-27.0719799" lon="152.8083638">
<ele>341.025</ele>
<time>2017-05-17T01:23:57.997Z</time>
</trkpt>
<trkpt lat="-27.0717835" lon="152.8088388">
<ele>335.935</ele>
<time>2017-05-17T01:24:01.326Z</time>
</trkpt>
<trkpt lat="-27.0717082" lon="152.8093550">
<ele>331.499</ele>
<time>2017-05-17T01:24:05.038Z</time>
</trkpt>
<trkpt lat="-27.0716377" lon="152.8097963">
<ele>327.092</ele>
<time>2017-05-17T01:24:08.831Z</time>
</trkpt>
<trkpt lat="-27.0713506" lon="152.8100526">
<ele>321.602</ele>
<time>2017-05-17T01:24:12.743Z</time>
</trkpt>
<trkpt lat="-27.0712665" lon="152.8102573">
<ele>315.198</ele>
<time>2017-05-17T01:24:14.892Z</time>
</trkpt>
<trkpt lat="-27.0711067" lon="152.8105116">
<ele>309.257</ele>
<time>2017-05-17T01:24:17.672Z</time>
</trkpt>
<trkpt lat="-27.0708466" lon="152.8104858">
<ele>304.734</ele>
<time>2017-05-17T01:24:19.862Z</time>
</trkpt>
<trkpt lat="-27.0706034" lon="152.8103063">
<ele>301.294</ele>
<time>2017-05-17T01:24:21.881Z</time>
</trkpt>
<trkpt lat="-27.0703702" lon="152.8103293">
<ele>298.085</ele>
<time>2017-05-17T01:24:23.424Z</time>
</trkpt>
<trkpt lat="-27.0701262" lon="152.8104402">
<ele>294.817</ele>
<time>2017-05-17T01:24:25.001Z</time>
</trkpt>
<trkpt lat="-27.0696750" lon="152.8106339">
<ele>291.552</ele>
<time>2017-05-17T01:24:27.651Z</time>
</trkpt>
<trkpt lat="-27.0693368" lon="152.8107837">
<ele>287.903</ele>
<time>2017-05-17T01:24:29.576Z</time>
</trkpt>
<trkpt lat="-27.0689806" lon="152.8109237">
<ele>283.545</ele>
<time>2017-05-17T01:24:31.565Z</time>
</trkpt>
<trkpt lat="-27.0684596" lon="152.8113292">
<ele>279.138</ele>
<time>2017-05-17T01:24:35.164Z</time>
</trkpt>
<trkpt lat="-27.0682051" lon="152.8115553">
<ele>275.852</ele>
<time>2017-05-17T01:24:37.149Z</time>
</trkpt>
<trkpt lat="-27.0679494" lon="152.8117969">
<ele>274.492</ele>
<time>2017-05-17T01:24:39.272Z</time>
</trkpt>
<trkpt lat="-27.0677432" lon="152.8120935">
<ele>275.002</ele>
<time>2017-05-17T01:24:41.660Z</time>
</trkpt>
<trkpt lat="-27.0674616" lon="152.8124980">
<ele>276.338</ele>
<time>2017-05-17T01:24:45.233Z</time>
</trkpt>
<trkpt lat="-27.0672839" lon="152.8127692">
<ele>276.807</ele>
<time>2017-05-17T01:24:48.029Z</time>
</trkpt>
<trkpt lat="-27.0668939" lon="152.8129448">
<ele>275.603</ele>
<time>2017-05-17T01:24:52.002Z</time>
</trkpt>
<trkpt lat="-27.0667265" lon="152.8130932">
<ele>273.782</ele>
<time>2017-05-17T01:24:53.846Z</time>
</trkpt>
<trkpt lat="-27.0667893" lon="152.8134451">
<ele>275.670</ele>
<time>2017-05-17T01:24:56.535Z</time>
</trkpt>
<trkpt lat="-27.0668418" lon="152.8137878">
<ele>283.483</ele>
<time>2017-05-17T01:24:59.305Z</time>
</trkpt>
<trkpt lat="-27.0667165" lon="152.8140545">
<ele>292.674</ele>
<time>2017-05-17T01:25:01.965Z</time>
</trkpt>
<trkpt lat="-27.0665231" lon="152.8142454">
<ele>298.445</ele>
<time>2017-05-17T01:25:04.500Z</time>
</trkpt>
<trkpt lat="-27.0665011" lon="152.8146185">
<ele>300.961</ele>
<time>2017-05-17T01:25:07.660Z</time>
</trkpt>
<trkpt lat="-27.0664117" lon="152.8149502">
<ele>301.669</ele>
<time>2017-05-17T01:25:10.563Z</time>
</trkpt>
<trkpt lat="-27.0662021" lon="152.8150753">
<ele>301.812</ele>
<time>2017-05-17T01:25:12.715Z</time>
</trkpt>
<trkpt lat="-27.0658664" lon="152.8152057">
<ele>301.933</ele>
<time>2017-05-17T01:25:15.707Z</time>
</trkpt>
<trkpt lat="-27.0657511" lon="152.8154344">
<ele>301.966</ele>
<time>2017-05-17T01:25:17.523Z</time>
</trkpt>
<trkpt lat="-27.0656921" lon="152.8156945">
<ele>301.757</ele>
<time>2017-05-17T01:25:19.217Z</time>
</trkpt>
<trkpt lat="-27.0658033" lon="152.8161800">
<ele>301.313</ele>
<time>2017-05-17T01:25:22.206Z</time>
</trkpt>
<trkpt lat="-27.0660687" lon="152.8165673">
<ele>300.549</ele>
<time>2017-05-17T01:25:25.016Z</time>
</trkpt>
<trkpt lat="-27.0662023" lon="152.8168914">
<ele>299.210</ele>
<time>2017-05-17T01:25:27.051Z</time>
</trkpt>
<trkpt lat="-27.0662685" lon="152.8173976">
<ele>297.264</ele>
<time>2017-05-17T01:25:29.965Z</time>
</trkpt>
<trkpt lat="-27.0663366" lon="152.8177189">
<ele>294.817</ele>
<time>2017-05-17T01:25:31.862Z</time>
</trkpt>
<trkpt lat="-27.0663936" lon="152.8180525">
<ele>291.919</ele>
<time>2017-05-17T01:25:33.773Z</time>
</trkpt>
<trkpt lat="-27.0665054" lon="152.8185866">
<ele>288.819</ele>
<time>2017-05-17T01:25:36.517Z</time>
</trkpt>
<trkpt lat="-27.0666875" lon="152.8190568">
<ele>285.723</ele>
<time>2017-05-17T01:25:39.028Z</time>
</trkpt>
<trkpt lat="-27.0669457" lon="152.8193151">
<ele>282.302</ele>
<time>2017-05-17T01:25:41.290Z</time>
</trkpt>
<trkpt lat="-27.0673203" lon="152.8194928">
<ele>278.274</ele>
<time>2017-05-17T01:25:44.703Z</time>
</trkpt>
<trkpt lat="-27.0678319" lon="152.8196005">
<ele>274.218</ele>
<time>2017-05-17T01:25:49.091Z</time>
</trkpt>
<trkpt lat="-27.0680803" lon="152.8196739">
<ele>271.202</ele>
<time>2017-05-17T01:25:51.005Z</time>
</trkpt>
<trkpt lat="-27.0681812" lon="152.8198478">
<ele>269.779</ele>
<time>2017-05-17T01:25:52.173Z</time>
</trkpt>
<trkpt lat="-27.0682901" lon="152.8202217">
<ele>269.657</ele>
<time>2017-05-17T01:25:54.375Z</time>
</trkpt>
<trkpt lat="-27.0683233" lon="152.8204463">
<ele>270.480</ele>
<time>2017-05-17T01:25:55.616Z</time>
</trkpt>
<trkpt lat="-27.0680964" lon="152.8209049">
<ele>272.083</ele>
<time>2017-05-17T01:25:58.507Z</time>
</trkpt>
<trkpt lat="-27.0679012" lon="152.8213945">
<ele>273.821</ele>
<time>2017-05-17T01:26:01.629Z</time>
</trkpt>
<trkpt lat="-27.0676103" lon="152.8218334">
<ele>274.188</ele>
<time>2017-05-17T01:26:05.291Z</time>
</trkpt>
<trkpt lat="-27.0673736" lon="152.8221416">
<ele>272.685</ele>
<time>2017-05-17T01:26:08.779Z</time>
</trkpt>
<trkpt lat="-27.0672580" lon="152.8226276">
<ele>271.065</ele>
<time>2017-05-17T01:26:13.009Z</time>
</trkpt>
<trkpt lat="-27.0672450" lon="152.8229170">
<ele>271.239</ele>
<time>2017-05-17T01:26:15.165Z</time>
</trkpt>
<trkpt lat="-27.0671525" lon="152.8231808">
<ele>273.143</ele>
<time>2017-05-17T01:26:17.344Z</time>
</trkpt>
<trkpt lat="-27.0668052" lon="152.8232187">
<ele>275.755</ele>
<time>2017-05-17T01:26:20.320Z</time>
</trkpt>
<trkpt lat="-27.0664362" lon="152.8230712">
<ele>278.120</ele>
<time>2017-05-17T01:26:23.670Z</time>
</trkpt>
<trkpt lat="-27.0662185" lon="152.8230310">
<ele>279.596</ele>
<time>2017-05-17T01:26:25.770Z</time>
</trkpt>
<trkpt lat="-27.0659642" lon="152.8232661">
<ele>279.907</ele>
<time>2017-05-17T01:26:29.114Z</time>
</trkpt>
<trkpt lat="-27.0656931" lon="152.8237416">
<ele>278.985</ele>
<time>2017-05-17T01:26:33.647Z</time>
</trkpt>
<trkpt lat="-27.0656443" lon="152.8239760">
<ele>276.743</ele>
<time>2017-05-17T01:26:35.448Z</time>
</trkpt>
<trkpt lat="-27.0654905" lon="152.8241792">
<ele>273.581</ele>
<time>2017-05-17T01:26:37.392Z</time>
</trkpt>
<trkpt lat="-27.0651811" lon="152.8241411">
<ele>270.355</ele>
<time>2017-05-17T01:26:39.808Z</time>
</trkpt>
<trkpt lat="-27.0649647" lon="152.8241365">
<ele>267.694</ele>
<time>2017-05-17T01:26:41.391Z</time>
</trkpt>
<trkpt lat="-27.0646373" lon="152.8240080">
<ele>265.741</ele>
<time>2017-05-17T01:26:43.840Z</time>
</trkpt>
<trkpt lat="-27.0642519" lon="152.8238692">
<ele>264.176</ele>
<time>2017-05-17T01:26:46.740Z</time>
</trkpt>
<trkpt lat="-27.0638250" lon="152.8239244">
<ele>262.276</ele>
<time>2017-05-17T01:26:50.221Z</time>
</trkpt>
<trkpt lat="-27.0635458" lon="152.8239543">
<ele>259.493</ele>
<time>2017-05-17T01:26:53.050Z</time>
</trkpt>
<trkpt lat="-27.0631218" lon="152.8240517">
<ele>256.072</ele>
<time>2017-05-17T01:26:57.604Z</time>
</trkpt>
<trkpt lat="-27.0627515" lon="152.8241149">
<ele>252.559</ele>
<time>2017-05-17T01:27:01.976Z</time>
</trkpt>
<trkpt lat="-27.0625525" lon="152.8241924">
<ele>249.426</ele>
<time>2017-05-17T01:27:03.970Z</time>
</trkpt>
<trkpt lat="-27.0624528" lon="152.8245115">
<ele>247.156</ele>
<time>2017-05-17T01:27:06.531Z</time>
</trkpt>
<trkpt lat="-27.0624579" lon="152.8248101">
<ele>245.734</ele>
<time>2017-05-17T01:27:08.774Z</time>
</trkpt>
<trkpt lat="-27.0622837" lon="152.8250488">
<ele>244.554</ele>
<time>2017-05-17T01:27:11.191Z</time>
</trkpt>
<trkpt lat="-27.0621456" lon="152.8252519">
<ele>241.678</ele>
<time>2017-05-17T01:27:13.500Z</time>
</trkpt>
<trkpt lat="-27.0621943" lon="152.8255296">
<ele>236.156</ele>
<time>2017-05-17T01:27:16.176Z</time>
</trkpt>
<trkpt lat="-27.0622384" lon="152.8259365">
<ele>230.653</ele>
<time>2017-05-17T01:27:19.873Z</time>
</trkpt>
<trkpt lat="-27.0622221" lon="152.8262130">
<ele>227.528</ele>
<time>2017-05-17T01:27:22.233Z</time>
</trkpt>
<trkpt lat="-27.0622171" lon="152.8265874">
<ele>225.812</ele>
<time>2017-05-17T01:27:25.369Z</time>
</trkpt>
<trkpt lat="-27.0621217" lon="152.8268790">
<ele>223.827</ele>
<time>2017-05-17T01:27:27.865Z</time>
</trkpt>
<trkpt lat="-27.0618714" lon="152.8270910">
<ele>220.691</ele>
<time>2017-05-17T01:27:30.515Z</time>
</trkpt>
<trkpt lat="-27.0617473" lon="152.8274111">
<ele>216.668</ele>
<time>2017-05-17T01:27:33.052Z</time>
</trkpt>
<trkpt lat="-27.0617134" lon="152.8277927">
<ele>212.635</ele>
<time>2017-05-17T01:27:36.088Z</time>
</trkpt>
<trkpt lat="-27.0615392" lon="152.8280774">
<ele>209.089</ele>
<time>2017-05-17T01:27:39.442Z</time>
</trkpt>
<trkpt lat="-27.0615895" lon="152.8284834">
<ele>205.863</ele>
<time>2017-05-17T01:27:44.062Z</time>
</trkpt>
<trkpt lat="-27.0615818" lon="152.8289101">
<ele>202.473</ele>
<time>2017-05-17T01:27:47.836Z</time>
</trkpt>
<trkpt lat="-27.0616755" lon="152.8291393">
<ele>198.482</ele>
<time>2017-05-17T01:27:49.819Z</time>
</trkpt>
<trkpt lat="-27.0617190" lon="152.8294654">
<ele>194.005</ele>
<time>2017-05-17T01:27:52.488Z</time>
</trkpt>
<trkpt lat="-27.0616047" lon="152.8296235">
<ele>189.492</ele>
<time>2017-05-17T01:27:54.218Z</time>
</trkpt>
<trkpt lat="-27.0613551" lon="152.8296408">
<ele>185.236</ele>
<time>2017-05-17T01:27:56.488Z</time>
</trkpt>
<trkpt lat="-27.0611963" lon="152.8295728">
<ele>181.301</ele>
<time>2017-05-17T01:27:57.916Z</time>
</trkpt>
<trkpt lat="-27.0608449" lon="152.8293542">
<ele>177.758</ele>
<time>2017-05-17T01:28:01.094Z</time>
</trkpt>
<trkpt lat="-27.0606131" lon="152.8292499">
<ele>174.703</ele>
<time>2017-05-17T01:28:02.959Z</time>
</trkpt>
<trkpt lat="-27.0603297" lon="152.8291161">
<ele>172.200</ele>
<time>2017-05-17T01:28:05.200Z</time>
</trkpt>
<trkpt lat="-27.0601108" lon="152.8291383">
<ele>169.953</ele>
<time>2017-05-17T01:28:06.734Z</time>
</trkpt>
<trkpt lat="-27.0599202" lon="152.8295164">
<ele>167.609</ele>
<time>2017-05-17T01:28:09.377Z</time>
</trkpt>
<trkpt lat="-27.0596357" lon="152.8298147">
<ele>165.079</ele>
<time>2017-05-17T01:28:11.864Z</time>
</trkpt>
<trkpt lat="-27.0594284" lon="152.8300177">
<ele>162.328</ele>
<time>2017-05-17T01:28:13.497Z</time>
</trkpt>
<trkpt lat="-27.0591176" lon="152.8303254">
<ele>159.276</ele>
<time>2017-05-17T01:28:15.923Z</time>
</trkpt>
<trkpt lat="-27.0587521" lon="152.8305825">
<ele>155.655</ele>
<time>2017-05-17T01:28:18.536Z</time>
</trkpt>
<trkpt lat="-27.0585935" lon="152.8308801">
<ele>151.219</ele>
<time>2017-05-17T01:28:20.519Z</time>
</trkpt>
<trkpt lat="-27.0584731" lon="152.8312745">
<ele>146.645</ele>
<time>2017-05-17T01:28:23.142Z</time>
</trkpt>
<trkpt lat="-27.0583697" lon="152.8316418">
<ele>142.899</ele>
<time>2017-05-17T01:28:25.658Z</time>
</trkpt>
<trkpt lat="-27.0582110" lon="152.8321767">
<ele>139.885</ele>
<time>2017-05-17T01:28:29.142Z</time>
</trkpt>
<trkpt lat="-27.0581274" lon="152.8326785">
<ele>136.845</ele>
<time>2017-05-17T01:28:32.013Z</time>
</trkpt>
<trkpt lat="-27.0578722" lon="152.8329831">
<ele>133.865</ele>
<time>2017-05-17T01:28:34.228Z</time>
</trkpt>
<trkpt lat="-27.0575148" lon="152.8332156">
<ele>131.994</ele>
<time>2017-05-17T01:28:36.698Z</time>
</trkpt>
<trkpt lat="-27.0571462" lon="152.8334783">
<ele>131.693</ele>
<time>2017-05-17T01:28:39.337Z</time>
</trkpt>
<trkpt lat="-27.0569516" lon="152.8338401">
<ele>132.284</ele>
<time>2017-05-17T01:28:41.619Z</time>
</trkpt>
<trkpt lat="-27.0567920" lon="152.8341911">
<ele>132.928</ele>
<time>2017-05-17T01:28:43.765Z</time>
</trkpt>
<trkpt lat="-27.0565530" lon="152.8344899">
<ele>133.162</ele>
<time>2017-05-17T01:28:46.015Z</time>
</trkpt>
<trkpt lat="-27.0562935" lon="152.8349432">
<ele>132.764</ele>
<time>2017-05-17T01:28:49.029Z</time>
</trkpt>
<trkpt lat="-27.0560762" lon="152.8352429">
<ele>131.255</ele>
<time>2017-05-17T01:28:51.088Z</time>
</trkpt>
<trkpt lat="-27.0559059" lon="152.8355566">
<ele>128.407</ele>
<time>2017-05-17T01:28:52.873Z</time>
</trkpt>
<trkpt lat="-27.0557818" lon="152.8358830">
<ele>124.565</ele>
<time>2017-05-17T01:28:54.534Z</time>
</trkpt>
<trkpt lat="-27.0556255" lon="152.8363528">
<ele>120.182</ele>
<time>2017-05-17T01:28:56.710Z</time>
</trkpt>
<trkpt lat="-27.0554759" lon="152.8366602">
<ele>114.977</ele>
<time>2017-05-17T01:28:58.190Z</time>
</trkpt>
<trkpt lat="-27.0554090" lon="152.8370377">
<ele>108.651</ele>
<time>2017-05-17T01:28:59.827Z</time>
</trkpt>
<trkpt lat="-27.0555474" lon="152.8377119">
<ele>101.953</ele>
<time>2017-05-17T01:29:02.820Z</time>
</trkpt>
<trkpt lat="-27.0557154" lon="152.8384132">
<ele>95.631</ele>
<time>2017-05-17T01:29:05.983Z</time>
</trkpt>
<trkpt lat="-27.0557872" lon="152.8388694">
<ele>89.520</ele>
<time>2017-05-17T01:29:07.985Z</time>
</trkpt>
<trkpt lat="-27.0557419" lon="152.8395278">
<ele>84.154</ele>
<time>2017-05-17T01:29:10.833Z</time>
</trkpt>
<trkpt lat="-27.0555143" lon="152.8401437">
<ele>80.745</ele>
<time>2017-05-17T01:29:13.787Z</time>
</trkpt>
<trkpt lat="-27.0552430" lon="152.8407586">
<ele>79.810</ele>
<time>2017-05-17T01:29:16.835Z</time>
</trkpt>
<trkpt lat="-27.0550460" lon="152.8411583">
<ele>80.831</ele>
<time>2017-05-17T01:29:18.791Z</time>
</trkpt>
<trkpt lat="-27.0549207" lon="152.8415785">
<ele>82.641</ele>
<time>2017-05-17T01:29:20.691Z</time>
</trkpt>
<trkpt lat="-27.0546948" lon="152.8421795">
<ele>84.053</ele>
<time>2017-05-17T01:29:23.503Z</time>
</trkpt>
<trkpt lat="-27.0545178" lon="152.8425963">
<ele>84.566</ele>
<time>2017-05-17T01:29:25.499Z</time>
</trkpt>
<trkpt lat="-27.0543792" lon="152.8430376">
<ele>84.266</ele>
<time>2017-05-17T01:29:27.515Z</time>
</trkpt>
<trkpt lat="-27.0540948" lon="152.8436381">
<ele>83.459</ele>
<time>2017-05-17T01:29:30.443Z</time>
</trkpt>
<trkpt lat="-27.0538749" lon="152.8442820">
<ele>82.329</ele>
<time>2017-05-17T01:29:33.389Z</time>
</trkpt>
<trkpt lat="-27.0537054" lon="152.8446937">
<ele>81.117</ele>
<time>2017-05-17T01:29:35.317Z</time>
</trkpt>
<trkpt lat="-27.0534367" lon="152.8453100">
<ele>80.319</ele>
<time>2017-05-17T01:29:38.263Z</time>
</trkpt>
<trkpt lat="-27.0532320" lon="152.8459671">
<ele>80.139</ele>
<time>2017-05-17T01:29:41.258Z</time>
</trkpt>
<trkpt lat="-27.0530691" lon="152.8463988">
<ele>80.177</ele>
<time>2017-05-17T01:29:43.272Z</time>
</trkpt>
<trkpt lat="-27.0530029" lon="152.8468495">
<ele>80.049</ele>
<time>2017-05-17T01:29:45.238Z</time>
</trkpt>
<trkpt lat="-27.0529678" lon="152.8473102">
<ele>79.782</ele>
<time>2017-05-17T01:29:47.228Z</time>
</trkpt>
<trkpt lat="-27.0528974" lon="152.8480000">
<ele>79.600</ele>
<time>2017-05-17T01:29:50.202Z</time>
</trkpt>
<trkpt lat="-27.0528160" lon="152.8484486">
<ele>79.587</ele>
<time>2017-05-17T01:29:52.161Z</time>
</trkpt>
<trkpt lat="-27.0527555" lon="152.8491273">
<ele>79.677</ele>
<time>2017-05-17T01:29:55.131Z</time>
</trkpt>
<trkpt lat="-27.0527039" lon="152.8498250">
<ele>79.700</ele>
<time>2017-05-17T01:29:58.329Z</time>
</trkpt>
<trkpt lat="-27.0526202" lon="152.8505154">
<ele>79.539</ele>
<time>2017-05-17T01:30:01.500Z</time>
</trkpt>
<trkpt lat="-27.0525802" lon="152.8509409">
<ele>79.269</ele>
<time>2017-05-17T01:30:03.448Z</time>
</trkpt>
<trkpt lat="-27.0525004" lon="152.8513523">
<ele>78.988</ele>
<time>2017-05-17T01:30:05.383Z</time>
</trkpt>
<trkpt lat="-27.0522923" lon="152.8519499">
<ele>78.727</ele>
<time>2017-05-17T01:30:08.407Z</time>
</trkpt>
<trkpt lat="-27.0520993" lon="152.8523251">
<ele>78.696</ele>
<time>2017-05-17T01:30:10.470Z</time>
</trkpt>
<trkpt lat="-27.0518612" lon="152.8528837">
<ele>79.068</ele>
<time>2017-05-17T01:30:13.397Z</time>
</trkpt>
<trkpt lat="-27.0517535" lon="152.8535117">
<ele>79.766</ele>
<time>2017-05-17T01:30:16.345Z</time>
</trkpt>
<trkpt lat="-27.0517877" lon="152.8541292">
<ele>80.755</ele>
<time>2017-05-17T01:30:19.130Z</time>
</trkpt>
<trkpt lat="-27.0517644" lon="152.8545520">
<ele>81.940</ele>
<time>2017-05-17T01:30:21.023Z</time>
</trkpt>
<trkpt lat="-27.0515702" lon="152.8551606">
<ele>82.903</ele>
<time>2017-05-17T01:30:23.929Z</time>
</trkpt>
<trkpt lat="-27.0512183" lon="152.8557015">
<ele>83.252</ele>
<time>2017-05-17T01:30:26.977Z</time>
</trkpt>
<trkpt lat="-27.0509075" lon="152.8562580">
<ele>82.776</ele>
<time>2017-05-17T01:30:29.973Z</time>
</trkpt>
<trkpt lat="-27.0506962" lon="152.8566182">
<ele>81.270</ele>
<time>2017-05-17T01:30:31.948Z</time>
</trkpt>
<trkpt lat="-27.0503217" lon="152.8571031">
<ele>78.902</ele>
<time>2017-05-17T01:30:34.915Z</time>
</trkpt>
<trkpt lat="-27.0500190" lon="152.8573906">
<ele>76.310</ele>
<time>2017-05-17T01:30:36.955Z</time>
</trkpt>
<trkpt lat="-27.0494674" lon="152.8575616">
<ele>74.085</ele>
<time>2017-05-17T01:30:39.870Z</time>
</trkpt>
<trkpt lat="-27.0488989" lon="152.8576236">
<ele>72.443</ele>
<time>2017-05-17T01:30:42.750Z</time>
</trkpt>
<trkpt lat="-27.0485093" lon="152.8576196">
<ele>71.259</ele>
<time>2017-05-17T01:30:44.712Z</time>
</trkpt>
<trkpt lat="-27.0481248" lon="152.8575992">
<ele>70.325</ele>
<time>2017-05-17T01:30:46.654Z</time>
</trkpt>
<trkpt lat="-27.0477482" lon="152.8574573">
<ele>69.560</ele>
<time>2017-05-17T01:30:48.630Z</time>
</trkpt>
<trkpt lat="-27.0471902" lon="152.8572610">
<ele>68.823</ele>
<time>2017-05-17T01:30:51.505Z</time>
</trkpt>
<trkpt lat="-27.0466040" lon="152.8572150">
<ele>67.729</ele>
<time>2017-05-17T01:30:54.381Z</time>
</trkpt>
<trkpt lat="-27.0461947" lon="152.8572718">
<ele>65.899</ele>
<time>2017-05-17T01:30:56.374Z</time>
</trkpt>
<trkpt lat="-27.0456059" lon="152.8573565">
<ele>63.627</ele>
<time>2017-05-17T01:30:59.231Z</time>
</trkpt>
<trkpt lat="-27.0450287" lon="152.8575911">
<ele>61.729</ele>
<time>2017-05-17T01:31:02.225Z</time>
</trkpt>
<trkpt lat="-27.0444462" lon="152.8578299">
<ele>60.608</ele>
<time>2017-05-17T01:31:05.281Z</time>
</trkpt>
<trkpt lat="-27.0440625" lon="152.8579870">
<ele>60.131</ele>
<time>2017-05-17T01:31:07.301Z</time>
</trkpt>
<trkpt lat="-27.0434998" lon="152.8582200">
<ele>60.061</ele>
<time>2017-05-17T01:31:10.273Z</time>
</trkpt>
<trkpt lat="-27.0429580" lon="152.8584936">
<ele>60.621</ele>
<time>2017-05-17T01:31:13.284Z</time>
</trkpt>
<trkpt lat="-27.0426091" lon="152.8587065">
<ele>61.893</ele>
<time>2017-05-17T01:31:15.428Z</time>
</trkpt>
<trkpt lat="-27.0423078" lon="152.8590186">
<ele>62.657</ele>
<time>2017-05-17T01:31:17.974Z</time>
</trkpt>
<trkpt lat="-27.0420363" lon="152.8593650">
<ele>61.467</ele>
<time>2017-05-17T01:31:20.703Z</time>
</trkpt>
<trkpt lat="-27.0416673" lon="152.8597912">
<ele>58.907</ele>
<time>2017-05-17T01:31:24.330Z</time>
</trkpt>
<trkpt lat="-27.0414485" lon="152.8600119">
<ele>56.873</ele>
<time>2017-05-17T01:31:26.697Z</time>
</trkpt>
<trkpt lat="-27.0411862" lon="152.8601379">
<ele>56.441</ele>
<time>2017-05-17T01:31:30.222Z</time>
</trkpt>
<trkpt lat="-27.0407702" lon="152.8603171">
<ele>57.524</ele>
<time>2017-05-17T01:31:35.097Z</time>
</trkpt>
<trkpt lat="-27.0404767" lon="152.8603028">
<ele>59.731</ele>
<time>2017-05-17T01:31:37.288Z</time>
</trkpt>
<trkpt lat="-27.0402591" lon="152.8603416">
<ele>62.313</ele>
<time>2017-05-17T01:31:38.794Z</time>
</trkpt>
<trkpt lat="-27.0401221" lon="152.8603495">
<ele>64.259</ele>
<time>2017-05-17T01:31:39.694Z</time>
</trkpt>
<trkpt lat="-27.0400149" lon="152.8603787">
<ele>65.035</ele>
<time>2017-05-17T01:31:40.411Z</time>
</trkpt>
<trkpt lat="-27.0398154" lon="152.8601186">
<ele>64.939</ele>
<time>2017-05-17T01:31:42.397Z</time>
</trkpt>
<trkpt lat="-27.0396657" lon="152.8598775">
<ele>64.580</ele>
<time>2017-05-17T01:31:44.100Z</time>
</trkpt>
<trkpt lat="-27.0394723" lon="152.8596445">
<ele>64.453</ele>
<time>2017-05-17T01:31:45.946Z</time>
</trkpt>
<trkpt lat="-27.0392174" lon="152.8594394">
<ele>64.801</ele>
<time>2017-05-17T01:31:47.965Z</time>
</trkpt>
<trkpt lat="-27.0388578" lon="152.8591049">
<ele>65.558</ele>
<time>2017-05-17T01:31:50.922Z</time>
</trkpt>
<trkpt lat="-27.0386214" lon="152.8588961">
<ele>66.345</ele>
<time>2017-05-17T01:31:52.804Z</time>
</trkpt>
<trkpt lat="-27.0382240" lon="152.8586385">
<ele>66.769</ele>
<time>2017-05-17T01:31:55.668Z</time>
</trkpt>
<trkpt lat="-27.0378358" lon="152.8583199">
<ele>66.708</ele>
<time>2017-05-17T01:31:58.676Z</time>
</trkpt>
<trkpt lat="-27.0375635" lon="152.8581378">
<ele>66.315</ele>
<time>2017-05-17T01:32:00.664Z</time>
</trkpt>
<trkpt lat="-27.0373214" lon="152.8579096">
<ele>65.793</ele>
<time>2017-05-17T01:32:02.644Z</time>
</trkpt>
<trkpt lat="-27.0369071" lon="152.8575763">
<ele>65.259</ele>
<time>2017-05-17T01:32:05.831Z</time>
</trkpt>
<trkpt lat="-27.0365823" lon="152.8572182">
<ele>64.722</ele>
<time>2017-05-17T01:32:08.692Z</time>
</trkpt>
<trkpt lat="-27.0363260" lon="152.8570006">
<ele>64.105</ele>
<time>2017-05-17T01:32:10.715Z</time>
</trkpt>
<trkpt lat="-27.0359674" lon="152.8566486">
<ele>63.374</ele>
<time>2017-05-17T01:32:13.703Z</time>
</trkpt>
<trkpt lat="-27.0356850" lon="152.8564674">
<ele>62.503</ele>
<time>2017-05-17T01:32:15.732Z</time>
</trkpt>
<trkpt lat="-27.0354679" lon="152.8562116">
<ele>61.540</ele>
<time>2017-05-17T01:32:17.691Z</time>
</trkpt>
<trkpt lat="-27.0350645" lon="152.8559561">
<ele>60.736</ele>
<time>2017-05-17T01:32:20.587Z</time>
</trkpt>
<trkpt lat="-27.0346348" lon="152.8557362">
<ele>60.169</ele>
<time>2017-05-17T01:32:23.569Z</time>
</trkpt>
<trkpt lat="-27.0343719" lon="152.8555333">
<ele>59.668</ele>
<time>2017-05-17T01:32:25.590Z</time>
</trkpt>
<trkpt lat="-27.0339495" lon="152.8552980">
<ele>59.187</ele>
<time>2017-05-17T01:32:28.575Z</time>
</trkpt>
<trkpt lat="-27.0335276" lon="152.8550743">
<ele>58.659</ele>
<time>2017-05-17T01:32:31.530Z</time>
</trkpt>
<trkpt lat="-27.0332758" lon="152.8548666">
<ele>57.942</ele>
<time>2017-05-17T01:32:33.499Z</time>
</trkpt>
<trkpt lat="-27.0328557" lon="152.8546479">
<ele>57.154</ele>
<time>2017-05-17T01:32:36.403Z</time>
</trkpt>
<trkpt lat="-27.0324447" lon="152.8544104">
<ele>56.581</ele>
<time>2017-05-17T01:32:39.177Z</time>
</trkpt>
<trkpt lat="-27.0320290" lon="152.8541708">
<ele>56.371</ele>
<time>2017-05-17T01:32:41.634Z</time>
</trkpt>
<trkpt lat="-27.0315961" lon="152.8539660">
<ele>56.453</ele>
<time>2017-05-17T01:32:43.839Z</time>
</trkpt>
<trkpt lat="-27.0312944" lon="152.8537966">
<ele>56.707</ele>
<time>2017-05-17T01:32:45.285Z</time>
</trkpt>
<trkpt lat="-27.0306058" lon="152.8535834">
<ele>57.230</ele>
<time>2017-05-17T01:32:48.288Z</time>
</trkpt>
<trkpt lat="-27.0301405" lon="152.8534829">
<ele>58.347</ele>
<time>2017-05-17T01:32:50.279Z</time>
</trkpt>
<trkpt lat="-27.0294288" lon="152.8534060">
<ele>60.036</ele>
<time>2017-05-17T01:32:53.336Z</time>
</trkpt>
<trkpt lat="-27.0289807" lon="152.8533408">
<ele>61.766</ele>
<time>2017-05-17T01:32:55.290Z</time>
</trkpt>
<trkpt lat="-27.0283444" lon="152.8532282">
<ele>63.021</ele>
<time>2017-05-17T01:32:58.069Z</time>
</trkpt>
<trkpt lat="-27.0276907" lon="152.8530050">
<ele>63.680</ele>
<time>2017-05-17T01:33:00.993Z</time>
</trkpt>
<trkpt lat="-27.0272880" lon="152.8527784">
<ele>63.901</ele>
<time>2017-05-17T01:33:02.913Z</time>
</trkpt>
<trkpt lat="-27.0268907" lon="152.8525312">
<ele>63.836</ele>
<time>2017-05-17T01:33:04.850Z</time>
</trkpt>
<trkpt lat="-27.0263157" lon="152.8520902">
<ele>63.490</ele>
<time>2017-05-17T01:33:07.833Z</time>
</trkpt>
<trkpt lat="-27.0257786" lon="152.8515950">
<ele>62.867</ele>
<time>2017-05-17T01:33:10.806Z</time>
</trkpt>
<trkpt lat="-27.0253740" lon="152.8509826">
<ele>62.044</ele>
<time>2017-05-17T01:33:13.713Z</time>
</trkpt>
<trkpt lat="-27.0249527" lon="152.8503387">
<ele>61.256</ele>
<time>2017-05-17T01:33:16.776Z</time>
</trkpt>
<trkpt lat="-27.0246715" lon="152.8499390">
<ele>60.791</ele>
<time>2017-05-17T01:33:18.734Z</time>
</trkpt>
<trkpt lat="-27.0242087" lon="152.8493826">
<ele>60.732</ele>
<time>2017-05-17T01:33:21.656Z</time>
</trkpt>
<trkpt lat="-27.0238523" lon="152.8490730">
<ele>61.143</ele>
<time>2017-05-17T01:33:23.593Z</time>
</trkpt>
<trkpt lat="-27.0232752" lon="152.8486593">
<ele>62.150</ele>
<time>2017-05-17T01:33:26.525Z</time>
</trkpt>
<trkpt lat="-27.0228719" lon="152.8484119">
<ele>63.617</ele>
<time>2017-05-17T01:33:28.490Z</time>
</trkpt>
<trkpt lat="-27.0224671" lon="152.8481816">
<ele>65.052</ele>
<time>2017-05-17T01:33:30.430Z</time>
</trkpt>
<trkpt lat="-27.0218554" lon="152.8478171">
<ele>65.989</ele>
<time>2017-05-17T01:33:33.399Z</time>
</trkpt>
<trkpt lat="-27.0214337" lon="152.8476179">
<ele>66.350</ele>
<time>2017-05-17T01:33:35.366Z</time>
</trkpt>
<trkpt lat="-27.0208357" lon="152.8472307">
<ele>66.348</ele>
<time>2017-05-17T01:33:38.338Z</time>
</trkpt>
<trkpt lat="-27.0203421" lon="152.8466951">
<ele>66.105</ele>
<time>2017-05-17T01:33:41.296Z</time>
</trkpt>
<trkpt lat="-27.0199221" lon="152.8460792">
<ele>65.681</ele>
<time>2017-05-17T01:33:44.272Z</time>
</trkpt>
<trkpt lat="-27.0196474" lon="152.8456667">
<ele>65.252</ele>
<time>2017-05-17T01:33:46.248Z</time>
</trkpt>
<trkpt lat="-27.0193734" lon="152.8452565">
<ele>65.060</ele>
<time>2017-05-17T01:33:48.214Z</time>
</trkpt>
<trkpt lat="-27.0190881" lon="152.8448578">
<ele>65.217</ele>
<time>2017-05-17T01:33:50.170Z</time>
</trkpt>
<trkpt lat="-27.0185726" lon="152.8443374">
<ele>65.721</ele>
<time>2017-05-17T01:33:53.138Z</time>
</trkpt>
<trkpt lat="-27.0182145" lon="152.8440176">
<ele>66.727</ele>
<time>2017-05-17T01:33:55.097Z</time>
</trkpt>
<trkpt lat="-27.0176927" lon="152.8435090">
<ele>68.280</ele>
<time>2017-05-17T01:33:58.064Z</time>
</trkpt>
<trkpt lat="-27.0173056" lon="152.8432326">
<ele>69.895</ele>
<time>2017-05-17T01:34:00.038Z</time>
</trkpt>
<trkpt lat="-27.0169162" lon="152.8429675">
<ele>71.012</ele>
<time>2017-05-17T01:34:02.008Z</time>
</trkpt>
<trkpt lat="-27.0164911" lon="152.8427829">
<ele>71.537</ele>
<time>2017-05-17T01:34:03.988Z</time>
</trkpt>
<trkpt lat="-27.0160861" lon="152.8425563">
<ele>71.872</ele>
<time>2017-05-17T01:34:05.946Z</time>
</trkpt>
<trkpt lat="-27.0154578" lon="152.8422775">
<ele>72.386</ele>
<time>2017-05-17T01:34:08.852Z</time>
</trkpt>
<trkpt lat="-27.0147957" lon="152.8420881">
<ele>72.912</ele>
<time>2017-05-17T01:34:11.779Z</time>
</trkpt>
<trkpt lat="-27.0143463" lon="152.8419832">
<ele>73.139</ele>
<time>2017-05-17T01:34:13.755Z</time>
</trkpt>
<trkpt lat="-27.0138992" lon="152.8418558">
<ele>73.085</ele>
<time>2017-05-17T01:34:15.743Z</time>
</trkpt>
<trkpt lat="-27.0134542" lon="152.8417588">
<ele>73.121</ele>
<time>2017-05-17T01:34:17.689Z</time>
</trkpt>
<trkpt lat="-27.0127807" lon="152.8416261">
<ele>73.667</ele>
<time>2017-05-17T01:34:20.623Z</time>
</trkpt>
<trkpt lat="-27.0123354" lon="152.8414962">
<ele>74.761</ele>
<time>2017-05-17T01:34:22.608Z</time>
</trkpt>
<trkpt lat="-27.0118832" lon="152.8414177">
<ele>75.983</ele>
<time>2017-05-17T01:34:24.593Z</time>
</trkpt>
<trkpt lat="-27.0112558" lon="152.8411141">
<ele>76.844</ele>
<time>2017-05-17T01:34:27.563Z</time>
</trkpt>
<trkpt lat="-27.0106761" lon="152.8407110">
<ele>77.325</ele>
<time>2017-05-17T01:34:30.535Z</time>
</trkpt>
<trkpt lat="-27.0101294" lon="152.8402524">
<ele>78.099</ele>
<time>2017-05-17T01:34:33.532Z</time>
</trkpt>
<trkpt lat="-27.0097997" lon="152.8399088">
<ele>79.727</ele>
<time>2017-05-17T01:34:35.512Z</time>
</trkpt>
<trkpt lat="-27.0092931" lon="152.8394227">
<ele>81.709</ele>
<time>2017-05-17T01:34:38.394Z</time>
</trkpt>
<trkpt lat="-27.0089693" lon="152.8390897">
<ele>83.060</ele>
<time>2017-05-17T01:34:40.258Z</time>
</trkpt>
<trkpt lat="-27.0083633" lon="152.8384927">
<ele>83.380</ele>
<time>2017-05-17T01:34:43.664Z</time>
</trkpt>
<trkpt lat="-27.0080702" lon="152.8381137">
<ele>82.645</ele>
<time>2017-05-17T01:34:45.580Z</time>
</trkpt>
<trkpt lat="-27.0077243" lon="152.8377871">
<ele>81.111</ele>
<time>2017-05-17T01:34:47.556Z</time>
</trkpt>
<trkpt lat="-27.0072437" lon="152.8372792">
<ele>79.504</ele>
<time>2017-05-17T01:34:50.488Z</time>
</trkpt>
<trkpt lat="-27.0068381" lon="152.8366987">
<ele>78.391</ele>
<time>2017-05-17T01:34:53.424Z</time>
</trkpt>
<trkpt lat="-27.0066866" lon="152.8362532">
<ele>77.450</ele>
<time>2017-05-17T01:34:55.299Z</time>
</trkpt>
<trkpt lat="-27.0064999" lon="152.8355250">
<ele>76.026</ele>
<time>2017-05-17T01:34:58.247Z</time>
</trkpt>
<trkpt lat="-27.0064645" lon="152.8350201">
<ele>73.827</ele>
<time>2017-05-17T01:35:00.222Z</time>
</trkpt>
<trkpt lat="-27.0064391" lon="152.8345093">
<ele>71.053</ele>
<time>2017-05-17T01:35:02.229Z</time>
</trkpt>
<trkpt lat="-27.0064595" lon="152.8340057">
<ele>68.270</ele>
<time>2017-05-17T01:35:04.195Z</time>
</trkpt>
<trkpt lat="-27.0062478" lon="152.8332678">
<ele>65.951</ele>
<time>2017-05-17T01:35:07.198Z</time>
</trkpt>
<trkpt lat="-27.0058104" lon="152.8326464">
<ele>64.036</ele>
<time>2017-05-17T01:35:10.261Z</time>
</trkpt>
<trkpt lat="-27.0054635" lon="152.8323150">
<ele>62.489</ele>
<time>2017-05-17T01:35:12.247Z</time>
</trkpt>
<trkpt lat="-27.0048677" lon="152.8319367">
<ele>61.533</ele>
<time>2017-05-17T01:35:15.251Z</time>
</trkpt>
<trkpt lat="-27.0044576" lon="152.8317195">
<ele>61.275</ele>
<time>2017-05-17T01:35:17.232Z</time>
</trkpt>
<trkpt lat="-27.0038399" lon="152.8314174">
<ele>61.651</ele>
<time>2017-05-17T01:35:20.124Z</time>
</trkpt>
<trkpt lat="-27.0034116" lon="152.8312117">
<ele>62.744</ele>
<time>2017-05-17T01:35:22.111Z</time>
</trkpt>
<trkpt lat="-27.0027621" lon="152.8309695">
<ele>64.440</ele>
<time>2017-05-17T01:35:25.044Z</time>
</trkpt>
<trkpt lat="-27.0023501" lon="152.8307492">
<ele>66.101</ele>
<time>2017-05-17T01:35:27.005Z</time>
</trkpt>
<trkpt lat="-27.0017244" lon="152.8304310">
<ele>67.110</ele>
<time>2017-05-17T01:35:29.964Z</time>
</trkpt>
<trkpt lat="-27.0010821" lon="152.8301705">
<ele>67.295</ele>
<time>2017-05-17T01:35:32.926Z</time>
</trkpt>
<trkpt lat="-27.0004731" lon="152.8298281">
<ele>66.788</ele>
<time>2017-05-17T01:35:35.897Z</time>
</trkpt>
<trkpt lat="-27.0000181" lon="152.8292681">
<ele>66.034</ele>
<time>2017-05-17T01:35:38.826Z</time>
</trkpt>
<trkpt lat="-26.9997904" lon="152.8288200">
<ele>65.774</ele>
<time>2017-05-17T01:35:40.823Z</time>
</trkpt>
<trkpt lat="-26.9995865" lon="152.8280909">
<ele>66.475</ele>
<time>2017-05-17T01:35:43.801Z</time>
</trkpt>
<trkpt lat="-26.9995394" lon="152.8273450">
<ele>68.056</ele>
<time>2017-05-17T01:35:46.685Z</time>
</trkpt>
<trkpt lat="-26.9995899" lon="152.8268325">
<ele>70.272</ele>
<time>2017-05-17T01:35:48.648Z</time>
</trkpt>
<trkpt lat="-26.9995624" lon="152.8263068">
<ele>72.795</ele>
<time>2017-05-17T01:35:50.648Z</time>
</trkpt>
<trkpt lat="-26.9995576" lon="152.8255286">
<ele>75.148</ele>
<time>2017-05-17T01:35:53.598Z</time>
</trkpt>
<trkpt lat="-26.9994375" lon="152.8250253">
<ele>77.094</ele>
<time>2017-05-17T01:35:55.576Z</time>
</trkpt>
<trkpt lat="-26.9991752" lon="152.8243032">
<ele>78.491</ele>
<time>2017-05-17T01:35:58.562Z</time>
</trkpt>
<trkpt lat="-26.9988974" lon="152.8236075">
<ele>78.985</ele>
<time>2017-05-17T01:36:01.507Z</time>
</trkpt>
<trkpt lat="-26.9984362" lon="152.8230543">
<ele>78.324</ele>
<time>2017-05-17T01:36:04.449Z</time>
</trkpt>
<trkpt lat="-26.9981563" lon="152.8226558">
<ele>76.863</ele>
<time>2017-05-17T01:36:06.428Z</time>
</trkpt>
<trkpt lat="-26.9977482" lon="152.8220539">
<ele>75.455</ele>
<time>2017-05-17T01:36:09.398Z</time>
</trkpt>
<trkpt lat="-26.9973823" lon="152.8214186">
<ele>74.884</ele>
<time>2017-05-17T01:36:12.371Z</time>
</trkpt>
<trkpt lat="-26.9969439" lon="152.8208478">
<ele>75.640</ele>
<time>2017-05-17T01:36:15.298Z</time>
</trkpt>
<trkpt lat="-26.9966598" lon="152.8204507">
<ele>77.938</ele>
<time>2017-05-17T01:36:17.261Z</time>
</trkpt>
<trkpt lat="-26.9962004" lon="152.8198638">
<ele>80.965</ele>
<time>2017-05-17T01:36:20.240Z</time>
</trkpt>
<trkpt lat="-26.9959563" lon="152.8194238">
<ele>83.367</ele>
<time>2017-05-17T01:36:22.214Z</time>
</trkpt>
<trkpt lat="-26.9956980" lon="152.8186999">
<ele>84.666</ele>
<time>2017-05-17T01:36:25.190Z</time>
</trkpt>
<trkpt lat="-26.9953855" lon="152.8180162">
<ele>85.312</ele>
<time>2017-05-17T01:36:28.155Z</time>
</trkpt>
<trkpt lat="-26.9949858" lon="152.8174118">
<ele>85.900</ele>
<time>2017-05-17T01:36:31.087Z</time>
</trkpt>
<trkpt lat="-26.9944179" lon="152.8169984">
<ele>87.101</ele>
<time>2017-05-17T01:36:34.044Z</time>
</trkpt>
<trkpt lat="-26.9940266" lon="152.8167388">
<ele>89.380</ele>
<time>2017-05-17T01:36:36.022Z</time>
</trkpt>
<trkpt lat="-26.9936362" lon="152.8164737">
<ele>92.336</ele>
<time>2017-05-17T01:36:38.046Z</time>
</trkpt>
<trkpt lat="-26.9931852" lon="152.8163794">
<ele>94.907</ele>
<time>2017-05-17T01:36:40.130Z</time>
</trkpt>
<trkpt lat="-26.9925662" lon="152.8162218">
<ele>96.801</ele>
<time>2017-05-17T01:36:43.245Z</time>
</trkpt>
<trkpt lat="-26.9922202" lon="152.8160230">
<ele>98.876</ele>
<time>2017-05-17T01:36:45.201Z</time>
</trkpt>
<trkpt lat="-26.9919609" lon="152.8157003">
<ele>101.796</ele>
<time>2017-05-17T01:36:47.149Z</time>
</trkpt>
<trkpt lat="-26.9917964" lon="152.8153114">
<ele>105.245</ele>
<time>2017-05-17T01:36:49.038Z</time>
</trkpt>
<trkpt lat="-26.9917127" lon="152.8148726">
<ele>108.628</ele>
<time>2017-05-17T01:36:50.977Z</time>
</trkpt>
<trkpt lat="-26.9917371" lon="152.8141301">
<ele>111.744</ele>
<time>2017-05-17T01:36:54.061Z</time>
</trkpt>
<trkpt lat="-26.9919136" lon="152.8136846">
<ele>114.908</ele>
<time>2017-05-17T01:36:56.033Z</time>
</trkpt>
<trkpt lat="-26.9922029" lon="152.8133077">
<ele>118.593</ele>
<time>2017-05-17T01:36:58.016Z</time>
</trkpt>
<trkpt lat="-26.9924762" lon="152.8129163">
<ele>122.687</ele>
<time>2017-05-17T01:36:59.968Z</time>
</trkpt>
<trkpt lat="-26.9926646" lon="152.8124620">
<ele>126.684</ele>
<time>2017-05-17T01:37:01.919Z</time>
</trkpt>
<trkpt lat="-26.9927591" lon="152.8117003">
<ele>130.032</ele>
<time>2017-05-17T01:37:04.891Z</time>
</trkpt>
<trkpt lat="-26.9927273" lon="152.8111938">
<ele>132.365</ele>
<time>2017-05-17T01:37:06.859Z</time>
</trkpt>
<trkpt lat="-26.9926483" lon="152.8104398">
<ele>133.796</ele>
<time>2017-05-17T01:37:09.800Z</time>
</trkpt>
<trkpt lat="-26.9927578" lon="152.8096728">
<ele>134.659</ele>
<time>2017-05-17T01:37:12.794Z</time>
</trkpt>
<trkpt lat="-26.9929084" lon="152.8089273">
<ele>135.175</ele>
<time>2017-05-17T01:37:15.738Z</time>
</trkpt>
<trkpt lat="-26.9929804" lon="152.8084190">
<ele>135.448</ele>
<time>2017-05-17T01:37:17.724Z</time>
</trkpt>
<trkpt lat="-26.9930132" lon="152.8076576">
<ele>135.524</ele>
<time>2017-05-17T01:37:20.682Z</time>
</trkpt>
<trkpt lat="-26.9929920" lon="152.8071569">
<ele>135.506</ele>
<time>2017-05-17T01:37:22.627Z</time>
</trkpt>
<trkpt lat="-26.9928996" lon="152.8064005">
<ele>135.479</ele>
<time>2017-05-17T01:37:25.599Z</time>
</trkpt>
<trkpt lat="-26.9927801" lon="152.8059036">
<ele>135.615</ele>
<time>2017-05-17T01:37:27.636Z</time>
</trkpt>
<trkpt lat="-26.9925989" lon="152.8051997">
<ele>135.990</ele>
<time>2017-05-17T01:37:30.708Z</time>
</trkpt>
<trkpt lat="-26.9924393" lon="152.8047848">
<ele>136.243</ele>
<time>2017-05-17T01:37:32.786Z</time>
</trkpt>
<trkpt lat="-26.9922512" lon="152.8044365">
<ele>135.865</ele>
<time>2017-05-17T01:37:34.825Z</time>
</trkpt>
<trkpt lat="-26.9920670" lon="152.8041151">
<ele>134.733</ele>
<time>2017-05-17T01:37:36.923Z</time>
</trkpt>
<trkpt lat="-26.9918798" lon="152.8038470">
<ele>133.086</ele>
<time>2017-05-17T01:37:38.899Z</time>
</trkpt>
<trkpt lat="-26.9917270" lon="152.8035680">
<ele>131.262</ele>
<time>2017-05-17T01:37:40.812Z</time>
</trkpt>
<trkpt lat="-26.9914038" lon="152.8032093">
<ele>129.497</ele>
<time>2017-05-17T01:37:43.727Z</time>
</trkpt>
<trkpt lat="-26.9910924" lon="152.8028163">
<ele>127.919</ele>
<time>2017-05-17T01:37:46.696Z</time>
</trkpt>
<trkpt lat="-26.9908750" lon="152.8025715">
<ele>126.573</ele>
<time>2017-05-17T01:37:48.646Z</time>
</trkpt>
<trkpt lat="-26.9905372" lon="152.8022184">
<ele>125.542</ele>
<time>2017-05-17T01:37:51.567Z</time>
</trkpt>
<trkpt lat="-26.9903266" lon="152.8019608">
<ele>124.776</ele>
<time>2017-05-17T01:37:53.547Z</time>
</trkpt>
<trkpt lat="-26.9901301" lon="152.8017003">
<ele>123.970</ele>
<time>2017-05-17T01:37:55.500Z</time>
</trkpt>
<trkpt lat="-26.9898247" lon="152.8013210">
<ele>122.882</ele>
<time>2017-05-17T01:37:58.473Z</time>
</trkpt>
<trkpt lat="-26.9895821" lon="152.8009085">
<ele>121.599</ele>
<time>2017-05-17T01:38:01.366Z</time>
</trkpt>
<trkpt lat="-26.9894175" lon="152.8006286">
<ele>120.475</ele>
<time>2017-05-17T01:38:03.307Z</time>
</trkpt>
<trkpt lat="-26.9892146" lon="152.8003710">
<ele>119.912</ele>
<time>2017-05-17T01:38:05.283Z</time>
</trkpt>
<trkpt lat="-26.9889839" lon="152.7999189">
<ele>119.998</ele>
<time>2017-05-17T01:38:08.275Z</time>
</trkpt>
<trkpt lat="-26.9887429" lon="152.7997006">
<ele>120.569</ele>
<time>2017-05-17T01:38:10.268Z</time>
</trkpt>
<trkpt lat="-26.9884332" lon="152.7993217">
<ele>121.359</ele>
<time>2017-05-17T01:38:13.190Z</time>
</trkpt>
<trkpt lat="-26.9882187" lon="152.7990654">
<ele>122.014</ele>
<time>2017-05-17T01:38:15.170Z</time>
</trkpt>
<trkpt lat="-26.9878951" lon="152.7986931">
<ele>122.329</ele>
<time>2017-05-17T01:38:18.121Z</time>
</trkpt>
<trkpt lat="-26.9875908" lon="152.7983102">
<ele>122.403</ele>
<time>2017-05-17T01:38:21.052Z</time>
</trkpt>
<trkpt lat="-26.9873703" lon="152.7980777">
<ele>122.485</ele>
<time>2017-05-17T01:38:22.993Z</time>
</trkpt>
<trkpt lat="-26.9870484" lon="152.7977102">
<ele>122.803</ele>
<time>2017-05-17T01:38:25.933Z</time>
</trkpt>
<trkpt lat="-26.9868136" lon="152.7974822">
<ele>123.441</ele>
<time>2017-05-17T01:38:27.917Z</time>
</trkpt>
<trkpt lat="-26.9864630" lon="152.7971417">
<ele>124.260</ele>
<time>2017-05-17T01:38:30.887Z</time>
</trkpt>
<trkpt lat="-26.9861237" lon="152.7968005">
<ele>124.986</ele>
<time>2017-05-17T01:38:33.803Z</time>
</trkpt>
<trkpt lat="-26.9858761" lon="152.7965846">
<ele>125.423</ele>
<time>2017-05-17T01:38:35.799Z</time>
</trkpt>
<trkpt lat="-26.9854841" lon="152.7963030">
<ele>125.542</ele>
<time>2017-05-17T01:38:38.767Z</time>
</trkpt>
<trkpt lat="-26.9850811" lon="152.7960519">
<ele>125.385</ele>
<time>2017-05-17T01:38:41.702Z</time>
</trkpt>
<trkpt lat="-26.9846516" lon="152.7958572">
<ele>125.061</ele>
<time>2017-05-17T01:38:44.637Z</time>
</trkpt>
<trkpt lat="-26.9844025" lon="152.7956363">
<ele>124.742</ele>
<time>2017-05-17T01:38:46.601Z</time>
</trkpt>
<trkpt lat="-26.9840999" lon="152.7955027">
<ele>124.515</ele>
<time>2017-05-17T01:38:48.473Z</time>
</trkpt>
<trkpt lat="-26.9835860" lon="152.7952713">
<ele>124.367</ele>
<time>2017-05-17T01:38:51.453Z</time>
</trkpt>
<trkpt lat="-26.9831936" lon="152.7951326">
<ele>124.353</ele>
<time>2017-05-17T01:38:53.476Z</time>
</trkpt>
<trkpt lat="-26.9828037" lon="152.7949668">
<ele>124.503</ele>
<time>2017-05-17T01:38:55.482Z</time>
</trkpt>
<trkpt lat="-26.9822255" lon="152.7947163">
<ele>124.620</ele>
<time>2017-05-17T01:38:58.472Z</time>
</trkpt>
<trkpt lat="-26.9818605" lon="152.7945312">
<ele>124.513</ele>
<time>2017-05-17T01:39:00.423Z</time>
</trkpt>
<trkpt lat="-26.9813040" lon="152.7942614">
<ele>124.218</ele>
<time>2017-05-17T01:39:03.379Z</time>
</trkpt>
<trkpt lat="-26.9809296" lon="152.7940816">
<ele>123.676</ele>
<time>2017-05-17T01:39:05.363Z</time>
</trkpt>
<trkpt lat="-26.9805682" lon="152.7938666">
<ele>122.723</ele>
<time>2017-05-17T01:39:07.355Z</time>
</trkpt>
<trkpt lat="-26.9800253" lon="152.7934527">
<ele>121.523</ele>
<time>2017-05-17T01:39:10.556Z</time>
</trkpt>
<trkpt lat="-26.9797258" lon="152.7931784">
<ele>120.533</ele>
<time>2017-05-17T01:39:12.448Z</time>
</trkpt>
<trkpt lat="-26.9792175" lon="152.7928417">
<ele>120.102</ele>
<time>2017-05-17T01:39:15.335Z</time>
</trkpt>
<trkpt lat="-26.9788576" lon="152.7926082">
<ele>120.307</ele>
<time>2017-05-17T01:39:17.357Z</time>
</trkpt>
<trkpt lat="-26.9785422" lon="152.7923330">
<ele>120.960</ele>
<time>2017-05-17T01:39:19.301Z</time>
</trkpt>
<trkpt lat="-26.9782076" lon="152.7920904">
<ele>121.726</ele>
<time>2017-05-17T01:39:21.244Z</time>
</trkpt>
<trkpt lat="-26.9776966" lon="152.7917201">
<ele>122.343</ele>
<time>2017-05-17T01:39:24.209Z</time>
</trkpt>
<trkpt lat="-26.9771803" lon="152.7913686">
<ele>122.776</ele>
<time>2017-05-17T01:39:27.148Z</time>
</trkpt>
<trkpt lat="-26.9768272" lon="152.7911342">
<ele>123.081</ele>
<time>2017-05-17T01:39:29.139Z</time>
</trkpt>
<trkpt lat="-26.9764757" lon="152.7909016">
<ele>123.264</ele>
<time>2017-05-17T01:39:31.114Z</time>
</trkpt>
<trkpt lat="-26.9759445" lon="152.7905548">
<ele>123.341</ele>
<time>2017-05-17T01:39:34.080Z</time>
</trkpt>
<trkpt lat="-26.9754016" lon="152.7902244">
<ele>123.279</ele>
<time>2017-05-17T01:39:37.061Z</time>
</trkpt>
<trkpt lat="-26.9750794" lon="152.7899550">
<ele>122.975</ele>
<time>2017-05-17T01:39:39.015Z</time>
</trkpt>
<trkpt lat="-26.9745803" lon="152.7895862">
<ele>122.389</ele>
<time>2017-05-17T01:39:41.932Z</time>
</trkpt>
<trkpt lat="-26.9742273" lon="152.7893506">
<ele>121.600</ele>
<time>2017-05-17T01:39:43.926Z</time>
</trkpt>
<trkpt lat="-26.9738873" lon="152.7891087">
<ele>120.784</ele>
<time>2017-05-17T01:39:45.874Z</time>
</trkpt>
<trkpt lat="-26.9733969" lon="152.7887189">
<ele>120.173</ele>
<time>2017-05-17T01:39:48.786Z</time>
</trkpt>
<trkpt lat="-26.9730439" lon="152.7884948">
<ele>119.949</ele>
<time>2017-05-17T01:39:50.755Z</time>
</trkpt>
<trkpt lat="-26.9725254" lon="152.7881483">
<ele>120.076</ele>
<time>2017-05-17T01:39:53.688Z</time>
</trkpt>
<trkpt lat="-26.9719961" lon="152.7878088">
<ele>120.314</ele>
<time>2017-05-17T01:39:56.654Z</time>
</trkpt>
<trkpt lat="-26.9714804" lon="152.7874461">
<ele>120.553</ele>
<time>2017-05-17T01:39:59.603Z</time>
</trkpt>
<trkpt lat="-26.9711487" lon="152.7871821">
<ele>120.877</ele>
<time>2017-05-17T01:40:01.569Z</time>
</trkpt>
<trkpt lat="-26.9708313" lon="152.7869102">
<ele>121.291</ele>
<time>2017-05-17T01:40:03.508Z</time>
</trkpt>
<trkpt lat="-26.9703432" lon="152.7864980">
<ele>121.703</ele>
<time>2017-05-17T01:40:06.487Z</time>
</trkpt>
<trkpt lat="-26.9698747" lon="152.7860730">
<ele>122.090</ele>
<time>2017-05-17T01:40:09.427Z</time>
</trkpt>
<trkpt lat="-26.9694241" lon="152.7856202">
<ele>122.424</ele>
<time>2017-05-17T01:40:12.380Z</time>
</trkpt>
<trkpt lat="-26.9690795" lon="152.7853750">
<ele>122.612</ele>
<time>2017-05-17T01:40:14.361Z</time>
</trkpt>
<trkpt lat="-26.9687825" lon="152.7850602">
<ele>122.614</ele>
<time>2017-05-17T01:40:16.339Z</time>
</trkpt>
<trkpt lat="-26.9683088" lon="152.7846585">
<ele>122.503</ele>
<time>2017-05-17T01:40:19.249Z</time>
</trkpt>
<trkpt lat="-26.9679970" lon="152.7843938">
<ele>122.358</ele>
<time>2017-05-17T01:40:21.202Z</time>
</trkpt>
<trkpt lat="-26.9675060" lon="152.7840190">
<ele>122.174</ele>
<time>2017-05-17T01:40:24.176Z</time>
</trkpt>
<trkpt lat="-26.9670577" lon="152.7835832">
<ele>121.851</ele>
<time>2017-05-17T01:40:27.130Z</time>
</trkpt>
<trkpt lat="-26.9667375" lon="152.7833157">
<ele>121.205</ele>
<time>2017-05-17T01:40:29.105Z</time>
</trkpt>
<trkpt lat="-26.9664384" lon="152.7830273">
<ele>120.092</ele>
<time>2017-05-17T01:40:31.057Z</time>
</trkpt>
<trkpt lat="-26.9659777" lon="152.7826203">
<ele>118.570</ele>
<time>2017-05-17T01:40:33.992Z</time>
</trkpt>
<trkpt lat="-26.9656467" lon="152.7824184">
<ele>116.686</ele>
<time>2017-05-17T01:40:35.942Z</time>
</trkpt>
<trkpt lat="-26.9653706" lon="152.7822121">
<ele>114.440</ele>
<time>2017-05-17T01:40:37.762Z</time>
</trkpt>
<trkpt lat="-26.9649790" lon="152.7819876">
<ele>111.997</ele>
<time>2017-05-17T01:40:40.402Z</time>
</trkpt>
<trkpt lat="-26.9647100" lon="152.7818677">
<ele>109.450</ele>
<time>2017-05-17T01:40:42.254Z</time>
</trkpt>
<trkpt lat="-26.9643241" lon="152.7816233">
<ele>106.894</ele>
<time>2017-05-17T01:40:45.191Z</time>
</trkpt>
<trkpt lat="-26.9639047" lon="152.7814423">
<ele>104.652</ele>
<time>2017-05-17T01:40:48.173Z</time>
</trkpt>
<trkpt lat="-26.9636466" lon="152.7812852">
<ele>102.974</ele>
<time>2017-05-17T01:40:50.113Z</time>
</trkpt>
<trkpt lat="-26.9634109" lon="152.7810696">
<ele>101.952</ele>
<time>2017-05-17T01:40:52.119Z</time>
</trkpt>
<trkpt lat="-26.9630044" lon="152.7808768">
<ele>101.617</ele>
<time>2017-05-17T01:40:55.049Z</time>
</trkpt>
<trkpt lat="-26.9627433" lon="152.7807437">
<ele>101.850</ele>
<time>2017-05-17T01:40:56.968Z</time>
</trkpt>
<trkpt lat="-26.9625126" lon="152.7805478">
<ele>102.421</ele>
<time>2017-05-17T01:40:58.922Z</time>
</trkpt>
<trkpt lat="-26.9621121" lon="152.7803700">
<ele>103.084</ele>
<time>2017-05-17T01:41:01.864Z</time>
</trkpt>
<trkpt lat="-26.9619038" lon="152.7801920">
<ele>103.729</ele>
<time>2017-05-17T01:41:03.684Z</time>
</trkpt>
<trkpt lat="-26.9615668" lon="152.7800477">
<ele>104.322</ele>
<time>2017-05-17T01:41:06.355Z</time>
</trkpt>
<trkpt lat="-26.9613494" lon="152.7799084">
<ele>104.853</ele>
<time>2017-05-17T01:41:08.297Z</time>
</trkpt>
<trkpt lat="-26.9611178" lon="152.7797780">
<ele>105.393</ele>
<time>2017-05-17T01:41:10.365Z</time>
</trkpt>
<trkpt lat="-26.9608759" lon="152.7796576">
<ele>105.969</ele>
<time>2017-05-17T01:41:12.411Z</time>
</trkpt>
<trkpt lat="-26.9606478" lon="152.7795327">
<ele>106.467</ele>
<time>2017-05-17T01:41:14.320Z</time>
</trkpt>
<trkpt lat="-26.9603859" lon="152.7794623">
<ele>106.805</ele>
<time>2017-05-17T01:41:16.326Z</time>
</trkpt>
<trkpt lat="-26.9599915" lon="152.7793397">
<ele>107.172</ele>
<time>2017-05-17T01:41:19.342Z</time>
</trkpt>
<trkpt lat="-26.9595915" lon="152.7792542">
<ele>107.839</ele>
<time>2017-05-17T01:41:22.309Z</time>
</trkpt>
<trkpt lat="-26.9593270" lon="152.7791998">
<ele>108.650</ele>
<time>2017-05-17T01:41:24.263Z</time>
</trkpt>
<trkpt lat="-26.9590677" lon="152.7791498">
<ele>109.223</ele>
<time>2017-05-17T01:41:26.184Z</time>
</trkpt>
<trkpt lat="-26.9586859" lon="152.7790354">
<ele>109.454</ele>
<time>2017-05-17T01:41:29.096Z</time>
</trkpt>
<trkpt lat="-26.9584291" lon="152.7789188">
<ele>109.476</ele>
<time>2017-05-17T01:41:31.141Z</time>
</trkpt>
<trkpt lat="-26.9581571" lon="152.7788637">
<ele>109.448</ele>
<time>2017-05-17T01:41:33.157Z</time>
</trkpt>
<trkpt lat="-26.9577409" lon="152.7787725">
<ele>109.495</ele>
<time>2017-05-17T01:41:36.184Z</time>
</trkpt>
<trkpt lat="-26.9574687" lon="152.7787082">
<ele>109.638</ele>
<time>2017-05-17T01:41:38.151Z</time>
</trkpt>
<trkpt lat="-26.9570524" lon="152.7785945">
<ele>109.788</ele>
<time>2017-05-17T01:41:41.161Z</time>
</trkpt>
<trkpt lat="-26.9567790" lon="152.7785542">
<ele>109.876</ele>
<time>2017-05-17T01:41:43.093Z</time>
</trkpt>
<trkpt lat="-26.9563991" lon="152.7783920">
<ele>109.929</ele>
<time>2017-05-17T01:41:45.996Z</time>
</trkpt>
<trkpt lat="-26.9560122" lon="152.7782689">
<ele>110.011</ele>
<time>2017-05-17T01:41:48.928Z</time>
</trkpt>
<trkpt lat="-26.9556406" lon="152.7781886">
<ele>110.116</ele>
<time>2017-05-17T01:41:51.730Z</time>
</trkpt>
<trkpt lat="-26.9554093" lon="152.7781392">
<ele>110.187</ele>
<time>2017-05-17T01:41:53.510Z</time>
</trkpt>
<trkpt lat="-26.9552124" lon="152.7780568">
<ele>110.157</ele>
<time>2017-05-17T01:41:55.170Z</time>
</trkpt>
<trkpt lat="-26.9550004" lon="152.7780088">
<ele>109.975</ele>
<time>2017-05-17T01:41:56.979Z</time>
</trkpt>
<trkpt lat="-26.9546857" lon="152.7778723">
<ele>109.648</ele>
<time>2017-05-17T01:41:59.982Z</time>
</trkpt>
<trkpt lat="-26.9543457" lon="152.7777782">
<ele>109.228</ele>
<time>2017-05-17T01:42:03.117Z</time>
</trkpt>
<trkpt lat="-26.9541154" lon="152.7777303">
<ele>108.793</ele>
<time>2017-05-17T01:42:05.140Z</time>
</trkpt>
<trkpt lat="-26.9538929" lon="152.7776484">
<ele>108.440</ele>
<time>2017-05-17T01:42:07.135Z</time>
</trkpt>
<trkpt lat="-26.9535411" lon="152.7775544">
<ele>108.221</ele>
<time>2017-05-17T01:42:10.165Z</time>
</trkpt>
<trkpt lat="-26.9533212" lon="152.7774507">
<ele>108.108</ele>
<time>2017-05-17T01:42:12.138Z</time>
</trkpt>
<trkpt lat="-26.9531066" lon="152.7773534">
<ele>108.033</ele>
<time>2017-05-17T01:42:14.049Z</time>
</trkpt>
<trkpt lat="-26.9527753" lon="152.7772858">
<ele>107.912</ele>
<time>2017-05-17T01:42:16.838Z</time>
</trkpt>
<trkpt lat="-26.9524326" lon="152.7771272">
<ele>107.692</ele>
<time>2017-05-17T01:42:19.993Z</time>
</trkpt>
<trkpt lat="-26.9519965" lon="152.7769932">
<ele>107.430</ele>
<time>2017-05-17T01:42:23.629Z</time>
</trkpt>
<trkpt lat="-26.9515386" lon="152.7768722">
<ele>107.238</ele>
<time>2017-05-17T01:42:26.915Z</time>
</trkpt>
<trkpt lat="-26.9512309" lon="152.7768423">
<ele>107.060</ele>
<time>2017-05-17T01:42:28.921Z</time>
</trkpt>
<trkpt lat="-26.9509471" lon="152.7767364">
<ele>106.694</ele>
<time>2017-05-17T01:42:30.827Z</time>
</trkpt>
<trkpt lat="-26.9504987" lon="152.7766562">
<ele>106.026</ele>
<time>2017-05-17T01:42:33.767Z</time>
</trkpt>
<trkpt lat="-26.9500810" lon="152.7764402">
<ele>105.017</ele>
<time>2017-05-17T01:42:36.766Z</time>
</trkpt>
<trkpt lat="-26.9497620" lon="152.7760889">
<ele>103.712</ele>
<time>2017-05-17T01:42:39.685Z</time>
</trkpt>
<trkpt lat="-26.9494898" lon="152.7756655">
<ele>102.347</ele>
<time>2017-05-17T01:42:42.724Z</time>
</trkpt>
<trkpt lat="-26.9492186" lon="152.7754131">
<ele>101.112</ele>
<time>2017-05-17T01:42:45.017Z</time>
</trkpt>
<trkpt lat="-26.9489636" lon="152.7749754">
<ele>100.017</ele>
<time>2017-05-17T01:42:48.002Z</time>
</trkpt>
<trkpt lat="-26.9487960" lon="152.7746959">
<ele>99.089</ele>
<time>2017-05-17T01:42:49.921Z</time>
</trkpt>
<trkpt lat="-26.9484353" lon="152.7743738">
<ele>98.387</ele>
<time>2017-05-17T01:42:52.924Z</time>
</trkpt>
<trkpt lat="-26.9481352" lon="152.7739544">
<ele>97.868</ele>
<time>2017-05-17T01:42:56.041Z</time>
</trkpt>
<trkpt lat="-26.9476881" lon="152.7735198">
<ele>97.494</ele>
<time>2017-05-17T01:42:59.546Z</time>
</trkpt>
<trkpt lat="-26.9472040" lon="152.7730507">
<ele>97.547</ele>
<time>2017-05-17T01:43:02.776Z</time>
</trkpt>
<trkpt lat="-26.9468833" lon="152.7727939">
<ele>98.366</ele>
<time>2017-05-17T01:43:04.654Z</time>
</trkpt>
<trkpt lat="-26.9465658" lon="152.7725323">
<ele>99.641</ele>
<time>2017-05-17T01:43:06.552Z</time>
</trkpt>
<trkpt lat="-26.9460779" lon="152.7721265">
<ele>100.667</ele>
<time>2017-05-17T01:43:09.552Z</time>
</trkpt>
<trkpt lat="-26.9457232" lon="152.7719022">
<ele>101.140</ele>
<time>2017-05-17T01:43:11.554Z</time>
</trkpt>
<trkpt lat="-26.9454021" lon="152.7716328">
<ele>101.177</ele>
<time>2017-05-17T01:43:13.507Z</time>
</trkpt>
<trkpt lat="-26.9449119" lon="152.7712442">
<ele>101.018</ele>
<time>2017-05-17T01:43:16.435Z</time>
</trkpt>
<trkpt lat="-26.9445600" lon="152.7710276">
<ele>100.880</ele>
<time>2017-05-17T01:43:18.401Z</time>
</trkpt>
<trkpt lat="-26.9442542" lon="152.7707304">
<ele>100.879</ele>
<time>2017-05-17T01:43:20.395Z</time>
</trkpt>
<trkpt lat="-26.9437702" lon="152.7703283">
<ele>100.995</ele>
<time>2017-05-17T01:43:23.359Z</time>
</trkpt>
<trkpt lat="-26.9432756" lon="152.7699332">
<ele>101.175</ele>
<time>2017-05-17T01:43:26.337Z</time>
</trkpt>
<trkpt lat="-26.9430012" lon="152.7695971">
<ele>101.441</ele>
<time>2017-05-17T01:43:28.325Z</time>
</trkpt>
<trkpt lat="-26.9425382" lon="152.7691638">
<ele>101.837</ele>
<time>2017-05-17T01:43:31.271Z</time>
</trkpt>
<trkpt lat="-26.9422874" lon="152.7688126">
<ele>102.294</ele>
<time>2017-05-17T01:43:33.231Z</time>
</trkpt>
<trkpt lat="-26.9420159" lon="152.7684925">
<ele>102.697</ele>
<time>2017-05-17T01:43:35.165Z</time>
</trkpt>
<trkpt lat="-26.9416574" lon="152.7679480">
<ele>103.024</ele>
<time>2017-05-17T01:43:38.140Z</time>
</trkpt>
<trkpt lat="-26.9414052" lon="152.7675859">
<ele>103.359</ele>
<time>2017-05-17T01:43:40.150Z</time>
</trkpt>
<trkpt lat="-26.9412053" lon="152.7671931">
<ele>103.809</ele>
<time>2017-05-17T01:43:42.111Z</time>
</trkpt>
<trkpt lat="-26.9409591" lon="152.7668378">
<ele>104.383</ele>
<time>2017-05-17T01:43:44.061Z</time>
</trkpt>
<trkpt lat="-26.9407319" lon="152.7664641">
<ele>105.022</ele>
<time>2017-05-17T01:43:46.028Z</time>
</trkpt>
<trkpt lat="-26.9403876" lon="152.7659152">
<ele>105.710</ele>
<time>2017-05-17T01:43:48.944Z</time>
</trkpt>
<trkpt lat="-26.9400803" lon="152.7653294">
<ele>106.501</ele>
<time>2017-05-17T01:43:51.901Z</time>
</trkpt>
<trkpt lat="-26.9396918" lon="152.7647997">
<ele>107.421</ele>
<time>2017-05-17T01:43:54.891Z</time>
</trkpt>
<trkpt lat="-26.9394759" lon="152.7644154">
<ele>108.284</ele>
<time>2017-05-17T01:43:56.866Z</time>
</trkpt>
<trkpt lat="-26.9390815" lon="152.7638939">
<ele>108.666</ele>
<time>2017-05-17T01:43:59.818Z</time>
</trkpt>
<trkpt lat="-26.9387608" lon="152.7636074">
<ele>108.174</ele>
<time>2017-05-17T01:44:01.799Z</time>
</trkpt>
<trkpt lat="-26.9384139" lon="152.7633670">
<ele>106.834</ele>
<time>2017-05-17T01:44:03.768Z</time>
</trkpt>
<trkpt lat="-26.9380653" lon="152.7631432">
<ele>105.084</ele>
<time>2017-05-17T01:44:05.706Z</time>
</trkpt>
<trkpt lat="-26.9376931" lon="152.7629783">
<ele>103.363</ele>
<time>2017-05-17T01:44:07.644Z</time>
</trkpt>
<trkpt lat="-26.9371721" lon="152.7626413">
<ele>101.951</ele>
<time>2017-05-17T01:44:10.583Z</time>
</trkpt>
<trkpt lat="-26.9366311" lon="152.7623497">
<ele>101.037</ele>
<time>2017-05-17T01:44:13.533Z</time>
</trkpt>
<trkpt lat="-26.9362981" lon="152.7620948">
<ele>100.609</ele>
<time>2017-05-17T01:44:15.518Z</time>
</trkpt>
<trkpt lat="-26.9359481" lon="152.7618899">
<ele>100.478</ele>
<time>2017-05-17T01:44:17.459Z</time>
</trkpt>
<trkpt lat="-26.9354483" lon="152.7614986">
<ele>100.424</ele>
<time>2017-05-17T01:44:20.449Z</time>
</trkpt>
<trkpt lat="-26.9351170" lon="152.7612488">
<ele>100.284</ele>
<time>2017-05-17T01:44:22.401Z</time>
</trkpt>
<trkpt lat="-26.9346380" lon="152.7608349">
<ele>100.044</ele>
<time>2017-05-17T01:44:25.352Z</time>
</trkpt>
<trkpt lat="-26.9341207" lon="152.7604747">
<ele>99.845</ele>
<time>2017-05-17T01:44:28.325Z</time>
</trkpt>
<trkpt lat="-26.9336891" lon="152.7599998">
<ele>99.913</ele>
<time>2017-05-17T01:44:31.269Z</time>
</trkpt>
<trkpt lat="-26.9332473" lon="152.7595426">
<ele>100.276</ele>
<time>2017-05-17T01:44:34.197Z</time>
</trkpt>
<trkpt lat="-26.9327914" lon="152.7590971">
<ele>100.657</ele>
<time>2017-05-17T01:44:37.155Z</time>
</trkpt>
<trkpt lat="-26.9324989" lon="152.7587869">
<ele>100.827</ele>
<time>2017-05-17T01:44:39.120Z</time>
</trkpt>
<trkpt lat="-26.9320818" lon="152.7582970">
<ele>100.921</ele>
<time>2017-05-17T01:44:42.058Z</time>
</trkpt>
<trkpt lat="-26.9318252" lon="152.7579540">
<ele>101.139</ele>
<time>2017-05-17T01:44:44.000Z</time>
</trkpt>
<trkpt lat="-26.9314523" lon="152.7574421">
<ele>101.456</ele>
<time>2017-05-17T01:44:46.877Z</time>
</trkpt>
<trkpt lat="-26.9312201" lon="152.7571386">
<ele>101.702</ele>
<time>2017-05-17T01:44:48.627Z</time>
</trkpt>
<trkpt lat="-26.9309927" lon="152.7568781">
<ele>101.777</ele>
<time>2017-05-17T01:44:50.233Z</time>
</trkpt>
<trkpt lat="-26.9307851" lon="152.7565392">
<ele>101.609</ele>
<time>2017-05-17T01:44:52.117Z</time>
</trkpt>
<trkpt lat="-26.9306437" lon="152.7563979">
<ele>100.941</ele>
<time>2017-05-17T01:44:53.165Z</time>
</trkpt>
<trkpt lat="-26.9304782" lon="152.7565725">
<ele>99.517</ele>
<time>2017-05-17T01:44:54.500Z</time>
</trkpt>
<trkpt lat="-26.9303189" lon="152.7567973">
<ele>97.794</ele>
<time>2017-05-17T01:44:56.175Z</time>
</trkpt>
<trkpt lat="-26.9299894" lon="152.7571732">
<ele>96.662</ele>
<time>2017-05-17T01:45:00.472Z</time>
</trkpt>
<trkpt lat="-26.9295788" lon="152.7577008">
<ele>96.632</ele>
<time>2017-05-17T01:45:06.619Z</time>
</trkpt>
<trkpt lat="-26.9291398" lon="152.7581585">
<ele>97.708</ele>
<time>2017-05-17T01:45:10.323Z</time>
</trkpt>
<trkpt lat="-26.9288572" lon="152.7584757">
<ele>99.444</ele>
<time>2017-05-17T01:45:12.429Z</time>
</trkpt>
<trkpt lat="-26.9284139" lon="152.7589418">
<ele>101.100</ele>
<time>2017-05-17T01:45:15.456Z</time>
</trkpt>
<trkpt lat="-26.9279931" lon="152.7594293">
<ele>102.145</ele>
<time>2017-05-17T01:45:18.389Z</time>
</trkpt>
<trkpt lat="-26.9275792" lon="152.7599418">
<ele>102.411</ele>
<time>2017-05-17T01:45:21.383Z</time>
</trkpt>
<trkpt lat="-26.9270574" lon="152.7605220">
<ele>102.109</ele>
<time>2017-05-17T01:45:24.960Z</time>
</trkpt>
<trkpt lat="-26.9264824" lon="152.7611833">
<ele>101.919</ele>
<time>2017-05-17T01:45:28.472Z</time>
</trkpt>
<trkpt lat="-26.9261048" lon="152.7616039">
<ele>102.401</ele>
<time>2017-05-17T01:45:30.494Z</time>
</trkpt>
<trkpt lat="-26.9257412" lon="152.7620027">
<ele>103.382</ele>
<time>2017-05-17T01:45:32.388Z</time>
</trkpt>
<trkpt lat="-26.9251924" lon="152.7626010">
<ele>104.457</ele>
<time>2017-05-17T01:45:35.267Z</time>
</trkpt>
<trkpt lat="-26.9248311" lon="152.7630041">
<ele>105.492</ele>
<time>2017-05-17T01:45:37.216Z</time>
</trkpt>
<trkpt lat="-26.9242894" lon="152.7636183">
<ele>106.415</ele>
<time>2017-05-17T01:45:40.165Z</time>
</trkpt>
<trkpt lat="-26.9239251" lon="152.7640238">
<ele>107.242</ele>
<time>2017-05-17T01:45:42.134Z</time>
</trkpt>
<trkpt lat="-26.9235420" lon="152.7644112">
<ele>108.145</ele>
<time>2017-05-17T01:45:44.114Z</time>
</trkpt>
<trkpt lat="-26.9229887" lon="152.7650159">
<ele>109.216</ele>
<time>2017-05-17T01:45:47.083Z</time>
</trkpt>
<trkpt lat="-26.9226247" lon="152.7654345">
<ele>110.434</ele>
<time>2017-05-17T01:45:49.079Z</time>
</trkpt>
<trkpt lat="-26.9220672" lon="152.7660315">
<ele>111.612</ele>
<time>2017-05-17T01:45:52.021Z</time>
</trkpt>
<trkpt lat="-26.9216955" lon="152.7664312">
<ele>112.399</ele>
<time>2017-05-17T01:45:53.984Z</time>
</trkpt>
<trkpt lat="-26.9213371" lon="152.7668469">
<ele>112.550</ele>
<time>2017-05-17T01:45:55.951Z</time>
</trkpt>
<trkpt lat="-26.9207913" lon="152.7674560">
<ele>112.076</ele>
<time>2017-05-17T01:45:58.889Z</time>
</trkpt>
<trkpt lat="-26.9204367" lon="152.7678702">
<ele>111.148</ele>
<time>2017-05-17T01:46:00.844Z</time>
</trkpt>
<trkpt lat="-26.9198804" lon="152.7684563">
<ele>110.155</ele>
<time>2017-05-17T01:46:03.766Z</time>
</trkpt>
<trkpt lat="-26.9192630" lon="152.7689668">
<ele>109.595</ele>
<time>2017-05-17T01:46:06.711Z</time>
</trkpt>
<trkpt lat="-26.9188114" lon="152.7692499">
<ele>109.687</ele>
<time>2017-05-17T01:46:08.696Z</time>
</trkpt>
<trkpt lat="-26.9181418" lon="152.7696936">
<ele>110.133</ele>
<time>2017-05-17T01:46:11.674Z</time>
</trkpt>
<trkpt lat="-26.9174642" lon="152.7700820">
<ele>110.381</ele>
<time>2017-05-17T01:46:14.575Z</time>
</trkpt>
<trkpt lat="-26.9167872" lon="152.7704826">
<ele>110.082</ele>
<time>2017-05-17T01:46:17.503Z</time>
</trkpt>
<trkpt lat="-26.9161171" lon="152.7709183">
<ele>109.418</ele>
<time>2017-05-17T01:46:20.487Z</time>
</trkpt>
<trkpt lat="-26.9156546" lon="152.7711728">
<ele>108.840</ele>
<time>2017-05-17T01:46:22.467Z</time>
</trkpt>
<trkpt lat="-26.9152060" lon="152.7714426">
<ele>108.567</ele>
<time>2017-05-17T01:46:24.417Z</time>
</trkpt>
<trkpt lat="-26.9147370" lon="152.7716738">
<ele>108.566</ele>
<time>2017-05-17T01:46:26.372Z</time>
</trkpt>
<trkpt lat="-26.9140648" lon="152.7720911">
<ele>108.719</ele>
<time>2017-05-17T01:46:29.319Z</time>
</trkpt>
<trkpt lat="-26.9135995" lon="152.7723424">
<ele>108.878</ele>
<time>2017-05-17T01:46:31.305Z</time>
</trkpt>
<trkpt lat="-26.9131571" lon="152.7726443">
<ele>109.000</ele>
<time>2017-05-17T01:46:33.295Z</time>
</trkpt>
<trkpt lat="-26.9127139" lon="152.7729330">
<ele>109.147</ele>
<time>2017-05-17T01:46:35.260Z</time>
</trkpt>
<trkpt lat="-26.9120597" lon="152.7734006">
<ele>109.324</ele>
<time>2017-05-17T01:46:38.219Z</time>
</trkpt>
<trkpt lat="-26.9116383" lon="152.7737307">
<ele>109.480</ele>
<time>2017-05-17T01:46:40.177Z</time>
</trkpt>
<trkpt lat="-26.9112238" lon="152.7740725">
<ele>109.593</ele>
<time>2017-05-17T01:46:42.136Z</time>
</trkpt>
<trkpt lat="-26.9106261" lon="152.7746243">
<ele>109.704</ele>
<time>2017-05-17T01:46:45.084Z</time>
</trkpt>
<trkpt lat="-26.9100594" lon="152.7751929">
<ele>110.063</ele>
<time>2017-05-17T01:46:47.977Z</time>
</trkpt>
<trkpt lat="-26.9094330" lon="152.7756929">
<ele>111.066</ele>
<time>2017-05-17T01:46:50.913Z</time>
</trkpt>
<trkpt lat="-26.9087930" lon="152.7761555">
<ele>112.748</ele>
<time>2017-05-17T01:46:53.840Z</time>
</trkpt>
<trkpt lat="-26.9083264" lon="152.7764134">
<ele>114.491</ele>
<time>2017-05-17T01:46:55.844Z</time>
</trkpt>
<trkpt lat="-26.9076219" lon="152.7767854">
<ele>115.631</ele>
<time>2017-05-17T01:46:58.840Z</time>
</trkpt>
<trkpt lat="-26.9071352" lon="152.7769614">
<ele>116.083</ele>
<time>2017-05-17T01:47:00.800Z</time>
</trkpt>
<trkpt lat="-26.9063877" lon="152.7771616">
<ele>116.341</ele>
<time>2017-05-17T01:47:03.739Z</time>
</trkpt>
<trkpt lat="-26.9058886" lon="152.7772787">
<ele>117.045</ele>
<time>2017-05-17T01:47:05.691Z</time>
</trkpt>
<trkpt lat="-26.9051133" lon="152.7773904">
<ele>118.365</ele>
<time>2017-05-17T01:47:08.691Z</time>
</trkpt>
<trkpt lat="-26.9043366" lon="152.7774432">
<ele>119.748</ele>
<time>2017-05-17T01:47:11.671Z</time>
</trkpt>
<trkpt lat="-26.9038244" lon="152.7774315">
<ele>120.580</ele>
<time>2017-05-17T01:47:13.624Z</time>
</trkpt>
<trkpt lat="-26.9030203" lon="152.7775042">
<ele>120.588</ele>
<time>2017-05-17T01:47:16.695Z</time>
</trkpt>
<trkpt lat="-26.9025168" lon="152.7775598">
<ele>119.802</ele>
<time>2017-05-17T01:47:18.633Z</time>
</trkpt>
<trkpt lat="-26.9017789" lon="152.7777972">
<ele>118.710</ele>
<time>2017-05-17T01:47:21.581Z</time>
</trkpt>
<trkpt lat="-26.9012798" lon="152.7779378">
<ele>118.023</ele>
<time>2017-05-17T01:47:23.555Z</time>
</trkpt>
<trkpt lat="-26.9007977" lon="152.7781298">
<ele>117.973</ele>
<time>2017-05-17T01:47:25.516Z</time>
</trkpt>
<trkpt lat="-26.9000853" lon="152.7784823">
<ele>118.265</ele>
<time>2017-05-17T01:47:28.488Z</time>
</trkpt>
<trkpt lat="-26.8994192" lon="152.7789240">
<ele>118.306</ele>
<time>2017-05-17T01:47:31.435Z</time>
</trkpt>
<trkpt lat="-26.8989683" lon="152.7792002">
<ele>117.587</ele>
<time>2017-05-17T01:47:33.391Z</time>
</trkpt>
<trkpt lat="-26.8985142" lon="152.7794759">
<ele>116.222</ele>
<time>2017-05-17T01:47:35.356Z</time>
</trkpt>
<trkpt lat="-26.8978355" lon="152.7798972">
<ele>114.837</ele>
<time>2017-05-17T01:47:38.322Z</time>
</trkpt>
<trkpt lat="-26.8973852" lon="152.7801756">
<ele>113.923</ele>
<time>2017-05-17T01:47:40.288Z</time>
</trkpt>
<trkpt lat="-26.8967142" lon="152.7805928">
<ele>113.563</ele>
<time>2017-05-17T01:47:43.211Z</time>
</trkpt>
<trkpt lat="-26.8960372" lon="152.7809721">
<ele>113.565</ele>
<time>2017-05-17T01:47:46.098Z</time>
</trkpt>
<trkpt lat="-26.8956065" lon="152.7812806">
<ele>113.975</ele>
<time>2017-05-17T01:47:48.052Z</time>
</trkpt>
<trkpt lat="-26.8949664" lon="152.7817593">
<ele>115.147</ele>
<time>2017-05-17T01:47:51.018Z</time>
</trkpt>
<trkpt lat="-26.8943172" lon="152.7822430">
<ele>117.213</ele>
<time>2017-05-17T01:47:54.025Z</time>
</trkpt>
<trkpt lat="-26.8936620" lon="152.7827191">
<ele>119.633</ele>
<time>2017-05-17T01:47:57.024Z</time>
</trkpt>
<trkpt lat="-26.8932370" lon="152.7830387">
<ele>121.480</ele>
<time>2017-05-17T01:47:58.977Z</time>
</trkpt>
<trkpt lat="-26.8925875" lon="152.7835097">
<ele>122.115</ele>
<time>2017-05-17T01:48:01.904Z</time>
</trkpt>
<trkpt lat="-26.8919336" lon="152.7839788">
<ele>121.371</ele>
<time>2017-05-17T01:48:04.854Z</time>
</trkpt>
<trkpt lat="-26.8913076" lon="152.7844722">
<ele>119.424</ele>
<time>2017-05-17T01:48:07.782Z</time>
</trkpt>
<trkpt lat="-26.8908699" lon="152.7847809">
<ele>117.063</ele>
<time>2017-05-17T01:48:09.767Z</time>
</trkpt>
<trkpt lat="-26.8904521" lon="152.7851216">
<ele>115.302</ele>
<time>2017-05-17T01:48:11.750Z</time>
</trkpt>
<trkpt lat="-26.8898123" lon="152.7855851">
<ele>114.575</ele>
<time>2017-05-17T01:48:14.669Z</time>
</trkpt>
<trkpt lat="-26.8891705" lon="152.7860534">
<ele>114.596</ele>
<time>2017-05-17T01:48:17.601Z</time>
</trkpt>
<trkpt lat="-26.8887499" lon="152.7863914">
<ele>114.750</ele>
<time>2017-05-17T01:48:19.590Z</time>
</trkpt>
<trkpt lat="-26.8880196" lon="152.7866649">
<ele>114.668</ele>
<time>2017-05-17T01:48:22.557Z</time>
</trkpt>
<trkpt lat="-26.8875099" lon="152.7868083">
<ele>114.464</ele>
<time>2017-05-17T01:48:24.579Z</time>
</trkpt>
<trkpt lat="-26.8867591" lon="152.7869809">
<ele>114.415</ele>
<time>2017-05-17T01:48:27.526Z</time>
</trkpt>
<trkpt lat="-26.8859922" lon="152.7870956">
<ele>114.864</ele>
<time>2017-05-17T01:48:30.495Z</time>
</trkpt>
<trkpt lat="-26.8854715" lon="152.7870737">
<ele>116.084</ele>
<time>2017-05-17T01:48:32.488Z</time>
</trkpt>
<trkpt lat="-26.8849530" lon="152.7870693">
<ele>117.712</ele>
<time>2017-05-17T01:48:34.470Z</time>
</trkpt>
<trkpt lat="-26.8844318" lon="152.7870181">
<ele>118.971</ele>
<time>2017-05-17T01:48:36.467Z</time>
</trkpt>
<trkpt lat="-26.8836076" lon="152.7869754">
<ele>119.520</ele>
<time>2017-05-17T01:48:39.601Z</time>
</trkpt>
<trkpt lat="-26.8828952" lon="152.7869380">
<ele>119.532</ele>
<time>2017-05-17T01:48:42.295Z</time>
</trkpt>
<trkpt lat="-26.8822917" lon="152.7869468">
<ele>119.146</ele>
<time>2017-05-17T01:48:44.577Z</time>
</trkpt>
<trkpt lat="-26.8819504" lon="152.7869664">
<ele>118.262</ele>
<time>2017-05-17T01:48:45.892Z</time>
</trkpt>
<trkpt lat="-26.8814135" lon="152.7870750">
<ele>116.963</ele>
<time>2017-05-17T01:48:48.007Z</time>
</trkpt>
<trkpt lat="-26.8810505" lon="152.7872051">
<ele>115.648</ele>
<time>2017-05-17T01:48:49.654Z</time>
</trkpt>
<trkpt lat="-26.8807003" lon="152.7873489">
<ele>114.699</ele>
<time>2017-05-17T01:48:51.311Z</time>
</trkpt>
<trkpt lat="-26.8803526" lon="152.7874632">
<ele>114.266</ele>
<time>2017-05-17T01:48:53.148Z</time>
</trkpt>
<trkpt lat="-26.8798810" lon="152.7876646">
<ele>114.243</ele>
<time>2017-05-17T01:48:55.871Z</time>
</trkpt>
<trkpt lat="-26.8796172" lon="152.7878022">
<ele>114.302</ele>
<time>2017-05-17T01:48:57.423Z</time>
</trkpt>
<trkpt lat="-26.8794162" lon="152.7879326">
<ele>114.075</ele>
<time>2017-05-17T01:48:58.648Z</time>
</trkpt>
<trkpt lat="-26.8792153" lon="152.7879733">
<ele>113.278</ele>
<time>2017-05-17T01:48:59.713Z</time>
</trkpt>
<trkpt lat="-26.8790798" lon="152.7878267">
<ele>111.807</ele>
<time>2017-05-17T01:49:00.701Z</time>
</trkpt>
<trkpt lat="-26.8789140" lon="152.7876691">
<ele>109.984</ele>
<time>2017-05-17T01:49:01.844Z</time>
</trkpt>
<trkpt lat="-26.8785715" lon="152.7875950">
<ele>108.474</ele>
<time>2017-05-17T01:49:03.774Z</time>
</trkpt>
<trkpt lat="-26.8781957" lon="152.7875836">
<ele>107.657</ele>
<time>2017-05-17T01:49:05.944Z</time>
</trkpt>
<trkpt lat="-26.8779211" lon="152.7875937">
<ele>107.408</ele>
<time>2017-05-17T01:49:07.709Z</time>
</trkpt>
<trkpt lat="-26.8774759" lon="152.7875127">
<ele>107.500</ele>
<time>2017-05-17T01:49:11.685Z</time>
</trkpt>
<trkpt lat="-26.8771255" lon="152.7874567">
<ele>107.821</ele>
<time>2017-05-17T01:49:15.676Z</time>
</trkpt>
<trkpt lat="-26.8768364" lon="152.7873494">
<ele>108.304</ele>
<time>2017-05-17T01:49:18.497Z</time>
</trkpt>
<trkpt lat="-26.8764028" lon="152.7870496">
<ele>108.866</ele>
<time>2017-05-17T01:49:22.672Z</time>
</trkpt>
<trkpt lat="-26.8761008" lon="152.7868721">
<ele>109.537</ele>
<time>2017-05-17T01:49:25.160Z</time>
</trkpt>
<trkpt lat="-26.8758206" lon="152.7866687">
<ele>110.313</ele>
<time>2017-05-17T01:49:27.465Z</time>
</trkpt>
<trkpt lat="-26.8753783" lon="152.7863976">
<ele>110.982</ele>
<time>2017-05-17T01:49:30.676Z</time>
</trkpt>
<trkpt lat="-26.8751050" lon="152.7861732">
<ele>111.425</ele>
<time>2017-05-17T01:49:32.728Z</time>
</trkpt>
<trkpt lat="-26.8748080" lon="152.7859983">
<ele>111.758</ele>
<time>2017-05-17T01:49:34.730Z</time>
</trkpt>
<trkpt lat="-26.8745311" lon="152.7858026">
<ele>112.031</ele>
<time>2017-05-17T01:49:36.648Z</time>
</trkpt>
<trkpt lat="-26.8740416" lon="152.7856666">
<ele>112.219</ele>
<time>2017-05-17T01:49:39.601Z</time>
</trkpt>
<trkpt lat="-26.8737011" lon="152.7855917">
<ele>112.461</ele>
<time>2017-05-17T01:49:41.637Z</time>
</trkpt>
<trkpt lat="-26.8733607" lon="152.7855403">
<ele>112.905</ele>
<time>2017-05-17T01:49:43.654Z</time>
</trkpt>
<trkpt lat="-26.8730195" lon="152.7855157">
<ele>113.439</ele>
<time>2017-05-17T01:49:45.661Z</time>
</trkpt>
<trkpt lat="-26.8724885" lon="152.7856239">
<ele>113.934</ele>
<time>2017-05-17T01:49:48.845Z</time>
</trkpt>
<trkpt lat="-26.8721240" lon="152.7856996">
<ele>114.490</ele>
<time>2017-05-17T01:49:51.021Z</time>
</trkpt>
<trkpt lat="-26.8717562" lon="152.7857628">
<ele>115.144</ele>
<time>2017-05-17T01:49:53.183Z</time>
</trkpt>
<trkpt lat="-26.8711927" lon="152.7858893">
<ele>115.769</ele>
<time>2017-05-17T01:49:56.505Z</time>
</trkpt>
<trkpt lat="-26.8708170" lon="152.7859849">
<ele>116.362</ele>
<time>2017-05-17T01:49:58.679Z</time>
</trkpt>
<trkpt lat="-26.8702383" lon="152.7859860">
<ele>117.000</ele>
<time>2017-05-17T01:50:01.798Z</time>
</trkpt>
<trkpt lat="-26.8696828" lon="152.7860193">
<ele>117.596</ele>
<time>2017-05-17T01:50:04.722Z</time>
</trkpt>
<trkpt lat="-26.8693251" lon="152.7861444">
<ele>117.995</ele>
<time>2017-05-17T01:50:06.670Z</time>
</trkpt>
<trkpt lat="-26.8687978" lon="152.7863581">
<ele>118.162</ele>
<time>2017-05-17T01:50:09.560Z</time>
</trkpt>
<trkpt lat="-26.8684565" lon="152.7865097">
<ele>118.151</ele>
<time>2017-05-17T01:50:11.463Z</time>
</trkpt>
<trkpt lat="-26.8679670" lon="152.7866202">
<ele>118.033</ele>
<time>2017-05-17T01:50:14.093Z</time>
</trkpt>
<trkpt lat="-26.8675365" lon="152.7864804">
<ele>117.749</ele>
<time>2017-05-17T01:50:16.457Z</time>
</trkpt>
<trkpt lat="-26.8672498" lon="152.7862759">
<ele>117.262</ele>
<time>2017-05-17T01:50:18.240Z</time>
</trkpt>
<trkpt lat="-26.8670150" lon="152.7857876">
<ele>116.778</ele>
<time>2017-05-17T01:50:20.849Z</time>
</trkpt>
<trkpt lat="-26.8669170" lon="152.7854096">
<ele>116.599</ele>
<time>2017-05-17T01:50:22.808Z</time>
</trkpt>
<trkpt lat="-26.8668308" lon="152.7848282">
<ele>116.840</ele>
<time>2017-05-17T01:50:25.954Z</time>
</trkpt>
<trkpt lat="-26.8667159" lon="152.7842350">
<ele>117.453</ele>
<time>2017-05-17T01:50:29.407Z</time>
</trkpt>
<trkpt lat="-26.8666829" lon="152.7838570">
<ele>118.334</ele>
<time>2017-05-17T01:50:31.531Z</time>
</trkpt>
<trkpt lat="-26.8666288" lon="152.7835008">
<ele>119.254</ele>
<time>2017-05-17T01:50:33.476Z</time>
</trkpt>
<trkpt lat="-26.8664635" lon="152.7829637">
<ele>119.902</ele>
<time>2017-05-17T01:50:36.387Z</time>
</trkpt>
<trkpt lat="-26.8661874" lon="152.7824924">
<ele>120.206</ele>
<time>2017-05-17T01:50:39.197Z</time>
</trkpt>
<trkpt lat="-26.8660431" lon="152.7821568">
<ele>120.314</ele>
<time>2017-05-17T01:50:41.052Z</time>
</trkpt>
<trkpt lat="-26.8660108" lon="152.7815483">
<ele>120.356</ele>
<time>2017-05-17T01:50:44.181Z</time>
</trkpt>
<trkpt lat="-26.8660649" lon="152.7808753">
<ele>120.540</ele>
<time>2017-05-17T01:50:47.732Z</time>
</trkpt>
<trkpt lat="-26.8661269" lon="152.7802450">
<ele>121.098</ele>
<time>2017-05-17T01:50:51.035Z</time>
</trkpt>
<trkpt lat="-26.8661041" lon="152.7798263">
<ele>121.958</ele>
<time>2017-05-17T01:50:53.155Z</time>
</trkpt>
<trkpt lat="-26.8660305" lon="152.7794089">
<ele>122.843</ele>
<time>2017-05-17T01:50:55.231Z</time>
</trkpt>
<trkpt lat="-26.8659409" lon="152.7788054">
<ele>123.619</ele>
<time>2017-05-17T01:50:58.011Z</time>
</trkpt>
<trkpt lat="-26.8658607" lon="152.7784050">
<ele>124.282</ele>
<time>2017-05-17T01:50:59.873Z</time>
</trkpt>
<trkpt lat="-26.8657521" lon="152.7778696">
<ele>124.839</ele>
<time>2017-05-17T01:51:02.396Z</time>
</trkpt>
<trkpt lat="-26.8656757" lon="152.7773351">
<ele>125.289</ele>
<time>2017-05-17T01:51:04.917Z</time>
</trkpt>
<trkpt lat="-26.8655830" lon="152.7768221">
<ele>125.652</ele>
<time>2017-05-17T01:51:07.396Z</time>
</trkpt>
<trkpt lat="-26.8655204" lon="152.7762816">
<ele>126.168</ele>
<time>2017-05-17T01:51:10.026Z</time>
</trkpt>
<trkpt lat="-26.8654557" lon="152.7759081">
<ele>127.347</ele>
<time>2017-05-17T01:51:11.958Z</time>
</trkpt>
<trkpt lat="-26.8652448" lon="152.7753611">
<ele>129.280</ele>
<time>2017-05-17T01:51:15.106Z</time>
</trkpt>
<trkpt lat="-26.8650641" lon="152.7749694">
<ele>131.457</ele>
<time>2017-05-17T01:51:17.569Z</time>
</trkpt>
<trkpt lat="-26.8648909" lon="152.7746374">
<ele>133.398</ele>
<time>2017-05-17T01:51:19.781Z</time>
</trkpt>
<trkpt lat="-26.8646526" lon="152.7741378">
<ele>134.880</ele>
<time>2017-05-17T01:51:23.066Z</time>
</trkpt>
<trkpt lat="-26.8644925" lon="152.7738536">
<ele>135.936</ele>
<time>2017-05-17T01:51:24.964Z</time>
</trkpt>
<trkpt lat="-26.8642976" lon="152.7734031">
<ele>136.709</ele>
<time>2017-05-17T01:51:27.728Z</time>
</trkpt>
<trkpt lat="-26.8642569" lon="152.7729075">
<ele>137.122</ele>
<time>2017-05-17T01:51:30.413Z</time>
</trkpt>
<trkpt lat="-26.8642624" lon="152.7725614">
<ele>137.157</ele>
<time>2017-05-17T01:51:32.250Z</time>
</trkpt>
<trkpt lat="-26.8643088" lon="152.7722574">
<ele>137.189</ele>
<time>2017-05-17T01:51:33.876Z</time>
</trkpt>
<trkpt lat="-26.8642812" lon="152.7717737">
<ele>137.654</ele>
<time>2017-05-17T01:51:36.519Z</time>
</trkpt>
<trkpt lat="-26.8640257" lon="152.7712275">
<ele>138.640</ele>
<time>2017-05-17T01:51:40.090Z</time>
</trkpt>
<trkpt lat="-26.8637940" lon="152.7709379">
<ele>139.812</ele>
<time>2017-05-17T01:51:42.389Z</time>
</trkpt>
<trkpt lat="-26.8634578" lon="152.7706366">
<ele>140.810</ele>
<time>2017-05-17T01:51:45.251Z</time>
</trkpt>
<trkpt lat="-26.8631436" lon="152.7702730">
<ele>141.684</ele>
<time>2017-05-17T01:51:48.435Z</time>
</trkpt>
<trkpt lat="-26.8628872" lon="152.7701152">
<ele>142.754</ele>
<time>2017-05-17T01:51:50.460Z</time>
</trkpt>
<trkpt lat="-26.8624608" lon="152.7698850">
<ele>143.988</ele>
<time>2017-05-17T01:51:53.600Z</time>
</trkpt>
<trkpt lat="-26.8622321" lon="152.7696285">
<ele>145.017</ele>
<time>2017-05-17T01:51:55.714Z</time>
</trkpt>
<trkpt lat="-26.8619389" lon="152.7691808">
<ele>145.640</ele>
<time>2017-05-17T01:51:59.012Z</time>
</trkpt>
<trkpt lat="-26.8616737" lon="152.7689916">
<ele>146.195</ele>
<time>2017-05-17T01:52:01.141Z</time>
</trkpt>
<trkpt lat="-26.8612712" lon="152.7686385">
<ele>147.308</ele>
<time>2017-05-17T01:52:04.571Z</time>
</trkpt>
<trkpt lat="-26.8609192" lon="152.7682924">
<ele>149.510</ele>
<time>2017-05-17T01:52:07.575Z</time>
</trkpt>
<trkpt lat="-26.8605202" lon="152.7680920">
<ele>152.674</ele>
<time>2017-05-17T01:52:10.311Z</time>
</trkpt>
<trkpt lat="-26.8601965" lon="152.7680056">
<ele>156.497</ele>
<time>2017-05-17T01:52:12.368Z</time>
</trkpt>
<trkpt lat="-26.8597188" lon="152.7679418">
<ele>160.475</ele>
<time>2017-05-17T01:52:15.339Z</time>
</trkpt>
<trkpt lat="-26.8594690" lon="152.7678265">
<ele>164.102</ele>
<time>2017-05-17T01:52:17.034Z</time>
</trkpt>
<trkpt lat="-26.8591848" lon="152.7674952">
<ele>167.718</ele>
<time>2017-05-17T01:52:19.666Z</time>
</trkpt>
<trkpt lat="-26.8588560" lon="152.7671333">
<ele>172.514</ele>
<time>2017-05-17T01:52:22.664Z</time>
</trkpt>
<trkpt lat="-26.8585910" lon="152.7669562">
<ele>179.174</ele>
<time>2017-05-17T01:52:24.670Z</time>
</trkpt>
<trkpt lat="-26.8583193" lon="152.7666537">
<ele>186.931</ele>
<time>2017-05-17T01:52:27.256Z</time>
</trkpt>
<trkpt lat="-26.8581024" lon="152.7666689">
<ele>194.228</ele>
<time>2017-05-17T01:52:28.831Z</time>
</trkpt>
<trkpt lat="-26.8577995" lon="152.7665571">
<ele>200.225</ele>
<time>2017-05-17T01:52:31.192Z</time>
</trkpt>
<trkpt lat="-26.8577698" lon="152.7663036">
<ele>204.422</ele>
<time>2017-05-17T01:52:32.787Z</time>
</trkpt>
<trkpt lat="-26.8578026" lon="152.7660324">
<ele>206.631</ele>
<time>2017-05-17T01:52:34.463Z</time>
</trkpt>
<trkpt lat="-26.8576962" lon="152.7655827">
<ele>207.559</ele>
<time>2017-05-17T01:52:37.267Z</time>
</trkpt>
<trkpt lat="-26.8574492" lon="152.7654024">
<ele>208.140</ele>
<time>2017-05-17T01:52:39.400Z</time>
</trkpt>
<trkpt lat="-26.8570984" lon="152.7652128">
<ele>208.913</ele>
<time>2017-05-17T01:52:42.914Z</time>
</trkpt>
<trkpt lat="-26.8568158" lon="152.7649933">
<ele>210.213</ele>
<time>2017-05-17T01:52:46.204Z</time>
</trkpt>
<trkpt lat="-26.8566644" lon="152.7645845">
<ele>212.209</ele>
<time>2017-05-17T01:52:49.539Z</time>
</trkpt>
<trkpt lat="-26.8564196" lon="152.7641728">
<ele>214.845</ele>
<time>2017-05-17T01:52:53.165Z</time>
</trkpt>
<trkpt lat="-26.8563524" lon="152.7638608">
<ele>218.005</ele>
<time>2017-05-17T01:52:55.416Z</time>
</trkpt>
<trkpt lat="-26.8562953" lon="152.7635741">
<ele>221.279</ele>
<time>2017-05-17T01:52:57.504Z</time>
</trkpt>
<trkpt lat="-26.8561911" lon="152.7633099">
<ele>224.098</ele>
<time>2017-05-17T01:52:59.574Z</time>
</trkpt>
<trkpt lat="-26.8559313" lon="152.7630364">
<ele>226.490</ele>
<time>2017-05-17T01:53:02.424Z</time>
</trkpt>
<trkpt lat="-26.8559045" lon="152.7626590">
<ele>229.212</ele>
<time>2017-05-17T01:53:04.953Z</time>
</trkpt>
<trkpt lat="-26.8560606" lon="152.7621541">
<ele>233.020</ele>
<time>2017-05-17T01:53:08.412Z</time>
</trkpt>
<trkpt lat="-26.8563786" lon="152.7617038">
<ele>237.827</ele>
<time>2017-05-17T01:53:12.442Z</time>
</trkpt>
<trkpt lat="-26.8565649" lon="152.7615304">
<ele>242.738</ele>
<time>2017-05-17T01:53:14.449Z</time>
</trkpt>
<trkpt lat="-26.8568369" lon="152.7612590">
<ele>247.287</ele>
<time>2017-05-17T01:53:17.547Z</time>
</trkpt>
<trkpt lat="-26.8569569" lon="152.7610376">
<ele>251.489</ele>
<time>2017-05-17T01:53:19.366Z</time>
</trkpt>
<trkpt lat="-26.8569007" lon="152.7606330">
<ele>254.958</ele>
<time>2017-05-17T01:53:21.891Z</time>
</trkpt>
<trkpt lat="-26.8569062" lon="152.7604499">
<ele>257.479</ele>
<time>2017-05-17T01:53:22.977Z</time>
</trkpt>
<trkpt lat="-26.8570455" lon="152.7602380">
<ele>259.581</ele>
<time>2017-05-17T01:53:24.501Z</time>
</trkpt>
<trkpt lat="-26.8573835" lon="152.7599636">
<ele>261.795</ele>
<time>2017-05-17T01:53:27.564Z</time>
</trkpt>
<trkpt lat="-26.8575977" lon="152.7598218">
<ele>264.332</ele>
<time>2017-05-17T01:53:29.700Z</time>
</trkpt>
<trkpt lat="-26.8578307" lon="152.7595917">
<ele>267.236</ele>
<time>2017-05-17T01:53:32.543Z</time>
</trkpt>
<trkpt lat="-26.8578001" lon="152.7593272">
<ele>270.878</ele>
<time>2017-05-17T01:53:34.947Z</time>
</trkpt>
<trkpt lat="-26.8576242" lon="152.7592203">
<ele>275.737</ele>
<time>2017-05-17T01:53:37.044Z</time>
</trkpt>
<trkpt lat="-26.8574088" lon="152.7590499">
<ele>281.192</ele>
<time>2017-05-17T01:53:39.252Z</time>
</trkpt>
<trkpt lat="-26.8574153" lon="152.7586813">
<ele>285.643</ele>
<time>2017-05-17T01:53:41.860Z</time>
</trkpt>
<trkpt lat="-26.8575640" lon="152.7584551">
<ele>288.615</ele>
<time>2017-05-17T01:53:44.042Z</time>
</trkpt>
<trkpt lat="-26.8577429" lon="152.7581652">
<ele>291.093</ele>
<time>2017-05-17T01:53:47.246Z</time>
</trkpt>
<trkpt lat="-26.8577057" lon="152.7578490">
<ele>293.815</ele>
<time>2017-05-17T01:53:50.501Z</time>
</trkpt>
<trkpt lat="-26.8578598" lon="152.7575841">
<ele>297.017</ele>
<time>2017-05-17T01:53:53.939Z</time>
</trkpt>
<trkpt lat="-26.8579864" lon="152.7572354">
<ele>300.984</ele>
<time>2017-05-17T01:53:57.756Z</time>
</trkpt>
<trkpt lat="-26.8580333" lon="152.7569267">
<ele>305.544</ele>
<time>2017-05-17T01:54:00.468Z</time>
</trkpt>
<trkpt lat="-26.8579339" lon="152.7566370">
<ele>310.154</ele>
<time>2017-05-17T01:54:03.362Z</time>
</trkpt>
<trkpt lat="-26.8580064" lon="152.7564375">
<ele>314.476</ele>
<time>2017-05-17T01:54:05.365Z</time>
</trkpt>
<trkpt lat="-26.8579355" lon="152.7561914">
<ele>318.320</ele>
<time>2017-05-17T01:54:07.691Z</time>
</trkpt>
<trkpt lat="-26.8578034" lon="152.7560994">
<ele>321.702</ele>
<time>2017-05-17T01:54:09.179Z</time>
</trkpt>
<trkpt lat="-26.8576236" lon="152.7561710">
<ele>324.777</ele>
<time>2017-05-17T01:54:11.089Z</time>
</trkpt>
<trkpt lat="-26.8573261" lon="152.7562485">
<ele>327.599</ele>
<time>2017-05-17T01:54:14.409Z</time>
</trkpt>
<trkpt lat="-26.8571066" lon="152.7562633">
<ele>330.372</ele>
<time>2017-05-17T01:54:16.968Z</time>
</trkpt>
<trkpt lat="-26.8571007" lon="152.7561375">
<ele>333.387</ele>
<time>2017-05-17T01:54:18.299Z</time>
</trkpt>
<trkpt lat="-26.8572805" lon="152.7560999">
<ele>336.400</ele>
<time>2017-05-17T01:54:20.586Z</time>
</trkpt>
<trkpt lat="-26.8575858" lon="152.7559431">
<ele>338.979</ele>
<time>2017-05-17T01:54:25.089Z</time>
</trkpt>
<trkpt lat="-26.8576878" lon="152.7557484">
<ele>341.182</ele>
<time>2017-05-17T01:54:27.268Z</time>
</trkpt>
<trkpt lat="-26.8578605" lon="152.7557123">
<ele>343.294</ele>
<time>2017-05-17T01:54:29.296Z</time>
</trkpt>
<trkpt lat="-26.8581671" lon="152.7558335">
<ele>345.372</ele>
<time>2017-05-17T01:54:34.667Z</time>
</trkpt>
<trkpt lat="-26.8584601" lon="152.7557425">
<ele>347.563</ele>
<time>2017-05-17T01:54:38.250Z</time>
</trkpt>
<trkpt lat="-26.8586851" lon="152.7558242">
<ele>350.178</ele>
<time>2017-05-17T01:54:40.518Z</time>
</trkpt>
<trkpt lat="-26.8586826" lon="152.7560368">
<ele>353.226</ele>
<time>2017-05-17T01:54:42.460Z</time>
</trkpt>
<trkpt lat="-26.8585872" lon="152.7563898">
<ele>356.430</ele>
<time>2017-05-17T01:54:45.945Z</time>
</trkpt>
<trkpt lat="-26.8586653" lon="152.7565857">
<ele>360.052</ele>
<time>2017-05-17T01:54:47.927Z</time>
</trkpt>
<trkpt lat="-26.8588399" lon="152.7569067">
<ele>364.759</ele>
<time>2017-05-17T01:54:51.810Z</time>
</trkpt>
<trkpt lat="-26.8589426" lon="152.7573443">
<ele>370.516</ele>
<time>2017-05-17T01:54:56.527Z</time>
</trkpt>
<trkpt lat="-26.8590539" lon="152.7577518">
<ele>376.743</ele>
<time>2017-05-17T01:55:00.473Z</time>
</trkpt>
<trkpt lat="-26.8591204" lon="152.7580008">
<ele>382.875</ele>
<time>2017-05-17T01:55:02.726Z</time>
</trkpt>
<trkpt lat="-26.8592707" lon="152.7578364">
<ele>387.947</ele>
<time>2017-05-17T01:55:04.586Z</time>
</trkpt>
<trkpt lat="-26.8594160" lon="152.7574275">
<ele>391.384</ele>
<time>2017-05-17T01:55:07.864Z</time>
</trkpt>
<trkpt lat="-26.8594808" lon="152.7571050">
<ele>394.065</ele>
<time>2017-05-17T01:55:11.052Z</time>
</trkpt>
<trkpt lat="-26.8594769" lon="152.7567469">
<ele>397.047</ele>
<time>2017-05-17T01:55:15.148Z</time>
</trkpt>
<trkpt lat="-26.8594298" lon="152.7562252">
<ele>400.212</ele>
<time>2017-05-17T01:55:19.096Z</time>
</trkpt>
<trkpt lat="-26.8594835" lon="152.7557762">
<ele>403.202</ele>
<time>2017-05-17T01:55:21.782Z</time>
</trkpt>
<trkpt lat="-26.8597076" lon="152.7553212">
<ele>406.233</ele>
<time>2017-05-17T01:55:24.949Z</time>
</trkpt>
<trkpt lat="-26.8598295" lon="152.7550418">
<ele>409.549</ele>
<time>2017-05-17T01:55:26.965Z</time>
</trkpt>
<trkpt lat="-26.8600007" lon="152.7547299">
<ele>413.104</ele>
<time>2017-05-17T01:55:29.276Z</time>
</trkpt>
<trkpt lat="-26.8600938" lon="152.7545534">
<ele>416.981</ele>
<time>2017-05-17T01:55:30.548Z</time>
</trkpt>
<trkpt lat="-26.8601295" lon="152.7543822">
<ele>421.198</ele>
<time>2017-05-17T01:55:31.617Z</time>
</trkpt>
<trkpt lat="-26.8598810" lon="152.7542117">
<ele>425.264</ele>
<time>2017-05-17T01:55:33.867Z</time>
</trkpt>
<trkpt lat="-26.8595759" lon="152.7541516">
<ele>428.642</ele>
<time>2017-05-17T01:55:36.675Z</time>
</trkpt>
<trkpt lat="-26.8593358" lon="152.7541021">
<ele>431.619</ele>
<time>2017-05-17T01:55:39.519Z</time>
</trkpt>
<trkpt lat="-26.8590575" lon="152.7540912">
<ele>434.928</ele>
<time>2017-05-17T01:55:42.610Z</time>
</trkpt>
<trkpt lat="-26.8587986" lon="152.7539451">
<ele>438.771</ele>
<time>2017-05-17T01:55:45.099Z</time>
</trkpt>
<trkpt lat="-26.8584401" lon="152.7537043">
<ele>442.659</ele>
<time>2017-05-17T01:55:48.252Z</time>
</trkpt>
<trkpt lat="-26.8581559" lon="152.7534061">
<ele>446.348</ele>
<time>2017-05-17T01:55:51.021Z</time>
</trkpt>
<trkpt lat="-26.8578621" lon="152.7532556">
<ele>449.871</ele>
<time>2017-05-17T01:55:53.327Z</time>
</trkpt>
<trkpt lat="-26.8576516" lon="152.7529118">
<ele>452.997</ele>
<time>2017-05-17T01:55:56.134Z</time>
</trkpt>
<trkpt lat="-26.8576388" lon="152.7526141">
<ele>455.516</ele>
<time>2017-05-17T01:55:58.363Z</time>
</trkpt>
<trkpt lat="-26.8577861" lon="152.7521627">
<ele>458.770</ele>
<time>2017-05-17T01:56:02.031Z</time>
</trkpt>
<trkpt lat="-26.8579660" lon="152.7518780">
<ele>464.030</ele>
<time>2017-05-17T01:56:04.444Z</time>
</trkpt>
<trkpt lat="-26.8581231" lon="152.7515587">
<ele>469.835</ele>
<time>2017-05-17T01:56:06.760Z</time>
</trkpt>
<trkpt lat="-26.8582263" lon="152.7510150">
<ele>473.940</ele>
<time>2017-05-17T01:56:10.002Z</time>
</trkpt>
<trkpt lat="-26.8581824" lon="152.7506470">
<ele>476.117</ele>
<time>2017-05-17T01:56:12.062Z</time>
</trkpt>
<trkpt lat="-26.8580352" lon="152.7502890">
<ele>477.179</ele>
<time>2017-05-17T01:56:14.216Z</time>
</trkpt>
<trkpt lat="-26.8577558" lon="152.7496785">
<ele>477.887</ele>
<time>2017-05-17T01:56:17.860Z</time>
</trkpt>
<trkpt lat="-26.8575180" lon="152.7492600">
<ele>478.872</ele>
<time>2017-05-17T01:56:20.433Z</time>
</trkpt>
<trkpt lat="-26.8571908" lon="152.7489162">
<ele>480.475</ele>
<time>2017-05-17T01:56:23.151Z</time>
</trkpt>
<trkpt lat="-26.8568633" lon="152.7487399">
<ele>482.520</ele>
<time>2017-05-17T01:56:25.424Z</time>
</trkpt>
<trkpt lat="-26.8565358" lon="152.7486047">
<ele>484.723</ele>
<time>2017-05-17T01:56:27.594Z</time>
</trkpt>
<trkpt lat="-26.8562124" lon="152.7484497">
<ele>486.961</ele>
<time>2017-05-17T01:56:29.642Z</time>
</trkpt>
<trkpt lat="-26.8558591" lon="152.7483572">
<ele>489.144</ele>
<time>2017-05-17T01:56:31.675Z</time>
</trkpt>
<trkpt lat="-26.8554897" lon="152.7483799">
<ele>491.336</ele>
<time>2017-05-17T01:56:33.756Z</time>
</trkpt>
<trkpt lat="-26.8550686" lon="152.7482536">
<ele>493.702</ele>
<time>2017-05-17T01:56:36.244Z</time>
</trkpt>
<trkpt lat="-26.8547676" lon="152.7480047">
<ele>496.241</ele>
<time>2017-05-17T01:56:38.489Z</time>
</trkpt>
<trkpt lat="-26.8544011" lon="152.7475738">
<ele>498.909</ele>
<time>2017-05-17T01:56:41.856Z</time>
</trkpt>
<trkpt lat="-26.8541070" lon="152.7473248">
<ele>502.104</ele>
<time>2017-05-17T01:56:44.097Z</time>
</trkpt>
<trkpt lat="-26.8538249" lon="152.7470776">
<ele>505.678</ele>
<time>2017-05-17T01:56:46.176Z</time>
</trkpt>
<trkpt lat="-26.8534454" lon="152.7466740">
<ele>508.528</ele>
<time>2017-05-17T01:56:49.076Z</time>
</trkpt>
<trkpt lat="-26.8532073" lon="152.7464196">
<ele>510.030</ele>
<time>2017-05-17T01:56:50.921Z</time>
</trkpt>
<trkpt lat="-26.8530184" lon="152.7459349">
<ele>510.479</ele>
<time>2017-05-17T01:56:53.630Z</time>
</trkpt>
<trkpt lat="-26.8529645" lon="152.7455547">
<ele>510.093</ele>
<time>2017-05-17T01:56:55.690Z</time>
</trkpt>
<trkpt lat="-26.8529398" lon="152.7451852">
<ele>509.193</ele>
<time>2017-05-17T01:56:57.682Z</time>
</trkpt>
<trkpt lat="-26.8528480" lon="152.7448355">
<ele>508.390</ele>
<time>2017-05-17T01:56:59.639Z</time>
</trkpt>
<trkpt lat="-26.8526263" lon="152.7445639">
<ele>508.290</ele>
<time>2017-05-17T01:57:01.642Z</time>
</trkpt>
<trkpt lat="-26.8523364" lon="152.7443723">
<ele>509.223</ele>
<time>2017-05-17T01:57:03.754Z</time>
</trkpt>
<trkpt lat="-26.8519455" lon="152.7440804">
<ele>511.233</ele>
<time>2017-05-17T01:57:06.655Z</time>
</trkpt>
<trkpt lat="-26.8517032" lon="152.7438875">
<ele>514.155</ele>
<time>2017-05-17T01:57:08.467Z</time>
</trkpt>
<trkpt lat="-26.8514436" lon="152.7434141">
<ele>517.542</ele>
<time>2017-05-17T01:57:11.585Z</time>
</trkpt>
<trkpt lat="-26.8512820" lon="152.7430480">
<ele>520.686</ele>
<time>2017-05-17T01:57:13.933Z</time>
</trkpt>
<trkpt lat="-26.8509899" lon="152.7425605">
<ele>523.008</ele>
<time>2017-05-17T01:57:17.109Z</time>
</trkpt>
<trkpt lat="-26.8507012" lon="152.7423416">
<ele>524.341</ele>
<time>2017-05-17T01:57:19.083Z</time>
</trkpt>
<trkpt lat="-26.8502608" lon="152.7420521">
<ele>524.880</ele>
<time>2017-05-17T01:57:21.975Z</time>
</trkpt>
<trkpt lat="-26.8499129" lon="152.7419822">
<ele>524.934</ele>
<time>2017-05-17T01:57:23.994Z</time>
</trkpt>
<trkpt lat="-26.8495577" lon="152.7419859">
<ele>524.705</ele>
<time>2017-05-17T01:57:26.028Z</time>
</trkpt>
<trkpt lat="-26.8490170" lon="152.7421373">
<ele>524.414</ele>
<time>2017-05-17T01:57:29.219Z</time>
</trkpt>
<trkpt lat="-26.8487440" lon="152.7422448">
<ele>524.139</ele>
<time>2017-05-17T01:57:30.871Z</time>
</trkpt>
<trkpt lat="-26.8483473" lon="152.7424718">
<ele>523.725</ele>
<time>2017-05-17T01:57:33.454Z</time>
</trkpt>
<trkpt lat="-26.8480548" lon="152.7427582">
<ele>522.984</ele>
<time>2017-05-17T01:57:35.870Z</time>
</trkpt>
<trkpt lat="-26.8478150" lon="152.7428270">
<ele>521.981</ele>
<time>2017-05-17T01:57:37.497Z</time>
</trkpt>
<trkpt lat="-26.8476605" lon="152.7428119">
<ele>521.023</ele>
<time>2017-05-17T01:57:38.613Z</time>
</trkpt>
<trkpt lat="-26.8474609" lon="152.7429066">
<ele>520.383</ele>
<time>2017-05-17T01:57:40.242Z</time>
</trkpt>
<trkpt lat="-26.8472768" lon="152.7431074">
<ele>520.128</ele>
<time>2017-05-17T01:57:42.793Z</time>
</trkpt>
<trkpt lat="-26.8470265" lon="152.7433050">
<ele>520.183</ele>
<time>2017-05-17T01:57:48.031Z</time>
</trkpt>
<trkpt lat="-26.8467728" lon="152.7432363">
<ele>520.401</ele>
<time>2017-05-17T01:57:51.940Z</time>
</trkpt>
<trkpt lat="-26.8464635" lon="152.7431156">
<ele>520.624</ele>
<time>2017-05-17T01:57:55.393Z</time>
</trkpt>
<trkpt lat="-26.8461786" lon="152.7430114">
<ele>520.808</ele>
<time>2017-05-17T01:57:57.937Z</time>
</trkpt>
<trkpt lat="-26.8457719" lon="152.7428588">
<ele>521.014</ele>
<time>2017-05-17T01:58:00.927Z</time>
</trkpt>
<trkpt lat="-26.8455516" lon="152.7427402">
<ele>521.306</ele>
<time>2017-05-17T01:58:02.562Z</time>
</trkpt>
<trkpt lat="-26.8454441" lon="152.7425505">
<ele>521.660</ele>
<time>2017-05-17T01:58:03.904Z</time>
</trkpt>
<trkpt lat="-26.8453714" lon="152.7423088">
<ele>521.879</ele>
<time>2017-05-17T01:58:05.518Z</time>
</trkpt>
<trkpt lat="-26.8452498" lon="152.7420608">
<ele>521.802</ele>
<time>2017-05-17T01:58:07.515Z</time>
</trkpt>
<trkpt lat="-26.8450852" lon="152.7418263">
<ele>521.557</ele>
<time>2017-05-17T01:58:09.995Z</time>
</trkpt>
<trkpt lat="-26.8448735" lon="152.7416621">
<ele>521.419</ele>
<time>2017-05-17T01:58:12.371Z</time>
</trkpt>
<trkpt lat="-26.8446750" lon="152.7415663">
<ele>521.582</ele>
<time>2017-05-17T01:58:14.197Z</time>
</trkpt>
<trkpt lat="-26.8444544" lon="152.7413408">
<ele>521.984</ele>
<time>2017-05-17T01:58:16.700Z</time>
</trkpt>
<trkpt lat="-26.8444910" lon="152.7410197">
<ele>522.388</ele>
<time>2017-05-17T01:58:19.280Z</time>
</trkpt>
<trkpt lat="-26.8444907" lon="152.7404592">
<ele>522.799</ele>
<time>2017-05-17T01:58:23.971Z</time>
</trkpt>
<trkpt lat="-26.8443629" lon="152.7400614">
<ele>523.406</ele>
<time>2017-05-17T01:58:27.091Z</time>
</trkpt>
<trkpt lat="-26.8440257" lon="152.7397708">
<ele>524.084</ele>
<time>2017-05-17T01:58:30.314Z</time>
</trkpt>
<trkpt lat="-26.8436565" lon="152.7394729">
<ele>524.629</ele>
<time>2017-05-17T01:58:33.530Z</time>
</trkpt>
<trkpt lat="-26.8434096" lon="152.7392912">
<ele>525.064</ele>
<time>2017-05-17T01:58:35.527Z</time>
</trkpt>
<trkpt lat="-26.8430803" lon="152.7389392">
<ele>525.267</ele>
<time>2017-05-17T01:58:38.555Z</time>
</trkpt>
<trkpt lat="-26.8426810" lon="152.7386929">
<ele>524.735</ele>
<time>2017-05-17T01:58:41.575Z</time>
</trkpt>
<trkpt lat="-26.8423877" lon="152.7385778">
<ele>522.980</ele>
<time>2017-05-17T01:58:43.625Z</time>
</trkpt>
<trkpt lat="-26.8421130" lon="152.7384713">
<ele>520.259</ele>
<time>2017-05-17T01:58:45.540Z</time>
</trkpt>
<trkpt lat="-26.8418569" lon="152.7383905">
<ele>517.533</ele>
<time>2017-05-17T01:58:47.317Z</time>
</trkpt>
<trkpt lat="-26.8415265" lon="152.7383044">
<ele>515.479</ele>
<time>2017-05-17T01:58:49.810Z</time>
</trkpt>
<trkpt lat="-26.8412587" lon="152.7384042">
<ele>514.098</ele>
<time>2017-05-17T01:58:52.111Z</time>
</trkpt>
<trkpt lat="-26.8409793" lon="152.7385516">
<ele>513.224</ele>
<time>2017-05-17T01:58:54.616Z</time>
</trkpt>
<trkpt lat="-26.8406995" lon="152.7386130">
<ele>512.834</ele>
<time>2017-05-17T01:58:56.714Z</time>
</trkpt>
<trkpt lat="-26.8402602" lon="152.7387226">
<ele>512.850</ele>
<time>2017-05-17T01:58:59.950Z</time>
</trkpt>
<trkpt lat="-26.8399322" lon="152.7388905">
<ele>513.033</ele>
<time>2017-05-17T01:59:02.666Z</time>
</trkpt>
<trkpt lat="-26.8396201" lon="152.7389627">
<ele>513.175</ele>
<time>2017-05-17T01:59:05.282Z</time>
</trkpt>
<trkpt lat="-26.8394593" lon="152.7389232">
<ele>513.085</ele>
<time>2017-05-17T01:59:06.727Z</time>
</trkpt>
<trkpt lat="-26.8393388" lon="152.7384898">
<ele>512.637</ele>
<time>2017-05-17T01:59:10.881Z</time>
</trkpt>
<trkpt lat="-26.8394087" lon="152.7380029">
<ele>512.018</ele>
<time>2017-05-17T01:59:14.798Z</time>
</trkpt>
<trkpt lat="-26.8394109" lon="152.7377896">
<ele>511.868</ele>
<time>2017-05-17T01:59:16.513Z</time>
</trkpt>
<trkpt lat="-26.8392909" lon="152.7375950">
<ele>512.645</ele>
<time>2017-05-17T01:59:18.562Z</time>
</trkpt>
<trkpt lat="-26.8390436" lon="152.7375345">
<ele>514.076</ele>
<time>2017-05-17T01:59:20.952Z</time>
</trkpt>
<trkpt lat="-26.8387134" lon="152.7374415">
<ele>515.653</ele>
<time>2017-05-17T01:59:23.605Z</time>
</trkpt>
<trkpt lat="-26.8382998" lon="152.7373027">
<ele>517.154</ele>
<time>2017-05-17T01:59:26.724Z</time>
</trkpt>
<trkpt lat="-26.8380150" lon="152.7369503">
<ele>518.392</ele>
<time>2017-05-17T01:59:29.667Z</time>
</trkpt>
<trkpt lat="-26.8378801" lon="152.7366794">
<ele>519.220</ele>
<time>2017-05-17T01:59:31.645Z</time>
</trkpt>
<trkpt lat="-26.8377037" lon="152.7364877">
<ele>519.740</ele>
<time>2017-05-17T01:59:33.543Z</time>
</trkpt>
<trkpt lat="-26.8372311" lon="152.7364317">
<ele>520.241</ele>
<time>2017-05-17T01:59:37.315Z</time>
</trkpt>
<trkpt lat="-26.8368874" lon="152.7365952">
<ele>520.878</ele>
<time>2017-05-17T01:59:40.513Z</time>
</trkpt>
<trkpt lat="-26.8366710" lon="152.7367178">
<ele>521.495</ele>
<time>2017-05-17T01:59:42.980Z</time>
</trkpt>
<trkpt lat="-26.8367108" lon="152.7370444">
<ele>521.796</ele>
<time>2017-05-17T01:59:46.118Z</time>
</trkpt>
<trkpt lat="-26.8368609" lon="152.7373697">
<ele>521.728</ele>
<time>2017-05-17T01:59:49.160Z</time>
</trkpt>
<trkpt lat="-26.8369064" lon="152.7378174">
<ele>521.506</ele>
<time>2017-05-17T01:59:52.534Z</time>
</trkpt>
<trkpt lat="-26.8368619" lon="152.7381188">
<ele>521.295</ele>
<time>2017-05-17T01:59:54.549Z</time>
</trkpt>
<trkpt lat="-26.8367754" lon="152.7385695">
<ele>521.028</ele>
<time>2017-05-17T01:59:57.435Z</time>
</trkpt>
<trkpt lat="-26.8365304" lon="152.7389731">
<ele>520.441</ele>
<time>2017-05-17T02:00:00.424Z</time>
</trkpt>
<trkpt lat="-26.8363810" lon="152.7394126">
<ele>519.474</ele>
<time>2017-05-17T02:00:03.536Z</time>
</trkpt>
<trkpt lat="-26.8362633" lon="152.7397553">
<ele>518.543</ele>
<time>2017-05-17T02:00:06.521Z</time>
</trkpt>
<trkpt lat="-26.8361248" lon="152.7399549">
<ele>518.153</ele>
<time>2017-05-17T02:00:08.893Z</time>
</trkpt>
<trkpt lat="-26.8357879" lon="152.7399416">
<ele>518.620</ele>
<time>2017-05-17T02:00:12.260Z</time>
</trkpt>
<trkpt lat="-26.8355183" lon="152.7398614">
<ele>520.212</ele>
<time>2017-05-17T02:00:14.795Z</time>
</trkpt>
<trkpt lat="-26.8352687" lon="152.7398387">
<ele>522.721</ele>
<time>2017-05-17T02:00:17.122Z</time>
</trkpt>
<trkpt lat="-26.8349698" lon="152.7399542">
<ele>525.218</ele>
<time>2017-05-17T02:00:19.963Z</time>
</trkpt>
<trkpt lat="-26.8348584" lon="152.7402314">
<ele>526.852</ele>
<time>2017-05-17T02:00:21.973Z</time>
</trkpt>
<trkpt lat="-26.8347411" lon="152.7407083">
<ele>527.649</ele>
<time>2017-05-17T02:00:25.012Z</time>
</trkpt>
<trkpt lat="-26.8346351" lon="152.7412103">
<ele>528.521</ele>
<time>2017-05-17T02:00:27.995Z</time>
</trkpt>
<trkpt lat="-26.8345372" lon="152.7415572">
<ele>530.647</ele>
<time>2017-05-17T02:00:30.033Z</time>
</trkpt>
<trkpt lat="-26.8342928" lon="152.7420235">
<ele>534.098</ele>
<time>2017-05-17T02:00:33.237Z</time>
</trkpt>
<trkpt lat="-26.8341351" lon="152.7424080">
<ele>537.941</ele>
<time>2017-05-17T02:00:36.312Z</time>
</trkpt>
<trkpt lat="-26.8339189" lon="152.7426076">
<ele>541.995</ele>
<time>2017-05-17T02:00:38.704Z</time>
</trkpt>
<trkpt lat="-26.8334966" lon="152.7426772">
<ele>547.170</ele>
<time>2017-05-17T02:00:41.872Z</time>
</trkpt>
<trkpt lat="-26.8331989" lon="152.7428036">
<ele>553.389</ele>
<time>2017-05-17T02:00:43.931Z</time>
</trkpt>
<trkpt lat="-26.8327532" lon="152.7429323">
<ele>559.025</ele>
<time>2017-05-17T02:00:47.023Z</time>
</trkpt>
<trkpt lat="-26.8325348" lon="152.7430128">
<ele>563.313</ele>
<time>2017-05-17T02:00:49.010Z</time>
</trkpt>
<trkpt lat="-26.8324053" lon="152.7431357">
<ele>566.823</ele>
<time>2017-05-17T02:00:50.834Z</time>
</trkpt>
<trkpt lat="-26.8321501" lon="152.7431819">
<ele>569.451</ele>
<time>2017-05-17T02:00:53.723Z</time>
</trkpt>
<trkpt lat="-26.8320260" lon="152.7432840">
<ele>570.667</ele>
<time>2017-05-17T02:00:55.506Z</time>
</trkpt>
<trkpt lat="-26.8319704" lon="152.7434725">
<ele>570.604</ele>
<time>2017-05-17T02:00:57.377Z</time>
</trkpt>
<trkpt lat="-26.8319712" lon="152.7438890">
<ele>569.614</ele>
<time>2017-05-17T02:01:00.886Z</time>
</trkpt>
<trkpt lat="-26.8319801" lon="152.7441852">
<ele>568.064</ele>
<time>2017-05-17T02:01:03.271Z</time>
</trkpt>
<trkpt lat="-26.8318892" lon="152.7445042">
<ele>566.597</ele>
<time>2017-05-17T02:01:06.124Z</time>
</trkpt>
<trkpt lat="-26.8319695" lon="152.7448235">
<ele>566.912</ele>
<time>2017-05-17T02:01:09.007Z</time>
</trkpt>
<trkpt lat="-26.8320664" lon="152.7449992">
<ele>570.205</ele>
<time>2017-05-17T02:01:10.702Z</time>
</trkpt>
<trkpt lat="-26.8320673" lon="152.7453875">
<ele>574.693</ele>
<time>2017-05-17T02:01:13.774Z</time>
</trkpt>
<trkpt lat="-26.8319612" lon="152.7456377">
<ele>577.599</ele>
<time>2017-05-17T02:01:15.885Z</time>
</trkpt>
<trkpt lat="-26.8318090" lon="152.7459903">
<ele>578.063</ele>
<time>2017-05-17T02:01:18.895Z</time>
</trkpt>
<trkpt lat="-26.8316344" lon="152.7461539">
<ele>576.243</ele>
<time>2017-05-17T02:01:20.797Z</time>
</trkpt>
<trkpt lat="-26.8312734" lon="152.7462684">
<ele>572.782</ele>
<time>2017-05-17T02:01:23.795Z</time>
</trkpt>
<trkpt lat="-26.8310276" lon="152.7463706">
<ele>568.715</ele>
<time>2017-05-17T02:01:25.739Z</time>
</trkpt>
<trkpt lat="-26.8307552" lon="152.7464301">
<ele>564.870</ele>
<time>2017-05-17T02:01:27.783Z</time>
</trkpt>
<trkpt lat="-26.8305080" lon="152.7464536">
<ele>561.730</ele>
<time>2017-05-17T02:01:29.733Z</time>
</trkpt>
<trkpt lat="-26.8302741" lon="152.7465698">
<ele>559.407</ele>
<time>2017-05-17T02:01:31.735Z</time>
</trkpt>
<trkpt lat="-26.8300361" lon="152.7469062">
<ele>557.837</ele>
<time>2017-05-17T02:01:34.560Z</time>
</trkpt>
<trkpt lat="-26.8299163" lon="152.7472194">
<ele>557.372</ele>
<time>2017-05-17T02:01:36.681Z</time>
</trkpt>
<trkpt lat="-26.8297586" lon="152.7476463">
<ele>558.459</ele>
<time>2017-05-17T02:01:39.636Z</time>
</trkpt>
<trkpt lat="-26.8297076" lon="152.7479243">
<ele>561.053</ele>
<time>2017-05-17T02:01:41.563Z</time>
</trkpt>
<trkpt lat="-26.8296437" lon="152.7481952">
<ele>564.392</ele>
<time>2017-05-17T02:01:43.625Z</time>
</trkpt>
<trkpt lat="-26.8295493" lon="152.7485344">
<ele>567.390</ele>
<time>2017-05-17T02:01:46.422Z</time>
</trkpt>
<trkpt lat="-26.8294815" lon="152.7488504">
<ele>569.316</ele>
<time>2017-05-17T02:01:49.077Z</time>
</trkpt>
<trkpt lat="-26.8294438" lon="152.7491044">
<ele>570.109</ele>
<time>2017-05-17T02:01:51.037Z</time>
</trkpt>
<trkpt lat="-26.8296254" lon="152.7494676">
<ele>570.180</ele>
<time>2017-05-17T02:01:53.932Z</time>
</trkpt>
<trkpt lat="-26.8299505" lon="152.7498748">
<ele>570.036</ele>
<time>2017-05-17T02:01:57.291Z</time>
</trkpt>
<trkpt lat="-26.8301784" lon="152.7501097">
<ele>569.754</ele>
<time>2017-05-17T02:01:59.283Z</time>
</trkpt>
<trkpt lat="-26.8304011" lon="152.7503469">
<ele>568.992</ele>
<time>2017-05-17T02:02:01.352Z</time>
</trkpt>
<trkpt lat="-26.8305611" lon="152.7505778">
<ele>567.356</ele>
<time>2017-05-17T02:02:03.326Z</time>
</trkpt>
<trkpt lat="-26.8306891" lon="152.7508595">
<ele>564.660</ele>
<time>2017-05-17T02:02:05.525Z</time>
</trkpt>
<trkpt lat="-26.8306385" lon="152.7511808">
<ele>560.977</ele>
<time>2017-05-17T02:02:07.612Z</time>
</trkpt>
<trkpt lat="-26.8305717" lon="152.7517066">
<ele>556.655</ele>
<time>2017-05-17T02:02:10.944Z</time>
</trkpt>
<trkpt lat="-26.8305630" lon="152.7520234">
<ele>552.285</ele>
<time>2017-05-17T02:02:13.048Z</time>
</trkpt>
<trkpt lat="-26.8303944" lon="152.7524314">
<ele>548.713</ele>
<time>2017-05-17T02:02:16.093Z</time>
</trkpt>
<trkpt lat="-26.8301259" lon="152.7527347">
<ele>546.415</ele>
<time>2017-05-17T02:02:19.072Z</time>
</trkpt>
<trkpt lat="-26.8299038" lon="152.7530583">
<ele>544.894</ele>
<time>2017-05-17T02:02:21.997Z</time>
</trkpt>
<trkpt lat="-26.8296959" lon="152.7533727">
<ele>543.240</ele>
<time>2017-05-17T02:02:24.774Z</time>
</trkpt>
<trkpt lat="-26.8296713" lon="152.7536548">
<ele>540.860</ele>
<time>2017-05-17T02:02:26.478Z</time>
</trkpt>
<trkpt lat="-26.8296442" lon="152.7542476">
<ele>537.663</ele>
<time>2017-05-17T02:02:29.556Z</time>
</trkpt>
<trkpt lat="-26.8293453" lon="152.7549020">
<ele>533.857</ele>
<time>2017-05-17T02:02:32.789Z</time>
</trkpt>
<trkpt lat="-26.8291317" lon="152.7552926">
<ele>530.244</ele>
<time>2017-05-17T02:02:34.908Z</time>
</trkpt>
<trkpt lat="-26.8288576" lon="152.7557639">
<ele>527.984</ele>
<time>2017-05-17T02:02:38.024Z</time>
</trkpt>
<trkpt lat="-26.8286806" lon="152.7559177">
<ele>526.665</ele>
<time>2017-05-17T02:02:40.118Z</time>
</trkpt>
<trkpt lat="-26.8285968" lon="152.7562099">
<ele>525.114</ele>
<time>2017-05-17T02:02:42.701Z</time>
</trkpt>
<trkpt lat="-26.8286532" lon="152.7564681">
<ele>526.084</ele>
<time>2017-05-17T02:02:44.773Z</time>
</trkpt>
<trkpt lat="-26.8288549" lon="152.7567847">
<ele>531.718</ele>
<time>2017-05-17T02:02:47.829Z</time>
</trkpt>
<trkpt lat="-26.8290200" lon="152.7569406">
<ele>536.458</ele>
<time>2017-05-17T02:02:49.707Z</time>
</trkpt>
<trkpt lat="-26.8293804" lon="152.7569853">
<ele>534.768</ele>
<time>2017-05-17T02:02:52.782Z</time>
</trkpt>
<trkpt lat="-26.8297436" lon="152.7570677">
<ele>529.105</ele>
<time>2017-05-17T02:02:55.834Z</time>
</trkpt>
<trkpt lat="-26.8300031" lon="152.7573663">
<ele>524.242</ele>
<time>2017-05-17T02:02:58.760Z</time>
</trkpt>
<trkpt lat="-26.8302660" lon="152.7577411">
<ele>522.521</ele>
<time>2017-05-17T02:03:02.017Z</time>
</trkpt>
<trkpt lat="-26.8303644" lon="152.7581684">
<ele>523.948</ele>
<time>2017-05-17T02:03:05.054Z</time>
</trkpt>
<trkpt lat="-26.8304665" lon="152.7585919">
<ele>526.600</ele>
<time>2017-05-17T02:03:08.203Z</time>
</trkpt>
<trkpt lat="-26.8305350" lon="152.7589799">
<ele>528.453</ele>
<time>2017-05-17T02:03:11.495Z</time>
</trkpt>
<trkpt lat="-26.8305123" lon="152.7591757">
<ele>528.850</ele>
<time>2017-05-17T02:03:13.520Z</time>
</trkpt>
<trkpt lat="-26.8304030" lon="152.7593794">
<ele>528.027</ele>
<time>2017-05-17T02:03:15.800Z</time>
</trkpt>
<trkpt lat="-26.8300339" lon="152.7594243">
<ele>526.448</ele>
<time>2017-05-17T02:03:18.963Z</time>
</trkpt>
<trkpt lat="-26.8295823" lon="152.7594613">
<ele>524.765</ele>
<time>2017-05-17T02:03:21.925Z</time>
</trkpt>
<trkpt lat="-26.8290577" lon="152.7594111">
<ele>523.797</ele>
<time>2017-05-17T02:03:24.918Z</time>
</trkpt>
<trkpt lat="-26.8286929" lon="152.7594395">
<ele>524.385</ele>
<time>2017-05-17T02:03:26.952Z</time>
</trkpt>
<trkpt lat="-26.8281738" lon="152.7594468">
<ele>526.660</ele>
<time>2017-05-17T02:03:29.915Z</time>
</trkpt>
<trkpt lat="-26.8278402" lon="152.7594664">
<ele>529.896</ele>
<time>2017-05-17T02:03:31.860Z</time>
</trkpt>
<trkpt lat="-26.8274998" lon="152.7595129">
<ele>533.154</ele>
<time>2017-05-17T02:03:33.843Z</time>
</trkpt>
<trkpt lat="-26.8269826" lon="152.7594713">
<ele>535.880</ele>
<time>2017-05-17T02:03:36.878Z</time>
</trkpt>
<trkpt lat="-26.8266535" lon="152.7595146">
<ele>537.999</ele>
<time>2017-05-17T02:03:38.981Z</time>
</trkpt>
<trkpt lat="-26.8263930" lon="152.7595313">
<ele>539.612</ele>
<time>2017-05-17T02:03:40.893Z</time>
</trkpt>
<trkpt lat="-26.8260391" lon="152.7596552">
<ele>540.577</ele>
<time>2017-05-17T02:03:43.843Z</time>
</trkpt>
<trkpt lat="-26.8258803" lon="152.7599956">
<ele>540.868</ele>
<time>2017-05-17T02:03:46.583Z</time>
</trkpt>
<trkpt lat="-26.8258084" lon="152.7604803">
<ele>540.777</ele>
<time>2017-05-17T02:03:49.679Z</time>
</trkpt>
<trkpt lat="-26.8257123" lon="152.7609929">
<ele>540.908</ele>
<time>2017-05-17T02:03:52.633Z</time>
</trkpt>
<trkpt lat="-26.8256005" lon="152.7615322">
<ele>541.997</ele>
<time>2017-05-17T02:03:55.637Z</time>
</trkpt>
<trkpt lat="-26.8255732" lon="152.7618984">
<ele>544.160</ele>
<time>2017-05-17T02:03:57.640Z</time>
</trkpt>
<trkpt lat="-26.8255132" lon="152.7624201">
<ele>546.657</ele>
<time>2017-05-17T02:04:00.510Z</time>
</trkpt>
<trkpt lat="-26.8254199" lon="152.7629577">
<ele>548.723</ele>
<time>2017-05-17T02:04:03.469Z</time>
</trkpt>
<trkpt lat="-26.8253689" lon="152.7633258">
<ele>550.094</ele>
<time>2017-05-17T02:04:05.459Z</time>
</trkpt>
<trkpt lat="-26.8252755" lon="152.7638731">
<ele>550.859</ele>
<time>2017-05-17T02:04:08.425Z</time>
</trkpt>
<trkpt lat="-26.8251745" lon="152.7644139">
<ele>551.354</ele>
<time>2017-05-17T02:04:11.370Z</time>
</trkpt>
<trkpt lat="-26.8251137" lon="152.7647747">
<ele>552.026</ele>
<time>2017-05-17T02:04:13.339Z</time>
</trkpt>
<trkpt lat="-26.8250581" lon="152.7653207">
<ele>552.989</ele>
<time>2017-05-17T02:04:16.290Z</time>
</trkpt>
<trkpt lat="-26.8249739" lon="152.7656725">
<ele>554.142</ele>
<time>2017-05-17T02:04:18.257Z</time>
</trkpt>
<trkpt lat="-26.8249013" lon="152.7660084">
<ele>555.442</ele>
<time>2017-05-17T02:04:20.268Z</time>
</trkpt>
<trkpt lat="-26.8247866" lon="152.7664133">
<ele>556.725</ele>
<time>2017-05-17T02:04:23.048Z</time>
</trkpt>
<trkpt lat="-26.8247775" lon="152.7666314">
<ele>557.756</ele>
<time>2017-05-17T02:04:24.806Z</time>
</trkpt>
<trkpt lat="-26.8246944" lon="152.7668082">
<ele>558.488</ele>
<time>2017-05-17T02:04:26.573Z</time>
</trkpt>
<trkpt lat="-26.8243737" lon="152.7669255">
<ele>559.018</ele>
<time>2017-05-17T02:04:29.754Z</time>
</trkpt>
<trkpt lat="-26.8239780" lon="152.7670386">
<ele>559.420</ele>
<time>2017-05-17T02:04:32.942Z</time>
</trkpt>
<trkpt lat="-26.8236964" lon="152.7671213">
<ele>559.669</ele>
<time>2017-05-17T02:04:34.934Z</time>
</trkpt>
<trkpt lat="-26.8232311" lon="152.7672442">
<ele>559.638</ele>
<time>2017-05-17T02:04:38.040Z</time>
</trkpt>
<trkpt lat="-26.8227429" lon="152.7673898">
<ele>559.120</ele>
<time>2017-05-17T02:04:41.294Z</time>
</trkpt>
<trkpt lat="-26.8224523" lon="152.7674501">
<ele>557.981</ele>
<time>2017-05-17T02:04:43.273Z</time>
</trkpt>
<trkpt lat="-26.8221856" lon="152.7675332">
<ele>556.428</ele>
<time>2017-05-17T02:04:45.209Z</time>
</trkpt>
<trkpt lat="-26.8219365" lon="152.7675851">
<ele>554.817</ele>
<time>2017-05-17T02:04:47.095Z</time>
</trkpt>
<trkpt lat="-26.8217054" lon="152.7676865">
<ele>553.306</ele>
<time>2017-05-17T02:04:49.260Z</time>
</trkpt>
<trkpt lat="-26.8215048" lon="152.7678167">
<ele>551.836</ele>
<time>2017-05-17T02:04:51.700Z</time>
</trkpt>
<trkpt lat="-26.8214156" lon="152.7678948">
<ele>550.118</ele>
<time>2017-05-17T02:04:53.318Z</time>
</trkpt>
<trkpt lat="-26.8212966" lon="152.7679779">
<ele>547.980</ele>
<time>2017-05-17T02:04:55.965Z</time>
</trkpt>
<trkpt lat="-26.8210955" lon="152.7678829">
<ele>545.708</ele>
<time>2017-05-17T02:04:58.618Z</time>
</trkpt>
<trkpt lat="-26.8206769" lon="152.7677159">
<ele>543.861</ele>
<time>2017-05-17T02:05:01.942Z</time>
</trkpt>
<trkpt lat="-26.8203295" lon="152.7676379">
<ele>542.981</ele>
<time>2017-05-17T02:05:03.956Z</time>
</trkpt>
<trkpt lat="-26.8197391" lon="152.7674647">
<ele>543.224</ele>
<time>2017-05-17T02:05:07.062Z</time>
</trkpt>
<trkpt lat="-26.8191473" lon="152.7672754">
<ele>544.163</ele>
<time>2017-05-17T02:05:10.027Z</time>
</trkpt>
<trkpt lat="-26.8185637" lon="152.7670462">
<ele>545.227</ele>
<time>2017-05-17T02:05:12.983Z</time>
</trkpt>
<trkpt lat="-26.8181617" lon="152.7669242">
<ele>546.022</ele>
<time>2017-05-17T02:05:14.971Z</time>
</trkpt>
<trkpt lat="-26.8177584" lon="152.7668050">
<ele>546.417</ele>
<time>2017-05-17T02:05:17.023Z</time>
</trkpt>
<trkpt lat="-26.8173190" lon="152.7664719">
<ele>546.452</ele>
<time>2017-05-17T02:05:19.885Z</time>
</trkpt>
<trkpt lat="-26.8171346" lon="152.7662776">
<ele>545.839</ele>
<time>2017-05-17T02:05:21.634Z</time>
</trkpt>
<trkpt lat="-26.8169923" lon="152.7661919">
<ele>544.044</ele>
<time>2017-05-17T02:05:22.995Z</time>
</trkpt>
<trkpt lat="-26.8169923" lon="152.7661919">
<ele>541.555</ele>
<time>2017-05-17T02:05:33.995Z</time>
</trkpt>
<trkpt lat="-26.8169923" lon="152.7661919">
<ele>539.923</ele>
<time>2017-05-17T02:06:25.601Z</time>
</trkpt>
<trkpt lat="-26.8168397" lon="152.7661072">
<ele>539.789</ele>
<time>2017-05-17T02:06:29.973Z</time>
</trkpt>
<trkpt lat="-26.8165105" lon="152.7658802">
<ele>539.865</ele>
<time>2017-05-17T02:06:33.592Z</time>
</trkpt>
<trkpt lat="-26.8162461" lon="152.7656989">
<ele>539.044</ele>
<time>2017-05-17T02:06:35.563Z</time>
</trkpt>
<trkpt lat="-26.8157716" lon="152.7653164">
<ele>538.116</ele>
<time>2017-05-17T02:06:38.854Z</time>
</trkpt>
<trkpt lat="-26.8155164" lon="152.7649654">
<ele>538.379</ele>
<time>2017-05-17T02:06:40.958Z</time>
</trkpt>
<trkpt lat="-26.8152855" lon="152.7646330">
<ele>539.959</ele>
<time>2017-05-17T02:06:42.955Z</time>
</trkpt>
<trkpt lat="-26.8150221" lon="152.7643426">
<ele>542.132</ele>
<time>2017-05-17T02:06:44.957Z</time>
</trkpt>
<trkpt lat="-26.8144916" lon="152.7641559">
<ele>544.182</ele>
<time>2017-05-17T02:06:47.977Z</time>
</trkpt>
<trkpt lat="-26.8139382" lon="152.7642357">
<ele>545.842</ele>
<time>2017-05-17T02:06:50.955Z</time>
</trkpt>
<trkpt lat="-26.8134205" lon="152.7646160">
<ele>547.007</ele>
<time>2017-05-17T02:06:54.128Z</time>
</trkpt>
<trkpt lat="-26.8130655" lon="152.7651770">
<ele>547.586</ele>
<time>2017-05-17T02:06:57.161Z</time>
</trkpt>
<trkpt lat="-26.8128094" lon="152.7658075">
<ele>547.509</ele>
<time>2017-05-17T02:07:00.174Z</time>
</trkpt>
<trkpt lat="-26.8126223" lon="152.7662249">
<ele>546.602</ele>
<time>2017-05-17T02:07:02.199Z</time>
</trkpt>
<trkpt lat="-26.8123706" lon="152.7668493">
<ele>545.045</ele>
<time>2017-05-17T02:07:05.189Z</time>
</trkpt>
<trkpt lat="-26.8121806" lon="152.7672459">
<ele>543.623</ele>
<time>2017-05-17T02:07:07.175Z</time>
</trkpt>
<trkpt lat="-26.8117948" lon="152.7677621">
<ele>543.139</ele>
<time>2017-05-17T02:07:10.108Z</time>
</trkpt>
<trkpt lat="-26.8113349" lon="152.7682434">
<ele>544.216</ele>
<time>2017-05-17T02:07:13.127Z</time>
</trkpt>
<trkpt lat="-26.8108692" lon="152.7687105">
<ele>547.038</ele>
<time>2017-05-17T02:07:16.131Z</time>
</trkpt>
<trkpt lat="-26.8103818" lon="152.7691141">
<ele>550.771</ele>
<time>2017-05-17T02:07:19.109Z</time>
</trkpt>
<trkpt lat="-26.8100304" lon="152.7692705">
<ele>554.159</ele>
<time>2017-05-17T02:07:21.025Z</time>
</trkpt>
<trkpt lat="-26.8096661" lon="152.7693958">
<ele>556.704</ele>
<time>2017-05-17T02:07:22.985Z</time>
</trkpt>
<trkpt lat="-26.8092107" lon="152.7697743">
<ele>558.761</ele>
<time>2017-05-17T02:07:25.936Z</time>
</trkpt>
<trkpt lat="-26.8089302" lon="152.7703267">
<ele>561.029</ele>
<time>2017-05-17T02:07:28.923Z</time>
</trkpt>
<trkpt lat="-26.8088654" lon="152.7707488">
<ele>563.984</ele>
<time>2017-05-17T02:07:30.929Z</time>
</trkpt>
<trkpt lat="-26.8088896" lon="152.7711832">
<ele>567.235</ele>
<time>2017-05-17T02:07:32.974Z</time>
</trkpt>
<trkpt lat="-26.8090032" lon="152.7717956">
<ele>569.862</ele>
<time>2017-05-17T02:07:35.885Z</time>
</trkpt>
<trkpt lat="-26.8092632" lon="152.7723800">
<ele>571.384</ele>
<time>2017-05-17T02:07:38.857Z</time>
</trkpt>
<trkpt lat="-26.8096848" lon="152.7728639">
<ele>571.792</ele>
<time>2017-05-17T02:07:41.885Z</time>
</trkpt>
<trkpt lat="-26.8098987" lon="152.7735274">
<ele>571.079</ele>
<time>2017-05-17T02:07:45.018Z</time>
</trkpt>
<trkpt lat="-26.8098922" lon="152.7742846">
<ele>569.217</ele>
<time>2017-05-17T02:07:48.404Z</time>
</trkpt>
<trkpt lat="-26.8098144" lon="152.7746711">
<ele>566.556</ele>
<time>2017-05-17T02:07:50.201Z</time>
</trkpt>
<trkpt lat="-26.8095860" lon="152.7753010">
<ele>563.993</ele>
<time>2017-05-17T02:07:53.328Z</time>
</trkpt>
<trkpt lat="-26.8093712" lon="152.7758635">
<ele>562.340</ele>
<time>2017-05-17T02:07:56.199Z</time>
</trkpt>
<trkpt lat="-26.8092387" lon="152.7764738">
<ele>561.423</ele>
<time>2017-05-17T02:07:59.115Z</time>
</trkpt>
<trkpt lat="-26.8093155" lon="152.7769286">
<ele>560.246</ele>
<time>2017-05-17T02:08:01.155Z</time>
</trkpt>
<trkpt lat="-26.8095972" lon="152.7775735">
<ele>558.303</ele>
<time>2017-05-17T02:08:04.291Z</time>
</trkpt>
<trkpt lat="-26.8099136" lon="152.7781514">
<ele>555.888</ele>
<time>2017-05-17T02:08:07.350Z</time>
</trkpt>
<trkpt lat="-26.8100257" lon="152.7785467">
<ele>553.448</ele>
<time>2017-05-17T02:08:09.304Z</time>
</trkpt>
<trkpt lat="-26.8099709" lon="152.7791626">
<ele>551.540</ele>
<time>2017-05-17T02:08:12.224Z</time>
</trkpt>
<trkpt lat="-26.8098322" lon="152.7795577">
<ele>550.757</ele>
<time>2017-05-17T02:08:14.208Z</time>
</trkpt>
<trkpt lat="-26.8097985" lon="152.7801881">
<ele>551.333</ele>
<time>2017-05-17T02:08:17.088Z</time>
</trkpt>
<trkpt lat="-26.8099686" lon="152.7808420">
<ele>553.316</ele>
<time>2017-05-17T02:08:20.090Z</time>
</trkpt>
<trkpt lat="-26.8102084" lon="152.7814675">
<ele>556.551</ele>
<time>2017-05-17T02:08:23.031Z</time>
</trkpt>
<trkpt lat="-26.8103309" lon="152.7819159">
<ele>560.307</ele>
<time>2017-05-17T02:08:25.028Z</time>
</trkpt>
<trkpt lat="-26.8105760" lon="152.7825662">
<ele>563.564</ele>
<time>2017-05-17T02:08:28.040Z</time>
</trkpt>
<trkpt lat="-26.8107722" lon="152.7829703">
<ele>565.710</ele>
<time>2017-05-17T02:08:30.015Z</time>
</trkpt>
<trkpt lat="-26.8112508" lon="152.7834025">
<ele>566.708</ele>
<time>2017-05-17T02:08:32.998Z</time>
</trkpt>
<trkpt lat="-26.8115388" lon="152.7837224">
<ele>566.577</ele>
<time>2017-05-17T02:08:35.011Z</time>
</trkpt>
<trkpt lat="-26.8117385" lon="152.7843561">
<ele>565.240</ele>
<time>2017-05-17T02:08:37.983Z</time>
</trkpt>
<trkpt lat="-26.8116981" lon="152.7848120">
<ele>562.814</ele>
<time>2017-05-17T02:08:39.953Z</time>
</trkpt>
<trkpt lat="-26.8115429" lon="152.7852516">
<ele>559.884</ele>
<time>2017-05-17T02:08:41.949Z</time>
</trkpt>
<trkpt lat="-26.8112730" lon="152.7858909">
<ele>557.254</ele>
<time>2017-05-17T02:08:44.947Z</time>
</trkpt>
<trkpt lat="-26.8110224" lon="152.7865289">
<ele>555.187</ele>
<time>2017-05-17T02:08:47.906Z</time>
</trkpt>
<trkpt lat="-26.8108376" lon="152.7869900">
<ele>553.031</ele>
<time>2017-05-17T02:08:50.035Z</time>
</trkpt>
<trkpt lat="-26.8105897" lon="152.7873542">
<ele>550.433</ele>
<time>2017-05-17T02:08:51.983Z</time>
</trkpt>
<trkpt lat="-26.8102805" lon="152.7876576">
<ele>547.782</ele>
<time>2017-05-17T02:08:53.965Z</time>
</trkpt>
<trkpt lat="-26.8098630" lon="152.7881563">
<ele>545.417</ele>
<time>2017-05-17T02:08:56.908Z</time>
</trkpt>
<trkpt lat="-26.8096297" lon="152.7885336">
<ele>543.490</ele>
<time>2017-05-17T02:08:58.874Z</time>
</trkpt>
<trkpt lat="-26.8094232" lon="152.7889455">
<ele>542.259</ele>
<time>2017-05-17T02:09:00.890Z</time>
</trkpt>
<trkpt lat="-26.8091974" lon="152.7895902">
<ele>541.742</ele>
<time>2017-05-17T02:09:03.835Z</time>
</trkpt>
<trkpt lat="-26.8088425" lon="152.7901685">
<ele>541.803</ele>
<time>2017-05-17T02:09:06.810Z</time>
</trkpt>
<trkpt lat="-26.8084362" lon="152.7907007">
<ele>542.220</ele>
<time>2017-05-17T02:09:09.774Z</time>
</trkpt>
<trkpt lat="-26.8082153" lon="152.7910978">
<ele>542.421</ele>
<time>2017-05-17T02:09:11.749Z</time>
</trkpt>
<trkpt lat="-26.8079416" lon="152.7914553">
<ele>541.744</ele>
<time>2017-05-17T02:09:13.726Z</time>
</trkpt>
<trkpt lat="-26.8074890" lon="152.7919464">
<ele>540.040</ele>
<time>2017-05-17T02:09:16.672Z</time>
</trkpt>
<trkpt lat="-26.8071012" lon="152.7921696">
<ele>537.282</ele>
<time>2017-05-17T02:09:18.724Z</time>
</trkpt>
<trkpt lat="-26.8065184" lon="152.7924281">
<ele>533.507</ele>
<time>2017-05-17T02:09:21.738Z</time>
</trkpt>
<trkpt lat="-26.8061283" lon="152.7925136">
<ele>528.946</ele>
<time>2017-05-17T02:09:23.684Z</time>
</trkpt>
<trkpt lat="-26.8055246" lon="152.7925754">
<ele>524.061</ele>
<time>2017-05-17T02:09:26.623Z</time>
</trkpt>
<trkpt lat="-26.8049011" lon="152.7926838">
<ele>519.992</ele>
<time>2017-05-17T02:09:29.652Z</time>
</trkpt>
<trkpt lat="-26.8045394" lon="152.7929026">
<ele>518.070</ele>
<time>2017-05-17T02:09:31.642Z</time>
</trkpt>
<trkpt lat="-26.8042230" lon="152.7931964">
<ele>518.281</ele>
<time>2017-05-17T02:09:33.634Z</time>
</trkpt>
<trkpt lat="-26.8038751" lon="152.7937730">
<ele>519.613</ele>
<time>2017-05-17T02:09:36.627Z</time>
</trkpt>
<trkpt lat="-26.8035634" lon="152.7943729">
<ele>521.664</ele>
<time>2017-05-17T02:09:39.599Z</time>
</trkpt>
<trkpt lat="-26.8031366" lon="152.7948879">
<ele>524.153</ele>
<time>2017-05-17T02:09:42.620Z</time>
</trkpt>
<trkpt lat="-26.8027729" lon="152.7950940">
<ele>525.787</ele>
<time>2017-05-17T02:09:44.605Z</time>
</trkpt>
<trkpt lat="-26.8021942" lon="152.7952945">
<ele>525.451</ele>
<time>2017-05-17T02:09:47.601Z</time>
</trkpt>
<trkpt lat="-26.8015687" lon="152.7954053">
<ele>523.325</ele>
<time>2017-05-17T02:09:50.800Z</time>
</trkpt>
<trkpt lat="-26.8010421" lon="152.7956918">
<ele>520.447</ele>
<time>2017-05-17T02:09:53.758Z</time>
</trkpt>
<trkpt lat="-26.8005207" lon="152.7960467">
<ele>518.075</ele>
<time>2017-05-17T02:09:56.803Z</time>
</trkpt>
<trkpt lat="-26.8001352" lon="152.7961837">
<ele>516.832</ele>
<time>2017-05-17T02:09:58.834Z</time>
</trkpt>
<trkpt lat="-26.7995437" lon="152.7961586">
<ele>516.501</ele>
<time>2017-05-17T02:10:01.838Z</time>
</trkpt>
<trkpt lat="-26.7991557" lon="152.7961449">
<ele>516.793</ele>
<time>2017-05-17T02:10:03.821Z</time>
</trkpt>
<trkpt lat="-26.7985846" lon="152.7959786">
<ele>517.742</ele>
<time>2017-05-17T02:10:06.791Z</time>
</trkpt>
<trkpt lat="-26.7982035" lon="152.7957759">
<ele>519.390</ele>
<time>2017-05-17T02:10:08.830Z</time>
</trkpt>
<trkpt lat="-26.7976808" lon="152.7953790">
<ele>521.227</ele>
<time>2017-05-17T02:10:11.856Z</time>
</trkpt>
<trkpt lat="-26.7972301" lon="152.7948953">
<ele>522.318</ele>
<time>2017-05-17T02:10:14.874Z</time>
</trkpt>
<trkpt lat="-26.7969245" lon="152.7946100">
<ele>522.210</ele>
<time>2017-05-17T02:10:16.883Z</time>
</trkpt>
<trkpt lat="-26.7966446" lon="152.7943144">
<ele>521.344</ele>
<time>2017-05-17T02:10:18.865Z</time>
</trkpt>
<trkpt lat="-26.7962210" lon="152.7938749">
<ele>520.383</ele>
<time>2017-05-17T02:10:21.859Z</time>
</trkpt>
<trkpt lat="-26.7958098" lon="152.7934208">
<ele>519.708</ele>
<time>2017-05-17T02:10:24.939Z</time>
</trkpt>
<trkpt lat="-26.7952928" lon="152.7932917">
<ele>519.486</ele>
<time>2017-05-17T02:10:27.854Z</time>
</trkpt>
<trkpt lat="-26.7948925" lon="152.7934358">
<ele>519.853</ele>
<time>2017-05-17T02:10:30.101Z</time>
</trkpt>
<trkpt lat="-26.7945411" lon="152.7936971">
<ele>520.688</ele>
<time>2017-05-17T02:10:32.243Z</time>
</trkpt>
<trkpt lat="-26.7942848" lon="152.7940502">
<ele>521.521</ele>
<time>2017-05-17T02:10:34.233Z</time>
</trkpt>
<trkpt lat="-26.7939251" lon="152.7946161">
<ele>521.935</ele>
<time>2017-05-17T02:10:37.209Z</time>
</trkpt>
<trkpt lat="-26.7936863" lon="152.7949808">
<ele>521.788</ele>
<time>2017-05-17T02:10:39.115Z</time>
</trkpt>
<trkpt lat="-26.7933118" lon="152.7955526">
<ele>521.057</ele>
<time>2017-05-17T02:10:42.121Z</time>
</trkpt>
<trkpt lat="-26.7929411" lon="152.7960926">
<ele>519.724</ele>
<time>2017-05-17T02:10:45.056Z</time>
</trkpt>
<trkpt lat="-26.7924285" lon="152.7964851">
<ele>517.587</ele>
<time>2017-05-17T02:10:48.098Z</time>
</trkpt>
<trkpt lat="-26.7918569" lon="152.7967197">
<ele>514.470</ele>
<time>2017-05-17T02:10:51.148Z</time>
</trkpt>
<trkpt lat="-26.7913081" lon="152.7969370">
<ele>510.675</ele>
<time>2017-05-17T02:10:54.146Z</time>
</trkpt>
<trkpt lat="-26.7909993" lon="152.7971786">
<ele>506.904</ele>
<time>2017-05-17T02:10:56.138Z</time>
</trkpt>
<trkpt lat="-26.7907674" lon="152.7975079">
<ele>503.954</ele>
<time>2017-05-17T02:10:58.125Z</time>
</trkpt>
<trkpt lat="-26.7904326" lon="152.7980246">
<ele>502.328</ele>
<time>2017-05-17T02:11:01.125Z</time>
</trkpt>
<trkpt lat="-26.7900689" lon="152.7985320">
<ele>502.201</ele>
<time>2017-05-17T02:11:04.163Z</time>
</trkpt>
<trkpt lat="-26.7896766" lon="152.7989890">
<ele>503.883</ele>
<time>2017-05-17T02:11:07.126Z</time>
</trkpt>
<trkpt lat="-26.7893396" lon="152.7991324">
<ele>507.560</ele>
<time>2017-05-17T02:11:09.039Z</time>
</trkpt>
<trkpt lat="-26.7889280" lon="152.7992908">
<ele>511.940</ele>
<time>2017-05-17T02:11:11.380Z</time>
</trkpt>
<trkpt lat="-26.7884025" lon="152.7997193">
<ele>514.406</ele>
<time>2017-05-17T02:11:14.854Z</time>
</trkpt>
<trkpt lat="-26.7878903" lon="152.8002294">
<ele>514.022</ele>
<time>2017-05-17T02:11:18.327Z</time>
</trkpt>
<trkpt lat="-26.7875182" lon="152.8005150">
<ele>512.861</ele>
<time>2017-05-17T02:11:20.550Z</time>
</trkpt>
<trkpt lat="-26.7870075" lon="152.8008289">
<ele>513.145</ele>
<time>2017-05-17T02:11:23.412Z</time>
</trkpt>
<trkpt lat="-26.7865129" lon="152.8012223">
<ele>517.961</ele>
<time>2017-05-17T02:11:26.367Z</time>
</trkpt>
<trkpt lat="-26.7859874" lon="152.8015787">
<ele>527.839</ele>
<time>2017-05-17T02:11:29.361Z</time>
</trkpt>
<trkpt lat="-26.7854649" lon="152.8019198">
<ele>536.542</ele>
<time>2017-05-17T02:11:32.302Z</time>
</trkpt>
<trkpt lat="-26.7851539" lon="152.8022184">
<ele>538.209</ele>
<time>2017-05-17T02:11:34.301Z</time>
</trkpt>
<trkpt lat="-26.7848030" lon="152.8027670">
<ele>534.078</ele>
<time>2017-05-17T02:11:37.270Z</time>
</trkpt>
<trkpt lat="-26.7845329" lon="152.8030891">
<ele>528.031</ele>
<time>2017-05-17T02:11:39.216Z</time>
</trkpt>
<trkpt lat="-26.7842041" lon="152.8033601">
<ele>522.777</ele>
<time>2017-05-17T02:11:41.145Z</time>
</trkpt>
<trkpt lat="-26.7835699" lon="152.8036144">
<ele>519.031</ele>
<time>2017-05-17T02:11:44.232Z</time>
</trkpt>
<trkpt lat="-26.7831701" lon="152.8038101">
<ele>516.108</ele>
<time>2017-05-17T02:11:46.251Z</time>
</trkpt>
<trkpt lat="-26.7825710" lon="152.8040315">
<ele>513.105</ele>
<time>2017-05-17T02:11:49.237Z</time>
</trkpt>
<trkpt lat="-26.7821742" lon="152.8041897">
<ele>510.437</ele>
<time>2017-05-17T02:11:51.283Z</time>
</trkpt>
<trkpt lat="-26.7816228" lon="152.8044324">
<ele>509.262</ele>
<time>2017-05-17T02:11:54.212Z</time>
</trkpt>
<trkpt lat="-26.7812710" lon="152.8046103">
<ele>510.056</ele>
<time>2017-05-17T02:11:56.157Z</time>
</trkpt>
<trkpt lat="-26.7807402" lon="152.8049081">
<ele>512.162</ele>
<time>2017-05-17T02:11:59.224Z</time>
</trkpt>
<trkpt lat="-26.7802341" lon="152.8051652">
<ele>514.211</ele>
<time>2017-05-17T02:12:02.145Z</time>
</trkpt>
<trkpt lat="-26.7797487" lon="152.8054819">
<ele>515.191</ele>
<time>2017-05-17T02:12:05.002Z</time>
</trkpt>
<trkpt lat="-26.7794432" lon="152.8061534">
<ele>514.898</ele>
<time>2017-05-17T02:12:08.234Z</time>
</trkpt>
<trkpt lat="-26.7791913" lon="152.8068219">
<ele>513.506</ele>
<time>2017-05-17T02:12:11.223Z</time>
</trkpt>
<trkpt lat="-26.7789681" lon="152.8072386">
<ele>511.077</ele>
<time>2017-05-17T02:12:13.201Z</time>
</trkpt>
<trkpt lat="-26.7786921" lon="152.8079015">
<ele>507.640</ele>
<time>2017-05-17T02:12:16.204Z</time>
</trkpt>
<trkpt lat="-26.7785075" lon="152.8083159">
<ele>503.252</ele>
<time>2017-05-17T02:12:18.179Z</time>
</trkpt>
<trkpt lat="-26.7783295" lon="152.8087116">
<ele>498.783</ele>
<time>2017-05-17T02:12:20.147Z</time>
</trkpt>
<trkpt lat="-26.7780551" lon="152.8092762">
<ele>495.877</ele>
<time>2017-05-17T02:12:23.149Z</time>
</trkpt>
<trkpt lat="-26.7779072" lon="152.8098412">
<ele>495.365</ele>
<time>2017-05-17T02:12:25.963Z</time>
</trkpt>
<trkpt lat="-26.7779138" lon="152.8102920">
<ele>496.758</ele>
<time>2017-05-17T02:12:27.979Z</time>
</trkpt>
<trkpt lat="-26.7780047" lon="152.8109945">
<ele>498.961</ele>
<time>2017-05-17T02:12:31.094Z</time>
</trkpt>
<trkpt lat="-26.7780865" lon="152.8116717">
<ele>500.716</ele>
<time>2017-05-17T02:12:34.061Z</time>
</trkpt>
<trkpt lat="-26.7781812" lon="152.8121236">
<ele>501.272</ele>
<time>2017-05-17T02:12:36.070Z</time>
</trkpt>
<trkpt lat="-26.7782538" lon="152.8127854">
<ele>500.547</ele>
<time>2017-05-17T02:12:38.933Z</time>
</trkpt>
<trkpt lat="-26.7784867" lon="152.8134525">
<ele>498.833</ele>
<time>2017-05-17T02:12:41.972Z</time>
</trkpt>
<trkpt lat="-26.7786808" lon="152.8138636">
<ele>496.379</ele>
<time>2017-05-17T02:12:43.935Z</time>
</trkpt>
<trkpt lat="-26.7788780" lon="152.8142878">
<ele>493.374</ele>
<time>2017-05-17T02:12:45.949Z</time>
</trkpt>
<trkpt lat="-26.7790365" lon="152.8147595">
<ele>490.131</ele>
<time>2017-05-17T02:12:48.075Z</time>
</trkpt>
<trkpt lat="-26.7792759" lon="152.8152704">
<ele>486.930</ele>
<time>2017-05-17T02:12:50.585Z</time>
</trkpt>
<trkpt lat="-26.7793645" lon="152.8156017">
<ele>484.012</ele>
<time>2017-05-17T02:12:52.115Z</time>
</trkpt>
<trkpt lat="-26.7795691" lon="152.8162094">
<ele>481.492</ele>
<time>2017-05-17T02:12:54.990Z</time>
</trkpt>
<trkpt lat="-26.7796525" lon="152.8166466">
<ele>479.542</ele>
<time>2017-05-17T02:12:56.963Z</time>
</trkpt>
<trkpt lat="-26.7795437" lon="152.8173068">
<ele>478.653</ele>
<time>2017-05-17T02:12:59.924Z</time>
</trkpt>
<trkpt lat="-26.7794232" lon="152.8179527">
<ele>479.219</ele>
<time>2017-05-17T02:13:02.867Z</time>
</trkpt>
<trkpt lat="-26.7793365" lon="152.8185990">
<ele>480.977</ele>
<time>2017-05-17T02:13:05.866Z</time>
</trkpt>
<trkpt lat="-26.7792933" lon="152.8190100">
<ele>483.034</ele>
<time>2017-05-17T02:13:07.778Z</time>
</trkpt>
<trkpt lat="-26.7792828" lon="152.8196554">
<ele>484.484</ele>
<time>2017-05-17T02:13:10.679Z</time>
</trkpt>
<trkpt lat="-26.7794216" lon="152.8200947">
<ele>485.083</ele>
<time>2017-05-17T02:13:12.697Z</time>
</trkpt>
<trkpt lat="-26.7797784" lon="152.8206538">
<ele>485.190</ele>
<time>2017-05-17T02:13:15.653Z</time>
</trkpt>
<trkpt lat="-26.7800926" lon="152.8209604">
<ele>485.314</ele>
<time>2017-05-17T02:13:17.653Z</time>
</trkpt>
<trkpt lat="-26.7805994" lon="152.8213570">
<ele>485.691</ele>
<time>2017-05-17T02:13:20.650Z</time>
</trkpt>
<trkpt lat="-26.7811237" lon="152.8216872">
<ele>486.184</ele>
<time>2017-05-17T02:13:23.622Z</time>
</trkpt>
<trkpt lat="-26.7815257" lon="152.8221822">
<ele>486.558</ele>
<time>2017-05-17T02:13:26.591Z</time>
</trkpt>
<trkpt lat="-26.7816893" lon="152.8228481">
<ele>486.679</ele>
<time>2017-05-17T02:13:29.621Z</time>
</trkpt>
<trkpt lat="-26.7816739" lon="152.8235336">
<ele>486.575</ele>
<time>2017-05-17T02:13:32.598Z</time>
</trkpt>
<trkpt lat="-26.7815047" lon="152.8239515">
<ele>486.433</ele>
<time>2017-05-17T02:13:34.584Z</time>
</trkpt>
<trkpt lat="-26.7811890" lon="152.8245490">
<ele>486.431</ele>
<time>2017-05-17T02:13:37.591Z</time>
</trkpt>
<trkpt lat="-26.7809441" lon="152.8249054">
<ele>486.572</ele>
<time>2017-05-17T02:13:39.537Z</time>
</trkpt>
<trkpt lat="-26.7806058" lon="152.8255032">
<ele>486.723</ele>
<time>2017-05-17T02:13:42.602Z</time>
</trkpt>
<trkpt lat="-26.7804345" lon="152.8259213">
<ele>486.552</ele>
<time>2017-05-17T02:13:44.599Z</time>
</trkpt>
<trkpt lat="-26.7802020" lon="152.8263127">
<ele>485.772</ele>
<time>2017-05-17T02:13:46.648Z</time>
</trkpt>
<trkpt lat="-26.7799763" lon="152.8266888">
<ele>484.617</ele>
<time>2017-05-17T02:13:48.625Z</time>
</trkpt>
<trkpt lat="-26.7797857" lon="152.8270853">
<ele>483.537</ele>
<time>2017-05-17T02:13:50.590Z</time>
</trkpt>
<trkpt lat="-26.7794567" lon="152.8276503">
<ele>482.646</ele>
<time>2017-05-17T02:13:53.544Z</time>
</trkpt>
<trkpt lat="-26.7792550" lon="152.8280399">
<ele>481.843</ele>
<time>2017-05-17T02:13:55.529Z</time>
</trkpt>
<trkpt lat="-26.7790082" lon="152.8286626">
<ele>481.055</ele>
<time>2017-05-17T02:13:58.528Z</time>
</trkpt>
<trkpt lat="-26.7788969" lon="152.8293334">
<ele>480.398</ele>
<time>2017-05-17T02:14:01.505Z</time>
</trkpt>
<trkpt lat="-26.7787173" lon="152.8299835">
<ele>480.178</ele>
<time>2017-05-17T02:14:04.465Z</time>
</trkpt>
<trkpt lat="-26.7786258" lon="152.8306391">
<ele>480.727</ele>
<time>2017-05-17T02:14:07.380Z</time>
</trkpt>
<trkpt lat="-26.7786878" lon="152.8310736">
<ele>482.125</ele>
<time>2017-05-17T02:14:09.327Z</time>
</trkpt>
<trkpt lat="-26.7788281" lon="152.8314867">
<ele>484.020</ele>
<time>2017-05-17T02:14:11.269Z</time>
</trkpt>
<trkpt lat="-26.7790146" lon="152.8321557">
<ele>486.019</ele>
<time>2017-05-17T02:14:14.342Z</time>
</trkpt>
<trkpt lat="-26.7792144" lon="152.8327913">
<ele>488.072</ele>
<time>2017-05-17T02:14:17.343Z</time>
</trkpt>
<trkpt lat="-26.7792745" lon="152.8332091">
<ele>489.947</ele>
<time>2017-05-17T02:14:19.292Z</time>
</trkpt>
<trkpt lat="-26.7793618" lon="152.8336229">
<ele>491.014</ele>
<time>2017-05-17T02:14:21.285Z</time>
</trkpt>
<trkpt lat="-26.7794549" lon="152.8340386">
<ele>490.861</ele>
<time>2017-05-17T02:14:23.337Z</time>
</trkpt>
<trkpt lat="-26.7794213" lon="152.8344366">
<ele>489.525</ele>
<time>2017-05-17T02:14:25.366Z</time>
</trkpt>
<trkpt lat="-26.7792508" lon="152.8349477">
<ele>487.238</ele>
<time>2017-05-17T02:14:28.517Z</time>
</trkpt>
<trkpt lat="-26.7790054" lon="152.8352615">
<ele>484.184</ele>
<time>2017-05-17T02:14:31.837Z</time>
</trkpt>
<trkpt lat="-26.7789519" lon="152.8353984">
<ele>480.568</ele>
<time>2017-05-17T02:14:33.543Z</time>
</trkpt>
<trkpt lat="-26.7790633" lon="152.8356180">
<ele>477.079</ele>
<time>2017-05-17T02:14:36.301Z</time>
</trkpt>
<trkpt lat="-26.7792067" lon="152.8358007">
<ele>474.652</ele>
<time>2017-05-17T02:14:38.317Z</time>
</trkpt>
<trkpt lat="-26.7793286" lon="152.8362496">
<ele>473.645</ele>
<time>2017-05-17T02:14:41.471Z</time>
</trkpt>
<trkpt lat="-26.7794375" lon="152.8365989">
<ele>473.980</ele>
<time>2017-05-17T02:14:43.542Z</time>
</trkpt>
<trkpt lat="-26.7796169" lon="152.8371225">
<ele>475.308</ele>
<time>2017-05-17T02:14:46.544Z</time>
</trkpt>
<trkpt lat="-26.7797696" lon="152.8374625">
<ele>476.793</ele>
<time>2017-05-17T02:14:48.486Z</time>
</trkpt>
<trkpt lat="-26.7799573" lon="152.8378084">
<ele>477.549</ele>
<time>2017-05-17T02:14:50.500Z</time>
</trkpt>
<trkpt lat="-26.7802328" lon="152.8383183">
<ele>477.383</ele>
<time>2017-05-17T02:14:53.508Z</time>
</trkpt>
<trkpt lat="-26.7805290" lon="152.8387632">
<ele>476.741</ele>
<time>2017-05-17T02:14:56.436Z</time>
</trkpt>
<trkpt lat="-26.7806890" lon="152.8392772">
<ele>476.345</ele>
<time>2017-05-17T02:14:59.356Z</time>
</trkpt>
<trkpt lat="-26.7808228" lon="152.8398341">
<ele>476.691</ele>
<time>2017-05-17T02:15:02.345Z</time>
</trkpt>
<trkpt lat="-26.7809231" lon="152.8404351">
<ele>477.727</ele>
<time>2017-05-17T02:15:05.396Z</time>
</trkpt>
<trkpt lat="-26.7810182" lon="152.8408167">
<ele>478.910</ele>
<time>2017-05-17T02:15:07.412Z</time>
</trkpt>
<trkpt lat="-26.7811057" lon="152.8413643">
<ele>479.701</ele>
<time>2017-05-17T02:15:10.401Z</time>
</trkpt>
<trkpt lat="-26.7811093" lon="152.8416633">
<ele>479.971</ele>
<time>2017-05-17T02:15:12.290Z</time>
</trkpt>
<trkpt lat="-26.7810558" lon="152.8419100">
<ele>479.910</ele>
<time>2017-05-17T02:15:14.363Z</time>
</trkpt>
<trkpt lat="-26.7810783" lon="152.8421295">
<ele>479.742</ele>
<time>2017-05-17T02:15:16.657Z</time>
</trkpt>
<trkpt lat="-26.7811869" lon="152.8421363">
<ele>479.523</ele>
<time>2017-05-17T02:15:18.510Z</time>
</trkpt>
<trkpt lat="-26.7812677" lon="152.8420781">
<ele>479.109</ele>
<time>2017-05-17T02:15:21.005Z</time>
</trkpt>
<trkpt lat="-26.7812677" lon="152.8420781">
<ele>478.527</ele>
<time>2017-05-17T02:15:25.005Z</time>
</trkpt>
<trkpt lat="-26.7812677" lon="152.8420781">
<ele>478.074</ele>
<time>2017-05-17T02:21:16.484Z</time>
</trkpt>
<trkpt lat="-26.7811475" lon="152.8422062">
<ele>477.895</ele>
<time>2017-05-17T02:21:23.504Z</time>
</trkpt>
<trkpt lat="-26.7811689" lon="152.8424816">
<ele>477.849</ele>
<time>2017-05-17T02:21:26.682Z</time>
</trkpt>
<trkpt lat="-26.7812054" lon="152.8428818">
<ele>477.790</ele>
<time>2017-05-17T02:21:29.733Z</time>
</trkpt>
<trkpt lat="-26.7812332" lon="152.8432222">
<ele>477.712</ele>
<time>2017-05-17T02:21:31.760Z</time>
</trkpt>
<trkpt lat="-26.7812684" lon="152.8435894">
<ele>477.553</ele>
<time>2017-05-17T02:21:33.802Z</time>
</trkpt>
<trkpt lat="-26.7813031" lon="152.8439645">
<ele>477.079</ele>
<time>2017-05-17T02:21:35.851Z</time>
</trkpt>
<trkpt lat="-26.7813693" lon="152.8445075">
<ele>476.124</ele>
<time>2017-05-17T02:21:38.802Z</time>
</trkpt>
<trkpt lat="-26.7814265" lon="152.8448832">
<ele>474.606</ele>
<time>2017-05-17T02:21:40.775Z</time>
</trkpt>
<trkpt lat="-26.7815338" lon="152.8452716">
<ele>472.630</ele>
<time>2017-05-17T02:21:42.806Z</time>
</trkpt>
<trkpt lat="-26.7816807" lon="152.8459226">
<ele>470.573</ele>
<time>2017-05-17T02:21:46.158Z</time>
</trkpt>
<trkpt lat="-26.7817161" lon="152.8463097">
<ele>468.466</ele>
<time>2017-05-17T02:21:48.178Z</time>
</trkpt>
<trkpt lat="-26.7819004" lon="152.8468411">
<ele>466.038</ele>
<time>2017-05-17T02:21:51.150Z</time>
</trkpt>
<trkpt lat="-26.7820371" lon="152.8471969">
<ele>463.193</ele>
<time>2017-05-17T02:21:53.127Z</time>
</trkpt>
<trkpt lat="-26.7821111" lon="152.8475861">
<ele>460.069</ele>
<time>2017-05-17T02:21:55.132Z</time>
</trkpt>
<trkpt lat="-26.7822141" lon="152.8481686">
<ele>457.073</ele>
<time>2017-05-17T02:21:58.135Z</time>
</trkpt>
<trkpt lat="-26.7822867" lon="152.8485474">
<ele>454.295</ele>
<time>2017-05-17T02:22:00.113Z</time>
</trkpt>
<trkpt lat="-26.7823528" lon="152.8489233">
<ele>451.540</ele>
<time>2017-05-17T02:22:02.094Z</time>
</trkpt>
<trkpt lat="-26.7824537" lon="152.8494749">
<ele>449.312</ele>
<time>2017-05-17T02:22:05.068Z</time>
</trkpt>
<trkpt lat="-26.7825031" lon="152.8498300">
<ele>448.258</ele>
<time>2017-05-17T02:22:07.025Z</time>
</trkpt>
<trkpt lat="-26.7824500" lon="152.8503694">
<ele>448.444</ele>
<time>2017-05-17T02:22:09.961Z</time>
</trkpt>
<trkpt lat="-26.7823055" lon="152.8509032">
<ele>449.907</ele>
<time>2017-05-17T02:22:12.939Z</time>
</trkpt>
<trkpt lat="-26.7822035" lon="152.8512585">
<ele>452.525</ele>
<time>2017-05-17T02:22:14.872Z</time>
</trkpt>
<trkpt lat="-26.7820276" lon="152.8518133">
<ele>455.459</ele>
<time>2017-05-17T02:22:17.854Z</time>
</trkpt>
<trkpt lat="-26.7818976" lon="152.8524032">
<ele>457.612</ele>
<time>2017-05-17T02:22:20.865Z</time>
</trkpt>
<trkpt lat="-26.7817131" lon="152.8529692">
<ele>458.559</ele>
<time>2017-05-17T02:22:23.818Z</time>
</trkpt>
<trkpt lat="-26.7813893" lon="152.8534789">
<ele>458.562</ele>
<time>2017-05-17T02:22:26.883Z</time>
</trkpt>
<trkpt lat="-26.7812287" lon="152.8538234">
<ele>458.061</ele>
<time>2017-05-17T02:22:28.831Z</time>
</trkpt>
<trkpt lat="-26.7810286" lon="152.8541450">
<ele>457.423</ele>
<time>2017-05-17T02:22:30.819Z</time>
</trkpt>
<trkpt lat="-26.7807364" lon="152.8546156">
<ele>456.792</ele>
<time>2017-05-17T02:22:33.814Z</time>
</trkpt>
<trkpt lat="-26.7805222" lon="152.8548685">
<ele>456.100</ele>
<time>2017-05-17T02:22:35.822Z</time>
</trkpt>
<trkpt lat="-26.7802209" lon="152.8552069">
<ele>455.312</ele>
<time>2017-05-17T02:22:38.818Z</time>
</trkpt>
<trkpt lat="-26.7800826" lon="152.8554034">
<ele>454.359</ele>
<time>2017-05-17T02:22:40.894Z</time>
</trkpt>
<trkpt lat="-26.7798363" lon="152.8553772">
<ele>453.117</ele>
<time>2017-05-17T02:22:43.221Z</time>
</trkpt>
<trkpt lat="-26.7795608" lon="152.8553614">
<ele>451.839</ele>
<time>2017-05-17T02:22:45.376Z</time>
</trkpt>
<trkpt lat="-26.7792579" lon="152.8554803">
<ele>451.203</ele>
<time>2017-05-17T02:22:47.394Z</time>
</trkpt>
<trkpt lat="-26.7787452" lon="152.8556867">
<ele>451.777</ele>
<time>2017-05-17T02:22:50.453Z</time>
</trkpt>
<trkpt lat="-26.7783960" lon="152.8558830">
<ele>453.800</ele>
<time>2017-05-17T02:22:52.469Z</time>
</trkpt>
<trkpt lat="-26.7780297" lon="152.8560560">
<ele>456.687</ele>
<time>2017-05-17T02:22:54.487Z</time>
</trkpt>
<trkpt lat="-26.7776922" lon="152.8562889">
<ele>459.063</ele>
<time>2017-05-17T02:22:56.493Z</time>
</trkpt>
<trkpt lat="-26.7773239" lon="152.8564719">
<ele>459.995</ele>
<time>2017-05-17T02:22:58.527Z</time>
</trkpt>
<trkpt lat="-26.7769649" lon="152.8566644">
<ele>459.626</ele>
<time>2017-05-17T02:23:00.518Z</time>
</trkpt>
<trkpt lat="-26.7764030" lon="152.8569259">
<ele>458.611</ele>
<time>2017-05-17T02:23:03.597Z</time>
</trkpt>
<trkpt lat="-26.7758995" lon="152.8571903">
<ele>457.475</ele>
<time>2017-05-17T02:23:06.577Z</time>
</trkpt>
<trkpt lat="-26.7755964" lon="152.8573133">
<ele>456.274</ele>
<time>2017-05-17T02:23:08.571Z</time>
</trkpt>
<trkpt lat="-26.7753873" lon="152.8577337">
<ele>455.030</ele>
<time>2017-05-17T02:23:11.302Z</time>
</trkpt>
<trkpt lat="-26.7752495" lon="152.8582865">
<ele>454.045</ele>
<time>2017-05-17T02:23:14.456Z</time>
</trkpt>
<trkpt lat="-26.7751542" lon="152.8586390">
<ele>453.527</ele>
<time>2017-05-17T02:23:16.457Z</time>
</trkpt>
<trkpt lat="-26.7750118" lon="152.8589732">
<ele>453.165</ele>
<time>2017-05-17T02:23:18.501Z</time>
</trkpt>
<trkpt lat="-26.7746159" lon="152.8593557">
<ele>452.377</ele>
<time>2017-05-17T02:23:21.727Z</time>
</trkpt>
<trkpt lat="-26.7742924" lon="152.8594636">
<ele>450.692</ele>
<time>2017-05-17T02:23:23.815Z</time>
</trkpt>
<trkpt lat="-26.7738372" lon="152.8596009">
<ele>448.102</ele>
<time>2017-05-17T02:23:26.760Z</time>
</trkpt>
<trkpt lat="-26.7734033" lon="152.8598233">
<ele>444.891</ele>
<time>2017-05-17T02:23:29.724Z</time>
</trkpt>
<trkpt lat="-26.7730640" lon="152.8600100">
<ele>441.279</ele>
<time>2017-05-17T02:23:31.998Z</time>
</trkpt>
<trkpt lat="-26.7725582" lon="152.8601619">
<ele>437.636</ele>
<time>2017-05-17T02:23:35.126Z</time>
</trkpt>
<trkpt lat="-26.7720931" lon="152.8602351">
<ele>434.317</ele>
<time>2017-05-17T02:23:37.919Z</time>
</trkpt>
<trkpt lat="-26.7717620" lon="152.8603353">
<ele>431.059</ele>
<time>2017-05-17T02:23:39.874Z</time>
</trkpt>
<trkpt lat="-26.7712306" lon="152.8603734">
<ele>427.774</ele>
<time>2017-05-17T02:23:42.873Z</time>
</trkpt>
<trkpt lat="-26.7707023" lon="152.8604348">
<ele>425.182</ele>
<time>2017-05-17T02:23:45.925Z</time>
</trkpt>
<trkpt lat="-26.7702151" lon="152.8605258">
<ele>423.883</ele>
<time>2017-05-17T02:23:48.888Z</time>
</trkpt>
<trkpt lat="-26.7697407" lon="152.8605674">
<ele>423.742</ele>
<time>2017-05-17T02:23:51.839Z</time>
</trkpt>
<trkpt lat="-26.7694313" lon="152.8606372">
<ele>424.363</ele>
<time>2017-05-17T02:23:53.866Z</time>
</trkpt>
<trkpt lat="-26.7689897" lon="152.8606653">
<ele>425.371</ele>
<time>2017-05-17T02:23:56.846Z</time>
</trkpt>
<trkpt lat="-26.7686446" lon="152.8608759">
<ele>426.424</ele>
<time>2017-05-17T02:23:59.676Z</time>
</trkpt>
<trkpt lat="-26.7684470" lon="152.8610843">
<ele>427.272</ele>
<time>2017-05-17T02:24:01.732Z</time>
</trkpt>
<trkpt lat="-26.7682666" lon="152.8612829">
<ele>427.759</ele>
<time>2017-05-17T02:24:03.741Z</time>
</trkpt>
<trkpt lat="-26.7680968" lon="152.8614770">
<ele>427.835</ele>
<time>2017-05-17T02:24:05.788Z</time>
</trkpt>
<trkpt lat="-26.7677795" lon="152.8616153">
<ele>427.519</ele>
<time>2017-05-17T02:24:08.799Z</time>
</trkpt>
<trkpt lat="-26.7674651" lon="152.8616827">
<ele>426.809</ele>
<time>2017-05-17T02:24:11.892Z</time>
</trkpt>
<trkpt lat="-26.7671897" lon="152.8617300">
<ele>425.753</ele>
<time>2017-05-17T02:24:14.969Z</time>
</trkpt>
<trkpt lat="-26.7670406" lon="152.8617306">
<ele>424.584</ele>
<time>2017-05-17T02:24:17.003Z</time>
</trkpt>
<trkpt lat="-26.7669362" lon="152.8618210">
<ele>423.629</ele>
<time>2017-05-17T02:24:19.204Z</time>
</trkpt>
<trkpt lat="-26.7668510" lon="152.8619517">
<ele>423.012</ele>
<time>2017-05-17T02:24:21.279Z</time>
</trkpt>
<trkpt lat="-26.7669984" lon="152.8621700">
<ele>422.668</ele>
<time>2017-05-17T02:24:23.559Z</time>
</trkpt>
<trkpt lat="-26.7672556" lon="152.8626734">
<ele>422.571</ele>
<time>2017-05-17T02:24:27.126Z</time>
</trkpt>
<trkpt lat="-26.7673891" lon="152.8630615">
<ele>422.842</ele>
<time>2017-05-17T02:24:29.112Z</time>
</trkpt>
<trkpt lat="-26.7677594" lon="152.8636107">
<ele>423.481</ele>
<time>2017-05-17T02:24:32.202Z</time>
</trkpt>
<trkpt lat="-26.7680966" lon="152.8638873">
<ele>424.274</ele>
<time>2017-05-17T02:24:34.230Z</time>
</trkpt>
<trkpt lat="-26.7684823" lon="152.8640719">
<ele>425.125</ele>
<time>2017-05-17T02:24:36.268Z</time>
</trkpt>
<trkpt lat="-26.7688684" lon="152.8642314">
<ele>426.206</ele>
<time>2017-05-17T02:24:38.281Z</time>
</trkpt>
<trkpt lat="-26.7694758" lon="152.8643909">
<ele>427.684</ele>
<time>2017-05-17T02:24:41.384Z</time>
</trkpt>
<trkpt lat="-26.7700380" lon="152.8645244">
<ele>429.821</ele>
<time>2017-05-17T02:24:44.303Z</time>
</trkpt>
<trkpt lat="-26.7703935" lon="152.8646949">
<ele>432.824</ele>
<time>2017-05-17T02:24:46.320Z</time>
</trkpt>
<trkpt lat="-26.7708149" lon="152.8651290">
<ele>436.266</ele>
<time>2017-05-17T02:24:49.369Z</time>
</trkpt>
<trkpt lat="-26.7710387" lon="152.8657084">
<ele>439.552</ele>
<time>2017-05-17T02:24:52.407Z</time>
</trkpt>
<trkpt lat="-26.7710089" lon="152.8663302">
<ele>442.685</ele>
<time>2017-05-17T02:24:55.360Z</time>
</trkpt>
<trkpt lat="-26.7707661" lon="152.8669150">
<ele>445.716</ele>
<time>2017-05-17T02:24:58.336Z</time>
</trkpt>
<trkpt lat="-26.7705337" lon="152.8672729">
<ele>448.244</ele>
<time>2017-05-17T02:25:00.344Z</time>
</trkpt>
<trkpt lat="-26.7702812" lon="152.8676102">
<ele>449.836</ele>
<time>2017-05-17T02:25:02.345Z</time>
</trkpt>
<trkpt lat="-26.7699112" lon="152.8681172">
<ele>450.473</ele>
<time>2017-05-17T02:25:05.330Z</time>
</trkpt>
<trkpt lat="-26.7696623" lon="152.8687107">
<ele>450.620</ele>
<time>2017-05-17T02:25:08.308Z</time>
</trkpt>
<trkpt lat="-26.7694913" lon="152.8693316">
<ele>450.998</ele>
<time>2017-05-17T02:25:11.230Z</time>
</trkpt>
<trkpt lat="-26.7694008" lon="152.8699959">
<ele>452.217</ele>
<time>2017-05-17T02:25:14.233Z</time>
</trkpt>
<trkpt lat="-26.7694502" lon="152.8706645">
<ele>454.446</ele>
<time>2017-05-17T02:25:17.224Z</time>
</trkpt>
<trkpt lat="-26.7695000" lon="152.8711066">
<ele>457.245</ele>
<time>2017-05-17T02:25:19.190Z</time>
</trkpt>
<trkpt lat="-26.7695600" lon="152.8718021">
<ele>459.660</ele>
<time>2017-05-17T02:25:22.240Z</time>
</trkpt>
<trkpt lat="-26.7696093" lon="152.8722790">
<ele>460.869</ele>
<time>2017-05-17T02:25:24.323Z</time>
</trkpt>
<trkpt lat="-26.7696405" lon="152.8729750">
<ele>460.773</ele>
<time>2017-05-17T02:25:27.358Z</time>
</trkpt>
<trkpt lat="-26.7696269" lon="152.8734356">
<ele>459.753</ele>
<time>2017-05-17T02:25:29.364Z</time>
</trkpt>
<trkpt lat="-26.7696025" lon="152.8739011">
<ele>458.299</ele>
<time>2017-05-17T02:25:31.374Z</time>
</trkpt>
<trkpt lat="-26.7693187" lon="152.8745145">
<ele>456.935</ele>
<time>2017-05-17T02:25:34.335Z</time>
</trkpt>
<trkpt lat="-26.7690738" lon="152.8751439">
<ele>455.944</ele>
<time>2017-05-17T02:25:37.286Z</time>
</trkpt>
<trkpt lat="-26.7688359" lon="152.8757824">
<ele>455.256</ele>
<time>2017-05-17T02:25:40.292Z</time>
</trkpt>
<trkpt lat="-26.7686363" lon="152.8761773">
<ele>454.750</ele>
<time>2017-05-17T02:25:42.313Z</time>
</trkpt>
<trkpt lat="-26.7684927" lon="152.8768078">
<ele>454.376</ele>
<time>2017-05-17T02:25:45.299Z</time>
</trkpt>
<trkpt lat="-26.7683960" lon="152.8772085">
<ele>453.939</ele>
<time>2017-05-17T02:25:47.253Z</time>
</trkpt>
<trkpt lat="-26.7684694" lon="152.8776265">
<ele>453.190</ele>
<time>2017-05-17T02:25:49.226Z</time>
</trkpt>
<trkpt lat="-26.7686398" lon="152.8782641">
<ele>452.153</ele>
<time>2017-05-17T02:25:52.248Z</time>
</trkpt>
<trkpt lat="-26.7688106" lon="152.8788984">
<ele>451.017</ele>
<time>2017-05-17T02:25:55.215Z</time>
</trkpt>
<trkpt lat="-26.7689479" lon="152.8793257">
<ele>449.849</ele>
<time>2017-05-17T02:25:57.255Z</time>
</trkpt>
<trkpt lat="-26.7690907" lon="152.8799598">
<ele>448.828</ele>
<time>2017-05-17T02:26:00.249Z</time>
</trkpt>
<trkpt lat="-26.7692096" lon="152.8803558">
<ele>448.314</ele>
<time>2017-05-17T02:26:02.237Z</time>
</trkpt>
<trkpt lat="-26.7692546" lon="152.8809489">
<ele>448.525</ele>
<time>2017-05-17T02:26:05.216Z</time>
</trkpt>
<trkpt lat="-26.7691760" lon="152.8815170">
<ele>449.542</ele>
<time>2017-05-17T02:26:08.363Z</time>
</trkpt>
<trkpt lat="-26.7690276" lon="152.8819868">
<ele>451.306</ele>
<time>2017-05-17T02:26:11.403Z</time>
</trkpt>
<trkpt lat="-26.7689704" lon="152.8822797">
<ele>453.283</ele>
<time>2017-05-17T02:26:13.386Z</time>
</trkpt>
<trkpt lat="-26.7689356" lon="152.8827101">
<ele>454.763</ele>
<time>2017-05-17T02:26:16.271Z</time>
</trkpt>
<trkpt lat="-26.7688480" lon="152.8831501">
<ele>455.544</ele>
<time>2017-05-17T02:26:19.186Z</time>
</trkpt>
<trkpt lat="-26.7688038" lon="152.8834706">
<ele>455.908</ele>
<time>2017-05-17T02:26:21.263Z</time>
</trkpt>
<trkpt lat="-26.7687409" lon="152.8837578">
<ele>456.122</ele>
<time>2017-05-17T02:26:23.236Z</time>
</trkpt>
<trkpt lat="-26.7686418" lon="152.8840232">
<ele>456.259</ele>
<time>2017-05-17T02:26:25.127Z</time>
</trkpt>
<trkpt lat="-26.7684372" lon="152.8844344">
<ele>456.374</ele>
<time>2017-05-17T02:26:28.158Z</time>
</trkpt>
<trkpt lat="-26.7682836" lon="152.8848537">
<ele>456.678</ele>
<time>2017-05-17T02:26:31.528Z</time>
</trkpt>
<trkpt lat="-26.7681772" lon="152.8850188">
<ele>457.407</ele>
<time>2017-05-17T02:26:33.773Z</time>
</trkpt>
<trkpt lat="-26.7680834" lon="152.8850465">
<ele>458.416</ele>
<time>2017-05-17T02:26:35.077Z</time>
</trkpt>
<trkpt lat="-26.7678536" lon="152.8850886">
<ele>459.251</ele>
<time>2017-05-17T02:26:37.825Z</time>
</trkpt>
<trkpt lat="-26.7676623" lon="152.8851514">
<ele>459.753</ele>
<time>2017-05-17T02:26:39.693Z</time>
</trkpt>
<trkpt lat="-26.7673150" lon="152.8852490">
<ele>460.064</ele>
<time>2017-05-17T02:26:42.730Z</time>
</trkpt>
<trkpt lat="-26.7670642" lon="152.8853376">
<ele>460.172</ele>
<time>2017-05-17T02:26:44.667Z</time>
</trkpt>
<trkpt lat="-26.7666382" lon="152.8854461">
<ele>459.941</ele>
<time>2017-05-17T02:26:47.680Z</time>
</trkpt>
<trkpt lat="-26.7663431" lon="152.8855685">
<ele>459.302</ele>
<time>2017-05-17T02:26:49.644Z</time>
</trkpt>
<trkpt lat="-26.7660110" lon="152.8856567">
<ele>458.355</ele>
<time>2017-05-17T02:26:51.649Z</time>
</trkpt>
<trkpt lat="-26.7656594" lon="152.8857244">
<ele>457.369</ele>
<time>2017-05-17T02:26:53.704Z</time>
</trkpt>
<trkpt lat="-26.7653357" lon="152.8858251">
<ele>456.541</ele>
<time>2017-05-17T02:26:55.733Z</time>
</trkpt>
<trkpt lat="-26.7648876" lon="152.8859370">
<ele>455.776</ele>
<time>2017-05-17T02:26:58.639Z</time>
</trkpt>
<trkpt lat="-26.7644646" lon="152.8860927">
<ele>454.722</ele>
<time>2017-05-17T02:27:01.608Z</time>
</trkpt>
<trkpt lat="-26.7640632" lon="152.8862474">
<ele>453.229</ele>
<time>2017-05-17T02:27:04.511Z</time>
</trkpt>
<trkpt lat="-26.7637721" lon="152.8862941">
<ele>451.628</ele>
<time>2017-05-17T02:27:06.373Z</time>
</trkpt>
<trkpt lat="-26.7632807" lon="152.8864192">
<ele>450.387</ele>
<time>2017-05-17T02:27:09.270Z</time>
</trkpt>
<trkpt lat="-26.7628796" lon="152.8865858">
<ele>449.731</ele>
<time>2017-05-17T02:27:11.315Z</time>
</trkpt>
<trkpt lat="-26.7621683" lon="152.8867429">
<ele>449.827</ele>
<time>2017-05-17T02:27:14.519Z</time>
</trkpt>
<trkpt lat="-26.7617530" lon="152.8869062">
<ele>451.091</ele>
<time>2017-05-17T02:27:16.558Z</time>
</trkpt>
<trkpt lat="-26.7611800" lon="152.8870406">
<ele>453.349</ele>
<time>2017-05-17T02:27:19.469Z</time>
</trkpt>
<trkpt lat="-26.7608255" lon="152.8871520">
<ele>455.393</ele>
<time>2017-05-17T02:27:21.476Z</time>
</trkpt>
<trkpt lat="-26.7603028" lon="152.8872737">
<ele>456.380</ele>
<time>2017-05-17T02:27:24.468Z</time>
</trkpt>
<trkpt lat="-26.7598166" lon="152.8874810">
<ele>456.445</ele>
<time>2017-05-17T02:27:27.426Z</time>
</trkpt>
<trkpt lat="-26.7592598" lon="152.8876576">
<ele>455.839</ele>
<time>2017-05-17T02:27:30.766Z</time>
</trkpt>
<trkpt lat="-26.7587895" lon="152.8878056">
<ele>454.594</ele>
<time>2017-05-17T02:27:33.679Z</time>
</trkpt>
<trkpt lat="-26.7583238" lon="152.8879378">
<ele>452.639</ele>
<time>2017-05-17T02:27:36.629Z</time>
</trkpt>
<trkpt lat="-26.7578523" lon="152.8878806">
<ele>449.972</ele>
<time>2017-05-17T02:27:39.631Z</time>
</trkpt>
<trkpt lat="-26.7575741" lon="152.8877820">
<ele>446.740</ele>
<time>2017-05-17T02:27:41.537Z</time>
</trkpt>
<trkpt lat="-26.7572956" lon="152.8876498">
<ele>443.358</ele>
<time>2017-05-17T02:27:43.528Z</time>
</trkpt>
<trkpt lat="-26.7570261" lon="152.8875037">
<ele>440.355</ele>
<time>2017-05-17T02:27:45.501Z</time>
</trkpt>
<trkpt lat="-26.7566529" lon="152.8872263">
<ele>437.938</ele>
<time>2017-05-17T02:27:48.457Z</time>
</trkpt>
<trkpt lat="-26.7564142" lon="152.8870263">
<ele>435.723</ele>
<time>2017-05-17T02:27:50.439Z</time>
</trkpt>
<trkpt lat="-26.7561231" lon="152.8869233">
<ele>433.295</ele>
<time>2017-05-17T02:27:52.482Z</time>
</trkpt>
<trkpt lat="-26.7557311" lon="152.8867006">
<ele>430.706</ele>
<time>2017-05-17T02:27:55.418Z</time>
</trkpt>
<trkpt lat="-26.7552859" lon="152.8866949">
<ele>428.038</ele>
<time>2017-05-17T02:27:58.345Z</time>
</trkpt>
<trkpt lat="-26.7548270" lon="152.8868063">
<ele>425.348</ele>
<time>2017-05-17T02:28:01.355Z</time>
</trkpt>
<trkpt lat="-26.7545282" lon="152.8869046">
<ele>423.189</ele>
<time>2017-05-17T02:28:03.315Z</time>
</trkpt>
<trkpt lat="-26.7542456" lon="152.8870620">
<ele>422.058</ele>
<time>2017-05-17T02:28:05.232Z</time>
</trkpt>
<trkpt lat="-26.7538845" lon="152.8874912">
<ele>421.791</ele>
<time>2017-05-17T02:28:08.247Z</time>
</trkpt>
<trkpt lat="-26.7534948" lon="152.8879831">
<ele>421.971</ele>
<time>2017-05-17T02:28:11.322Z</time>
</trkpt>
<trkpt lat="-26.7532279" lon="152.8883179">
<ele>422.355</ele>
<time>2017-05-17T02:28:13.310Z</time>
</trkpt>
<trkpt lat="-26.7529717" lon="152.8886758">
<ele>422.767</ele>
<time>2017-05-17T02:28:15.345Z</time>
</trkpt>
<trkpt lat="-26.7525346" lon="152.8891220">
<ele>422.951</ele>
<time>2017-05-17T02:28:18.323Z</time>
</trkpt>
<trkpt lat="-26.7519832" lon="152.8893686">
<ele>422.553</ele>
<time>2017-05-17T02:28:21.329Z</time>
</trkpt>
<trkpt lat="-26.7513655" lon="152.8894403">
<ele>421.224</ele>
<time>2017-05-17T02:28:24.452Z</time>
</trkpt>
<trkpt lat="-26.7507875" lon="152.8893330">
<ele>419.028</ele>
<time>2017-05-17T02:28:27.435Z</time>
</trkpt>
<trkpt lat="-26.7504213" lon="152.8891900">
<ele>416.527</ele>
<time>2017-05-17T02:28:29.451Z</time>
</trkpt>
<trkpt lat="-26.7499228" lon="152.8888676">
<ele>414.357</ele>
<time>2017-05-17T02:28:32.480Z</time>
</trkpt>
<trkpt lat="-26.7494647" lon="152.8885215">
<ele>412.916</ele>
<time>2017-05-17T02:28:35.465Z</time>
</trkpt>
<trkpt lat="-26.7490360" lon="152.8881488">
<ele>412.269</ele>
<time>2017-05-17T02:28:38.527Z</time>
</trkpt>
<trkpt lat="-26.7485627" lon="152.8880117">
<ele>412.395</ele>
<time>2017-05-17T02:28:41.419Z</time>
</trkpt>
<trkpt lat="-26.7480686" lon="152.8880094">
<ele>413.292</ele>
<time>2017-05-17T02:28:44.439Z</time>
</trkpt>
<trkpt lat="-26.7477420" lon="152.8880895">
<ele>414.584</ele>
<time>2017-05-17T02:28:46.478Z</time>
</trkpt>
<trkpt lat="-26.7472539" lon="152.8882285">
<ele>415.617</ele>
<time>2017-05-17T02:28:49.491Z</time>
</trkpt>
<trkpt lat="-26.7469302" lon="152.8883703">
<ele>415.914</ele>
<time>2017-05-17T02:28:51.519Z</time>
</trkpt>
<trkpt lat="-26.7464617" lon="152.8886126">
<ele>415.315</ele>
<time>2017-05-17T02:28:54.521Z</time>
</trkpt>
<trkpt lat="-26.7461664" lon="152.8888045">
<ele>413.870</ele>
<time>2017-05-17T02:28:56.543Z</time>
</trkpt>
<trkpt lat="-26.7457102" lon="152.8890032">
<ele>411.850</ele>
<time>2017-05-17T02:28:59.482Z</time>
</trkpt>
<trkpt lat="-26.7453984" lon="152.8891295">
<ele>409.749</ele>
<time>2017-05-17T02:29:01.483Z</time>
</trkpt>
<trkpt lat="-26.7449247" lon="152.8893450">
<ele>408.042</ele>
<time>2017-05-17T02:29:04.576Z</time>
</trkpt>
<trkpt lat="-26.7445209" lon="152.8896498">
<ele>406.884</ele>
<time>2017-05-17T02:29:07.532Z</time>
</trkpt>
<trkpt lat="-26.7442391" lon="152.8898381">
<ele>406.115</ele>
<time>2017-05-17T02:29:09.502Z</time>
</trkpt>
<trkpt lat="-26.7440463" lon="152.8901466">
<ele>405.506</ele>
<time>2017-05-17T02:29:11.494Z</time>
</trkpt>
<trkpt lat="-26.7437674" lon="152.8906197">
<ele>404.967</ele>
<time>2017-05-17T02:29:14.466Z</time>
</trkpt>
<trkpt lat="-26.7436448" lon="152.8909814">
<ele>404.226</ele>
<time>2017-05-17T02:29:16.467Z</time>
</trkpt>
<trkpt lat="-26.7435016" lon="152.8915313">
<ele>402.930</ele>
<time>2017-05-17T02:29:19.422Z</time>
</trkpt>
<trkpt lat="-26.7434205" lon="152.8919085">
<ele>400.843</ele>
<time>2017-05-17T02:29:21.406Z</time>
</trkpt>
<trkpt lat="-26.7432788" lon="152.8922691">
<ele>397.940</ele>
<time>2017-05-17T02:29:23.393Z</time>
</trkpt>
<trkpt lat="-26.7431058" lon="152.8926167">
<ele>394.329</ele>
<time>2017-05-17T02:29:25.382Z</time>
</trkpt>
<trkpt lat="-26.7427570" lon="152.8930691">
<ele>390.009</ele>
<time>2017-05-17T02:29:28.409Z</time>
</trkpt>
<trkpt lat="-26.7425385" lon="152.8933405">
<ele>384.675</ele>
<time>2017-05-17T02:29:30.357Z</time>
</trkpt>
<trkpt lat="-26.7423317" lon="152.8936208">
<ele>379.136</ele>
<time>2017-05-17T02:29:32.350Z</time>
</trkpt>
<trkpt lat="-26.7419758" lon="152.8939831">
<ele>375.346</ele>
<time>2017-05-17T02:29:35.332Z</time>
</trkpt>
<trkpt lat="-26.7417569" lon="152.8942333">
<ele>374.439</ele>
<time>2017-05-17T02:29:37.250Z</time>
</trkpt>
<trkpt lat="-26.7414180" lon="152.8946417">
<ele>375.596</ele>
<time>2017-05-17T02:29:40.209Z</time>
</trkpt>
<trkpt lat="-26.7412061" lon="152.8949732">
<ele>376.901</ele>
<time>2017-05-17T02:29:42.233Z</time>
</trkpt>
<trkpt lat="-26.7410466" lon="152.8953620">
<ele>376.652</ele>
<time>2017-05-17T02:29:44.268Z</time>
</trkpt>
<trkpt lat="-26.7408496" lon="152.8957344">
<ele>374.782</ele>
<time>2017-05-17T02:29:46.326Z</time>
</trkpt>
<trkpt lat="-26.7406234" lon="152.8960505">
<ele>372.594</ele>
<time>2017-05-17T02:29:48.345Z</time>
</trkpt>
<trkpt lat="-26.7402999" lon="152.8964665">
<ele>371.366</ele>
<time>2017-05-17T02:29:51.206Z</time>
</trkpt>
<trkpt lat="-26.7400836" lon="152.8967413">
<ele>371.678</ele>
<time>2017-05-17T02:29:53.157Z</time>
</trkpt>
<trkpt lat="-26.7399000" lon="152.8970529">
<ele>373.465</ele>
<time>2017-05-17T02:29:55.126Z</time>
</trkpt>
<trkpt lat="-26.7396360" lon="152.8975443">
<ele>375.855</ele>
<time>2017-05-17T02:29:58.111Z</time>
</trkpt>
<trkpt lat="-26.7394115" lon="152.8978356">
<ele>377.871</ele>
<time>2017-05-17T02:30:00.120Z</time>
</trkpt>
<trkpt lat="-26.7391196" lon="152.8982803">
<ele>379.142</ele>
<time>2017-05-17T02:30:03.054Z</time>
</trkpt>
<trkpt lat="-26.7388770" lon="152.8985268">
<ele>379.521</ele>
<time>2017-05-17T02:30:05.005Z</time>
</trkpt>
<trkpt lat="-26.7384789" lon="152.8989048">
<ele>378.974</ele>
<time>2017-05-17T02:30:08.005Z</time>
</trkpt>
<trkpt lat="-26.7379929" lon="152.8992082">
<ele>377.544</ele>
<time>2017-05-17T02:30:11.053Z</time>
</trkpt>
<trkpt lat="-26.7376714" lon="152.8994002">
<ele>375.382</ele>
<time>2017-05-17T02:30:13.038Z</time>
</trkpt>
<trkpt lat="-26.7374024" lon="152.8996323">
<ele>373.070</ele>
<time>2017-05-17T02:30:14.969Z</time>
</trkpt>
<trkpt lat="-26.7371226" lon="152.8998065">
<ele>371.261</ele>
<time>2017-05-17T02:30:16.925Z</time>
</trkpt>
<trkpt lat="-26.7367288" lon="152.9000425">
<ele>370.101</ele>
<time>2017-05-17T02:30:19.833Z</time>
</trkpt>
<trkpt lat="-26.7363745" lon="152.9002980">
<ele>369.492</ele>
<time>2017-05-17T02:30:22.744Z</time>
</trkpt>
<trkpt lat="-26.7361392" lon="152.9004423">
<ele>369.438</ele>
<time>2017-05-17T02:30:24.688Z</time>
</trkpt>
<trkpt lat="-26.7357904" lon="152.9006803">
<ele>369.980</ele>
<time>2017-05-17T02:30:27.708Z</time>
</trkpt>
<trkpt lat="-26.7355501" lon="152.9008451">
<ele>371.125</ele>
<time>2017-05-17T02:30:29.752Z</time>
</trkpt>
<trkpt lat="-26.7353401" lon="152.9010582">
<ele>372.692</ele>
<time>2017-05-17T02:30:31.754Z</time>
</trkpt>
<trkpt lat="-26.7349877" lon="152.9013246">
<ele>374.266</ele>
<time>2017-05-17T02:30:34.711Z</time>
</trkpt>
<trkpt lat="-26.7347321" lon="152.9014789">
<ele>375.510</ele>
<time>2017-05-17T02:30:36.710Z</time>
</trkpt>
<trkpt lat="-26.7343332" lon="152.9016952">
<ele>376.313</ele>
<time>2017-05-17T02:30:39.728Z</time>
</trkpt>
<trkpt lat="-26.7338974" lon="152.9018437">
<ele>376.651</ele>
<time>2017-05-17T02:30:42.771Z</time>
</trkpt>
<trkpt lat="-26.7335921" lon="152.9018727">
<ele>376.482</ele>
<time>2017-05-17T02:30:44.785Z</time>
</trkpt>
<trkpt lat="-26.7331415" lon="152.9019810">
<ele>375.737</ele>
<time>2017-05-17T02:30:47.794Z</time>
</trkpt>
<trkpt lat="-26.7326771" lon="152.9018974">
<ele>374.401</ele>
<time>2017-05-17T02:30:50.834Z</time>
</trkpt>
<trkpt lat="-26.7323691" lon="152.9018585">
<ele>372.518</ele>
<time>2017-05-17T02:30:52.821Z</time>
</trkpt>
<trkpt lat="-26.7319135" lon="152.9017725">
<ele>370.301</ele>
<time>2017-05-17T02:30:55.773Z</time>
</trkpt>
<trkpt lat="-26.7316129" lon="152.9016712">
<ele>367.977</ele>
<time>2017-05-17T02:30:57.769Z</time>
</trkpt>
<trkpt lat="-26.7313204" lon="152.9015422">
<ele>365.656</ele>
<time>2017-05-17T02:30:59.759Z</time>
</trkpt>
<trkpt lat="-26.7308742" lon="152.9013388">
<ele>363.563</ele>
<time>2017-05-17T02:31:02.797Z</time>
</trkpt>
<trkpt lat="-26.7306384" lon="152.9011080">
<ele>361.910</ele>
<time>2017-05-17T02:31:04.785Z</time>
</trkpt>
<trkpt lat="-26.7303911" lon="152.9009151">
<ele>360.794</ele>
<time>2017-05-17T02:31:06.756Z</time>
</trkpt>
<trkpt lat="-26.7300119" lon="152.9007029">
<ele>360.298</ele>
<time>2017-05-17T02:31:09.649Z</time>
</trkpt>
<trkpt lat="-26.7296789" lon="152.9004264">
<ele>360.457</ele>
<time>2017-05-17T02:31:12.595Z</time>
</trkpt>
<trkpt lat="-26.7293102" lon="152.9002136">
<ele>361.405</ele>
<time>2017-05-17T02:31:15.551Z</time>
</trkpt>
<trkpt lat="-26.7290490" lon="152.9000868">
<ele>363.237</ele>
<time>2017-05-17T02:31:17.561Z</time>
</trkpt>
<trkpt lat="-26.7286574" lon="152.8999000">
<ele>365.595</ele>
<time>2017-05-17T02:31:20.572Z</time>
</trkpt>
<trkpt lat="-26.7282619" lon="152.8997763">
<ele>368.008</ele>
<time>2017-05-17T02:31:23.499Z</time>
</trkpt>
<trkpt lat="-26.7278518" lon="152.8996735">
<ele>370.239</ele>
<time>2017-05-17T02:31:26.485Z</time>
</trkpt>
<trkpt lat="-26.7274196" lon="152.8996064">
<ele>372.047</ele>
<time>2017-05-17T02:31:29.525Z</time>
</trkpt>
<trkpt lat="-26.7271103" lon="152.8996189">
<ele>373.142</ele>
<time>2017-05-17T02:31:31.583Z</time>
</trkpt>
<trkpt lat="-26.7266263" lon="152.8996042">
<ele>373.459</ele>
<time>2017-05-17T02:31:34.669Z</time>
</trkpt>
<trkpt lat="-26.7262991" lon="152.8995890">
<ele>373.060</ele>
<time>2017-05-17T02:31:36.688Z</time>
</trkpt>
<trkpt lat="-26.7259755" lon="152.8994918">
<ele>372.034</ele>
<time>2017-05-17T02:31:38.714Z</time>
</trkpt>
<trkpt lat="-26.7254612" lon="152.8994856">
<ele>370.522</ele>
<time>2017-05-17T02:31:41.791Z</time>
</trkpt>
<trkpt lat="-26.7251245" lon="152.8994651">
<ele>368.454</ele>
<time>2017-05-17T02:31:43.783Z</time>
</trkpt>
<trkpt lat="-26.7247761" lon="152.8995525">
<ele>366.016</ele>
<time>2017-05-17T02:31:45.851Z</time>
</trkpt>
<trkpt lat="-26.7242471" lon="152.8995822">
<ele>364.079</ele>
<time>2017-05-17T02:31:48.871Z</time>
</trkpt>
<trkpt lat="-26.7237293" lon="152.8995819">
<ele>364.063</ele>
<time>2017-05-17T02:31:51.808Z</time>
</trkpt>
<trkpt lat="-26.7232094" lon="152.8995323">
<ele>366.288</ele>
<time>2017-05-17T02:31:54.752Z</time>
</trkpt>
<trkpt lat="-26.7228638" lon="152.8993886">
<ele>369.038</ele>
<time>2017-05-17T02:31:56.795Z</time>
</trkpt>
<trkpt lat="-26.7225186" lon="152.8992689">
<ele>370.300</ele>
<time>2017-05-17T02:31:58.780Z</time>
</trkpt>
<trkpt lat="-26.7221878" lon="152.8991069">
<ele>369.499</ele>
<time>2017-05-17T02:32:00.778Z</time>
</trkpt>
<trkpt lat="-26.7216926" lon="152.8989018">
<ele>367.029</ele>
<time>2017-05-17T02:32:03.739Z</time>
</trkpt>
<trkpt lat="-26.7213685" lon="152.8987528">
<ele>364.171</ele>
<time>2017-05-17T02:32:05.717Z</time>
</trkpt>
<trkpt lat="-26.7208577" lon="152.8985595">
<ele>362.331</ele>
<time>2017-05-17T02:32:08.721Z</time>
</trkpt>
<trkpt lat="-26.7205036" lon="152.8984420">
<ele>362.131</ele>
<time>2017-05-17T02:32:10.735Z</time>
</trkpt>
<trkpt lat="-26.7199778" lon="152.8983014">
<ele>363.313</ele>
<time>2017-05-17T02:32:13.673Z</time>
</trkpt>
<trkpt lat="-26.7196195" lon="152.8982092">
<ele>365.223</ele>
<time>2017-05-17T02:32:15.665Z</time>
</trkpt>
<trkpt lat="-26.7192481" lon="152.8981735">
<ele>367.109</ele>
<time>2017-05-17T02:32:17.653Z</time>
</trkpt>
<trkpt lat="-26.7186733" lon="152.8982417">
<ele>368.433</ele>
<time>2017-05-17T02:32:20.681Z</time>
</trkpt>
<trkpt lat="-26.7182970" lon="152.8983624">
<ele>369.039</ele>
<time>2017-05-17T02:32:22.694Z</time>
</trkpt>
<trkpt lat="-26.7177411" lon="152.8985730">
<ele>369.272</ele>
<time>2017-05-17T02:32:25.696Z</time>
</trkpt>
<trkpt lat="-26.7174138" lon="152.8987803">
<ele>369.996</ele>
<time>2017-05-17T02:32:27.650Z</time>
</trkpt>
<trkpt lat="-26.7168768" lon="152.8990377">
<ele>371.869</ele>
<time>2017-05-17T02:32:30.750Z</time>
</trkpt>
<trkpt lat="-26.7165387" lon="152.8991668">
<ele>374.772</ele>
<time>2017-05-17T02:32:32.716Z</time>
</trkpt>
<trkpt lat="-26.7160490" lon="152.8992645">
<ele>378.064</ele>
<time>2017-05-17T02:32:35.556Z</time>
</trkpt>
<trkpt lat="-26.7155608" lon="152.8994274">
<ele>381.050</ele>
<time>2017-05-17T02:32:38.501Z</time>
</trkpt>
<trkpt lat="-26.7152574" lon="152.8995921">
<ele>383.356</ele>
<time>2017-05-17T02:32:40.457Z</time>
</trkpt>
<trkpt lat="-26.7148095" lon="152.8997582">
<ele>384.900</ele>
<time>2017-05-17T02:32:43.313Z</time>
</trkpt>
<trkpt lat="-26.7145033" lon="152.8997849">
<ele>385.477</ele>
<time>2017-05-17T02:32:45.280Z</time>
</trkpt>
<trkpt lat="-26.7142078" lon="152.8997047">
<ele>385.086</ele>
<time>2017-05-17T02:32:47.268Z</time>
</trkpt>
<trkpt lat="-26.7138094" lon="152.8994520">
<ele>384.123</ele>
<time>2017-05-17T02:32:50.276Z</time>
</trkpt>
<trkpt lat="-26.7135875" lon="152.8990020">
<ele>383.154</ele>
<time>2017-05-17T02:32:53.345Z</time>
</trkpt>
<trkpt lat="-26.7134225" lon="152.8987645">
<ele>382.775</ele>
<time>2017-05-17T02:32:55.248Z</time>
</trkpt>
<trkpt lat="-26.7131955" lon="152.8984459">
<ele>383.326</ele>
<time>2017-05-17T02:32:58.076Z</time>
</trkpt>
<trkpt lat="-26.7129888" lon="152.8981384">
<ele>384.698</ele>
<time>2017-05-17T02:33:01.020Z</time>
</trkpt>
<trkpt lat="-26.7128398" lon="152.8979749">
<ele>386.723</ele>
<time>2017-05-17T02:33:02.939Z</time>
</trkpt>
<trkpt lat="-26.7126120" lon="152.8978471">
<ele>389.180</ele>
<time>2017-05-17T02:33:05.576Z</time>
</trkpt>
<trkpt lat="-26.7122431" lon="152.8978577">
<ele>391.692</ele>
<time>2017-05-17T02:33:09.432Z</time>
</trkpt>
<trkpt lat="-26.7118597" lon="152.8980527">
<ele>394.115</ele>
<time>2017-05-17T02:33:13.066Z</time>
</trkpt>
<trkpt lat="-26.7116234" lon="152.8982151">
<ele>396.545</ele>
<time>2017-05-17T02:33:15.271Z</time>
</trkpt>
<trkpt lat="-26.7112838" lon="152.8983469">
<ele>398.854</ele>
<time>2017-05-17T02:33:18.173Z</time>
</trkpt>
<trkpt lat="-26.7109327" lon="152.8984358">
<ele>400.738</ele>
<time>2017-05-17T02:33:21.147Z</time>
</trkpt>
<trkpt lat="-26.7105861" lon="152.8985389">
<ele>401.962</ele>
<time>2017-05-17T02:33:24.140Z</time>
</trkpt>
<trkpt lat="-26.7102513" lon="152.8986141">
<ele>402.405</ele>
<time>2017-05-17T02:33:26.933Z</time>
</trkpt>
<trkpt lat="-26.7099051" lon="152.8988331">
<ele>402.075</ele>
<time>2017-05-17T02:33:29.987Z</time>
</trkpt>
<trkpt lat="-26.7096664" lon="152.8989919">
<ele>401.245</ele>
<time>2017-05-17T02:33:32.002Z</time>
</trkpt>
<trkpt lat="-26.7094442" lon="152.8991805">
<ele>400.367</ele>
<time>2017-05-17T02:33:34.014Z</time>
</trkpt>
<trkpt lat="-26.7091070" lon="152.8994349">
<ele>399.814</ele>
<time>2017-05-17T02:33:36.966Z</time>
</trkpt>
<trkpt lat="-26.7087489" lon="152.8996620">
<ele>399.638</ele>
<time>2017-05-17T02:33:39.963Z</time>
</trkpt>
<trkpt lat="-26.7083722" lon="152.8998357">
<ele>399.632</ele>
<time>2017-05-17T02:33:42.902Z</time>
</trkpt>
<trkpt lat="-26.7080984" lon="152.8999831">
<ele>399.389</ele>
<time>2017-05-17T02:33:44.985Z</time>
</trkpt>
<trkpt lat="-26.7076281" lon="152.9000511">
<ele>398.544</ele>
<time>2017-05-17T02:33:48.104Z</time>
</trkpt>
<trkpt lat="-26.7073246" lon="152.9000901">
<ele>397.041</ele>
<time>2017-05-17T02:33:50.098Z</time>
</trkpt>
<trkpt lat="-26.7070292" lon="152.9001323">
<ele>395.141</ele>
<time>2017-05-17T02:33:52.079Z</time>
</trkpt>
<trkpt lat="-26.7066072" lon="152.9002627">
<ele>393.292</ele>
<time>2017-05-17T02:33:55.091Z</time>
</trkpt>
<trkpt lat="-26.7062491" lon="152.9004134">
<ele>391.934</ele>
<time>2017-05-17T02:33:58.022Z</time>
</trkpt>
<trkpt lat="-26.7060998" lon="152.9005108">
<ele>391.190</ele>
<time>2017-05-17T02:33:59.769Z</time>
</trkpt>
<trkpt lat="-26.7060107" lon="152.9005591">
<ele>390.853</ele>
<time>2017-05-17T02:34:00.999Z</time>
</trkpt>
<trkpt lat="-26.7060107" lon="152.9005591">
<ele>390.642</ele>
<time>2017-05-17T02:34:05.999Z</time>
</trkpt>
<trkpt lat="-26.7060107" lon="152.9005591">
<ele>390.450</ele>
<time>2017-05-17T02:34:16.313Z</time>
</trkpt>
<trkpt lat="-26.7059317" lon="152.9007221">
<ele>390.287</ele>
<time>2017-05-17T02:34:19.907Z</time>
</trkpt>
<trkpt lat="-26.7056290" lon="152.9009410">
<ele>390.190</ele>
<time>2017-05-17T02:34:23.420Z</time>
</trkpt>
<trkpt lat="-26.7053037" lon="152.9011868">
<ele>390.181</ele>
<time>2017-05-17T02:34:26.386Z</time>
</trkpt>
<trkpt lat="-26.7048757" lon="152.9014705">
<ele>390.405</ele>
<time>2017-05-17T02:34:29.621Z</time>
</trkpt>
<trkpt lat="-26.7045895" lon="152.9017087">
<ele>391.074</ele>
<time>2017-05-17T02:34:31.727Z</time>
</trkpt>
<trkpt lat="-26.7041723" lon="152.9020500">
<ele>392.043</ele>
<time>2017-05-17T02:34:34.761Z</time>
</trkpt>
<trkpt lat="-26.7038100" lon="152.9024146">
<ele>392.919</ele>
<time>2017-05-17T02:34:37.641Z</time>
</trkpt>
<trkpt lat="-26.7036410" lon="152.9027450">
<ele>393.568</ele>
<time>2017-05-17T02:34:39.641Z</time>
</trkpt>
<trkpt lat="-26.7034722" lon="152.9030724">
<ele>394.155</ele>
<time>2017-05-17T02:34:41.654Z</time>
</trkpt>
<trkpt lat="-26.7031957" lon="152.9035248">
<ele>394.934</ele>
<time>2017-05-17T02:34:44.693Z</time>
</trkpt>
<trkpt lat="-26.7027973" lon="152.9037339">
<ele>396.218</ele>
<time>2017-05-17T02:34:47.575Z</time>
</trkpt>
<trkpt lat="-26.7023733" lon="152.9038813">
<ele>398.091</ele>
<time>2017-05-17T02:34:50.562Z</time>
</trkpt>
<trkpt lat="-26.7020839" lon="152.9039106">
<ele>399.992</ele>
<time>2017-05-17T02:34:52.567Z</time>
</trkpt>
<trkpt lat="-26.7018212" lon="152.9039937">
<ele>401.191</ele>
<time>2017-05-17T02:34:54.453Z</time>
</trkpt>
<trkpt lat="-26.7014410" lon="152.9042092">
<ele>401.454</ele>
<time>2017-05-17T02:34:57.363Z</time>
</trkpt>
<trkpt lat="-26.7011601" lon="152.9043168">
<ele>400.689</ele>
<time>2017-05-17T02:34:59.292Z</time>
</trkpt>
<trkpt lat="-26.7006430" lon="152.9046281">
<ele>398.841</ele>
<time>2017-05-17T02:35:02.977Z</time>
</trkpt>
<trkpt lat="-26.7002383" lon="152.9048100">
<ele>396.188</ele>
<time>2017-05-17T02:35:05.770Z</time>
</trkpt>
<trkpt lat="-26.6999763" lon="152.9048933">
<ele>393.461</ele>
<time>2017-05-17T02:35:07.616Z</time>
</trkpt>
<trkpt lat="-26.6996816" lon="152.9048966">
<ele>391.559</ele>
<time>2017-05-17T02:35:09.652Z</time>
</trkpt>
<trkpt lat="-26.6992684" lon="152.9048566">
<ele>391.019</ele>
<time>2017-05-17T02:35:12.578Z</time>
</trkpt>
<trkpt lat="-26.6990107" lon="152.9048070">
<ele>391.933</ele>
<time>2017-05-17T02:35:14.549Z</time>
</trkpt>
<trkpt lat="-26.6986476" lon="152.9047924">
<ele>394.001</ele>
<time>2017-05-17T02:35:17.438Z</time>
</trkpt>
<trkpt lat="-26.6984222" lon="152.9047566">
<ele>396.511</ele>
<time>2017-05-17T02:35:19.401Z</time>
</trkpt>
<trkpt lat="-26.6982101" lon="152.9047247">
<ele>398.740</ele>
<time>2017-05-17T02:35:21.304Z</time>
</trkpt>
<trkpt lat="-26.6978744" lon="152.9046950">
<ele>400.181</ele>
<time>2017-05-17T02:35:24.272Z</time>
</trkpt>
<trkpt lat="-26.6975380" lon="152.9045703">
<ele>400.722</ele>
<time>2017-05-17T02:35:27.278Z</time>
</trkpt>
<trkpt lat="-26.6971946" lon="152.9044180">
<ele>400.494</ele>
<time>2017-05-17T02:35:30.287Z</time>
</trkpt>
<trkpt lat="-26.6969207" lon="152.9041010">
<ele>399.352</ele>
<time>2017-05-17T02:35:33.405Z</time>
</trkpt>
<trkpt lat="-26.6968805" lon="152.9038219">
<ele>397.197</ele>
<time>2017-05-17T02:35:35.397Z</time>
</trkpt>
<trkpt lat="-26.6967653" lon="152.9033764">
<ele>394.571</ele>
<time>2017-05-17T02:35:38.625Z</time>
</trkpt>
<trkpt lat="-26.6966410" lon="152.9030890">
<ele>392.302</ele>
<time>2017-05-17T02:35:40.790Z</time>
</trkpt>
<trkpt lat="-26.6965684" lon="152.9027975">
<ele>390.866</ele>
<time>2017-05-17T02:35:42.807Z</time>
</trkpt>
<trkpt lat="-26.6963200" lon="152.9024416">
<ele>390.269</ele>
<time>2017-05-17T02:35:45.842Z</time>
</trkpt>
<trkpt lat="-26.6961546" lon="152.9022348">
<ele>390.301</ele>
<time>2017-05-17T02:35:47.835Z</time>
</trkpt>
<trkpt lat="-26.6959865" lon="152.9020496">
<ele>390.696</ele>
<time>2017-05-17T02:35:49.763Z</time>
</trkpt>
<trkpt lat="-26.6957297" lon="152.9017641">
<ele>391.189</ele>
<time>2017-05-17T02:35:52.640Z</time>
</trkpt>
<trkpt lat="-26.6955222" lon="152.9015662">
<ele>391.567</ele>
<time>2017-05-17T02:35:54.653Z</time>
</trkpt>
<trkpt lat="-26.6953074" lon="152.9011620">
<ele>391.764</ele>
<time>2017-05-17T02:35:57.683Z</time>
</trkpt>
<trkpt lat="-26.6951859" lon="152.9008963">
<ele>391.776</ele>
<time>2017-05-17T02:35:59.598Z</time>
</trkpt>
<trkpt lat="-26.6950810" lon="152.9006072">
<ele>391.653</ele>
<time>2017-05-17T02:36:01.632Z</time>
</trkpt>
<trkpt lat="-26.6949194" lon="152.9001970">
<ele>391.543</ele>
<time>2017-05-17T02:36:04.583Z</time>
</trkpt>
<trkpt lat="-26.6947489" lon="152.8997936">
<ele>391.693</ele>
<time>2017-05-17T02:36:07.551Z</time>
</trkpt>
<trkpt lat="-26.6945691" lon="152.8994018">
<ele>392.471</ele>
<time>2017-05-17T02:36:10.526Z</time>
</trkpt>
<trkpt lat="-26.6944002" lon="152.8990228">
<ele>394.109</ele>
<time>2017-05-17T02:36:13.441Z</time>
</trkpt>
<trkpt lat="-26.6942157" lon="152.8986515">
<ele>396.396</ele>
<time>2017-05-17T02:36:16.390Z</time>
</trkpt>
<trkpt lat="-26.6941011" lon="152.8984074">
<ele>398.846</ele>
<time>2017-05-17T02:36:18.331Z</time>
</trkpt>
<trkpt lat="-26.6939940" lon="152.8981724">
<ele>400.926</ele>
<time>2017-05-17T02:36:20.218Z</time>
</trkpt>
<trkpt lat="-26.6937937" lon="152.8978390">
<ele>402.205</ele>
<time>2017-05-17T02:36:23.088Z</time>
</trkpt>
<trkpt lat="-26.6936503" lon="152.8974455">
<ele>402.574</ele>
<time>2017-05-17T02:36:26.057Z</time>
</trkpt>
<trkpt lat="-26.6935200" lon="152.8971862">
<ele>402.046</ele>
<time>2017-05-17T02:36:28.074Z</time>
</trkpt>
<trkpt lat="-26.6934746" lon="152.8968966">
<ele>400.683</ele>
<time>2017-05-17T02:36:30.057Z</time>
</trkpt>
<trkpt lat="-26.6933941" lon="152.8964680">
<ele>398.839</ele>
<time>2017-05-17T02:36:33.075Z</time>
</trkpt>
<trkpt lat="-26.6932493" lon="152.8961167">
<ele>397.037</ele>
<time>2017-05-17T02:36:35.872Z</time>
</trkpt>
<trkpt lat="-26.6930407" lon="152.8958004">
<ele>395.724</ele>
<time>2017-05-17T02:36:38.792Z</time>
</trkpt>
<trkpt lat="-26.6928449" lon="152.8956290">
<ele>395.290</ele>
<time>2017-05-17T02:36:40.872Z</time>
</trkpt>
<trkpt lat="-26.6926568" lon="152.8954943">
<ele>395.852</ele>
<time>2017-05-17T02:36:42.848Z</time>
</trkpt>
<trkpt lat="-26.6925006" lon="152.8953718">
<ele>397.016</ele>
<time>2017-05-17T02:36:44.801Z</time>
</trkpt>
<trkpt lat="-26.6924260" lon="152.8951608">
<ele>398.173</ele>
<time>2017-05-17T02:36:47.250Z</time>
</trkpt>
<trkpt lat="-26.6925365" lon="152.8949975">
<ele>398.981</ele>
<time>2017-05-17T02:36:49.572Z</time>
</trkpt>
<trkpt lat="-26.6926429" lon="152.8947379">
<ele>399.547</ele>
<time>2017-05-17T02:36:51.913Z</time>
</trkpt>
<trkpt lat="-26.6927911" lon="152.8943052">
<ele>400.299</ele>
<time>2017-05-17T02:36:55.035Z</time>
</trkpt>
<trkpt lat="-26.6928822" lon="152.8938948">
<ele>401.666</ele>
<time>2017-05-17T02:36:57.569Z</time>
</trkpt>
<trkpt lat="-26.6929766" lon="152.8934426">
<ele>403.699</ele>
<time>2017-05-17T02:37:00.272Z</time>
</trkpt>
<trkpt lat="-26.6930625" lon="152.8931046">
<ele>406.078</ele>
<time>2017-05-17T02:37:02.279Z</time>
</trkpt>
<trkpt lat="-26.6931889" lon="152.8926044">
<ele>408.389</ele>
<time>2017-05-17T02:37:05.224Z</time>
</trkpt>
<trkpt lat="-26.6932833" lon="152.8922769">
<ele>410.317</ele>
<time>2017-05-17T02:37:07.181Z</time>
</trkpt>
<trkpt lat="-26.6933866" lon="152.8917800">
<ele>411.664</ele>
<time>2017-05-17T02:37:10.082Z</time>
</trkpt>
<trkpt lat="-26.6933462" lon="152.8914307">
<ele>412.432</ele>
<time>2017-05-17T02:37:12.034Z</time>
</trkpt>
<trkpt lat="-26.6932361" lon="152.8908907">
<ele>412.763</ele>
<time>2017-05-17T02:37:15.037Z</time>
</trkpt>
<trkpt lat="-26.6931884" lon="152.8905234">
<ele>412.707</ele>
<time>2017-05-17T02:37:17.036Z</time>
</trkpt>
<trkpt lat="-26.6931742" lon="152.8899898">
<ele>412.221</ele>
<time>2017-05-17T02:37:19.954Z</time>
</trkpt>
<trkpt lat="-26.6932448" lon="152.8896620">
<ele>411.541</ele>
<time>2017-05-17T02:37:21.866Z</time>
</trkpt>
<trkpt lat="-26.6934336" lon="152.8892041">
<ele>411.171</ele>
<time>2017-05-17T02:37:24.780Z</time>
</trkpt>
<trkpt lat="-26.6934441" lon="152.8888609">
<ele>411.478</ele>
<time>2017-05-17T02:37:26.760Z</time>
</trkpt>
<trkpt lat="-26.6934310" lon="152.8885133">
<ele>412.374</ele>
<time>2017-05-17T02:37:28.749Z</time>
</trkpt>
<trkpt lat="-26.6933954" lon="152.8881764">
<ele>413.433</ele>
<time>2017-05-17T02:37:30.701Z</time>
</trkpt>
<trkpt lat="-26.6933469" lon="152.8878435">
<ele>414.322</ele>
<time>2017-05-17T02:37:32.673Z</time>
</trkpt>
<trkpt lat="-26.6932084" lon="152.8873880">
<ele>414.908</ele>
<time>2017-05-17T02:37:35.532Z</time>
</trkpt>
<trkpt lat="-26.6929740" lon="152.8871384">
<ele>415.167</ele>
<time>2017-05-17T02:37:37.663Z</time>
</trkpt>
<trkpt lat="-26.6927626" lon="152.8868652">
<ele>415.285</ele>
<time>2017-05-17T02:37:39.721Z</time>
</trkpt>
<trkpt lat="-26.6925779" lon="152.8865627">
<ele>415.537</ele>
<time>2017-05-17T02:37:41.764Z</time>
</trkpt>
<trkpt lat="-26.6922760" lon="152.8861456">
<ele>416.036</ele>
<time>2017-05-17T02:37:44.731Z</time>
</trkpt>
<trkpt lat="-26.6919903" lon="152.8857135">
<ele>416.811</ele>
<time>2017-05-17T02:37:47.678Z</time>
</trkpt>
<trkpt lat="-26.6917413" lon="152.8852542">
<ele>417.901</ele>
<time>2017-05-17T02:37:50.597Z</time>
</trkpt>
<trkpt lat="-26.6915179" lon="152.8847749">
<ele>419.125</ele>
<time>2017-05-17T02:37:53.512Z</time>
</trkpt>
<trkpt lat="-26.6913772" lon="152.8844512">
<ele>420.164</ele>
<time>2017-05-17T02:37:55.441Z</time>
</trkpt>
<trkpt lat="-26.6912102" lon="152.8841316">
<ele>420.891</ele>
<time>2017-05-17T02:37:57.423Z</time>
</trkpt>
<trkpt lat="-26.6910005" lon="152.8836745">
<ele>421.326</ele>
<time>2017-05-17T02:38:00.234Z</time>
</trkpt>
<trkpt lat="-26.6908827" lon="152.8833499">
<ele>421.424</ele>
<time>2017-05-17T02:38:02.216Z</time>
</trkpt>
<trkpt lat="-26.6909084" lon="152.8829899">
<ele>421.152</ele>
<time>2017-05-17T02:38:04.262Z</time>
</trkpt>
<trkpt lat="-26.6908265" lon="152.8824907">
<ele>420.636</ele>
<time>2017-05-17T02:38:07.173Z</time>
</trkpt>
<trkpt lat="-26.6906315" lon="152.8822067">
<ele>420.153</ele>
<time>2017-05-17T02:38:09.203Z</time>
</trkpt>
<trkpt lat="-26.6903988" lon="152.8819380">
<ele>419.925</ele>
<time>2017-05-17T02:38:11.218Z</time>
</trkpt>
<trkpt lat="-26.6900157" lon="152.8815801">
<ele>420.023</ele>
<time>2017-05-17T02:38:14.179Z</time>
</trkpt>
<trkpt lat="-26.6897612" lon="152.8813201">
<ele>420.408</ele>
<time>2017-05-17T02:38:16.238Z</time>
</trkpt>
<trkpt lat="-26.6893534" lon="152.8809715">
<ele>420.896</ele>
<time>2017-05-17T02:38:19.311Z</time>
</trkpt>
<trkpt lat="-26.6892307" lon="152.8806551">
<ele>421.176</ele>
<time>2017-05-17T02:38:21.177Z</time>
</trkpt>
<trkpt lat="-26.6891592" lon="152.8802985">
<ele>421.104</ele>
<time>2017-05-17T02:38:23.188Z</time>
</trkpt>
<trkpt lat="-26.6890977" lon="152.8797670">
<ele>420.815</ele>
<time>2017-05-17T02:38:26.191Z</time>
</trkpt>
<trkpt lat="-26.6887964" lon="152.8793676">
<ele>420.506</ele>
<time>2017-05-17T02:38:29.071Z</time>
</trkpt>
<trkpt lat="-26.6885175" lon="152.8791573">
<ele>420.319</ele>
<time>2017-05-17T02:38:31.086Z</time>
</trkpt>
<trkpt lat="-26.6882304" lon="152.8789647">
<ele>420.286</ele>
<time>2017-05-17T02:38:33.076Z</time>
</trkpt>
<trkpt lat="-26.6879487" lon="152.8787432">
<ele>420.314</ele>
<time>2017-05-17T02:38:35.102Z</time>
</trkpt>
<trkpt lat="-26.6876807" lon="152.8785190">
<ele>420.307</ele>
<time>2017-05-17T02:38:37.077Z</time>
</trkpt>
<trkpt lat="-26.6873838" lon="152.8781288">
<ele>420.192</ele>
<time>2017-05-17T02:38:39.894Z</time>
</trkpt>
<trkpt lat="-26.6872912" lon="152.8778143">
<ele>419.972</ele>
<time>2017-05-17T02:38:41.816Z</time>
</trkpt>
<trkpt lat="-26.6870920" lon="152.8773709">
<ele>419.769</ele>
<time>2017-05-17T02:38:44.801Z</time>
</trkpt>
<trkpt lat="-26.6868680" lon="152.8771151">
<ele>419.779</ele>
<time>2017-05-17T02:38:46.901Z</time>
</trkpt>
<trkpt lat="-26.6866313" lon="152.8768622">
<ele>420.174</ele>
<time>2017-05-17T02:38:48.935Z</time>
</trkpt>
<trkpt lat="-26.6862604" lon="152.8764493">
<ele>420.973</ele>
<time>2017-05-17T02:38:52.105Z</time>
</trkpt>
<trkpt lat="-26.6859184" lon="152.8760533">
<ele>422.059</ele>
<time>2017-05-17T02:38:55.054Z</time>
</trkpt>
<trkpt lat="-26.6855422" lon="152.8757197">
<ele>423.281</ele>
<time>2017-05-17T02:38:57.987Z</time>
</trkpt>
<trkpt lat="-26.6852908" lon="152.8754976">
<ele>424.433</ele>
<time>2017-05-17T02:38:59.973Z</time>
</trkpt>
<trkpt lat="-26.6850664" lon="152.8752561">
<ele>425.362</ele>
<time>2017-05-17T02:39:01.890Z</time>
</trkpt>
<trkpt lat="-26.6848542" lon="152.8747943">
<ele>426.105</ele>
<time>2017-05-17T02:39:04.802Z</time>
</trkpt>
<trkpt lat="-26.6847121" lon="152.8745120">
<ele>427.066</ele>
<time>2017-05-17T02:39:06.666Z</time>
</trkpt>
<trkpt lat="-26.6845029" lon="152.8742623">
<ele>428.652</ele>
<time>2017-05-17T02:39:08.658Z</time>
</trkpt>
<trkpt lat="-26.6840466" lon="152.8741773">
<ele>430.734</ele>
<time>2017-05-17T02:39:11.688Z</time>
</trkpt>
<trkpt lat="-26.6837502" lon="152.8740553">
<ele>432.891</ele>
<time>2017-05-17T02:39:13.748Z</time>
</trkpt>
<trkpt lat="-26.6834602" lon="152.8738585">
<ele>434.661</ele>
<time>2017-05-17T02:39:15.911Z</time>
</trkpt>
<trkpt lat="-26.6830978" lon="152.8734453">
<ele>435.634</ele>
<time>2017-05-17T02:39:19.097Z</time>
</trkpt>
<trkpt lat="-26.6828666" lon="152.8731896">
<ele>435.704</ele>
<time>2017-05-17T02:39:21.058Z</time>
</trkpt>
<trkpt lat="-26.6826306" lon="152.8729466">
<ele>435.049</ele>
<time>2017-05-17T02:39:22.990Z</time>
</trkpt>
<trkpt lat="-26.6825179" lon="152.8724701">
<ele>434.003</ele>
<time>2017-05-17T02:39:25.750Z</time>
</trkpt>
<trkpt lat="-26.6824844" lon="152.8721297">
<ele>432.944</ele>
<time>2017-05-17T02:39:27.729Z</time>
</trkpt>
<trkpt lat="-26.6824398" lon="152.8717846">
<ele>432.110</ele>
<time>2017-05-17T02:39:29.728Z</time>
</trkpt>
<trkpt lat="-26.6823521" lon="152.8712345">
<ele>431.532</ele>
<time>2017-05-17T02:39:32.808Z</time>
</trkpt>
<trkpt lat="-26.6822629" lon="152.8706596">
<ele>431.043</ele>
<time>2017-05-17T02:39:35.874Z</time>
</trkpt>
<trkpt lat="-26.6821858" lon="152.8702978">
<ele>430.393</ele>
<time>2017-05-17T02:39:37.809Z</time>
</trkpt>
<trkpt lat="-26.6820543" lon="152.8697497">
<ele>429.430</ele>
<time>2017-05-17T02:39:40.802Z</time>
</trkpt>
<trkpt lat="-26.6820368" lon="152.8692048">
<ele>428.063</ele>
<time>2017-05-17T02:39:43.713Z</time>
</trkpt>
<trkpt lat="-26.6819660" lon="152.8688729">
<ele>426.186</ele>
<time>2017-05-17T02:39:45.586Z</time>
</trkpt>
<trkpt lat="-26.6818196" lon="152.8686028">
<ele>424.051</ele>
<time>2017-05-17T02:39:47.426Z</time>
</trkpt>
<trkpt lat="-26.6816824" lon="152.8683505">
<ele>422.260</ele>
<time>2017-05-17T02:39:49.266Z</time>
</trkpt>
<trkpt lat="-26.6815646" lon="152.8681015">
<ele>421.099</ele>
<time>2017-05-17T02:39:51.138Z</time>
</trkpt>
<trkpt lat="-26.6814426" lon="152.8677735">
<ele>420.382</ele>
<time>2017-05-17T02:39:53.741Z</time>
</trkpt>
<trkpt lat="-26.6814652" lon="152.8676218">
<ele>419.691</ele>
<time>2017-05-17T02:39:54.909Z</time>
</trkpt>
<trkpt lat="-26.6815747" lon="152.8675426">
<ele>418.683</ele>
<time>2017-05-17T02:39:56.303Z</time>
</trkpt>
<trkpt lat="-26.6818996" lon="152.8675312">
<ele>417.420</ele>
<time>2017-05-17T02:40:00.589Z</time>
</trkpt>
<trkpt lat="-26.6822826" lon="152.8675059">
<ele>416.046</ele>
<time>2017-05-17T02:40:04.337Z</time>
</trkpt>
<trkpt lat="-26.6827057" lon="152.8674926">
<ele>414.157</ele>
<time>2017-05-17T02:40:07.558Z</time>
</trkpt>
<trkpt lat="-26.6830233" lon="152.8674253">
<ele>411.085</ele>
<time>2017-05-17T02:40:09.772Z</time>
</trkpt>
<trkpt lat="-26.6834874" lon="152.8673337">
<ele>407.360</ele>
<time>2017-05-17T02:40:12.803Z</time>
</trkpt>
<trkpt lat="-26.6839113" lon="152.8671506">
<ele>404.493</ele>
<time>2017-05-17T02:40:15.700Z</time>
</trkpt>
<trkpt lat="-26.6841805" lon="152.8668811">
<ele>402.647</ele>
<time>2017-05-17T02:40:17.988Z</time>
</trkpt>
<trkpt lat="-26.6844270" lon="152.8666709">
<ele>400.475</ele>
<time>2017-05-17T02:40:19.910Z</time>
</trkpt>
<trkpt lat="-26.6848865" lon="152.8664193">
<ele>396.999</ele>
<time>2017-05-17T02:40:22.987Z</time>
</trkpt>
<trkpt lat="-26.6852056" lon="152.8662551">
<ele>391.422</ele>
<time>2017-05-17T02:40:25.000Z</time>
</trkpt>
<trkpt lat="-26.6856663" lon="152.8660388">
<ele>383.382</ele>
<time>2017-05-17T02:40:27.897Z</time>
</trkpt>
<trkpt lat="-26.6861663" lon="152.8659190">
<ele>373.208</ele>
<time>2017-05-17T02:40:30.879Z</time>
</trkpt>
<trkpt lat="-26.6865531" lon="152.8659895">
<ele>361.340</ele>
<time>2017-05-17T02:40:33.131Z</time>
</trkpt>
<trkpt lat="-26.6870727" lon="152.8660156">
<ele>349.266</ele>
<time>2017-05-17T02:40:36.131Z</time>
</trkpt>
<trkpt lat="-26.6873931" lon="152.8660351">
<ele>338.902</ele>
<time>2017-05-17T02:40:37.987Z</time>
</trkpt>
<trkpt lat="-26.6878300" lon="152.8660509">
<ele>330.702</ele>
<time>2017-05-17T02:40:40.622Z</time>
</trkpt>
<trkpt lat="-26.6881491" lon="152.8660826">
<ele>324.157</ele>
<time>2017-05-17T02:40:42.609Z</time>
</trkpt>
<trkpt lat="-26.6885956" lon="152.8663485">
<ele>318.734</ele>
<time>2017-05-17T02:40:45.732Z</time>
</trkpt>
<trkpt lat="-26.6889387" lon="152.8667343">
<ele>313.866</ele>
<time>2017-05-17T02:40:48.619Z</time>
</trkpt>
<trkpt lat="-26.6891300" lon="152.8670610">
<ele>308.957</ele>
<time>2017-05-17T02:40:50.601Z</time>
</trkpt>
<trkpt lat="-26.6893125" lon="152.8674145">
<ele>303.756</ele>
<time>2017-05-17T02:40:52.592Z</time>
</trkpt>
<trkpt lat="-26.6894831" lon="152.8677820">
<ele>298.630</ele>
<time>2017-05-17T02:40:54.561Z</time>
</trkpt>
<trkpt lat="-26.6897196" lon="152.8683600">
<ele>293.768</ele>
<time>2017-05-17T02:40:57.530Z</time>
</trkpt>
<trkpt lat="-26.6899552" lon="152.8689379">
<ele>289.718</ele>
<time>2017-05-17T02:41:00.468Z</time>
</trkpt>
<trkpt lat="-26.6902154" lon="152.8694768">
<ele>287.620</ele>
<time>2017-05-17T02:41:03.330Z</time>
</trkpt>
<trkpt lat="-26.6905836" lon="152.8699109">
<ele>287.962</ele>
<time>2017-05-17T02:41:06.181Z</time>
</trkpt>
<trkpt lat="-26.6908730" lon="152.8701340">
<ele>290.129</ele>
<time>2017-05-17T02:41:08.080Z</time>
</trkpt>
<trkpt lat="-26.6913644" lon="152.8703992">
<ele>293.029</ele>
<time>2017-05-17T02:41:11.041Z</time>
</trkpt>
<trkpt lat="-26.6916881" lon="152.8705369">
<ele>295.622</ele>
<time>2017-05-17T02:41:12.917Z</time>
</trkpt>
<trkpt lat="-26.6920035" lon="152.8705894">
<ele>297.308</ele>
<time>2017-05-17T02:41:14.671Z</time>
</trkpt>
<trkpt lat="-26.6925256" lon="152.8705604">
<ele>297.825</ele>
<time>2017-05-17T02:41:17.689Z</time>
</trkpt>
<trkpt lat="-26.6929150" lon="152.8705188">
<ele>296.898</ele>
<time>2017-05-17T02:41:19.979Z</time>
</trkpt>
<trkpt lat="-26.6933105" lon="152.8703715">
<ele>294.497</ele>
<time>2017-05-17T02:41:22.371Z</time>
</trkpt>
<trkpt lat="-26.6937224" lon="152.8702489">
<ele>291.231</ele>
<time>2017-05-17T02:41:24.723Z</time>
</trkpt>
<trkpt lat="-26.6942616" lon="152.8701003">
<ele>287.810</ele>
<time>2017-05-17T02:41:27.775Z</time>
</trkpt>
<trkpt lat="-26.6948041" lon="152.8698976">
<ele>284.385</ele>
<time>2017-05-17T02:41:30.926Z</time>
</trkpt>
<trkpt lat="-26.6953454" lon="152.8698003">
<ele>280.896</ele>
<time>2017-05-17T02:41:33.841Z</time>
</trkpt>
<trkpt lat="-26.6958550" lon="152.8698484">
<ele>277.364</ele>
<time>2017-05-17T02:41:36.640Z</time>
</trkpt>
<trkpt lat="-26.6963462" lon="152.8700994">
<ele>273.761</ele>
<time>2017-05-17T02:41:39.758Z</time>
</trkpt>
<trkpt lat="-26.6967605" lon="152.8704566">
<ele>269.868</ele>
<time>2017-05-17T02:41:42.834Z</time>
</trkpt>
<trkpt lat="-26.6970679" lon="152.8706168">
<ele>265.280</ele>
<time>2017-05-17T02:41:44.833Z</time>
</trkpt>
<trkpt lat="-26.6974008" lon="152.8706644">
<ele>259.993</ele>
<time>2017-05-17T02:41:46.788Z</time>
</trkpt>
<trkpt lat="-26.6978942" lon="152.8706312">
<ele>254.592</ele>
<time>2017-05-17T02:41:49.687Z</time>
</trkpt>
<trkpt lat="-26.6981798" lon="152.8704682">
<ele>249.361</ele>
<time>2017-05-17T02:41:51.625Z</time>
</trkpt>
<trkpt lat="-26.6984302" lon="152.8702894">
<ele>244.441</ele>
<time>2017-05-17T02:41:53.514Z</time>
</trkpt>
<trkpt lat="-26.6986821" lon="152.8699383">
<ele>240.591</ele>
<time>2017-05-17T02:41:56.380Z</time>
</trkpt>
<trkpt lat="-26.6988110" lon="152.8697267">
<ele>238.486</ele>
<time>2017-05-17T02:41:58.451Z</time>
</trkpt>
<trkpt lat="-26.6989074" lon="152.8697214">
<ele>237.965</ele>
<time>2017-05-17T02:41:59.426Z</time>
</trkpt>
<trkpt lat="-26.6990093" lon="152.8697647">
<ele>238.351</ele>
<time>2017-05-17T02:42:00.830Z</time>
</trkpt>
<trkpt lat="-26.6991135" lon="152.8698686">
<ele>238.955</ele>
<time>2017-05-17T02:42:03.213Z</time>
</trkpt>
<trkpt lat="-26.6992075" lon="152.8699887">
<ele>239.421</ele>
<time>2017-05-17T02:42:05.621Z</time>
</trkpt>
<trkpt lat="-26.6993789" lon="152.8701510">
<ele>239.697</ele>
<time>2017-05-17T02:42:08.822Z</time>
</trkpt>
<trkpt lat="-26.6994555" lon="152.8704145">
<ele>239.786</ele>
<time>2017-05-17T02:42:12.135Z</time>
</trkpt>
<trkpt lat="-26.6995991" lon="152.8706046">
<ele>239.677</ele>
<time>2017-05-17T02:42:15.120Z</time>
</trkpt>
<trkpt lat="-26.6997146" lon="152.8706848">
<ele>239.383</ele>
<time>2017-05-17T02:42:16.977Z</time>
</trkpt>
<trkpt lat="-26.6997989" lon="152.8707669">
<ele>238.995</ele>
<time>2017-05-17T02:42:18.564Z</time>
</trkpt>
<trkpt lat="-26.6999004" lon="152.8709055">
<ele>238.666</ele>
<time>2017-05-17T02:42:21.130Z</time>
</trkpt>
<trkpt lat="-26.6999092" lon="152.8710065">
<ele>238.554</ele>
<time>2017-05-17T02:42:22.948Z</time>
</trkpt>
<trkpt lat="-26.6999763" lon="152.8711054">
<ele>238.849</ele>
<time>2017-05-17T02:42:25.257Z</time>
</trkpt>
<trkpt lat="-26.7000403" lon="152.8712605">
<ele>239.710</ele>
<time>2017-05-17T02:42:28.402Z</time>
</trkpt>
<trkpt lat="-26.7001272" lon="152.8714374">
<ele>241.065</ele>
<time>2017-05-17T02:42:31.751Z</time>
</trkpt>
<trkpt lat="-26.7002521" lon="152.8716041">
<ele>242.633</ele>
<time>2017-05-17T02:42:35.161Z</time>
</trkpt>
<trkpt lat="-26.7003249" lon="152.8717241">
<ele>244.260</ele>
<time>2017-05-17T02:42:37.999Z</time>
</trkpt>
<trkpt lat="-26.7003249" lon="152.8717241">
<ele>245.737</ele>
<time>2017-05-17T02:42:42.999Z</time>
</trkpt>
<trkpt lat="-26.7003249" lon="152.8717241">
<ele>246.491</ele>
<time>2017-05-17T04:06:26.386Z</time>
</trkpt>
<trkpt lat="-26.7002258" lon="152.8716009">
<ele>246.323</ele>
<time>2017-05-17T04:06:35.817Z</time>
</trkpt>
<trkpt lat="-26.7001732" lon="152.8715066">
<ele>246.607</ele>
<time>2017-05-17T04:06:38.974Z</time>
</trkpt>
<trkpt lat="-26.7001365" lon="152.8714087">
<ele>248.340</ele>
<time>2017-05-17T04:06:41.525Z</time>
</trkpt>
<trkpt lat="-26.7000817" lon="152.8712078">
<ele>250.246</ele>
<time>2017-05-17T04:06:46.040Z</time>
</trkpt>
<trkpt lat="-26.7000245" lon="152.8710190">
<ele>250.793</ele>
<time>2017-05-17T04:06:50.328Z</time>
</trkpt>
<trkpt lat="-26.7000118" lon="152.8708842">
<ele>249.976</ele>
<time>2017-05-17T04:06:52.498Z</time>
</trkpt>
<trkpt lat="-26.6999644" lon="152.8707804">
<ele>248.299</ele>
<time>2017-05-17T04:06:53.913Z</time>
</trkpt>
<trkpt lat="-26.6997918" lon="152.8706239">
<ele>246.332</ele>
<time>2017-05-17T04:06:56.293Z</time>
</trkpt>
<trkpt lat="-26.6996847" lon="152.8704720">
<ele>244.598</ele>
<time>2017-05-17T04:06:58.007Z</time>
</trkpt>
<trkpt lat="-26.6994687" lon="152.8701723">
<ele>243.431</ele>
<time>2017-05-17T04:07:01.346Z</time>
</trkpt>
<trkpt lat="-26.6991973" lon="152.8698988">
<ele>242.902</ele>
<time>2017-05-17T04:07:06.491Z</time>
</trkpt>
<trkpt lat="-26.6990226" lon="152.8697780">
<ele>242.890</ele>
<time>2017-05-17T04:07:11.774Z</time>
</trkpt>
<trkpt lat="-26.6988426" lon="152.8696894">
<ele>243.152</ele>
<time>2017-05-17T04:07:14.477Z</time>
</trkpt>
<trkpt lat="-26.6987405" lon="152.8696737">
<ele>243.431</ele>
<time>2017-05-17T04:07:15.377Z</time>
</trkpt>
<trkpt lat="-26.6987122" lon="152.8697835">
<ele>243.540</ele>
<time>2017-05-17T04:07:16.269Z</time>
</trkpt>
<trkpt lat="-26.6985934" lon="152.8699573">
<ele>243.458</ele>
<time>2017-05-17T04:07:17.708Z</time>
</trkpt>
<trkpt lat="-26.6982891" lon="152.8703008">
<ele>243.291</ele>
<time>2017-05-17T04:07:20.399Z</time>
</trkpt>
<trkpt lat="-26.6974821" lon="152.8705437">
<ele>242.964</ele>
<time>2017-05-17T04:07:25.051Z</time>
</trkpt>
<trkpt lat="-26.6970022" lon="152.8705537">
<ele>242.332</ele>
<time>2017-05-17T04:07:27.684Z</time>
</trkpt>
<trkpt lat="-26.6965534" lon="152.8703497">
<ele>241.638</ele>
<time>2017-05-17T04:07:30.364Z</time>
</trkpt>
<trkpt lat="-26.6962984" lon="152.8700653">
<ele>241.587</ele>
<time>2017-05-17T04:07:32.411Z</time>
</trkpt>
<trkpt lat="-26.6960271" lon="152.8698288">
<ele>242.395</ele>
<time>2017-05-17T04:07:34.376Z</time>
</trkpt>
<trkpt lat="-26.6955405" lon="152.8696968">
<ele>242.630</ele>
<time>2017-05-17T04:07:37.197Z</time>
</trkpt>
<trkpt lat="-26.6950111" lon="152.8697627">
<ele>240.656</ele>
<time>2017-05-17T04:07:40.108Z</time>
</trkpt>
<trkpt lat="-26.6944824" lon="152.8698813">
<ele>237.200</ele>
<time>2017-05-17T04:07:43.060Z</time>
</trkpt>
<trkpt lat="-26.6939926" lon="152.8700442">
<ele>234.354</ele>
<time>2017-05-17T04:07:45.972Z</time>
</trkpt>
<trkpt lat="-26.6936567" lon="152.8701038">
<ele>233.243</ele>
<time>2017-05-17T04:07:47.881Z</time>
</trkpt>
<trkpt lat="-26.6931060" lon="152.8702459">
<ele>233.753</ele>
<time>2017-05-17T04:07:50.989Z</time>
</trkpt>
<trkpt lat="-26.6928105" lon="152.8703752">
<ele>240.384</ele>
<time>2017-05-17T04:07:52.735Z</time>
</trkpt>
<trkpt lat="-26.6922860" lon="152.8704696">
<ele>255.390</ele>
<time>2017-05-17T04:07:55.633Z</time>
</trkpt>
<trkpt lat="-26.6919052" lon="152.8704434">
<ele>270.308</ele>
<time>2017-05-17T04:07:57.713Z</time>
</trkpt>
<trkpt lat="-26.6914884" lon="152.8703613">
<ele>276.354</ele>
<time>2017-05-17T04:08:00.115Z</time>
</trkpt>
<trkpt lat="-26.6910939" lon="152.8702449">
<ele>274.529</ele>
<time>2017-05-17T04:08:02.593Z</time>
</trkpt>
<trkpt lat="-26.6906348" lon="152.8699099">
<ele>270.070</ele>
<time>2017-05-17T04:08:06.253Z</time>
</trkpt>
<trkpt lat="-26.6903448" lon="152.8695892">
<ele>270.786</ele>
<time>2017-05-17T04:08:09.076Z</time>
</trkpt>
<trkpt lat="-26.6901157" lon="152.8691555">
<ele>279.365</ele>
<time>2017-05-17T04:08:12.106Z</time>
</trkpt>
<trkpt lat="-26.6898876" lon="152.8687156">
<ele>289.058</ele>
<time>2017-05-17T04:08:15.113Z</time>
</trkpt>
<trkpt lat="-26.6897310" lon="152.8684077">
<ele>293.217</ele>
<time>2017-05-17T04:08:17.221Z</time>
</trkpt>
<trkpt lat="-26.6895268" lon="152.8679573">
<ele>292.567</ele>
<time>2017-05-17T04:08:20.207Z</time>
</trkpt>
<trkpt lat="-26.6893544" lon="152.8675182">
<ele>289.723</ele>
<time>2017-05-17T04:08:22.947Z</time>
</trkpt>
<trkpt lat="-26.6892404" lon="152.8672054">
<ele>286.438</ele>
<time>2017-05-17T04:08:24.851Z</time>
</trkpt>
<trkpt lat="-26.6890215" lon="152.8667372">
<ele>283.654</ele>
<time>2017-05-17T04:08:27.842Z</time>
</trkpt>
<trkpt lat="-26.6887920" lon="152.8662965">
<ele>281.964</ele>
<time>2017-05-17T04:08:30.738Z</time>
</trkpt>
<trkpt lat="-26.6884133" lon="152.8660175">
<ele>281.510</ele>
<time>2017-05-17T04:08:33.738Z</time>
</trkpt>
<trkpt lat="-26.6881152" lon="152.8659165">
<ele>282.254</ele>
<time>2017-05-17T04:08:35.984Z</time>
</trkpt>
<trkpt lat="-26.6878244" lon="152.8658748">
<ele>284.121</ele>
<time>2017-05-17T04:08:38.245Z</time>
</trkpt>
<trkpt lat="-26.6875646" lon="152.8659381">
<ele>286.858</ele>
<time>2017-05-17T04:08:40.501Z</time>
</trkpt>
<trkpt lat="-26.6872106" lon="152.8659542">
<ele>289.654</ele>
<time>2017-05-17T04:08:43.701Z</time>
</trkpt>
<trkpt lat="-26.6869847" lon="152.8659393">
<ele>290.633</ele>
<time>2017-05-17T04:08:45.816Z</time>
</trkpt>
<trkpt lat="-26.6867639" lon="152.8659600">
<ele>288.251</ele>
<time>2017-05-17T04:08:47.922Z</time>
</trkpt>
<trkpt lat="-26.6864472" lon="152.8659146">
<ele>283.535</ele>
<time>2017-05-17T04:08:50.949Z</time>
</trkpt>
<trkpt lat="-26.6862371" lon="152.8659412">
<ele>279.231</ele>
<time>2017-05-17T04:08:52.959Z</time>
</trkpt>
<trkpt lat="-26.6859058" lon="152.8659576">
<ele>277.083</ele>
<time>2017-05-17T04:08:56.218Z</time>
</trkpt>
<trkpt lat="-26.6857049" lon="152.8660493">
<ele>277.126</ele>
<time>2017-05-17T04:08:58.470Z</time>
</trkpt>
<trkpt lat="-26.6855083" lon="152.8661297">
<ele>278.565</ele>
<time>2017-05-17T04:09:00.772Z</time>
</trkpt>
<trkpt lat="-26.6852404" lon="152.8662531">
<ele>280.607</ele>
<time>2017-05-17T04:09:04.294Z</time>
</trkpt>
<trkpt lat="-26.6849991" lon="152.8663967">
<ele>283.277</ele>
<time>2017-05-17T04:09:07.782Z</time>
</trkpt>
<trkpt lat="-26.6847764" lon="152.8664768">
<ele>287.181</ele>
<time>2017-05-17T04:09:10.673Z</time>
</trkpt>
<trkpt lat="-26.6845579" lon="152.8665532">
<ele>292.248</ele>
<time>2017-05-17T04:09:13.465Z</time>
</trkpt>
<trkpt lat="-26.6844135" lon="152.8666286">
<ele>297.706</ele>
<time>2017-05-17T04:09:15.406Z</time>
</trkpt>
<trkpt lat="-26.6842675" lon="152.8667207">
<ele>302.749</ele>
<time>2017-05-17T04:09:17.450Z</time>
</trkpt>
<trkpt lat="-26.6840845" lon="152.8668954">
<ele>306.886</ele>
<time>2017-05-17T04:09:20.430Z</time>
</trkpt>
<trkpt lat="-26.6839115" lon="152.8670857">
<ele>310.404</ele>
<time>2017-05-17T04:09:23.455Z</time>
</trkpt>
<trkpt lat="-26.6837950" lon="152.8672161">
<ele>314.296</ele>
<time>2017-05-17T04:09:25.488Z</time>
</trkpt>
<trkpt lat="-26.6835567" lon="152.8672658">
<ele>319.164</ele>
<time>2017-05-17T04:09:28.494Z</time>
</trkpt>
<trkpt lat="-26.6833275" lon="152.8673819">
<ele>324.979</ele>
<time>2017-05-17T04:09:31.562Z</time>
</trkpt>
<trkpt lat="-26.6831862" lon="152.8674364">
<ele>331.540</ele>
<time>2017-05-17T04:09:33.357Z</time>
</trkpt>
<trkpt lat="-26.6829692" lon="152.8673998">
<ele>338.072</ele>
<time>2017-05-17T04:09:36.009Z</time>
</trkpt>
<trkpt lat="-26.6826669" lon="152.8674699">
<ele>343.674</ele>
<time>2017-05-17T04:09:39.765Z</time>
</trkpt>
<trkpt lat="-26.6825348" lon="152.8675117">
<ele>348.360</ele>
<time>2017-05-17T04:09:41.462Z</time>
</trkpt>
<trkpt lat="-26.6822747" lon="152.8675101">
<ele>352.410</ele>
<time>2017-05-17T04:09:45.081Z</time>
</trkpt>
<trkpt lat="-26.6820284" lon="152.8675632">
<ele>356.293</ele>
<time>2017-05-17T04:09:52.850Z</time>
</trkpt>
<trkpt lat="-26.6818718" lon="152.8675469">
<ele>360.933</ele>
<time>2017-05-17T04:10:00.399Z</time>
</trkpt>
<trkpt lat="-26.6816955" lon="152.8675957">
<ele>366.419</ele>
<time>2017-05-17T04:10:03.357Z</time>
</trkpt>
<trkpt lat="-26.6815920" lon="152.8676015">
<ele>372.147</ele>
<time>2017-05-17T04:10:04.350Z</time>
</trkpt>
<trkpt lat="-26.6814956" lon="152.8676159">
<ele>377.343</ele>
<time>2017-05-17T04:10:05.282Z</time>
</trkpt>
<trkpt lat="-26.6814475" lon="152.8677644">
<ele>381.299</ele>
<time>2017-05-17T04:10:06.519Z</time>
</trkpt>
<trkpt lat="-26.6814826" lon="152.8679816">
<ele>383.979</ele>
<time>2017-05-17T04:10:08.059Z</time>
</trkpt>
<trkpt lat="-26.6816250" lon="152.8683625">
<ele>385.736</ele>
<time>2017-05-17T04:10:10.604Z</time>
</trkpt>
<trkpt lat="-26.6817453" lon="152.8686235">
<ele>386.899</ele>
<time>2017-05-17T04:10:12.356Z</time>
</trkpt>
<trkpt lat="-26.6819581" lon="152.8690525">
<ele>387.998</ele>
<time>2017-05-17T04:10:15.289Z</time>
</trkpt>
<trkpt lat="-26.6820762" lon="152.8693559">
<ele>389.224</ele>
<time>2017-05-17T04:10:17.271Z</time>
</trkpt>
<trkpt lat="-26.6820986" lon="152.8696743">
<ele>390.370</ele>
<time>2017-05-17T04:10:19.162Z</time>
</trkpt>
<trkpt lat="-26.6821570" lon="152.8701676">
<ele>391.172</ele>
<time>2017-05-17T04:10:22.067Z</time>
</trkpt>
<trkpt lat="-26.6822126" lon="152.8704959">
<ele>391.695</ele>
<time>2017-05-17T04:10:24.011Z</time>
</trkpt>
<trkpt lat="-26.6823340" lon="152.8709843">
<ele>392.308</ele>
<time>2017-05-17T04:10:26.961Z</time>
</trkpt>
<trkpt lat="-26.6823884" lon="152.8714872">
<ele>393.349</ele>
<time>2017-05-17T04:10:29.936Z</time>
</trkpt>
<trkpt lat="-26.6824401" lon="152.8718453">
<ele>394.904</ele>
<time>2017-05-17T04:10:32.124Z</time>
</trkpt>
<trkpt lat="-26.6825189" lon="152.8721583">
<ele>396.654</ele>
<time>2017-05-17T04:10:34.094Z</time>
</trkpt>
<trkpt lat="-26.6825930" lon="152.8726379">
<ele>398.156</ele>
<time>2017-05-17T04:10:37.064Z</time>
</trkpt>
<trkpt lat="-26.6826509" lon="152.8729518">
<ele>399.363</ele>
<time>2017-05-17T04:10:39.022Z</time>
</trkpt>
<trkpt lat="-26.6829449" lon="152.8732961">
<ele>400.389</ele>
<time>2017-05-17T04:10:41.922Z</time>
</trkpt>
<trkpt lat="-26.6831713" lon="152.8735029">
<ele>401.116</ele>
<time>2017-05-17T04:10:43.964Z</time>
</trkpt>
<trkpt lat="-26.6833917" lon="152.8737128">
<ele>401.466</ele>
<time>2017-05-17T04:10:46.044Z</time>
</trkpt>
<trkpt lat="-26.6836792" lon="152.8740581">
<ele>401.648</ele>
<time>2017-05-17T04:10:49.242Z</time>
</trkpt>
<trkpt lat="-26.6839953" lon="152.8743126">
<ele>402.037</ele>
<time>2017-05-17T04:10:52.384Z</time>
</trkpt>
<trkpt lat="-26.6843529" lon="152.8743603">
<ele>402.882</ele>
<time>2017-05-17T04:10:55.470Z</time>
</trkpt>
<trkpt lat="-26.6845706" lon="152.8744621">
<ele>404.049</ele>
<time>2017-05-17T04:10:57.562Z</time>
</trkpt>
<trkpt lat="-26.6848071" lon="152.8747313">
<ele>405.110</ele>
<time>2017-05-17T04:11:00.513Z</time>
</trkpt>
<trkpt lat="-26.6849612" lon="152.8750545">
<ele>405.735</ele>
<time>2017-05-17T04:11:03.120Z</time>
</trkpt>
<trkpt lat="-26.6851000" lon="152.8752767">
<ele>405.782</ele>
<time>2017-05-17T04:11:04.957Z</time>
</trkpt>
<trkpt lat="-26.6853811" lon="152.8755992">
<ele>405.182</ele>
<time>2017-05-17T04:11:07.900Z</time>
</trkpt>
<trkpt lat="-26.6856787" lon="152.8759055">
<ele>403.854</ele>
<time>2017-05-17T04:11:10.760Z</time>
</trkpt>
<trkpt lat="-26.6858737" lon="152.8761229">
<ele>401.886</ele>
<time>2017-05-17T04:11:12.663Z</time>
</trkpt>
<trkpt lat="-26.6862102" lon="152.8764248">
<ele>399.766</ele>
<time>2017-05-17T04:11:15.586Z</time>
</trkpt>
<trkpt lat="-26.6864253" lon="152.8766546">
<ele>398.066</ele>
<time>2017-05-17T04:11:17.659Z</time>
</trkpt>
<trkpt lat="-26.6866306" lon="152.8768686">
<ele>396.934</ele>
<time>2017-05-17T04:11:19.626Z</time>
</trkpt>
<trkpt lat="-26.6869492" lon="152.8771461">
<ele>396.205</ele>
<time>2017-05-17T04:11:22.454Z</time>
</trkpt>
<trkpt lat="-26.6872147" lon="152.8775324">
<ele>395.628</ele>
<time>2017-05-17T04:11:25.505Z</time>
</trkpt>
<trkpt lat="-26.6873922" lon="152.8779398">
<ele>395.008</ele>
<time>2017-05-17T04:11:28.378Z</time>
</trkpt>
<trkpt lat="-26.6875760" lon="152.8783564">
<ele>394.231</ele>
<time>2017-05-17T04:11:31.277Z</time>
</trkpt>
<trkpt lat="-26.6877620" lon="152.8785838">
<ele>393.213</ele>
<time>2017-05-17T04:11:33.165Z</time>
</trkpt>
<trkpt lat="-26.6881078" lon="152.8788917">
<ele>392.012</ele>
<time>2017-05-17T04:11:36.086Z</time>
</trkpt>
<trkpt lat="-26.6884709" lon="152.8791914">
<ele>390.873</ele>
<time>2017-05-17T04:11:39.112Z</time>
</trkpt>
<trkpt lat="-26.6887999" lon="152.8794943">
<ele>390.061</ele>
<time>2017-05-17T04:11:42.144Z</time>
</trkpt>
<trkpt lat="-26.6890937" lon="152.8797918">
<ele>389.692</ele>
<time>2017-05-17T04:11:45.179Z</time>
</trkpt>
<trkpt lat="-26.6892257" lon="152.8800344">
<ele>389.669</ele>
<time>2017-05-17T04:11:47.143Z</time>
</trkpt>
<trkpt lat="-26.6892808" lon="152.8803372">
<ele>389.798</ele>
<time>2017-05-17T04:11:49.290Z</time>
</trkpt>
<trkpt lat="-26.6892836" lon="152.8806278">
<ele>389.930</ele>
<time>2017-05-17T04:11:51.314Z</time>
</trkpt>
<trkpt lat="-26.6893944" lon="152.8810178">
<ele>390.006</ele>
<time>2017-05-17T04:11:54.102Z</time>
</trkpt>
<trkpt lat="-26.6896671" lon="152.8813442">
<ele>390.050</ele>
<time>2017-05-17T04:11:56.973Z</time>
</trkpt>
<trkpt lat="-26.6899857" lon="152.8816512">
<ele>390.149</ele>
<time>2017-05-17T04:11:59.926Z</time>
</trkpt>
<trkpt lat="-26.6903032" lon="152.8819584">
<ele>390.394</ele>
<time>2017-05-17T04:12:02.895Z</time>
</trkpt>
<trkpt lat="-26.6905167" lon="152.8821538">
<ele>390.775</ele>
<time>2017-05-17T04:12:04.875Z</time>
</trkpt>
<trkpt lat="-26.6908043" lon="152.8824647">
<ele>391.144</ele>
<time>2017-05-17T04:12:07.873Z</time>
</trkpt>
<trkpt lat="-26.6909285" lon="152.8827083">
<ele>391.255</ele>
<time>2017-05-17T04:12:09.716Z</time>
</trkpt>
<trkpt lat="-26.6909675" lon="152.8830201">
<ele>390.987</ele>
<time>2017-05-17T04:12:11.714Z</time>
</trkpt>
<trkpt lat="-26.6909605" lon="152.8833463">
<ele>390.542</ele>
<time>2017-05-17T04:12:13.782Z</time>
</trkpt>
<trkpt lat="-26.6910082" lon="152.8836510">
<ele>390.205</ele>
<time>2017-05-17T04:12:15.760Z</time>
</trkpt>
<trkpt lat="-26.6911912" lon="152.8840722">
<ele>390.060</ele>
<time>2017-05-17T04:12:18.653Z</time>
</trkpt>
<trkpt lat="-26.6914076" lon="152.8845010">
<ele>390.104</ele>
<time>2017-05-17T04:12:21.628Z</time>
</trkpt>
<trkpt lat="-26.6915390" lon="152.8847857">
<ele>390.467</ele>
<time>2017-05-17T04:12:23.570Z</time>
</trkpt>
<trkpt lat="-26.6916916" lon="152.8850532">
<ele>391.192</ele>
<time>2017-05-17T04:12:25.481Z</time>
</trkpt>
<trkpt lat="-26.6918998" lon="152.8854847">
<ele>391.941</ele>
<time>2017-05-17T04:12:28.373Z</time>
</trkpt>
<trkpt lat="-26.6920805" lon="152.8857618">
<ele>392.367</ele>
<time>2017-05-17T04:12:30.365Z</time>
</trkpt>
<trkpt lat="-26.6922792" lon="152.8862182">
<ele>392.472</ele>
<time>2017-05-17T04:12:33.320Z</time>
</trkpt>
<trkpt lat="-26.6925461" lon="152.8866232">
<ele>392.366</ele>
<time>2017-05-17T04:12:36.244Z</time>
</trkpt>
<trkpt lat="-26.6928388" lon="152.8870077">
<ele>392.120</ele>
<time>2017-05-17T04:12:39.150Z</time>
</trkpt>
<trkpt lat="-26.6930532" lon="152.8872543">
<ele>391.714</ele>
<time>2017-05-17T04:12:41.179Z</time>
</trkpt>
<trkpt lat="-26.6932912" lon="152.8876535">
<ele>391.074</ele>
<time>2017-05-17T04:12:44.047Z</time>
</trkpt>
<trkpt lat="-26.6934180" lon="152.8881425">
<ele>390.190</ele>
<time>2017-05-17T04:12:47.062Z</time>
</trkpt>
<trkpt lat="-26.6934111" lon="152.8886648">
<ele>389.216</ele>
<time>2017-05-17T04:12:50.183Z</time>
</trkpt>
<trkpt lat="-26.6934235" lon="152.8891295">
<ele>388.387</ele>
<time>2017-05-17T04:12:53.039Z</time>
</trkpt>
<trkpt lat="-26.6934103" lon="152.8894476">
<ele>387.809</ele>
<time>2017-05-17T04:12:55.042Z</time>
</trkpt>
<trkpt lat="-26.6932889" lon="152.8898846">
<ele>387.388</ele>
<time>2017-05-17T04:12:57.969Z</time>
</trkpt>
<trkpt lat="-26.6932012" lon="152.8901642">
<ele>386.948</ele>
<time>2017-05-17T04:12:59.894Z</time>
</trkpt>
<trkpt lat="-26.6931383" lon="152.8904569">
<ele>386.335</ele>
<time>2017-05-17T04:13:01.781Z</time>
</trkpt>
<trkpt lat="-26.6932300" lon="152.8909451">
<ele>385.474</ele>
<time>2017-05-17T04:13:04.838Z</time>
</trkpt>
<trkpt lat="-26.6932838" lon="152.8912631">
<ele>384.281</ele>
<time>2017-05-17T04:13:06.870Z</time>
</trkpt>
<trkpt lat="-26.6933278" lon="152.8917155">
<ele>382.908</ele>
<time>2017-05-17T04:13:09.859Z</time>
</trkpt>
<trkpt lat="-26.6933740" lon="152.8919960">
<ele>381.857</ele>
<time>2017-05-17T04:13:11.764Z</time>
</trkpt>
<trkpt lat="-26.6932509" lon="152.8924289">
<ele>381.512</ele>
<time>2017-05-17T04:13:14.701Z</time>
</trkpt>
<trkpt lat="-26.6930965" lon="152.8928730">
<ele>381.919</ele>
<time>2017-05-17T04:13:17.686Z</time>
</trkpt>
<trkpt lat="-26.6930075" lon="152.8933295">
<ele>382.845</ele>
<time>2017-05-17T04:13:20.607Z</time>
</trkpt>
<trkpt lat="-26.6929030" lon="152.8937820">
<ele>383.788</ele>
<time>2017-05-17T04:13:23.542Z</time>
</trkpt>
<trkpt lat="-26.6928190" lon="152.8940815">
<ele>384.328</ele>
<time>2017-05-17T04:13:25.530Z</time>
</trkpt>
<trkpt lat="-26.6926934" lon="152.8945223">
<ele>384.292</ele>
<time>2017-05-17T04:13:28.540Z</time>
</trkpt>
<trkpt lat="-26.6926316" lon="152.8947827">
<ele>383.542</ele>
<time>2017-05-17T04:13:30.699Z</time>
</trkpt>
<trkpt lat="-26.6925554" lon="152.8950384">
<ele>382.134</ele>
<time>2017-05-17T04:13:33.736Z</time>
</trkpt>
<trkpt lat="-26.6925118" lon="152.8951436">
<ele>380.317</ele>
<time>2017-05-17T04:13:36.042Z</time>
</trkpt>
<trkpt lat="-26.6924237" lon="152.8952100">
<ele>378.208</ele>
<time>2017-05-17T04:13:39.999Z</time>
</trkpt>
<trkpt lat="-26.6924237" lon="152.8952100">
<ele>376.212</ele>
<time>2017-05-17T04:13:41.999Z</time>
</trkpt>
<trkpt lat="-26.6924237" lon="152.8952100">
<ele>375.105</ele>
<time>2017-05-17T04:13:46.206Z</time>
</trkpt>
<trkpt lat="-26.6922476" lon="152.8951540">
<ele>375.041</ele>
<time>2017-05-17T04:13:52.489Z</time>
</trkpt>
<trkpt lat="-26.6920628" lon="152.8950406">
<ele>374.869</ele>
<time>2017-05-17T04:13:55.068Z</time>
</trkpt>
<trkpt lat="-26.6918394" lon="152.8948252">
<ele>373.744</ele>
<time>2017-05-17T04:13:58.137Z</time>
</trkpt>
<trkpt lat="-26.6916688" lon="152.8946675">
<ele>372.400</ele>
<time>2017-05-17T04:14:00.264Z</time>
</trkpt>
<trkpt lat="-26.6915097" lon="152.8945303">
<ele>371.658</ele>
<time>2017-05-17T04:14:02.201Z</time>
</trkpt>
<trkpt lat="-26.6912887" lon="152.8943032">
<ele>371.282</ele>
<time>2017-05-17T04:14:05.096Z</time>
</trkpt>
<trkpt lat="-26.6910991" lon="152.8940409">
<ele>370.797</ele>
<time>2017-05-17T04:14:08.008Z</time>
</trkpt>
<trkpt lat="-26.6909600" lon="152.8938733">
<ele>369.973</ele>
<time>2017-05-17T04:14:09.970Z</time>
</trkpt>
<trkpt lat="-26.6908261" lon="152.8936942">
<ele>369.048</ele>
<time>2017-05-17T04:14:11.987Z</time>
</trkpt>
<trkpt lat="-26.6906909" lon="152.8935382">
<ele>368.477</ele>
<time>2017-05-17T04:14:13.934Z</time>
</trkpt>
<trkpt lat="-26.6905624" lon="152.8933931">
<ele>368.529</ele>
<time>2017-05-17T04:14:15.802Z</time>
</trkpt>
<trkpt lat="-26.6904164" lon="152.8932569">
<ele>369.248</ele>
<time>2017-05-17T04:14:17.691Z</time>
</trkpt>
<trkpt lat="-26.6901250" lon="152.8931630">
<ele>370.531</ele>
<time>2017-05-17T04:14:20.626Z</time>
</trkpt>
<trkpt lat="-26.6899236" lon="152.8930832">
<ele>372.259</ele>
<time>2017-05-17T04:14:22.662Z</time>
</trkpt>
<trkpt lat="-26.6896344" lon="152.8929784">
<ele>374.282</ele>
<time>2017-05-17T04:14:25.612Z</time>
</trkpt>
<trkpt lat="-26.6894524" lon="152.8929092">
<ele>376.400</ele>
<time>2017-05-17T04:14:27.554Z</time>
</trkpt>
<trkpt lat="-26.6892815" lon="152.8928304">
<ele>378.423</ele>
<time>2017-05-17T04:14:29.484Z</time>
</trkpt>
<trkpt lat="-26.6891124" lon="152.8927625">
<ele>380.178</ele>
<time>2017-05-17T04:14:31.510Z</time>
</trkpt>
<trkpt lat="-26.6888977" lon="152.8926852">
<ele>381.606</ele>
<time>2017-05-17T04:14:34.650Z</time>
</trkpt>
<trkpt lat="-26.6888084" lon="152.8925991">
<ele>382.898</ele>
<time>2017-05-17T04:14:37.155Z</time>
</trkpt>
<trkpt lat="-26.6887218" lon="152.8926525">
<ele>384.200</ele>
<time>2017-05-17T04:14:40.128Z</time>
</trkpt>
<trkpt lat="-26.6887305" lon="152.8927831">
<ele>385.480</ele>
<time>2017-05-17T04:14:44.432Z</time>
</trkpt>
<trkpt lat="-26.6886402" lon="152.8929272">
<ele>386.523</ele>
<time>2017-05-17T04:14:49.233Z</time>
</trkpt>
<trkpt lat="-26.6885376" lon="152.8929834">
<ele>387.059</ele>
<time>2017-05-17T04:14:52.174Z</time>
</trkpt>
<trkpt lat="-26.6884556" lon="152.8930642">
<ele>387.051</ele>
<time>2017-05-17T04:14:54.452Z</time>
</trkpt>
<trkpt lat="-26.6883054" lon="152.8931879">
<ele>386.725</ele>
<time>2017-05-17T04:14:57.553Z</time>
</trkpt>
<trkpt lat="-26.6881735" lon="152.8932389">
<ele>386.197</ele>
<time>2017-05-17T04:14:59.343Z</time>
</trkpt>
<trkpt lat="-26.6880202" lon="152.8933586">
<ele>385.388</ele>
<time>2017-05-17T04:15:01.297Z</time>
</trkpt>
<trkpt lat="-26.6878593" lon="152.8937753">
<ele>384.170</ele>
<time>2017-05-17T04:15:04.920Z</time>
</trkpt>
<trkpt lat="-26.6877546" lon="152.8942112">
<ele>382.231</ele>
<time>2017-05-17T04:15:08.105Z</time>
</trkpt>
<trkpt lat="-26.6875523" lon="152.8946264">
<ele>379.137</ele>
<time>2017-05-17T04:15:11.368Z</time>
</trkpt>
<trkpt lat="-26.6873741" lon="152.8950109">
<ele>374.727</ele>
<time>2017-05-17T04:15:14.634Z</time>
</trkpt>
<trkpt lat="-26.6871445" lon="152.8952608">
<ele>369.079</ele>
<time>2017-05-17T04:15:17.637Z</time>
</trkpt>
<trkpt lat="-26.6869441" lon="152.8953047">
<ele>363.400</ele>
<time>2017-05-17T04:15:19.537Z</time>
</trkpt>
<trkpt lat="-26.6867376" lon="152.8953297">
<ele>358.845</ele>
<time>2017-05-17T04:15:21.384Z</time>
</trkpt>
<trkpt lat="-26.6864146" lon="152.8954735">
<ele>354.955</ele>
<time>2017-05-17T04:15:24.261Z</time>
</trkpt>
<trkpt lat="-26.6861196" lon="152.8957529">
<ele>350.676</ele>
<time>2017-05-17T04:15:27.253Z</time>
</trkpt>
<trkpt lat="-26.6859597" lon="152.8959926">
<ele>345.727</ele>
<time>2017-05-17T04:15:29.214Z</time>
</trkpt>
<trkpt lat="-26.6858007" lon="152.8962684">
<ele>340.653</ele>
<time>2017-05-17T04:15:31.293Z</time>
</trkpt>
<trkpt lat="-26.6855091" lon="152.8966307">
<ele>336.344</ele>
<time>2017-05-17T04:15:34.301Z</time>
</trkpt>
<trkpt lat="-26.6853280" lon="152.8968856">
<ele>332.557</ele>
<time>2017-05-17T04:15:36.245Z</time>
</trkpt>
<trkpt lat="-26.6850296" lon="152.8973016">
<ele>328.660</ele>
<time>2017-05-17T04:15:39.377Z</time>
</trkpt>
<trkpt lat="-26.6847943" lon="152.8975207">
<ele>324.436</ele>
<time>2017-05-17T04:15:41.363Z</time>
</trkpt>
<trkpt lat="-26.6845704" lon="152.8977624">
<ele>319.986</ele>
<time>2017-05-17T04:15:43.363Z</time>
</trkpt>
<trkpt lat="-26.6842874" lon="152.8981714">
<ele>315.630</ele>
<time>2017-05-17T04:15:46.391Z</time>
</trkpt>
<trkpt lat="-26.6841014" lon="152.8984119">
<ele>311.324</ele>
<time>2017-05-17T04:15:48.281Z</time>
</trkpt>
<trkpt lat="-26.6837464" lon="152.8987235">
<ele>306.724</ele>
<time>2017-05-17T04:15:51.364Z</time>
</trkpt>
<trkpt lat="-26.6833891" lon="152.8989707">
<ele>301.758</ele>
<time>2017-05-17T04:15:54.528Z</time>
</trkpt>
<trkpt lat="-26.6831632" lon="152.8990881">
<ele>296.163</ele>
<time>2017-05-17T04:15:56.579Z</time>
</trkpt>
<trkpt lat="-26.6828767" lon="152.8992759">
<ele>289.969</ele>
<time>2017-05-17T04:15:59.458Z</time>
</trkpt>
<trkpt lat="-26.6826367" lon="152.8993052">
<ele>283.751</ele>
<time>2017-05-17T04:16:01.660Z</time>
</trkpt>
<trkpt lat="-26.6823121" lon="152.8992354">
<ele>278.500</ele>
<time>2017-05-17T04:16:05.180Z</time>
</trkpt>
<trkpt lat="-26.6820637" lon="152.8993396">
<ele>276.007</ele>
<time>2017-05-17T04:16:07.980Z</time>
</trkpt>
<trkpt lat="-26.6819964" lon="152.8995433">
<ele>278.832</ele>
<time>2017-05-17T04:16:09.783Z</time>
</trkpt>
<trkpt lat="-26.6820390" lon="152.8999208">
<ele>286.197</ele>
<time>2017-05-17T04:16:12.479Z</time>
</trkpt>
<trkpt lat="-26.6820899" lon="152.9002166">
<ele>290.117</ele>
<time>2017-05-17T04:16:14.477Z</time>
</trkpt>
<trkpt lat="-26.6822595" lon="152.9006682">
<ele>285.509</ele>
<time>2017-05-17T04:16:17.533Z</time>
</trkpt>
<trkpt lat="-26.6824362" lon="152.9010949">
<ele>278.816</ele>
<time>2017-05-17T04:16:20.394Z</time>
</trkpt>
<trkpt lat="-26.6824751" lon="152.9015792">
<ele>276.647</ele>
<time>2017-05-17T04:16:23.307Z</time>
</trkpt>
<trkpt lat="-26.6823908" lon="152.9019054">
<ele>277.411</ele>
<time>2017-05-17T04:16:25.348Z</time>
</trkpt>
<trkpt lat="-26.6822705" lon="152.9022175">
<ele>277.593</ele>
<time>2017-05-17T04:16:27.419Z</time>
</trkpt>
<trkpt lat="-26.6821747" lon="152.9026912">
<ele>276.046</ele>
<time>2017-05-17T04:16:30.511Z</time>
</trkpt>
<trkpt lat="-26.6820904" lon="152.9031345">
<ele>272.892</ele>
<time>2017-05-17T04:16:33.566Z</time>
</trkpt>
<trkpt lat="-26.6819682" lon="152.9035544">
<ele>268.300</ele>
<time>2017-05-17T04:16:36.662Z</time>
</trkpt>
<trkpt lat="-26.6820465" lon="152.9037962">
<ele>262.740</ele>
<time>2017-05-17T04:16:38.341Z</time>
</trkpt>
<trkpt lat="-26.6822092" lon="152.9040467">
<ele>257.158</ele>
<time>2017-05-17T04:16:40.328Z</time>
</trkpt>
<trkpt lat="-26.6824584" lon="152.9044207">
<ele>252.209</ele>
<time>2017-05-17T04:16:43.268Z</time>
</trkpt>
<trkpt lat="-26.6825880" lon="152.9046914">
<ele>247.812</ele>
<time>2017-05-17T04:16:45.212Z</time>
</trkpt>
<trkpt lat="-26.6827666" lon="152.9051018">
<ele>243.914</ele>
<time>2017-05-17T04:16:48.177Z</time>
</trkpt>
<trkpt lat="-26.6828626" lon="152.9053824">
<ele>240.564</ele>
<time>2017-05-17T04:16:50.140Z</time>
</trkpt>
<trkpt lat="-26.6828501" lon="152.9058334">
<ele>237.481</ele>
<time>2017-05-17T04:16:53.124Z</time>
</trkpt>
<trkpt lat="-26.6827507" lon="152.9062806">
<ele>233.634</ele>
<time>2017-05-17T04:16:56.312Z</time>
</trkpt>
<trkpt lat="-26.6825352" lon="152.9066351">
<ele>227.991</ele>
<time>2017-05-17T04:16:59.199Z</time>
</trkpt>
<trkpt lat="-26.6822863" lon="152.9067956">
<ele>221.673</ele>
<time>2017-05-17T04:17:01.291Z</time>
</trkpt>
<trkpt lat="-26.6820238" lon="152.9071499">
<ele>216.434</ele>
<time>2017-05-17T04:17:04.096Z</time>
</trkpt>
<trkpt lat="-26.6819091" lon="152.9074594">
<ele>211.541</ele>
<time>2017-05-17T04:17:06.057Z</time>
</trkpt>
<trkpt lat="-26.6817726" lon="152.9079592">
<ele>206.067</ele>
<time>2017-05-17T04:17:08.978Z</time>
</trkpt>
<trkpt lat="-26.6817060" lon="152.9083021">
<ele>200.881</ele>
<time>2017-05-17T04:17:10.917Z</time>
</trkpt>
<trkpt lat="-26.6815979" lon="152.9088628">
<ele>197.000</ele>
<time>2017-05-17T04:17:14.164Z</time>
</trkpt>
<trkpt lat="-26.6815855" lon="152.9091896">
<ele>194.576</ele>
<time>2017-05-17T04:17:16.149Z</time>
</trkpt>
<trkpt lat="-26.6815316" lon="152.9095121">
<ele>193.316</ele>
<time>2017-05-17T04:17:18.243Z</time>
</trkpt>
<trkpt lat="-26.6815338" lon="152.9098054">
<ele>192.857</ele>
<time>2017-05-17T04:17:20.141Z</time>
</trkpt>
<trkpt lat="-26.6817478" lon="152.9102568">
<ele>192.803</ele>
<time>2017-05-17T04:17:23.372Z</time>
</trkpt>
<trkpt lat="-26.6818117" lon="152.9107168">
<ele>192.474</ele>
<time>2017-05-17T04:17:26.289Z</time>
</trkpt>
<trkpt lat="-26.6818341" lon="152.9110467">
<ele>191.122</ele>
<time>2017-05-17T04:17:28.328Z</time>
</trkpt>
<trkpt lat="-26.6818380" lon="152.9113588">
<ele>188.658</ele>
<time>2017-05-17T04:17:30.221Z</time>
</trkpt>
<trkpt lat="-26.6818835" lon="152.9118598">
<ele>185.811</ele>
<time>2017-05-17T04:17:33.205Z</time>
</trkpt>
<trkpt lat="-26.6819618" lon="152.9121826">
<ele>183.071</ele>
<time>2017-05-17T04:17:35.231Z</time>
</trkpt>
<trkpt lat="-26.6819453" lon="152.9125020">
<ele>180.405</ele>
<time>2017-05-17T04:17:37.171Z</time>
</trkpt>
<trkpt lat="-26.6819669" lon="152.9129920">
<ele>177.862</ele>
<time>2017-05-17T04:17:40.046Z</time>
</trkpt>
<trkpt lat="-26.6816385" lon="152.9135403">
<ele>175.533</ele>
<time>2017-05-17T04:17:43.828Z</time>
</trkpt>
<trkpt lat="-26.6813320" lon="152.9139623">
<ele>173.483</ele>
<time>2017-05-17T04:17:46.991Z</time>
</trkpt>
<trkpt lat="-26.6811302" lon="152.9142199">
<ele>171.907</ele>
<time>2017-05-17T04:17:48.989Z</time>
</trkpt>
<trkpt lat="-26.6808915" lon="152.9146603">
<ele>170.863</ele>
<time>2017-05-17T04:17:52.056Z</time>
</trkpt>
<trkpt lat="-26.6808030" lon="152.9149475">
<ele>170.029</ele>
<time>2017-05-17T04:17:53.905Z</time>
</trkpt>
<trkpt lat="-26.6806761" lon="152.9153858">
<ele>168.898</ele>
<time>2017-05-17T04:17:56.695Z</time>
</trkpt>
<trkpt lat="-26.6805911" lon="152.9156889">
<ele>167.006</ele>
<time>2017-05-17T04:17:58.526Z</time>
</trkpt>
<trkpt lat="-26.6805655" lon="152.9160279">
<ele>164.316</ele>
<time>2017-05-17T04:18:00.455Z</time>
</trkpt>
<trkpt lat="-26.6806779" lon="152.9165440">
<ele>161.320</ele>
<time>2017-05-17T04:18:03.380Z</time>
</trkpt>
<trkpt lat="-26.6807512" lon="152.9171360">
<ele>158.323</ele>
<time>2017-05-17T04:18:06.660Z</time>
</trkpt>
<trkpt lat="-26.6807198" lon="152.9174984">
<ele>155.092</ele>
<time>2017-05-17T04:18:08.674Z</time>
</trkpt>
<trkpt lat="-26.6807636" lon="152.9180164">
<ele>151.705</ele>
<time>2017-05-17T04:18:11.557Z</time>
</trkpt>
<trkpt lat="-26.6808969" lon="152.9185107">
<ele>148.561</ele>
<time>2017-05-17T04:18:14.368Z</time>
</trkpt>
<trkpt lat="-26.6809929" lon="152.9188500">
<ele>145.749</ele>
<time>2017-05-17T04:18:16.249Z</time>
</trkpt>
<trkpt lat="-26.6809609" lon="152.9192631">
<ele>143.289</ele>
<time>2017-05-17T04:18:18.416Z</time>
</trkpt>
<trkpt lat="-26.6808697" lon="152.9198107">
<ele>141.544</ele>
<time>2017-05-17T04:18:21.316Z</time>
</trkpt>
<trkpt lat="-26.6806899" lon="152.9203113">
<ele>140.894</ele>
<time>2017-05-17T04:18:24.191Z</time>
</trkpt>
<trkpt lat="-26.6805124" lon="152.9208163">
<ele>141.656</ele>
<time>2017-05-17T04:18:27.274Z</time>
</trkpt>
<trkpt lat="-26.6804217" lon="152.9211380">
<ele>143.885</ele>
<time>2017-05-17T04:18:29.249Z</time>
</trkpt>
<trkpt lat="-26.6804023" lon="152.9216294">
<ele>146.806</ele>
<time>2017-05-17T04:18:32.152Z</time>
</trkpt>
<trkpt lat="-26.6804044" lon="152.9219621">
<ele>149.172</ele>
<time>2017-05-17T04:18:34.109Z</time>
</trkpt>
<trkpt lat="-26.6804037" lon="152.9222909">
<ele>150.384</ele>
<time>2017-05-17T04:18:36.068Z</time>
</trkpt>
<trkpt lat="-26.6804358" lon="152.9226271">
<ele>150.614</ele>
<time>2017-05-17T04:18:38.106Z</time>
</trkpt>
<trkpt lat="-26.6805947" lon="152.9230656">
<ele>150.303</ele>
<time>2017-05-17T04:18:41.042Z</time>
</trkpt>
<trkpt lat="-26.6808297" lon="152.9234357">
<ele>149.869</ele>
<time>2017-05-17T04:18:43.827Z</time>
</trkpt>
<trkpt lat="-26.6809868" lon="152.9237099">
<ele>149.531</ele>
<time>2017-05-17T04:18:45.769Z</time>
</trkpt>
<trkpt lat="-26.6812018" lon="152.9241433">
<ele>149.291</ele>
<time>2017-05-17T04:18:48.761Z</time>
</trkpt>
<trkpt lat="-26.6814261" lon="152.9245355">
<ele>148.972</ele>
<time>2017-05-17T04:18:51.710Z</time>
</trkpt>
<trkpt lat="-26.6816032" lon="152.9247665">
<ele>148.289</ele>
<time>2017-05-17T04:18:53.586Z</time>
</trkpt>
<trkpt lat="-26.6819329" lon="152.9249521">
<ele>147.202</ele>
<time>2017-05-17T04:18:56.038Z</time>
</trkpt>
<trkpt lat="-26.6823967" lon="152.9249751">
<ele>145.986</ele>
<time>2017-05-17T04:18:59.056Z</time>
</trkpt>
<trkpt lat="-26.6826932" lon="152.9249328">
<ele>144.648</ele>
<time>2017-05-17T04:19:01.004Z</time>
</trkpt>
<trkpt lat="-26.6831410" lon="152.9249414">
<ele>142.941</ele>
<time>2017-05-17T04:19:03.897Z</time>
</trkpt>
<trkpt lat="-26.6834326" lon="152.9251102">
<ele>140.658</ele>
<time>2017-05-17T04:19:06.054Z</time>
</trkpt>
<trkpt lat="-26.6836323" lon="152.9251996">
<ele>137.759</ele>
<time>2017-05-17T04:19:07.491Z</time>
</trkpt>
<trkpt lat="-26.6841222" lon="152.9253329">
<ele>134.175</ele>
<time>2017-05-17T04:19:10.874Z</time>
</trkpt>
<trkpt lat="-26.6844240" lon="152.9254380">
<ele>130.270</ele>
<time>2017-05-17T04:19:13.025Z</time>
</trkpt>
<trkpt lat="-26.6846976" lon="152.9255258">
<ele>127.017</ele>
<time>2017-05-17T04:19:15.015Z</time>
</trkpt>
<trkpt lat="-26.6849819" lon="152.9255002">
<ele>124.866</ele>
<time>2017-05-17T04:19:17.032Z</time>
</trkpt>
<trkpt lat="-26.6853789" lon="152.9253851">
<ele>123.253</ele>
<time>2017-05-17T04:19:19.927Z</time>
</trkpt>
<trkpt lat="-26.6856529" lon="152.9252919">
<ele>121.475</ele>
<time>2017-05-17T04:19:22.010Z</time>
</trkpt>
<trkpt lat="-26.6859204" lon="152.9252342">
<ele>119.151</ele>
<time>2017-05-17T04:19:24.050Z</time>
</trkpt>
<trkpt lat="-26.6861768" lon="152.9251893">
<ele>116.420</ele>
<time>2017-05-17T04:19:26.002Z</time>
</trkpt>
<trkpt lat="-26.6865337" lon="152.9253869">
<ele>113.125</ele>
<time>2017-05-17T04:19:28.805Z</time>
</trkpt>
<trkpt lat="-26.6867643" lon="152.9256142">
<ele>108.600</ele>
<time>2017-05-17T04:19:30.890Z</time>
</trkpt>
<trkpt lat="-26.6870878" lon="152.9259519">
<ele>103.482</ele>
<time>2017-05-17T04:19:33.810Z</time>
</trkpt>
<trkpt lat="-26.6873110" lon="152.9261729">
<ele>99.323</ele>
<time>2017-05-17T04:19:35.752Z</time>
</trkpt>
<trkpt lat="-26.6876687" lon="152.9265790">
<ele>96.552</ele>
<time>2017-05-17T04:19:39.071Z</time>
</trkpt>
<trkpt lat="-26.6880300" lon="152.9268629">
<ele>94.620</ele>
<time>2017-05-17T04:19:41.966Z</time>
</trkpt>
<trkpt lat="-26.6884914" lon="152.9269256">
<ele>93.025</ele>
<time>2017-05-17T04:19:45.129Z</time>
</trkpt>
<trkpt lat="-26.6887703" lon="152.9269097">
<ele>91.442</ele>
<time>2017-05-17T04:19:47.077Z</time>
</trkpt>
<trkpt lat="-26.6891827" lon="152.9268930">
<ele>89.813</ele>
<time>2017-05-17T04:19:49.947Z</time>
</trkpt>
<trkpt lat="-26.6894684" lon="152.9268385">
<ele>87.999</ele>
<time>2017-05-17T04:19:51.939Z</time>
</trkpt>
<trkpt lat="-26.6899167" lon="152.9270617">
<ele>85.818</ele>
<time>2017-05-17T04:19:55.273Z</time>
</trkpt>
<trkpt lat="-26.6902351" lon="152.9274136">
<ele>83.278</ele>
<time>2017-05-17T04:19:58.367Z</time>
</trkpt>
<trkpt lat="-26.6904162" lon="152.9276470">
<ele>80.597</ele>
<time>2017-05-17T04:20:00.300Z</time>
</trkpt>
<trkpt lat="-26.6906166" lon="152.9280494">
<ele>78.216</ele>
<time>2017-05-17T04:20:03.177Z</time>
</trkpt>
<trkpt lat="-26.6906629" lon="152.9283572">
<ele>76.457</ele>
<time>2017-05-17T04:20:05.115Z</time>
</trkpt>
<trkpt lat="-26.6907805" lon="152.9288367">
<ele>75.152</ele>
<time>2017-05-17T04:20:08.197Z</time>
</trkpt>
<trkpt lat="-26.6908506" lon="152.9291415">
<ele>73.986</ele>
<time>2017-05-17T04:20:10.162Z</time>
</trkpt>
<trkpt lat="-26.6908857" lon="152.9296222">
<ele>72.797</ele>
<time>2017-05-17T04:20:13.242Z</time>
</trkpt>
<trkpt lat="-26.6908341" lon="152.9299390">
<ele>71.548</ele>
<time>2017-05-17T04:20:15.341Z</time>
</trkpt>
<trkpt lat="-26.6907947" lon="152.9302487">
<ele>70.303</ele>
<time>2017-05-17T04:20:17.396Z</time>
</trkpt>
<trkpt lat="-26.6908230" lon="152.9306790">
<ele>69.225</ele>
<time>2017-05-17T04:20:20.216Z</time>
</trkpt>
<trkpt lat="-26.6911180" lon="152.9310392">
<ele>68.384</ele>
<time>2017-05-17T04:20:23.335Z</time>
</trkpt>
<trkpt lat="-26.6913153" lon="152.9312884">
<ele>67.611</ele>
<time>2017-05-17T04:20:25.465Z</time>
</trkpt>
<trkpt lat="-26.6915023" lon="152.9315015">
<ele>66.832</ele>
<time>2017-05-17T04:20:27.363Z</time>
</trkpt>
<trkpt lat="-26.6918048" lon="152.9318305">
<ele>66.142</ele>
<time>2017-05-17T04:20:30.280Z</time>
</trkpt>
<trkpt lat="-26.6921359" lon="152.9321468">
<ele>65.506</ele>
<time>2017-05-17T04:20:33.186Z</time>
</trkpt>
<trkpt lat="-26.6923564" lon="152.9323641">
<ele>64.808</ele>
<time>2017-05-17T04:20:35.142Z</time>
</trkpt>
<trkpt lat="-26.6926543" lon="152.9327274">
<ele>64.059</ele>
<time>2017-05-17T04:20:38.055Z</time>
</trkpt>
<trkpt lat="-26.6929909" lon="152.9330798">
<ele>63.276</ele>
<time>2017-05-17T04:20:41.092Z</time>
</trkpt>
<trkpt lat="-26.6932908" lon="152.9334449">
<ele>62.386</ele>
<time>2017-05-17T04:20:44.072Z</time>
</trkpt>
<trkpt lat="-26.6934959" lon="152.9336721">
<ele>61.379</ele>
<time>2017-05-17T04:20:46.039Z</time>
</trkpt>
<trkpt lat="-26.6936878" lon="152.9338992">
<ele>60.394</ele>
<time>2017-05-17T04:20:47.947Z</time>
</trkpt>
<trkpt lat="-26.6938198" lon="152.9343547">
<ele>59.610</ele>
<time>2017-05-17T04:20:50.811Z</time>
</trkpt>
<trkpt lat="-26.6938683" lon="152.9348556">
<ele>59.067</ele>
<time>2017-05-17T04:20:53.634Z</time>
</trkpt>
<trkpt lat="-26.6939132" lon="152.9352071">
<ele>58.650</ele>
<time>2017-05-17T04:20:55.473Z</time>
</trkpt>
<trkpt lat="-26.6939893" lon="152.9355941">
<ele>58.323</ele>
<time>2017-05-17T04:20:57.433Z</time>
</trkpt>
<trkpt lat="-26.6940982" lon="152.9361892">
<ele>58.141</ele>
<time>2017-05-17T04:21:00.399Z</time>
</trkpt>
<trkpt lat="-26.6941549" lon="152.9367836">
<ele>58.034</ele>
<time>2017-05-17T04:21:03.345Z</time>
</trkpt>
<trkpt lat="-26.6942169" lon="152.9373595">
<ele>57.747</ele>
<time>2017-05-17T04:21:06.222Z</time>
</trkpt>
<trkpt lat="-26.6943071" lon="152.9379410">
<ele>57.083</ele>
<time>2017-05-17T04:21:09.137Z</time>
</trkpt>
<trkpt lat="-26.6943650" lon="152.9383316">
<ele>56.113</ele>
<time>2017-05-17T04:21:11.114Z</time>
</trkpt>
<trkpt lat="-26.6944344" lon="152.9388928">
<ele>55.101</ele>
<time>2017-05-17T04:21:13.987Z</time>
</trkpt>
<trkpt lat="-26.6944708" lon="152.9392629">
<ele>54.203</ele>
<time>2017-05-17T04:21:15.960Z</time>
</trkpt>
<trkpt lat="-26.6945693" lon="152.9397838">
<ele>53.354</ele>
<time>2017-05-17T04:21:18.860Z</time>
</trkpt>
<trkpt lat="-26.6945633" lon="152.9401272">
<ele>52.392</ele>
<time>2017-05-17T04:21:20.785Z</time>
</trkpt>
<trkpt lat="-26.6945881" lon="152.9404670">
<ele>51.307</ele>
<time>2017-05-17T04:21:22.771Z</time>
</trkpt>
<trkpt lat="-26.6946277" lon="152.9409327">
<ele>50.321</ele>
<time>2017-05-17T04:21:25.700Z</time>
</trkpt>
<trkpt lat="-26.6946710" lon="152.9411679">
<ele>49.564</ele>
<time>2017-05-17T04:21:27.803Z</time>
</trkpt>
<trkpt lat="-26.6948025" lon="152.9412890">
<ele>48.900</ele>
<time>2017-05-17T04:21:29.808Z</time>
</trkpt>
<trkpt lat="-26.6949347" lon="152.9412486">
<ele>48.316</ele>
<time>2017-05-17T04:21:31.802Z</time>
</trkpt>
<trkpt lat="-26.6950770" lon="152.9411397">
<ele>47.971</ele>
<time>2017-05-17T04:21:34.259Z</time>
</trkpt>
<trkpt lat="-26.6952054" lon="152.9410992">
<ele>47.928</ele>
<time>2017-05-17T04:21:36.262Z</time>
</trkpt>
<trkpt lat="-26.6953773" lon="152.9410200">
<ele>48.077</ele>
<time>2017-05-17T04:21:39.241Z</time>
</trkpt>
<trkpt lat="-26.6954726" lon="152.9411467">
<ele>48.214</ele>
<time>2017-05-17T04:21:41.551Z</time>
</trkpt>
<trkpt lat="-26.6954603" lon="152.9414714">
<ele>48.225</ele>
<time>2017-05-17T04:21:44.956Z</time>
</trkpt>
<trkpt lat="-26.6954839" lon="152.9417231">
<ele>48.195</ele>
<time>2017-05-17T04:21:47.016Z</time>
</trkpt>
<trkpt lat="-26.6955392" lon="152.9421048">
<ele>48.272</ele>
<time>2017-05-17T04:21:49.952Z</time>
</trkpt>
<trkpt lat="-26.6955415" lon="152.9423882">
<ele>48.502</ele>
<time>2017-05-17T04:21:51.975Z</time>
</trkpt>
<trkpt lat="-26.6954369" lon="152.9428077">
<ele>48.829</ele>
<time>2017-05-17T04:21:54.988Z</time>
</trkpt>
<trkpt lat="-26.6953530" lon="152.9430723">
<ele>49.173</ele>
<time>2017-05-17T04:21:56.920Z</time>
</trkpt>
<trkpt lat="-26.6952805" lon="152.9433430">
<ele>49.470</ele>
<time>2017-05-17T04:21:58.923Z</time>
</trkpt>
<trkpt lat="-26.6951572" lon="152.9437149">
<ele>49.706</ele>
<time>2017-05-17T04:22:01.820Z</time>
</trkpt>
<trkpt lat="-26.6950663" lon="152.9439541">
<ele>49.975</ele>
<time>2017-05-17T04:22:03.779Z</time>
</trkpt>
<trkpt lat="-26.6950018" lon="152.9443202">
<ele>50.358</ele>
<time>2017-05-17T04:22:06.686Z</time>
</trkpt>
<trkpt lat="-26.6949813" lon="152.9445378">
<ele>50.864</ele>
<time>2017-05-17T04:22:08.549Z</time>
</trkpt>
<trkpt lat="-26.6949721" lon="152.9447382">
<ele>51.439</ele>
<time>2017-05-17T04:22:10.423Z</time>
</trkpt>
<trkpt lat="-26.6950183" lon="152.9450494">
<ele>51.948</ele>
<time>2017-05-17T04:22:13.576Z</time>
</trkpt>
<trkpt lat="-26.6949703" lon="152.9452096">
<ele>52.296</ele>
<time>2017-05-17T04:22:15.479Z</time>
</trkpt>
<trkpt lat="-26.6948893" lon="152.9452725">
<ele>52.495</ele>
<time>2017-05-17T04:22:16.999Z</time>
</trkpt>
<trkpt lat="-26.6948893" lon="152.9452725">
<ele>52.559</ele>
<time>2017-05-17T04:22:20.999Z</time>
</trkpt>
<trkpt lat="-26.6948893" lon="152.9452725">
<ele>52.524</ele>
<time>2017-05-17T04:22:21.099Z</time>
</trkpt>
<trkpt lat="-26.6947561" lon="152.9454280">
<ele>52.467</ele>
<time>2017-05-17T04:22:27.398Z</time>
</trkpt>
<trkpt lat="-26.6946336" lon="152.9456046">
<ele>52.442</ele>
<time>2017-05-17T04:22:30.637Z</time>
</trkpt>
<trkpt lat="-26.6945650" lon="152.9457263">
<ele>52.524</ele>
<time>2017-05-17T04:22:32.397Z</time>
</trkpt>
<trkpt lat="-26.6943348" lon="152.9459203">
<ele>52.806</ele>
<time>2017-05-17T04:22:35.754Z</time>
</trkpt>
<trkpt lat="-26.6941578" lon="152.9460086">
<ele>53.394</ele>
<time>2017-05-17T04:22:37.900Z</time>
</trkpt>
<trkpt lat="-26.6939483" lon="152.9461477">
<ele>54.303</ele>
<time>2017-05-17T04:22:40.794Z</time>
</trkpt>
<trkpt lat="-26.6937988" lon="152.9462444">
<ele>55.378</ele>
<time>2017-05-17T04:22:42.873Z</time>
</trkpt>
<trkpt lat="-26.6936454" lon="152.9463570">
<ele>56.406</ele>
<time>2017-05-17T04:22:45.041Z</time>
</trkpt>
<trkpt lat="-26.6934172" lon="152.9464741">
<ele>57.281</ele>
<time>2017-05-17T04:22:47.840Z</time>
</trkpt>
<trkpt lat="-26.6931865" lon="152.9466064">
<ele>58.062</ele>
<time>2017-05-17T04:22:50.819Z</time>
</trkpt>
<trkpt lat="-26.6929848" lon="152.9467483">
<ele>58.880</ele>
<time>2017-05-17T04:22:53.877Z</time>
</trkpt>
<trkpt lat="-26.6927857" lon="152.9468489">
<ele>59.682</ele>
<time>2017-05-17T04:22:56.718Z</time>
</trkpt>
<trkpt lat="-26.6926444" lon="152.9469183">
<ele>60.254</ele>
<time>2017-05-17T04:22:58.631Z</time>
</trkpt>
<trkpt lat="-26.6924556" lon="152.9471009">
<ele>60.485</ele>
<time>2017-05-17T04:23:01.535Z</time>
</trkpt>
<trkpt lat="-26.6923157" lon="152.9472129">
<ele>60.422</ele>
<time>2017-05-17T04:23:03.250Z</time>
</trkpt>
<trkpt lat="-26.6920794" lon="152.9473169">
<ele>60.184</ele>
<time>2017-05-17T04:23:05.318Z</time>
</trkpt>
<trkpt lat="-26.6916118" lon="152.9476454">
<ele>59.931</ele>
<time>2017-05-17T04:23:09.275Z</time>
</trkpt>
<trkpt lat="-26.6914082" lon="152.9477926">
<ele>59.774</ele>
<time>2017-05-17T04:23:10.919Z</time>
</trkpt>
<trkpt lat="-26.6911856" lon="152.9480043">
<ele>59.747</ele>
<time>2017-05-17T04:23:12.879Z</time>
</trkpt>
<trkpt lat="-26.6910128" lon="152.9482528">
<ele>59.823</ele>
<time>2017-05-17T04:23:14.758Z</time>
</trkpt>
<trkpt lat="-26.6907702" lon="152.9486463">
<ele>59.886</ele>
<time>2017-05-17T04:23:17.599Z</time>
</trkpt>
<trkpt lat="-26.6906269" lon="152.9489265">
<ele>59.793</ele>
<time>2017-05-17T04:23:19.499Z</time>
</trkpt>
<trkpt lat="-26.6904390" lon="152.9493688">
<ele>59.487</ele>
<time>2017-05-17T04:23:22.426Z</time>
</trkpt>
<trkpt lat="-26.6903556" lon="152.9496586">
<ele>59.043</ele>
<time>2017-05-17T04:23:24.285Z</time>
</trkpt>
<trkpt lat="-26.6902406" lon="152.9499494">
<ele>58.599</ele>
<time>2017-05-17T04:23:26.211Z</time>
</trkpt>
<trkpt lat="-26.6901298" lon="152.9504208">
<ele>58.160</ele>
<time>2017-05-17T04:23:29.157Z</time>
</trkpt>
<trkpt lat="-26.6900552" lon="152.9507284">
<ele>57.698</ele>
<time>2017-05-17T04:23:31.087Z</time>
</trkpt>
<trkpt lat="-26.6899016" lon="152.9511756">
<ele>57.340</ele>
<time>2017-05-17T04:23:33.978Z</time>
</trkpt>
<trkpt lat="-26.6898108" lon="152.9514892">
<ele>57.328</ele>
<time>2017-05-17T04:23:35.937Z</time>
</trkpt>
<trkpt lat="-26.6897107" lon="152.9517959">
<ele>57.833</ele>
<time>2017-05-17T04:23:37.853Z</time>
</trkpt>
<trkpt lat="-26.6896350" lon="152.9521267">
<ele>58.726</ele>
<time>2017-05-17T04:23:39.847Z</time>
</trkpt>
<trkpt lat="-26.6895039" lon="152.9526063">
<ele>59.582</ele>
<time>2017-05-17T04:23:42.780Z</time>
</trkpt>
<trkpt lat="-26.6893781" lon="152.9529079">
<ele>60.012</ele>
<time>2017-05-17T04:23:44.732Z</time>
</trkpt>
<trkpt lat="-26.6892191" lon="152.9531945">
<ele>59.836</ele>
<time>2017-05-17T04:23:46.654Z</time>
</trkpt>
<trkpt lat="-26.6889702" lon="152.9536776">
<ele>59.012</ele>
<time>2017-05-17T04:23:49.759Z</time>
</trkpt>
<trkpt lat="-26.6887795" lon="152.9541967">
<ele>57.426</ele>
<time>2017-05-17T04:23:52.862Z</time>
</trkpt>
<trkpt lat="-26.6885134" lon="152.9546415">
<ele>55.032</ele>
<time>2017-05-17T04:23:55.920Z</time>
</trkpt>
<trkpt lat="-26.6883513" lon="152.9549080">
<ele>52.159</ele>
<time>2017-05-17T04:23:57.866Z</time>
</trkpt>
<trkpt lat="-26.6881525" lon="152.9553266">
<ele>49.496</ele>
<time>2017-05-17T04:24:00.740Z</time>
</trkpt>
<trkpt lat="-26.6879513" lon="152.9557583">
<ele>47.631</ele>
<time>2017-05-17T04:24:03.691Z</time>
</trkpt>
<trkpt lat="-26.6876783" lon="152.9561285">
<ele>46.701</ele>
<time>2017-05-17T04:24:06.604Z</time>
</trkpt>
<trkpt lat="-26.6873932" lon="152.9564876">
<ele>46.690</ele>
<time>2017-05-17T04:24:09.529Z</time>
</trkpt>
<trkpt lat="-26.6872310" lon="152.9567446">
<ele>47.789</ele>
<time>2017-05-17T04:24:11.596Z</time>
</trkpt>
<trkpt lat="-26.6871507" lon="152.9571164">
<ele>49.871</ele>
<time>2017-05-17T04:24:14.317Z</time>
</trkpt>
<trkpt lat="-26.6871435" lon="152.9573664">
<ele>52.375</ele>
<time>2017-05-17T04:24:16.245Z</time>
</trkpt>
<trkpt lat="-26.6871099" lon="152.9577337">
<ele>54.798</ele>
<time>2017-05-17T04:24:19.305Z</time>
</trkpt>
<trkpt lat="-26.6869427" lon="152.9579299">
<ele>56.831</ele>
<time>2017-05-17T04:24:22.040Z</time>
</trkpt>
<trkpt lat="-26.6868785" lon="152.9580269">
<ele>58.209</ele>
<time>2017-05-17T04:24:23.764Z</time>
</trkpt>
<trkpt lat="-26.6868047" lon="152.9581203">
<ele>58.789</ele>
<time>2017-05-17T04:24:25.999Z</time>
</trkpt>
<trkpt lat="-26.6868047" lon="152.9581203">
<ele>58.739</ele>
<time>2017-05-17T04:24:31.999Z</time>
</trkpt>
<trkpt lat="-26.6868047" lon="152.9581203">
<ele>58.538</ele>
<time>2017-05-17T04:51:18.087Z</time>
</trkpt>
<trkpt lat="-26.6866398" lon="152.9582782">
<ele>58.499</ele>
<time>2017-05-17T04:51:30.194Z</time>
</trkpt>
<trkpt lat="-26.6865303" lon="152.9584402">
<ele>58.580</ele>
<time>2017-05-17T04:51:32.421Z</time>
</trkpt>
<trkpt lat="-26.6863157" lon="152.9586616">
<ele>58.697</ele>
<time>2017-05-17T04:51:35.418Z</time>
</trkpt>
<trkpt lat="-26.6860652" lon="152.9588743">
<ele>58.846</ele>
<time>2017-05-17T04:51:38.362Z</time>
</trkpt>
<trkpt lat="-26.6858108" lon="152.9590913">
<ele>58.847</ele>
<time>2017-05-17T04:51:41.269Z</time>
</trkpt>
<trkpt lat="-26.6855328" lon="152.9592868">
<ele>58.301</ele>
<time>2017-05-17T04:51:44.215Z</time>
</trkpt>
<trkpt lat="-26.6853145" lon="152.9593576">
<ele>56.851</ele>
<time>2017-05-17T04:51:46.246Z</time>
</trkpt>
<trkpt lat="-26.6850955" lon="152.9594100">
<ele>54.588</ele>
<time>2017-05-17T04:51:48.318Z</time>
</trkpt>
<trkpt lat="-26.6848953" lon="152.9594709">
<ele>52.063</ele>
<time>2017-05-17T04:51:50.504Z</time>
</trkpt>
<trkpt lat="-26.6847243" lon="152.9596633">
<ele>49.770</ele>
<time>2017-05-17T04:51:53.515Z</time>
</trkpt>
<trkpt lat="-26.6847563" lon="152.9599038">
<ele>47.670</ele>
<time>2017-05-17T04:51:56.756Z</time>
</trkpt>
<trkpt lat="-26.6848440" lon="152.9600768">
<ele>45.502</ele>
<time>2017-05-17T04:51:59.714Z</time>
</trkpt>
<trkpt lat="-26.6850366" lon="152.9600497">
<ele>43.355</ele>
<time>2017-05-17T04:52:02.279Z</time>
</trkpt>
<trkpt lat="-26.6853111" lon="152.9599522">
<ele>41.703</ele>
<time>2017-05-17T04:52:05.180Z</time>
</trkpt>
<trkpt lat="-26.6855410" lon="152.9598741">
<ele>40.870</ele>
<time>2017-05-17T04:52:07.096Z</time>
</trkpt>
<trkpt lat="-26.6859114" lon="152.9597498">
<ele>40.822</ele>
<time>2017-05-17T04:52:10.011Z</time>
</trkpt>
<trkpt lat="-26.6861827" lon="152.9597370">
<ele>41.459</ele>
<time>2017-05-17T04:52:12.071Z</time>
</trkpt>
<trkpt lat="-26.6864329" lon="152.9598152">
<ele>42.637</ele>
<time>2017-05-17T04:52:14.072Z</time>
</trkpt>
<trkpt lat="-26.6866924" lon="152.9601665">
<ele>43.917</ele>
<time>2017-05-17T04:52:17.018Z</time>
</trkpt>
<trkpt lat="-26.6869383" lon="152.9606129">
<ele>44.915</ele>
<time>2017-05-17T04:52:20.169Z</time>
</trkpt>
<trkpt lat="-26.6870857" lon="152.9609199">
<ele>45.633</ele>
<time>2017-05-17T04:52:22.207Z</time>
</trkpt>
<trkpt lat="-26.6873025" lon="152.9613777">
<ele>46.273</ele>
<time>2017-05-17T04:52:25.238Z</time>
</trkpt>
<trkpt lat="-26.6874268" lon="152.9616919">
<ele>47.176</ele>
<time>2017-05-17T04:52:27.243Z</time>
</trkpt>
<trkpt lat="-26.6875559" lon="152.9620096">
<ele>48.598</ele>
<time>2017-05-17T04:52:29.288Z</time>
</trkpt>
<trkpt lat="-26.6876746" lon="152.9623291">
<ele>50.390</ele>
<time>2017-05-17T04:52:31.429Z</time>
</trkpt>
<trkpt lat="-26.6877872" lon="152.9626265">
<ele>52.289</ele>
<time>2017-05-17T04:52:33.613Z</time>
</trkpt>
<trkpt lat="-26.6880479" lon="152.9629229">
<ele>54.169</ele>
<time>2017-05-17T04:52:36.426Z</time>
</trkpt>
<trkpt lat="-26.6883194" lon="152.9630022">
<ele>56.067</ele>
<time>2017-05-17T04:52:38.431Z</time>
</trkpt>
<trkpt lat="-26.6887207" lon="152.9631387">
<ele>58.140</ele>
<time>2017-05-17T04:52:41.395Z</time>
</trkpt>
<trkpt lat="-26.6891287" lon="152.9632253">
<ele>60.483</ele>
<time>2017-05-17T04:52:44.266Z</time>
</trkpt>
<trkpt lat="-26.6894260" lon="152.9631642">
<ele>62.973</ele>
<time>2017-05-17T04:52:46.295Z</time>
</trkpt>
<trkpt lat="-26.6898737" lon="152.9630872">
<ele>65.080</ele>
<time>2017-05-17T04:52:49.303Z</time>
</trkpt>
<trkpt lat="-26.6901739" lon="152.9630268">
<ele>66.228</ele>
<time>2017-05-17T04:52:51.314Z</time>
</trkpt>
<trkpt lat="-26.6904751" lon="152.9629597">
<ele>66.433</ele>
<time>2017-05-17T04:52:53.355Z</time>
</trkpt>
<trkpt lat="-26.6909171" lon="152.9628668">
<ele>66.103</ele>
<time>2017-05-17T04:52:56.470Z</time>
</trkpt>
<trkpt lat="-26.6911878" lon="152.9629231">
<ele>65.625</ele>
<time>2017-05-17T04:52:58.495Z</time>
</trkpt>
<trkpt lat="-26.6915354" lon="152.9631332">
<ele>65.244</ele>
<time>2017-05-17T04:53:01.848Z</time>
</trkpt>
<trkpt lat="-26.6917148" lon="152.9632288">
<ele>64.986</ele>
<time>2017-05-17T04:53:04.263Z</time>
</trkpt>
<trkpt lat="-26.6918603" lon="152.9632904">
<ele>64.696</ele>
<time>2017-05-17T04:53:06.345Z</time>
</trkpt>
<trkpt lat="-26.6919472" lon="152.9632482">
<ele>64.210</ele>
<time>2017-05-17T04:53:07.552Z</time>
</trkpt>
<trkpt lat="-26.6919515" lon="152.9629092">
<ele>63.527</ele>
<time>2017-05-17T04:53:10.236Z</time>
</trkpt>
<trkpt lat="-26.6920123" lon="152.9624641">
<ele>62.857</ele>
<time>2017-05-17T04:53:13.215Z</time>
</trkpt>
<trkpt lat="-26.6921266" lon="152.9621608">
<ele>62.446</ele>
<time>2017-05-17T04:53:15.157Z</time>
</trkpt>
<trkpt lat="-26.6924076" lon="152.9617263">
<ele>62.323</ele>
<time>2017-05-17T04:53:18.176Z</time>
</trkpt>
<trkpt lat="-26.6928199" lon="152.9612909">
<ele>62.219</ele>
<time>2017-05-17T04:53:21.610Z</time>
</trkpt>
<trkpt lat="-26.6931023" lon="152.9610672">
<ele>61.682</ele>
<time>2017-05-17T04:53:23.710Z</time>
</trkpt>
<trkpt lat="-26.6935080" lon="152.9608177">
<ele>60.706</ele>
<time>2017-05-17T04:53:26.427Z</time>
</trkpt>
<trkpt lat="-26.6938245" lon="152.9606667">
<ele>59.920</ele>
<time>2017-05-17T04:53:28.309Z</time>
</trkpt>
<trkpt lat="-26.6943114" lon="152.9603341">
<ele>59.790</ele>
<time>2017-05-17T04:53:31.334Z</time>
</trkpt>
<trkpt lat="-26.6948113" lon="152.9600299">
<ele>60.234</ele>
<time>2017-05-17T04:53:34.343Z</time>
</trkpt>
<trkpt lat="-26.6953416" lon="152.9598505">
<ele>61.008</ele>
<time>2017-05-17T04:53:37.324Z</time>
</trkpt>
<trkpt lat="-26.6958767" lon="152.9596901">
<ele>62.011</ele>
<time>2017-05-17T04:53:40.397Z</time>
</trkpt>
<trkpt lat="-26.6963862" lon="152.9596063">
<ele>63.146</ele>
<time>2017-05-17T04:53:43.309Z</time>
</trkpt>
<trkpt lat="-26.6967249" lon="152.9597027">
<ele>64.170</ele>
<time>2017-05-17T04:53:45.306Z</time>
</trkpt>
<trkpt lat="-26.6972137" lon="152.9598724">
<ele>65.066</ele>
<time>2017-05-17T04:53:48.148Z</time>
</trkpt>
<trkpt lat="-26.6976941" lon="152.9602227">
<ele>65.975</ele>
<time>2017-05-17T04:53:51.134Z</time>
</trkpt>
<trkpt lat="-26.6980053" lon="152.9606049">
<ele>66.730</ele>
<time>2017-05-17T04:53:53.443Z</time>
</trkpt>
<trkpt lat="-26.6982260" lon="152.9609333">
<ele>66.967</ele>
<time>2017-05-17T04:53:55.299Z</time>
</trkpt>
<trkpt lat="-26.6985925" lon="152.9614233">
<ele>66.504</ele>
<time>2017-05-17T04:53:58.264Z</time>
</trkpt>
<trkpt lat="-26.6988580" lon="152.9617159">
<ele>65.495</ele>
<time>2017-05-17T04:54:00.229Z</time>
</trkpt>
<trkpt lat="-26.6992031" lon="152.9618625">
<ele>64.337</ele>
<time>2017-05-17T04:54:02.103Z</time>
</trkpt>
<trkpt lat="-26.6998370" lon="152.9619757">
<ele>63.386</ele>
<time>2017-05-17T04:54:05.255Z</time>
</trkpt>
<trkpt lat="-26.7002474" lon="152.9619997">
<ele>62.817</ele>
<time>2017-05-17T04:54:07.220Z</time>
</trkpt>
<trkpt lat="-26.7008680" lon="152.9620447">
<ele>62.597</ele>
<time>2017-05-17T04:54:10.177Z</time>
</trkpt>
<trkpt lat="-26.7012932" lon="152.9620508">
<ele>62.549</ele>
<time>2017-05-17T04:54:12.213Z</time>
</trkpt>
<trkpt lat="-26.7016764" lon="152.9620843">
<ele>62.439</ele>
<time>2017-05-17T04:54:14.073Z</time>
</trkpt>
<trkpt lat="-26.7022870" lon="152.9620686">
<ele>62.106</ele>
<time>2017-05-17T04:54:17.030Z</time>
</trkpt>
<trkpt lat="-26.7026999" lon="152.9620536">
<ele>61.536</ele>
<time>2017-05-17T04:54:18.987Z</time>
</trkpt>
<trkpt lat="-26.7033187" lon="152.9619886">
<ele>60.731</ele>
<time>2017-05-17T04:54:21.914Z</time>
</trkpt>
<trkpt lat="-26.7039288" lon="152.9620249">
<ele>59.386</ele>
<time>2017-05-17T04:54:24.825Z</time>
</trkpt>
<trkpt lat="-26.7045228" lon="152.9619443">
<ele>57.593</ele>
<time>2017-05-17T04:54:27.718Z</time>
</trkpt>
<trkpt lat="-26.7051257" lon="152.9618673">
<ele>56.185</ele>
<time>2017-05-17T04:54:30.658Z</time>
</trkpt>
<trkpt lat="-26.7057569" lon="152.9617011">
<ele>55.636</ele>
<time>2017-05-17T04:54:33.794Z</time>
</trkpt>
<trkpt lat="-26.7062080" lon="152.9616028">
<ele>55.320</ele>
<time>2017-05-17T04:54:36.036Z</time>
</trkpt>
<trkpt lat="-26.7067110" lon="152.9614032">
<ele>54.528</ele>
<time>2017-05-17T04:54:38.659Z</time>
</trkpt>
<trkpt lat="-26.7071141" lon="152.9612717">
<ele>53.446</ele>
<time>2017-05-17T04:54:40.752Z</time>
</trkpt>
<trkpt lat="-26.7075935" lon="152.9608653">
<ele>52.847</ele>
<time>2017-05-17T04:54:43.752Z</time>
</trkpt>
<trkpt lat="-26.7078616" lon="152.9605249">
<ele>53.076</ele>
<time>2017-05-17T04:54:45.753Z</time>
</trkpt>
<trkpt lat="-26.7080601" lon="152.9601327">
<ele>53.776</ele>
<time>2017-05-17T04:54:47.785Z</time>
</trkpt>
<trkpt lat="-26.7084409" lon="152.9597075">
<ele>54.326</ele>
<time>2017-05-17T04:54:50.552Z</time>
</trkpt>
<trkpt lat="-26.7087667" lon="152.9593390">
<ele>54.371</ele>
<time>2017-05-17T04:54:53.081Z</time>
</trkpt>
<trkpt lat="-26.7089899" lon="152.9591803">
<ele>53.932</ele>
<time>2017-05-17T04:54:54.524Z</time>
</trkpt>
<trkpt lat="-26.7096670" lon="152.9591200">
<ele>53.279</ele>
<time>2017-05-17T04:54:58.002Z</time>
</trkpt>
<trkpt lat="-26.7105260" lon="152.9591907">
<ele>52.429</ele>
<time>2017-05-17T04:55:02.166Z</time>
</trkpt>
<trkpt lat="-26.7108548" lon="152.9592102">
<ele>52.227</ele>
<time>2017-05-17T04:55:03.781Z</time>
</trkpt>
<trkpt lat="-26.7112469" lon="152.9592422">
<ele>51.960</ele>
<time>2017-05-17T04:55:05.708Z</time>
</trkpt>
<trkpt lat="-26.7116875" lon="152.9592553">
<ele>51.718</ele>
<time>2017-05-17T04:55:07.877Z</time>
</trkpt>
<trkpt lat="-26.7120711" lon="152.9592901">
<ele>51.635</ele>
<time>2017-05-17T04:55:09.780Z</time>
</trkpt>
<trkpt lat="-26.7124422" lon="152.9593154">
<ele>51.708</ele>
<time>2017-05-17T04:55:11.607Z</time>
</trkpt>
<trkpt lat="-26.7128493" lon="152.9592950">
<ele>51.871</ele>
<time>2017-05-17T04:55:13.622Z</time>
</trkpt>
<trkpt lat="-26.7134614" lon="152.9592077">
<ele>52.061</ele>
<time>2017-05-17T04:55:16.695Z</time>
</trkpt>
<trkpt lat="-26.7138351" lon="152.9591258">
<ele>52.354</ele>
<time>2017-05-17T04:55:18.598Z</time>
</trkpt>
<trkpt lat="-26.7142199" lon="152.9590383">
<ele>52.933</ele>
<time>2017-05-17T04:55:20.553Z</time>
</trkpt>
<trkpt lat="-26.7148014" lon="152.9588682">
<ele>53.941</ele>
<time>2017-05-17T04:55:23.658Z</time>
</trkpt>
<trkpt lat="-26.7151064" lon="152.9587741">
<ele>55.621</ele>
<time>2017-05-17T04:55:25.549Z</time>
</trkpt>
<trkpt lat="-26.7153894" lon="152.9586986">
<ele>57.976</ele>
<time>2017-05-17T04:55:27.419Z</time>
</trkpt>
<trkpt lat="-26.7158313" lon="152.9585513">
<ele>60.460</ele>
<time>2017-05-17T04:55:30.409Z</time>
</trkpt>
<trkpt lat="-26.7161144" lon="152.9583932">
<ele>62.875</ele>
<time>2017-05-17T04:55:32.417Z</time>
</trkpt>
<trkpt lat="-26.7165867" lon="152.9581703">
<ele>65.513</ele>
<time>2017-05-17T04:55:35.605Z</time>
</trkpt>
<trkpt lat="-26.7168919" lon="152.9580895">
<ele>68.089</ele>
<time>2017-05-17T04:55:37.489Z</time>
</trkpt>
<trkpt lat="-26.7173586" lon="152.9579004">
<ele>69.881</ele>
<time>2017-05-17T04:55:40.461Z</time>
</trkpt>
<trkpt lat="-26.7178210" lon="152.9579175">
<ele>70.282</ele>
<time>2017-05-17T04:55:43.295Z</time>
</trkpt>
<trkpt lat="-26.7181268" lon="152.9579402">
<ele>68.862</ele>
<time>2017-05-17T04:55:45.293Z</time>
</trkpt>
<trkpt lat="-26.7184256" lon="152.9579297">
<ele>65.807</ele>
<time>2017-05-17T04:55:47.331Z</time>
</trkpt>
<trkpt lat="-26.7187300" lon="152.9575875">
<ele>61.473</ele>
<time>2017-05-17T04:55:50.277Z</time>
</trkpt>
<trkpt lat="-26.7189411" lon="152.9573245">
<ele>56.784</ele>
<time>2017-05-17T04:55:52.430Z</time>
</trkpt>
<trkpt lat="-26.7191672" lon="152.9569497">
<ele>53.583</ele>
<time>2017-05-17T04:55:55.352Z</time>
</trkpt>
<trkpt lat="-26.7195185" lon="152.9568457">
<ele>52.634</ele>
<time>2017-05-17T04:55:58.192Z</time>
</trkpt>
<trkpt lat="-26.7197813" lon="152.9569284">
<ele>52.770</ele>
<time>2017-05-17T04:56:00.226Z</time>
</trkpt>
<trkpt lat="-26.7201635" lon="152.9572108">
<ele>52.883</ele>
<time>2017-05-17T04:56:03.395Z</time>
</trkpt>
<trkpt lat="-26.7204262" lon="152.9573846">
<ele>52.759</ele>
<time>2017-05-17T04:56:05.406Z</time>
</trkpt>
<trkpt lat="-26.7206961" lon="152.9575433">
<ele>52.738</ele>
<time>2017-05-17T04:56:07.376Z</time>
</trkpt>
<trkpt lat="-26.7211240" lon="152.9577410">
<ele>53.128</ele>
<time>2017-05-17T04:56:10.304Z</time>
</trkpt>
<trkpt lat="-26.7214653" lon="152.9577969">
<ele>53.870</ele>
<time>2017-05-17T04:56:12.460Z</time>
</trkpt>
<trkpt lat="-26.7219359" lon="152.9578374">
<ele>54.566</ele>
<time>2017-05-17T04:56:15.544Z</time>
</trkpt>
<trkpt lat="-26.7223430" lon="152.9578547">
<ele>54.753</ele>
<time>2017-05-17T04:56:18.359Z</time>
</trkpt>
<trkpt lat="-26.7226683" lon="152.9581914">
<ele>54.119</ele>
<time>2017-05-17T04:56:21.396Z</time>
</trkpt>
<trkpt lat="-26.7228844" lon="152.9586455">
<ele>52.803</ele>
<time>2017-05-17T04:56:24.399Z</time>
</trkpt>
<trkpt lat="-26.7230659" lon="152.9589271">
<ele>51.326</ele>
<time>2017-05-17T04:56:26.376Z</time>
</trkpt>
<trkpt lat="-26.7233395" lon="152.9593512">
<ele>50.124</ele>
<time>2017-05-17T04:56:29.394Z</time>
</trkpt>
<trkpt lat="-26.7236036" lon="152.9595056">
<ele>49.280</ele>
<time>2017-05-17T04:56:31.362Z</time>
</trkpt>
<trkpt lat="-26.7239051" lon="152.9595824">
<ele>48.708</ele>
<time>2017-05-17T04:56:33.409Z</time>
</trkpt>
<trkpt lat="-26.7243448" lon="152.9595019">
<ele>48.387</ele>
<time>2017-05-17T04:56:36.486Z</time>
</trkpt>
<trkpt lat="-26.7245603" lon="152.9593565">
<ele>48.240</ele>
<time>2017-05-17T04:56:38.558Z</time>
</trkpt>
<trkpt lat="-26.7247365" lon="152.9592319">
<ele>47.975</ele>
<time>2017-05-17T04:56:40.511Z</time>
</trkpt>
<trkpt lat="-26.7248923" lon="152.9590901">
<ele>47.358</ele>
<time>2017-05-17T04:56:42.494Z</time>
</trkpt>
<trkpt lat="-26.7250766" lon="152.9588235">
<ele>46.478</ele>
<time>2017-05-17T04:56:45.486Z</time>
</trkpt>
<trkpt lat="-26.7252734" lon="152.9585700">
<ele>45.609</ele>
<time>2017-05-17T04:56:48.457Z</time>
</trkpt>
<trkpt lat="-26.7254986" lon="152.9583507">
<ele>44.968</ele>
<time>2017-05-17T04:56:51.500Z</time>
</trkpt>
<trkpt lat="-26.7256794" lon="152.9581215">
<ele>44.636</ele>
<time>2017-05-17T04:56:54.878Z</time>
</trkpt>
<trkpt lat="-26.7257360" lon="152.9580393">
<ele>44.515</ele>
<time>2017-05-17T04:56:56.827Z</time>
</trkpt>
<trkpt lat="-26.7258944" lon="152.9580789">
<ele>44.364</ele>
<time>2017-05-17T04:57:00.290Z</time>
</trkpt>
<trkpt lat="-26.7260095" lon="152.9581842">
<ele>44.037</ele>
<time>2017-05-17T04:57:02.682Z</time>
</trkpt>
<trkpt lat="-26.7262252" lon="152.9583741">
<ele>43.643</ele>
<time>2017-05-17T04:57:05.875Z</time>
</trkpt>
<trkpt lat="-26.7265170" lon="152.9586232">
<ele>43.463</ele>
<time>2017-05-17T04:57:09.367Z</time>
</trkpt>
<trkpt lat="-26.7266864" lon="152.9587844">
<ele>43.667</ele>
<time>2017-05-17T04:57:11.359Z</time>
</trkpt>
<trkpt lat="-26.7268949" lon="152.9590514">
<ele>44.127</ele>
<time>2017-05-17T04:57:14.171Z</time>
</trkpt>
<trkpt lat="-26.7271973" lon="152.9591893">
<ele>44.607</ele>
<time>2017-05-17T04:57:17.010Z</time>
</trkpt>
<trkpt lat="-26.7274236" lon="152.9592794">
<ele>45.012</ele>
<time>2017-05-17T04:57:18.958Z</time>
</trkpt>
<trkpt lat="-26.7276999" lon="152.9593368">
<ele>45.344</ele>
<time>2017-05-17T04:57:20.993Z</time>
</trkpt>
<trkpt lat="-26.7280072" lon="152.9593820">
<ele>45.676</ele>
<time>2017-05-17T04:57:23.043Z</time>
</trkpt>
<trkpt lat="-26.7283076" lon="152.9593871">
<ele>46.148</ele>
<time>2017-05-17T04:57:24.995Z</time>
</trkpt>
<trkpt lat="-26.7285955" lon="152.9593957">
<ele>46.857</ele>
<time>2017-05-17T04:57:26.926Z</time>
</trkpt>
<trkpt lat="-26.7290020" lon="152.9595120">
<ele>47.866</ele>
<time>2017-05-17T04:57:29.855Z</time>
</trkpt>
<trkpt lat="-26.7292617" lon="152.9595646">
<ele>49.419</ele>
<time>2017-05-17T04:57:31.747Z</time>
</trkpt>
<trkpt lat="-26.7296800" lon="152.9597281">
<ele>51.624</ele>
<time>2017-05-17T04:57:34.796Z</time>
</trkpt>
<trkpt lat="-26.7301679" lon="152.9598137">
<ele>54.278</ele>
<time>2017-05-17T04:57:37.949Z</time>
</trkpt>
<trkpt lat="-26.7306232" lon="152.9598666">
<ele>57.168</ele>
<time>2017-05-17T04:57:40.816Z</time>
</trkpt>
<trkpt lat="-26.7309379" lon="152.9598310">
<ele>60.084</ele>
<time>2017-05-17T04:57:42.803Z</time>
</trkpt>
<trkpt lat="-26.7314119" lon="152.9598326">
<ele>62.616</ele>
<time>2017-05-17T04:57:45.759Z</time>
</trkpt>
<trkpt lat="-26.7318899" lon="152.9598234">
<ele>64.494</ele>
<time>2017-05-17T04:57:48.730Z</time>
</trkpt>
<trkpt lat="-26.7322002" lon="152.9598380">
<ele>65.839</ele>
<time>2017-05-17T04:57:50.664Z</time>
</trkpt>
<trkpt lat="-26.7326728" lon="152.9598744">
<ele>66.962</ele>
<time>2017-05-17T04:57:53.609Z</time>
</trkpt>
<trkpt lat="-26.7331449" lon="152.9599665">
<ele>68.151</ele>
<time>2017-05-17T04:57:56.599Z</time>
</trkpt>
<trkpt lat="-26.7334399" lon="152.9599894">
<ele>69.615</ele>
<time>2017-05-17T04:57:58.526Z</time>
</trkpt>
<trkpt lat="-26.7338468" lon="152.9600593">
<ele>71.195</ele>
<time>2017-05-17T04:58:01.353Z</time>
</trkpt>
<trkpt lat="-26.7342383" lon="152.9602179">
<ele>72.547</ele>
<time>2017-05-17T04:58:04.330Z</time>
</trkpt>
<trkpt lat="-26.7345170" lon="152.9604374">
<ele>73.645</ele>
<time>2017-05-17T04:58:06.939Z</time>
</trkpt>
<trkpt lat="-26.7347124" lon="152.9605771">
<ele>74.632</ele>
<time>2017-05-17T04:58:08.851Z</time>
</trkpt>
<trkpt lat="-26.7348346" lon="152.9608210">
<ele>75.502</ele>
<time>2017-05-17T04:58:10.884Z</time>
</trkpt>
<trkpt lat="-26.7350223" lon="152.9610865">
<ele>76.240</ele>
<time>2017-05-17T04:58:13.186Z</time>
</trkpt>
<trkpt lat="-26.7352712" lon="152.9615287">
<ele>76.957</ele>
<time>2017-05-17T04:58:16.339Z</time>
</trkpt>
<trkpt lat="-26.7354482" lon="152.9618364">
<ele>77.963</ele>
<time>2017-05-17T04:58:18.366Z</time>
</trkpt>
<trkpt lat="-26.7357108" lon="152.9623052">
<ele>79.476</ele>
<time>2017-05-17T04:58:21.356Z</time>
</trkpt>
<trkpt lat="-26.7359062" lon="152.9625839">
<ele>81.358</ele>
<time>2017-05-17T04:58:23.260Z</time>
</trkpt>
<trkpt lat="-26.7362262" lon="152.9630097">
<ele>83.316</ele>
<time>2017-05-17T04:58:26.286Z</time>
</trkpt>
<trkpt lat="-26.7366456" lon="152.9632311">
<ele>84.940</ele>
<time>2017-05-17T04:58:29.162Z</time>
</trkpt>
<trkpt lat="-26.7369598" lon="152.9631923">
<ele>86.342</ele>
<time>2017-05-17T04:58:31.142Z</time>
</trkpt>
<trkpt lat="-26.7375249" lon="152.9629438">
<ele>87.355</ele>
<time>2017-05-17T04:58:34.733Z</time>
</trkpt>
<trkpt lat="-26.7378408" lon="152.9628405">
<ele>86.365</ele>
<time>2017-05-17T04:58:36.617Z</time>
</trkpt>
<trkpt lat="-26.7381683" lon="152.9627990">
<ele>83.012</ele>
<time>2017-05-17T04:58:38.528Z</time>
</trkpt>
<trkpt lat="-26.7386609" lon="152.9628749">
<ele>79.585</ele>
<time>2017-05-17T04:58:41.470Z</time>
</trkpt>
<trkpt lat="-26.7389867" lon="152.9629831">
<ele>78.162</ele>
<time>2017-05-17T04:58:43.528Z</time>
</trkpt>
<trkpt lat="-26.7394570" lon="152.9632224">
<ele>79.133</ele>
<time>2017-05-17T04:58:46.682Z</time>
</trkpt>
<trkpt lat="-26.7398390" lon="152.9634957">
<ele>81.946</ele>
<time>2017-05-17T04:58:49.496Z</time>
</trkpt>
<trkpt lat="-26.7400864" lon="152.9637110">
<ele>86.034</ele>
<time>2017-05-17T04:58:51.513Z</time>
</trkpt>
<trkpt lat="-26.7402037" lon="152.9640166">
<ele>95.908</ele>
<time>2017-05-17T04:58:53.471Z</time>
</trkpt>
<trkpt lat="-26.7403073" lon="152.9643408">
<ele>113.597</ele>
<time>2017-05-17T04:58:55.469Z</time>
</trkpt>
<trkpt lat="-26.7404525" lon="152.9648589">
<ele>130.222</ele>
<time>2017-05-17T04:58:58.539Z</time>
</trkpt>
<trkpt lat="-26.7405108" lon="152.9653707">
<ele>137.537</ele>
<time>2017-05-17T04:59:01.469Z</time>
</trkpt>
<trkpt lat="-26.7404641" lon="152.9656874">
<ele>137.101</ele>
<time>2017-05-17T04:59:03.393Z</time>
</trkpt>
<trkpt lat="-26.7404920" lon="152.9659682">
<ele>133.251</ele>
<time>2017-05-17T04:59:05.280Z</time>
</trkpt>
<trkpt lat="-26.7406771" lon="152.9662080">
<ele>129.319</ele>
<time>2017-05-17T04:59:07.809Z</time>
</trkpt>
<trkpt lat="-26.7407811" lon="152.9662202">
<ele>126.204</ele>
<time>2017-05-17T04:59:09.038Z</time>
</trkpt>
<trkpt lat="-26.7409631" lon="152.9660043">
<ele>123.548</ele>
<time>2017-05-17T04:59:12.582Z</time>
</trkpt>
<trkpt lat="-26.7410606" lon="152.9657586">
<ele>121.248</ele>
<time>2017-05-17T04:59:15.105Z</time>
</trkpt>
<trkpt lat="-26.7411161" lon="152.9653442">
<ele>119.508</ele>
<time>2017-05-17T04:59:18.235Z</time>
</trkpt>
<trkpt lat="-26.7411425" lon="152.9651259">
<ele>118.308</ele>
<time>2017-05-17T04:59:19.941Z</time>
</trkpt>
<trkpt lat="-26.7412036" lon="152.9649617">
<ele>117.339</ele>
<time>2017-05-17T04:59:21.750Z</time>
</trkpt>
<trkpt lat="-26.7414722" lon="152.9650386">
<ele>116.245</ele>
<time>2017-05-17T04:59:25.420Z</time>
</trkpt>
<trkpt lat="-26.7415813" lon="152.9653548">
<ele>114.988</ele>
<time>2017-05-17T04:59:28.420Z</time>
</trkpt>
<trkpt lat="-26.7417531" lon="152.9657976">
<ele>113.882</ele>
<time>2017-05-17T04:59:31.910Z</time>
</trkpt>
<trkpt lat="-26.7418671" lon="152.9659964">
<ele>113.376</ele>
<time>2017-05-17T04:59:33.557Z</time>
</trkpt>
<trkpt lat="-26.7420026" lon="152.9664057">
<ele>113.605</ele>
<time>2017-05-17T04:59:36.988Z</time>
</trkpt>
<trkpt lat="-26.7421398" lon="152.9666457">
<ele>114.330</ele>
<time>2017-05-17T04:59:40.197Z</time>
</trkpt>
<trkpt lat="-26.7422988" lon="152.9665937">
<ele>115.293</ele>
<time>2017-05-17T04:59:42.520Z</time>
</trkpt>
<trkpt lat="-26.7425520" lon="152.9664103">
<ele>116.370</ele>
<time>2017-05-17T04:59:45.870Z</time>
</trkpt>
<trkpt lat="-26.7427320" lon="152.9662043">
<ele>117.486</ele>
<time>2017-05-17T04:59:48.020Z</time>
</trkpt>
<trkpt lat="-26.7430344" lon="152.9659167">
<ele>118.463</ele>
<time>2017-05-17T04:59:51.118Z</time>
</trkpt>
<trkpt lat="-26.7432860" lon="152.9658436">
<ele>119.052</ele>
<time>2017-05-17T04:59:53.045Z</time>
</trkpt>
<trkpt lat="-26.7436311" lon="152.9655827">
<ele>119.213</ele>
<time>2017-05-17T04:59:56.015Z</time>
</trkpt>
<trkpt lat="-26.7441074" lon="152.9655496">
<ele>118.944</ele>
<time>2017-05-17T04:59:59.211Z</time>
</trkpt>
<trkpt lat="-26.7445882" lon="152.9657234">
<ele>118.026</ele>
<time>2017-05-17T05:00:02.435Z</time>
</trkpt>
<trkpt lat="-26.7448763" lon="152.9658541">
<ele>116.335</ele>
<time>2017-05-17T05:00:04.368Z</time>
</trkpt>
<trkpt lat="-26.7451542" lon="152.9660345">
<ele>114.179</ele>
<time>2017-05-17T05:00:06.377Z</time>
</trkpt>
<trkpt lat="-26.7455715" lon="152.9662071">
<ele>112.040</ele>
<time>2017-05-17T05:00:09.180Z</time>
</trkpt>
<trkpt lat="-26.7460435" lon="152.9663633">
<ele>110.029</ele>
<time>2017-05-17T05:00:12.228Z</time>
</trkpt>
<trkpt lat="-26.7463688" lon="152.9662372">
<ele>107.986</ele>
<time>2017-05-17T05:00:14.186Z</time>
</trkpt>
<trkpt lat="-26.7468901" lon="152.9659889">
<ele>106.065</ele>
<time>2017-05-17T05:00:17.236Z</time>
</trkpt>
<trkpt lat="-26.7472726" lon="152.9658637">
<ele>104.535</ele>
<time>2017-05-17T05:00:19.272Z</time>
</trkpt>
<trkpt lat="-26.7478629" lon="152.9657198">
<ele>103.214</ele>
<time>2017-05-17T05:00:22.315Z</time>
</trkpt>
<trkpt lat="-26.7484407" lon="152.9656377">
<ele>101.487</ele>
<time>2017-05-17T05:00:25.259Z</time>
</trkpt>
<trkpt lat="-26.7490185" lon="152.9655873">
<ele>98.970</ele>
<time>2017-05-17T05:00:28.257Z</time>
</trkpt>
<trkpt lat="-26.7493646" lon="152.9655296">
<ele>96.000</ele>
<time>2017-05-17T05:00:30.174Z</time>
</trkpt>
<trkpt lat="-26.7498537" lon="152.9654257">
<ele>93.283</ele>
<time>2017-05-17T05:00:33.048Z</time>
</trkpt>
<trkpt lat="-26.7501321" lon="152.9652474">
<ele>91.103</ele>
<time>2017-05-17T05:00:35.055Z</time>
</trkpt>
<trkpt lat="-26.7503224" lon="152.9649718">
<ele>89.337</ele>
<time>2017-05-17T05:00:37.116Z</time>
</trkpt>
<trkpt lat="-26.7504976" lon="152.9647309">
<ele>87.915</ele>
<time>2017-05-17T05:00:39.102Z</time>
</trkpt>
<trkpt lat="-26.7508190" lon="152.9645247">
<ele>86.835</ele>
<time>2017-05-17T05:00:41.861Z</time>
</trkpt>
<trkpt lat="-26.7511313" lon="152.9645202">
<ele>85.788</ele>
<time>2017-05-17T05:00:44.011Z</time>
</trkpt>
<trkpt lat="-26.7516200" lon="152.9645131">
<ele>84.463</ele>
<time>2017-05-17T05:00:47.096Z</time>
</trkpt>
<trkpt lat="-26.7519721" lon="152.9645567">
<ele>82.740</ele>
<time>2017-05-17T05:00:49.318Z</time>
</trkpt>
<trkpt lat="-26.7524257" lon="152.9646661">
<ele>80.632</ele>
<time>2017-05-17T05:00:52.323Z</time>
</trkpt>
<trkpt lat="-26.7528663" lon="152.9644893">
<ele>78.252</ele>
<time>2017-05-17T05:00:55.386Z</time>
</trkpt>
<trkpt lat="-26.7531779" lon="152.9640958">
<ele>75.713</ele>
<time>2017-05-17T05:00:58.367Z</time>
</trkpt>
<trkpt lat="-26.7534865" lon="152.9636898">
<ele>72.926</ele>
<time>2017-05-17T05:01:01.310Z</time>
</trkpt>
<trkpt lat="-26.7537019" lon="152.9634192">
<ele>69.709</ele>
<time>2017-05-17T05:01:03.289Z</time>
</trkpt>
<trkpt lat="-26.7540240" lon="152.9630176">
<ele>65.840</ele>
<time>2017-05-17T05:01:06.244Z</time>
</trkpt>
<trkpt lat="-26.7544238" lon="152.9627345">
<ele>61.405</ele>
<time>2017-05-17T05:01:09.140Z</time>
</trkpt>
<trkpt lat="-26.7549569" lon="152.9626351">
<ele>57.348</ele>
<time>2017-05-17T05:01:12.460Z</time>
</trkpt>
<trkpt lat="-26.7554314" lon="152.9625260">
<ele>54.931</ele>
<time>2017-05-17T05:01:15.588Z</time>
</trkpt>
<trkpt lat="-26.7556939" lon="152.9624208">
<ele>54.330</ele>
<time>2017-05-17T05:01:17.579Z</time>
</trkpt>
<trkpt lat="-26.7559226" lon="152.9623110">
<ele>54.672</ele>
<time>2017-05-17T05:01:19.390Z</time>
</trkpt>
<trkpt lat="-26.7563562" lon="152.9623346">
<ele>55.168</ele>
<time>2017-05-17T05:01:22.428Z</time>
</trkpt>
<trkpt lat="-26.7566551" lon="152.9624261">
<ele>55.544</ele>
<time>2017-05-17T05:01:24.457Z</time>
</trkpt>
<trkpt lat="-26.7571084" lon="152.9625160">
<ele>55.853</ele>
<time>2017-05-17T05:01:27.437Z</time>
</trkpt>
<trkpt lat="-26.7574080" lon="152.9625792">
<ele>56.191</ele>
<time>2017-05-17T05:01:29.406Z</time>
</trkpt>
<trkpt lat="-26.7578538" lon="152.9626783">
<ele>56.556</ele>
<time>2017-05-17T05:01:32.348Z</time>
</trkpt>
<trkpt lat="-26.7581524" lon="152.9627343">
<ele>56.870</ele>
<time>2017-05-17T05:01:34.340Z</time>
</trkpt>
<trkpt lat="-26.7585843" lon="152.9628366">
<ele>57.053</ele>
<time>2017-05-17T05:01:37.335Z</time>
</trkpt>
<trkpt lat="-26.7589844" lon="152.9629218">
<ele>57.011</ele>
<time>2017-05-17T05:01:40.303Z</time>
</trkpt>
<trkpt lat="-26.7593387" lon="152.9628419">
<ele>56.589</ele>
<time>2017-05-17T05:01:43.318Z</time>
</trkpt>
<trkpt lat="-26.7594717" lon="152.9627541">
<ele>55.606</ele>
<time>2017-05-17T05:01:45.089Z</time>
</trkpt>
<trkpt lat="-26.7595201" lon="152.9625616">
<ele>54.008</ele>
<time>2017-05-17T05:01:47.766Z</time>
</trkpt>
<trkpt lat="-26.7595956" lon="152.9624305">
<ele>51.908</ele>
<time>2017-05-17T05:01:50.762Z</time>
</trkpt>
<trkpt lat="-26.7598867" lon="152.9623733">
<ele>49.691</ele>
<time>2017-05-17T05:01:54.772Z</time>
</trkpt>
<trkpt lat="-26.7602635" lon="152.9623074">
<ele>48.016</ele>
<time>2017-05-17T05:01:58.111Z</time>
</trkpt>
<trkpt lat="-26.7604914" lon="152.9622391">
<ele>47.361</ele>
<time>2017-05-17T05:01:59.974Z</time>
</trkpt>
<trkpt lat="-26.7607507" lon="152.9620875">
<ele>47.600</ele>
<time>2017-05-17T05:02:02.195Z</time>
</trkpt>
<trkpt lat="-26.7611298" lon="152.9618924">
<ele>48.285</ele>
<time>2017-05-17T05:02:05.244Z</time>
</trkpt>
<trkpt lat="-26.7613612" lon="152.9617030">
<ele>49.224</ele>
<time>2017-05-17T05:02:07.261Z</time>
</trkpt>
<trkpt lat="-26.7616132" lon="152.9615673">
<ele>50.475</ele>
<time>2017-05-17T05:02:09.196Z</time>
</trkpt>
<trkpt lat="-26.7620219" lon="152.9613948">
<ele>51.854</ele>
<time>2017-05-17T05:02:12.168Z</time>
</trkpt>
<trkpt lat="-26.7623163" lon="152.9613243">
<ele>53.124</ele>
<time>2017-05-17T05:02:14.163Z</time>
</trkpt>
<trkpt lat="-26.7626110" lon="152.9612525">
<ele>54.291</ele>
<time>2017-05-17T05:02:16.147Z</time>
</trkpt>
<trkpt lat="-26.7628989" lon="152.9612010">
<ele>55.285</ele>
<time>2017-05-17T05:02:18.073Z</time>
</trkpt>
<trkpt lat="-26.7633446" lon="152.9611965">
<ele>55.907</ele>
<time>2017-05-17T05:02:21.043Z</time>
</trkpt>
<trkpt lat="-26.7637706" lon="152.9613126">
<ele>56.096</ele>
<time>2017-05-17T05:02:24.002Z</time>
</trkpt>
<trkpt lat="-26.7640439" lon="152.9614670">
<ele>55.989</ele>
<time>2017-05-17T05:02:26.117Z</time>
</trkpt>
<trkpt lat="-26.7642821" lon="152.9616419">
<ele>55.998</ele>
<time>2017-05-17T05:02:28.181Z</time>
</trkpt>
<trkpt lat="-26.7644808" lon="152.9617957">
<ele>56.471</ele>
<time>2017-05-17T05:02:30.139Z</time>
</trkpt>
<trkpt lat="-26.7647174" lon="152.9619768">
<ele>57.194</ele>
<time>2017-05-17T05:02:32.837Z</time>
</trkpt>
<trkpt lat="-26.7648843" lon="152.9620643">
<ele>57.572</ele>
<time>2017-05-17T05:02:34.988Z</time>
</trkpt>
<trkpt lat="-26.7648843" lon="152.9620643">
<ele>57.402</ele>
<time>2017-05-17T05:02:40.988Z</time>
</trkpt>
<trkpt lat="-26.7648843" lon="152.9620643">
<ele>57.106</ele>
<time>2017-05-17T05:02:41.291Z</time>
</trkpt>
<trkpt lat="-26.7649681" lon="152.9623889">
<ele>57.070</ele>
<time>2017-05-17T05:02:47.806Z</time>
</trkpt>
<trkpt lat="-26.7648564" lon="152.9627087">
<ele>56.789</ele>
<time>2017-05-17T05:02:50.942Z</time>
</trkpt>
<trkpt lat="-26.7647772" lon="152.9629604">
<ele>55.822</ele>
<time>2017-05-17T05:02:52.807Z</time>
</trkpt>
<trkpt lat="-26.7646770" lon="152.9634052">
<ele>54.835</ele>
<time>2017-05-17T05:02:55.763Z</time>
</trkpt>
<trkpt lat="-26.7646552" lon="152.9637551">
<ele>54.635</ele>
<time>2017-05-17T05:02:57.769Z</time>
</trkpt>
<trkpt lat="-26.7645378" lon="152.9642673">
<ele>55.157</ele>
<time>2017-05-17T05:03:00.760Z</time>
</trkpt>
<trkpt lat="-26.7644727" lon="152.9646001">
<ele>55.876</ele>
<time>2017-05-17T05:03:02.709Z</time>
</trkpt>
<trkpt lat="-26.7644045" lon="152.9649374">
<ele>56.337</ele>
<time>2017-05-17T05:03:04.662Z</time>
</trkpt>
<trkpt lat="-26.7643361" lon="152.9652787">
<ele>56.475</ele>
<time>2017-05-17T05:03:06.612Z</time>
</trkpt>
<trkpt lat="-26.7641941" lon="152.9657842">
<ele>56.446</ele>
<time>2017-05-17T05:03:09.578Z</time>
</trkpt>
<trkpt lat="-26.7640981" lon="152.9661079">
<ele>56.384</ele>
<time>2017-05-17T05:03:11.506Z</time>
</trkpt>
<trkpt lat="-26.7639974" lon="152.9664357">
<ele>56.338</ele>
<time>2017-05-17T05:03:13.460Z</time>
</trkpt>
<trkpt lat="-26.7638875" lon="152.9667625">
<ele>56.266</ele>
<time>2017-05-17T05:03:15.419Z</time>
</trkpt>
<trkpt lat="-26.7637613" lon="152.9670782">
<ele>56.100</ele>
<time>2017-05-17T05:03:17.374Z</time>
</trkpt>
<trkpt lat="-26.7636624" lon="152.9673937">
<ele>55.837</ele>
<time>2017-05-17T05:03:19.288Z</time>
</trkpt>
<trkpt lat="-26.7636154" lon="152.9679103">
<ele>55.565</ele>
<time>2017-05-17T05:03:22.251Z</time>
</trkpt>
<trkpt lat="-26.7637542" lon="152.9684124">
<ele>55.339</ele>
<time>2017-05-17T05:03:25.212Z</time>
</trkpt>
<trkpt lat="-26.7639453" lon="152.9688971">
<ele>55.084</ele>
<time>2017-05-17T05:03:28.188Z</time>
</trkpt>
<trkpt lat="-26.7642313" lon="152.9693384">
<ele>54.679</ele>
<time>2017-05-17T05:03:31.258Z</time>
</trkpt>
<trkpt lat="-26.7644838" lon="152.9698105">
<ele>54.073</ele>
<time>2017-05-17T05:03:34.356Z</time>
</trkpt>
<trkpt lat="-26.7645621" lon="152.9701328">
<ele>53.414</ele>
<time>2017-05-17T05:03:36.256Z</time>
</trkpt>
<trkpt lat="-26.7646338" lon="152.9704856">
<ele>52.998</ele>
<time>2017-05-17T05:03:38.383Z</time>
</trkpt>
<trkpt lat="-26.7647376" lon="152.9709358">
<ele>53.029</ele>
<time>2017-05-17T05:03:41.214Z</time>
</trkpt>
<trkpt lat="-26.7646914" lon="152.9713900">
<ele>53.564</ele>
<time>2017-05-17T05:03:44.018Z</time>
</trkpt>
<trkpt lat="-26.7644099" lon="152.9718037">
<ele>54.667</ele>
<time>2017-05-17T05:03:47.047Z</time>
</trkpt>
<trkpt lat="-26.7641311" lon="152.9722401">
<ele>56.412</ele>
<time>2017-05-17T05:03:50.081Z</time>
</trkpt>
<trkpt lat="-26.7639615" lon="152.9725245">
<ele>58.758</ele>
<time>2017-05-17T05:03:52.099Z</time>
</trkpt>
<trkpt lat="-26.7638030" lon="152.9727604">
<ele>61.285</ele>
<time>2017-05-17T05:03:53.965Z</time>
</trkpt>
<trkpt lat="-26.7636174" lon="152.9731169">
<ele>63.406</ele>
<time>2017-05-17T05:03:56.733Z</time>
</trkpt>
<trkpt lat="-26.7635724" lon="152.9733730">
<ele>65.005</ele>
<time>2017-05-17T05:03:58.613Z</time>
</trkpt>
<trkpt lat="-26.7636398" lon="152.9736304">
<ele>66.314</ele>
<time>2017-05-17T05:04:00.627Z</time>
</trkpt>
<trkpt lat="-26.7639102" lon="152.9738744">
<ele>67.293</ele>
<time>2017-05-17T05:04:03.614Z</time>
</trkpt>
<trkpt lat="-26.7642751" lon="152.9739701">
<ele>67.764</ele>
<time>2017-05-17T05:04:06.828Z</time>
</trkpt>
<trkpt lat="-26.7645360" lon="152.9742118">
<ele>67.596</ele>
<time>2017-05-17T05:04:09.714Z</time>
</trkpt>
<trkpt lat="-26.7647166" lon="152.9746089">
<ele>66.722</ele>
<time>2017-05-17T05:04:13.177Z</time>
</trkpt>
<trkpt lat="-26.7647149" lon="152.9748365">
<ele>65.415</ele>
<time>2017-05-17T05:04:15.179Z</time>
</trkpt>
<trkpt lat="-26.7646596" lon="152.9751120">
<ele>64.247</ele>
<time>2017-05-17T05:04:18.049Z</time>
</trkpt>
<trkpt lat="-26.7646351" lon="152.9752436">
<ele>63.573</ele>
<time>2017-05-17T05:04:19.851Z</time>
</trkpt>
<trkpt lat="-26.7646402" lon="152.9753446">
<ele>63.357</ele>
<time>2017-05-17T05:04:21.633Z</time>
</trkpt>
<trkpt lat="-26.7645936" lon="152.9754348">
<ele>63.391</ele>
<time>2017-05-17T05:04:23.988Z</time>
</trkpt>
<trkpt lat="-26.7645936" lon="152.9754348">
<ele>63.500</ele>
<time>2017-05-17T05:04:27.988Z</time>
</trkpt>
<trkpt lat="-26.7645936" lon="152.9754348">
<ele>63.561</ele>
<time>2017-05-17T05:04:39.036Z</time>
</trkpt>
<trkpt lat="-26.7647651" lon="152.9754330">
<ele>63.531</ele>
<time>2017-05-17T05:04:43.154Z</time>
</trkpt>
<trkpt lat="-26.7649042" lon="152.9752712">
<ele>63.855</ele>
<time>2017-05-17T05:04:45.464Z</time>
</trkpt>
<trkpt lat="-26.7650645" lon="152.9751164">
<ele>65.133</ele>
<time>2017-05-17T05:04:47.422Z</time>
</trkpt>
<trkpt lat="-26.7652641" lon="152.9747950">
<ele>67.339</ele>
<time>2017-05-17T05:04:50.298Z</time>
</trkpt>
<trkpt lat="-26.7653152" lon="152.9742837">
<ele>70.190</ele>
<time>2017-05-17T05:04:53.594Z</time>
</trkpt>
<trkpt lat="-26.7653018" lon="152.9739174">
<ele>73.095</ele>
<time>2017-05-17T05:04:55.785Z</time>
</trkpt>
<trkpt lat="-26.7652983" lon="152.9735841">
<ele>74.954</ele>
<time>2017-05-17T05:04:57.845Z</time>
</trkpt>
<trkpt lat="-26.7653305" lon="152.9732588">
<ele>75.415</ele>
<time>2017-05-17T05:04:59.992Z</time>
</trkpt>
<trkpt lat="-26.7654605" lon="152.9728608">
<ele>76.089</ele>
<time>2017-05-17T05:05:02.810Z</time>
</trkpt>
<trkpt lat="-26.7657411" lon="152.9725445">
<ele>78.159</ele>
<time>2017-05-17T05:05:05.674Z</time>
</trkpt>
<trkpt lat="-26.7661076" lon="152.9722510">
<ele>79.728</ele>
<time>2017-05-17T05:05:08.868Z</time>
</trkpt>
<trkpt lat="-26.7664746" lon="152.9721310">
<ele>78.999</ele>
<time>2017-05-17T05:05:11.711Z</time>
</trkpt>
<trkpt lat="-26.7667330" lon="152.9721097">
<ele>77.851</ele>
<time>2017-05-17T05:05:13.571Z</time>
</trkpt>
<trkpt lat="-26.7671808" lon="152.9720961">
<ele>78.622</ele>
<time>2017-05-17T05:05:16.564Z</time>
</trkpt>
<trkpt lat="-26.7675358" lon="152.9720856">
<ele>85.424</ele>
<time>2017-05-17T05:05:18.730Z</time>
</trkpt>
<trkpt lat="-26.7680078" lon="152.9721384">
<ele>99.256</ele>
<time>2017-05-17T05:05:21.604Z</time>
</trkpt>
<trkpt lat="-26.7683324" lon="152.9721579">
<ele>112.035</ele>
<time>2017-05-17T05:05:23.573Z</time>
</trkpt>
<trkpt lat="-26.7686373" lon="152.9722487">
<ele>116.839</ele>
<time>2017-05-17T05:05:25.476Z</time>
</trkpt>
<trkpt lat="-26.7691470" lon="152.9724074">
<ele>115.515</ele>
<time>2017-05-17T05:05:28.866Z</time>
</trkpt>
<trkpt lat="-26.7695338" lon="152.9724984">
<ele>111.447</ele>
<time>2017-05-17T05:05:31.691Z</time>
</trkpt>
<trkpt lat="-26.7699187" lon="152.9723660">
<ele>107.107</ele>
<time>2017-05-17T05:05:34.598Z</time>
</trkpt>
<trkpt lat="-26.7701451" lon="152.9721425">
<ele>104.207</ele>
<time>2017-05-17T05:05:36.595Z</time>
</trkpt>
<trkpt lat="-26.7704312" lon="152.9719854">
<ele>103.169</ele>
<time>2017-05-17T05:05:38.580Z</time>
</trkpt>
<trkpt lat="-26.7708547" lon="152.9716766">
<ele>103.235</ele>
<time>2017-05-17T05:05:41.654Z</time>
</trkpt>
<trkpt lat="-26.7712792" lon="152.9713744">
<ele>103.614</ele>
<time>2017-05-17T05:05:44.723Z</time>
</trkpt>
<trkpt lat="-26.7717316" lon="152.9711978">
<ele>103.898</ele>
<time>2017-05-17T05:05:47.789Z</time>
</trkpt>
<trkpt lat="-26.7719993" lon="152.9711119">
<ele>104.060</ele>
<time>2017-05-17T05:05:49.867Z</time>
</trkpt>
<trkpt lat="-26.7723545" lon="152.9710899">
<ele>104.443</ele>
<time>2017-05-17T05:05:52.563Z</time>
</trkpt>
<trkpt lat="-26.7728363" lon="152.9712499">
<ele>105.647</ele>
<time>2017-05-17T05:05:56.028Z</time>
</trkpt>
<trkpt lat="-26.7731214" lon="152.9713749">
<ele>108.001</ele>
<time>2017-05-17T05:05:57.918Z</time>
</trkpt>
<trkpt lat="-26.7735805" lon="152.9715825">
<ele>110.955</ele>
<time>2017-05-17T05:06:01.018Z</time>
</trkpt>
<trkpt lat="-26.7738601" lon="152.9717107">
<ele>113.745</ele>
<time>2017-05-17T05:06:03.074Z</time>
</trkpt>
<trkpt lat="-26.7741083" lon="152.9717878">
<ele>116.311</ele>
<time>2017-05-17T05:06:04.830Z</time>
</trkpt>
<trkpt lat="-26.7745369" lon="152.9718634">
<ele>118.537</ele>
<time>2017-05-17T05:06:07.751Z</time>
</trkpt>
<trkpt lat="-26.7749613" lon="152.9716657">
<ele>118.839</ele>
<time>2017-05-17T05:06:10.842Z</time>
</trkpt>
<trkpt lat="-26.7752866" lon="152.9713110">
<ele>116.544</ele>
<time>2017-05-17T05:06:13.842Z</time>
</trkpt>
<trkpt lat="-26.7756230" lon="152.9709395">
<ele>116.647</ele>
<time>2017-05-17T05:06:16.889Z</time>
</trkpt>
<trkpt lat="-26.7758827" lon="152.9707638">
<ele>123.278</ele>
<time>2017-05-17T05:06:18.839Z</time>
</trkpt>
<trkpt lat="-26.7761742" lon="152.9706449">
<ele>132.360</ele>
<time>2017-05-17T05:06:20.813Z</time>
</trkpt>
<trkpt lat="-26.7764930" lon="152.9705781">
<ele>138.641</ele>
<time>2017-05-17T05:06:22.835Z</time>
</trkpt>
<trkpt lat="-26.7768273" lon="152.9705598">
<ele>141.737</ele>
<time>2017-05-17T05:06:24.848Z</time>
</trkpt>
<trkpt lat="-26.7773832" lon="152.9706614">
<ele>142.855</ele>
<time>2017-05-17T05:06:28.221Z</time>
</trkpt>
<trkpt lat="-26.7776643" lon="152.9708301">
<ele>143.051</ele>
<time>2017-05-17T05:06:30.195Z</time>
</trkpt>
<trkpt lat="-26.7779393" lon="152.9709917">
<ele>142.899</ele>
<time>2017-05-17T05:06:32.130Z</time>
</trkpt>
<trkpt lat="-26.7783584" lon="152.9711841">
<ele>142.528</ele>
<time>2017-05-17T05:06:34.899Z</time>
</trkpt>
<trkpt lat="-26.7786735" lon="152.9712803">
<ele>141.610</ele>
<time>2017-05-17T05:06:36.945Z</time>
</trkpt>
<trkpt lat="-26.7789720" lon="152.9713222">
<ele>139.844</ele>
<time>2017-05-17T05:06:39.022Z</time>
</trkpt>
<trkpt lat="-26.7793516" lon="152.9714944">
<ele>137.462</ele>
<time>2017-05-17T05:06:41.950Z</time>
</trkpt>
<trkpt lat="-26.7795422" lon="152.9717027">
<ele>134.867</ele>
<time>2017-05-17T05:06:43.846Z</time>
</trkpt>
<trkpt lat="-26.7797280" lon="152.9721489">
<ele>132.396</ele>
<time>2017-05-17T05:06:46.928Z</time>
</trkpt>
<trkpt lat="-26.7798854" lon="152.9725746">
<ele>130.393</ele>
<time>2017-05-17T05:06:49.721Z</time>
</trkpt>
<trkpt lat="-26.7801966" lon="152.9729537">
<ele>128.801</ele>
<time>2017-05-17T05:06:52.725Z</time>
</trkpt>
<trkpt lat="-26.7805400" lon="152.9732988">
<ele>127.024</ele>
<time>2017-05-17T05:06:55.748Z</time>
</trkpt>
<trkpt lat="-26.7807745" lon="152.9734735">
<ele>124.446</ele>
<time>2017-05-17T05:06:57.630Z</time>
</trkpt>
<trkpt lat="-26.7812436" lon="152.9734407">
<ele>121.240</ele>
<time>2017-05-17T05:07:00.701Z</time>
</trkpt>
<trkpt lat="-26.7815548" lon="152.9734205">
<ele>118.268</ele>
<time>2017-05-17T05:07:02.748Z</time>
</trkpt>
<trkpt lat="-26.7819431" lon="152.9735896">
<ele>116.072</ele>
<time>2017-05-17T05:07:05.515Z</time>
</trkpt>
<trkpt lat="-26.7823400" lon="152.9739177">
<ele>114.505</ele>
<time>2017-05-17T05:07:08.732Z</time>
</trkpt>
<trkpt lat="-26.7826156" lon="152.9740791">
<ele>113.256</ele>
<time>2017-05-17T05:07:10.652Z</time>
</trkpt>
<trkpt lat="-26.7829414" lon="152.9741871">
<ele>112.307</ele>
<time>2017-05-17T05:07:12.685Z</time>
</trkpt>
<trkpt lat="-26.7834465" lon="152.9743501">
<ele>111.793</ele>
<time>2017-05-17T05:07:15.799Z</time>
</trkpt>
<trkpt lat="-26.7839023" lon="152.9745506">
<ele>111.619</ele>
<time>2017-05-17T05:07:18.670Z</time>
</trkpt>
<trkpt lat="-26.7843790" lon="152.9747677">
<ele>111.622</ele>
<time>2017-05-17T05:07:21.606Z</time>
</trkpt>
<trkpt lat="-26.7848902" lon="152.9749864">
<ele>111.702</ele>
<time>2017-05-17T05:07:24.611Z</time>
</trkpt>
<trkpt lat="-26.7852487" lon="152.9750895">
<ele>111.647</ele>
<time>2017-05-17T05:07:26.621Z</time>
</trkpt>
<trkpt lat="-26.7857621" lon="152.9752229">
<ele>111.206</ele>
<time>2017-05-17T05:07:29.544Z</time>
</trkpt>
<trkpt lat="-26.7860792" lon="152.9753453">
<ele>110.459</ele>
<time>2017-05-17T05:07:31.607Z</time>
</trkpt>
<trkpt lat="-26.7864493" lon="152.9755903">
<ele>109.771</ele>
<time>2017-05-17T05:07:34.571Z</time>
</trkpt>
<trkpt lat="-26.7868077" lon="152.9756717">
<ele>109.308</ele>
<time>2017-05-17T05:07:37.349Z</time>
</trkpt>
<trkpt lat="-26.7870922" lon="152.9754292">
<ele>108.886</ele>
<time>2017-05-17T05:07:39.825Z</time>
</trkpt>
<trkpt lat="-26.7873768" lon="152.9750012">
<ele>108.282</ele>
<time>2017-05-17T05:07:42.822Z</time>
</trkpt>
<trkpt lat="-26.7876767" lon="152.9745569">
<ele>107.348</ele>
<time>2017-05-17T05:07:45.840Z</time>
</trkpt>
<trkpt lat="-26.7878695" lon="152.9742929">
<ele>105.886</ele>
<time>2017-05-17T05:07:47.805Z</time>
</trkpt>
<trkpt lat="-26.7880322" lon="152.9740370">
<ele>103.953</ele>
<time>2017-05-17T05:07:49.758Z</time>
</trkpt>
<trkpt lat="-26.7882500" lon="152.9738479">
<ele>102.002</ele>
<time>2017-05-17T05:07:51.683Z</time>
</trkpt>
<trkpt lat="-26.7887255" lon="152.9738281">
<ele>100.368</ele>
<time>2017-05-17T05:07:54.903Z</time>
</trkpt>
<trkpt lat="-26.7890367" lon="152.9737888">
<ele>98.885</ele>
<time>2017-05-17T05:07:56.937Z</time>
</trkpt>
<trkpt lat="-26.7893354" lon="152.9737647">
<ele>97.152</ele>
<time>2017-05-17T05:07:58.854Z</time>
</trkpt>
<trkpt lat="-26.7896355" lon="152.9737488">
<ele>94.983</ele>
<time>2017-05-17T05:08:00.766Z</time>
</trkpt>
<trkpt lat="-26.7900631" lon="152.9736158">
<ele>92.455</ele>
<time>2017-05-17T05:08:03.552Z</time>
</trkpt>
<trkpt lat="-26.7904677" lon="152.9732883">
<ele>89.080</ele>
<time>2017-05-17T05:08:06.578Z</time>
</trkpt>
<trkpt lat="-26.7908475" lon="152.9729051">
<ele>84.070</ele>
<time>2017-05-17T05:08:09.552Z</time>
</trkpt>
<trkpt lat="-26.7910868" lon="152.9726098">
<ele>77.808</ele>
<time>2017-05-17T05:08:11.573Z</time>
</trkpt>
<trkpt lat="-26.7913547" lon="152.9723523">
<ele>71.870</ele>
<time>2017-05-17T05:08:13.562Z</time>
</trkpt>
<trkpt lat="-26.7917174" lon="152.9719240">
<ele>67.270</ele>
<time>2017-05-17T05:08:16.507Z</time>
</trkpt>
<trkpt lat="-26.7920689" lon="152.9714748">
<ele>63.569</ele>
<time>2017-05-17T05:08:19.470Z</time>
</trkpt>
<trkpt lat="-26.7922761" lon="152.9711591">
<ele>60.295</ele>
<time>2017-05-17T05:08:21.464Z</time>
</trkpt>
<trkpt lat="-26.7926154" lon="152.9707575">
<ele>58.037</ele>
<time>2017-05-17T05:08:24.369Z</time>
</trkpt>
<trkpt lat="-26.7928338" lon="152.9705013">
<ele>57.086</ele>
<time>2017-05-17T05:08:26.308Z</time>
</trkpt>
<trkpt lat="-26.7930728" lon="152.9700331">
<ele>56.816</ele>
<time>2017-05-17T05:08:29.289Z</time>
</trkpt>
<trkpt lat="-26.7932738" lon="152.9697581">
<ele>56.734</ele>
<time>2017-05-17T05:08:31.264Z</time>
</trkpt>
<trkpt lat="-26.7935156" lon="152.9695230">
<ele>56.725</ele>
<time>2017-05-17T05:08:33.267Z</time>
</trkpt>
<trkpt lat="-26.7938839" lon="152.9691655">
<ele>56.758</ele>
<time>2017-05-17T05:08:36.309Z</time>
</trkpt>
<trkpt lat="-26.7941067" lon="152.9688874">
<ele>56.755</ele>
<time>2017-05-17T05:08:38.341Z</time>
</trkpt>
<trkpt lat="-26.7945272" lon="152.9685620">
<ele>56.622</ele>
<time>2017-05-17T05:08:41.403Z</time>
</trkpt>
<trkpt lat="-26.7948154" lon="152.9683715">
<ele>56.280</ele>
<time>2017-05-17T05:08:43.399Z</time>
</trkpt>
<trkpt lat="-26.7952418" lon="152.9680963">
<ele>55.769</ele>
<time>2017-05-17T05:08:46.412Z</time>
</trkpt>
<trkpt lat="-26.7955168" lon="152.9679565">
<ele>55.312</ele>
<time>2017-05-17T05:08:48.497Z</time>
</trkpt>
<trkpt lat="-26.7958965" lon="152.9678836">
<ele>55.107</ele>
<time>2017-05-17T05:08:51.331Z</time>
</trkpt>
<trkpt lat="-26.7963019" lon="152.9681668">
<ele>55.127</ele>
<time>2017-05-17T05:08:54.795Z</time>
</trkpt>
<trkpt lat="-26.7965144" lon="152.9684924">
<ele>55.221</ele>
<time>2017-05-17T05:08:57.157Z</time>
</trkpt>
<trkpt lat="-26.7966864" lon="152.9689547">
<ele>55.266</ele>
<time>2017-05-17T05:09:00.060Z</time>
</trkpt>
<trkpt lat="-26.7968453" lon="152.9694257">
<ele>55.232</ele>
<time>2017-05-17T05:09:03.065Z</time>
</trkpt>
<trkpt lat="-26.7969795" lon="152.9697051">
<ele>55.032</ele>
<time>2017-05-17T05:09:05.084Z</time>
</trkpt>
<trkpt lat="-26.7972827" lon="152.9699566">
<ele>54.539</ele>
<time>2017-05-17T05:09:07.788Z</time>
</trkpt>
<trkpt lat="-26.7975782" lon="152.9699947">
<ele>53.907</ele>
<time>2017-05-17T05:09:09.860Z</time>
</trkpt>
<trkpt lat="-26.7978975" lon="152.9699976">
<ele>53.556</ele>
<time>2017-05-17T05:09:12.030Z</time>
</trkpt>
<trkpt lat="-26.7983101" lon="152.9698531">
<ele>53.726</ele>
<time>2017-05-17T05:09:14.931Z</time>
</trkpt>
<trkpt lat="-26.7987417" lon="152.9696685">
<ele>54.295</ele>
<time>2017-05-17T05:09:18.026Z</time>
</trkpt>
<trkpt lat="-26.7990406" lon="152.9696209">
<ele>54.922</ele>
<time>2017-05-17T05:09:20.005Z</time>
</trkpt>
<trkpt lat="-26.7995104" lon="152.9696604">
<ele>55.343</ele>
<time>2017-05-17T05:09:23.019Z</time>
</trkpt>
<trkpt lat="-26.7999873" lon="152.9696776">
<ele>55.520</ele>
<time>2017-05-17T05:09:26.037Z</time>
</trkpt>
<trkpt lat="-26.8002923" lon="152.9696916">
<ele>55.558</ele>
<time>2017-05-17T05:09:27.964Z</time>
</trkpt>
<trkpt lat="-26.8006133" lon="152.9696748">
<ele>55.546</ele>
<time>2017-05-17T05:09:29.991Z</time>
</trkpt>
<trkpt lat="-26.8010842" lon="152.9696523">
<ele>55.498</ele>
<time>2017-05-17T05:09:32.984Z</time>
</trkpt>
<trkpt lat="-26.8013969" lon="152.9696463">
<ele>55.326</ele>
<time>2017-05-17T05:09:35.036Z</time>
</trkpt>
<trkpt lat="-26.8016812" lon="152.9696367">
<ele>54.996</ele>
<time>2017-05-17T05:09:37.209Z</time>
</trkpt>
<trkpt lat="-26.8020212" lon="152.9695981">
<ele>54.624</ele>
<time>2017-05-17T05:09:40.234Z</time>
</trkpt>
<trkpt lat="-26.8021940" lon="152.9694775">
<ele>54.165</ele>
<time>2017-05-17T05:09:42.002Z</time>
</trkpt>
<trkpt lat="-26.8023878" lon="152.9690897">
<ele>53.478</ele>
<time>2017-05-17T05:09:45.052Z</time>
</trkpt>
<trkpt lat="-26.8025284" lon="152.9688056">
<ele>52.737</ele>
<time>2017-05-17T05:09:47.027Z</time>
</trkpt>
<trkpt lat="-26.8027619" lon="152.9683704">
<ele>52.249</ele>
<time>2017-05-17T05:09:50.083Z</time>
</trkpt>
<trkpt lat="-26.8029990" lon="152.9679640">
<ele>52.144</ele>
<time>2017-05-17T05:09:53.038Z</time>
</trkpt>
<trkpt lat="-26.8031036" lon="152.9676766">
<ele>52.440</ele>
<time>2017-05-17T05:09:55.056Z</time>
</trkpt>
<trkpt lat="-26.8032043" lon="152.9674143">
<ele>52.985</ele>
<time>2017-05-17T05:09:57.094Z</time>
</trkpt>
<trkpt lat="-26.8032981" lon="152.9670389">
<ele>53.462</ele>
<time>2017-05-17T05:10:00.187Z</time>
</trkpt>
<trkpt lat="-26.8033472" lon="152.9668334">
<ele>53.673</ele>
<time>2017-05-17T05:10:02.304Z</time>
</trkpt>
<trkpt lat="-26.8034563" lon="152.9666041">
<ele>53.656</ele>
<time>2017-05-17T05:10:04.942Z</time>
</trkpt>
<trkpt lat="-26.8034593" lon="152.9663830">
<ele>53.550</ele>
<time>2017-05-17T05:10:06.953Z</time>
</trkpt>
<trkpt lat="-26.8035446" lon="152.9660485">
<ele>53.518</ele>
<time>2017-05-17T05:10:10.000Z</time>
</trkpt>
<trkpt lat="-26.8036312" lon="152.9658421">
<ele>53.683</ele>
<time>2017-05-17T05:10:11.982Z</time>
</trkpt>
<trkpt lat="-26.8037426" lon="152.9655348">
<ele>54.008</ele>
<time>2017-05-17T05:10:14.908Z</time>
</trkpt>
<trkpt lat="-26.8038267" lon="152.9653320">
<ele>54.322</ele>
<time>2017-05-17T05:10:16.919Z</time>
</trkpt>
<trkpt lat="-26.8039233" lon="152.9651437">
<ele>54.536</ele>
<time>2017-05-17T05:10:18.900Z</time>
</trkpt>
<trkpt lat="-26.8040435" lon="152.9648508">
<ele>54.668</ele>
<time>2017-05-17T05:10:21.873Z</time>
</trkpt>
<trkpt lat="-26.8041454" lon="152.9646751">
<ele>54.737</ele>
<time>2017-05-17T05:10:23.877Z</time>
</trkpt>
<trkpt lat="-26.8042219" lon="152.9644991">
<ele>54.754</ele>
<time>2017-05-17T05:10:25.780Z</time>
</trkpt>
<trkpt lat="-26.8042530" lon="152.9642942">
<ele>54.763</ele>
<time>2017-05-17T05:10:27.693Z</time>
</trkpt>
<trkpt lat="-26.8043155" lon="152.9639587">
<ele>54.826</ele>
<time>2017-05-17T05:10:30.706Z</time>
</trkpt>
<trkpt lat="-26.8043353" lon="152.9637200">
<ele>55.013</ele>
<time>2017-05-17T05:10:32.696Z</time>
</trkpt>
<trkpt lat="-26.8043867" lon="152.9634810">
<ele>55.326</ele>
<time>2017-05-17T05:10:34.649Z</time>
</trkpt>
<trkpt lat="-26.8044580" lon="152.9630920">
<ele>55.700</ele>
<time>2017-05-17T05:10:37.725Z</time>
</trkpt>
<trkpt lat="-26.8044638" lon="152.9627059">
<ele>56.123</ele>
<time>2017-05-17T05:10:40.660Z</time>
</trkpt>
<trkpt lat="-26.8045236" lon="152.9624553">
<ele>56.615</ele>
<time>2017-05-17T05:10:42.577Z</time>
</trkpt>
<trkpt lat="-26.8045589" lon="152.9621720">
<ele>57.144</ele>
<time>2017-05-17T05:10:44.562Z</time>
</trkpt>
<trkpt lat="-26.8045924" lon="152.9618604">
<ele>57.698</ele>
<time>2017-05-17T05:10:46.604Z</time>
</trkpt>
<trkpt lat="-26.8046566" lon="152.9615692">
<ele>58.287</ele>
<time>2017-05-17T05:10:48.549Z</time>
</trkpt>
<trkpt lat="-26.8048089" lon="152.9611582">
<ele>58.875</ele>
<time>2017-05-17T05:10:51.472Z</time>
</trkpt>
<trkpt lat="-26.8050176" lon="152.9609652">
<ele>59.411</ele>
<time>2017-05-17T05:10:53.553Z</time>
</trkpt>
<trkpt lat="-26.8051817" lon="152.9607631">
<ele>59.817</ele>
<time>2017-05-17T05:10:55.564Z</time>
</trkpt>
<trkpt lat="-26.8053376" lon="152.9605825">
<ele>59.985</ele>
<time>2017-05-17T05:10:57.604Z</time>
</trkpt>
<trkpt lat="-26.8054792" lon="152.9604605">
<ele>59.885</ele>
<time>2017-05-17T05:10:59.869Z</time>
</trkpt>
<trkpt lat="-26.8056025" lon="152.9603945">
<ele>59.558</ele>
<time>2017-05-17T05:11:01.937Z</time>
</trkpt>
<trkpt lat="-26.8057490" lon="152.9605690">
<ele>59.030</ele>
<time>2017-05-17T05:11:05.087Z</time>
</trkpt>
<trkpt lat="-26.8058494" lon="152.9609590">
<ele>58.439</ele>
<time>2017-05-17T05:11:08.710Z</time>
</trkpt>
<trkpt lat="-26.8059091" lon="152.9612420">
<ele>58.130</ele>
<time>2017-05-17T05:11:10.751Z</time>
</trkpt>
<trkpt lat="-26.8059750" lon="152.9615233">
<ele>58.333</ele>
<time>2017-05-17T05:11:12.733Z</time>
</trkpt>
<trkpt lat="-26.8060591" lon="152.9617880">
<ele>58.909</ele>
<time>2017-05-17T05:11:14.642Z</time>
</trkpt>
<trkpt lat="-26.8063136" lon="152.9621218">
<ele>59.583</ele>
<time>2017-05-17T05:11:17.556Z</time>
</trkpt>
<trkpt lat="-26.8066242" lon="152.9624364">
<ele>60.227</ele>
<time>2017-05-17T05:11:20.541Z</time>
</trkpt>
<trkpt lat="-26.8068494" lon="152.9626235">
<ele>60.781</ele>
<time>2017-05-17T05:11:22.486Z</time>
</trkpt>
<trkpt lat="-26.8070843" lon="152.9628024">
<ele>61.149</ele>
<time>2017-05-17T05:11:24.457Z</time>
</trkpt>
<trkpt lat="-26.8074197" lon="152.9630988">
<ele>61.296</ele>
<time>2017-05-17T05:11:27.423Z</time>
</trkpt>
<trkpt lat="-26.8077566" lon="152.9633893">
<ele>61.302</ele>
<time>2017-05-17T05:11:30.374Z</time>
</trkpt>
<trkpt lat="-26.8080946" lon="152.9636831">
<ele>61.198</ele>
<time>2017-05-17T05:11:33.362Z</time>
</trkpt>
<trkpt lat="-26.8082840" lon="152.9639057">
<ele>60.904</ele>
<time>2017-05-17T05:11:35.336Z</time>
</trkpt>
<trkpt lat="-26.8084685" lon="152.9641137">
<ele>60.391</ele>
<time>2017-05-17T05:11:37.273Z</time>
</trkpt>
<trkpt lat="-26.8086426" lon="152.9643146">
<ele>59.748</ele>
<time>2017-05-17T05:11:39.196Z</time>
</trkpt>
<trkpt lat="-26.8088638" lon="152.9646392">
<ele>59.051</ele>
<time>2017-05-17T05:11:42.109Z</time>
</trkpt>
<trkpt lat="-26.8089930" lon="152.9648603">
<ele>58.321</ele>
<time>2017-05-17T05:11:44.070Z</time>
</trkpt>
<trkpt lat="-26.8090641" lon="152.9651197">
<ele>57.598</ele>
<time>2017-05-17T05:11:46.114Z</time>
</trkpt>
<trkpt lat="-26.8091475" lon="152.9653562">
<ele>56.915</ele>
<time>2017-05-17T05:11:48.084Z</time>
</trkpt>
<trkpt lat="-26.8092156" lon="152.9655688">
<ele>56.276</ele>
<time>2017-05-17T05:11:49.968Z</time>
</trkpt>
<trkpt lat="-26.8092694" lon="152.9657583">
<ele>55.688</ele>
<time>2017-05-17T05:11:51.840Z</time>
</trkpt>
<trkpt lat="-26.8093410" lon="152.9660012">
<ele>55.166</ele>
<time>2017-05-17T05:11:54.496Z</time>
</trkpt>
<trkpt lat="-26.8093986" lon="152.9661733">
<ele>54.703</ele>
<time>2017-05-17T05:11:56.518Z</time>
</trkpt>
<trkpt lat="-26.8094463" lon="152.9664138">
<ele>54.335</ele>
<time>2017-05-17T05:11:59.350Z</time>
</trkpt>
<trkpt lat="-26.8094697" lon="152.9665395">
<ele>54.119</ele>
<time>2017-05-17T05:12:00.999Z</time>
</trkpt>
<trkpt lat="-26.8094697" lon="152.9665395">
<ele>54.042</ele>
<time>2017-05-17T05:12:05.999Z</time>
</trkpt>
<trkpt lat="-26.8094697" lon="152.9665395">
<ele>54.022</ele>
<time>2017-05-17T05:12:06.297Z</time>
</trkpt>
<trkpt lat="-26.8097680" lon="152.9666679">
<ele>54.015</ele>
<time>2017-05-17T05:12:11.494Z</time>
</trkpt>
<trkpt lat="-26.8099788" lon="152.9665938">
<ele>54.049</ele>
<time>2017-05-17T05:12:13.443Z</time>
</trkpt>
<trkpt lat="-26.8102102" lon="152.9665050">
<ele>54.201</ele>
<time>2017-05-17T05:12:15.490Z</time>
</trkpt>
<trkpt lat="-26.8105324" lon="152.9663907">
<ele>54.489</ele>
<time>2017-05-17T05:12:18.343Z</time>
</trkpt>
<trkpt lat="-26.8107461" lon="152.9663104">
<ele>54.792</ele>
<time>2017-05-17T05:12:20.293Z</time>
</trkpt>
<trkpt lat="-26.8110734" lon="152.9662453">
<ele>54.965</ele>
<time>2017-05-17T05:12:23.196Z</time>
</trkpt>
<trkpt lat="-26.8113914" lon="152.9661547">
<ele>54.965</ele>
<time>2017-05-17T05:12:26.139Z</time>
</trkpt>
<trkpt lat="-26.8115867" lon="152.9661289">
<ele>54.810</ele>
<time>2017-05-17T05:12:28.160Z</time>
</trkpt>
<trkpt lat="-26.8118039" lon="152.9661873">
<ele>54.541</ele>
<time>2017-05-17T05:12:31.044Z</time>
</trkpt>
<trkpt lat="-26.8118983" lon="152.9662512">
<ele>54.110</ele>
<time>2017-05-17T05:12:32.999Z</time>
</trkpt>
<trkpt lat="-26.8118983" lon="152.9662512">
<ele>53.548</ele>
<time>2017-05-17T05:12:36.999Z</time>
</trkpt>
<trkpt lat="-26.8118983" lon="152.9662512">
<ele>53.172</ele>
<time>2017-05-17T05:13:01.851Z</time>
</trkpt>
<trkpt lat="-26.8120589" lon="152.9662733">
<ele>53.168</ele>
<time>2017-05-17T05:13:09.158Z</time>
</trkpt>
<trkpt lat="-26.8121846" lon="152.9663093">
<ele>53.007</ele>
<time>2017-05-17T05:13:11.646Z</time>
</trkpt>
<trkpt lat="-26.8123118" lon="152.9662247">
<ele>52.276</ele>
<time>2017-05-17T05:13:13.231Z</time>
</trkpt>
<trkpt lat="-26.8125313" lon="152.9658460">
<ele>51.494</ele>
<time>2017-05-17T05:13:16.509Z</time>
</trkpt>
<trkpt lat="-26.8127370" lon="152.9655495">
<ele>51.399</ele>
<time>2017-05-17T05:13:18.550Z</time>
</trkpt>
<trkpt lat="-26.8129627" lon="152.9652337">
<ele>52.171</ele>
<time>2017-05-17T05:13:20.533Z</time>
</trkpt>
<trkpt lat="-26.8133739" lon="152.9647579">
<ele>53.526</ele>
<time>2017-05-17T05:13:23.611Z</time>
</trkpt>
<trkpt lat="-26.8136617" lon="152.9644205">
<ele>55.009</ele>
<time>2017-05-17T05:13:25.661Z</time>
</trkpt>
<trkpt lat="-26.8140007" lon="152.9641245">
<ele>56.348</ele>
<time>2017-05-17T05:13:27.748Z</time>
</trkpt>
<trkpt lat="-26.8145374" lon="152.9637385">
<ele>57.425</ele>
<time>2017-05-17T05:13:30.853Z</time>
</trkpt>
<trkpt lat="-26.8150645" lon="152.9634125">
<ele>58.266</ele>
<time>2017-05-17T05:13:33.794Z</time>
</trkpt>
<trkpt lat="-26.8156291" lon="152.9631596">
<ele>59.002</ele>
<time>2017-05-17T05:13:36.771Z</time>
</trkpt>
<trkpt lat="-26.8160065" lon="152.9629909">
<ele>59.598</ele>
<time>2017-05-17T05:13:38.767Z</time>
</trkpt>
<trkpt lat="-26.8163898" lon="152.9628614">
<ele>59.917</ele>
<time>2017-05-17T05:13:40.737Z</time>
</trkpt>
<trkpt lat="-26.8169964" lon="152.9627797">
<ele>60.028</ele>
<time>2017-05-17T05:13:43.742Z</time>
</trkpt>
<trkpt lat="-26.8173933" lon="152.9626901">
<ele>60.179</ele>
<time>2017-05-17T05:13:45.731Z</time>
</trkpt>
<trkpt lat="-26.8177941" lon="152.9626057">
<ele>60.481</ele>
<time>2017-05-17T05:13:47.738Z</time>
</trkpt>
<trkpt lat="-26.8183823" lon="152.9624552">
<ele>60.834</ele>
<time>2017-05-17T05:13:50.714Z</time>
</trkpt>
<trkpt lat="-26.8189844" lon="152.9623519">
<ele>61.133</ele>
<time>2017-05-17T05:13:53.708Z</time>
</trkpt>
<trkpt lat="-26.8196268" lon="152.9622255">
<ele>61.331</ele>
<time>2017-05-17T05:13:56.890Z</time>
</trkpt>
<trkpt lat="-26.8200274" lon="152.9621427">
<ele>61.394</ele>
<time>2017-05-17T05:13:58.886Z</time>
</trkpt>
<trkpt lat="-26.8204219" lon="152.9620717">
<ele>61.349</ele>
<time>2017-05-17T05:14:00.840Z</time>
</trkpt>
<trkpt lat="-26.8208410" lon="152.9619821">
<ele>61.273</ele>
<time>2017-05-17T05:14:02.935Z</time>
</trkpt>
<trkpt lat="-26.8214034" lon="152.9618281">
<ele>61.202</ele>
<time>2017-05-17T05:14:05.796Z</time>
</trkpt>
<trkpt lat="-26.8217945" lon="152.9617134">
<ele>61.105</ele>
<time>2017-05-17T05:14:07.796Z</time>
</trkpt>
<trkpt lat="-26.8221792" lon="152.9616185">
<ele>60.968</ele>
<time>2017-05-17T05:14:09.750Z</time>
</trkpt>
<trkpt lat="-26.8225791" lon="152.9615501">
<ele>60.833</ele>
<time>2017-05-17T05:14:11.752Z</time>
</trkpt>
<trkpt lat="-26.8231930" lon="152.9613831">
<ele>60.745</ele>
<time>2017-05-17T05:14:14.868Z</time>
</trkpt>
<trkpt lat="-26.8235806" lon="152.9613206">
<ele>60.632</ele>
<time>2017-05-17T05:14:16.797Z</time>
</trkpt>
<trkpt lat="-26.8239636" lon="152.9612172">
<ele>60.384</ele>
<time>2017-05-17T05:14:18.747Z</time>
</trkpt>
<trkpt lat="-26.8243388" lon="152.9611245">
<ele>59.995</ele>
<time>2017-05-17T05:14:20.644Z</time>
</trkpt>
<trkpt lat="-26.8249068" lon="152.9609589">
<ele>59.581</ele>
<time>2017-05-17T05:14:23.529Z</time>
</trkpt>
<trkpt lat="-26.8255200" lon="152.9608485">
<ele>59.285</ele>
<time>2017-05-17T05:14:26.570Z</time>
</trkpt>
<trkpt lat="-26.8259150" lon="152.9607473">
<ele>59.193</ele>
<time>2017-05-17T05:14:28.554Z</time>
</trkpt>
<trkpt lat="-26.8263298" lon="152.9606397">
<ele>59.269</ele>
<time>2017-05-17T05:14:30.637Z</time>
</trkpt>
<trkpt lat="-26.8269531" lon="152.9604920">
<ele>59.389</ele>
<time>2017-05-17T05:14:33.756Z</time>
</trkpt>
<trkpt lat="-26.8273341" lon="152.9603973">
<ele>59.445</ele>
<time>2017-05-17T05:14:35.670Z</time>
</trkpt>
<trkpt lat="-26.8279120" lon="152.9602456">
<ele>59.384</ele>
<time>2017-05-17T05:14:38.575Z</time>
</trkpt>
<trkpt lat="-26.8283281" lon="152.9601636">
<ele>59.060</ele>
<time>2017-05-17T05:14:40.642Z</time>
</trkpt>
<trkpt lat="-26.8289069" lon="152.9599877">
<ele>58.399</ele>
<time>2017-05-17T05:14:43.596Z</time>
</trkpt>
<trkpt lat="-26.8293203" lon="152.9599335">
<ele>57.619</ele>
<time>2017-05-17T05:14:45.653Z</time>
</trkpt>
<trkpt lat="-26.8299209" lon="152.9597752">
<ele>57.017</ele>
<time>2017-05-17T05:14:48.685Z</time>
</trkpt>
<trkpt lat="-26.8303174" lon="152.9596857">
<ele>56.788</ele>
<time>2017-05-17T05:14:50.671Z</time>
</trkpt>
<trkpt lat="-26.8309198" lon="152.9595285">
<ele>57.001</ele>
<time>2017-05-17T05:14:53.715Z</time>
</trkpt>
<trkpt lat="-26.8315203" lon="152.9593951">
<ele>57.604</ele>
<time>2017-05-17T05:14:56.726Z</time>
</trkpt>
<trkpt lat="-26.8319159" lon="152.9593002">
<ele>58.561</ele>
<time>2017-05-17T05:14:58.717Z</time>
</trkpt>
<trkpt lat="-26.8324959" lon="152.9591691">
<ele>59.758</ele>
<time>2017-05-17T05:15:01.640Z</time>
</trkpt>
<trkpt lat="-26.8328839" lon="152.9590714">
<ele>61.028</ele>
<time>2017-05-17T05:15:03.621Z</time>
</trkpt>
<trkpt lat="-26.8334550" lon="152.9589092">
<ele>62.228</ele>
<time>2017-05-17T05:15:06.547Z</time>
</trkpt>
<trkpt lat="-26.8338589" lon="152.9587989">
<ele>63.174</ele>
<time>2017-05-17T05:15:08.579Z</time>
</trkpt>
<trkpt lat="-26.8342847" lon="152.9587500">
<ele>63.784</ele>
<time>2017-05-17T05:15:10.657Z</time>
</trkpt>
<trkpt lat="-26.8349009" lon="152.9586348">
<ele>64.124</ele>
<time>2017-05-17T05:15:13.698Z</time>
</trkpt>
<trkpt lat="-26.8355009" lon="152.9585616">
<ele>64.249</ele>
<time>2017-05-17T05:15:16.656Z</time>
</trkpt>
<trkpt lat="-26.8361047" lon="152.9585536">
<ele>64.160</ele>
<time>2017-05-17T05:15:19.630Z</time>
</trkpt>
<trkpt lat="-26.8365061" lon="152.9585347">
<ele>63.728</ele>
<time>2017-05-17T05:15:21.612Z</time>
</trkpt>
<trkpt lat="-26.8371086" lon="152.9585032">
<ele>62.949</ele>
<time>2017-05-17T05:15:24.580Z</time>
</trkpt>
<trkpt lat="-26.8375116" lon="152.9585073">
<ele>62.079</ele>
<time>2017-05-17T05:15:26.556Z</time>
</trkpt>
<trkpt lat="-26.8379208" lon="152.9585292">
<ele>61.364</ele>
<time>2017-05-17T05:15:28.568Z</time>
</trkpt>
<trkpt lat="-26.8383248" lon="152.9585332">
<ele>60.884</ele>
<time>2017-05-17T05:15:30.550Z</time>
</trkpt>
<trkpt lat="-26.8387419" lon="152.9585538">
<ele>60.609</ele>
<time>2017-05-17T05:15:32.590Z</time>
</trkpt>
<trkpt lat="-26.8393543" lon="152.9585491">
<ele>60.450</ele>
<time>2017-05-17T05:15:35.573Z</time>
</trkpt>
<trkpt lat="-26.8397636" lon="152.9585529">
<ele>60.347</ele>
<time>2017-05-17T05:15:37.564Z</time>
</trkpt>
<trkpt lat="-26.8403714" lon="152.9585569">
<ele>60.233</ele>
<time>2017-05-17T05:15:40.527Z</time>
</trkpt>
<trkpt lat="-26.8407865" lon="152.9585740">
<ele>60.022</ele>
<time>2017-05-17T05:15:42.564Z</time>
</trkpt>
<trkpt lat="-26.8413886" lon="152.9585592">
<ele>59.721</ele>
<time>2017-05-17T05:15:45.517Z</time>
</trkpt>
<trkpt lat="-26.8419899" lon="152.9585736">
<ele>59.427</ele>
<time>2017-05-17T05:15:48.448Z</time>
</trkpt>
<trkpt lat="-26.8426092" lon="152.9585896">
<ele>59.205</ele>
<time>2017-05-17T05:15:51.463Z</time>
</trkpt>
<trkpt lat="-26.8430158" lon="152.9585419">
<ele>59.044</ele>
<time>2017-05-17T05:15:53.476Z</time>
</trkpt>
<trkpt lat="-26.8436280" lon="152.9585036">
<ele>58.920</ele>
<time>2017-05-17T05:15:56.507Z</time>
</trkpt>
<trkpt lat="-26.8442286" lon="152.9584195">
<ele>58.780</ele>
<time>2017-05-17T05:15:59.507Z</time>
</trkpt>
<trkpt lat="-26.8448116" lon="152.9583307">
<ele>58.510</ele>
<time>2017-05-17T05:16:02.438Z</time>
</trkpt>
<trkpt lat="-26.8452036" lon="152.9582979">
<ele>58.030</ele>
<time>2017-05-17T05:16:04.402Z</time>
</trkpt>
<trkpt lat="-26.8456039" lon="152.9582509">
<ele>57.423</ele>
<time>2017-05-17T05:16:06.400Z</time>
</trkpt>
<trkpt lat="-26.8460103" lon="152.9582080">
<ele>56.829</ele>
<time>2017-05-17T05:16:08.410Z</time>
</trkpt>
<trkpt lat="-26.8466161" lon="152.9581113">
<ele>56.258</ele>
<time>2017-05-17T05:16:11.422Z</time>
</trkpt>
<trkpt lat="-26.8470176" lon="152.9580635">
<ele>55.698</ele>
<time>2017-05-17T05:16:13.418Z</time>
</trkpt>
<trkpt lat="-26.8474172" lon="152.9580166">
<ele>55.226</ele>
<time>2017-05-17T05:16:15.408Z</time>
</trkpt>
<trkpt lat="-26.8480240" lon="152.9579602">
<ele>54.917</ele>
<time>2017-05-17T05:16:18.417Z</time>
</trkpt>
<trkpt lat="-26.8484285" lon="152.9579705">
<ele>54.785</ele>
<time>2017-05-17T05:16:20.406Z</time>
</trkpt>
<trkpt lat="-26.8490488" lon="152.9580361">
<ele>54.836</ele>
<time>2017-05-17T05:16:23.469Z</time>
</trkpt>
<trkpt lat="-26.8496548" lon="152.9581452">
<ele>55.073</ele>
<time>2017-05-17T05:16:26.492Z</time>
</trkpt>
<trkpt lat="-26.8500521" lon="152.9582642">
<ele>55.388</ele>
<time>2017-05-17T05:16:28.508Z</time>
</trkpt>
<trkpt lat="-26.8504676" lon="152.9583764">
<ele>55.574</ele>
<time>2017-05-17T05:16:30.599Z</time>
</trkpt>
<trkpt lat="-26.8510400" lon="152.9585845">
<ele>55.499</ele>
<time>2017-05-17T05:16:33.550Z</time>
</trkpt>
<trkpt lat="-26.8514507" lon="152.9587456">
<ele>55.145</ele>
<time>2017-05-17T05:16:35.683Z</time>
</trkpt>
<trkpt lat="-26.8518223" lon="152.9589147">
<ele>54.623</ele>
<time>2017-05-17T05:16:37.652Z</time>
</trkpt>
<trkpt lat="-26.8523844" lon="152.9591361">
<ele>54.143</ele>
<time>2017-05-17T05:16:40.585Z</time>
</trkpt>
<trkpt lat="-26.8529568" lon="152.9593763">
<ele>53.817</ele>
<time>2017-05-17T05:16:43.590Z</time>
</trkpt>
<trkpt lat="-26.8533424" lon="152.9595240">
<ele>53.571</ele>
<time>2017-05-17T05:16:45.584Z</time>
</trkpt>
<trkpt lat="-26.8537319" lon="152.9596689">
<ele>53.342</ele>
<time>2017-05-17T05:16:47.599Z</time>
</trkpt>
<trkpt lat="-26.8541090" lon="152.9598102">
<ele>53.180</ele>
<time>2017-05-17T05:16:49.560Z</time>
</trkpt>
<trkpt lat="-26.8546902" lon="152.9600024">
<ele>53.152</ele>
<time>2017-05-17T05:16:52.547Z</time>
</trkpt>
<trkpt lat="-26.8552529" lon="152.9602604">
<ele>53.277</ele>
<time>2017-05-17T05:16:55.532Z</time>
</trkpt>
<trkpt lat="-26.8556324" lon="152.9604162">
<ele>53.485</ele>
<time>2017-05-17T05:16:57.518Z</time>
</trkpt>
<trkpt lat="-26.8561991" lon="152.9606437">
<ele>53.700</ele>
<time>2017-05-17T05:17:00.482Z</time>
</trkpt>
<trkpt lat="-26.8565786" lon="152.9607892">
<ele>53.892</ele>
<time>2017-05-17T05:17:02.450Z</time>
</trkpt>
<trkpt lat="-26.8569822" lon="152.9609212">
<ele>54.001</ele>
<time>2017-05-17T05:17:04.504Z</time>
</trkpt>
<trkpt lat="-26.8573660" lon="152.9610780">
<ele>53.987</ele>
<time>2017-05-17T05:17:06.507Z</time>
</trkpt>
<trkpt lat="-26.8579351" lon="152.9612916">
<ele>53.906</ele>
<time>2017-05-17T05:17:09.454Z</time>
</trkpt>
<trkpt lat="-26.8585269" lon="152.9615630">
<ele>53.872</ele>
<time>2017-05-17T05:17:12.595Z</time>
</trkpt>
<trkpt lat="-26.8588799" lon="152.9616937">
<ele>53.944</ele>
<time>2017-05-17T05:17:14.420Z</time>
</trkpt>
<trkpt lat="-26.8592699" lon="152.9618204">
<ele>54.087</ele>
<time>2017-05-17T05:17:16.409Z</time>
</trkpt>
<trkpt lat="-26.8598627" lon="152.9620012">
<ele>54.260</ele>
<time>2017-05-17T05:17:19.422Z</time>
</trkpt>
<trkpt lat="-26.8604623" lon="152.9621054">
<ele>54.479</ele>
<time>2017-05-17T05:17:22.409Z</time>
</trkpt>
<trkpt lat="-26.8610622" lon="152.9622346">
<ele>54.809</ele>
<time>2017-05-17T05:17:25.441Z</time>
</trkpt>
<trkpt lat="-26.8616563" lon="152.9622667">
<ele>55.270</ele>
<time>2017-05-17T05:17:28.519Z</time>
</trkpt>
<trkpt lat="-26.8621696" lon="152.9622921">
<ele>55.715</ele>
<time>2017-05-17T05:17:31.431Z</time>
</trkpt>
<trkpt lat="-26.8624664" lon="152.9622892">
<ele>55.830</ele>
<time>2017-05-17T05:17:33.370Z</time>
</trkpt>
<trkpt lat="-26.8628645" lon="152.9622751">
<ele>55.388</ele>
<time>2017-05-17T05:17:36.269Z</time>
</trkpt>
<trkpt lat="-26.8630812" lon="152.9622660">
<ele>54.415</ele>
<time>2017-05-17T05:17:38.386Z</time>
</trkpt>
<trkpt lat="-26.8632873" lon="152.9622461">
<ele>53.102</ele>
<time>2017-05-17T05:17:41.118Z</time>
</trkpt>
<trkpt lat="-26.8633834" lon="152.9622804">
<ele>51.599</ele>
<time>2017-05-17T05:17:42.998Z</time>
</trkpt>
<trkpt lat="-26.8633834" lon="152.9622804">
<ele>50.202</ele>
<time>2017-05-17T05:17:45.998Z</time>
</trkpt>
<trkpt lat="-26.8633834" lon="152.9622804">
<ele>49.445</ele>
<time>2017-05-17T05:18:15.189Z</time>
</trkpt>
<trkpt lat="-26.8635374" lon="152.9622563">
<ele>49.487</ele>
<time>2017-05-17T05:18:20.357Z</time>
</trkpt>
<trkpt lat="-26.8636617" lon="152.9620713">
<ele>49.426</ele>
<time>2017-05-17T05:18:23.380Z</time>
</trkpt>
<trkpt lat="-26.8636618" lon="152.9618478">
<ele>48.584</ele>
<time>2017-05-17T05:18:25.408Z</time>
</trkpt>
<trkpt lat="-26.8636267" lon="152.9615806">
<ele>47.563</ele>
<time>2017-05-17T05:18:27.434Z</time>
</trkpt>
<trkpt lat="-26.8635467" lon="152.9611584">
<ele>47.076</ele>
<time>2017-05-17T05:18:30.334Z</time>
</trkpt>
<trkpt lat="-26.8633965" lon="152.9606728">
<ele>47.067</ele>
<time>2017-05-17T05:18:33.427Z</time>
</trkpt>
<trkpt lat="-26.8632244" lon="152.9601792">
<ele>47.335</ele>
<time>2017-05-17T05:18:36.456Z</time>
</trkpt>
<trkpt lat="-26.8631105" lon="152.9598620">
<ele>47.831</ele>
<time>2017-05-17T05:18:38.414Z</time>
</trkpt>
<trkpt lat="-26.8629976" lon="152.9595470">
<ele>48.547</ele>
<time>2017-05-17T05:18:40.379Z</time>
</trkpt>
<trkpt lat="-26.8628103" lon="152.9590847">
<ele>49.374</ele>
<time>2017-05-17T05:18:43.324Z</time>
</trkpt>
<trkpt lat="-26.8626979" lon="152.9587625">
<ele>50.269</ele>
<time>2017-05-17T05:18:45.313Z</time>
</trkpt>
<trkpt lat="-26.8625812" lon="152.9584462">
<ele>51.297</ele>
<time>2017-05-17T05:18:47.289Z</time>
</trkpt>
<trkpt lat="-26.8624594" lon="152.9581366">
<ele>52.357</ele>
<time>2017-05-17T05:18:49.275Z</time>
</trkpt>
<trkpt lat="-26.8622951" lon="152.9576736">
<ele>53.199</ele>
<time>2017-05-17T05:18:52.242Z</time>
</trkpt>
<trkpt lat="-26.8621674" lon="152.9573777">
<ele>53.681</ele>
<time>2017-05-17T05:18:54.252Z</time>
</trkpt>
<trkpt lat="-26.8620614" lon="152.9570911">
<ele>53.746</ele>
<time>2017-05-17T05:18:56.252Z</time>
</trkpt>
<trkpt lat="-26.8619805" lon="152.9568513">
<ele>53.329</ele>
<time>2017-05-17T05:18:58.134Z</time>
</trkpt>
<trkpt lat="-26.8619318" lon="152.9566539">
<ele>52.412</ele>
<time>2017-05-17T05:18:59.920Z</time>
</trkpt>
<trkpt lat="-26.8619482" lon="152.9563918">
<ele>51.124</ele>
<time>2017-05-17T05:19:02.433Z</time>
</trkpt>
<trkpt lat="-26.8617803" lon="152.9561085">
<ele>49.614</ele>
<time>2017-05-17T05:19:05.427Z</time>
</trkpt>
<trkpt lat="-26.8615975" lon="152.9558443">
<ele>48.129</ele>
<time>2017-05-17T05:19:07.614Z</time>
</trkpt>
<trkpt lat="-26.8613337" lon="152.9553395">
<ele>47.082</ele>
<time>2017-05-17T05:19:10.838Z</time>
</trkpt>
<trkpt lat="-26.8610153" lon="152.9549523">
<ele>46.694</ele>
<time>2017-05-17T05:19:13.720Z</time>
</trkpt>
<trkpt lat="-26.8607920" lon="152.9547436">
<ele>46.775</ele>
<time>2017-05-17T05:19:15.602Z</time>
</trkpt>
<trkpt lat="-26.8604932" lon="152.9546092">
<ele>47.010</ele>
<time>2017-05-17T05:19:17.642Z</time>
</trkpt>
<trkpt lat="-26.8600347" lon="152.9544215">
<ele>47.203</ele>
<time>2017-05-17T05:19:20.635Z</time>
</trkpt>
<trkpt lat="-26.8595530" lon="152.9543246">
<ele>47.392</ele>
<time>2017-05-17T05:19:23.635Z</time>
</trkpt>
<trkpt lat="-26.8592376" lon="152.9543511">
<ele>47.657</ele>
<time>2017-05-17T05:19:25.652Z</time>
</trkpt>
<trkpt lat="-26.8588270" lon="152.9543684">
<ele>47.924</ele>
<time>2017-05-17T05:19:28.460Z</time>
</trkpt>
<trkpt lat="-26.8584862" lon="152.9543580">
<ele>47.985</ele>
<time>2017-05-17T05:19:31.107Z</time>
</trkpt>
<trkpt lat="-26.8581764" lon="152.9543437">
<ele>47.634</ele>
<time>2017-05-17T05:19:33.903Z</time>
</trkpt>
<trkpt lat="-26.8579240" lon="152.9542589">
<ele>46.850</ele>
<time>2017-05-17T05:19:36.556Z</time>
</trkpt>
<trkpt lat="-26.8578431" lon="152.9541498">
<ele>45.837</ele>
<time>2017-05-17T05:19:38.022Z</time>
</trkpt>
<trkpt lat="-26.8578357" lon="152.9539990">
<ele>44.848</ele>
<time>2017-05-17T05:19:39.824Z</time>
</trkpt>
<trkpt lat="-26.8578847" lon="152.9537997">
<ele>44.111</ele>
<time>2017-05-17T05:19:42.389Z</time>
</trkpt>
<trkpt lat="-26.8579759" lon="152.9534605">
<ele>43.791</ele>
<time>2017-05-17T05:19:45.859Z</time>
</trkpt>
<trkpt lat="-26.8579985" lon="152.9530630">
<ele>43.926</ele>
<time>2017-05-17T05:19:49.064Z</time>
</trkpt>
<trkpt lat="-26.8579614" lon="152.9527839">
<ele>44.511</ele>
<time>2017-05-17T05:19:51.141Z</time>
</trkpt>
<trkpt lat="-26.8579520" lon="152.9523475">
<ele>45.475</ele>
<time>2017-05-17T05:19:54.238Z</time>
</trkpt>
<trkpt lat="-26.8579883" lon="152.9520635">
<ele>46.683</ele>
<time>2017-05-17T05:19:56.242Z</time>
</trkpt>
<trkpt lat="-26.8580174" lon="152.9517942">
<ele>47.976</ele>
<time>2017-05-17T05:19:58.171Z</time>
</trkpt>
<trkpt lat="-26.8580519" lon="152.9513779">
<ele>49.204</ele>
<time>2017-05-17T05:20:01.166Z</time>
</trkpt>
<trkpt lat="-26.8581218" lon="152.9509705">
<ele>50.421</ele>
<time>2017-05-17T05:20:04.121Z</time>
</trkpt>
<trkpt lat="-26.8581514" lon="152.9507076">
<ele>51.773</ele>
<time>2017-05-17T05:20:06.043Z</time>
</trkpt>
<trkpt lat="-26.8581953" lon="152.9504483">
<ele>53.068</ele>
<time>2017-05-17T05:20:07.996Z</time>
</trkpt>
<trkpt lat="-26.8582773" lon="152.9500720">
<ele>53.931</ele>
<time>2017-05-17T05:20:10.922Z</time>
</trkpt>
<trkpt lat="-26.8583571" lon="152.9498323">
<ele>54.244</ele>
<time>2017-05-17T05:20:12.894Z</time>
</trkpt>
<trkpt lat="-26.8584311" lon="152.9494468">
<ele>54.200</ele>
<time>2017-05-17T05:20:15.887Z</time>
</trkpt>
<trkpt lat="-26.8584344" lon="152.9490176">
<ele>54.087</ele>
<time>2017-05-17T05:20:18.958Z</time>
</trkpt>
<trkpt lat="-26.8583412" lon="152.9485850">
<ele>54.060</ele>
<time>2017-05-17T05:20:22.024Z</time>
</trkpt>
<trkpt lat="-26.8583588" lon="152.9481606">
<ele>54.085</ele>
<time>2017-05-17T05:20:24.973Z</time>
</trkpt>
<trkpt lat="-26.8583251" lon="152.9478843">
<ele>54.001</ele>
<time>2017-05-17T05:20:26.928Z</time>
</trkpt>
<trkpt lat="-26.8583146" lon="152.9474511">
<ele>53.712</ele>
<time>2017-05-17T05:20:29.954Z</time>
</trkpt>
<trkpt lat="-26.8583456" lon="152.9470287">
<ele>53.320</ele>
<time>2017-05-17T05:20:32.903Z</time>
</trkpt>
<trkpt lat="-26.8584100" lon="152.9467510">
<ele>52.982</ele>
<time>2017-05-17T05:20:34.903Z</time>
</trkpt>
<trkpt lat="-26.8584871" lon="152.9464745">
<ele>52.754</ele>
<time>2017-05-17T05:20:36.901Z</time>
</trkpt>
<trkpt lat="-26.8586151" lon="152.9460852">
<ele>52.627</ele>
<time>2017-05-17T05:20:39.770Z</time>
</trkpt>
<trkpt lat="-26.8587091" lon="152.9458162">
<ele>52.495</ele>
<time>2017-05-17T05:20:41.815Z</time>
</trkpt>
<trkpt lat="-26.8588348" lon="152.9455940">
<ele>52.235</ele>
<time>2017-05-17T05:20:43.715Z</time>
</trkpt>
<trkpt lat="-26.8589981" lon="152.9451568">
<ele>51.842</ele>
<time>2017-05-17T05:20:46.955Z</time>
</trkpt>
<trkpt lat="-26.8591065" lon="152.9446815">
<ele>51.315</ele>
<time>2017-05-17T05:20:50.054Z</time>
</trkpt>
<trkpt lat="-26.8591521" lon="152.9443646">
<ele>50.559</ele>
<time>2017-05-17T05:20:52.038Z</time>
</trkpt>
<trkpt lat="-26.8591605" lon="152.9440304">
<ele>49.592</ele>
<time>2017-05-17T05:20:54.131Z</time>
</trkpt>
<trkpt lat="-26.8591390" lon="152.9437449">
<ele>48.636</ele>
<time>2017-05-17T05:20:55.995Z</time>
</trkpt>
<trkpt lat="-26.8591568" lon="152.9434901">
<ele>47.918</ele>
<time>2017-05-17T05:20:57.787Z</time>
</trkpt>
<trkpt lat="-26.8591352" lon="152.9431445">
<ele>47.529</ele>
<time>2017-05-17T05:21:00.491Z</time>
</trkpt>
<trkpt lat="-26.8590945" lon="152.9429336">
<ele>47.476</ele>
<time>2017-05-17T05:21:02.309Z</time>
</trkpt>
<trkpt lat="-26.8590545" lon="152.9426001">
<ele>47.704</ele>
<time>2017-05-17T05:21:05.275Z</time>
</trkpt>
<trkpt lat="-26.8590387" lon="152.9423730">
<ele>48.081</ele>
<time>2017-05-17T05:21:07.276Z</time>
</trkpt>
<trkpt lat="-26.8589792" lon="152.9420395">
<ele>48.427</ele>
<time>2017-05-17T05:21:10.250Z</time>
</trkpt>
<trkpt lat="-26.8589019" lon="152.9417218">
<ele>48.589</ele>
<time>2017-05-17T05:21:13.179Z</time>
</trkpt>
<trkpt lat="-26.8588331" lon="152.9415217">
<ele>48.546</ele>
<time>2017-05-17T05:21:15.129Z</time>
</trkpt>
<trkpt lat="-26.8587427" lon="152.9413446">
<ele>48.426</ele>
<time>2017-05-17T05:21:17.029Z</time>
</trkpt>
<trkpt lat="-26.8585728" lon="152.9411378">
<ele>48.329</ele>
<time>2017-05-17T05:21:19.771Z</time>
</trkpt>
<trkpt lat="-26.8585023" lon="152.9409845">
<ele>48.267</ele>
<time>2017-05-17T05:21:21.543Z</time>
</trkpt>
<trkpt lat="-26.8583719" lon="152.9407957">
<ele>48.239</ele>
<time>2017-05-17T05:21:24.286Z</time>
</trkpt>
<trkpt lat="-26.8582076" lon="152.9406264">
<ele>48.261</ele>
<time>2017-05-17T05:21:27.312Z</time>
</trkpt>
<trkpt lat="-26.8580665" lon="152.9404620">
<ele>48.375</ele>
<time>2017-05-17T05:21:30.119Z</time>
</trkpt>
<trkpt lat="-26.8578998" lon="152.9403152">
<ele>48.587</ele>
<time>2017-05-17T05:21:33.124Z</time>
</trkpt>
<trkpt lat="-26.8577772" lon="152.9402156">
<ele>48.808</ele>
<time>2017-05-17T05:21:35.313Z</time>
</trkpt>
<trkpt lat="-26.8575944" lon="152.9400121">
<ele>48.944</ele>
<time>2017-05-17T05:21:38.816Z</time>
</trkpt>
<trkpt lat="-26.8573778" lon="152.9398398">
<ele>48.918</ele>
<time>2017-05-17T05:21:42.058Z</time>
</trkpt>
<trkpt lat="-26.8572409" lon="152.9397235">
<ele>48.606</ele>
<time>2017-05-17T05:21:44.059Z</time>
</trkpt>
<trkpt lat="-26.8571121" lon="152.9396083">
<ele>47.979</ele>
<time>2017-05-17T05:21:46.000Z</time>
</trkpt>
<trkpt lat="-26.8569945" lon="152.9395028">
<ele>47.201</ele>
<time>2017-05-17T05:21:47.851Z</time>
</trkpt>
<trkpt lat="-26.8567939" lon="152.9392993">
<ele>46.461</ele>
<time>2017-05-17T05:21:51.159Z</time>
</trkpt>
<trkpt lat="-26.8566503" lon="152.9391641">
<ele>45.831</ele>
<time>2017-05-17T05:21:53.307Z</time>
</trkpt>
<trkpt lat="-26.8564996" lon="152.9390218">
<ele>45.336</ele>
<time>2017-05-17T05:21:55.462Z</time>
</trkpt>
<trkpt lat="-26.8563633" lon="152.9388832">
<ele>45.026</ele>
<time>2017-05-17T05:21:57.447Z</time>
</trkpt>
<trkpt lat="-26.8561746" lon="152.9386555">
<ele>44.901</ele>
<time>2017-05-17T05:22:00.453Z</time>
</trkpt>
<trkpt lat="-26.8559788" lon="152.9384235">
<ele>44.895</ele>
<time>2017-05-17T05:22:03.489Z</time>
</trkpt>
<trkpt lat="-26.8558628" lon="152.9382385">
<ele>44.974</ele>
<time>2017-05-17T05:22:05.565Z</time>
</trkpt>
<trkpt lat="-26.8557547" lon="152.9380597">
<ele>45.136</ele>
<time>2017-05-17T05:22:07.530Z</time>
</trkpt>
<trkpt lat="-26.8556324" lon="152.9379075">
<ele>45.342</ele>
<time>2017-05-17T05:22:09.446Z</time>
</trkpt>
<trkpt lat="-26.8555005" lon="152.9377522">
<ele>45.512</ele>
<time>2017-05-17T05:22:11.491Z</time>
</trkpt>
<trkpt lat="-26.8553535" lon="152.9375059">
<ele>45.623</ele>
<time>2017-05-17T05:22:14.374Z</time>
</trkpt>
<trkpt lat="-26.8552625" lon="152.9373284">
<ele>45.741</ele>
<time>2017-05-17T05:22:16.403Z</time>
</trkpt>
<trkpt lat="-26.8551388" lon="152.9370346">
<ele>45.928</ele>
<time>2017-05-17T05:22:19.567Z</time>
</trkpt>
<trkpt lat="-26.8550722" lon="152.9367900">
<ele>46.193</ele>
<time>2017-05-17T05:22:21.900Z</time>
</trkpt>
<trkpt lat="-26.8549842" lon="152.9363937">
<ele>46.522</ele>
<time>2017-05-17T05:22:25.152Z</time>
</trkpt>
<trkpt lat="-26.8549477" lon="152.9360947">
<ele>46.884</ele>
<time>2017-05-17T05:22:27.291Z</time>
</trkpt>
<trkpt lat="-26.8548585" lon="152.9356557">
<ele>47.228</ele>
<time>2017-05-17T05:22:30.323Z</time>
</trkpt>
<trkpt lat="-26.8547800" lon="152.9352515">
<ele>47.541</ele>
<time>2017-05-17T05:22:33.170Z</time>
</trkpt>
<trkpt lat="-26.8547283" lon="152.9349845">
<ele>47.810</ele>
<time>2017-05-17T05:22:35.136Z</time>
</trkpt>
<trkpt lat="-26.8546391" lon="152.9345915">
<ele>48.006</ele>
<time>2017-05-17T05:22:38.079Z</time>
</trkpt>
<trkpt lat="-26.8545734" lon="152.9343381">
<ele>48.236</ele>
<time>2017-05-17T05:22:40.023Z</time>
</trkpt>
<trkpt lat="-26.8544938" lon="152.9339068">
<ele>48.665</ele>
<time>2017-05-17T05:22:43.144Z</time>
</trkpt>
<trkpt lat="-26.8544551" lon="152.9335995">
<ele>49.330</ele>
<time>2017-05-17T05:22:45.201Z</time>
</trkpt>
<trkpt lat="-26.8543306" lon="152.9331329">
<ele>50.126</ele>
<time>2017-05-17T05:22:48.255Z</time>
</trkpt>
<trkpt lat="-26.8542621" lon="152.9327960">
<ele>50.952</ele>
<time>2017-05-17T05:22:50.303Z</time>
</trkpt>
<trkpt lat="-26.8541969" lon="152.9324549">
<ele>51.782</ele>
<time>2017-05-17T05:22:52.318Z</time>
</trkpt>
<trkpt lat="-26.8541172" lon="152.9319512">
<ele>52.587</ele>
<time>2017-05-17T05:22:55.261Z</time>
</trkpt>
<trkpt lat="-26.8540895" lon="152.9316055">
<ele>53.269</ele>
<time>2017-05-17T05:22:57.244Z</time>
</trkpt>
<trkpt lat="-26.8540748" lon="152.9312485">
<ele>53.773</ele>
<time>2017-05-17T05:22:59.248Z</time>
</trkpt>
<trkpt lat="-26.8540608" lon="152.9308816">
<ele>54.105</ele>
<time>2017-05-17T05:23:01.260Z</time>
</trkpt>
<trkpt lat="-26.8540207" lon="152.9303136">
<ele>54.329</ele>
<time>2017-05-17T05:23:04.305Z</time>
</trkpt>
<trkpt lat="-26.8540383" lon="152.9299362">
<ele>54.515</ele>
<time>2017-05-17T05:23:06.289Z</time>
</trkpt>
<trkpt lat="-26.8540934" lon="152.9295613">
<ele>54.692</ele>
<time>2017-05-17T05:23:08.264Z</time>
</trkpt>
<trkpt lat="-26.8541492" lon="152.9291734">
<ele>54.861</ele>
<time>2017-05-17T05:23:10.285Z</time>
</trkpt>
<trkpt lat="-26.8540977" lon="152.9285845">
<ele>55.026</ele>
<time>2017-05-17T05:23:13.293Z</time>
</trkpt>
<trkpt lat="-26.8540957" lon="152.9280028">
<ele>55.217</ele>
<time>2017-05-17T05:23:16.244Z</time>
</trkpt>
<trkpt lat="-26.8541098" lon="152.9276278">
<ele>55.459</ele>
<time>2017-05-17T05:23:18.182Z</time>
</trkpt>
<trkpt lat="-26.8541039" lon="152.9270818">
<ele>55.706</ele>
<time>2017-05-17T05:23:21.073Z</time>
</trkpt>
<trkpt lat="-26.8540010" lon="152.9265698">
<ele>55.931</ele>
<time>2017-05-17T05:23:23.963Z</time>
</trkpt>
<trkpt lat="-26.8539231" lon="152.9262318">
<ele>56.195</ele>
<time>2017-05-17T05:23:25.945Z</time>
</trkpt>
<trkpt lat="-26.8538794" lon="152.9259186">
<ele>56.500</ele>
<time>2017-05-17T05:23:27.818Z</time>
</trkpt>
<trkpt lat="-26.8538106" lon="152.9254663">
<ele>56.763</ele>
<time>2017-05-17T05:23:30.692Z</time>
</trkpt>
<trkpt lat="-26.8537530" lon="152.9251607">
<ele>57.023</ele>
<time>2017-05-17T05:23:32.699Z</time>
</trkpt>
<trkpt lat="-26.8536156" lon="152.9247134">
<ele>57.391</ele>
<time>2017-05-17T05:23:35.717Z</time>
</trkpt>
<trkpt lat="-26.8535022" lon="152.9242336">
<ele>57.968</ele>
<time>2017-05-17T05:23:38.775Z</time>
</trkpt>
<trkpt lat="-26.8533763" lon="152.9237533">
<ele>58.879</ele>
<time>2017-05-17T05:23:41.761Z</time>
</trkpt>
<trkpt lat="-26.8532349" lon="152.9234578">
<ele>60.238</ele>
<time>2017-05-17T05:23:43.739Z</time>
</trkpt>
<trkpt lat="-26.8531095" lon="152.9229834">
<ele>61.895</ele>
<time>2017-05-17T05:23:46.646Z</time>
</trkpt>
<trkpt lat="-26.8528891" lon="152.9225205">
<ele>63.516</ele>
<time>2017-05-17T05:23:49.666Z</time>
</trkpt>
<trkpt lat="-26.8527013" lon="152.9222184">
<ele>64.880</ele>
<time>2017-05-17T05:23:51.699Z</time>
</trkpt>
<trkpt lat="-26.8523585" lon="152.9217806">
<ele>65.909</ele>
<time>2017-05-17T05:23:54.753Z</time>
</trkpt>
<trkpt lat="-26.8520019" lon="152.9213218">
<ele>66.613</ele>
<time>2017-05-17T05:23:57.800Z</time>
</trkpt>
<trkpt lat="-26.8517881" lon="152.9210019">
<ele>67.093</ele>
<time>2017-05-17T05:23:59.770Z</time>
</trkpt>
<trkpt lat="-26.8514845" lon="152.9207598">
<ele>67.380</ele>
<time>2017-05-17T05:24:01.816Z</time>
</trkpt>
<trkpt lat="-26.8509707" lon="152.9204797">
<ele>67.484</ele>
<time>2017-05-17T05:24:04.903Z</time>
</trkpt>
<trkpt lat="-26.8505244" lon="152.9203463">
<ele>67.460</ele>
<time>2017-05-17T05:24:07.331Z</time>
</trkpt>
<trkpt lat="-26.8499490" lon="152.9202957">
<ele>67.358</ele>
<time>2017-05-17T05:24:10.293Z</time>
</trkpt>
<trkpt lat="-26.8495576" lon="152.9202405">
<ele>67.179</ele>
<time>2017-05-17T05:24:12.285Z</time>
</trkpt>
<trkpt lat="-26.8489408" lon="152.9201490">
<ele>66.900</ele>
<time>2017-05-17T05:24:15.334Z</time>
</trkpt>
<trkpt lat="-26.8485390" lon="152.9200119">
<ele>66.491</ele>
<time>2017-05-17T05:24:17.375Z</time>
</trkpt>
<trkpt lat="-26.8480136" lon="152.9197892">
<ele>66.017</ele>
<time>2017-05-17T05:24:20.181Z</time>
</trkpt>
<trkpt lat="-26.8476996" lon="152.9195584">
<ele>65.659</ele>
<time>2017-05-17T05:24:22.112Z</time>
</trkpt>
<trkpt lat="-26.8471921" lon="152.9192312">
<ele>65.544</ele>
<time>2017-05-17T05:24:25.113Z</time>
</trkpt>
<trkpt lat="-26.8468778" lon="152.9189859">
<ele>65.738</ele>
<time>2017-05-17T05:24:27.062Z</time>
</trkpt>
<trkpt lat="-26.8465689" lon="152.9187591">
<ele>66.239</ele>
<time>2017-05-17T05:24:28.968Z</time>
</trkpt>
<trkpt lat="-26.8462629" lon="152.9185297">
<ele>66.953</ele>
<time>2017-05-17T05:24:30.920Z</time>
</trkpt>
<trkpt lat="-26.8458214" lon="152.9181704">
<ele>67.760</ele>
<time>2017-05-17T05:24:33.869Z</time>
</trkpt>
<trkpt lat="-26.8455335" lon="152.9176123">
<ele>68.525</ele>
<time>2017-05-17T05:24:36.906Z</time>
</trkpt>
<trkpt lat="-26.8453432" lon="152.9172476">
<ele>69.081</ele>
<time>2017-05-17T05:24:38.851Z</time>
</trkpt>
<trkpt lat="-26.8451243" lon="152.9166404">
<ele>69.360</ele>
<time>2017-05-17T05:24:41.866Z</time>
</trkpt>
<trkpt lat="-26.8449666" lon="152.9160083">
<ele>69.431</ele>
<time>2017-05-17T05:24:44.849Z</time>
</trkpt>
<trkpt lat="-26.8447916" lon="152.9153949">
<ele>69.493</ele>
<time>2017-05-17T05:24:47.804Z</time>
</trkpt>
<trkpt lat="-26.8445557" lon="152.9148598">
<ele>69.725</ele>
<time>2017-05-17T05:24:50.656Z</time>
</trkpt>
<trkpt lat="-26.8442913" lon="152.9146348">
<ele>70.237</ele>
<time>2017-05-17T05:24:52.519Z</time>
</trkpt>
<trkpt lat="-26.8438297" lon="152.9144076">
<ele>71.051</ele>
<time>2017-05-17T05:24:55.466Z</time>
</trkpt>
<trkpt lat="-26.8433953" lon="152.9141185">
<ele>72.061</ele>
<time>2017-05-17T05:24:58.444Z</time>
</trkpt>
<trkpt lat="-26.8431415" lon="152.9138522">
<ele>73.031</ele>
<time>2017-05-17T05:25:00.480Z</time>
</trkpt>
<trkpt lat="-26.8429318" lon="152.9134855">
<ele>73.790</ele>
<time>2017-05-17T05:25:02.700Z</time>
</trkpt>
<trkpt lat="-26.8428018" lon="152.9131040">
<ele>74.370</ele>
<time>2017-05-17T05:25:04.716Z</time>
</trkpt>
<trkpt lat="-26.8426770" lon="152.9124579">
<ele>74.941</ele>
<time>2017-05-17T05:25:07.887Z</time>
</trkpt>
<trkpt lat="-26.8426704" lon="152.9118066">
<ele>75.642</ele>
<time>2017-05-17T05:25:10.933Z</time>
</trkpt>
<trkpt lat="-26.8425666" lon="152.9112478">
<ele>76.490</ele>
<time>2017-05-17T05:25:13.716Z</time>
</trkpt>
<trkpt lat="-26.8423629" lon="152.9107756">
<ele>77.454</ele>
<time>2017-05-17T05:25:16.491Z</time>
</trkpt>
<trkpt lat="-26.8421023" lon="152.9103460">
<ele>78.522</ele>
<time>2017-05-17T05:25:19.386Z</time>
</trkpt>
<trkpt lat="-26.8418315" lon="152.9099543">
<ele>79.585</ele>
<time>2017-05-17T05:25:22.247Z</time>
</trkpt>
<trkpt lat="-26.8415637" lon="152.9096189">
<ele>80.441</ele>
<time>2017-05-17T05:25:25.006Z</time>
</trkpt>
<trkpt lat="-26.8413763" lon="152.9092907">
<ele>80.992</ele>
<time>2017-05-17T05:25:27.597Z</time>
</trkpt>
<trkpt lat="-26.8412667" lon="152.9090193">
<ele>81.322</ele>
<time>2017-05-17T05:25:29.675Z</time>
</trkpt>
<trkpt lat="-26.8411062" lon="152.9084963">
<ele>81.651</ele>
<time>2017-05-17T05:25:33.214Z</time>
</trkpt>
<trkpt lat="-26.8410461" lon="152.9081292">
<ele>82.338</ele>
<time>2017-05-17T05:25:35.308Z</time>
</trkpt>
<trkpt lat="-26.8410287" lon="152.9077799">
<ele>83.432</ele>
<time>2017-05-17T05:25:37.208Z</time>
</trkpt>
<trkpt lat="-26.8411657" lon="152.9073266">
<ele>84.427</ele>
<time>2017-05-17T05:25:39.978Z</time>
</trkpt>
<trkpt lat="-26.8415263" lon="152.9069122">
<ele>84.919</ele>
<time>2017-05-17T05:25:43.470Z</time>
</trkpt>
<trkpt lat="-26.8417767" lon="152.9067208">
<ele>85.134</ele>
<time>2017-05-17T05:25:45.507Z</time>
</trkpt>
<trkpt lat="-26.8419709" lon="152.9064737">
<ele>85.534</ele>
<time>2017-05-17T05:25:47.481Z</time>
</trkpt>
<trkpt lat="-26.8420932" lon="152.9059868">
<ele>86.366</ele>
<time>2017-05-17T05:25:50.506Z</time>
</trkpt>
<trkpt lat="-26.8422371" lon="152.9057074">
<ele>87.641</ele>
<time>2017-05-17T05:25:52.428Z</time>
</trkpt>
<trkpt lat="-26.8423346" lon="152.9052587">
<ele>89.230</ele>
<time>2017-05-17T05:25:55.283Z</time>
</trkpt>
<trkpt lat="-26.8424271" lon="152.9048562">
<ele>90.966</ele>
<time>2017-05-17T05:25:58.044Z</time>
</trkpt>
<trkpt lat="-26.8426184" lon="152.9046564">
<ele>92.716</ele>
<time>2017-05-17T05:26:00.109Z</time>
</trkpt>
<trkpt lat="-26.8428552" lon="152.9045046">
<ele>94.315</ele>
<time>2017-05-17T05:26:02.353Z</time>
</trkpt>
<trkpt lat="-26.8429443" lon="152.9042253">
<ele>95.643</ele>
<time>2017-05-17T05:26:04.647Z</time>
</trkpt>
<trkpt lat="-26.8429242" lon="152.9039636">
<ele>96.815</ele>
<time>2017-05-17T05:26:06.738Z</time>
</trkpt>
<trkpt lat="-26.8429782" lon="152.9035391">
<ele>98.002</ele>
<time>2017-05-17T05:26:10.006Z</time>
</trkpt>
<trkpt lat="-26.8431589" lon="152.9030891">
<ele>99.401</ele>
<time>2017-05-17T05:26:13.414Z</time>
</trkpt>
<trkpt lat="-26.8433890" lon="152.9027015">
<ele>101.361</ele>
<time>2017-05-17T05:26:16.514Z</time>
</trkpt>
<trkpt lat="-26.8435235" lon="152.9023422">
<ele>104.093</ele>
<time>2017-05-17T05:26:19.205Z</time>
</trkpt>
<trkpt lat="-26.8434847" lon="152.9019352">
<ele>107.247</ele>
<time>2017-05-17T05:26:22.091Z</time>
</trkpt>
<trkpt lat="-26.8433779" lon="152.9015682">
<ele>110.212</ele>
<time>2017-05-17T05:26:24.933Z</time>
</trkpt>
<trkpt lat="-26.8434741" lon="152.9013585">
<ele>112.596</ele>
<time>2017-05-17T05:26:26.758Z</time>
</trkpt>
<trkpt lat="-26.8435133" lon="152.9011447">
<ele>114.300</ele>
<time>2017-05-17T05:26:28.546Z</time>
</trkpt>
<trkpt lat="-26.8435084" lon="152.9009102">
<ele>115.477</ele>
<time>2017-05-17T05:26:30.541Z</time>
</trkpt>
<trkpt lat="-26.8433531" lon="152.9005935">
<ele>116.446</ele>
<time>2017-05-17T05:26:33.683Z</time>
</trkpt>
<trkpt lat="-26.8432421" lon="152.9004359">
<ele>117.473</ele>
<time>2017-05-17T05:26:35.437Z</time>
</trkpt>
<trkpt lat="-26.8429039" lon="152.9003120">
<ele>118.615</ele>
<time>2017-05-17T05:26:38.896Z</time>
</trkpt>
<trkpt lat="-26.8425453" lon="152.9004711">
<ele>119.885</ele>
<time>2017-05-17T05:26:42.365Z</time>
</trkpt>
<trkpt lat="-26.8422899" lon="152.9004197">
<ele>121.282</ele>
<time>2017-05-17T05:26:44.556Z</time>
</trkpt>
<trkpt lat="-26.8419063" lon="152.9002592">
<ele>122.618</ele>
<time>2017-05-17T05:26:47.941Z</time>
</trkpt>
<trkpt lat="-26.8416868" lon="152.9000103">
<ele>123.706</ele>
<time>2017-05-17T05:26:50.692Z</time>
</trkpt>
<trkpt lat="-26.8417069" lon="152.8997087">
<ele>124.568</ele>
<time>2017-05-17T05:26:53.049Z</time>
</trkpt>
<trkpt lat="-26.8416836" lon="152.8993318">
<ele>125.278</ele>
<time>2017-05-17T05:26:55.928Z</time>
</trkpt>
<trkpt lat="-26.8416623" lon="152.8990683">
<ele>125.929</ele>
<time>2017-05-17T05:26:58.053Z</time>
</trkpt>
<trkpt lat="-26.8418023" lon="152.8987299">
<ele>126.561</ele>
<time>2017-05-17T05:27:01.160Z</time>
</trkpt>
<trkpt lat="-26.8416601" lon="152.8983558">
<ele>127.161</ele>
<time>2017-05-17T05:27:04.397Z</time>
</trkpt>
<trkpt lat="-26.8413478" lon="152.8980902">
<ele>127.868</ele>
<time>2017-05-17T05:27:07.650Z</time>
</trkpt>
<trkpt lat="-26.8412754" lon="152.8976237">
<ele>128.811</ele>
<time>2017-05-17T05:27:11.066Z</time>
</trkpt>
<trkpt lat="-26.8413403" lon="152.8973555">
<ele>129.938</ele>
<time>2017-05-17T05:27:12.981Z</time>
</trkpt>
<trkpt lat="-26.8414257" lon="152.8970958">
<ele>131.128</ele>
<time>2017-05-17T05:27:14.880Z</time>
</trkpt>
<trkpt lat="-26.8415325" lon="152.8968289">
<ele>132.240</ele>
<time>2017-05-17T05:27:17.029Z</time>
</trkpt>
<trkpt lat="-26.8417194" lon="152.8966238">
<ele>133.166</ele>
<time>2017-05-17T05:27:19.242Z</time>
</trkpt>
<trkpt lat="-26.8421344" lon="152.8964474">
<ele>133.934</ele>
<time>2017-05-17T05:27:22.809Z</time>
</trkpt>
<trkpt lat="-26.8424038" lon="152.8961489">
<ele>134.765</ele>
<time>2017-05-17T05:27:25.906Z</time>
</trkpt>
<trkpt lat="-26.8425313" lon="152.8959777">
<ele>135.918</ele>
<time>2017-05-17T05:27:27.770Z</time>
</trkpt>
<trkpt lat="-26.8426099" lon="152.8956391">
<ele>137.307</ele>
<time>2017-05-17T05:27:30.686Z</time>
</trkpt>
<trkpt lat="-26.8425155" lon="152.8954107">
<ele>138.722</ele>
<time>2017-05-17T05:27:32.720Z</time>
</trkpt>
<trkpt lat="-26.8423991" lon="152.8951923">
<ele>140.060</ele>
<time>2017-05-17T05:27:34.855Z</time>
</trkpt>
<trkpt lat="-26.8423726" lon="152.8948251">
<ele>141.174</ele>
<time>2017-05-17T05:27:38.070Z</time>
</trkpt>
<trkpt lat="-26.8425035" lon="152.8945970">
<ele>142.095</ele>
<time>2017-05-17T05:27:40.342Z</time>
</trkpt>
<trkpt lat="-26.8428882" lon="152.8944489">
<ele>143.089</ele>
<time>2017-05-17T05:27:43.970Z</time>
</trkpt>
<trkpt lat="-26.8429982" lon="152.8941400">
<ele>144.309</ele>
<time>2017-05-17T05:27:46.599Z</time>
</trkpt>
<trkpt lat="-26.8431684" lon="152.8937978">
<ele>145.800</ele>
<time>2017-05-17T05:27:49.626Z</time>
</trkpt>
<trkpt lat="-26.8434033" lon="152.8937297">
<ele>147.528</ele>
<time>2017-05-17T05:27:51.700Z</time>
</trkpt>
<trkpt lat="-26.8438585" lon="152.8936852">
<ele>149.321</ele>
<time>2017-05-17T05:27:55.547Z</time>
</trkpt>
<trkpt lat="-26.8440546" lon="152.8935300">
<ele>151.046</ele>
<time>2017-05-17T05:27:57.522Z</time>
</trkpt>
<trkpt lat="-26.8442167" lon="152.8931627">
<ele>152.632</ele>
<time>2017-05-17T05:28:00.574Z</time>
</trkpt>
<trkpt lat="-26.8443196" lon="152.8929144">
<ele>154.064</ele>
<time>2017-05-17T05:28:02.677Z</time>
</trkpt>
<trkpt lat="-26.8443171" lon="152.8925311">
<ele>155.394</ele>
<time>2017-05-17T05:28:05.711Z</time>
</trkpt>
<trkpt lat="-26.8443748" lon="152.8921885">
<ele>156.732</ele>
<time>2017-05-17T05:28:08.496Z</time>
</trkpt>
<trkpt lat="-26.8444999" lon="152.8918362">
<ele>158.202</ele>
<time>2017-05-17T05:28:11.447Z</time>
</trkpt>
<trkpt lat="-26.8445763" lon="152.8914479">
<ele>159.818</ele>
<time>2017-05-17T05:28:14.433Z</time>
</trkpt>
<trkpt lat="-26.8446374" lon="152.8911582">
<ele>161.447</ele>
<time>2017-05-17T05:28:16.646Z</time>
</trkpt>
<trkpt lat="-26.8446022" lon="152.8907495">
<ele>162.920</ele>
<time>2017-05-17T05:28:19.659Z</time>
</trkpt>
<trkpt lat="-26.8445254" lon="152.8904845">
<ele>164.172</ele>
<time>2017-05-17T05:28:21.688Z</time>
</trkpt>
<trkpt lat="-26.8444994" lon="152.8902051">
<ele>165.262</ele>
<time>2017-05-17T05:28:23.702Z</time>
</trkpt>
<trkpt lat="-26.8445351" lon="152.8897847">
<ele>166.221</ele>
<time>2017-05-17T05:28:26.643Z</time>
</trkpt>
<trkpt lat="-26.8447050" lon="152.8893828">
<ele>167.077</ele>
<time>2017-05-17T05:28:29.764Z</time>
</trkpt>
<trkpt lat="-26.8448809" lon="152.8890088">
<ele>167.844</ele>
<time>2017-05-17T05:28:33.148Z</time>
</trkpt>
<trkpt lat="-26.8449279" lon="152.8887637">
<ele>168.389</ele>
<time>2017-05-17T05:28:35.420Z</time>
</trkpt>
<trkpt lat="-26.8449817" lon="152.8884488">
<ele>168.539</ele>
<time>2017-05-17T05:28:38.047Z</time>
</trkpt>
<trkpt lat="-26.8449911" lon="152.8882288">
<ele>168.316</ele>
<time>2017-05-17T05:28:39.630Z</time>
</trkpt>
<trkpt lat="-26.8450390" lon="152.8877861">
<ele>167.981</ele>
<time>2017-05-17T05:28:42.426Z</time>
</trkpt>
<trkpt lat="-26.8451691" lon="152.8873112">
<ele>168.089</ele>
<time>2017-05-17T05:28:45.313Z</time>
</trkpt>
<trkpt lat="-26.8453035" lon="152.8870054">
<ele>169.113</ele>
<time>2017-05-17T05:28:47.244Z</time>
</trkpt>
<trkpt lat="-26.8455111" lon="152.8865118">
<ele>170.699</ele>
<time>2017-05-17T05:28:50.311Z</time>
</trkpt>
<trkpt lat="-26.8456298" lon="152.8861963">
<ele>171.997</ele>
<time>2017-05-17T05:28:52.263Z</time>
</trkpt>
<trkpt lat="-26.8457078" lon="152.8856887">
<ele>172.686</ele>
<time>2017-05-17T05:28:55.298Z</time>
</trkpt>
<trkpt lat="-26.8456978" lon="152.8852076">
<ele>173.024</ele>
<time>2017-05-17T05:28:58.225Z</time>
</trkpt>
<trkpt lat="-26.8456566" lon="152.8848893">
<ele>173.442</ele>
<time>2017-05-17T05:29:00.202Z</time>
</trkpt>
<trkpt lat="-26.8455195" lon="152.8844316">
<ele>174.165</ele>
<time>2017-05-17T05:29:03.217Z</time>
</trkpt>
<trkpt lat="-26.8452753" lon="152.8840412">
<ele>175.155</ele>
<time>2017-05-17T05:29:06.235Z</time>
</trkpt>
<trkpt lat="-26.8451185" lon="152.8837805">
<ele>176.343</ele>
<time>2017-05-17T05:29:08.272Z</time>
</trkpt>
<trkpt lat="-26.8448050" lon="152.8834824">
<ele>177.537</ele>
<time>2017-05-17T05:29:11.592Z</time>
</trkpt>
<trkpt lat="-26.8445863" lon="152.8831824">
<ele>178.389</ele>
<time>2017-05-17T05:29:14.787Z</time>
</trkpt>
<trkpt lat="-26.8444299" lon="152.8830303">
<ele>178.592</ele>
<time>2017-05-17T05:29:16.734Z</time>
</trkpt>
<trkpt lat="-26.8442454" lon="152.8827538">
<ele>178.068</ele>
<time>2017-05-17T05:29:19.617Z</time>
</trkpt>
<trkpt lat="-26.8440849" lon="152.8825592">
<ele>177.070</ele>
<time>2017-05-17T05:29:21.979Z</time>
</trkpt>
<trkpt lat="-26.8438759" lon="152.8822958">
<ele>176.013</ele>
<time>2017-05-17T05:29:27.082Z</time>
</trkpt>
<trkpt lat="-26.8437716" lon="152.8821969">
<ele>175.047</ele>
<time>2017-05-17T05:29:30.369Z</time>
</trkpt>
<trkpt lat="-26.8436437" lon="152.8822368">
<ele>174.029</ele>
<time>2017-05-17T05:29:32.612Z</time>
</trkpt>
<trkpt lat="-26.8437020" lon="152.8824529">
<ele>172.741</ele>
<time>2017-05-17T05:29:35.405Z</time>
</trkpt>
<trkpt lat="-26.8438119" lon="152.8825793">
<ele>171.272</ele>
<time>2017-05-17T05:29:37.521Z</time>
</trkpt>
<trkpt lat="-26.8438899" lon="152.8827028">
<ele>170.096</ele>
<time>2017-05-17T05:29:39.483Z</time>
</trkpt>
<trkpt lat="-26.8440543" lon="152.8829149">
<ele>169.591</ele>
<time>2017-05-17T05:29:45.295Z</time>
</trkpt>
<trkpt lat="-26.8441717" lon="152.8830622">
<ele>169.698</ele>
<time>2017-05-17T05:29:50.054Z</time>
</trkpt>
<trkpt lat="-26.8442547" lon="152.8831229">
<ele>170.164</ele>
<time>2017-05-17T05:29:51.910Z</time>
</trkpt>
<trkpt lat="-26.8443507" lon="152.8830870">
<ele>170.704</ele>
<time>2017-05-17T05:29:53.365Z</time>
</trkpt>
<trkpt lat="-26.8444767" lon="152.8831072">
<ele>171.143</ele>
<time>2017-05-17T05:29:55.009Z</time>
</trkpt>
<trkpt lat="-26.8446112" lon="152.8832380">
<ele>171.533</ele>
<time>2017-05-17T05:29:57.749Z</time>
</trkpt>
<trkpt lat="-26.8447456" lon="152.8834620">
<ele>172.079</ele>
<time>2017-05-17T05:30:02.364Z</time>
</trkpt>
<trkpt lat="-26.8448238" lon="152.8835449">
<ele>172.886</ele>
<time>2017-05-17T05:30:04.000Z</time>
</trkpt>
<trkpt lat="-26.8449149" lon="152.8835651">
<ele>173.756</ele>
<time>2017-05-17T05:30:04.881Z</time>
</trkpt>
<trkpt lat="-26.8451002" lon="152.8833366">
<ele>174.387</ele>
<time>2017-05-17T05:30:07.202Z</time>
</trkpt>
<trkpt lat="-26.8453398" lon="152.8831469">
<ele>174.908</ele>
<time>2017-05-17T05:30:09.397Z</time>
</trkpt>
<trkpt lat="-26.8456915" lon="152.8828385">
<ele>175.747</ele>
<time>2017-05-17T05:30:12.437Z</time>
</trkpt>
<trkpt lat="-26.8459129" lon="152.8826156">
<ele>177.063</ele>
<time>2017-05-17T05:30:14.413Z</time>
</trkpt>
<trkpt lat="-26.8461682" lon="152.8821950">
<ele>178.603</ele>
<time>2017-05-17T05:30:17.200Z</time>
</trkpt>
<trkpt lat="-26.8462608" lon="152.8818495">
<ele>179.959</ele>
<time>2017-05-17T05:30:19.070Z</time>
</trkpt>
<trkpt lat="-26.8463401" lon="152.8812608">
<ele>180.838</ele>
<time>2017-05-17T05:30:21.861Z</time>
</trkpt>
<trkpt lat="-26.8463691" lon="152.8808252">
<ele>181.277</ele>
<time>2017-05-17T05:30:23.824Z</time>
</trkpt>
<trkpt lat="-26.8463765" lon="152.8803663">
<ele>181.515</ele>
<time>2017-05-17T05:30:25.862Z</time>
</trkpt>
<trkpt lat="-26.8464742" lon="152.8797137">
<ele>181.701</ele>
<time>2017-05-17T05:30:28.804Z</time>
</trkpt>
<trkpt lat="-26.8465260" lon="152.8792765">
<ele>181.774</ele>
<time>2017-05-17T05:30:30.776Z</time>
</trkpt>
<trkpt lat="-26.8465943" lon="152.8788432">
<ele>181.689</ele>
<time>2017-05-17T05:30:32.751Z</time>
</trkpt>
<trkpt lat="-26.8466570" lon="152.8784226">
<ele>181.500</ele>
<time>2017-05-17T05:30:34.654Z</time>
</trkpt>
<trkpt lat="-26.8466684" lon="152.8777480">
<ele>181.291</ele>
<time>2017-05-17T05:30:37.580Z</time>
</trkpt>
<trkpt lat="-26.8466258" lon="152.8772859">
<ele>181.131</ele>
<time>2017-05-17T05:30:39.623Z</time>
</trkpt>
<trkpt lat="-26.8465606" lon="152.8768597">
<ele>181.065</ele>
<time>2017-05-17T05:30:41.572Z</time>
</trkpt>
<trkpt lat="-26.8464794" lon="152.8762206">
<ele>181.083</ele>
<time>2017-05-17T05:30:44.504Z</time>
</trkpt>
<trkpt lat="-26.8464049" lon="152.8757950">
<ele>181.153</ele>
<time>2017-05-17T05:30:46.453Z</time>
</trkpt>
<trkpt lat="-26.8463640" lon="152.8753448">
<ele>181.238</ele>
<time>2017-05-17T05:30:48.450Z</time>
</trkpt>
<trkpt lat="-26.8462336" lon="152.8749255">
<ele>181.141</ele>
<time>2017-05-17T05:30:50.370Z</time>
</trkpt>
<trkpt lat="-26.8459231" lon="152.8743212">
<ele>180.570</ele>
<time>2017-05-17T05:30:53.352Z</time>
</trkpt>
<trkpt lat="-26.8457054" lon="152.8739389">
<ele>179.553</ele>
<time>2017-05-17T05:30:55.293Z</time>
</trkpt>
<trkpt lat="-26.8453738" lon="152.8733444">
<ele>178.536</ele>
<time>2017-05-17T05:30:58.343Z</time>
</trkpt>
<trkpt lat="-26.8450613" lon="152.8727725">
<ele>177.915</ele>
<time>2017-05-17T05:31:01.347Z</time>
</trkpt>
<trkpt lat="-26.8448340" lon="152.8724035">
<ele>177.640</ele>
<time>2017-05-17T05:31:03.385Z</time>
</trkpt>
<trkpt lat="-26.8446181" lon="152.8720422">
<ele>177.368</ele>
<time>2017-05-17T05:31:05.388Z</time>
</trkpt>
<trkpt lat="-26.8444454" lon="152.8716675">
<ele>176.846</ele>
<time>2017-05-17T05:31:07.382Z</time>
</trkpt>
<trkpt lat="-26.8442771" lon="152.8710934">
<ele>176.002</ele>
<time>2017-05-17T05:31:10.235Z</time>
</trkpt>
<trkpt lat="-26.8442954" lon="152.8706664">
<ele>174.745</ele>
<time>2017-05-17T05:31:12.208Z</time>
</trkpt>
<trkpt lat="-26.8443234" lon="152.8700151">
<ele>173.187</ele>
<time>2017-05-17T05:31:15.200Z</time>
</trkpt>
<trkpt lat="-26.8443086" lon="152.8695765">
<ele>171.630</ele>
<time>2017-05-17T05:31:17.199Z</time>
</trkpt>
<trkpt lat="-26.8443567" lon="152.8691443">
<ele>170.182</ele>
<time>2017-05-17T05:31:19.186Z</time>
</trkpt>
<trkpt lat="-26.8444338" lon="152.8685078">
<ele>168.814</ele>
<time>2017-05-17T05:31:22.121Z</time>
</trkpt>
<trkpt lat="-26.8444824" lon="152.8680810">
<ele>167.531</ele>
<time>2017-05-17T05:31:24.079Z</time>
</trkpt>
<trkpt lat="-26.8446774" lon="152.8674481">
<ele>166.352</ele>
<time>2017-05-17T05:31:27.129Z</time>
</trkpt>
<trkpt lat="-26.8448522" lon="152.8670573">
<ele>165.370</ele>
<time>2017-05-17T05:31:29.145Z</time>
</trkpt>
<trkpt lat="-26.8450552" lon="152.8664569">
<ele>164.525</ele>
<time>2017-05-17T05:31:32.107Z</time>
</trkpt>
<trkpt lat="-26.8453183" lon="152.8658814">
<ele>163.554</ele>
<time>2017-05-17T05:31:35.086Z</time>
</trkpt>
<trkpt lat="-26.8454738" lon="152.8654864">
<ele>162.309</ele>
<time>2017-05-17T05:31:37.102Z</time>
</trkpt>
<trkpt lat="-26.8456957" lon="152.8649141">
<ele>161.007</ele>
<time>2017-05-17T05:31:40.073Z</time>
</trkpt>
<trkpt lat="-26.8458909" lon="152.8645731">
<ele>159.980</ele>
<time>2017-05-17T05:31:42.027Z</time>
</trkpt>
<trkpt lat="-26.8462762" lon="152.8641203">
<ele>159.331</ele>
<time>2017-05-17T05:31:45.056Z</time>
</trkpt>
<trkpt lat="-26.8465653" lon="152.8638833">
<ele>159.015</ele>
<time>2017-05-17T05:31:47.066Z</time>
</trkpt>
<trkpt lat="-26.8468558" lon="152.8636836">
<ele>158.774</ele>
<time>2017-05-17T05:31:49.083Z</time>
</trkpt>
<trkpt lat="-26.8471042" lon="152.8634685">
<ele>158.160</ele>
<time>2017-05-17T05:31:51.012Z</time>
</trkpt>
<trkpt lat="-26.8473425" lon="152.8630023">
<ele>157.017</ele>
<time>2017-05-17T05:31:54.158Z</time>
</trkpt>
<trkpt lat="-26.8475403" lon="152.8626106">
<ele>155.770</ele>
<time>2017-05-17T05:31:57.242Z</time>
</trkpt>
<trkpt lat="-26.8477413" lon="152.8624938">
<ele>154.977</ele>
<time>2017-05-17T05:31:58.970Z</time>
</trkpt>
<trkpt lat="-26.8482045" lon="152.8625272">
<ele>154.793</ele>
<time>2017-05-17T05:32:02.143Z</time>
</trkpt>
<trkpt lat="-26.8486801" lon="152.8626330">
<ele>155.052</ele>
<time>2017-05-17T05:32:05.318Z</time>
</trkpt>
<trkpt lat="-26.8489713" lon="152.8626576">
<ele>155.497</ele>
<time>2017-05-17T05:32:07.290Z</time>
</trkpt>
<trkpt lat="-26.8492426" lon="152.8624799">
<ele>155.697</ele>
<time>2017-05-17T05:32:09.386Z</time>
</trkpt>
<trkpt lat="-26.8495755" lon="152.8621198">
<ele>155.301</ele>
<time>2017-05-17T05:32:12.626Z</time>
</trkpt>
<trkpt lat="-26.8497341" lon="152.8617326">
<ele>154.359</ele>
<time>2017-05-17T05:32:15.392Z</time>
</trkpt>
<trkpt lat="-26.8497116" lon="152.8614016">
<ele>153.318</ele>
<time>2017-05-17T05:32:17.349Z</time>
</trkpt>
<trkpt lat="-26.8496323" lon="152.8608643">
<ele>152.710</ele>
<time>2017-05-17T05:32:20.312Z</time>
</trkpt>
<trkpt lat="-26.8495542" lon="152.8605000">
<ele>152.960</ele>
<time>2017-05-17T05:32:22.267Z</time>
</trkpt>
<trkpt lat="-26.8494485" lon="152.8599435">
<ele>154.167</ele>
<time>2017-05-17T05:32:25.234Z</time>
</trkpt>
<trkpt lat="-26.8493556" lon="152.8593896">
<ele>156.080</ele>
<time>2017-05-17T05:32:28.175Z</time>
</trkpt>
<trkpt lat="-26.8492400" lon="152.8590288">
<ele>158.300</ele>
<time>2017-05-17T05:32:30.137Z</time>
</trkpt>
<trkpt lat="-26.8491586" lon="152.8584377">
<ele>160.234</ele>
<time>2017-05-17T05:32:33.132Z</time>
</trkpt>
<trkpt lat="-26.8492420" lon="152.8580484">
<ele>161.033</ele>
<time>2017-05-17T05:32:35.240Z</time>
</trkpt>
<trkpt lat="-26.8493772" lon="152.8575566">
<ele>160.353</ele>
<time>2017-05-17T05:32:38.332Z</time>
</trkpt>
<trkpt lat="-26.8493608" lon="152.8572815">
<ele>158.558</ele>
<time>2017-05-17T05:32:40.191Z</time>
</trkpt>
<trkpt lat="-26.8491665" lon="152.8568797">
<ele>156.285</ele>
<time>2017-05-17T05:32:43.141Z</time>
</trkpt>
<trkpt lat="-26.8489803" lon="152.8566374">
<ele>154.327</ele>
<time>2017-05-17T05:32:45.005Z</time>
</trkpt>
<trkpt lat="-26.8486078" lon="152.8562514">
<ele>153.400</ele>
<time>2017-05-17T05:32:48.212Z</time>
</trkpt>
<trkpt lat="-26.8483646" lon="152.8560297">
<ele>153.851</ele>
<time>2017-05-17T05:32:50.166Z</time>
</trkpt>
<trkpt lat="-26.8480228" lon="152.8556470">
<ele>155.464</ele>
<time>2017-05-17T05:32:53.236Z</time>
</trkpt>
<trkpt lat="-26.8477013" lon="152.8552658">
<ele>157.273</ele>
<time>2017-05-17T05:32:56.285Z</time>
</trkpt>
<trkpt lat="-26.8475477" lon="152.8549678">
<ele>158.327</ele>
<time>2017-05-17T05:32:58.175Z</time>
</trkpt>
<trkpt lat="-26.8474839" lon="152.8545809">
<ele>158.540</ele>
<time>2017-05-17T05:33:00.156Z</time>
</trkpt>
<trkpt lat="-26.8474294" lon="152.8539839">
<ele>158.353</ele>
<time>2017-05-17T05:33:03.083Z</time>
</trkpt>
<trkpt lat="-26.8474234" lon="152.8535765">
<ele>158.161</ele>
<time>2017-05-17T05:33:05.010Z</time>
</trkpt>
<trkpt lat="-26.8475486" lon="152.8529518">
<ele>158.102</ele>
<time>2017-05-17T05:33:08.003Z</time>
</trkpt>
<trkpt lat="-26.8476952" lon="152.8525583">
<ele>158.129</ele>
<time>2017-05-17T05:33:09.946Z</time>
</trkpt>
<trkpt lat="-26.8479794" lon="152.8519476">
<ele>158.162</ele>
<time>2017-05-17T05:33:13.058Z</time>
</trkpt>
<trkpt lat="-26.8481761" lon="152.8515599">
<ele>158.171</ele>
<time>2017-05-17T05:33:15.064Z</time>
</trkpt>
<trkpt lat="-26.8483522" lon="152.8511588">
<ele>158.112</ele>
<time>2017-05-17T05:33:17.081Z</time>
</trkpt>
<trkpt lat="-26.8486284" lon="152.8505777">
<ele>157.921</ele>
<time>2017-05-17T05:33:20.075Z</time>
</trkpt>
<trkpt lat="-26.8488047" lon="152.8501954">
<ele>157.600</ele>
<time>2017-05-17T05:33:22.052Z</time>
</trkpt>
<trkpt lat="-26.8490348" lon="152.8496004">
<ele>157.252</ele>
<time>2017-05-17T05:33:25.020Z</time>
</trkpt>
<trkpt lat="-26.8491443" lon="152.8491885">
<ele>157.006</ele>
<time>2017-05-17T05:33:26.974Z</time>
</trkpt>
<trkpt lat="-26.8493419" lon="152.8485796">
<ele>156.942</ele>
<time>2017-05-17T05:33:29.929Z</time>
</trkpt>
<trkpt lat="-26.8494821" lon="152.8479622">
<ele>157.070</ele>
<time>2017-05-17T05:33:32.846Z</time>
</trkpt>
<trkpt lat="-26.8495646" lon="152.8475397">
<ele>157.317</ele>
<time>2017-05-17T05:33:34.822Z</time>
</trkpt>
<trkpt lat="-26.8496608" lon="152.8471220">
<ele>157.540</ele>
<time>2017-05-17T05:33:36.804Z</time>
</trkpt>
<trkpt lat="-26.8497474" lon="152.8467152">
<ele>157.694</ele>
<time>2017-05-17T05:33:38.733Z</time>
</trkpt>
<trkpt lat="-26.8498465" lon="152.8460670">
<ele>157.818</ele>
<time>2017-05-17T05:33:41.764Z</time>
</trkpt>
<trkpt lat="-26.8499328" lon="152.8456498">
<ele>157.831</ele>
<time>2017-05-17T05:33:43.792Z</time>
</trkpt>
<trkpt lat="-26.8500686" lon="152.8450603">
<ele>157.630</ele>
<time>2017-05-17T05:33:46.698Z</time>
</trkpt>
<trkpt lat="-26.8503925" lon="152.8445323">
<ele>157.308</ele>
<time>2017-05-17T05:33:49.715Z</time>
</trkpt>
<trkpt lat="-26.8507171" lon="152.8439971">
<ele>157.051</ele>
<time>2017-05-17T05:33:52.713Z</time>
</trkpt>
<trkpt lat="-26.8509390" lon="152.8436551">
<ele>157.087</ele>
<time>2017-05-17T05:33:54.660Z</time>
</trkpt>
<trkpt lat="-26.8513191" lon="152.8431723">
<ele>157.673</ele>
<time>2017-05-17T05:33:57.654Z</time>
</trkpt>
<trkpt lat="-26.8516669" lon="152.8426958">
<ele>158.995</ele>
<time>2017-05-17T05:34:00.702Z</time>
</trkpt>
<trkpt lat="-26.8519623" lon="152.8422992">
<ele>161.071</ele>
<time>2017-05-17T05:34:03.631Z</time>
</trkpt>
<trkpt lat="-26.8521414" lon="152.8421030">
<ele>163.714</ele>
<time>2017-05-17T05:34:05.504Z</time>
</trkpt>
<trkpt lat="-26.8522748" lon="152.8418487">
<ele>166.495</ele>
<time>2017-05-17T05:34:07.397Z</time>
</trkpt>
<trkpt lat="-26.8524587" lon="152.8415601">
<ele>168.903</ele>
<time>2017-05-17T05:34:09.365Z</time>
</trkpt>
<trkpt lat="-26.8528838" lon="152.8411713">
<ele>170.510</ele>
<time>2017-05-17T05:34:12.435Z</time>
</trkpt>
<trkpt lat="-26.8533857" lon="152.8408563">
<ele>170.988</ele>
<time>2017-05-17T05:34:15.417Z</time>
</trkpt>
<trkpt lat="-26.8537107" lon="152.8406253">
<ele>170.063</ele>
<time>2017-05-17T05:34:17.377Z</time>
</trkpt>
<trkpt lat="-26.8540163" lon="152.8404016">
<ele>167.906</ele>
<time>2017-05-17T05:34:19.253Z</time>
</trkpt>
<trkpt lat="-26.8542817" lon="152.8401666">
<ele>165.158</ele>
<time>2017-05-17T05:34:21.025Z</time>
</trkpt>
<trkpt lat="-26.8545658" lon="152.8399396">
<ele>162.354</ele>
<time>2017-05-17T05:34:22.932Z</time>
</trkpt>
<trkpt lat="-26.8549086" lon="152.8395375">
<ele>159.625</ele>
<time>2017-05-17T05:34:25.737Z</time>
</trkpt>
<trkpt lat="-26.8550816" lon="152.8389740">
<ele>156.873</ele>
<time>2017-05-17T05:34:28.668Z</time>
</trkpt>
<trkpt lat="-26.8552298" lon="152.8383209">
<ele>154.324</ele>
<time>2017-05-17T05:34:31.726Z</time>
</trkpt>
<trkpt lat="-26.8553829" lon="152.8376496">
<ele>152.556</ele>
<time>2017-05-17T05:34:34.747Z</time>
</trkpt>
<trkpt lat="-26.8554536" lon="152.8371865">
<ele>151.661</ele>
<time>2017-05-17T05:34:36.763Z</time>
</trkpt>
<trkpt lat="-26.8554830" lon="152.8367174">
<ele>151.220</ele>
<time>2017-05-17T05:34:38.766Z</time>
</trkpt>
<trkpt lat="-26.8555237" lon="152.8360268">
<ele>150.980</ele>
<time>2017-05-17T05:34:41.715Z</time>
</trkpt>
<trkpt lat="-26.8555775" lon="152.8353363">
<ele>150.861</ele>
<time>2017-05-17T05:34:44.632Z</time>
</trkpt>
<trkpt lat="-26.8556724" lon="152.8345385">
<ele>150.881</ele>
<time>2017-05-17T05:34:47.749Z</time>
</trkpt>
<trkpt lat="-26.8558882" lon="152.8337134">
<ele>151.241</ele>
<time>2017-05-17T05:34:50.806Z</time>
</trkpt>
<trkpt lat="-26.8560539" lon="152.8331516">
<ele>152.057</ele>
<time>2017-05-17T05:34:52.877Z</time>
</trkpt>
<trkpt lat="-26.8563861" lon="152.8324242">
<ele>153.075</ele>
<time>2017-05-17T05:34:55.764Z</time>
</trkpt>
<trkpt lat="-26.8565940" lon="152.8319197">
<ele>153.960</ele>
<time>2017-05-17T05:34:57.758Z</time>
</trkpt>
<trkpt lat="-26.8568973" lon="152.8311739">
<ele>154.559</ele>
<time>2017-05-17T05:35:00.740Z</time>
</trkpt>
<trkpt lat="-26.8570867" lon="152.8306940">
<ele>154.803</ele>
<time>2017-05-17T05:35:02.684Z</time>
</trkpt>
<trkpt lat="-26.8573766" lon="152.8299776">
<ele>154.733</ele>
<time>2017-05-17T05:35:05.646Z</time>
</trkpt>
<trkpt lat="-26.8575558" lon="152.8295154">
<ele>154.426</ele>
<time>2017-05-17T05:35:07.630Z</time>
</trkpt>
<trkpt lat="-26.8577927" lon="152.8288929">
<ele>153.847</ele>
<time>2017-05-17T05:35:10.469Z</time>
</trkpt>
<trkpt lat="-26.8580283" lon="152.8283586">
<ele>152.840</ele>
<time>2017-05-17T05:35:13.216Z</time>
</trkpt>
<trkpt lat="-26.8582601" lon="152.8280514">
<ele>151.360</ele>
<time>2017-05-17T05:35:15.177Z</time>
</trkpt>
<trkpt lat="-26.8586402" lon="152.8278530">
<ele>149.850</ele>
<time>2017-05-17T05:35:17.294Z</time>
</trkpt>
<trkpt lat="-26.8592464" lon="152.8275562">
<ele>148.976</ele>
<time>2017-05-17T05:35:20.355Z</time>
</trkpt>
<trkpt lat="-26.8596331" lon="152.8273605">
<ele>149.020</ele>
<time>2017-05-17T05:35:22.299Z</time>
</trkpt>
<trkpt lat="-26.8602058" lon="152.8271292">
<ele>149.664</ele>
<time>2017-05-17T05:35:25.178Z</time>
</trkpt>
<trkpt lat="-26.8605737" lon="152.8269944">
<ele>150.227</ele>
<time>2017-05-17T05:35:27.098Z</time>
</trkpt>
<trkpt lat="-26.8610106" lon="152.8266492">
<ele>150.222</ele>
<time>2017-05-17T05:35:29.949Z</time>
</trkpt>
<trkpt lat="-26.8612455" lon="152.8260323">
<ele>149.704</ele>
<time>2017-05-17T05:35:33.128Z</time>
</trkpt>
<trkpt lat="-26.8612946" lon="152.8255613">
<ele>149.060</ele>
<time>2017-05-17T05:35:35.218Z</time>
</trkpt>
<trkpt lat="-26.8613772" lon="152.8250893">
<ele>148.674</ele>
<time>2017-05-17T05:35:37.262Z</time>
</trkpt>
<trkpt lat="-26.8614712" lon="152.8246204">
<ele>148.660</ele>
<time>2017-05-17T05:35:39.267Z</time>
</trkpt>
<trkpt lat="-26.8615512" lon="152.8241686">
<ele>148.867</ele>
<time>2017-05-17T05:35:41.212Z</time>
</trkpt>
<trkpt lat="-26.8617061" lon="152.8235715">
<ele>149.068</ele>
<time>2017-05-17T05:35:43.975Z</time>
</trkpt>
<trkpt lat="-26.8617402" lon="152.8231825">
<ele>149.003</ele>
<time>2017-05-17T05:35:45.856Z</time>
</trkpt>
<trkpt lat="-26.8616850" lon="152.8227800">
<ele>148.546</ele>
<time>2017-05-17T05:35:47.883Z</time>
</trkpt>
<trkpt lat="-26.8615059" lon="152.8222518">
<ele>147.905</ele>
<time>2017-05-17T05:35:50.795Z</time>
</trkpt>
<trkpt lat="-26.8613800" lon="152.8219551">
<ele>147.273</ele>
<time>2017-05-17T05:35:52.584Z</time>
</trkpt>
<trkpt lat="-26.8611601" lon="152.8216386">
<ele>146.515</ele>
<time>2017-05-17T05:35:55.046Z</time>
</trkpt>
<trkpt lat="-26.8609797" lon="152.8214380">
<ele>145.454</ele>
<time>2017-05-17T05:35:56.942Z</time>
</trkpt>
<trkpt lat="-26.8606702" lon="152.8210925">
<ele>144.238</ele>
<time>2017-05-17T05:36:00.208Z</time>
</trkpt>
<trkpt lat="-26.8602537" lon="152.8206796">
<ele>143.308</ele>
<time>2017-05-17T05:36:03.650Z</time>
</trkpt>
<trkpt lat="-26.8598034" lon="152.8202137">
<ele>143.195</ele>
<time>2017-05-17T05:36:06.808Z</time>
</trkpt>
<trkpt lat="-26.8593723" lon="152.8197525">
<ele>144.210</ele>
<time>2017-05-17T05:36:09.755Z</time>
</trkpt>
<trkpt lat="-26.8590821" lon="152.8194646">
<ele>146.083</ele>
<time>2017-05-17T05:36:11.701Z</time>
</trkpt>
<trkpt lat="-26.8586777" lon="152.8190257">
<ele>148.002</ele>
<time>2017-05-17T05:36:14.592Z</time>
</trkpt>
<trkpt lat="-26.8584583" lon="152.8186691">
<ele>149.430</ele>
<time>2017-05-17T05:36:16.593Z</time>
</trkpt>
<trkpt lat="-26.8581720" lon="152.8180888">
<ele>150.436</ele>
<time>2017-05-17T05:36:19.598Z</time>
</trkpt>
<trkpt lat="-26.8579247" lon="152.8175212">
<ele>151.297</ele>
<time>2017-05-17T05:36:22.481Z</time>
</trkpt>
<trkpt lat="-26.8577557" lon="152.8171598">
<ele>152.096</ele>
<time>2017-05-17T05:36:24.395Z</time>
</trkpt>
<trkpt lat="-26.8575350" lon="152.8166542">
<ele>152.702</ele>
<time>2017-05-17T05:36:27.174Z</time>
</trkpt>
<trkpt lat="-26.8573834" lon="152.8163619">
<ele>152.987</ele>
<time>2017-05-17T05:36:28.931Z</time>
</trkpt>
<trkpt lat="-26.8571926" lon="152.8159983">
<ele>152.990</ele>
<time>2017-05-17T05:36:31.392Z</time>
</trkpt>
<trkpt lat="-26.8571749" lon="152.8157310">
<ele>152.774</ele>
<time>2017-05-17T05:36:33.081Z</time>
</trkpt>
<trkpt lat="-26.8572770" lon="152.8156794">
<ele>152.294</ele>
<time>2017-05-17T05:36:34.118Z</time>
</trkpt>
<trkpt lat="-26.8573762" lon="152.8156292">
<ele>151.599</ele>
<time>2017-05-17T05:36:35.127Z</time>
</trkpt>
<trkpt lat="-26.8576484" lon="152.8156045">
<ele>150.964</ele>
<time>2017-05-17T05:36:38.831Z</time>
</trkpt>
<trkpt lat="-26.8583127" lon="152.8156229">
<ele>150.769</ele>
<time>2017-05-17T05:36:49.165Z</time>
</trkpt>
<trkpt lat="-26.8588405" lon="152.8155914">
<ele>151.643</ele>
<time>2017-05-17T05:36:53.970Z</time>
</trkpt>
<trkpt lat="-26.8593364" lon="152.8155663">
<ele>153.893</ele>
<time>2017-05-17T05:36:55.988Z</time>
</trkpt>
<trkpt lat="-26.8598167" lon="152.8155698">
<ele>156.627</ele>
<time>2017-05-17T05:36:57.952Z</time>
</trkpt>
<trkpt lat="-26.8603059" lon="152.8155814">
<ele>158.561</ele>
<time>2017-05-17T05:36:59.976Z</time>
</trkpt>
<trkpt lat="-26.8610202" lon="152.8155513">
<ele>159.336</ele>
<time>2017-05-17T05:37:02.932Z</time>
</trkpt>
<trkpt lat="-26.8617170" lon="152.8154233">
<ele>159.268</ele>
<time>2017-05-17T05:37:05.822Z</time>
</trkpt>
<trkpt lat="-26.8621836" lon="152.8153034">
<ele>158.673</ele>
<time>2017-05-17T05:37:07.769Z</time>
</trkpt>
<trkpt lat="-26.8628650" lon="152.8150285">
<ele>157.810</ele>
<time>2017-05-17T05:37:10.724Z</time>
</trkpt>
<trkpt lat="-26.8635054" lon="152.8146404">
<ele>156.887</ele>
<time>2017-05-17T05:37:13.687Z</time>
</trkpt>
<trkpt lat="-26.8638905" lon="152.8143226">
<ele>155.927</ele>
<time>2017-05-17T05:37:15.624Z</time>
</trkpt>
<trkpt lat="-26.8644757" lon="152.8138231">
<ele>154.960</ele>
<time>2017-05-17T05:37:18.615Z</time>
</trkpt>
<trkpt lat="-26.8648545" lon="152.8134742">
<ele>154.034</ele>
<time>2017-05-17T05:37:20.633Z</time>
</trkpt>
<trkpt lat="-26.8653958" lon="152.8129219">
<ele>153.163</ele>
<time>2017-05-17T05:37:23.688Z</time>
</trkpt>
<trkpt lat="-26.8659646" lon="152.8124406">
<ele>152.373</ele>
<time>2017-05-17T05:37:26.690Z</time>
</trkpt>
<trkpt lat="-26.8663232" lon="152.8120897">
<ele>151.582</ele>
<time>2017-05-17T05:37:28.705Z</time>
</trkpt>
<trkpt lat="-26.8668787" lon="152.8116038">
<ele>150.775</ele>
<time>2017-05-17T05:37:31.684Z</time>
</trkpt>
<trkpt lat="-26.8672618" lon="152.8113096">
<ele>150.125</ele>
<time>2017-05-17T05:37:33.645Z</time>
</trkpt>
<trkpt lat="-26.8676238" lon="152.8109691">
<ele>149.695</ele>
<time>2017-05-17T05:37:35.645Z</time>
</trkpt>
<trkpt lat="-26.8681346" lon="152.8104466">
<ele>149.434</ele>
<time>2017-05-17T05:37:38.575Z</time>
</trkpt>
<trkpt lat="-26.8684852" lon="152.8101125">
<ele>149.320</ele>
<time>2017-05-17T05:37:40.526Z</time>
</trkpt>
<trkpt lat="-26.8690159" lon="152.8095997">
<ele>149.339</ele>
<time>2017-05-17T05:37:43.530Z</time>
</trkpt>
<trkpt lat="-26.8693339" lon="152.8092183">
<ele>149.563</ele>
<time>2017-05-17T05:37:45.558Z</time>
</trkpt>
<trkpt lat="-26.8697725" lon="152.8086259">
<ele>150.152</ele>
<time>2017-05-17T05:37:48.586Z</time>
</trkpt>
<trkpt lat="-26.8701566" lon="152.8080076">
<ele>151.255</ele>
<time>2017-05-17T05:37:51.562Z</time>
</trkpt>
<trkpt lat="-26.8703843" lon="152.8075794">
<ele>152.899</ele>
<time>2017-05-17T05:37:53.522Z</time>
</trkpt>
<trkpt lat="-26.8705814" lon="152.8068588">
<ele>154.781</ele>
<time>2017-05-17T05:37:56.487Z</time>
</trkpt>
<trkpt lat="-26.8706946" lon="152.8063703">
<ele>156.483</ele>
<time>2017-05-17T05:37:58.477Z</time>
</trkpt>
<trkpt lat="-26.8708291" lon="152.8058927">
<ele>157.822</ele>
<time>2017-05-17T05:38:00.455Z</time>
</trkpt>
<trkpt lat="-26.8709572" lon="152.8054129">
<ele>158.748</ele>
<time>2017-05-17T05:38:02.440Z</time>
</trkpt>
<trkpt lat="-26.8711101" lon="152.8046883">
<ele>159.288</ele>
<time>2017-05-17T05:38:05.392Z</time>
</trkpt>
<trkpt lat="-26.8712950" lon="152.8039773">
<ele>159.622</ele>
<time>2017-05-17T05:38:08.329Z</time>
</trkpt>
<trkpt lat="-26.8713924" lon="152.8034862">
<ele>159.962</ele>
<time>2017-05-17T05:38:10.336Z</time>
</trkpt>
<trkpt lat="-26.8715041" lon="152.8030025">
<ele>160.358</ele>
<time>2017-05-17T05:38:12.358Z</time>
</trkpt>
<trkpt lat="-26.8717344" lon="152.8023145">
<ele>160.690</ele>
<time>2017-05-17T05:38:15.364Z</time>
</trkpt>
<trkpt lat="-26.8719107" lon="152.8018728">
<ele>160.909</ele>
<time>2017-05-17T05:38:17.332Z</time>
</trkpt>
<trkpt lat="-26.8721708" lon="152.8012195">
<ele>161.062</ele>
<time>2017-05-17T05:38:20.167Z</time>
</trkpt>
<trkpt lat="-26.8723535" lon="152.8007736">
<ele>161.154</ele>
<time>2017-05-17T05:38:22.092Z</time>
</trkpt>
<trkpt lat="-26.8726804" lon="152.8001010">
<ele>161.282</ele>
<time>2017-05-17T05:38:25.117Z</time>
</trkpt>
<trkpt lat="-26.8729509" lon="152.7994128">
<ele>161.580</ele>
<time>2017-05-17T05:38:28.045Z</time>
</trkpt>
<trkpt lat="-26.8732789" lon="152.7987575">
<ele>161.943</ele>
<time>2017-05-17T05:38:30.886Z</time>
</trkpt>
<trkpt lat="-26.8734723" lon="152.7982796">
<ele>162.085</ele>
<time>2017-05-17T05:38:32.880Z</time>
</trkpt>
<trkpt lat="-26.8737803" lon="152.7975779">
<ele>161.892</ele>
<time>2017-05-17T05:38:35.849Z</time>
</trkpt>
<trkpt lat="-26.8739937" lon="152.7971311">
<ele>161.396</ele>
<time>2017-05-17T05:38:37.759Z</time>
</trkpt>
<trkpt lat="-26.8742974" lon="152.7964168">
<ele>160.669</ele>
<time>2017-05-17T05:38:40.729Z</time>
</trkpt>
<trkpt lat="-26.8745038" lon="152.7959473">
<ele>159.783</ele>
<time>2017-05-17T05:38:42.691Z</time>
</trkpt>
<trkpt lat="-26.8748079" lon="152.7952357">
<ele>158.817</ele>
<time>2017-05-17T05:38:45.667Z</time>
</trkpt>
<trkpt lat="-26.8750301" lon="152.7947762">
<ele>157.740</ele>
<time>2017-05-17T05:38:47.668Z</time>
</trkpt>
<trkpt lat="-26.8753009" lon="152.7940403">
<ele>156.483</ele>
<time>2017-05-17T05:38:50.748Z</time>
</trkpt>
<trkpt lat="-26.8756559" lon="152.7933984">
<ele>155.000</ele>
<time>2017-05-17T05:38:53.682Z</time>
</trkpt>
<trkpt lat="-26.8758886" lon="152.7929697">
<ele>153.302</ele>
<time>2017-05-17T05:38:55.617Z</time>
</trkpt>
<trkpt lat="-26.8761157" lon="152.7925239">
<ele>151.619</ele>
<time>2017-05-17T05:38:57.605Z</time>
</trkpt>
<trkpt lat="-26.8763408" lon="152.7920701">
<ele>150.380</ele>
<time>2017-05-17T05:38:59.639Z</time>
</trkpt>
<trkpt lat="-26.8765527" lon="152.7916277">
<ele>149.735</ele>
<time>2017-05-17T05:39:01.631Z</time>
</trkpt>
<trkpt lat="-26.8768252" lon="152.7909527">
<ele>149.458</ele>
<time>2017-05-17T05:39:04.566Z</time>
</trkpt>
<trkpt lat="-26.8770571" lon="152.7905327">
<ele>149.251</ele>
<time>2017-05-17T05:39:06.509Z</time>
</trkpt>
<trkpt lat="-26.8774176" lon="152.7898919">
<ele>149.011</ele>
<time>2017-05-17T05:39:09.460Z</time>
</trkpt>
<trkpt lat="-26.8778464" lon="152.7893124">
<ele>148.813</ele>
<time>2017-05-17T05:39:12.363Z</time>
</trkpt>
<trkpt lat="-26.8783431" lon="152.7887713">
<ele>148.737</ele>
<time>2017-05-17T05:39:15.368Z</time>
</trkpt>
<trkpt lat="-26.8788709" lon="152.7882919">
<ele>148.859</ele>
<time>2017-05-17T05:39:18.391Z</time>
</trkpt>
<trkpt lat="-26.8792494" lon="152.7880266">
<ele>149.233</ele>
<time>2017-05-17T05:39:20.422Z</time>
</trkpt>
<trkpt lat="-26.8798343" lon="152.7876911">
<ele>149.726</ele>
<time>2017-05-17T05:39:23.448Z</time>
</trkpt>
<trkpt lat="-26.8804196" lon="152.7874033">
<ele>150.108</ele>
<time>2017-05-17T05:39:26.410Z</time>
</trkpt>
<trkpt lat="-26.8810290" lon="152.7871641">
<ele>150.315</ele>
<time>2017-05-17T05:39:29.411Z</time>
</trkpt>
<trkpt lat="-26.8816476" lon="152.7870220">
<ele>150.445</ele>
<time>2017-05-17T05:39:32.343Z</time>
</trkpt>
<trkpt lat="-26.8822799" lon="152.7869379">
<ele>150.554</ele>
<time>2017-05-17T05:39:35.226Z</time>
</trkpt>
<trkpt lat="-26.8829284" lon="152.7869094">
<ele>150.577</ele>
<time>2017-05-17T05:39:38.005Z</time>
</trkpt>
<trkpt lat="-26.8836428" lon="152.7869738">
<ele>150.439</ele>
<time>2017-05-17T05:39:40.905Z</time>
</trkpt>
<trkpt lat="-26.8841961" lon="152.7870116">
<ele>150.202</ele>
<time>2017-05-17T05:39:43.152Z</time>
</trkpt>
<trkpt lat="-26.8849053" lon="152.7870795">
<ele>150.018</ele>
<time>2017-05-17T05:39:46.070Z</time>
</trkpt>
<trkpt lat="-26.8856245" lon="152.7870907">
<ele>149.958</ele>
<time>2017-05-17T05:39:49.047Z</time>
</trkpt>
<trkpt lat="-26.8860983" lon="152.7870777">
<ele>150.023</ele>
<time>2017-05-17T05:39:51.029Z</time>
</trkpt>
<trkpt lat="-26.8865732" lon="152.7870296">
<ele>150.225</ele>
<time>2017-05-17T05:39:53.018Z</time>
</trkpt>
<trkpt lat="-26.8872565" lon="152.7868562">
<ele>150.544</ele>
<time>2017-05-17T05:39:55.918Z</time>
</trkpt>
<trkpt lat="-26.8879513" lon="152.7866456">
<ele>150.863</ele>
<time>2017-05-17T05:39:58.824Z</time>
</trkpt>
<trkpt lat="-26.8884003" lon="152.7864574">
<ele>150.969</ele>
<time>2017-05-17T05:40:00.719Z</time>
</trkpt>
<trkpt lat="-26.8890861" lon="152.7861058">
<ele>150.650</ele>
<time>2017-05-17T05:40:03.628Z</time>
</trkpt>
<trkpt lat="-26.8897461" lon="152.7856167">
<ele>149.877</ele>
<time>2017-05-17T05:40:06.686Z</time>
</trkpt>
<trkpt lat="-26.8901764" lon="152.7853183">
<ele>148.854</ele>
<time>2017-05-17T05:40:08.664Z</time>
</trkpt>
<trkpt lat="-26.8907728" lon="152.7848141">
<ele>147.847</ele>
<time>2017-05-17T05:40:11.608Z</time>
</trkpt>
<trkpt lat="-26.8911983" lon="152.7845054">
<ele>147.085</ele>
<time>2017-05-17T05:40:13.613Z</time>
</trkpt>
<trkpt lat="-26.8918173" lon="152.7840308">
<ele>146.688</ele>
<time>2017-05-17T05:40:16.609Z</time>
</trkpt>
<trkpt lat="-26.8924402" lon="152.7835723">
<ele>146.580</ele>
<time>2017-05-17T05:40:19.646Z</time>
</trkpt>
<trkpt lat="-26.8930423" lon="152.7831289">
<ele>146.521</ele>
<time>2017-05-17T05:40:22.680Z</time>
</trkpt>
<trkpt lat="-26.8936187" lon="152.7826940">
<ele>146.360</ele>
<time>2017-05-17T05:40:25.826Z</time>
</trkpt>
<trkpt lat="-26.8939848" lon="152.7824427">
<ele>146.172</ele>
<time>2017-05-17T05:40:27.938Z</time>
</trkpt>
<trkpt lat="-26.8943198" lon="152.7822150">
<ele>146.137</ele>
<time>2017-05-17T05:40:29.864Z</time>
</trkpt>
<trkpt lat="-26.8948117" lon="152.7818552">
<ele>146.398</ele>
<time>2017-05-17T05:40:32.711Z</time>
</trkpt>
<trkpt lat="-26.8953366" lon="152.7814744">
<ele>147.106</ele>
<time>2017-05-17T05:40:35.650Z</time>
</trkpt>
<trkpt lat="-26.8958840" lon="152.7811055">
<ele>148.269</ele>
<time>2017-05-17T05:40:38.612Z</time>
</trkpt>
<trkpt lat="-26.8964311" lon="152.7807386">
<ele>149.498</ele>
<time>2017-05-17T05:40:41.534Z</time>
</trkpt>
<trkpt lat="-26.8968080" lon="152.7805039">
<ele>150.290</ele>
<time>2017-05-17T05:40:43.482Z</time>
</trkpt>
<trkpt lat="-26.8973738" lon="152.7801341">
<ele>150.385</ele>
<time>2017-05-17T05:40:46.342Z</time>
</trkpt>
<trkpt lat="-26.8979674" lon="152.7797648">
<ele>149.600</ele>
<time>2017-05-17T05:40:49.120Z</time>
</trkpt>
<trkpt lat="-26.8984016" lon="152.7794941">
<ele>148.095</ele>
<time>2017-05-17T05:40:51.077Z</time>
</trkpt>
<trkpt lat="-26.8988514" lon="152.7792208">
<ele>146.606</ele>
<time>2017-05-17T05:40:53.084Z</time>
</trkpt>
<trkpt lat="-26.8992969" lon="152.7789553">
<ele>145.752</ele>
<time>2017-05-17T05:40:55.073Z</time>
</trkpt>
<trkpt lat="-26.8999615" lon="152.7785750">
<ele>145.515</ele>
<time>2017-05-17T05:40:58.092Z</time>
</trkpt>
<trkpt lat="-26.9006069" lon="152.7782202">
<ele>145.577</ele>
<time>2017-05-17T05:41:01.088Z</time>
</trkpt>
<trkpt lat="-26.9010389" lon="152.7780220">
<ele>145.801</ele>
<time>2017-05-17T05:41:03.052Z</time>
</trkpt>
<trkpt lat="-26.9017021" lon="152.7777641">
<ele>146.284</ele>
<time>2017-05-17T05:41:06.038Z</time>
</trkpt>
<trkpt lat="-26.9023788" lon="152.7776039">
<ele>147.139</ele>
<time>2017-05-17T05:41:08.959Z</time>
</trkpt>
<trkpt lat="-26.9030757" lon="152.7774613">
<ele>148.173</ele>
<time>2017-05-17T05:41:11.873Z</time>
</trkpt>
<trkpt lat="-26.9035613" lon="152.7774374">
<ele>148.942</ele>
<time>2017-05-17T05:41:13.859Z</time>
</trkpt>
<trkpt lat="-26.9040548" lon="152.7774189">
<ele>149.214</ele>
<time>2017-05-17T05:41:15.883Z</time>
</trkpt>
<trkpt lat="-26.9045306" lon="152.7774105">
<ele>149.134</ele>
<time>2017-05-17T05:41:17.837Z</time>
</trkpt>
<trkpt lat="-26.9052480" lon="152.7773629">
<ele>148.929</ele>
<time>2017-05-17T05:41:20.785Z</time>
</trkpt>
<trkpt lat="-26.9059662" lon="152.7772651">
<ele>148.937</ele>
<time>2017-05-17T05:41:23.749Z</time>
</trkpt>
<trkpt lat="-26.9066688" lon="152.7770966">
<ele>149.554</ele>
<time>2017-05-17T05:41:26.673Z</time>
</trkpt>
<trkpt lat="-26.9071369" lon="152.7769315">
<ele>150.758</ele>
<time>2017-05-17T05:41:28.644Z</time>
</trkpt>
<trkpt lat="-26.9076090" lon="152.7767614">
<ele>151.952</ele>
<time>2017-05-17T05:41:30.613Z</time>
</trkpt>
<trkpt lat="-26.9083018" lon="152.7764328">
<ele>152.575</ele>
<time>2017-05-17T05:41:33.553Z</time>
</trkpt>
<trkpt lat="-26.9087508" lon="152.7761653">
<ele>152.487</ele>
<time>2017-05-17T05:41:35.518Z</time>
</trkpt>
<trkpt lat="-26.9093805" lon="152.7756743">
<ele>151.887</ele>
<time>2017-05-17T05:41:38.467Z</time>
</trkpt>
<trkpt lat="-26.9099981" lon="152.7751527">
<ele>151.028</ele>
<time>2017-05-17T05:41:41.473Z</time>
</trkpt>
<trkpt lat="-26.9105808" lon="152.7746171">
<ele>150.016</ele>
<time>2017-05-17T05:41:44.479Z</time>
</trkpt>
<trkpt lat="-26.9111516" lon="152.7741104">
<ele>148.889</ele>
<time>2017-05-17T05:41:47.442Z</time>
</trkpt>
<trkpt lat="-26.9117165" lon="152.7736039">
<ele>147.707</ele>
<time>2017-05-17T05:41:50.393Z</time>
</trkpt>
<trkpt lat="-26.9122936" lon="152.7731042">
<ele>146.525</ele>
<time>2017-05-17T05:41:53.353Z</time>
</trkpt>
<trkpt lat="-26.9129269" lon="152.7726820">
<ele>145.460</ele>
<time>2017-05-17T05:41:56.308Z</time>
</trkpt>
<trkpt lat="-26.9133556" lon="152.7723973">
<ele>144.620</ele>
<time>2017-05-17T05:41:58.274Z</time>
</trkpt>
<trkpt lat="-26.9140356" lon="152.7720306">
<ele>144.039</ele>
<time>2017-05-17T05:42:01.288Z</time>
</trkpt>
<trkpt lat="-26.9146650" lon="152.7716493">
<ele>143.592</ele>
<time>2017-05-17T05:42:04.234Z</time>
</trkpt>
<trkpt lat="-26.9151007" lon="152.7714443">
<ele>143.048</ele>
<time>2017-05-17T05:42:06.221Z</time>
</trkpt>
<trkpt lat="-26.9157065" lon="152.7710398">
<ele>142.362</ele>
<time>2017-05-17T05:42:09.201Z</time>
</trkpt>
<trkpt lat="-26.9163273" lon="152.7706915">
<ele>141.656</ele>
<time>2017-05-17T05:42:12.136Z</time>
</trkpt>
<trkpt lat="-26.9169450" lon="152.7703139">
<ele>141.048</ele>
<time>2017-05-17T05:42:15.078Z</time>
</trkpt>
<trkpt lat="-26.9176050" lon="152.7698959">
<ele>140.637</ele>
<time>2017-05-17T05:42:18.215Z</time>
</trkpt>
<trkpt lat="-26.9182401" lon="152.7695583">
<ele>140.438</ele>
<time>2017-05-17T05:42:21.118Z</time>
</trkpt>
<trkpt lat="-26.9188742" lon="152.7692028">
<ele>140.388</ele>
<time>2017-05-17T05:42:24.046Z</time>
</trkpt>
<trkpt lat="-26.9194428" lon="152.7687359">
<ele>140.507</ele>
<time>2017-05-17T05:42:26.942Z</time>
</trkpt>
<trkpt lat="-26.9198304" lon="152.7684166">
<ele>140.860</ele>
<time>2017-05-17T05:42:28.915Z</time>
</trkpt>
<trkpt lat="-26.9202092" lon="152.7680934">
<ele>141.385</ele>
<time>2017-05-17T05:42:30.870Z</time>
</trkpt>
<trkpt lat="-26.9207519" lon="152.7675440">
<ele>141.851</ele>
<time>2017-05-17T05:42:33.852Z</time>
</trkpt>
<trkpt lat="-26.9210950" lon="152.7671489">
<ele>142.033</ele>
<time>2017-05-17T05:42:35.825Z</time>
</trkpt>
<trkpt lat="-26.9216004" lon="152.7665312">
<ele>141.868</ele>
<time>2017-05-17T05:42:38.826Z</time>
</trkpt>
<trkpt lat="-26.9221349" lon="152.7659785">
<ele>141.489</ele>
<time>2017-05-17T05:42:41.785Z</time>
</trkpt>
<trkpt lat="-26.9226408" lon="152.7654217">
<ele>141.114</ele>
<time>2017-05-17T05:42:44.740Z</time>
</trkpt>
<trkpt lat="-26.9229622" lon="152.7650462">
<ele>141.009</ele>
<time>2017-05-17T05:42:46.739Z</time>
</trkpt>
<trkpt lat="-26.9234661" lon="152.7645358">
<ele>141.287</ele>
<time>2017-05-17T05:42:49.705Z</time>
</trkpt>
<trkpt lat="-26.9237669" lon="152.7641693">
<ele>141.798</ele>
<time>2017-05-17T05:42:51.667Z</time>
</trkpt>
<trkpt lat="-26.9240816" lon="152.7638057">
<ele>142.302</ele>
<time>2017-05-17T05:42:53.617Z</time>
</trkpt>
<trkpt lat="-26.9245686" lon="152.7632257">
<ele>142.605</ele>
<time>2017-05-17T05:42:56.614Z</time>
</trkpt>
<trkpt lat="-26.9250812" lon="152.7626692">
<ele>142.566</ele>
<time>2017-05-17T05:42:59.566Z</time>
</trkpt>
<trkpt lat="-26.9255942" lon="152.7621116">
<ele>142.110</ele>
<time>2017-05-17T05:43:02.529Z</time>
</trkpt>
<trkpt lat="-26.9260953" lon="152.7615628">
<ele>141.229</ele>
<time>2017-05-17T05:43:05.489Z</time>
</trkpt>
<trkpt lat="-26.9265805" lon="152.7610273">
<ele>140.094</ele>
<time>2017-05-17T05:43:08.437Z</time>
</trkpt>
<trkpt lat="-26.9268990" lon="152.7606790">
<ele>138.897</ele>
<time>2017-05-17T05:43:10.396Z</time>
</trkpt>
<trkpt lat="-26.9272215" lon="152.7603231">
<ele>137.770</ele>
<time>2017-05-17T05:43:12.408Z</time>
</trkpt>
<trkpt lat="-26.9277090" lon="152.7598304">
<ele>136.870</ele>
<time>2017-05-17T05:43:15.402Z</time>
</trkpt>
<trkpt lat="-26.9281542" lon="152.7593655">
<ele>136.298</ele>
<time>2017-05-17T05:43:18.334Z</time>
</trkpt>
<trkpt lat="-26.9284046" lon="152.7590463">
<ele>135.944</ele>
<time>2017-05-17T05:43:20.279Z</time>
</trkpt>
<trkpt lat="-26.9286716" lon="152.7587594">
<ele>135.680</ele>
<time>2017-05-17T05:43:22.233Z</time>
</trkpt>
<trkpt lat="-26.9289137" lon="152.7584518">
<ele>135.546</ele>
<time>2017-05-17T05:43:24.210Z</time>
</trkpt>
<trkpt lat="-26.9293058" lon="152.7580447">
<ele>135.617</ele>
<time>2017-05-17T05:43:27.159Z</time>
</trkpt>
<trkpt lat="-26.9295441" lon="152.7577750">
<ele>135.828</ele>
<time>2017-05-17T05:43:29.105Z</time>
</trkpt>
<trkpt lat="-26.9297623" lon="152.7575102">
<ele>136.046</ele>
<time>2017-05-17T05:43:31.043Z</time>
</trkpt>
<trkpt lat="-26.9299782" lon="152.7572919">
<ele>136.161</ele>
<time>2017-05-17T05:43:32.927Z</time>
</trkpt>
<trkpt lat="-26.9301685" lon="152.7570758">
<ele>136.107</ele>
<time>2017-05-17T05:43:34.894Z</time>
</trkpt>
<trkpt lat="-26.9304544" lon="152.7568499">
<ele>135.834</ele>
<time>2017-05-17T05:43:37.798Z</time>
</trkpt>
<trkpt lat="-26.9306314" lon="152.7568149">
<ele>135.325</ele>
<time>2017-05-17T05:43:39.595Z</time>
</trkpt>
<trkpt lat="-26.9307755" lon="152.7568999">
<ele>134.646</ele>
<time>2017-05-17T05:43:41.408Z</time>
</trkpt>
<trkpt lat="-26.9310215" lon="152.7570830">
<ele>133.917</ele>
<time>2017-05-17T05:43:44.530Z</time>
</trkpt>
<trkpt lat="-26.9313356" lon="152.7573763">
<ele>133.292</ele>
<time>2017-05-17T05:43:47.875Z</time>
</trkpt>
<trkpt lat="-26.9315153" lon="152.7576500">
<ele>132.909</ele>
<time>2017-05-17T05:43:49.942Z</time>
</trkpt>
<trkpt lat="-26.9317069" lon="152.7579470">
<ele>132.816</ele>
<time>2017-05-17T05:43:52.015Z</time>
</trkpt>
<trkpt lat="-26.9320262" lon="152.7583486">
<ele>132.926</ele>
<time>2017-05-17T05:43:54.934Z</time>
</trkpt>
<trkpt lat="-26.9322910" lon="152.7586171">
<ele>133.102</ele>
<time>2017-05-17T05:43:56.947Z</time>
</trkpt>
<trkpt lat="-26.9326963" lon="152.7590792">
<ele>133.318</ele>
<time>2017-05-17T05:44:00.023Z</time>
</trkpt>
<trkpt lat="-26.9329934" lon="152.7593463">
<ele>133.685</ele>
<time>2017-05-17T05:44:01.982Z</time>
</trkpt>
<trkpt lat="-26.9332885" lon="152.7596305">
<ele>134.225</ele>
<time>2017-05-17T05:44:03.950Z</time>
</trkpt>
<trkpt lat="-26.9335945" lon="152.7599311">
<ele>134.791</ele>
<time>2017-05-17T05:44:05.967Z</time>
</trkpt>
<trkpt lat="-26.9338886" lon="152.7602508">
<ele>135.242</ele>
<time>2017-05-17T05:44:07.970Z</time>
</trkpt>
<trkpt lat="-26.9343662" lon="152.7606959">
<ele>135.559</ele>
<time>2017-05-17T05:44:10.993Z</time>
</trkpt>
<trkpt lat="-26.9346867" lon="152.7609642">
<ele>135.779</ele>
<time>2017-05-17T05:44:12.936Z</time>
</trkpt>
<trkpt lat="-26.9352035" lon="152.7613404">
<ele>135.928</ele>
<time>2017-05-17T05:44:15.911Z</time>
</trkpt>
<trkpt lat="-26.9355437" lon="152.7616056">
<ele>135.979</ele>
<time>2017-05-17T05:44:17.888Z</time>
</trkpt>
<trkpt lat="-26.9360878" lon="152.7619821">
<ele>135.871</ele>
<time>2017-05-17T05:44:20.929Z</time>
</trkpt>
<trkpt lat="-26.9364387" lon="152.7622166">
<ele>135.646</ele>
<time>2017-05-17T05:44:22.879Z</time>
</trkpt>
<trkpt lat="-26.9367956" lon="152.7624451">
<ele>135.451</ele>
<time>2017-05-17T05:44:24.856Z</time>
</trkpt>
<trkpt lat="-26.9373344" lon="152.7627727">
<ele>135.348</ele>
<time>2017-05-17T05:44:27.810Z</time>
</trkpt>
<trkpt lat="-26.9378627" lon="152.7631276">
<ele>135.222</ele>
<time>2017-05-17T05:44:30.779Z</time>
</trkpt>
<trkpt lat="-26.9382245" lon="152.7633341">
<ele>134.980</ele>
<time>2017-05-17T05:44:32.746Z</time>
</trkpt>
<trkpt lat="-26.9385795" lon="152.7635411">
<ele>134.678</ele>
<time>2017-05-17T05:44:34.720Z</time>
</trkpt>
<trkpt lat="-26.9390435" lon="152.7639296">
<ele>134.429</ele>
<time>2017-05-17T05:44:37.648Z</time>
</trkpt>
<trkpt lat="-26.9394414" lon="152.7643638">
<ele>134.407</ele>
<time>2017-05-17T05:44:40.544Z</time>
</trkpt>
<trkpt lat="-26.9396549" lon="152.7646900">
<ele>134.839</ele>
<time>2017-05-17T05:44:42.494Z</time>
</trkpt>
<trkpt lat="-26.9399336" lon="152.7651799">
<ele>135.694</ele>
<time>2017-05-17T05:44:45.387Z</time>
</trkpt>
<trkpt lat="-26.9401357" lon="152.7655020">
<ele>136.710</ele>
<time>2017-05-17T05:44:47.370Z</time>
</trkpt>
<trkpt lat="-26.9404631" lon="152.7659943">
<ele>137.714</ele>
<time>2017-05-17T05:44:50.402Z</time>
</trkpt>
<trkpt lat="-26.9406434" lon="152.7663673">
<ele>138.734</ele>
<time>2017-05-17T05:44:52.419Z</time>
</trkpt>
<trkpt lat="-26.9408364" lon="152.7667414">
<ele>139.763</ele>
<time>2017-05-17T05:44:54.425Z</time>
</trkpt>
<trkpt lat="-26.9411704" lon="152.7672543">
<ele>140.589</ele>
<time>2017-05-17T05:44:57.367Z</time>
</trkpt>
<trkpt lat="-26.9413798" lon="152.7676134">
<ele>141.020</ele>
<time>2017-05-17T05:44:59.349Z</time>
</trkpt>
<trkpt lat="-26.9417285" lon="152.7681621">
<ele>141.099</ele>
<time>2017-05-17T05:45:02.379Z</time>
</trkpt>
<trkpt lat="-26.9420067" lon="152.7684996">
<ele>140.885</ele>
<time>2017-05-17T05:45:04.375Z</time>
</trkpt>
<trkpt lat="-26.9424262" lon="152.7690175">
<ele>140.388</ele>
<time>2017-05-17T05:45:07.365Z</time>
</trkpt>
<trkpt lat="-26.9427133" lon="152.7693545">
<ele>139.663</ele>
<time>2017-05-17T05:45:09.339Z</time>
</trkpt>
<trkpt lat="-26.9430200" lon="152.7696779">
<ele>138.840</ele>
<time>2017-05-17T05:45:11.323Z</time>
</trkpt>
<trkpt lat="-26.9435101" lon="152.7701601">
<ele>138.048</ele>
<time>2017-05-17T05:45:14.382Z</time>
</trkpt>
<trkpt lat="-26.9438190" lon="152.7704468">
<ele>137.363</ele>
<time>2017-05-17T05:45:16.293Z</time>
</trkpt>
<trkpt lat="-26.9442812" lon="152.7708324">
<ele>136.792</ele>
<time>2017-05-17T05:45:19.141Z</time>
</trkpt>
<trkpt lat="-26.9447380" lon="152.7711931">
<ele>136.261</ele>
<time>2017-05-17T05:45:22.041Z</time>
</trkpt>
<trkpt lat="-26.9452133" lon="152.7715167">
<ele>135.701</ele>
<time>2017-05-17T05:45:24.973Z</time>
</trkpt>
<trkpt lat="-26.9455365" lon="152.7717577">
<ele>135.223</ele>
<time>2017-05-17T05:45:26.998Z</time>
</trkpt>
<trkpt lat="-26.9458383" lon="152.7720212">
<ele>134.972</ele>
<time>2017-05-17T05:45:28.998Z</time>
</trkpt>
<trkpt lat="-26.9463032" lon="152.7723545">
<ele>134.922</ele>
<time>2017-05-17T05:45:31.998Z</time>
</trkpt>
<trkpt lat="-26.9467514" lon="152.7726870">
<ele>134.930</ele>
<time>2017-05-17T05:45:34.904Z</time>
</trkpt>
<trkpt lat="-26.9471577" lon="152.7730170">
<ele>134.793</ele>
<time>2017-05-17T05:45:37.777Z</time>
</trkpt>
<trkpt lat="-26.9475201" lon="152.7733506">
<ele>134.350</ele>
<time>2017-05-17T05:45:40.646Z</time>
</trkpt>
<trkpt lat="-26.9477446" lon="152.7735786">
<ele>133.670</ele>
<time>2017-05-17T05:45:42.579Z</time>
</trkpt>
<trkpt lat="-26.9479395" lon="152.7737899">
<ele>132.955</ele>
<time>2017-05-17T05:45:44.397Z</time>
</trkpt>
<trkpt lat="-26.9482191" lon="152.7740706">
<ele>132.292</ele>
<time>2017-05-17T05:45:47.147Z</time>
</trkpt>
<trkpt lat="-26.9484648" lon="152.7743490">
<ele>131.628</ele>
<time>2017-05-17T05:45:49.940Z</time>
</trkpt>
<trkpt lat="-26.9486068" lon="152.7745646">
<ele>130.959</ele>
<time>2017-05-17T05:45:51.910Z</time>
</trkpt>
<trkpt lat="-26.9488726" lon="152.7748772">
<ele>130.435</ele>
<time>2017-05-17T05:45:54.988Z</time>
</trkpt>
<trkpt lat="-26.9490299" lon="152.7751026">
<ele>130.204</ele>
<time>2017-05-17T05:45:56.974Z</time>
</trkpt>
<trkpt lat="-26.9492808" lon="152.7754222">
<ele>130.261</ele>
<time>2017-05-17T05:45:59.920Z</time>
</trkpt>
<trkpt lat="-26.9494400" lon="152.7756552">
<ele>130.532</ele>
<time>2017-05-17T05:46:01.943Z</time>
</trkpt>
<trkpt lat="-26.9496309" lon="152.7758781">
<ele>130.974</ele>
<time>2017-05-17T05:46:04.022Z</time>
</trkpt>
<trkpt lat="-26.9498217" lon="152.7761066">
<ele>131.586</ele>
<time>2017-05-17T05:46:06.066Z</time>
</trkpt>
<trkpt lat="-26.9500110" lon="152.7763165">
<ele>132.344</ele>
<time>2017-05-17T05:46:07.999Z</time>
</trkpt>
<trkpt lat="-26.9503663" lon="152.7765044">
<ele>133.130</ele>
<time>2017-05-17T05:46:10.895Z</time>
</trkpt>
<trkpt lat="-26.9507442" lon="152.7766157">
<ele>133.856</ele>
<time>2017-05-17T05:46:13.823Z</time>
</trkpt>
<trkpt lat="-26.9509827" lon="152.7767004">
<ele>134.546</ele>
<time>2017-05-17T05:46:15.725Z</time>
</trkpt>
<trkpt lat="-26.9513148" lon="152.7767975">
<ele>135.199</ele>
<time>2017-05-17T05:46:18.463Z</time>
</trkpt>
<trkpt lat="-26.9516256" lon="152.7769300">
<ele>135.781</ele>
<time>2017-05-17T05:46:21.269Z</time>
</trkpt>
<trkpt lat="-26.9519559" lon="152.7770293">
<ele>136.323</ele>
<time>2017-05-17T05:46:24.269Z</time>
</trkpt>
<trkpt lat="-26.9521689" lon="152.7771012">
<ele>136.923</ele>
<time>2017-05-17T05:46:26.228Z</time>
</trkpt>
<trkpt lat="-26.9525085" lon="152.7772272">
<ele>137.626</ele>
<time>2017-05-17T05:46:29.341Z</time>
</trkpt>
<trkpt lat="-26.9527765" lon="152.7772982">
<ele>138.480</ele>
<time>2017-05-17T05:46:31.653Z</time>
</trkpt>
<trkpt lat="-26.9530397" lon="152.7773765">
<ele>139.565</ele>
<time>2017-05-17T05:46:33.731Z</time>
</trkpt>
<trkpt lat="-26.9533575" lon="152.7774814">
<ele>140.795</ele>
<time>2017-05-17T05:46:36.240Z</time>
</trkpt>
<trkpt lat="-26.9535450" lon="152.7775408">
<ele>141.914</ele>
<time>2017-05-17T05:46:37.785Z</time>
</trkpt>
<trkpt lat="-26.9537364" lon="152.7776044">
<ele>142.719</ele>
<time>2017-05-17T05:46:39.611Z</time>
</trkpt>
<trkpt lat="-26.9539988" lon="152.7777164">
<ele>143.165</ele>
<time>2017-05-17T05:46:42.369Z</time>
</trkpt>
<trkpt lat="-26.9541874" lon="152.7777567">
<ele>143.353</ele>
<time>2017-05-17T05:46:44.324Z</time>
</trkpt>
<trkpt lat="-26.9544073" lon="152.7778079">
<ele>143.402</ele>
<time>2017-05-17T05:46:46.637Z</time>
</trkpt>
<trkpt lat="-26.9547335" lon="152.7779683">
<ele>143.419</ele>
<time>2017-05-17T05:46:50.012Z</time>
</trkpt>
<trkpt lat="-26.9550847" lon="152.7780758">
<ele>143.526</ele>
<time>2017-05-17T05:46:53.156Z</time>
</trkpt>
<trkpt lat="-26.9554217" lon="152.7781791">
<ele>143.765</ele>
<time>2017-05-17T05:46:56.072Z</time>
</trkpt>
<trkpt lat="-26.9556379" lon="152.7782549">
<ele>144.059</ele>
<time>2017-05-17T05:46:57.965Z</time>
</trkpt>
<trkpt lat="-26.9559657" lon="152.7783604">
<ele>144.343</ele>
<time>2017-05-17T05:47:00.913Z</time>
</trkpt>
<trkpt lat="-26.9562125" lon="152.7784125">
<ele>144.703</ele>
<time>2017-05-17T05:47:03.103Z</time>
</trkpt>
<trkpt lat="-26.9564710" lon="152.7784728">
<ele>145.209</ele>
<time>2017-05-17T05:47:05.274Z</time>
</trkpt>
<trkpt lat="-26.9567444" lon="152.7785267">
<ele>145.761</ele>
<time>2017-05-17T05:47:07.399Z</time>
</trkpt>
<trkpt lat="-26.9571728" lon="152.7786580">
<ele>146.247</ele>
<time>2017-05-17T05:47:10.593Z</time>
</trkpt>
<trkpt lat="-26.9576049" lon="152.7787423">
<ele>146.618</ele>
<time>2017-05-17T05:47:13.591Z</time>
</trkpt>
<trkpt lat="-26.9580297" lon="152.7788682">
<ele>146.816</ele>
<time>2017-05-17T05:47:16.535Z</time>
</trkpt>
<trkpt lat="-26.9584413" lon="152.7789931">
<ele>146.832</ele>
<time>2017-05-17T05:47:19.417Z</time>
</trkpt>
<trkpt lat="-26.9588420" lon="152.7790929">
<ele>146.706</ele>
<time>2017-05-17T05:47:22.259Z</time>
</trkpt>
<trkpt lat="-26.9592296" lon="152.7791753">
<ele>146.432</ele>
<time>2017-05-17T05:47:25.078Z</time>
</trkpt>
<trkpt lat="-26.9594608" lon="152.7792356">
<ele>145.986</ele>
<time>2017-05-17T05:47:26.813Z</time>
</trkpt>
<trkpt lat="-26.9596696" lon="152.7793031">
<ele>145.419</ele>
<time>2017-05-17T05:47:28.500Z</time>
</trkpt>
<trkpt lat="-26.9599663" lon="152.7793799">
<ele>144.846</ele>
<time>2017-05-17T05:47:31.044Z</time>
</trkpt>
<trkpt lat="-26.9602526" lon="152.7794870">
<ele>144.314</ele>
<time>2017-05-17T05:47:33.822Z</time>
</trkpt>
<trkpt lat="-26.9605380" lon="152.7795562">
<ele>143.820</ele>
<time>2017-05-17T05:47:36.665Z</time>
</trkpt>
<trkpt lat="-26.9608093" lon="152.7796509">
<ele>143.383</ele>
<time>2017-05-17T05:47:39.491Z</time>
</trkpt>
<trkpt lat="-26.9609791" lon="152.7797291">
<ele>143.023</ele>
<time>2017-05-17T05:47:41.357Z</time>
</trkpt>
<trkpt lat="-26.9612528" lon="152.7798442">
<ele>142.747</ele>
<time>2017-05-17T05:47:44.385Z</time>
</trkpt>
<trkpt lat="-26.9614240" lon="152.7799363">
<ele>142.568</ele>
<time>2017-05-17T05:47:46.354Z</time>
</trkpt>
<trkpt lat="-26.9615816" lon="152.7800466">
<ele>142.461</ele>
<time>2017-05-17T05:47:48.270Z</time>
</trkpt>
<trkpt lat="-26.9618521" lon="152.7802160">
<ele>142.373</ele>
<time>2017-05-17T05:47:51.437Z</time>
</trkpt>
<trkpt lat="-26.9620463" lon="152.7803313">
<ele>142.291</ele>
<time>2017-05-17T05:47:53.637Z</time>
</trkpt>
<trkpt lat="-26.9623695" lon="152.7805077">
<ele>142.243</ele>
<time>2017-05-17T05:47:57.053Z</time>
</trkpt>
<trkpt lat="-26.9625868" lon="152.7806365">
<ele>142.236</ele>
<time>2017-05-17T05:47:59.161Z</time>
</trkpt>
<trkpt lat="-26.9629311" lon="152.7808396">
<ele>142.224</ele>
<time>2017-05-17T05:48:02.345Z</time>
</trkpt>
<trkpt lat="-26.9631733" lon="152.7809782">
<ele>142.094</ele>
<time>2017-05-17T05:48:04.462Z</time>
</trkpt>
<trkpt lat="-26.9635480" lon="152.7812012">
<ele>141.763</ele>
<time>2017-05-17T05:48:07.603Z</time>
</trkpt>
<trkpt lat="-26.9638060" lon="152.7813559">
<ele>141.223</ele>
<time>2017-05-17T05:48:09.674Z</time>
</trkpt>
<trkpt lat="-26.9642455" lon="152.7816102">
<ele>140.519</ele>
<time>2017-05-17T05:48:12.981Z</time>
</trkpt>
<trkpt lat="-26.9645846" lon="152.7818077">
<ele>139.856</ele>
<time>2017-05-17T05:48:15.358Z</time>
</trkpt>
<trkpt lat="-26.9649409" lon="152.7819957">
<ele>139.502</ele>
<time>2017-05-17T05:48:17.529Z</time>
</trkpt>
<trkpt lat="-26.9653040" lon="152.7822108">
<ele>139.547</ele>
<time>2017-05-17T05:48:19.628Z</time>
</trkpt>
<trkpt lat="-26.9656579" lon="152.7824502">
<ele>139.952</ele>
<time>2017-05-17T05:48:21.663Z</time>
</trkpt>
<trkpt lat="-26.9661764" lon="152.7828280">
<ele>140.632</ele>
<time>2017-05-17T05:48:24.643Z</time>
</trkpt>
<trkpt lat="-26.9664977" lon="152.7831134">
<ele>141.611</ele>
<time>2017-05-17T05:48:26.610Z</time>
</trkpt>
<trkpt lat="-26.9668398" lon="152.7833699">
<ele>143.046</ele>
<time>2017-05-17T05:48:28.586Z</time>
</trkpt>
<trkpt lat="-26.9671599" lon="152.7836341">
<ele>144.940</ele>
<time>2017-05-17T05:48:30.505Z</time>
</trkpt>
<trkpt lat="-26.9674758" lon="152.7839151">
<ele>147.079</ele>
<time>2017-05-17T05:48:32.472Z</time>
</trkpt>
<trkpt lat="-26.9679257" lon="152.7843353">
<ele>149.253</ele>
<time>2017-05-17T05:48:35.367Z</time>
</trkpt>
<trkpt lat="-26.9682309" lon="152.7846281">
<ele>151.372</ele>
<time>2017-05-17T05:48:37.366Z</time>
</trkpt>
<trkpt lat="-26.9685524" lon="152.7849213">
<ele>153.354</ele>
<time>2017-05-17T05:48:39.424Z</time>
</trkpt>
<trkpt lat="-26.9688849" lon="152.7852146">
<ele>155.095</ele>
<time>2017-05-17T05:48:41.461Z</time>
</trkpt>
<trkpt lat="-26.9692044" lon="152.7855292">
<ele>156.625</ele>
<time>2017-05-17T05:48:43.455Z</time>
</trkpt>
<trkpt lat="-26.9697047" lon="152.7859841">
<ele>157.964</ele>
<time>2017-05-17T05:48:46.444Z</time>
</trkpt>
<trkpt lat="-26.9700663" lon="152.7862739">
<ele>158.986</ele>
<time>2017-05-17T05:48:48.492Z</time>
</trkpt>
<trkpt lat="-26.9705678" lon="152.7867520">
<ele>159.645</ele>
<time>2017-05-17T05:48:51.466Z</time>
</trkpt>
<trkpt lat="-26.9710699" lon="152.7871964">
<ele>160.041</ele>
<time>2017-05-17T05:48:54.347Z</time>
</trkpt>
<trkpt lat="-26.9716010" lon="152.7875835">
<ele>160.272</ele>
<time>2017-05-17T05:48:57.249Z</time>
</trkpt>
<trkpt lat="-26.9719620" lon="152.7878420">
<ele>160.352</ele>
<time>2017-05-17T05:48:59.239Z</time>
</trkpt>
<trkpt lat="-26.9725107" lon="152.7882405">
<ele>160.290</ele>
<time>2017-05-17T05:49:02.248Z</time>
</trkpt>
<trkpt lat="-26.9728965" lon="152.7884869">
<ele>160.152</ele>
<time>2017-05-17T05:49:04.269Z</time>
</trkpt>
<trkpt lat="-26.9732894" lon="152.7887269">
<ele>159.965</ele>
<time>2017-05-17T05:49:06.279Z</time>
</trkpt>
<trkpt lat="-26.9738507" lon="152.7891027">
<ele>159.727</ele>
<time>2017-05-17T05:49:09.195Z</time>
</trkpt>
<trkpt lat="-26.9743845" lon="152.7894899">
<ele>159.343</ele>
<time>2017-05-17T05:49:12.062Z</time>
</trkpt>
<trkpt lat="-26.9747144" lon="152.7897522">
<ele>158.738</ele>
<time>2017-05-17T05:49:13.914Z</time>
</trkpt>
<trkpt lat="-26.9750644" lon="152.7899768">
<ele>158.029</ele>
<time>2017-05-17T05:49:15.817Z</time>
</trkpt>
<trkpt lat="-26.9754043" lon="152.7901815">
<ele>157.336</ele>
<time>2017-05-17T05:49:17.674Z</time>
</trkpt>
<trkpt lat="-26.9758703" lon="152.7905174">
<ele>156.640</ele>
<time>2017-05-17T05:49:20.414Z</time>
</trkpt>
<trkpt lat="-26.9761935" lon="152.7907097">
<ele>155.972</ele>
<time>2017-05-17T05:49:22.299Z</time>
</trkpt>
<trkpt lat="-26.9765216" lon="152.7909352">
<ele>155.474</ele>
<time>2017-05-17T05:49:24.328Z</time>
</trkpt>
<trkpt lat="-26.9768441" lon="152.7911702">
<ele>155.312</ele>
<time>2017-05-17T05:49:26.364Z</time>
</trkpt>
<trkpt lat="-26.9773358" lon="152.7915111">
<ele>155.563</ele>
<time>2017-05-17T05:49:29.352Z</time>
</trkpt>
<trkpt lat="-26.9778188" lon="152.7918477">
<ele>156.161</ele>
<time>2017-05-17T05:49:32.263Z</time>
</trkpt>
<trkpt lat="-26.9783020" lon="152.7921671">
<ele>156.923</ele>
<time>2017-05-17T05:49:35.160Z</time>
</trkpt>
<trkpt lat="-26.9786009" lon="152.7924037">
<ele>157.604</ele>
<time>2017-05-17T05:49:37.082Z</time>
</trkpt>
<trkpt lat="-26.9789144" lon="152.7926113">
<ele>158.012</ele>
<time>2017-05-17T05:49:39.013Z</time>
</trkpt>
<trkpt lat="-26.9793937" lon="152.7929791">
<ele>158.152</ele>
<time>2017-05-17T05:49:42.139Z</time>
</trkpt>
<trkpt lat="-26.9797595" lon="152.7932057">
<ele>158.150</ele>
<time>2017-05-17T05:49:44.337Z</time>
</trkpt>
<trkpt lat="-26.9800979" lon="152.7934751">
<ele>158.101</ele>
<time>2017-05-17T05:49:46.437Z</time>
</trkpt>
<trkpt lat="-26.9806217" lon="152.7938463">
<ele>157.996</ele>
<time>2017-05-17T05:49:49.427Z</time>
</trkpt>
<trkpt lat="-26.9811454" lon="152.7941811">
<ele>157.662</ele>
<time>2017-05-17T05:49:52.305Z</time>
</trkpt>
<trkpt lat="-26.9815027" lon="152.7943603">
<ele>156.883</ele>
<time>2017-05-17T05:49:54.196Z</time>
</trkpt>
<trkpt lat="-26.9818539" lon="152.7945267">
<ele>155.727</ele>
<time>2017-05-17T05:49:56.064Z</time>
</trkpt>
<trkpt lat="-26.9821823" lon="152.7946863">
<ele>154.572</ele>
<time>2017-05-17T05:49:57.852Z</time>
</trkpt>
<trkpt lat="-26.9826418" lon="152.7949043">
<ele>153.784</ele>
<time>2017-05-17T05:50:00.434Z</time>
</trkpt>
<trkpt lat="-26.9830871" lon="152.7950729">
<ele>153.455</ele>
<time>2017-05-17T05:50:03.061Z</time>
</trkpt>
<trkpt lat="-26.9833572" lon="152.7951944">
<ele>153.490</ele>
<time>2017-05-17T05:50:04.764Z</time>
</trkpt>
<trkpt lat="-26.9837516" lon="152.7953251">
<ele>153.778</ele>
<time>2017-05-17T05:50:07.279Z</time>
</trkpt>
<trkpt lat="-26.9839966" lon="152.7953957">
<ele>154.216</ele>
<time>2017-05-17T05:50:08.902Z</time>
</trkpt>
<trkpt lat="-26.9843266" lon="152.7955726">
<ele>154.674</ele>
<time>2017-05-17T05:50:11.414Z</time>
</trkpt>
<trkpt lat="-26.9845558" lon="152.7956656">
<ele>155.100</ele>
<time>2017-05-17T05:50:13.186Z</time>
</trkpt>
<trkpt lat="-26.9848869" lon="152.7958877">
<ele>155.562</ele>
<time>2017-05-17T05:50:16.198Z</time>
</trkpt>
<trkpt lat="-26.9851073" lon="152.7960194">
<ele>156.153</ele>
<time>2017-05-17T05:50:18.188Z</time>
</trkpt>
<trkpt lat="-26.9853232" lon="152.7961660">
<ele>156.843</ele>
<time>2017-05-17T05:50:20.175Z</time>
</trkpt>
<trkpt lat="-26.9855172" lon="152.7963298">
<ele>157.494</ele>
<time>2017-05-17T05:50:22.071Z</time>
</trkpt>
<trkpt lat="-26.9857306" lon="152.7964885">
<ele>157.973</ele>
<time>2017-05-17T05:50:24.057Z</time>
</trkpt>
<trkpt lat="-26.9860341" lon="152.7967478">
<ele>158.274</ele>
<time>2017-05-17T05:50:27.041Z</time>
</trkpt>
<trkpt lat="-26.9863187" lon="152.7970172">
<ele>158.499</ele>
<time>2017-05-17T05:50:30.012Z</time>
</trkpt>
<trkpt lat="-26.9865099" lon="152.7971793">
<ele>158.738</ele>
<time>2017-05-17T05:50:31.907Z</time>
</trkpt>
<trkpt lat="-26.9867732" lon="152.7974713">
<ele>159.002</ele>
<time>2017-05-17T05:50:34.831Z</time>
</trkpt>
<trkpt lat="-26.9869465" lon="152.7976277">
<ele>159.243</ele>
<time>2017-05-17T05:50:36.592Z</time>
</trkpt>
<trkpt lat="-26.9871208" lon="152.7978533">
<ele>159.374</ele>
<time>2017-05-17T05:50:38.712Z</time>
</trkpt>
<trkpt lat="-26.9872756" lon="152.7978890">
<ele>159.267</ele>
<time>2017-05-17T05:50:39.964Z</time>
</trkpt>
<trkpt lat="-26.9873726" lon="152.7976943">
<ele>158.918</ele>
<time>2017-05-17T05:50:41.565Z</time>
</trkpt>
<trkpt lat="-26.9875975" lon="152.7973929">
<ele>158.534</ele>
<time>2017-05-17T05:50:44.701Z</time>
</trkpt>
<trkpt lat="-26.9879016" lon="152.7970156">
<ele>158.417</ele>
<time>2017-05-17T05:50:50.052Z</time>
</trkpt>
<trkpt lat="-26.9880748" lon="152.7967065">
<ele>158.621</ele>
<time>2017-05-17T05:50:53.462Z</time>
</trkpt>
<trkpt lat="-26.9883265" lon="152.7964851">
<ele>158.855</ele>
<time>2017-05-17T05:50:55.925Z</time>
</trkpt>
<trkpt lat="-26.9886987" lon="152.7961178">
<ele>158.733</ele>
<time>2017-05-17T05:50:59.237Z</time>
</trkpt>
<trkpt lat="-26.9889538" lon="152.7958864">
<ele>158.028</ele>
<time>2017-05-17T05:51:01.283Z</time>
</trkpt>
<trkpt lat="-26.9894102" lon="152.7955421">
<ele>156.821</ele>
<time>2017-05-17T05:51:04.693Z</time>
</trkpt>
<trkpt lat="-26.9897587" lon="152.7953077">
<ele>155.397</ele>
<time>2017-05-17T05:51:07.079Z</time>
</trkpt>
<trkpt lat="-26.9903188" lon="152.7950652">
<ele>153.947</ele>
<time>2017-05-17T05:51:10.352Z</time>
</trkpt>
<trkpt lat="-26.9907004" lon="152.7949489">
<ele>152.529</ele>
<time>2017-05-17T05:51:12.341Z</time>
</trkpt>
<trkpt lat="-26.9913267" lon="152.7948254">
<ele>151.313</ele>
<time>2017-05-17T05:51:15.473Z</time>
</trkpt>
<trkpt lat="-26.9917428" lon="152.7947940">
<ele>150.556</ele>
<time>2017-05-17T05:51:17.505Z</time>
</trkpt>
<trkpt lat="-26.9921704" lon="152.7947840">
<ele>150.431</ele>
<time>2017-05-17T05:51:19.586Z</time>
</trkpt>
<trkpt lat="-26.9925828" lon="152.7947588">
<ele>150.970</ele>
<time>2017-05-17T05:51:21.596Z</time>
</trkpt>
<trkpt lat="-26.9932011" lon="152.7946654">
<ele>152.135</ele>
<time>2017-05-17T05:51:24.639Z</time>
</trkpt>
<trkpt lat="-26.9938064" lon="152.7946085">
<ele>153.960</ele>
<time>2017-05-17T05:51:27.606Z</time>
</trkpt>
<trkpt lat="-26.9942176" lon="152.7945624">
<ele>156.502</ele>
<time>2017-05-17T05:51:29.609Z</time>
</trkpt>
<trkpt lat="-26.9948388" lon="152.7944191">
<ele>159.333</ele>
<time>2017-05-17T05:51:32.669Z</time>
</trkpt>
<trkpt lat="-26.9952538" lon="152.7943850">
<ele>161.696</ele>
<time>2017-05-17T05:51:34.665Z</time>
</trkpt>
<trkpt lat="-26.9958529" lon="152.7942630">
<ele>163.148</ele>
<time>2017-05-17T05:51:37.580Z</time>
</trkpt>
<trkpt lat="-26.9962644" lon="152.7942294">
<ele>163.717</ele>
<time>2017-05-17T05:51:39.563Z</time>
</trkpt>
<trkpt lat="-26.9968703" lon="152.7941402">
<ele>163.718</ele>
<time>2017-05-17T05:51:42.513Z</time>
</trkpt>
<trkpt lat="-26.9972695" lon="152.7940778">
<ele>163.521</ele>
<time>2017-05-17T05:51:44.470Z</time>
</trkpt>
<trkpt lat="-26.9976711" lon="152.7940126">
<ele>163.354</ele>
<time>2017-05-17T05:51:46.443Z</time>
</trkpt>
<trkpt lat="-26.9982809" lon="152.7939459">
<ele>163.304</ele>
<time>2017-05-17T05:51:49.424Z</time>
</trkpt>
<trkpt lat="-26.9986815" lon="152.7938942">
<ele>163.416</ele>
<time>2017-05-17T05:51:51.379Z</time>
</trkpt>
<trkpt lat="-26.9990734" lon="152.7938023">
<ele>163.694</ele>
<time>2017-05-17T05:51:53.319Z</time>
</trkpt>
<trkpt lat="-26.9994727" lon="152.7936901">
<ele>164.024</ele>
<time>2017-05-17T05:51:55.310Z</time>
</trkpt>
<trkpt lat="-27.0000329" lon="152.7933676">
<ele>164.271</ele>
<time>2017-05-17T05:51:58.369Z</time>
</trkpt>
<trkpt lat="-27.0003618" lon="152.7930881">
<ele>164.401</ele>
<time>2017-05-17T05:52:00.368Z</time>
</trkpt>
<trkpt lat="-27.0007852" lon="152.7925877">
<ele>164.391</ele>
<time>2017-05-17T05:52:03.338Z</time>
</trkpt>
<trkpt lat="-27.0009802" lon="152.7921845">
<ele>164.132</ele>
<time>2017-05-17T05:52:05.306Z</time>
</trkpt>
<trkpt lat="-27.0011880" lon="152.7915082">
<ele>163.603</ele>
<time>2017-05-17T05:52:08.372Z</time>
</trkpt>
<trkpt lat="-27.0012357" lon="152.7908522">
<ele>162.826</ele>
<time>2017-05-17T05:52:11.199Z</time>
</trkpt>
<trkpt lat="-27.0012907" lon="152.7901659">
<ele>161.615</ele>
<time>2017-05-17T05:52:14.172Z</time>
</trkpt>
<trkpt lat="-27.0013213" lon="152.7897383">
<ele>159.929</ele>
<time>2017-05-17T05:52:16.024Z</time>
</trkpt>
<trkpt lat="-27.0013750" lon="152.7892845">
<ele>158.221</ele>
<time>2017-05-17T05:52:17.998Z</time>
</trkpt>
<trkpt lat="-27.0014267" lon="152.7888380">
<ele>156.971</ele>
<time>2017-05-17T05:52:19.939Z</time>
</trkpt>
<trkpt lat="-27.0014743" lon="152.7881436">
<ele>156.295</ele>
<time>2017-05-17T05:52:22.978Z</time>
</trkpt>
<trkpt lat="-27.0014972" lon="152.7876814">
<ele>156.057</ele>
<time>2017-05-17T05:52:24.995Z</time>
</trkpt>
<trkpt lat="-27.0015456" lon="152.7872289">
<ele>155.980</ele>
<time>2017-05-17T05:52:26.970Z</time>
</trkpt>
<trkpt lat="-27.0016896" lon="152.7865603">
<ele>155.783</ele>
<time>2017-05-17T05:52:29.926Z</time>
</trkpt>
<trkpt lat="-27.0017752" lon="152.7861196">
<ele>155.373</ele>
<time>2017-05-17T05:52:31.869Z</time>
</trkpt>
<trkpt lat="-27.0020069" lon="152.7854886">
<ele>154.893</ele>
<time>2017-05-17T05:52:34.819Z</time>
</trkpt>
<trkpt lat="-27.0023015" lon="152.7848838">
<ele>154.689</ele>
<time>2017-05-17T05:52:37.810Z</time>
</trkpt>
<trkpt lat="-27.0025200" lon="152.7844638">
<ele>155.023</ele>
<time>2017-05-17T05:52:39.919Z</time>
</trkpt>
<trkpt lat="-27.0028123" lon="152.7840163">
<ele>155.854</ele>
<time>2017-05-17T05:52:42.319Z</time>
</trkpt>
<trkpt lat="-27.0030764" lon="152.7835506">
<ele>157.058</ele>
<time>2017-05-17T05:52:44.620Z</time>
</trkpt>
<trkpt lat="-27.0033474" lon="152.7830982">
<ele>158.459</ele>
<time>2017-05-17T05:52:46.697Z</time>
</trkpt>
<trkpt lat="-27.0037778" lon="152.7824200">
<ele>159.766</ele>
<time>2017-05-17T05:52:49.697Z</time>
</trkpt>
<trkpt lat="-27.0040422" lon="152.7819264">
<ele>160.760</ele>
<time>2017-05-17T05:52:51.753Z</time>
</trkpt>
<trkpt lat="-27.0044842" lon="152.7812355">
<ele>161.408</ele>
<time>2017-05-17T05:52:54.770Z</time>
</trkpt>
<trkpt lat="-27.0048096" lon="152.7808150">
<ele>161.931</ele>
<time>2017-05-17T05:52:56.740Z</time>
</trkpt>
<trkpt lat="-27.0051513" lon="152.7804041">
<ele>162.545</ele>
<time>2017-05-17T05:52:58.728Z</time>
</trkpt>
<trkpt lat="-27.0057241" lon="152.7798422">
<ele>163.133</ele>
<time>2017-05-17T05:53:01.746Z</time>
</trkpt>
<trkpt lat="-27.0063557" lon="152.7793945">
<ele>163.537</ele>
<time>2017-05-17T05:53:04.699Z</time>
</trkpt>
<trkpt lat="-27.0070298" lon="152.7790116">
<ele>163.885</ele>
<time>2017-05-17T05:53:07.685Z</time>
</trkpt>
<trkpt lat="-27.0074865" lon="152.7788006">
<ele>164.350</ele>
<time>2017-05-17T05:53:09.638Z</time>
</trkpt>
<trkpt lat="-27.0079525" lon="152.7786226">
<ele>164.915</ele>
<time>2017-05-17T05:53:11.586Z</time>
</trkpt>
<trkpt lat="-27.0084353" lon="152.7784940">
<ele>165.443</ele>
<time>2017-05-17T05:53:13.556Z</time>
</trkpt>
<trkpt lat="-27.0091646" lon="152.7783393">
<ele>165.853</ele>
<time>2017-05-17T05:53:16.521Z</time>
</trkpt>
<trkpt lat="-27.0096671" lon="152.7783518">
<ele>166.301</ele>
<time>2017-05-17T05:53:18.531Z</time>
</trkpt>
<trkpt lat="-27.0104160" lon="152.7783508">
<ele>167.165</ele>
<time>2017-05-17T05:53:21.523Z</time>
</trkpt>
<trkpt lat="-27.0109124" lon="152.7784011">
<ele>168.793</ele>
<time>2017-05-17T05:53:23.509Z</time>
</trkpt>
<trkpt lat="-27.0114277" lon="152.7784918">
<ele>171.143</ele>
<time>2017-05-17T05:53:25.585Z</time>
</trkpt>
<trkpt lat="-27.0121811" lon="152.7786263">
<ele>173.759</ele>
<time>2017-05-17T05:53:28.615Z</time>
</trkpt>
<trkpt lat="-27.0126886" lon="152.7786986">
<ele>176.319</ele>
<time>2017-05-17T05:53:30.633Z</time>
</trkpt>
<trkpt lat="-27.0131978" lon="152.7787921">
<ele>178.719</ele>
<time>2017-05-17T05:53:32.664Z</time>
</trkpt>
<trkpt lat="-27.0139245" lon="152.7788687">
<ele>180.684</ele>
<time>2017-05-17T05:53:35.520Z</time>
</trkpt>
<trkpt lat="-27.0146849" lon="152.7789358">
<ele>182.135</ele>
<time>2017-05-17T05:53:38.513Z</time>
</trkpt>
<trkpt lat="-27.0154336" lon="152.7788742">
<ele>183.352</ele>
<time>2017-05-17T05:53:41.474Z</time>
</trkpt>
<trkpt lat="-27.0159453" lon="152.7788929">
<ele>184.525</ele>
<time>2017-05-17T05:53:43.494Z</time>
</trkpt>
<trkpt lat="-27.0164363" lon="152.7789725">
<ele>185.557</ele>
<time>2017-05-17T05:53:45.450Z</time>
</trkpt>
<trkpt lat="-27.0171708" lon="152.7790692">
<ele>186.403</ele>
<time>2017-05-17T05:53:48.352Z</time>
</trkpt>
<trkpt lat="-27.0176668" lon="152.7791156">
<ele>187.446</ele>
<time>2017-05-17T05:53:50.314Z</time>
</trkpt>
<trkpt lat="-27.0181637" lon="152.7791760">
<ele>189.052</ele>
<time>2017-05-17T05:53:52.291Z</time>
</trkpt>
<trkpt lat="-27.0186631" lon="152.7792592">
<ele>191.080</ele>
<time>2017-05-17T05:53:54.289Z</time>
</trkpt>
<trkpt lat="-27.0193717" lon="152.7795543">
<ele>193.231</ele>
<time>2017-05-17T05:53:57.272Z</time>
</trkpt>
<trkpt lat="-27.0200823" lon="152.7798147">
<ele>195.522</ele>
<time>2017-05-17T05:54:00.212Z</time>
</trkpt>
<trkpt lat="-27.0205478" lon="152.7800057">
<ele>198.206</ele>
<time>2017-05-17T05:54:02.161Z</time>
</trkpt>
<trkpt lat="-27.0212452" lon="152.7802988">
<ele>201.224</ele>
<time>2017-05-17T05:54:05.097Z</time>
</trkpt>
<trkpt lat="-27.0218934" lon="152.7805520">
<ele>204.217</ele>
<time>2017-05-17T05:54:07.816Z</time>
</trkpt>
<trkpt lat="-27.0222729" lon="152.7807190">
<ele>206.880</ele>
<time>2017-05-17T05:54:09.452Z</time>
</trkpt>
<trkpt lat="-27.0226105" lon="152.7808586">
<ele>208.900</ele>
<time>2017-05-17T05:54:10.941Z</time>
</trkpt>
<trkpt lat="-27.0230564" lon="152.7810082">
<ele>210.118</ele>
<time>2017-05-17T05:54:12.953Z</time>
</trkpt>
<trkpt lat="-27.0233697" lon="152.7810008">
<ele>210.791</ele>
<time>2017-05-17T05:54:14.414Z</time>
</trkpt>
<trkpt lat="-27.0238280" lon="152.7807439">
<ele>211.348</ele>
<time>2017-05-17T05:54:17.110Z</time>
</trkpt>
<trkpt lat="-27.0240139" lon="152.7804012">
<ele>212.305</ele>
<time>2017-05-17T05:54:19.165Z</time>
</trkpt>
<trkpt lat="-27.0240841" lon="152.7800638">
<ele>213.924</ele>
<time>2017-05-17T05:54:21.126Z</time>
</trkpt>
<trkpt lat="-27.0241687" lon="152.7796371">
<ele>215.892</ele>
<time>2017-05-17T05:54:23.577Z</time>
</trkpt>
<trkpt lat="-27.0245157" lon="152.7794566">
<ele>217.807</ele>
<time>2017-05-17T05:54:25.924Z</time>
</trkpt>
<trkpt lat="-27.0248311" lon="152.7795103">
<ele>219.748</ele>
<time>2017-05-17T05:54:27.902Z</time>
</trkpt>
<trkpt lat="-27.0251821" lon="152.7795016">
<ele>221.964</ele>
<time>2017-05-17T05:54:30.364Z</time>
</trkpt>
<trkpt lat="-27.0254646" lon="152.7793698">
<ele>224.514</ele>
<time>2017-05-17T05:54:32.667Z</time>
</trkpt>
<trkpt lat="-27.0257539" lon="152.7790951">
<ele>227.228</ele>
<time>2017-05-17T05:54:35.508Z</time>
</trkpt>
<trkpt lat="-27.0257809" lon="152.7788132">
<ele>229.942</ele>
<time>2017-05-17T05:54:37.253Z</time>
</trkpt>
<trkpt lat="-27.0257335" lon="152.7784233">
<ele>232.501</ele>
<time>2017-05-17T05:54:39.562Z</time>
</trkpt>
<trkpt lat="-27.0258728" lon="152.7781261">
<ele>234.642</ele>
<time>2017-05-17T05:54:41.623Z</time>
</trkpt>
<trkpt lat="-27.0262252" lon="152.7782856">
<ele>236.107</ele>
<time>2017-05-17T05:54:44.420Z</time>
</trkpt>
<trkpt lat="-27.0264537" lon="152.7785326">
<ele>236.909</ele>
<time>2017-05-17T05:54:47.020Z</time>
</trkpt>
<trkpt lat="-27.0266939" lon="152.7787861">
<ele>237.260</ele>
<time>2017-05-17T05:54:50.070Z</time>
</trkpt>
<trkpt lat="-27.0269913" lon="152.7792145">
<ele>237.268</ele>
<time>2017-05-17T05:54:54.315Z</time>
</trkpt>
<trkpt lat="-27.0273299" lon="152.7794350">
<ele>236.499</ele>
<time>2017-05-17T05:54:56.874Z</time>
</trkpt>
<trkpt lat="-27.0276310" lon="152.7794191">
<ele>234.229</ele>
<time>2017-05-17T05:54:58.694Z</time>
</trkpt>
<trkpt lat="-27.0279082" lon="152.7792488">
<ele>230.635</ele>
<time>2017-05-17T05:55:00.579Z</time>
</trkpt>
<trkpt lat="-27.0282922" lon="152.7792291">
<ele>226.654</ele>
<time>2017-05-17T05:55:03.122Z</time>
</trkpt>
<trkpt lat="-27.0287063" lon="152.7793539">
<ele>222.647</ele>
<time>2017-05-17T05:55:06.161Z</time>
</trkpt>
<trkpt lat="-27.0290619" lon="152.7794155">
<ele>218.817</ele>
<time>2017-05-17T05:55:08.611Z</time>
</trkpt>
<trkpt lat="-27.0295197" lon="152.7793102">
<ele>215.459</ele>
<time>2017-05-17T05:55:11.653Z</time>
</trkpt>
<trkpt lat="-27.0302153" lon="152.7788896">
<ele>212.124</ele>
<time>2017-05-17T05:55:16.352Z</time>
</trkpt>
<trkpt lat="-27.0305358" lon="152.7786394">
<ele>208.423</ele>
<time>2017-05-17T05:55:18.596Z</time>
</trkpt>
<trkpt lat="-27.0310085" lon="152.7782592">
<ele>205.169</ele>
<time>2017-05-17T05:55:21.845Z</time>
</trkpt>
<trkpt lat="-27.0315385" lon="152.7780845">
<ele>203.428</ele>
<time>2017-05-17T05:55:24.707Z</time>
</trkpt>
<trkpt lat="-27.0319180" lon="152.7781133">
<ele>203.674</ele>
<time>2017-05-17T05:55:26.630Z</time>
</trkpt>
<trkpt lat="-27.0324208" lon="152.7781097">
<ele>205.351</ele>
<time>2017-05-17T05:55:29.211Z</time>
</trkpt>
<trkpt lat="-27.0327135" lon="152.7780341">
<ele>207.011</ele>
<time>2017-05-17T05:55:30.771Z</time>
</trkpt>
<trkpt lat="-27.0331234" lon="152.7777285">
<ele>207.523</ele>
<time>2017-05-17T05:55:33.435Z</time>
</trkpt>
<trkpt lat="-27.0333981" lon="152.7775785">
<ele>206.920</ele>
<time>2017-05-17T05:55:35.151Z</time>
</trkpt>
<trkpt lat="-27.0337379" lon="152.7771409">
<ele>205.910</ele>
<time>2017-05-17T05:55:38.420Z</time>
</trkpt>
<trkpt lat="-27.0340440" lon="152.7769208">
<ele>205.446</ele>
<time>2017-05-17T05:55:40.745Z</time>
</trkpt>
<trkpt lat="-27.0343799" lon="152.7766374">
<ele>206.134</ele>
<time>2017-05-17T05:55:43.356Z</time>
</trkpt>
<trkpt lat="-27.0347022" lon="152.7764568">
<ele>208.209</ele>
<time>2017-05-17T05:55:45.529Z</time>
</trkpt>
<trkpt lat="-27.0349428" lon="152.7765646">
<ele>211.819</ele>
<time>2017-05-17T05:55:47.038Z</time>
</trkpt>
<trkpt lat="-27.0352226" lon="152.7769374">
<ele>218.023</ele>
<time>2017-05-17T05:55:49.755Z</time>
</trkpt>
<trkpt lat="-27.0355477" lon="152.7770464">
<ele>227.131</ele>
<time>2017-05-17T05:55:52.311Z</time>
</trkpt>
<trkpt lat="-27.0358637" lon="152.7771858">
<ele>236.146</ele>
<time>2017-05-17T05:55:55.187Z</time>
</trkpt>
<trkpt lat="-27.0362644" lon="152.7774695">
<ele>241.593</ele>
<time>2017-05-17T05:55:58.854Z</time>
</trkpt>
<trkpt lat="-27.0367365" lon="152.7774342">
<ele>243.843</ele>
<time>2017-05-17T05:56:01.845Z</time>
</trkpt>
<trkpt lat="-27.0370907" lon="152.7773315">
<ele>245.544</ele>
<time>2017-05-17T05:56:04.051Z</time>
</trkpt>
<trkpt lat="-27.0373662" lon="152.7774531">
<ele>248.288</ele>
<time>2017-05-17T05:56:05.925Z</time>
</trkpt>
<trkpt lat="-27.0377842" lon="152.7773189">
<ele>251.823</ele>
<time>2017-05-17T05:56:08.910Z</time>
</trkpt>
<trkpt lat="-27.0380047" lon="152.7772451">
<ele>255.460</ele>
<time>2017-05-17T05:56:10.608Z</time>
</trkpt>
<trkpt lat="-27.0382991" lon="152.7773061">
<ele>258.864</ele>
<time>2017-05-17T05:56:12.835Z</time>
</trkpt>
<trkpt lat="-27.0385769" lon="152.7772443">
<ele>263.096</ele>
<time>2017-05-17T05:56:14.838Z</time>
</trkpt>
<trkpt lat="-27.0386986" lon="152.7771373">
<ele>269.284</ele>
<time>2017-05-17T05:56:15.927Z</time>
</trkpt>
<trkpt lat="-27.0389098" lon="152.7769861">
<ele>275.894</ele>
<time>2017-05-17T05:56:17.826Z</time>
</trkpt>
<trkpt lat="-27.0391287" lon="152.7769865">
<ele>280.617</ele>
<time>2017-05-17T05:56:19.775Z</time>
</trkpt>
<trkpt lat="-27.0393471" lon="152.7770951">
<ele>283.483</ele>
<time>2017-05-17T05:56:22.027Z</time>
</trkpt>
<trkpt lat="-27.0395495" lon="152.7772461">
<ele>285.693</ele>
<time>2017-05-17T05:56:24.487Z</time>
</trkpt>
<trkpt lat="-27.0397427" lon="152.7772825">
<ele>288.138</ele>
<time>2017-05-17T05:56:26.732Z</time>
</trkpt>
<trkpt lat="-27.0399296" lon="152.7772462">
<ele>290.930</ele>
<time>2017-05-17T05:56:29.104Z</time>
</trkpt>
<trkpt lat="-27.0401099" lon="152.7772356">
<ele>293.613</ele>
<time>2017-05-17T05:56:31.492Z</time>
</trkpt>
<trkpt lat="-27.0403921" lon="152.7772952">
<ele>295.874</ele>
<time>2017-05-17T05:56:35.257Z</time>
</trkpt>
<trkpt lat="-27.0406001" lon="152.7773623">
<ele>297.977</ele>
<time>2017-05-17T05:56:37.963Z</time>
</trkpt>
<trkpt lat="-27.0409396" lon="152.7774251">
<ele>300.283</ele>
<time>2017-05-17T05:56:41.988Z</time>
</trkpt>
<trkpt lat="-27.0415075" lon="152.7774890">
<ele>302.811</ele>
<time>2017-05-17T05:56:48.042Z</time>
</trkpt>
<trkpt lat="-27.0419429" lon="152.7775420">
<ele>305.629</ele>
<time>2017-05-17T05:56:52.131Z</time>
</trkpt>
<trkpt lat="-27.0426339" lon="152.7775741">
<ele>308.849</ele>
<time>2017-05-17T05:56:58.383Z</time>
</trkpt>
<trkpt lat="-27.0432684" lon="152.7776320">
<ele>312.443</ele>
<time>2017-05-17T05:57:03.430Z</time>
</trkpt>
<trkpt lat="-27.0439029" lon="152.7775296">
<ele>316.471</ele>
<time>2017-05-17T05:57:06.719Z</time>
</trkpt>
<trkpt lat="-27.0442924" lon="152.7772895">
<ele>320.892</ele>
<time>2017-05-17T05:57:08.768Z</time>
</trkpt>
<trkpt lat="-27.0448961" lon="152.7770596">
<ele>325.350</ele>
<time>2017-05-17T05:57:11.877Z</time>
</trkpt>
<trkpt lat="-27.0452097" lon="152.7768817">
<ele>329.855</ele>
<time>2017-05-17T05:57:14.080Z</time>
</trkpt>
<trkpt lat="-27.0454253" lon="152.7767949">
<ele>334.674</ele>
<time>2017-05-17T05:57:15.842Z</time>
</trkpt>
<trkpt lat="-27.0455913" lon="152.7764036">
<ele>339.664</ele>
<time>2017-05-17T05:57:18.881Z</time>
</trkpt>
<trkpt lat="-27.0456627" lon="152.7759969">
<ele>344.859</ele>
<time>2017-05-17T05:57:21.841Z</time>
</trkpt>
<trkpt lat="-27.0459969" lon="152.7757359">
<ele>350.680</ele>
<time>2017-05-17T05:57:25.044Z</time>
</trkpt>
<trkpt lat="-27.0462798" lon="152.7754567">
<ele>356.928</ele>
<time>2017-05-17T05:57:27.805Z</time>
</trkpt>
<trkpt lat="-27.0463756" lon="152.7749724">
<ele>362.793</ele>
<time>2017-05-17T05:57:30.714Z</time>
</trkpt>
<trkpt lat="-27.0462980" lon="152.7745867">
<ele>367.822</ele>
<time>2017-05-17T05:57:32.871Z</time>
</trkpt>
<trkpt lat="-27.0462644" lon="152.7740272">
<ele>372.139</ele>
<time>2017-05-17T05:57:36.070Z</time>
</trkpt>
<trkpt lat="-27.0461145" lon="152.7735437">
<ele>376.257</ele>
<time>2017-05-17T05:57:39.062Z</time>
</trkpt>
<trkpt lat="-27.0462329" lon="152.7730112">
<ele>380.785</ele>
<time>2017-05-17T05:57:42.185Z</time>
</trkpt>
<trkpt lat="-27.0463402" lon="152.7726967">
<ele>386.042</ele>
<time>2017-05-17T05:57:44.075Z</time>
</trkpt>
<trkpt lat="-27.0465406" lon="152.7724055">
<ele>391.673</ele>
<time>2017-05-17T05:57:46.045Z</time>
</trkpt>
<trkpt lat="-27.0470277" lon="152.7721233">
<ele>397.087</ele>
<time>2017-05-17T05:57:49.267Z</time>
</trkpt>
<trkpt lat="-27.0475138" lon="152.7718927">
<ele>402.237</ele>
<time>2017-05-17T05:57:52.300Z</time>
</trkpt>
<trkpt lat="-27.0478409" lon="152.7717308">
<ele>407.370</ele>
<time>2017-05-17T05:57:54.325Z</time>
</trkpt>
<trkpt lat="-27.0483290" lon="152.7715057">
<ele>412.053</ele>
<time>2017-05-17T05:57:57.334Z</time>
</trkpt>
<trkpt lat="-27.0486467" lon="152.7713525">
<ele>415.749</ele>
<time>2017-05-17T05:57:59.320Z</time>
</trkpt>
<trkpt lat="-27.0491073" lon="152.7711032">
<ele>418.503</ele>
<time>2017-05-17T05:58:02.273Z</time>
</trkpt>
<trkpt lat="-27.0495942" lon="152.7709346">
<ele>420.700</ele>
<time>2017-05-17T05:58:05.202Z</time>
</trkpt>
<trkpt lat="-27.0501033" lon="152.7708588">
<ele>422.844</ele>
<time>2017-05-17T05:58:08.097Z</time>
</trkpt>
<trkpt lat="-27.0506335" lon="152.7709608">
<ele>425.205</ele>
<time>2017-05-17T05:58:11.062Z</time>
</trkpt>
<trkpt lat="-27.0509672" lon="152.7711130">
<ele>427.408</ele>
<time>2017-05-17T05:58:12.975Z</time>
</trkpt>
<trkpt lat="-27.0514462" lon="152.7714610">
<ele>428.876</ele>
<time>2017-05-17T05:58:15.934Z</time>
</trkpt>
<trkpt lat="-27.0519008" lon="152.7718664">
<ele>429.297</ele>
<time>2017-05-17T05:58:18.857Z</time>
</trkpt>
<trkpt lat="-27.0523564" lon="152.7723007">
<ele>428.672</ele>
<time>2017-05-17T05:58:21.822Z</time>
</trkpt>
<trkpt lat="-27.0526628" lon="152.7725863">
<ele>427.268</ele>
<time>2017-05-17T05:58:23.785Z</time>
</trkpt>
<trkpt lat="-27.0529717" lon="152.7728727">
<ele>425.610</ele>
<time>2017-05-17T05:58:25.757Z</time>
</trkpt>
<trkpt lat="-27.0534384" lon="152.7732957">
<ele>424.179</ele>
<time>2017-05-17T05:58:28.708Z</time>
</trkpt>
<trkpt lat="-27.0537762" lon="152.7735483">
<ele>423.079</ele>
<time>2017-05-17T05:58:30.745Z</time>
</trkpt>
<trkpt lat="-27.0543187" lon="152.7737510">
<ele>422.031</ele>
<time>2017-05-17T05:58:33.702Z</time>
</trkpt>
<trkpt lat="-27.0546715" lon="152.7738437">
<ele>420.726</ele>
<time>2017-05-17T05:58:35.692Z</time>
</trkpt>
<trkpt lat="-27.0550078" lon="152.7739208">
<ele>419.230</ele>
<time>2017-05-17T05:58:37.708Z</time>
</trkpt>
<trkpt lat="-27.0554659" lon="152.7740443">
<ele>417.875</ele>
<time>2017-05-17T05:58:40.630Z</time>
</trkpt>
<trkpt lat="-27.0557561" lon="152.7741001">
<ele>416.822</ele>
<time>2017-05-17T05:58:42.606Z</time>
</trkpt>
<trkpt lat="-27.0561741" lon="152.7741839">
<ele>416.044</ele>
<time>2017-05-17T05:58:45.553Z</time>
</trkpt>
<trkpt lat="-27.0565740" lon="152.7742887">
<ele>415.563</ele>
<time>2017-05-17T05:58:48.502Z</time>
</trkpt>
<trkpt lat="-27.0568344" lon="152.7743393">
<ele>415.368</ele>
<time>2017-05-17T05:58:50.421Z</time>
</trkpt>
<trkpt lat="-27.0571083" lon="152.7744141">
<ele>415.377</ele>
<time>2017-05-17T05:58:52.481Z</time>
</trkpt>
<trkpt lat="-27.0574824" lon="152.7745279">
<ele>415.541</ele>
<time>2017-05-17T05:58:55.346Z</time>
</trkpt>
<trkpt lat="-27.0577493" lon="152.7746054">
<ele>415.836</ele>
<time>2017-05-17T05:58:57.406Z</time>
</trkpt>
<trkpt lat="-27.0581237" lon="152.7747376">
<ele>416.192</ele>
<time>2017-05-17T05:59:00.361Z</time>
</trkpt>
<trkpt lat="-27.0584802" lon="152.7748827">
<ele>416.524</ele>
<time>2017-05-17T05:59:03.269Z</time>
</trkpt>
<trkpt lat="-27.0588163" lon="152.7750722">
<ele>416.784</ele>
<time>2017-05-17T05:59:06.197Z</time>
</trkpt>
<trkpt lat="-27.0590110" lon="152.7752635">
<ele>416.975</ele>
<time>2017-05-17T05:59:08.236Z</time>
</trkpt>
<trkpt lat="-27.0592853" lon="152.7755437">
<ele>417.159</ele>
<time>2017-05-17T05:59:11.177Z</time>
</trkpt>
<trkpt lat="-27.0595374" lon="152.7758712">
<ele>417.518</ele>
<time>2017-05-17T05:59:14.212Z</time>
</trkpt>
<trkpt lat="-27.0597683" lon="152.7762159">
<ele>418.292</ele>
<time>2017-05-17T05:59:17.171Z</time>
</trkpt>
<trkpt lat="-27.0599602" lon="152.7764278">
<ele>419.546</ele>
<time>2017-05-17T05:59:19.120Z</time>
</trkpt>
<trkpt lat="-27.0602179" lon="152.7768418">
<ele>420.991</ele>
<time>2017-05-17T05:59:22.169Z</time>
</trkpt>
<trkpt lat="-27.0604121" lon="152.7771297">
<ele>422.351</ele>
<time>2017-05-17T05:59:24.171Z</time>
</trkpt>
<trkpt lat="-27.0606334" lon="152.7774186">
<ele>423.587</ele>
<time>2017-05-17T05:59:26.154Z</time>
</trkpt>
<trkpt lat="-27.0610037" lon="152.7779042">
<ele>424.755</ele>
<time>2017-05-17T05:59:29.243Z</time>
</trkpt>
<trkpt lat="-27.0613064" lon="152.7782437">
<ele>426.053</ele>
<time>2017-05-17T05:59:31.350Z</time>
</trkpt>
<trkpt lat="-27.0617288" lon="152.7787474">
<ele>427.590</ele>
<time>2017-05-17T05:59:34.348Z</time>
</trkpt>
<trkpt lat="-27.0620341" lon="152.7790411">
<ele>429.324</ele>
<time>2017-05-17T05:59:36.334Z</time>
</trkpt>
<trkpt lat="-27.0625033" lon="152.7794632">
<ele>431.321</ele>
<time>2017-05-17T05:59:39.328Z</time>
</trkpt>
<trkpt lat="-27.0629653" lon="152.7798699">
<ele>433.746</ele>
<time>2017-05-17T05:59:42.273Z</time>
</trkpt>
<trkpt lat="-27.0632844" lon="152.7801243">
<ele>436.713</ele>
<time>2017-05-17T05:59:44.254Z</time>
</trkpt>
<trkpt lat="-27.0635970" lon="152.7803886">
<ele>439.779</ele>
<time>2017-05-17T05:59:46.258Z</time>
</trkpt>
<trkpt lat="-27.0640998" lon="152.7807115">
<ele>441.949</ele>
<time>2017-05-17T05:59:49.234Z</time>
</trkpt>
<trkpt lat="-27.0644744" lon="152.7808516">
<ele>442.824</ele>
<time>2017-05-17T05:59:51.242Z</time>
</trkpt>
<trkpt lat="-27.0650663" lon="152.7809102">
<ele>443.208</ele>
<time>2017-05-17T05:59:54.226Z</time>
</trkpt>
<trkpt lat="-27.0655124" lon="152.7808967">
<ele>444.732</ele>
<time>2017-05-17T05:59:56.441Z</time>
</trkpt>
<trkpt lat="-27.0661188" lon="152.7808904">
<ele>448.278</ele>
<time>2017-05-17T05:59:59.450Z</time>
</trkpt>
<trkpt lat="-27.0665204" lon="152.7809022">
<ele>453.233</ele>
<time>2017-05-17T06:00:01.455Z</time>
</trkpt>
<trkpt lat="-27.0669094" lon="152.7809524">
<ele>458.384</ele>
<time>2017-05-17T06:00:03.404Z</time>
</trkpt>
<trkpt lat="-27.0674962" lon="152.7810727">
<ele>462.719</ele>
<time>2017-05-17T06:00:06.361Z</time>
</trkpt>
<trkpt lat="-27.0678897" lon="152.7811507">
<ele>465.891</ele>
<time>2017-05-17T06:00:08.333Z</time>
</trkpt>
<trkpt lat="-27.0684887" lon="152.7812017">
<ele>468.177</ele>
<time>2017-05-17T06:00:11.301Z</time>
</trkpt>
<trkpt lat="-27.0688823" lon="152.7812915">
<ele>469.773</ele>
<time>2017-05-17T06:00:13.277Z</time>
</trkpt>
<trkpt lat="-27.0694734" lon="152.7814354">
<ele>470.730</ele>
<time>2017-05-17T06:00:16.238Z</time>
</trkpt>
<trkpt lat="-27.0698549" lon="152.7815723">
<ele>471.076</ele>
<time>2017-05-17T06:00:18.197Z</time>
</trkpt>
<trkpt lat="-27.0704398" lon="152.7816972">
<ele>470.800</ele>
<time>2017-05-17T06:00:21.118Z</time>
</trkpt>
<trkpt lat="-27.0708393" lon="152.7817138">
<ele>469.853</ele>
<time>2017-05-17T06:00:23.091Z</time>
</trkpt>
<trkpt lat="-27.0714325" lon="152.7816302">
<ele>468.396</ele>
<time>2017-05-17T06:00:26.050Z</time>
</trkpt>
<trkpt lat="-27.0720308" lon="152.7816918">
<ele>466.885</ele>
<time>2017-05-17T06:00:29.007Z</time>
</trkpt>
<trkpt lat="-27.0726182" lon="152.7818604">
<ele>465.482</ele>
<time>2017-05-17T06:00:31.961Z</time>
</trkpt>
<trkpt lat="-27.0730055" lon="152.7819938">
<ele>463.659</ele>
<time>2017-05-17T06:00:33.930Z</time>
</trkpt>
<trkpt lat="-27.0736029" lon="152.7819894">
<ele>461.398</ele>
<time>2017-05-17T06:00:36.861Z</time>
</trkpt>
<trkpt lat="-27.0739941" lon="152.7818929">
<ele>460.314</ele>
<time>2017-05-17T06:00:38.858Z</time>
</trkpt>
<trkpt lat="-27.0745689" lon="152.7817569">
<ele>461.649</ele>
<time>2017-05-17T06:00:41.808Z</time>
</trkpt>
<trkpt lat="-27.0751535" lon="152.7818613">
<ele>464.187</ele>
<time>2017-05-17T06:00:44.777Z</time>
</trkpt>
<trkpt lat="-27.0757329" lon="152.7819937">
<ele>465.811</ele>
<time>2017-05-17T06:00:47.736Z</time>
</trkpt>
<trkpt lat="-27.0761284" lon="152.7820483">
<ele>465.870</ele>
<time>2017-05-17T06:00:49.717Z</time>
</trkpt>
<trkpt lat="-27.0767242" lon="152.7819388">
<ele>465.137</ele>
<time>2017-05-17T06:00:52.700Z</time>
</trkpt>
<trkpt lat="-27.0772743" lon="152.7816438">
<ele>464.313</ele>
<time>2017-05-17T06:00:55.711Z</time>
</trkpt>
<trkpt lat="-27.0776226" lon="152.7814341">
<ele>463.580</ele>
<time>2017-05-17T06:00:57.679Z</time>
</trkpt>
<trkpt lat="-27.0780893" lon="152.7809800">
<ele>463.214</ele>
<time>2017-05-17T06:01:00.770Z</time>
</trkpt>
<trkpt lat="-27.0783430" lon="152.7806306">
<ele>463.759</ele>
<time>2017-05-17T06:01:02.774Z</time>
</trkpt>
<trkpt lat="-27.0786055" lon="152.7802882">
<ele>465.470</ele>
<time>2017-05-17T06:01:04.799Z</time>
</trkpt>
<trkpt lat="-27.0789495" lon="152.7797754">
<ele>467.979</ele>
<time>2017-05-17T06:01:07.804Z</time>
</trkpt>
<trkpt lat="-27.0790995" lon="152.7792640">
<ele>470.823</ele>
<time>2017-05-17T06:01:10.586Z</time>
</trkpt>
<trkpt lat="-27.0791736" lon="152.7787613">
<ele>473.720</ele>
<time>2017-05-17T06:01:13.477Z</time>
</trkpt>
<trkpt lat="-27.0792169" lon="152.7784295">
<ele>476.389</ele>
<time>2017-05-17T06:01:15.420Z</time>
</trkpt>
<trkpt lat="-27.0792337" lon="152.7779039">
<ele>478.740</ele>
<time>2017-05-17T06:01:18.421Z</time>
</trkpt>
<trkpt lat="-27.0792503" lon="152.7773590">
<ele>480.975</ele>
<time>2017-05-17T06:01:21.460Z</time>
</trkpt>
<trkpt lat="-27.0792031" lon="152.7768316">
<ele>482.983</ele>
<time>2017-05-17T06:01:24.402Z</time>
</trkpt>
<trkpt lat="-27.0791371" lon="152.7764890">
<ele>484.212</ele>
<time>2017-05-17T06:01:26.384Z</time>
</trkpt>
<trkpt lat="-27.0790400" lon="152.7761706">
<ele>484.418</ele>
<time>2017-05-17T06:01:28.329Z</time>
</trkpt>
<trkpt lat="-27.0789807" lon="152.7758452">
<ele>484.038</ele>
<time>2017-05-17T06:01:30.281Z</time>
</trkpt>
<trkpt lat="-27.0789408" lon="152.7753383">
<ele>483.620</ele>
<time>2017-05-17T06:01:33.251Z</time>
</trkpt>
<trkpt lat="-27.0789577" lon="152.7749850">
<ele>483.508</ele>
<time>2017-05-17T06:01:35.276Z</time>
</trkpt>
<trkpt lat="-27.0791177" lon="152.7744857">
<ele>483.709</ele>
<time>2017-05-17T06:01:38.286Z</time>
</trkpt>
<trkpt lat="-27.0793435" lon="152.7740454">
<ele>483.965</ele>
<time>2017-05-17T06:01:41.207Z</time>
</trkpt>
<trkpt lat="-27.0795744" lon="152.7736041">
<ele>484.069</ele>
<time>2017-05-17T06:01:44.187Z</time>
</trkpt>
<trkpt lat="-27.0797688" lon="152.7733143">
<ele>484.028</ele>
<time>2017-05-17T06:01:46.272Z</time>
</trkpt>
<trkpt lat="-27.0800005" lon="152.7730620">
<ele>483.837</ele>
<time>2017-05-17T06:01:48.301Z</time>
</trkpt>
<trkpt lat="-27.0802632" lon="152.7728619">
<ele>483.327</ele>
<time>2017-05-17T06:01:50.267Z</time>
</trkpt>
<trkpt lat="-27.0805857" lon="152.7724870">
<ele>482.377</ele>
<time>2017-05-17T06:01:53.176Z</time>
</trkpt>
<trkpt lat="-27.0807654" lon="152.7720047">
<ele>481.287</ele>
<time>2017-05-17T06:01:56.130Z</time>
</trkpt>
<trkpt lat="-27.0808122" lon="152.7716521">
<ele>480.479</ele>
<time>2017-05-17T06:01:58.141Z</time>
</trkpt>
<trkpt lat="-27.0808348" lon="152.7711296">
<ele>480.047</ele>
<time>2017-05-17T06:02:01.084Z</time>
</trkpt>
<trkpt lat="-27.0806712" lon="152.7706437">
<ele>479.940</ele>
<time>2017-05-17T06:02:04.012Z</time>
</trkpt>
<trkpt lat="-27.0805709" lon="152.7703411">
<ele>480.361</ele>
<time>2017-05-17T06:02:05.901Z</time>
</trkpt>
<trkpt lat="-27.0806600" lon="152.7698804">
<ele>481.444</ele>
<time>2017-05-17T06:02:08.793Z</time>
</trkpt>
<trkpt lat="-27.0808628" lon="152.7694099">
<ele>482.956</ele>
<time>2017-05-17T06:02:11.914Z</time>
</trkpt>
<trkpt lat="-27.0808899" lon="152.7690435">
<ele>484.546</ele>
<time>2017-05-17T06:02:13.980Z</time>
</trkpt>
<trkpt lat="-27.0808905" lon="152.7685000">
<ele>485.980</ele>
<time>2017-05-17T06:02:16.943Z</time>
</trkpt>
<trkpt lat="-27.0809505" lon="152.7679145">
<ele>487.287</ele>
<time>2017-05-17T06:02:20.039Z</time>
</trkpt>
<trkpt lat="-27.0809427" lon="152.7674388">
<ele>489.019</ele>
<time>2017-05-17T06:02:22.203Z</time>
</trkpt>
<trkpt lat="-27.0809855" lon="152.7666062">
<ele>491.550</ele>
<time>2017-05-17T06:02:25.420Z</time>
</trkpt>
<trkpt lat="-27.0810277" lon="152.7660121">
<ele>494.334</ele>
<time>2017-05-17T06:02:27.566Z</time>
</trkpt>
<trkpt lat="-27.0810407" lon="152.7655108">
<ele>496.406</ele>
<time>2017-05-17T06:02:29.408Z</time>
</trkpt>
<trkpt lat="-27.0810991" lon="152.7650309">
<ele>497.350</ele>
<time>2017-05-17T06:02:31.281Z</time>
</trkpt>
<trkpt lat="-27.0813226" lon="152.7643758">
<ele>497.466</ele>
<time>2017-05-17T06:02:34.139Z</time>
</trkpt>
<trkpt lat="-27.0817386" lon="152.7638599">
<ele>497.335</ele>
<time>2017-05-17T06:02:37.079Z</time>
</trkpt>
<trkpt lat="-27.0819931" lon="152.7635223">
<ele>497.328</ele>
<time>2017-05-17T06:02:38.999Z</time>
</trkpt>
<trkpt lat="-27.0823242" lon="152.7630107">
<ele>497.466</ele>
<time>2017-05-17T06:02:41.876Z</time>
</trkpt>
<trkpt lat="-27.0824602" lon="152.7626191">
<ele>497.165</ele>
<time>2017-05-17T06:02:43.869Z</time>
</trkpt>
<trkpt lat="-27.0824680" lon="152.7621933">
<ele>495.767</ele>
<time>2017-05-17T06:02:45.909Z</time>
</trkpt>
<trkpt lat="-27.0824087" lon="152.7617770">
<ele>493.573</ele>
<time>2017-05-17T06:02:47.923Z</time>
</trkpt>
<trkpt lat="-27.0822871" lon="152.7611559">
<ele>491.519</ele>
<time>2017-05-17T06:02:50.983Z</time>
</trkpt>
<trkpt lat="-27.0823107" lon="152.7607912">
<ele>490.024</ele>
<time>2017-05-17T06:02:52.831Z</time>
</trkpt>
<trkpt lat="-27.0824978" lon="152.7604938">
<ele>488.897</ele>
<time>2017-05-17T06:02:54.806Z</time>
</trkpt>
<trkpt lat="-27.0829862" lon="152.7602495">
<ele>487.860</ele>
<time>2017-05-17T06:02:58.060Z</time>
</trkpt>
<trkpt lat="-27.0835205" lon="152.7600437">
<ele>486.974</ele>
<time>2017-05-17T06:03:01.310Z</time>
</trkpt>
<trkpt lat="-27.0838406" lon="152.7597837">
<ele>486.568</ele>
<time>2017-05-17T06:03:03.479Z</time>
</trkpt>
<trkpt lat="-27.0840946" lon="152.7594084">
<ele>486.910</ele>
<time>2017-05-17T06:03:05.614Z</time>
</trkpt>
<trkpt lat="-27.0845114" lon="152.7588669">
<ele>487.964</ele>
<time>2017-05-17T06:03:08.654Z</time>
</trkpt>
<trkpt lat="-27.0849326" lon="152.7583491">
<ele>489.543</ele>
<time>2017-05-17T06:03:11.571Z</time>
</trkpt>
<trkpt lat="-27.0852003" lon="152.7580123">
<ele>491.578</ele>
<time>2017-05-17T06:03:13.489Z</time>
</trkpt>
<trkpt lat="-27.0855642" lon="152.7574640">
<ele>493.938</ele>
<time>2017-05-17T06:03:16.436Z</time>
</trkpt>
<trkpt lat="-27.0858362" lon="152.7568276">
<ele>496.214</ele>
<time>2017-05-17T06:03:19.382Z</time>
</trkpt>
<trkpt lat="-27.0859293" lon="152.7560217">
<ele>498.201</ele>
<time>2017-05-17T06:03:22.538Z</time>
</trkpt>
<trkpt lat="-27.0861449" lon="152.7552684">
<ele>500.038</ele>
<time>2017-05-17T06:03:25.487Z</time>
</trkpt>
<trkpt lat="-27.0865098" lon="152.7545538">
<ele>501.753</ele>
<time>2017-05-17T06:03:28.498Z</time>
</trkpt>
<trkpt lat="-27.0867890" lon="152.7541023">
<ele>503.315</ele>
<time>2017-05-17T06:03:30.488Z</time>
</trkpt>
<trkpt lat="-27.0870096" lon="152.7536144">
<ele>504.737</ele>
<time>2017-05-17T06:03:32.468Z</time>
</trkpt>
<trkpt lat="-27.0872202" lon="152.7528061">
<ele>506.106</ele>
<time>2017-05-17T06:03:35.483Z</time>
</trkpt>
<trkpt lat="-27.0873287" lon="152.7522558">
<ele>507.823</ele>
<time>2017-05-17T06:03:37.485Z</time>
</trkpt>
<trkpt lat="-27.0875132" lon="152.7514514">
<ele>509.830</ele>
<time>2017-05-17T06:03:40.450Z</time>
</trkpt>
<trkpt lat="-27.0877128" lon="152.7506629">
<ele>511.293</ele>
<time>2017-05-17T06:03:43.401Z</time>
</trkpt>
<trkpt lat="-27.0879369" lon="152.7498865">
<ele>512.041</ele>
<time>2017-05-17T06:03:46.354Z</time>
</trkpt>
<trkpt lat="-27.0881250" lon="152.7491117">
<ele>513.222</ele>
<time>2017-05-17T06:03:49.293Z</time>
</trkpt>
<trkpt lat="-27.0882575" lon="152.7486199">
<ele>515.910</ele>
<time>2017-05-17T06:03:51.217Z</time>
</trkpt>
<trkpt lat="-27.0884108" lon="152.7481545">
<ele>519.783</ele>
<time>2017-05-17T06:03:53.127Z</time>
</trkpt>
<trkpt lat="-27.0888218" lon="152.7475502">
<ele>523.685</ele>
<time>2017-05-17T06:03:56.095Z</time>
</trkpt>
<trkpt lat="-27.0893609" lon="152.7470706">
<ele>526.793</ele>
<time>2017-05-17T06:03:59.079Z</time>
</trkpt>
<trkpt lat="-27.0899813" lon="152.7467876">
<ele>528.837</ele>
<time>2017-05-17T06:04:02.017Z</time>
</trkpt>
<trkpt lat="-27.0904365" lon="152.7466945">
<ele>529.971</ele>
<time>2017-05-17T06:04:04.099Z</time>
</trkpt>
<trkpt lat="-27.0910852" lon="152.7467270">
<ele>530.494</ele>
<time>2017-05-17T06:04:07.010Z</time>
</trkpt>
<trkpt lat="-27.0917395" lon="152.7470051">
<ele>530.364</ele>
<time>2017-05-17T06:04:10.021Z</time>
</trkpt>
<trkpt lat="-27.0921449" lon="152.7472856">
<ele>529.411</ele>
<time>2017-05-17T06:04:11.970Z</time>
</trkpt>
<trkpt lat="-27.0927424" lon="152.7477779">
<ele>527.826</ele>
<time>2017-05-17T06:04:14.956Z</time>
</trkpt>
<trkpt lat="-27.0932812" lon="152.7482858">
<ele>525.857</ele>
<time>2017-05-17T06:04:17.862Z</time>
</trkpt>
<trkpt lat="-27.0937116" lon="152.7486134">
<ele>523.418</ele>
<time>2017-05-17T06:04:20.062Z</time>
</trkpt>
<trkpt lat="-27.0943488" lon="152.7488202">
<ele>520.660</ele>
<time>2017-05-17T06:04:22.902Z</time>
</trkpt>
<trkpt lat="-27.0948045" lon="152.7488380">
<ele>517.974</ele>
<time>2017-05-17T06:04:24.851Z</time>
</trkpt>
<trkpt lat="-27.0955919" lon="152.7486887">
<ele>515.484</ele>
<time>2017-05-17T06:04:28.098Z</time>
</trkpt>
<trkpt lat="-27.0964520" lon="152.7485073">
<ele>512.996</ele>
<time>2017-05-17T06:04:31.445Z</time>
</trkpt>
<trkpt lat="-27.0971815" lon="152.7483200">
<ele>510.247</ele>
<time>2017-05-17T06:04:34.278Z</time>
</trkpt>
<trkpt lat="-27.0976860" lon="152.7482615">
<ele>507.091</ele>
<time>2017-05-17T06:04:36.223Z</time>
</trkpt>
<trkpt lat="-27.0984417" lon="152.7482343">
<ele>503.813</ele>
<time>2017-05-17T06:04:39.166Z</time>
</trkpt>
<trkpt lat="-27.0991951" lon="152.7484147">
<ele>501.137</ele>
<time>2017-05-17T06:04:42.170Z</time>
</trkpt>
<trkpt lat="-27.0998848" lon="152.7487896">
<ele>499.634</ele>
<time>2017-05-17T06:04:45.175Z</time>
</trkpt>
<trkpt lat="-27.1002876" lon="152.7490773">
<ele>499.213</ele>
<time>2017-05-17T06:04:47.088Z</time>
</trkpt>
<trkpt lat="-27.1008509" lon="152.7496366">
<ele>499.367</ele>
<time>2017-05-17T06:04:50.124Z</time>
</trkpt>
<trkpt lat="-27.1012814" lon="152.7502576">
<ele>499.442</ele>
<time>2017-05-17T06:04:53.001Z</time>
</trkpt>
<trkpt lat="-27.1015942" lon="152.7506486">
<ele>498.790</ele>
<time>2017-05-17T06:04:54.965Z</time>
</trkpt>
<trkpt lat="-27.1022121" lon="152.7510470">
<ele>497.496</ele>
<time>2017-05-17T06:04:57.942Z</time>
</trkpt>
<trkpt lat="-27.1029477" lon="152.7512503">
<ele>496.389</ele>
<time>2017-05-17T06:05:01.010Z</time>
</trkpt>
<trkpt lat="-27.1034325" lon="152.7513383">
<ele>496.316</ele>
<time>2017-05-17T06:05:02.974Z</time>
</trkpt>
<trkpt lat="-27.1041522" lon="152.7514663">
<ele>497.514</ele>
<time>2017-05-17T06:05:05.938Z</time>
</trkpt>
<trkpt lat="-27.1046560" lon="152.7514620">
<ele>499.520</ele>
<time>2017-05-17T06:05:07.973Z</time>
</trkpt>
<trkpt lat="-27.1054491" lon="152.7512751">
<ele>501.602</ele>
<time>2017-05-17T06:05:11.108Z</time>
</trkpt>
<trkpt lat="-27.1059765" lon="152.7511791">
<ele>503.484</ele>
<time>2017-05-17T06:05:13.118Z</time>
</trkpt>
<trkpt lat="-27.1067284" lon="152.7510342">
<ele>505.218</ele>
<time>2017-05-17T06:05:16.031Z</time>
</trkpt>
<trkpt lat="-27.1072195" lon="152.7509215">
<ele>506.759</ele>
<time>2017-05-17T06:05:17.992Z</time>
</trkpt>
<trkpt lat="-27.1079541" lon="152.7507870">
<ele>507.958</ele>
<time>2017-05-17T06:05:20.947Z</time>
</trkpt>
<trkpt lat="-27.1086860" lon="152.7505865">
<ele>508.931</ele>
<time>2017-05-17T06:05:23.943Z</time>
</trkpt>
<trkpt lat="-27.1091523" lon="152.7505108">
<ele>509.890</ele>
<time>2017-05-17T06:05:25.837Z</time>
</trkpt>
<trkpt lat="-27.1095950" lon="152.7504432">
<ele>510.777</ele>
<time>2017-05-17T06:05:27.705Z</time>
</trkpt>
<trkpt lat="-27.1102911" lon="152.7504668">
<ele>511.291</ele>
<time>2017-05-17T06:05:30.687Z</time>
</trkpt>
<trkpt lat="-27.1107492" lon="152.7505397">
<ele>511.338</ele>
<time>2017-05-17T06:05:32.663Z</time>
</trkpt>
<trkpt lat="-27.1114278" lon="152.7507226">
<ele>511.134</ele>
<time>2017-05-17T06:05:35.629Z</time>
</trkpt>
<trkpt lat="-27.1118757" lon="152.7508918">
<ele>510.884</ele>
<time>2017-05-17T06:05:37.622Z</time>
</trkpt>
<trkpt lat="-27.1124706" lon="152.7511669">
<ele>510.646</ele>
<time>2017-05-17T06:05:40.433Z</time>
</trkpt>
<trkpt lat="-27.1128413" lon="152.7513545">
<ele>510.405</ele>
<time>2017-05-17T06:05:42.307Z</time>
</trkpt>
<trkpt lat="-27.1134102" lon="152.7516200">
<ele>510.185</ele>
<time>2017-05-17T06:05:45.254Z</time>
</trkpt>
<trkpt lat="-27.1139832" lon="152.7518800">
<ele>510.043</ele>
<time>2017-05-17T06:05:48.212Z</time>
</trkpt>
<trkpt lat="-27.1145801" lon="152.7521781">
<ele>510.158</ele>
<time>2017-05-17T06:05:51.322Z</time>
</trkpt>
<trkpt lat="-27.1149536" lon="152.7523847">
<ele>510.634</ele>
<time>2017-05-17T06:05:53.295Z</time>
</trkpt>
<trkpt lat="-27.1154508" lon="152.7527175">
<ele>511.210</ele>
<time>2017-05-17T06:05:56.039Z</time>
</trkpt>
<trkpt lat="-27.1157252" lon="152.7530451">
<ele>511.563</ele>
<time>2017-05-17T06:05:57.951Z</time>
</trkpt>
<trkpt lat="-27.1160122" lon="152.7533779">
<ele>511.707</ele>
<time>2017-05-17T06:05:59.936Z</time>
</trkpt>
<trkpt lat="-27.1164273" lon="152.7538793">
<ele>511.779</ele>
<time>2017-05-17T06:06:02.876Z</time>
</trkpt>
<trkpt lat="-27.1167224" lon="152.7541660">
<ele>511.784</ele>
<time>2017-05-17T06:06:04.775Z</time>
</trkpt>
<trkpt lat="-27.1172244" lon="152.7544812">
<ele>511.559</ele>
<time>2017-05-17T06:06:07.645Z</time>
</trkpt>
<trkpt lat="-27.1176011" lon="152.7546359">
<ele>510.939</ele>
<time>2017-05-17T06:06:09.659Z</time>
</trkpt>
<trkpt lat="-27.1181818" lon="152.7548350">
<ele>510.002</ele>
<time>2017-05-17T06:06:12.660Z</time>
</trkpt>
<trkpt lat="-27.1187644" lon="152.7550438">
<ele>508.925</ele>
<time>2017-05-17T06:06:15.640Z</time>
</trkpt>
<trkpt lat="-27.1193330" lon="152.7553643">
<ele>507.592</ele>
<time>2017-05-17T06:06:18.679Z</time>
</trkpt>
<trkpt lat="-27.1197064" lon="152.7555820">
<ele>505.906</ele>
<time>2017-05-17T06:06:20.655Z</time>
</trkpt>
<trkpt lat="-27.1200438" lon="152.7558528">
<ele>504.222</ele>
<time>2017-05-17T06:06:22.590Z</time>
</trkpt>
<trkpt lat="-27.1203931" lon="152.7560818">
<ele>502.805</ele>
<time>2017-05-17T06:06:24.505Z</time>
</trkpt>
<trkpt lat="-27.1209305" lon="152.7564394">
<ele>501.403</ele>
<time>2017-05-17T06:06:27.495Z</time>
</trkpt>
<trkpt lat="-27.1214243" lon="152.7568669">
<ele>499.524</ele>
<time>2017-05-17T06:06:30.467Z</time>
</trkpt>
<trkpt lat="-27.1217610" lon="152.7571418">
<ele>497.029</ele>
<time>2017-05-17T06:06:32.454Z</time>
</trkpt>
<trkpt lat="-27.1221938" lon="152.7575382">
<ele>494.442</ele>
<time>2017-05-17T06:06:35.201Z</time>
</trkpt>
<trkpt lat="-27.1225915" lon="152.7580463">
<ele>492.574</ele>
<time>2017-05-17T06:06:38.252Z</time>
</trkpt>
<trkpt lat="-27.1228152" lon="152.7586390">
<ele>491.775</ele>
<time>2017-05-17T06:06:41.201Z</time>
</trkpt>
<trkpt lat="-27.1230250" lon="152.7592783">
<ele>491.983</ele>
<time>2017-05-17T06:06:44.295Z</time>
</trkpt>
<trkpt lat="-27.1233088" lon="152.7598790">
<ele>492.972</ele>
<time>2017-05-17T06:06:47.299Z</time>
</trkpt>
<trkpt lat="-27.1234470" lon="152.7603109">
<ele>494.206</ele>
<time>2017-05-17T06:06:49.293Z</time>
</trkpt>
<trkpt lat="-27.1235918" lon="152.7607322">
<ele>495.064</ele>
<time>2017-05-17T06:06:51.243Z</time>
</trkpt>
<trkpt lat="-27.1237272" lon="152.7613996">
<ele>495.386</ele>
<time>2017-05-17T06:06:54.197Z</time>
</trkpt>
<trkpt lat="-27.1238248" lon="152.7621018">
<ele>495.415</ele>
<time>2017-05-17T06:06:57.238Z</time>
</trkpt>
<trkpt lat="-27.1238845" lon="152.7625743">
<ele>495.403</ele>
<time>2017-05-17T06:06:59.255Z</time>
</trkpt>
<trkpt lat="-27.1239736" lon="152.7633089">
<ele>495.307</ele>
<time>2017-05-17T06:07:02.323Z</time>
</trkpt>
<trkpt lat="-27.1240984" lon="152.7640180">
<ele>494.733</ele>
<time>2017-05-17T06:07:05.270Z</time>
</trkpt>
<trkpt lat="-27.1242389" lon="152.7644612">
<ele>493.401</ele>
<time>2017-05-17T06:07:07.181Z</time>
</trkpt>
<trkpt lat="-27.1245207" lon="152.7650588">
<ele>491.700</ele>
<time>2017-05-17T06:07:10.027Z</time>
</trkpt>
<trkpt lat="-27.1246921" lon="152.7654038">
<ele>490.369</ele>
<time>2017-05-17T06:07:11.743Z</time>
</trkpt>
<trkpt lat="-27.1249365" lon="152.7656859">
<ele>489.667</ele>
<time>2017-05-17T06:07:13.561Z</time>
</trkpt>
<trkpt lat="-27.1254039" lon="152.7660098">
<ele>489.301</ele>
<time>2017-05-17T06:07:16.563Z</time>
</trkpt>
<trkpt lat="-27.1258803" lon="152.7661696">
<ele>488.831</ele>
<time>2017-05-17T06:07:19.296Z</time>
</trkpt>
<trkpt lat="-27.1263453" lon="152.7664668">
<ele>487.875</ele>
<time>2017-05-17T06:07:22.260Z</time>
</trkpt>
<trkpt lat="-27.1267781" lon="152.7667765">
<ele>486.347</ele>
<time>2017-05-17T06:07:25.108Z</time>
</trkpt>
<trkpt lat="-27.1270346" lon="152.7670235">
<ele>484.344</ele>
<time>2017-05-17T06:07:26.988Z</time>
</trkpt>
<trkpt lat="-27.1273068" lon="152.7674597">
<ele>481.932</ele>
<time>2017-05-17T06:07:29.686Z</time>
</trkpt>
<trkpt lat="-27.1274138" lon="152.7679801">
<ele>479.118</ele>
<time>2017-05-17T06:07:32.537Z</time>
</trkpt>
<trkpt lat="-27.1274052" lon="152.7685356">
<ele>475.937</ele>
<time>2017-05-17T06:07:35.581Z</time>
</trkpt>
<trkpt lat="-27.1273032" lon="152.7688819">
<ele>472.514</ele>
<time>2017-05-17T06:07:37.586Z</time>
</trkpt>
<trkpt lat="-27.1268837" lon="152.7692313">
<ele>469.197</ele>
<time>2017-05-17T06:07:40.815Z</time>
</trkpt>
<trkpt lat="-27.1264720" lon="152.7692606">
<ele>466.290</ele>
<time>2017-05-17T06:07:43.323Z</time>
</trkpt>
<trkpt lat="-27.1260669" lon="152.7692977">
<ele>464.079</ele>
<time>2017-05-17T06:07:45.583Z</time>
</trkpt>
<trkpt lat="-27.1255562" lon="152.7694683">
<ele>462.779</ele>
<time>2017-05-17T06:07:48.229Z</time>
</trkpt>
<trkpt lat="-27.1252771" lon="152.7697429">
<ele>462.146</ele>
<time>2017-05-17T06:07:50.162Z</time>
</trkpt>
<trkpt lat="-27.1250659" lon="152.7703449">
<ele>461.728</ele>
<time>2017-05-17T06:07:53.313Z</time>
</trkpt>
<trkpt lat="-27.1249894" lon="152.7707459">
<ele>461.700</ele>
<time>2017-05-17T06:07:55.282Z</time>
</trkpt>
<trkpt lat="-27.1248964" lon="152.7711139">
<ele>462.357</ele>
<time>2017-05-17T06:07:57.095Z</time>
</trkpt>
<trkpt lat="-27.1247558" lon="152.7714930">
<ele>463.385</ele>
<time>2017-05-17T06:07:59.071Z</time>
</trkpt>
<trkpt lat="-27.1244482" lon="152.7717583">
<ele>464.334</ele>
<time>2017-05-17T06:08:01.272Z</time>
</trkpt>
<trkpt lat="-27.1237814" lon="152.7720587">
<ele>465.171</ele>
<time>2017-05-17T06:08:05.104Z</time>
</trkpt>
<trkpt lat="-27.1234223" lon="152.7722787">
<ele>466.086</ele>
<time>2017-05-17T06:08:07.092Z</time>
</trkpt>
<trkpt lat="-27.1229509" lon="152.7727754">
<ele>467.029</ele>
<time>2017-05-17T06:08:10.108Z</time>
</trkpt>
<trkpt lat="-27.1226700" lon="152.7731814">
<ele>467.632</ele>
<time>2017-05-17T06:08:12.238Z</time>
</trkpt>
<trkpt lat="-27.1222821" lon="152.7737931">
<ele>467.713</ele>
<time>2017-05-17T06:08:15.223Z</time>
</trkpt>
<trkpt lat="-27.1219587" lon="152.7741340">
<ele>467.500</ele>
<time>2017-05-17T06:08:17.173Z</time>
</trkpt>
<trkpt lat="-27.1214650" lon="152.7746621">
<ele>467.272</ele>
<time>2017-05-17T06:08:20.185Z</time>
</trkpt>
<trkpt lat="-27.1209036" lon="152.7751086">
<ele>467.298</ele>
<time>2017-05-17T06:08:23.201Z</time>
</trkpt>
<trkpt lat="-27.1205685" lon="152.7754337">
<ele>467.778</ele>
<time>2017-05-17T06:08:25.128Z</time>
</trkpt>
<trkpt lat="-27.1201284" lon="152.7759032">
<ele>468.522</ele>
<time>2017-05-17T06:08:27.840Z</time>
</trkpt>
<trkpt lat="-27.1199046" lon="152.7762779">
<ele>469.083</ele>
<time>2017-05-17T06:08:29.701Z</time>
</trkpt>
<trkpt lat="-27.1197108" lon="152.7769896">
<ele>469.280</ele>
<time>2017-05-17T06:08:32.868Z</time>
</trkpt>
<trkpt lat="-27.1194108" lon="152.7776655">
<ele>469.155</ele>
<time>2017-05-17T06:08:35.980Z</time>
</trkpt>
<trkpt lat="-27.1192281" lon="152.7781117">
<ele>468.594</ele>
<time>2017-05-17T06:08:37.945Z</time>
</trkpt>
<trkpt lat="-27.1188939" lon="152.7785249">
<ele>467.525</ele>
<time>2017-05-17T06:08:40.168Z</time>
</trkpt>
<trkpt lat="-27.1183712" lon="152.7790043">
<ele>466.352</ele>
<time>2017-05-17T06:08:43.166Z</time>
</trkpt>
<trkpt lat="-27.1180434" lon="152.7793666">
<ele>465.669</ele>
<time>2017-05-17T06:08:45.188Z</time>
</trkpt>
<trkpt lat="-27.1175060" lon="152.7798689">
<ele>465.617</ele>
<time>2017-05-17T06:08:48.219Z</time>
</trkpt>
<trkpt lat="-27.1171314" lon="152.7801936">
<ele>465.882</ele>
<time>2017-05-17T06:08:50.245Z</time>
</trkpt>
<trkpt lat="-27.1167734" lon="152.7804924">
<ele>466.092</ele>
<time>2017-05-17T06:08:52.127Z</time>
</trkpt>
<trkpt lat="-27.1163397" lon="152.7810503">
<ele>465.848</ele>
<time>2017-05-17T06:08:54.981Z</time>
</trkpt>
<trkpt lat="-27.1161554" lon="152.7814992">
<ele>464.636</ele>
<time>2017-05-17T06:08:56.924Z</time>
</trkpt>
<trkpt lat="-27.1160588" lon="152.7822387">
<ele>462.414</ele>
<time>2017-05-17T06:08:59.919Z</time>
</trkpt>
<trkpt lat="-27.1161100" lon="152.7830255">
<ele>459.820</ele>
<time>2017-05-17T06:09:03.057Z</time>
</trkpt>
<trkpt lat="-27.1161685" lon="152.7835352">
<ele>457.627</ele>
<time>2017-05-17T06:09:05.068Z</time>
</trkpt>
<trkpt lat="-27.1161927" lon="152.7840495">
<ele>456.329</ele>
<time>2017-05-17T06:09:07.039Z</time>
</trkpt>
<trkpt lat="-27.1161881" lon="152.7845531">
<ele>456.024</ele>
<time>2017-05-17T06:09:08.961Z</time>
</trkpt>
<trkpt lat="-27.1161736" lon="152.7850499">
<ele>456.485</ele>
<time>2017-05-17T06:09:10.876Z</time>
</trkpt>
<trkpt lat="-27.1161627" lon="152.7857277">
<ele>457.467</ele>
<time>2017-05-17T06:09:13.563Z</time>
</trkpt>
<trkpt lat="-27.1161992" lon="152.7862011">
<ele>458.802</ele>
<time>2017-05-17T06:09:15.513Z</time>
</trkpt>
<trkpt lat="-27.1162974" lon="152.7868714">
<ele>460.405</ele>
<time>2017-05-17T06:09:18.365Z</time>
</trkpt>
<trkpt lat="-27.1165083" lon="152.7874828">
<ele>462.174</ele>
<time>2017-05-17T06:09:21.153Z</time>
</trkpt>
<trkpt lat="-27.1167096" lon="152.7878438">
<ele>463.754</ele>
<time>2017-05-17T06:09:23.018Z</time>
</trkpt>
<trkpt lat="-27.1169698" lon="152.7881320">
<ele>464.653</ele>
<time>2017-05-17T06:09:24.840Z</time>
</trkpt>
<trkpt lat="-27.1174107" lon="152.7884912">
<ele>464.615</ele>
<time>2017-05-17T06:09:27.660Z</time>
</trkpt>
<trkpt lat="-27.1177525" lon="152.7886152">
<ele>463.594</ele>
<time>2017-05-17T06:09:29.596Z</time>
</trkpt>
<trkpt lat="-27.1182414" lon="152.7888418">
<ele>461.796</ele>
<time>2017-05-17T06:09:32.444Z</time>
</trkpt>
<trkpt lat="-27.1186264" lon="152.7891008">
<ele>459.582</ele>
<time>2017-05-17T06:09:34.844Z</time>
</trkpt>
<trkpt lat="-27.1187799" lon="152.7894392">
<ele>456.923</ele>
<time>2017-05-17T06:09:36.712Z</time>
</trkpt>
<trkpt lat="-27.1190593" lon="152.7899976">
<ele>453.860</ele>
<time>2017-05-17T06:09:40.094Z</time>
</trkpt>
<trkpt lat="-27.1194401" lon="152.7904452">
<ele>450.854</ele>
<time>2017-05-17T06:09:43.313Z</time>
</trkpt>
<trkpt lat="-27.1197220" lon="152.7909555">
<ele>448.477</ele>
<time>2017-05-17T06:09:46.333Z</time>
</trkpt>
<trkpt lat="-27.1198992" lon="152.7915325">
<ele>447.188</ele>
<time>2017-05-17T06:09:49.383Z</time>
</trkpt>
<trkpt lat="-27.1202500" lon="152.7920056">
<ele>447.010</ele>
<time>2017-05-17T06:09:52.409Z</time>
</trkpt>
<trkpt lat="-27.1206455" lon="152.7923847">
<ele>447.422</ele>
<time>2017-05-17T06:09:55.237Z</time>
</trkpt>
<trkpt lat="-27.1209365" lon="152.7925973">
<ele>447.773</ele>
<time>2017-05-17T06:09:57.136Z</time>
</trkpt>
<trkpt lat="-27.1212231" lon="152.7927639">
<ele>447.576</ele>
<time>2017-05-17T06:09:58.911Z</time>
</trkpt>
<trkpt lat="-27.1215343" lon="152.7928888">
<ele>446.738</ele>
<time>2017-05-17T06:10:00.781Z</time>
</trkpt>
<trkpt lat="-27.1218489" lon="152.7930289">
<ele>445.497</ele>
<time>2017-05-17T06:10:02.748Z</time>
</trkpt>
<trkpt lat="-27.1223344" lon="152.7933318">
<ele>444.234</ele>
<time>2017-05-17T06:10:06.083Z</time>
</trkpt>
<trkpt lat="-27.1226008" lon="152.7935877">
<ele>443.090</ele>
<time>2017-05-17T06:10:08.166Z</time>
</trkpt>
<trkpt lat="-27.1229650" lon="152.7940016">
<ele>441.942</ele>
<time>2017-05-17T06:10:11.183Z</time>
</trkpt>
<trkpt lat="-27.1231768" lon="152.7943267">
<ele>440.634</ele>
<time>2017-05-17T06:10:13.225Z</time>
</trkpt>
<trkpt lat="-27.1233628" lon="152.7946385">
<ele>439.147</ele>
<time>2017-05-17T06:10:15.119Z</time>
</trkpt>
<trkpt lat="-27.1236338" lon="152.7950975">
<ele>437.719</ele>
<time>2017-05-17T06:10:17.914Z</time>
</trkpt>
<trkpt lat="-27.1238102" lon="152.7953718">
<ele>436.585</ele>
<time>2017-05-17T06:10:19.671Z</time>
</trkpt>
<trkpt lat="-27.1239890" lon="152.7957569">
<ele>435.612</ele>
<time>2017-05-17T06:10:21.969Z</time>
</trkpt>
<trkpt lat="-27.1239137" lon="152.7960354">
<ele>434.273</ele>
<time>2017-05-17T06:10:23.587Z</time>
</trkpt>
<trkpt lat="-27.1237193" lon="152.7962624">
<ele>432.352</ele>
<time>2017-05-17T06:10:25.496Z</time>
</trkpt>
<trkpt lat="-27.1237636" lon="152.7967598">
<ele>430.541</ele>
<time>2017-05-17T06:10:28.780Z</time>
</trkpt>
<trkpt lat="-27.1241587" lon="152.7971803">
<ele>429.536</ele>
<time>2017-05-17T06:10:32.915Z</time>
</trkpt>
<trkpt lat="-27.1245845" lon="152.7973682">
<ele>429.172</ele>
<time>2017-05-17T06:10:36.060Z</time>
</trkpt>
<trkpt lat="-27.1249209" lon="152.7978031">
<ele>428.823</ele>
<time>2017-05-17T06:10:39.332Z</time>
</trkpt>
<trkpt lat="-27.1250957" lon="152.7981330">
<ele>428.173</ele>
<time>2017-05-17T06:10:41.437Z</time>
</trkpt>
<trkpt lat="-27.1253072" lon="152.7986124">
<ele>427.466</ele>
<time>2017-05-17T06:10:44.293Z</time>
</trkpt>
<trkpt lat="-27.1254570" lon="152.7988453">
<ele>426.792</ele>
<time>2017-05-17T06:10:45.819Z</time>
</trkpt>
<trkpt lat="-27.1258378" lon="152.7989481">
<ele>425.882</ele>
<time>2017-05-17T06:10:48.211Z</time>
</trkpt>
<trkpt lat="-27.1260465" lon="152.7990958">
<ele>424.553</ele>
<time>2017-05-17T06:10:49.874Z</time>
</trkpt>
<trkpt lat="-27.1262652" lon="152.7995177">
<ele>422.854</ele>
<time>2017-05-17T06:10:53.059Z</time>
</trkpt>
<trkpt lat="-27.1263189" lon="152.7999146">
<ele>421.221</ele>
<time>2017-05-17T06:10:55.765Z</time>
</trkpt>
<trkpt lat="-27.1263154" lon="152.8004849">
<ele>420.127</ele>
<time>2017-05-17T06:10:59.237Z</time>
</trkpt>
<trkpt lat="-27.1261473" lon="152.8011041">
<ele>419.331</ele>
<time>2017-05-17T06:11:02.689Z</time>
</trkpt>
<trkpt lat="-27.1261893" lon="152.8016924">
<ele>418.154</ele>
<time>2017-05-17T06:11:05.745Z</time>
</trkpt>
<trkpt lat="-27.1265151" lon="152.8021502">
<ele>416.298</ele>
<time>2017-05-17T06:11:08.757Z</time>
</trkpt>
<trkpt lat="-27.1267916" lon="152.8024188">
<ele>413.989</ele>
<time>2017-05-17T06:11:10.840Z</time>
</trkpt>
<trkpt lat="-27.1273014" lon="152.8026950">
<ele>411.630</ele>
<time>2017-05-17T06:11:13.992Z</time>
</trkpt>
<trkpt lat="-27.1278434" lon="152.8029451">
<ele>409.294</ele>
<time>2017-05-17T06:11:17.138Z</time>
</trkpt>
<trkpt lat="-27.1283373" lon="152.8032193">
<ele>406.718</ele>
<time>2017-05-17T06:11:20.012Z</time>
</trkpt>
<trkpt lat="-27.1286711" lon="152.8034931">
<ele>403.966</ele>
<time>2017-05-17T06:11:22.174Z</time>
</trkpt>
<trkpt lat="-27.1290112" lon="152.8039798">
<ele>401.616</ele>
<time>2017-05-17T06:11:25.129Z</time>
</trkpt>
<trkpt lat="-27.1291996" lon="152.8043310">
<ele>399.952</ele>
<time>2017-05-17T06:11:27.115Z</time>
</trkpt>
<trkpt lat="-27.1294888" lon="152.8048249">
<ele>398.649</ele>
<time>2017-05-17T06:11:29.963Z</time>
</trkpt>
<trkpt lat="-27.1298694" lon="152.8052153">
<ele>397.114</ele>
<time>2017-05-17T06:11:32.793Z</time>
</trkpt>
<trkpt lat="-27.1302046" lon="152.8055313">
<ele>394.936</ele>
<time>2017-05-17T06:11:35.246Z</time>
</trkpt>
<trkpt lat="-27.1303882" lon="152.8059124">
<ele>392.174</ele>
<time>2017-05-17T06:11:37.477Z</time>
</trkpt>
<trkpt lat="-27.1305972" lon="152.8064753">
<ele>389.441</ele>
<time>2017-05-17T06:11:40.673Z</time>
</trkpt>
<trkpt lat="-27.1309153" lon="152.8069627">
<ele>387.339</ele>
<time>2017-05-17T06:11:43.686Z</time>
</trkpt>
<trkpt lat="-27.1313078" lon="152.8071821">
<ele>386.055</ele>
<time>2017-05-17T06:11:46.098Z</time>
</trkpt>
<trkpt lat="-27.1316616" lon="152.8070693">
<ele>385.394</ele>
<time>2017-05-17T06:11:48.246Z</time>
</trkpt>
<trkpt lat="-27.1319514" lon="152.8068938">
<ele>385.001</ele>
<time>2017-05-17T06:11:50.302Z</time>
</trkpt>
<trkpt lat="-27.1324589" lon="152.8067594">
<ele>384.611</ele>
<time>2017-05-17T06:11:53.886Z</time>
</trkpt>
<trkpt lat="-27.1329713" lon="152.8067390">
<ele>384.237</ele>
<time>2017-05-17T06:11:56.989Z</time>
</trkpt>
<trkpt lat="-27.1334701" lon="152.8068270">
<ele>383.965</ele>
<time>2017-05-17T06:11:59.897Z</time>
</trkpt>
<trkpt lat="-27.1338427" lon="152.8071366">
<ele>383.837</ele>
<time>2017-05-17T06:12:02.552Z</time>
</trkpt>
<trkpt lat="-27.1342560" lon="152.8075080">
<ele>383.908</ele>
<time>2017-05-17T06:12:05.442Z</time>
</trkpt>
<trkpt lat="-27.1345600" lon="152.8076627">
<ele>384.367</ele>
<time>2017-05-17T06:12:07.220Z</time>
</trkpt>
<trkpt lat="-27.1350537" lon="152.8078127">
<ele>385.347</ele>
<time>2017-05-17T06:12:10.042Z</time>
</trkpt>
<trkpt lat="-27.1355436" lon="152.8079159">
<ele>386.770</ele>
<time>2017-05-17T06:12:12.944Z</time>
</trkpt>
<trkpt lat="-27.1358695" lon="152.8079933">
<ele>388.566</ele>
<time>2017-05-17T06:12:14.924Z</time>
</trkpt>
<trkpt lat="-27.1363538" lon="152.8080886">
<ele>390.607</ele>
<time>2017-05-17T06:12:17.863Z</time>
</trkpt>
<trkpt lat="-27.1368363" lon="152.8081727">
<ele>392.766</ele>
<time>2017-05-17T06:12:20.786Z</time>
</trkpt>
<trkpt lat="-27.1373020" lon="152.8081169">
<ele>395.091</ele>
<time>2017-05-17T06:12:23.590Z</time>
</trkpt>
<trkpt lat="-27.1377766" lon="152.8079354">
<ele>397.483</ele>
<time>2017-05-17T06:12:26.652Z</time>
</trkpt>
<trkpt lat="-27.1382791" lon="152.8078480">
<ele>399.418</ele>
<time>2017-05-17T06:12:29.750Z</time>
</trkpt>
<trkpt lat="-27.1386225" lon="152.8079777">
<ele>400.335</ele>
<time>2017-05-17T06:12:31.892Z</time>
</trkpt>
<trkpt lat="-27.1390841" lon="152.8082560">
<ele>400.113</ele>
<time>2017-05-17T06:12:34.962Z</time>
</trkpt>
<trkpt lat="-27.1395660" lon="152.8085211">
<ele>398.924</ele>
<time>2017-05-17T06:12:38.045Z</time>
</trkpt>
<trkpt lat="-27.1398949" lon="152.8086855">
<ele>396.887</ele>
<time>2017-05-17T06:12:40.084Z</time>
</trkpt>
<trkpt lat="-27.1403457" lon="152.8088974">
<ele>394.329</ele>
<time>2017-05-17T06:12:42.851Z</time>
</trkpt>
<trkpt lat="-27.1408059" lon="152.8089942">
<ele>391.588</ele>
<time>2017-05-17T06:12:45.548Z</time>
</trkpt>
<trkpt lat="-27.1412165" lon="152.8087422">
<ele>388.499</ele>
<time>2017-05-17T06:12:48.384Z</time>
</trkpt>
<trkpt lat="-27.1414928" lon="152.8086763">
<ele>384.862</ele>
<time>2017-05-17T06:12:50.181Z</time>
</trkpt>
<trkpt lat="-27.1417492" lon="152.8087821">
<ele>381.090</ele>
<time>2017-05-17T06:12:51.955Z</time>
</trkpt>
<trkpt lat="-27.1419412" lon="152.8090273">
<ele>377.807</ele>
<time>2017-05-17T06:12:53.952Z</time>
</trkpt>
<trkpt lat="-27.1420897" lon="152.8094360">
<ele>375.253</ele>
<time>2017-05-17T06:12:56.894Z</time>
</trkpt>
<trkpt lat="-27.1422900" lon="152.8096138">
<ele>373.262</ele>
<time>2017-05-17T06:12:58.875Z</time>
</trkpt>
<trkpt lat="-27.1426994" lon="152.8096216">
<ele>371.625</ele>
<time>2017-05-17T06:13:02.101Z</time>
</trkpt>
<trkpt lat="-27.1430029" lon="152.8099386">
<ele>370.159</ele>
<time>2017-05-17T06:13:05.333Z</time>
</trkpt>
<trkpt lat="-27.1430795" lon="152.8104054">
<ele>368.682</ele>
<time>2017-05-17T06:13:08.512Z</time>
</trkpt>
<trkpt lat="-27.1433261" lon="152.8106829">
<ele>367.110</ele>
<time>2017-05-17T06:13:11.123Z</time>
</trkpt>
<trkpt lat="-27.1436235" lon="152.8106221">
<ele>365.432</ele>
<time>2017-05-17T06:13:13.498Z</time>
</trkpt>
<trkpt lat="-27.1438941" lon="152.8106010">
<ele>363.666</ele>
<time>2017-05-17T06:13:15.726Z</time>
</trkpt>
<trkpt lat="-27.1442423" lon="152.8109782">
<ele>361.942</ele>
<time>2017-05-17T06:13:19.547Z</time>
</trkpt>
<trkpt lat="-27.1444343" lon="152.8112739">
<ele>360.311</ele>
<time>2017-05-17T06:13:21.910Z</time>
</trkpt>
<trkpt lat="-27.1447056" lon="152.8114590">
<ele>358.781</ele>
<time>2017-05-17T06:13:24.053Z</time>
</trkpt>
<trkpt lat="-27.1450144" lon="152.8115374">
<ele>357.414</ele>
<time>2017-05-17T06:13:26.076Z</time>
</trkpt>
<trkpt lat="-27.1454868" lon="152.8116240">
<ele>356.112</ele>
<time>2017-05-17T06:13:29.045Z</time>
</trkpt>
<trkpt lat="-27.1457591" lon="152.8118330">
<ele>354.473</ele>
<time>2017-05-17T06:13:31.074Z</time>
</trkpt>
<trkpt lat="-27.1460453" lon="152.8123313">
<ele>352.343</ele>
<time>2017-05-17T06:13:34.328Z</time>
</trkpt>
<trkpt lat="-27.1462914" lon="152.8125976">
<ele>350.070</ele>
<time>2017-05-17T06:13:36.381Z</time>
</trkpt>
<trkpt lat="-27.1467149" lon="152.8129727">
<ele>347.996</ele>
<time>2017-05-17T06:13:39.466Z</time>
</trkpt>
<trkpt lat="-27.1471822" lon="152.8132579">
<ele>345.967</ele>
<time>2017-05-17T06:13:42.433Z</time>
</trkpt>
<trkpt lat="-27.1475578" lon="152.8136203">
<ele>343.632</ele>
<time>2017-05-17T06:13:45.220Z</time>
</trkpt>
<trkpt lat="-27.1476502" lon="152.8139453">
<ele>340.940</ele>
<time>2017-05-17T06:13:46.969Z</time>
</trkpt>
<trkpt lat="-27.1475916" lon="152.8144982">
<ele>338.288</ele>
<time>2017-05-17T06:13:50.046Z</time>
</trkpt>
<trkpt lat="-27.1475598" lon="152.8148488">
<ele>335.954</ele>
<time>2017-05-17T06:13:52.013Z</time>
</trkpt>
<trkpt lat="-27.1475879" lon="152.8153570">
<ele>333.974</ele>
<time>2017-05-17T06:13:54.849Z</time>
</trkpt>
<trkpt lat="-27.1479526" lon="152.8157154">
<ele>332.398</ele>
<time>2017-05-17T06:13:57.997Z</time>
</trkpt>
<trkpt lat="-27.1484923" lon="152.8158026">
<ele>331.208</ele>
<time>2017-05-17T06:14:01.564Z</time>
</trkpt>
<trkpt lat="-27.1487296" lon="152.8158343">
<ele>329.972</ele>
<time>2017-05-17T06:14:03.106Z</time>
</trkpt>
<trkpt lat="-27.1489620" lon="152.8160807">
<ele>328.296</ele>
<time>2017-05-17T06:14:05.185Z</time>
</trkpt>
<trkpt lat="-27.1491291" lon="152.8164749">
<ele>326.352</ele>
<time>2017-05-17T06:14:07.751Z</time>
</trkpt>
<trkpt lat="-27.1491767" lon="152.8168360">
<ele>324.562</ele>
<time>2017-05-17T06:14:09.799Z</time>
</trkpt>
<trkpt lat="-27.1492679" lon="152.8171842">
<ele>323.007</ele>
<time>2017-05-17T06:14:11.768Z</time>
</trkpt>
<trkpt lat="-27.1493515" lon="152.8175242">
<ele>321.472</ele>
<time>2017-05-17T06:14:13.699Z</time>
</trkpt>
<trkpt lat="-27.1496841" lon="152.8178985">
<ele>319.757</ele>
<time>2017-05-17T06:14:16.625Z</time>
</trkpt>
<trkpt lat="-27.1501710" lon="152.8180679">
<ele>317.693</ele>
<time>2017-05-17T06:14:19.722Z</time>
</trkpt>
<trkpt lat="-27.1506362" lon="152.8182066">
<ele>315.156</ele>
<time>2017-05-17T06:14:22.619Z</time>
</trkpt>
<trkpt lat="-27.1509767" lon="152.8184567">
<ele>312.668</ele>
<time>2017-05-17T06:14:25.221Z</time>
</trkpt>
<trkpt lat="-27.1509390" lon="152.8188928">
<ele>310.625</ele>
<time>2017-05-17T06:14:28.009Z</time>
</trkpt>
<trkpt lat="-27.1507944" lon="152.8193353">
<ele>307.986</ele>
<time>2017-05-17T06:14:31.266Z</time>
</trkpt>
<trkpt lat="-27.1508766" lon="152.8197783">
<ele>304.229</ele>
<time>2017-05-17T06:14:34.315Z</time>
</trkpt>
<trkpt lat="-27.1511314" lon="152.8200059">
<ele>300.652</ele>
<time>2017-05-17T06:14:36.664Z</time>
</trkpt>
<trkpt lat="-27.1513851" lon="152.8202391">
<ele>298.314</ele>
<time>2017-05-17T06:14:38.836Z</time>
</trkpt>
<trkpt lat="-27.1517515" lon="152.8205841">
<ele>297.001</ele>
<time>2017-05-17T06:14:41.831Z</time>
</trkpt>
<trkpt lat="-27.1517686" lon="152.8209424">
<ele>295.867</ele>
<time>2017-05-17T06:14:43.839Z</time>
</trkpt>
<trkpt lat="-27.1517504" lon="152.8213264">
<ele>294.306</ele>
<time>2017-05-17T06:14:45.981Z</time>
</trkpt>
<trkpt lat="-27.1517837" lon="152.8219117">
<ele>292.543</ele>
<time>2017-05-17T06:14:49.131Z</time>
</trkpt>
<trkpt lat="-27.1517848" lon="152.8222921">
<ele>290.847</ele>
<time>2017-05-17T06:14:51.128Z</time>
</trkpt>
<trkpt lat="-27.1517988" lon="152.8228507">
<ele>289.158</ele>
<time>2017-05-17T06:14:54.045Z</time>
</trkpt>
<trkpt lat="-27.1518260" lon="152.8231978">
<ele>287.284</ele>
<time>2017-05-17T06:14:55.897Z</time>
</trkpt>
<trkpt lat="-27.1519115" lon="152.8236817">
<ele>284.988</ele>
<time>2017-05-17T06:14:58.673Z</time>
</trkpt>
<trkpt lat="-27.1523578" lon="152.8240514">
<ele>282.238</ele>
<time>2017-05-17T06:15:02.243Z</time>
</trkpt>
<trkpt lat="-27.1526764" lon="152.8242838">
<ele>279.304</ele>
<time>2017-05-17T06:15:04.530Z</time>
</trkpt>
<trkpt lat="-27.1530215" lon="152.8245857">
<ele>276.661</ele>
<time>2017-05-17T06:15:07.108Z</time>
</trkpt>
<trkpt lat="-27.1532622" lon="152.8248193">
<ele>274.427</ele>
<time>2017-05-17T06:15:09.038Z</time>
</trkpt>
<trkpt lat="-27.1534258" lon="152.8251248">
<ele>272.183</ele>
<time>2017-05-17T06:15:11.012Z</time>
</trkpt>
<trkpt lat="-27.1536227" lon="152.8253884">
<ele>269.763</ele>
<time>2017-05-17T06:15:12.927Z</time>
</trkpt>
<trkpt lat="-27.1537709" lon="152.8256479">
<ele>267.327</ele>
<time>2017-05-17T06:15:14.687Z</time>
</trkpt>
<trkpt lat="-27.1538543" lon="152.8258975">
<ele>264.895</ele>
<time>2017-05-17T06:15:16.296Z</time>
</trkpt>
<trkpt lat="-27.1540648" lon="152.8260292">
<ele>262.401</ele>
<time>2017-05-17T06:15:18.113Z</time>
</trkpt>
<trkpt lat="-27.1544425" lon="152.8259283">
<ele>259.897</ele>
<time>2017-05-17T06:15:21.311Z</time>
</trkpt>
<trkpt lat="-27.1546294" lon="152.8256651">
<ele>257.531</ele>
<time>2017-05-17T06:15:23.680Z</time>
</trkpt>
<trkpt lat="-27.1550861" lon="152.8254091">
<ele>255.433</ele>
<time>2017-05-17T06:15:27.246Z</time>
</trkpt>
<trkpt lat="-27.1555342" lon="152.8254364">
<ele>253.589</ele>
<time>2017-05-17T06:15:30.178Z</time>
</trkpt>
<trkpt lat="-27.1559531" lon="152.8253559">
<ele>251.686</ele>
<time>2017-05-17T06:15:33.028Z</time>
</trkpt>
<trkpt lat="-27.1560616" lon="152.8250580">
<ele>249.253</ele>
<time>2017-05-17T06:15:35.056Z</time>
</trkpt>
<trkpt lat="-27.1561821" lon="152.8246229">
<ele>246.274</ele>
<time>2017-05-17T06:15:38.081Z</time>
</trkpt>
<trkpt lat="-27.1563733" lon="152.8244549">
<ele>243.553</ele>
<time>2017-05-17T06:15:39.955Z</time>
</trkpt>
<trkpt lat="-27.1567760" lon="152.8245947">
<ele>241.994</ele>
<time>2017-05-17T06:15:43.334Z</time>
</trkpt>
<trkpt lat="-27.1570521" lon="152.8246928">
<ele>241.312</ele>
<time>2017-05-17T06:15:45.540Z</time>
</trkpt>
<trkpt lat="-27.1572957" lon="152.8246928">
<ele>240.366</ele>
<time>2017-05-17T06:15:47.304Z</time>
</trkpt>
<trkpt lat="-27.1575654" lon="152.8248597">
<ele>238.684</ele>
<time>2017-05-17T06:15:49.470Z</time>
</trkpt>
<trkpt lat="-27.1580097" lon="152.8250211">
<ele>236.700</ele>
<time>2017-05-17T06:15:52.698Z</time>
</trkpt>
<trkpt lat="-27.1582931" lon="152.8248567">
<ele>234.655</ele>
<time>2017-05-17T06:15:55.038Z</time>
</trkpt>
<trkpt lat="-27.1585268" lon="152.8247516">
<ele>232.372</ele>
<time>2017-05-17T06:15:57.024Z</time>
</trkpt>
<trkpt lat="-27.1588299" lon="152.8249212">
<ele>229.909</ele>
<time>2017-05-17T06:15:59.847Z</time>
</trkpt>
<trkpt lat="-27.1589768" lon="152.8251675">
<ele>227.440</ele>
<time>2017-05-17T06:16:02.054Z</time>
</trkpt>
<trkpt lat="-27.1592112" lon="152.8253226">
<ele>225.007</ele>
<time>2017-05-17T06:16:04.287Z</time>
</trkpt>
<trkpt lat="-27.1594900" lon="152.8252400">
<ele>222.752</ele>
<time>2017-05-17T06:16:06.539Z</time>
</trkpt>
<trkpt lat="-27.1598003" lon="152.8249826">
<ele>220.841</ele>
<time>2017-05-17T06:16:09.076Z</time>
</trkpt>
<trkpt lat="-27.1600780" lon="152.8247479">
<ele>219.370</ele>
<time>2017-05-17T06:16:11.210Z</time>
</trkpt>
<trkpt lat="-27.1604005" lon="152.8244357">
<ele>218.247</ele>
<time>2017-05-17T06:16:13.895Z</time>
</trkpt>
<trkpt lat="-27.1608108" lon="152.8242460">
<ele>216.963</ele>
<time>2017-05-17T06:16:16.853Z</time>
</trkpt>
<trkpt lat="-27.1610856" lon="152.8242021">
<ele>214.988</ele>
<time>2017-05-17T06:16:18.775Z</time>
</trkpt>
<trkpt lat="-27.1612823" lon="152.8239813">
<ele>212.435</ele>
<time>2017-05-17T06:16:20.680Z</time>
</trkpt>
<trkpt lat="-27.1615658" lon="152.8234971">
<ele>209.876</ele>
<time>2017-05-17T06:16:24.016Z</time>
</trkpt>
<trkpt lat="-27.1619079" lon="152.8231873">
<ele>207.547</ele>
<time>2017-05-17T06:16:26.776Z</time>
</trkpt>
<trkpt lat="-27.1621627" lon="152.8230229">
<ele>205.179</ele>
<time>2017-05-17T06:16:28.712Z</time>
</trkpt>
<trkpt lat="-27.1624212" lon="152.8230638">
<ele>202.635</ele>
<time>2017-05-17T06:16:30.476Z</time>
</trkpt>
<trkpt lat="-27.1627660" lon="152.8231833">
<ele>200.108</ele>
<time>2017-05-17T06:16:32.784Z</time>
</trkpt>
<trkpt lat="-27.1632205" lon="152.8235362">
<ele>197.795</ele>
<time>2017-05-17T06:16:36.011Z</time>
</trkpt>
<trkpt lat="-27.1635457" lon="152.8238116">
<ele>195.693</ele>
<time>2017-05-17T06:16:38.252Z</time>
</trkpt>
<trkpt lat="-27.1639193" lon="152.8242041">
<ele>193.690</ele>
<time>2017-05-17T06:16:41.121Z</time>
</trkpt>
<trkpt lat="-27.1641239" lon="152.8244141">
<ele>191.514</ele>
<time>2017-05-17T06:16:42.858Z</time>
</trkpt>
<trkpt lat="-27.1642926" lon="152.8247866">
<ele>188.869</ele>
<time>2017-05-17T06:16:45.376Z</time>
</trkpt>
<trkpt lat="-27.1642175" lon="152.8253049">
<ele>185.731</ele>
<time>2017-05-17T06:16:48.528Z</time>
</trkpt>
<trkpt lat="-27.1640504" lon="152.8258364">
<ele>182.412</ele>
<time>2017-05-17T06:16:51.650Z</time>
</trkpt>
<trkpt lat="-27.1639026" lon="152.8261411">
<ele>179.266</ele>
<time>2017-05-17T06:16:53.610Z</time>
</trkpt>
<trkpt lat="-27.1638142" lon="152.8264073">
<ele>176.496</ele>
<time>2017-05-17T06:16:55.411Z</time>
</trkpt>
<trkpt lat="-27.1639113" lon="152.8268331">
<ele>173.978</ele>
<time>2017-05-17T06:16:58.523Z</time>
</trkpt>
<trkpt lat="-27.1642348" lon="152.8269877">
<ele>171.333</ele>
<time>2017-05-17T06:17:00.937Z</time>
</trkpt>
<trkpt lat="-27.1645820" lon="152.8270886">
<ele>168.574</ele>
<time>2017-05-17T06:17:03.083Z</time>
</trkpt>
<trkpt lat="-27.1649334" lon="152.8271304">
<ele>166.337</ele>
<time>2017-05-17T06:17:05.099Z</time>
</trkpt>
<trkpt lat="-27.1653455" lon="152.8270763">
<ele>164.901</ele>
<time>2017-05-17T06:17:07.402Z</time>
</trkpt>
<trkpt lat="-27.1657359" lon="152.8269544">
<ele>163.771</ele>
<time>2017-05-17T06:17:09.563Z</time>
</trkpt>
<trkpt lat="-27.1662956" lon="152.8267625">
<ele>162.458</ele>
<time>2017-05-17T06:17:12.619Z</time>
</trkpt>
<trkpt lat="-27.1666521" lon="152.8266662">
<ele>160.800</ele>
<time>2017-05-17T06:17:14.541Z</time>
</trkpt>
<trkpt lat="-27.1672101" lon="152.8265839">
<ele>158.846</ele>
<time>2017-05-17T06:17:17.535Z</time>
</trkpt>
<trkpt lat="-27.1675709" lon="152.8266089">
<ele>156.652</ele>
<time>2017-05-17T06:17:19.511Z</time>
</trkpt>
<trkpt lat="-27.1680413" lon="152.8268911">
<ele>154.315</ele>
<time>2017-05-17T06:17:22.479Z</time>
</trkpt>
<trkpt lat="-27.1683352" lon="152.8270960">
<ele>151.909</ele>
<time>2017-05-17T06:17:24.479Z</time>
</trkpt>
<trkpt lat="-27.1686313" lon="152.8272612">
<ele>149.399</ele>
<time>2017-05-17T06:17:26.469Z</time>
</trkpt>
<trkpt lat="-27.1689417" lon="152.8272764">
<ele>146.818</ele>
<time>2017-05-17T06:17:28.448Z</time>
</trkpt>
<trkpt lat="-27.1692579" lon="152.8269295">
<ele>144.371</ele>
<time>2017-05-17T06:17:31.313Z</time>
</trkpt>
<trkpt lat="-27.1693372" lon="152.8263061">
<ele>141.982</ele>
<time>2017-05-17T06:17:34.903Z</time>
</trkpt>
<trkpt lat="-27.1694315" lon="152.8259761">
<ele>139.352</ele>
<time>2017-05-17T06:17:36.765Z</time>
</trkpt>
<trkpt lat="-27.1698385" lon="152.8255848">
<ele>136.511</ele>
<time>2017-05-17T06:17:39.859Z</time>
</trkpt>
<trkpt lat="-27.1702995" lon="152.8252592">
<ele>133.880</ele>
<time>2017-05-17T06:17:42.976Z</time>
</trkpt>
<trkpt lat="-27.1707293" lon="152.8250083">
<ele>131.777</ele>
<time>2017-05-17T06:17:45.803Z</time>
</trkpt>
<trkpt lat="-27.1712424" lon="152.8250887">
<ele>130.154</ele>
<time>2017-05-17T06:17:48.739Z</time>
</trkpt>
<trkpt lat="-27.1716308" lon="152.8251882">
<ele>128.667</ele>
<time>2017-05-17T06:17:50.900Z</time>
</trkpt>
<trkpt lat="-27.1721751" lon="152.8252247">
<ele>127.056</ele>
<time>2017-05-17T06:17:53.856Z</time>
</trkpt>
<trkpt lat="-27.1724958" lon="152.8250521">
<ele>125.258</ele>
<time>2017-05-17T06:17:55.768Z</time>
</trkpt>
<trkpt lat="-27.1727872" lon="152.8249815">
<ele>123.219</ele>
<time>2017-05-17T06:17:57.337Z</time>
</trkpt>
<trkpt lat="-27.1734115" lon="152.8250349">
<ele>121.021</ele>
<time>2017-05-17T06:18:00.621Z</time>
</trkpt>
<trkpt lat="-27.1738290" lon="152.8250768">
<ele>118.810</ele>
<time>2017-05-17T06:18:02.893Z</time>
</trkpt>
<trkpt lat="-27.1741668" lon="152.8250648">
<ele>116.608</ele>
<time>2017-05-17T06:18:04.790Z</time>
</trkpt>
<trkpt lat="-27.1745073" lon="152.8252319">
<ele>114.372</ele>
<time>2017-05-17T06:18:06.827Z</time>
</trkpt>
<trkpt lat="-27.1748811" lon="152.8257332">
<ele>112.009</ele>
<time>2017-05-17T06:18:09.978Z</time>
</trkpt>
<trkpt lat="-27.1752540" lon="152.8261642">
<ele>109.423</ele>
<time>2017-05-17T06:18:12.799Z</time>
</trkpt>
<trkpt lat="-27.1758775" lon="152.8263601">
<ele>106.561</ele>
<time>2017-05-17T06:18:16.033Z</time>
</trkpt>
<trkpt lat="-27.1763163" lon="152.8264388">
<ele>103.578</ele>
<time>2017-05-17T06:18:18.152Z</time>
</trkpt>
<trkpt lat="-27.1767138" lon="152.8265257">
<ele>101.003</ele>
<time>2017-05-17T06:18:20.077Z</time>
</trkpt>
<trkpt lat="-27.1773180" lon="152.8266912">
<ele>99.257</ele>
<time>2017-05-17T06:18:23.035Z</time>
</trkpt>
<trkpt lat="-27.1777185" lon="152.8268033">
<ele>98.264</ele>
<time>2017-05-17T06:18:25.051Z</time>
</trkpt>
<trkpt lat="-27.1782961" lon="152.8269472">
<ele>97.732</ele>
<time>2017-05-17T06:18:28.013Z</time>
</trkpt>
<trkpt lat="-27.1786668" lon="152.8270265">
<ele>97.449</ele>
<time>2017-05-17T06:18:29.932Z</time>
</trkpt>
<trkpt lat="-27.1792394" lon="152.8271517">
<ele>97.303</ele>
<time>2017-05-17T06:18:32.904Z</time>
</trkpt>
<trkpt lat="-27.1796110" lon="152.8272673">
<ele>97.251</ele>
<time>2017-05-17T06:18:34.874Z</time>
</trkpt>
<trkpt lat="-27.1801794" lon="152.8274110">
<ele>97.157</ele>
<time>2017-05-17T06:18:37.886Z</time>
</trkpt>
<trkpt lat="-27.1807200" lon="152.8275526">
<ele>96.609</ele>
<time>2017-05-17T06:18:40.837Z</time>
</trkpt>
<trkpt lat="-27.1810798" lon="152.8276133">
<ele>95.286</ele>
<time>2017-05-17T06:18:42.816Z</time>
</trkpt>
<trkpt lat="-27.1814384" lon="152.8276235">
<ele>93.522</ele>
<time>2017-05-17T06:18:44.756Z</time>
</trkpt>
<trkpt lat="-27.1818111" lon="152.8275399">
<ele>91.899</ele>
<time>2017-05-17T06:18:46.794Z</time>
</trkpt>
<trkpt lat="-27.1823612" lon="152.8276653">
<ele>90.488</ele>
<time>2017-05-17T06:18:49.808Z</time>
</trkpt>
<trkpt lat="-27.1828907" lon="152.8278416">
<ele>88.954</ele>
<time>2017-05-17T06:18:52.809Z</time>
</trkpt>
<trkpt lat="-27.1832282" lon="152.8279546">
<ele>87.106</ele>
<time>2017-05-17T06:18:54.781Z</time>
</trkpt>
<trkpt lat="-27.1837254" lon="152.8281149">
<ele>85.085</ele>
<time>2017-05-17T06:18:57.735Z</time>
</trkpt>
<trkpt lat="-27.1840456" lon="152.8282272">
<ele>83.015</ele>
<time>2017-05-17T06:18:59.738Z</time>
</trkpt>
<trkpt lat="-27.1844073" lon="152.8285924">
<ele>80.950</ele>
<time>2017-05-17T06:19:02.753Z</time>
</trkpt>
<trkpt lat="-27.1847491" lon="152.8289274">
<ele>78.905</ele>
<time>2017-05-17T06:19:05.756Z</time>
</trkpt>
<trkpt lat="-27.1851378" lon="152.8290460">
<ele>76.648</ele>
<time>2017-05-17T06:19:08.511Z</time>
</trkpt>
<trkpt lat="-27.1854247" lon="152.8289327">
<ele>74.107</ele>
<time>2017-05-17T06:19:10.462Z</time>
</trkpt>
<trkpt lat="-27.1858313" lon="152.8286335">
<ele>71.718</ele>
<time>2017-05-17T06:19:13.395Z</time>
</trkpt>
<trkpt lat="-27.1861819" lon="152.8283827">
<ele>69.724</ele>
<time>2017-05-17T06:19:15.740Z</time>
</trkpt>
<trkpt lat="-27.1864876" lon="152.8281869">
<ele>68.037</ele>
<time>2017-05-17T06:19:17.721Z</time>
</trkpt>
<trkpt lat="-27.1869347" lon="152.8279084">
<ele>66.718</ele>
<time>2017-05-17T06:19:20.680Z</time>
</trkpt>
<trkpt lat="-27.1872070" lon="152.8277162">
<ele>65.820</ele>
<time>2017-05-17T06:19:22.691Z</time>
</trkpt>
<trkpt lat="-27.1874522" lon="152.8275406">
<ele>65.156</ele>
<time>2017-05-17T06:19:24.622Z</time>
</trkpt>
<trkpt lat="-27.1877785" lon="152.8272505">
<ele>64.586</ele>
<time>2017-05-17T06:19:27.432Z</time>
</trkpt>
<trkpt lat="-27.1879555" lon="152.8269784">
<ele>64.137</ele>
<time>2017-05-17T06:19:29.439Z</time>
</trkpt>
<trkpt lat="-27.1881605" lon="152.8267355">
<ele>63.898</ele>
<time>2017-05-17T06:19:31.398Z</time>
</trkpt>
<trkpt lat="-27.1883963" lon="152.8265272">
<ele>63.894</ele>
<time>2017-05-17T06:19:33.347Z</time>
</trkpt>
<trkpt lat="-27.1888366" lon="152.8263632">
<ele>64.086</ele>
<time>2017-05-17T06:19:36.338Z</time>
</trkpt>
<trkpt lat="-27.1891504" lon="152.8263427">
<ele>64.367</ele>
<time>2017-05-17T06:19:38.345Z</time>
</trkpt>
<trkpt lat="-27.1894550" lon="152.8263655">
<ele>64.590</ele>
<time>2017-05-17T06:19:40.300Z</time>
</trkpt>
<trkpt lat="-27.1899139" lon="152.8264271">
<ele>64.685</ele>
<time>2017-05-17T06:19:43.259Z</time>
</trkpt>
<trkpt lat="-27.1904072" lon="152.8264643">
<ele>64.647</ele>
<time>2017-05-17T06:19:46.415Z</time>
</trkpt>
<trkpt lat="-27.1907129" lon="152.8265251">
<ele>64.481</ele>
<time>2017-05-17T06:19:48.405Z</time>
</trkpt>
<trkpt lat="-27.1911683" lon="152.8265577">
<ele>64.228</ele>
<time>2017-05-17T06:19:51.334Z</time>
</trkpt>
<trkpt lat="-27.1916289" lon="152.8265721">
<ele>63.899</ele>
<time>2017-05-17T06:19:54.284Z</time>
</trkpt>
<trkpt lat="-27.1920874" lon="152.8266141">
<ele>63.475</ele>
<time>2017-05-17T06:19:57.220Z</time>
</trkpt>
<trkpt lat="-27.1923899" lon="152.8266654">
<ele>62.974</ele>
<time>2017-05-17T06:19:59.171Z</time>
</trkpt>
<trkpt lat="-27.1926945" lon="152.8267208">
<ele>62.478</ele>
<time>2017-05-17T06:20:01.136Z</time>
</trkpt>
<trkpt lat="-27.1930011" lon="152.8267235">
<ele>62.096</ele>
<time>2017-05-17T06:20:03.090Z</time>
</trkpt>
<trkpt lat="-27.1934480" lon="152.8265689">
<ele>61.892</ele>
<time>2017-05-17T06:20:06.071Z</time>
</trkpt>
<trkpt lat="-27.1938973" lon="152.8264105">
<ele>61.769</ele>
<time>2017-05-17T06:20:09.110Z</time>
</trkpt>
<trkpt lat="-27.1943300" lon="152.8263019">
<ele>61.570</ele>
<time>2017-05-17T06:20:12.127Z</time>
</trkpt>
<trkpt lat="-27.1945740" lon="152.8262215">
<ele>61.176</ele>
<time>2017-05-17T06:20:14.046Z</time>
</trkpt>
<trkpt lat="-27.1947971" lon="152.8261448">
<ele>60.545</ele>
<time>2017-05-17T06:20:15.998Z</time>
</trkpt>
<trkpt lat="-27.1949801" lon="152.8260894">
<ele>59.724</ele>
<time>2017-05-17T06:20:17.913Z</time>
</trkpt>
<trkpt lat="-27.1950705" lon="152.8260974">
<ele>58.790</ele>
<time>2017-05-17T06:20:18.987Z</time>
</trkpt>
<trkpt lat="-27.1950705" lon="152.8260974">
<ele>57.931</ele>
<time>2017-05-17T06:20:23.987Z</time>
</trkpt>
<trkpt lat="-27.1950705" lon="152.8260974">
<ele>57.474</ele>
<time>2017-05-17T06:21:31.065Z</time>
</trkpt>
<trkpt lat="-27.1952853" lon="152.8260227">
<ele>57.490</ele>
<time>2017-05-17T06:21:37.936Z</time>
</trkpt>
<trkpt lat="-27.1954304" lon="152.8259941">
<ele>57.217</ele>
<time>2017-05-17T06:21:40.385Z</time>
</trkpt>
<trkpt lat="-27.1955384" lon="152.8259820">
<ele>56.114</ele>
<time>2017-05-17T06:21:42.474Z</time>
</trkpt>
<trkpt lat="-27.1957212" lon="152.8259426">
<ele>54.868</ele>
<time>2017-05-17T06:21:46.555Z</time>
</trkpt>
<trkpt lat="-27.1958174" lon="152.8259585">
<ele>54.228</ele>
<time>2017-05-17T06:21:48.455Z</time>
</trkpt>
<trkpt lat="-27.1959043" lon="152.8258084">
<ele>54.084</ele>
<time>2017-05-17T06:21:51.358Z</time>
</trkpt>
<trkpt lat="-27.1959202" lon="152.8254468">
<ele>54.174</ele>
<time>2017-05-17T06:21:55.076Z</time>
</trkpt>
<trkpt lat="-27.1959057" lon="152.8251883">
<ele>54.431</ele>
<time>2017-05-17T06:21:57.196Z</time>
</trkpt>
<trkpt lat="-27.1959104" lon="152.8247981">
<ele>54.864</ele>
<time>2017-05-17T06:22:00.222Z</time>
</trkpt>
<trkpt lat="-27.1960152" lon="152.8244449">
<ele>55.356</ele>
<time>2017-05-17T06:22:03.069Z</time>
</trkpt>
<trkpt lat="-27.1962835" lon="152.8241317">
<ele>55.735</ele>
<time>2017-05-17T06:22:06.414Z</time>
</trkpt>
<trkpt lat="-27.1965027" lon="152.8238444">
<ele>55.933</ele>
<time>2017-05-17T06:22:09.348Z</time>
</trkpt>
<trkpt lat="-27.1966495" lon="152.8235002">
<ele>55.971</ele>
<time>2017-05-17T06:22:12.345Z</time>
</trkpt>
<trkpt lat="-27.1967606" lon="152.8232815">
<ele>55.900</ele>
<time>2017-05-17T06:22:14.382Z</time>
</trkpt>
<trkpt lat="-27.1968833" lon="152.8230910">
<ele>55.779</ele>
<time>2017-05-17T06:22:16.447Z</time>
</trkpt>
<trkpt lat="-27.1969945" lon="152.8229460">
<ele>55.686</ele>
<time>2017-05-17T06:22:18.512Z</time>
</trkpt>
<trkpt lat="-27.1970780" lon="152.8228357">
<ele>55.668</ele>
<time>2017-05-17T06:22:20.605Z</time>
</trkpt>
<trkpt lat="-27.1971545" lon="152.8227640">
<ele>55.730</ele>
<time>2017-05-17T06:22:22.438Z</time>
</trkpt>
<trkpt lat="-27.1972871" lon="152.8227911">
<ele>55.904</ele>
<time>2017-05-17T06:22:24.324Z</time>
</trkpt>
<trkpt lat="-27.1975458" lon="152.8229466">
<ele>56.261</ele>
<time>2017-05-17T06:22:27.586Z</time>
</trkpt>
<trkpt lat="-27.1977349" lon="152.8230500">
<ele>56.960</ele>
<time>2017-05-17T06:22:29.594Z</time>
</trkpt>
<trkpt lat="-27.1980480" lon="152.8231348">
<ele>58.066</ele>
<time>2017-05-17T06:22:32.584Z</time>
</trkpt>
<trkpt lat="-27.1982669" lon="152.8231913">
<ele>59.291</ele>
<time>2017-05-17T06:22:34.623Z</time>
</trkpt>
<trkpt lat="-27.1984722" lon="152.8232477">
<ele>60.190</ele>
<time>2017-05-17T06:22:36.542Z</time>
</trkpt>
<trkpt lat="-27.1987773" lon="152.8233399">
<ele>60.516</ele>
<time>2017-05-17T06:22:39.326Z</time>
</trkpt>
<trkpt lat="-27.1990265" lon="152.8234029">
<ele>60.316</ele>
<time>2017-05-17T06:22:41.388Z</time>
</trkpt>
<trkpt lat="-27.1992892" lon="152.8234680">
<ele>59.907</ele>
<time>2017-05-17T06:22:43.449Z</time>
</trkpt>
<trkpt lat="-27.1995481" lon="152.8235228">
<ele>59.661</ele>
<time>2017-05-17T06:22:45.452Z</time>
</trkpt>
<trkpt lat="-27.1999337" lon="152.8235949">
<ele>59.692</ele>
<time>2017-05-17T06:22:48.455Z</time>
</trkpt>
<trkpt lat="-27.2001787" lon="152.8236692">
<ele>59.833</ele>
<time>2017-05-17T06:22:50.411Z</time>
</trkpt>
<trkpt lat="-27.2004882" lon="152.8239302">
<ele>59.818</ele>
<time>2017-05-17T06:22:53.328Z</time>
</trkpt>
<trkpt lat="-27.2007837" lon="152.8242564">
<ele>59.425</ele>
<time>2017-05-17T06:22:56.251Z</time>
</trkpt>
<trkpt lat="-27.2011392" lon="152.8246161">
<ele>58.758</ele>
<time>2017-05-17T06:22:59.303Z</time>
</trkpt>
<trkpt lat="-27.2014067" lon="152.8248763">
<ele>58.223</ele>
<time>2017-05-17T06:23:01.351Z</time>
</trkpt>
<trkpt lat="-27.2016718" lon="152.8251432">
<ele>58.064</ele>
<time>2017-05-17T06:23:03.354Z</time>
</trkpt>
<trkpt lat="-27.2020917" lon="152.8255067">
<ele>58.229</ele>
<time>2017-05-17T06:23:06.322Z</time>
</trkpt>
<trkpt lat="-27.2023836" lon="152.8257388">
<ele>58.569</ele>
<time>2017-05-17T06:23:08.319Z</time>
</trkpt>
<trkpt lat="-27.2026329" lon="152.8260333">
<ele>58.921</ele>
<time>2017-05-17T06:23:10.338Z</time>
</trkpt>
<trkpt lat="-27.2029276" lon="152.8262584">
<ele>59.176</ele>
<time>2017-05-17T06:23:12.335Z</time>
</trkpt>
<trkpt lat="-27.2031947" lon="152.8265184">
<ele>59.301</ele>
<time>2017-05-17T06:23:14.326Z</time>
</trkpt>
<trkpt lat="-27.2034566" lon="152.8267897">
<ele>59.322</ele>
<time>2017-05-17T06:23:16.334Z</time>
</trkpt>
<trkpt lat="-27.2039013" lon="152.8271362">
<ele>59.290</ele>
<time>2017-05-17T06:23:19.385Z</time>
</trkpt>
<trkpt lat="-27.2041592" lon="152.8274071">
<ele>59.290</ele>
<time>2017-05-17T06:23:21.370Z</time>
</trkpt>
<trkpt lat="-27.2044567" lon="152.8276352">
<ele>59.438</ele>
<time>2017-05-17T06:23:23.371Z</time>
</trkpt>
<trkpt lat="-27.2048787" lon="152.8280277">
<ele>59.715</ele>
<time>2017-05-17T06:23:26.387Z</time>
</trkpt>
<trkpt lat="-27.2053193" lon="152.8283855">
<ele>59.920</ele>
<time>2017-05-17T06:23:29.377Z</time>
</trkpt>
<trkpt lat="-27.2056267" lon="152.8285851">
<ele>59.847</ele>
<time>2017-05-17T06:23:31.344Z</time>
</trkpt>
<trkpt lat="-27.2061223" lon="152.8288102">
<ele>59.505</ele>
<time>2017-05-17T06:23:34.295Z</time>
</trkpt>
<trkpt lat="-27.2064601" lon="152.8289926">
<ele>59.125</ele>
<time>2017-05-17T06:23:36.296Z</time>
</trkpt>
<trkpt lat="-27.2069628" lon="152.8293330">
<ele>58.948</ele>
<time>2017-05-17T06:23:39.322Z</time>
</trkpt>
<trkpt lat="-27.2074451" lon="152.8297398">
<ele>59.112</ele>
<time>2017-05-17T06:23:42.345Z</time>
</trkpt>
<trkpt lat="-27.2077748" lon="152.8299887">
<ele>59.782</ele>
<time>2017-05-17T06:23:44.328Z</time>
</trkpt>
<trkpt lat="-27.2082957" lon="152.8303415">
<ele>60.907</ele>
<time>2017-05-17T06:23:47.349Z</time>
</trkpt>
<trkpt lat="-27.2086725" lon="152.8305115">
<ele>62.104</ele>
<time>2017-05-17T06:23:49.356Z</time>
</trkpt>
<trkpt lat="-27.2090250" lon="152.8307223">
<ele>63.131</ele>
<time>2017-05-17T06:23:51.336Z</time>
</trkpt>
<trkpt lat="-27.2095743" lon="152.8310083">
<ele>64.088</ele>
<time>2017-05-17T06:23:54.342Z</time>
</trkpt>
<trkpt lat="-27.2099286" lon="152.8312327">
<ele>65.039</ele>
<time>2017-05-17T06:23:56.348Z</time>
</trkpt>
<trkpt lat="-27.2104917" lon="152.8314922">
<ele>65.821</ele>
<time>2017-05-17T06:23:59.334Z</time>
</trkpt>
<trkpt lat="-27.2108658" lon="152.8316739">
<ele>66.209</ele>
<time>2017-05-17T06:24:01.342Z</time>
</trkpt>
<trkpt lat="-27.2114136" lon="152.8319435">
<ele>66.113</ele>
<time>2017-05-17T06:24:04.304Z</time>
</trkpt>
<trkpt lat="-27.2117959" lon="152.8320867">
<ele>65.482</ele>
<time>2017-05-17T06:24:06.307Z</time>
</trkpt>
<trkpt lat="-27.2123688" lon="152.8323002">
<ele>64.373</ele>
<time>2017-05-17T06:24:09.305Z</time>
</trkpt>
<trkpt lat="-27.2127487" lon="152.8324469">
<ele>63.022</ele>
<time>2017-05-17T06:24:11.297Z</time>
</trkpt>
<trkpt lat="-27.2133770" lon="152.8326624">
<ele>61.734</ele>
<time>2017-05-17T06:24:14.548Z</time>
</trkpt>
<trkpt lat="-27.2139283" lon="152.8328355">
<ele>60.705</ele>
<time>2017-05-17T06:24:17.383Z</time>
</trkpt>
<trkpt lat="-27.2145128" lon="152.8330708">
<ele>59.995</ele>
<time>2017-05-17T06:24:20.464Z</time>
</trkpt>
<trkpt lat="-27.2150918" lon="152.8332257">
<ele>59.597</ele>
<time>2017-05-17T06:24:23.426Z</time>
</trkpt>
<trkpt lat="-27.2154941" lon="152.8332749">
<ele>59.530</ele>
<time>2017-05-17T06:24:25.438Z</time>
</trkpt>
<trkpt lat="-27.2159010" lon="152.8333280">
<ele>59.698</ele>
<time>2017-05-17T06:24:27.464Z</time>
</trkpt>
<trkpt lat="-27.2163095" lon="152.8333123">
<ele>59.955</ele>
<time>2017-05-17T06:24:29.457Z</time>
</trkpt>
<trkpt lat="-27.2169392" lon="152.8332635">
<ele>60.259</ele>
<time>2017-05-17T06:24:32.446Z</time>
</trkpt>
<trkpt lat="-27.2173850" lon="152.8331989">
<ele>60.747</ele>
<time>2017-05-17T06:24:34.435Z</time>
</trkpt>
<trkpt lat="-27.2180662" lon="152.8330139">
<ele>61.578</ele>
<time>2017-05-17T06:24:37.416Z</time>
</trkpt>
<trkpt lat="-27.2187593" lon="152.8327398">
<ele>62.831</ele>
<time>2017-05-17T06:24:40.413Z</time>
</trkpt>
<trkpt lat="-27.2192317" lon="152.8325360">
<ele>64.486</ele>
<time>2017-05-17T06:24:42.424Z</time>
</trkpt>
<trkpt lat="-27.2199378" lon="152.8322067">
<ele>66.314</ele>
<time>2017-05-17T06:24:45.450Z</time>
</trkpt>
<trkpt lat="-27.2206183" lon="152.8318393">
<ele>67.990</ele>
<time>2017-05-17T06:24:48.427Z</time>
</trkpt>
<trkpt lat="-27.2210865" lon="152.8316158">
<ele>69.464</ele>
<time>2017-05-17T06:24:50.421Z</time>
</trkpt>
<trkpt lat="-27.2215556" lon="152.8313926">
<ele>70.777</ele>
<time>2017-05-17T06:24:52.411Z</time>
</trkpt>
<trkpt lat="-27.2220314" lon="152.8311682">
<ele>71.817</ele>
<time>2017-05-17T06:24:54.418Z</time>
</trkpt>
<trkpt lat="-27.2225083" lon="152.8309604">
<ele>72.566</ele>
<time>2017-05-17T06:24:56.406Z</time>
</trkpt>
<trkpt lat="-27.2232199" lon="152.8306438">
<ele>73.197</ele>
<time>2017-05-17T06:24:59.384Z</time>
</trkpt>
<trkpt lat="-27.2236827" lon="152.8304003">
<ele>73.858</ele>
<time>2017-05-17T06:25:01.383Z</time>
</trkpt>
<trkpt lat="-27.2241546" lon="152.8302057">
<ele>74.642</ele>
<time>2017-05-17T06:25:03.362Z</time>
</trkpt>
<trkpt lat="-27.2246241" lon="152.8300036">
<ele>75.683</ele>
<time>2017-05-17T06:25:05.344Z</time>
</trkpt>
<trkpt lat="-27.2253592" lon="152.8298233">
<ele>77.141</ele>
<time>2017-05-17T06:25:08.300Z</time>
</trkpt>
<trkpt lat="-27.2261305" lon="152.8297069">
<ele>79.195</ele>
<time>2017-05-17T06:25:11.341Z</time>
</trkpt>
<trkpt lat="-27.2266371" lon="152.8296521">
<ele>81.894</ele>
<time>2017-05-17T06:25:13.323Z</time>
</trkpt>
<trkpt lat="-27.2273933" lon="152.8296902">
<ele>84.820</ele>
<time>2017-05-17T06:25:16.266Z</time>
</trkpt>
<trkpt lat="-27.2279124" lon="152.8297548">
<ele>87.397</ele>
<time>2017-05-17T06:25:18.292Z</time>
</trkpt>
<trkpt lat="-27.2284237" lon="152.8297683">
<ele>89.342</ele>
<time>2017-05-17T06:25:20.282Z</time>
</trkpt>
<trkpt lat="-27.2291859" lon="152.8298367">
<ele>90.594</ele>
<time>2017-05-17T06:25:23.264Z</time>
</trkpt>
<trkpt lat="-27.2296941" lon="152.8298624">
<ele>91.442</ele>
<time>2017-05-17T06:25:25.250Z</time>
</trkpt>
<trkpt lat="-27.2304585" lon="152.8298950">
<ele>92.362</ele>
<time>2017-05-17T06:25:28.240Z</time>
</trkpt>
<trkpt lat="-27.2312194" lon="152.8299458">
<ele>93.606</ele>
<time>2017-05-17T06:25:31.224Z</time>
</trkpt>
<trkpt lat="-27.2317268" lon="152.8300137">
<ele>95.344</ele>
<time>2017-05-17T06:25:33.224Z</time>
</trkpt>
<trkpt lat="-27.2324764" lon="152.8301623">
<ele>97.514</ele>
<time>2017-05-17T06:25:36.194Z</time>
</trkpt>
<trkpt lat="-27.2332250" lon="152.8304091">
<ele>99.856</ele>
<time>2017-05-17T06:25:39.212Z</time>
</trkpt>
<trkpt lat="-27.2337200" lon="152.8305476">
<ele>102.217</ele>
<time>2017-05-17T06:25:41.185Z</time>
</trkpt>
<trkpt lat="-27.2341973" lon="152.8307585">
<ele>104.307</ele>
<time>2017-05-17T06:25:43.183Z</time>
</trkpt>
<trkpt lat="-27.2349010" lon="152.8310845">
<ele>105.747</ele>
<time>2017-05-17T06:25:46.158Z</time>
</trkpt>
<trkpt lat="-27.2353660" lon="152.8313252">
<ele>106.535</ele>
<time>2017-05-17T06:25:48.157Z</time>
</trkpt>
<trkpt lat="-27.2358191" lon="152.8315752">
<ele>106.890</ele>
<time>2017-05-17T06:25:50.126Z</time>
</trkpt>
<trkpt lat="-27.2362697" lon="152.8318397">
<ele>106.936</ele>
<time>2017-05-17T06:25:52.106Z</time>
</trkpt>
<trkpt lat="-27.2369718" lon="152.8321956">
<ele>106.688</ele>
<time>2017-05-17T06:25:55.097Z</time>
</trkpt>
<trkpt lat="-27.2374630" lon="152.8323401">
<ele>106.025</ele>
<time>2017-05-17T06:25:57.069Z</time>
</trkpt>
<trkpt lat="-27.2379584" lon="152.8324546">
<ele>104.829</ele>
<time>2017-05-17T06:25:59.042Z</time>
</trkpt>
<trkpt lat="-27.2387243" lon="152.8325555">
<ele>103.254</ele>
<time>2017-05-17T06:26:02.053Z</time>
</trkpt>
<trkpt lat="-27.2394985" lon="152.8325300">
<ele>101.443</ele>
<time>2017-05-17T06:26:05.073Z</time>
</trkpt>
<trkpt lat="-27.2402701" lon="152.8325499">
<ele>99.350</ele>
<time>2017-05-17T06:26:08.078Z</time>
</trkpt>
<trkpt lat="-27.2410349" lon="152.8326711">
<ele>97.165</ele>
<time>2017-05-17T06:26:11.083Z</time>
</trkpt>
<trkpt lat="-27.2415149" lon="152.8328698">
<ele>95.409</ele>
<time>2017-05-17T06:26:13.073Z</time>
</trkpt>
<trkpt lat="-27.2419940" lon="152.8330653">
<ele>94.428</ele>
<time>2017-05-17T06:26:15.056Z</time>
</trkpt>
<trkpt lat="-27.2427102" lon="152.8333852">
<ele>94.004</ele>
<time>2017-05-17T06:26:18.059Z</time>
</trkpt>
<trkpt lat="-27.2431949" lon="152.8335684">
<ele>93.495</ele>
<time>2017-05-17T06:26:20.058Z</time>
</trkpt>
<trkpt lat="-27.2436933" lon="152.8336875">
<ele>92.507</ele>
<time>2017-05-17T06:26:22.053Z</time>
</trkpt>
<trkpt lat="-27.2444617" lon="152.8338238">
<ele>91.229</ele>
<time>2017-05-17T06:26:25.103Z</time>
</trkpt>
<trkpt lat="-27.2449611" lon="152.8338796">
<ele>90.015</ele>
<time>2017-05-17T06:26:27.065Z</time>
</trkpt>
<trkpt lat="-27.2457314" lon="152.8341370">
<ele>89.083</ele>
<time>2017-05-17T06:26:30.177Z</time>
</trkpt>
<trkpt lat="-27.2461750" lon="152.8344071">
<ele>88.574</ele>
<time>2017-05-17T06:26:32.118Z</time>
</trkpt>
<trkpt lat="-27.2465504" lon="152.8348072">
<ele>88.442</ele>
<time>2017-05-17T06:26:34.112Z</time>
</trkpt>
<trkpt lat="-27.2470839" lon="152.8354314">
<ele>88.450</ele>
<time>2017-05-17T06:26:37.085Z</time>
</trkpt>
<trkpt lat="-27.2474471" lon="152.8358409">
<ele>88.216</ele>
<time>2017-05-17T06:26:39.070Z</time>
</trkpt>
<trkpt lat="-27.2478328" lon="152.8362307">
<ele>87.249</ele>
<time>2017-05-17T06:26:41.076Z</time>
</trkpt>
<trkpt lat="-27.2483633" lon="152.8368477">
<ele>85.239</ele>
<time>2017-05-17T06:26:44.044Z</time>
</trkpt>
<trkpt lat="-27.2486885" lon="152.8372852">
<ele>82.179</ele>
<time>2017-05-17T06:26:46.031Z</time>
</trkpt>
<trkpt lat="-27.2491768" lon="152.8379293">
<ele>78.556</ele>
<time>2017-05-17T06:26:48.992Z</time>
</trkpt>
<trkpt lat="-27.2494619" lon="152.8383953">
<ele>75.424</ele>
<time>2017-05-17T06:26:50.979Z</time>
</trkpt>
<trkpt lat="-27.2498254" lon="152.8391373">
<ele>73.627</ele>
<time>2017-05-17T06:26:53.956Z</time>
</trkpt>
<trkpt lat="-27.2500961" lon="152.8399279">
<ele>73.417</ele>
<time>2017-05-17T06:26:56.926Z</time>
</trkpt>
<trkpt lat="-27.2501641" lon="152.8404929">
<ele>74.825</ele>
<time>2017-05-17T06:26:58.910Z</time>
</trkpt>
<trkpt lat="-27.2502895" lon="152.8413463">
<ele>77.313</ele>
<time>2017-05-17T06:27:01.901Z</time>
</trkpt>
<trkpt lat="-27.2503779" lon="152.8419141">
<ele>79.619</ele>
<time>2017-05-17T06:27:03.887Z</time>
</trkpt>
<trkpt lat="-27.2504948" lon="152.8427744">
<ele>80.813</ele>
<time>2017-05-17T06:27:06.887Z</time>
</trkpt>
<trkpt lat="-27.2506928" lon="152.8433040">
<ele>80.748</ele>
<time>2017-05-17T06:27:08.875Z</time>
</trkpt>
<trkpt lat="-27.2509559" lon="152.8437879">
<ele>79.640</ele>
<time>2017-05-17T06:27:10.849Z</time>
</trkpt>
<trkpt lat="-27.2513440" lon="152.8445468">
<ele>77.822</ele>
<time>2017-05-17T06:27:13.907Z</time>
</trkpt>
<trkpt lat="-27.2516400" lon="152.8450163">
<ele>75.567</ele>
<time>2017-05-17T06:27:15.912Z</time>
</trkpt>
<trkpt lat="-27.2520192" lon="152.8454062">
<ele>73.253</ele>
<time>2017-05-17T06:27:17.923Z</time>
</trkpt>
<trkpt lat="-27.2525088" lon="152.8460672">
<ele>71.446</ele>
<time>2017-05-17T06:27:20.915Z</time>
</trkpt>
<trkpt lat="-27.2529964" lon="152.8467277">
<ele>70.229</ele>
<time>2017-05-17T06:27:23.898Z</time>
</trkpt>
<trkpt lat="-27.2534734" lon="152.8474008">
<ele>69.238</ele>
<time>2017-05-17T06:27:26.886Z</time>
</trkpt>
<trkpt lat="-27.2538065" lon="152.8478313">
<ele>68.298</ele>
<time>2017-05-17T06:27:28.869Z</time>
</trkpt>
<trkpt lat="-27.2543117" lon="152.8484787">
<ele>67.513</ele>
<time>2017-05-17T06:27:31.865Z</time>
</trkpt>
<trkpt lat="-27.2546295" lon="152.8489299">
<ele>67.086</ele>
<time>2017-05-17T06:27:33.867Z</time>
</trkpt>
<trkpt lat="-27.2551851" lon="152.8495148">
<ele>67.077</ele>
<time>2017-05-17T06:27:36.840Z</time>
</trkpt>
<trkpt lat="-27.2555652" lon="152.8498996">
<ele>67.442</ele>
<time>2017-05-17T06:27:38.835Z</time>
</trkpt>
<trkpt lat="-27.2559911" lon="152.8502144">
<ele>68.179</ele>
<time>2017-05-17T06:27:40.822Z</time>
</trkpt>
<trkpt lat="-27.2566216" lon="152.8507211">
<ele>69.175</ele>
<time>2017-05-17T06:27:43.843Z</time>
</trkpt>
<trkpt lat="-27.2570684" lon="152.8510075">
<ele>70.224</ele>
<time>2017-05-17T06:27:45.847Z</time>
</trkpt>
<trkpt lat="-27.2575421" lon="152.8512199">
<ele>71.243</ele>
<time>2017-05-17T06:27:47.832Z</time>
</trkpt>
<trkpt lat="-27.2582761" lon="152.8514788">
<ele>72.232</ele>
<time>2017-05-17T06:27:50.820Z</time>
</trkpt>
<trkpt lat="-27.2590314" lon="152.8516612">
<ele>73.054</ele>
<time>2017-05-17T06:27:53.812Z</time>
</trkpt>
<trkpt lat="-27.2598115" lon="152.8517311">
<ele>73.267</ele>
<time>2017-05-17T06:27:56.838Z</time>
</trkpt>
<trkpt lat="-27.2605861" lon="152.8517456">
<ele>72.403</ele>
<time>2017-05-17T06:27:59.837Z</time>
</trkpt>
<trkpt lat="-27.2611019" lon="152.8517402">
<ele>70.496</ele>
<time>2017-05-17T06:28:01.838Z</time>
</trkpt>
<trkpt lat="-27.2618773" lon="152.8516536">
<ele>68.167</ele>
<time>2017-05-17T06:28:04.860Z</time>
</trkpt>
<trkpt lat="-27.2623874" lon="152.8515303">
<ele>66.039</ele>
<time>2017-05-17T06:28:06.883Z</time>
</trkpt>
<trkpt lat="-27.2628879" lon="152.8514023">
<ele>64.497</ele>
<time>2017-05-17T06:28:08.880Z</time>
</trkpt>
<trkpt lat="-27.2633972" lon="152.8513383">
<ele>63.806</ele>
<time>2017-05-17T06:28:10.877Z</time>
</trkpt>
<trkpt lat="-27.2641936" lon="152.8511947">
<ele>64.030</ele>
<time>2017-05-17T06:28:14.019Z</time>
</trkpt>
<trkpt lat="-27.2646946" lon="152.8511582">
<ele>65.194</ele>
<time>2017-05-17T06:28:15.971Z</time>
</trkpt>
<trkpt lat="-27.2654473" lon="152.8509605">
<ele>67.201</ele>
<time>2017-05-17T06:28:18.972Z</time>
</trkpt>
<trkpt lat="-27.2659538" lon="152.8508932">
<ele>69.676</ele>
<time>2017-05-17T06:28:20.948Z</time>
</trkpt>
<trkpt lat="-27.2667004" lon="152.8507189">
<ele>72.172</ele>
<time>2017-05-17T06:28:23.908Z</time>
</trkpt>
<trkpt lat="-27.2674527" lon="152.8506057">
<ele>74.405</ele>
<time>2017-05-17T06:28:26.869Z</time>
</trkpt>
<trkpt lat="-27.2679471" lon="152.8504891">
<ele>76.185</ele>
<time>2017-05-17T06:28:28.843Z</time>
</trkpt>
<trkpt lat="-27.2686978" lon="152.8503242">
<ele>77.334</ele>
<time>2017-05-17T06:28:31.831Z</time>
</trkpt>
<trkpt lat="-27.2691991" lon="152.8501980">
<ele>77.554</ele>
<time>2017-05-17T06:28:33.832Z</time>
</trkpt>
<trkpt lat="-27.2699605" lon="152.8500664">
<ele>76.833</ele>
<time>2017-05-17T06:28:36.823Z</time>
</trkpt>
<trkpt lat="-27.2707227" lon="152.8499376">
<ele>75.541</ele>
<time>2017-05-17T06:28:39.803Z</time>
</trkpt>
<trkpt lat="-27.2714825" lon="152.8497763">
<ele>74.101</ele>
<time>2017-05-17T06:28:42.782Z</time>
</trkpt>
<trkpt lat="-27.2719935" lon="152.8496876">
<ele>72.786</ele>
<time>2017-05-17T06:28:44.778Z</time>
</trkpt>
<trkpt lat="-27.2727496" lon="152.8495779">
<ele>71.756</ele>
<time>2017-05-17T06:28:47.740Z</time>
</trkpt>
<trkpt lat="-27.2732452" lon="152.8494605">
<ele>70.892</ele>
<time>2017-05-17T06:28:49.718Z</time>
</trkpt>
<trkpt lat="-27.2740003" lon="152.8493007">
<ele>70.078</ele>
<time>2017-05-17T06:28:52.714Z</time>
</trkpt>
<trkpt lat="-27.2744962" lon="152.8491601">
<ele>69.383</ele>
<time>2017-05-17T06:28:54.706Z</time>
</trkpt>
<trkpt lat="-27.2752370" lon="152.8489832">
<ele>68.877</ele>
<time>2017-05-17T06:28:57.669Z</time>
</trkpt>
<trkpt lat="-27.2757212" lon="152.8488067">
<ele>68.571</ele>
<time>2017-05-17T06:28:59.666Z</time>
</trkpt>
<trkpt lat="-27.2762112" lon="152.8486358">
<ele>68.540</ele>
<time>2017-05-17T06:29:01.664Z</time>
</trkpt>
<trkpt lat="-27.2766989" lon="152.8484514">
<ele>68.873</ele>
<time>2017-05-17T06:29:03.659Z</time>
</trkpt>
<trkpt lat="-27.2771757" lon="152.8482521">
<ele>69.555</ele>
<time>2017-05-17T06:29:05.639Z</time>
</trkpt>
<trkpt lat="-27.2776504" lon="152.8480384">
<ele>70.398</ele>
<time>2017-05-17T06:29:07.634Z</time>
</trkpt>
<trkpt lat="-27.2783603" lon="152.8477221">
<ele>71.148</ele>
<time>2017-05-17T06:29:10.615Z</time>
</trkpt>
<trkpt lat="-27.2790622" lon="152.8473605">
<ele>71.677</ele>
<time>2017-05-17T06:29:13.624Z</time>
</trkpt>
<trkpt lat="-27.2795076" lon="152.8470796">
<ele>72.017</ele>
<time>2017-05-17T06:29:15.611Z</time>
</trkpt>
<trkpt lat="-27.2801930" lon="152.8466966">
<ele>72.207</ele>
<time>2017-05-17T06:29:18.591Z</time>
</trkpt>
<trkpt lat="-27.2808786" lon="152.8463027">
<ele>72.172</ele>
<time>2017-05-17T06:29:21.584Z</time>
</trkpt>
<trkpt lat="-27.2813282" lon="152.8460246">
<ele>71.758</ele>
<time>2017-05-17T06:29:23.578Z</time>
</trkpt>
<trkpt lat="-27.2818066" lon="152.8458147">
<ele>70.939</ele>
<time>2017-05-17T06:29:25.575Z</time>
</trkpt>
<trkpt lat="-27.2822685" lon="152.8455728">
<ele>69.902</ele>
<time>2017-05-17T06:29:27.559Z</time>
</trkpt>
<trkpt lat="-27.2827202" lon="152.8452961">
<ele>68.777</ele>
<time>2017-05-17T06:29:29.559Z</time>
</trkpt>
<trkpt lat="-27.2834124" lon="152.8449235">
<ele>67.612</ele>
<time>2017-05-17T06:29:32.539Z</time>
</trkpt>
<trkpt lat="-27.2840887" lon="152.8445232">
<ele>66.399</ele>
<time>2017-05-17T06:29:35.519Z</time>
</trkpt>
<trkpt lat="-27.2845459" lon="152.8442776">
<ele>65.130</ele>
<time>2017-05-17T06:29:37.504Z</time>
</trkpt>
<trkpt lat="-27.2850126" lon="152.8440535">
<ele>64.031</ele>
<time>2017-05-17T06:29:39.495Z</time>
</trkpt>
<trkpt lat="-27.2854728" lon="152.8438063">
<ele>63.397</ele>
<time>2017-05-17T06:29:41.498Z</time>
</trkpt>
<trkpt lat="-27.2859519" lon="152.8436082">
<ele>63.253</ele>
<time>2017-05-17T06:29:43.503Z</time>
</trkpt>
<trkpt lat="-27.2866866" lon="152.8433671">
<ele>63.412</ele>
<time>2017-05-17T06:29:46.500Z</time>
</trkpt>
<trkpt lat="-27.2871881" lon="152.8432259">
<ele>63.733</ele>
<time>2017-05-17T06:29:48.518Z</time>
</trkpt>
<trkpt lat="-27.2876943" lon="152.8431404">
<ele>64.191</ele>
<time>2017-05-17T06:29:50.516Z</time>
</trkpt>
<trkpt lat="-27.2884499" lon="152.8429606">
<ele>64.755</ele>
<time>2017-05-17T06:29:53.531Z</time>
</trkpt>
<trkpt lat="-27.2892075" lon="152.8428127">
<ele>65.312</ele>
<time>2017-05-17T06:29:56.534Z</time>
</trkpt>
<trkpt lat="-27.2897039" lon="152.8426671">
<ele>65.729</ele>
<time>2017-05-17T06:29:58.533Z</time>
</trkpt>
<trkpt lat="-27.2902092" lon="152.8425516">
<ele>65.893</ele>
<time>2017-05-17T06:30:00.539Z</time>
</trkpt>
<trkpt lat="-27.2907118" lon="152.8424473">
<ele>65.778</ele>
<time>2017-05-17T06:30:02.529Z</time>
</trkpt>
<trkpt lat="-27.2912149" lon="152.8422940">
<ele>65.398</ele>
<time>2017-05-17T06:30:04.555Z</time>
</trkpt>
<trkpt lat="-27.2919539" lon="152.8420566">
<ele>64.794</ele>
<time>2017-05-17T06:30:07.540Z</time>
</trkpt>
<trkpt lat="-27.2924708" lon="152.8420142">
<ele>64.107</ele>
<time>2017-05-17T06:30:09.553Z</time>
</trkpt>
<trkpt lat="-27.2932465" lon="152.8419815">
<ele>63.503</ele>
<time>2017-05-17T06:30:12.572Z</time>
</trkpt>
<trkpt lat="-27.2940116" lon="152.8420330">
<ele>63.079</ele>
<time>2017-05-17T06:30:15.561Z</time>
</trkpt>
<trkpt lat="-27.2945250" lon="152.8421079">
<ele>62.887</ele>
<time>2017-05-17T06:30:17.579Z</time>
</trkpt>
<trkpt lat="-27.2950240" lon="152.8422296">
<ele>62.974</ele>
<time>2017-05-17T06:30:19.570Z</time>
</trkpt>
<trkpt lat="-27.2957794" lon="152.8423788">
<ele>63.263</ele>
<time>2017-05-17T06:30:22.555Z</time>
</trkpt>
<trkpt lat="-27.2962823" lon="152.8425176">
<ele>63.487</ele>
<time>2017-05-17T06:30:24.565Z</time>
</trkpt>
<trkpt lat="-27.2967869" lon="152.8426524">
<ele>63.478</ele>
<time>2017-05-17T06:30:26.580Z</time>
</trkpt>
<trkpt lat="-27.2975619" lon="152.8428125">
<ele>63.389</ele>
<time>2017-05-17T06:30:29.644Z</time>
</trkpt>
<trkpt lat="-27.2983014" lon="152.8430194">
<ele>63.390</ele>
<time>2017-05-17T06:30:32.605Z</time>
</trkpt>
<trkpt lat="-27.2990531" lon="152.8432087">
<ele>63.455</ele>
<time>2017-05-17T06:30:35.609Z</time>
</trkpt>
<trkpt lat="-27.2995412" lon="152.8433836">
<ele>63.489</ele>
<time>2017-05-17T06:30:37.615Z</time>
</trkpt>
<trkpt lat="-27.3000430" lon="152.8434996">
<ele>63.461</ele>
<time>2017-05-17T06:30:39.618Z</time>
</trkpt>
<trkpt lat="-27.3008179" lon="152.8435064">
<ele>63.457</ele>
<time>2017-05-17T06:30:42.643Z</time>
</trkpt>
<trkpt lat="-27.3013279" lon="152.8434049">
<ele>63.679</ele>
<time>2017-05-17T06:30:44.665Z</time>
</trkpt>
<trkpt lat="-27.3018838" lon="152.8432970">
<ele>64.214</ele>
<time>2017-05-17T06:30:46.867Z</time>
</trkpt>
<trkpt lat="-27.3026278" lon="152.8431358">
<ele>64.950</ele>
<time>2017-05-17T06:30:49.827Z</time>
</trkpt>
<trkpt lat="-27.3031319" lon="152.8430164">
<ele>66.078</ele>
<time>2017-05-17T06:30:51.845Z</time>
</trkpt>
<trkpt lat="-27.3038770" lon="152.8428499">
<ele>67.992</ele>
<time>2017-05-17T06:30:54.816Z</time>
</trkpt>
<trkpt lat="-27.3043798" lon="152.8427558">
<ele>70.833</ele>
<time>2017-05-17T06:30:56.800Z</time>
</trkpt>
<trkpt lat="-27.3051219" lon="152.8425752">
<ele>74.250</ele>
<time>2017-05-17T06:30:59.752Z</time>
</trkpt>
<trkpt lat="-27.3056197" lon="152.8424592">
<ele>77.554</ele>
<time>2017-05-17T06:31:01.726Z</time>
</trkpt>
<trkpt lat="-27.3063825" lon="152.8423606">
<ele>80.021</ele>
<time>2017-05-17T06:31:04.697Z</time>
</trkpt>
<trkpt lat="-27.3068970" lon="152.8424304">
<ele>81.240</ele>
<time>2017-05-17T06:31:06.703Z</time>
</trkpt>
<trkpt lat="-27.3073997" lon="152.8425273">
<ele>81.237</ele>
<time>2017-05-17T06:31:08.697Z</time>
</trkpt>
<trkpt lat="-27.3081174" lon="152.8428073">
<ele>80.582</ele>
<time>2017-05-17T06:31:11.692Z</time>
</trkpt>
<trkpt lat="-27.3088037" lon="152.8431828">
<ele>79.984</ele>
<time>2017-05-17T06:31:14.698Z</time>
</trkpt>
<trkpt lat="-27.3092206" lon="152.8435123">
<ele>80.141</ele>
<time>2017-05-17T06:31:16.692Z</time>
</trkpt>
<trkpt lat="-27.3098048" lon="152.8440986">
<ele>81.357</ele>
<time>2017-05-17T06:31:19.740Z</time>
</trkpt>
<trkpt lat="-27.3101351" lon="152.8445429">
<ele>83.339</ele>
<time>2017-05-17T06:31:21.736Z</time>
</trkpt>
<trkpt lat="-27.3105397" lon="152.8452879">
<ele>85.293</ele>
<time>2017-05-17T06:31:24.747Z</time>
</trkpt>
<trkpt lat="-27.3108383" lon="152.8460835">
<ele>86.482</ele>
<time>2017-05-17T06:31:27.731Z</time>
</trkpt>
<trkpt lat="-27.3109403" lon="152.8466483">
<ele>86.519</ele>
<time>2017-05-17T06:31:29.723Z</time>
</trkpt>
<trkpt lat="-27.3110408" lon="152.8475077">
<ele>85.494</ele>
<time>2017-05-17T06:31:32.715Z</time>
</trkpt>
<trkpt lat="-27.3110581" lon="152.8483715">
<ele>83.863</ele>
<time>2017-05-17T06:31:35.697Z</time>
</trkpt>
<trkpt lat="-27.3109668" lon="152.8489392">
<ele>82.218</ele>
<time>2017-05-17T06:31:37.688Z</time>
</trkpt>
<trkpt lat="-27.3107511" lon="152.8497693">
<ele>80.927</ele>
<time>2017-05-17T06:31:40.670Z</time>
</trkpt>
<trkpt lat="-27.3105575" lon="152.8506017">
<ele>80.065</ele>
<time>2017-05-17T06:31:43.660Z</time>
</trkpt>
<trkpt lat="-27.3103812" lon="152.8514033">
<ele>79.439</ele>
<time>2017-05-17T06:31:46.621Z</time>
</trkpt>
<trkpt lat="-27.3102657" lon="152.8519018">
<ele>78.702</ele>
<time>2017-05-17T06:31:48.561Z</time>
</trkpt>
<trkpt lat="-27.3102666" lon="152.8526624">
<ele>77.804</ele>
<time>2017-05-17T06:31:51.520Z</time>
</trkpt>
<trkpt lat="-27.3103305" lon="152.8531562">
<ele>77.312</ele>
<time>2017-05-17T06:31:53.503Z</time>
</trkpt>
<trkpt lat="-27.3104271" lon="152.8536395">
<ele>77.698</ele>
<time>2017-05-17T06:31:55.504Z</time>
</trkpt>
<trkpt lat="-27.3106861" lon="152.8542727">
<ele>78.771</ele>
<time>2017-05-17T06:31:58.423Z</time>
</trkpt>
<trkpt lat="-27.3108564" lon="152.8546477">
<ele>80.150</ele>
<time>2017-05-17T06:32:00.316Z</time>
</trkpt>
<trkpt lat="-27.3111620" lon="152.8551568">
<ele>81.512</ele>
<time>2017-05-17T06:32:03.238Z</time>
</trkpt>
<trkpt lat="-27.3113767" lon="152.8554986">
<ele>82.694</ele>
<time>2017-05-17T06:32:05.257Z</time>
</trkpt>
<trkpt lat="-27.3117676" lon="152.8559510">
<ele>83.830</ele>
<time>2017-05-17T06:32:08.273Z</time>
</trkpt>
<trkpt lat="-27.3120771" lon="152.8561912">
<ele>85.082</ele>
<time>2017-05-17T06:32:10.272Z</time>
</trkpt>
<trkpt lat="-27.3125619" lon="152.8565101">
<ele>86.408</ele>
<time>2017-05-17T06:32:13.242Z</time>
</trkpt>
<trkpt lat="-27.3129018" lon="152.8566786">
<ele>87.718</ele>
<time>2017-05-17T06:32:15.214Z</time>
</trkpt>
<trkpt lat="-27.3132756" lon="152.8568458">
<ele>88.896</ele>
<time>2017-05-17T06:32:17.364Z</time>
</trkpt>
<trkpt lat="-27.3137997" lon="152.8570102">
<ele>89.839</ele>
<time>2017-05-17T06:32:20.311Z</time>
</trkpt>
<trkpt lat="-27.3141434" lon="152.8571061">
<ele>90.594</ele>
<time>2017-05-17T06:32:22.274Z</time>
</trkpt>
<trkpt lat="-27.3146102" lon="152.8573772">
<ele>91.325</ele>
<time>2017-05-17T06:32:25.234Z</time>
</trkpt>
<trkpt lat="-27.3150222" lon="152.8577168">
<ele>92.140</ele>
<time>2017-05-17T06:32:28.150Z</time>
</trkpt>
<trkpt lat="-27.3154134" lon="152.8581109">
<ele>93.005</ele>
<time>2017-05-17T06:32:31.125Z</time>
</trkpt>
<trkpt lat="-27.3156792" lon="152.8584276">
<ele>93.824</ele>
<time>2017-05-17T06:32:33.230Z</time>
</trkpt>
<trkpt lat="-27.3159025" lon="152.8587574">
<ele>94.488</ele>
<time>2017-05-17T06:32:35.189Z</time>
</trkpt>
<trkpt lat="-27.3161933" lon="152.8592682">
<ele>94.877</ele>
<time>2017-05-17T06:32:38.117Z</time>
</trkpt>
<trkpt lat="-27.3164759" lon="152.8595402">
<ele>94.926</ele>
<time>2017-05-17T06:32:40.145Z</time>
</trkpt>
<trkpt lat="-27.3167854" lon="152.8597943">
<ele>94.741</ele>
<time>2017-05-17T06:32:42.171Z</time>
</trkpt>
<trkpt lat="-27.3173255" lon="152.8601015">
<ele>94.485</ele>
<time>2017-05-17T06:32:45.250Z</time>
</trkpt>
<trkpt lat="-27.3177182" lon="152.8602445">
<ele>94.240</ele>
<time>2017-05-17T06:32:47.256Z</time>
</trkpt>
<trkpt lat="-27.3184324" lon="152.8604249">
<ele>94.014</ele>
<time>2017-05-17T06:32:50.406Z</time>
</trkpt>
<trkpt lat="-27.3192454" lon="152.8606542">
<ele>94.220</ele>
<time>2017-05-17T06:32:53.527Z</time>
</trkpt>
<trkpt lat="-27.3198152" lon="152.8608057">
<ele>95.583</ele>
<time>2017-05-17T06:32:55.582Z</time>
</trkpt>
<trkpt lat="-27.3203350" lon="152.8609417">
<ele>97.803</ele>
<time>2017-05-17T06:32:57.510Z</time>
</trkpt>
<trkpt lat="-27.3210321" lon="152.8611084">
<ele>99.490</ele>
<time>2017-05-17T06:33:00.307Z</time>
</trkpt>
<trkpt lat="-27.3214606" lon="152.8612213">
<ele>99.525</ele>
<time>2017-05-17T06:33:02.225Z</time>
</trkpt>
<trkpt lat="-27.3220575" lon="152.8614016">
<ele>97.779</ele>
<time>2017-05-17T06:33:05.124Z</time>
</trkpt>
<trkpt lat="-27.3224557" lon="152.8614723">
<ele>94.944</ele>
<time>2017-05-17T06:33:07.115Z</time>
</trkpt>
<trkpt lat="-27.3228507" lon="152.8615601">
<ele>92.095</ele>
<time>2017-05-17T06:33:09.105Z</time>
</trkpt>
<trkpt lat="-27.3234206" lon="152.8617705">
<ele>89.908</ele>
<time>2017-05-17T06:33:12.074Z</time>
</trkpt>
<trkpt lat="-27.3237764" lon="152.8619750">
<ele>88.295</ele>
<time>2017-05-17T06:33:14.063Z</time>
</trkpt>
<trkpt lat="-27.3243176" lon="152.8622894">
<ele>86.846</ele>
<time>2017-05-17T06:33:17.084Z</time>
</trkpt>
<trkpt lat="-27.3246383" lon="152.8625806">
<ele>85.344</ele>
<time>2017-05-17T06:33:19.117Z</time>
</trkpt>
<trkpt lat="-27.3250343" lon="152.8630869">
<ele>83.760</ele>
<time>2017-05-17T06:33:22.075Z</time>
</trkpt>
<trkpt lat="-27.3252541" lon="152.8634667">
<ele>82.182</ele>
<time>2017-05-17T06:33:24.060Z</time>
</trkpt>
<trkpt lat="-27.3255122" lon="152.8638116">
<ele>80.690</ele>
<time>2017-05-17T06:33:26.031Z</time>
</trkpt>
<trkpt lat="-27.3258908" lon="152.8643365">
<ele>79.317</ele>
<time>2017-05-17T06:33:29.004Z</time>
</trkpt>
<trkpt lat="-27.3261370" lon="152.8646951">
<ele>78.125</ele>
<time>2017-05-17T06:33:31.001Z</time>
</trkpt>
<trkpt lat="-27.3264078" lon="152.8650381">
<ele>77.108</ele>
<time>2017-05-17T06:33:33.016Z</time>
</trkpt>
<trkpt lat="-27.3267975" lon="152.8655683">
<ele>76.224</ele>
<time>2017-05-17T06:33:36.025Z</time>
</trkpt>
<trkpt lat="-27.3271046" lon="152.8658540">
<ele>75.327</ele>
<time>2017-05-17T06:33:37.989Z</time>
</trkpt>
<trkpt lat="-27.3274170" lon="152.8661373">
<ele>74.349</ele>
<time>2017-05-17T06:33:39.977Z</time>
</trkpt>
<trkpt lat="-27.3279447" lon="152.8664778">
<ele>73.532</ele>
<time>2017-05-17T06:33:42.986Z</time>
</trkpt>
<trkpt lat="-27.3285069" lon="152.8667485">
<ele>73.119</ele>
<time>2017-05-17T06:33:46.004Z</time>
</trkpt>
<trkpt lat="-27.3289065" lon="152.8668465">
<ele>72.990</ele>
<time>2017-05-17T06:33:48.025Z</time>
</trkpt>
<trkpt lat="-27.3292959" lon="152.8669530">
<ele>72.917</ele>
<time>2017-05-17T06:33:50.008Z</time>
</trkpt>
<trkpt lat="-27.3297007" lon="152.8670080">
<ele>72.862</ele>
<time>2017-05-17T06:33:52.036Z</time>
</trkpt>
<trkpt lat="-27.3302988" lon="152.8672172">
<ele>72.960</ele>
<time>2017-05-17T06:33:55.164Z</time>
</trkpt>
<trkpt lat="-27.3308379" lon="152.8675516">
<ele>73.540</ele>
<time>2017-05-17T06:33:58.232Z</time>
</trkpt>
<trkpt lat="-27.3311810" lon="152.8678120">
<ele>75.074</ele>
<time>2017-05-17T06:34:00.284Z</time>
</trkpt>
<trkpt lat="-27.3316612" lon="152.8682514">
<ele>77.603</ele>
<time>2017-05-17T06:34:03.338Z</time>
</trkpt>
<trkpt lat="-27.3320509" lon="152.8687726">
<ele>80.732</ele>
<time>2017-05-17T06:34:06.309Z</time>
</trkpt>
<trkpt lat="-27.3322355" lon="152.8691803">
<ele>84.027</ele>
<time>2017-05-17T06:34:08.302Z</time>
</trkpt>
<trkpt lat="-27.3323612" lon="152.8698780">
<ele>86.754</ele>
<time>2017-05-17T06:34:11.386Z</time>
</trkpt>
<trkpt lat="-27.3325380" lon="152.8705466">
<ele>88.192</ele>
<time>2017-05-17T06:34:14.390Z</time>
</trkpt>
<trkpt lat="-27.3327804" lon="152.8712281">
<ele>88.054</ele>
<time>2017-05-17T06:34:17.518Z</time>
</trkpt>
<trkpt lat="-27.3330692" lon="152.8715857">
<ele>85.828</ele>
<time>2017-05-17T06:34:19.572Z</time>
</trkpt>
<trkpt lat="-27.3335978" lon="152.8718768">
<ele>81.419</ele>
<time>2017-05-17T06:34:22.465Z</time>
</trkpt>
<trkpt lat="-27.3339908" lon="152.8719627">
<ele>76.397</ele>
<time>2017-05-17T06:34:24.494Z</time>
</trkpt>
<trkpt lat="-27.3345740" lon="152.8719809">
<ele>72.822</ele>
<time>2017-05-17T06:34:27.463Z</time>
</trkpt>
<trkpt lat="-27.3351639" lon="152.8717669">
<ele>71.826</ele>
<time>2017-05-17T06:34:30.605Z</time>
</trkpt>
<trkpt lat="-27.3357330" lon="152.8715557">
<ele>73.129</ele>
<time>2017-05-17T06:34:33.636Z</time>
</trkpt>
<trkpt lat="-27.3361298" lon="152.8714184">
<ele>75.284</ele>
<time>2017-05-17T06:34:35.742Z</time>
</trkpt>
<trkpt lat="-27.3367337" lon="152.8713966">
<ele>77.080</ele>
<time>2017-05-17T06:34:38.825Z</time>
</trkpt>
<trkpt lat="-27.3371180" lon="152.8714330">
<ele>78.543</ele>
<time>2017-05-17T06:34:40.809Z</time>
</trkpt>
<trkpt lat="-27.3375196" lon="152.8714689">
<ele>80.003</ele>
<time>2017-05-17T06:34:42.863Z</time>
</trkpt>
<trkpt lat="-27.3381271" lon="152.8715150">
<ele>81.296</ele>
<time>2017-05-17T06:34:45.919Z</time>
</trkpt>
<trkpt lat="-27.3387261" lon="152.8715323">
<ele>82.080</ele>
<time>2017-05-17T06:34:48.885Z</time>
</trkpt>
<trkpt lat="-27.3391318" lon="152.8715507">
<ele>82.293</ele>
<time>2017-05-17T06:34:50.899Z</time>
</trkpt>
<trkpt lat="-27.3395275" lon="152.8715657">
<ele>82.001</ele>
<time>2017-05-17T06:34:52.872Z</time>
</trkpt>
<trkpt lat="-27.3399345" lon="152.8715514">
<ele>81.346</ele>
<time>2017-05-17T06:34:54.903Z</time>
</trkpt>
<trkpt lat="-27.3403423" lon="152.8715958">
<ele>80.550</ele>
<time>2017-05-17T06:34:56.943Z</time>
</trkpt>
<trkpt lat="-27.3409744" lon="152.8716435">
<ele>79.888</ele>
<time>2017-05-17T06:35:00.082Z</time>
</trkpt>
<trkpt lat="-27.3413891" lon="152.8716780">
<ele>79.650</ele>
<time>2017-05-17T06:35:02.127Z</time>
</trkpt>
<trkpt lat="-27.3418092" lon="152.8717515">
<ele>79.976</ele>
<time>2017-05-17T06:35:04.210Z</time>
</trkpt>
<trkpt lat="-27.3424299" lon="152.8718338">
<ele>80.823</ele>
<time>2017-05-17T06:35:07.273Z</time>
</trkpt>
<trkpt lat="-27.3428133" lon="152.8719156">
<ele>82.238</ele>
<time>2017-05-17T06:35:09.192Z</time>
</trkpt>
<trkpt lat="-27.3433203" lon="152.8722532">
<ele>84.119</ele>
<time>2017-05-17T06:35:12.092Z</time>
</trkpt>
<trkpt lat="-27.3436452" lon="152.8725475">
<ele>85.810</ele>
<time>2017-05-17T06:35:14.125Z</time>
</trkpt>
<trkpt lat="-27.3441524" lon="152.8729315">
<ele>86.688</ele>
<time>2017-05-17T06:35:17.102Z</time>
</trkpt>
<trkpt lat="-27.3444813" lon="152.8731543">
<ele>86.364</ele>
<time>2017-05-17T06:35:19.059Z</time>
</trkpt>
<trkpt lat="-27.3447823" lon="152.8733589">
<ele>84.716</ele>
<time>2017-05-17T06:35:20.969Z</time>
</trkpt>
<trkpt lat="-27.3451237" lon="152.8738157">
<ele>82.595</ele>
<time>2017-05-17T06:35:23.958Z</time>
</trkpt>
<trkpt lat="-27.3452049" lon="152.8742024">
<ele>81.319</ele>
<time>2017-05-17T06:35:25.961Z</time>
</trkpt>
<trkpt lat="-27.3452253" lon="152.8746078">
<ele>81.370</ele>
<time>2017-05-17T06:35:27.984Z</time>
</trkpt>
<trkpt lat="-27.3452917" lon="152.8752184">
<ele>82.362</ele>
<time>2017-05-17T06:35:31.025Z</time>
</trkpt>
<trkpt lat="-27.3455270" lon="152.8757698">
<ele>83.689</ele>
<time>2017-05-17T06:35:34.042Z</time>
</trkpt>
<trkpt lat="-27.3456628" lon="152.8761519">
<ele>84.883</ele>
<time>2017-05-17T06:35:36.078Z</time>
</trkpt>
<trkpt lat="-27.3458766" lon="152.8766948">
<ele>85.668</ele>
<time>2017-05-17T06:35:39.027Z</time>
</trkpt>
<trkpt lat="-27.3460761" lon="152.8772584">
<ele>86.084</ele>
<time>2017-05-17T06:35:42.049Z</time>
</trkpt>
<trkpt lat="-27.3462082" lon="152.8778362">
<ele>86.476</ele>
<time>2017-05-17T06:35:45.024Z</time>
</trkpt>
<trkpt lat="-27.3462393" lon="152.8782302">
<ele>87.175</ele>
<time>2017-05-17T06:35:47.000Z</time>
</trkpt>
<trkpt lat="-27.3464362" lon="152.8787828">
<ele>88.307</ele>
<time>2017-05-17T06:35:49.973Z</time>
</trkpt>
<trkpt lat="-27.3466937" lon="152.8790841">
<ele>89.890</ele>
<time>2017-05-17T06:35:52.031Z</time>
</trkpt>
<trkpt lat="-27.3470694" lon="152.8795437">
<ele>91.573</ele>
<time>2017-05-17T06:35:55.063Z</time>
</trkpt>
<trkpt lat="-27.3473127" lon="152.8798578">
<ele>92.625</ele>
<time>2017-05-17T06:35:57.075Z</time>
</trkpt>
<trkpt lat="-27.3476296" lon="152.8803536">
<ele>92.578</ele>
<time>2017-05-17T06:36:00.044Z</time>
</trkpt>
<trkpt lat="-27.3478648" lon="152.8806521">
<ele>91.385</ele>
<time>2017-05-17T06:36:02.012Z</time>
</trkpt>
<trkpt lat="-27.3480778" lon="152.8809738">
<ele>89.359</ele>
<time>2017-05-17T06:36:04.001Z</time>
</trkpt>
<trkpt lat="-27.3484493" lon="152.8814211">
<ele>87.200</ele>
<time>2017-05-17T06:36:07.045Z</time>
</trkpt>
<trkpt lat="-27.3487246" lon="152.8816511">
<ele>85.313</ele>
<time>2017-05-17T06:36:09.054Z</time>
</trkpt>
<trkpt lat="-27.3489714" lon="152.8818398">
<ele>83.575</ele>
<time>2017-05-17T06:36:10.999Z</time>
</trkpt>
<trkpt lat="-27.3491821" lon="152.8819912">
<ele>81.804</ele>
<time>2017-05-17T06:36:12.915Z</time>
</trkpt>
<trkpt lat="-27.3494246" lon="152.8822078">
<ele>79.848</ele>
<time>2017-05-17T06:36:15.597Z</time>
</trkpt>
<trkpt lat="-27.3495414" lon="152.8825717">
<ele>77.566</ele>
<time>2017-05-17T06:36:18.616Z</time>
</trkpt>
<trkpt lat="-27.3497080" lon="152.8828310">
<ele>75.338</ele>
<time>2017-05-17T06:36:20.731Z</time>
</trkpt>
<trkpt lat="-27.3498605" lon="152.8831465">
<ele>74.060</ele>
<time>2017-05-17T06:36:22.875Z</time>
</trkpt>
<trkpt lat="-27.3499033" lon="152.8836882">
<ele>74.288</ele>
<time>2017-05-17T06:36:25.966Z</time>
</trkpt>
<trkpt lat="-27.3499176" lon="152.8842123">
<ele>76.020</ele>
<time>2017-05-17T06:36:28.872Z</time>
</trkpt>
<trkpt lat="-27.3497975" lon="152.8847476">
<ele>78.992</ele>
<time>2017-05-17T06:36:31.829Z</time>
</trkpt>
<trkpt lat="-27.3495933" lon="152.8853328">
<ele>82.620</ele>
<time>2017-05-17T06:36:34.911Z</time>
</trkpt>
<trkpt lat="-27.3493777" lon="152.8857130">
<ele>86.287</ele>
<time>2017-05-17T06:36:36.967Z</time>
</trkpt>
<trkpt lat="-27.3491335" lon="152.8860653">
<ele>89.451</ele>
<time>2017-05-17T06:36:38.992Z</time>
</trkpt>
<trkpt lat="-27.3488244" lon="152.8866120">
<ele>91.538</ele>
<time>2017-05-17T06:36:41.949Z</time>
</trkpt>
<trkpt lat="-27.3485931" lon="152.8869590">
<ele>92.354</ele>
<time>2017-05-17T06:36:43.920Z</time>
</trkpt>
<trkpt lat="-27.3482273" lon="152.8874880">
<ele>92.218</ele>
<time>2017-05-17T06:36:46.938Z</time>
</trkpt>
<trkpt lat="-27.3478177" lon="152.8879692">
<ele>91.328</ele>
<time>2017-05-17T06:36:49.934Z</time>
</trkpt>
<trkpt lat="-27.3473532" lon="152.8883724">
<ele>89.616</ele>
<time>2017-05-17T06:36:52.909Z</time>
</trkpt>
<trkpt lat="-27.3470921" lon="152.8887084">
<ele>87.366</ele>
<time>2017-05-17T06:36:54.901Z</time>
</trkpt>
<trkpt lat="-27.3468368" lon="152.8890591">
<ele>85.373</ele>
<time>2017-05-17T06:36:56.916Z</time>
</trkpt>
<trkpt lat="-27.3465903" lon="152.8896523">
<ele>84.254</ele>
<time>2017-05-17T06:36:59.843Z</time>
</trkpt>
<trkpt lat="-27.3464898" lon="152.8900784">
<ele>84.078</ele>
<time>2017-05-17T06:37:01.830Z</time>
</trkpt>
<trkpt lat="-27.3464326" lon="152.8905129">
<ele>84.657</ele>
<time>2017-05-17T06:37:03.805Z</time>
</trkpt>
<trkpt lat="-27.3464264" lon="152.8911832">
<ele>85.720</ele>
<time>2017-05-17T06:37:06.807Z</time>
</trkpt>
<trkpt lat="-27.3465406" lon="152.8918438">
<ele>86.799</ele>
<time>2017-05-17T06:37:09.808Z</time>
</trkpt>
<trkpt lat="-27.3467634" lon="152.8924675">
<ele>87.516</ele>
<time>2017-05-17T06:37:12.807Z</time>
</trkpt>
<trkpt lat="-27.3468644" lon="152.8928919">
<ele>87.843</ele>
<time>2017-05-17T06:37:14.780Z</time>
</trkpt>
<trkpt lat="-27.3469389" lon="152.8935437">
<ele>88.041</ele>
<time>2017-05-17T06:37:17.742Z</time>
</trkpt>
<trkpt lat="-27.3469398" lon="152.8939927">
<ele>88.650</ele>
<time>2017-05-17T06:37:19.748Z</time>
</trkpt>
<trkpt lat="-27.3469306" lon="152.8944380">
<ele>90.087</ele>
<time>2017-05-17T06:37:21.729Z</time>
</trkpt>
<trkpt lat="-27.3469662" lon="152.8948854">
<ele>92.099</ele>
<time>2017-05-17T06:37:23.730Z</time>
</trkpt>
<trkpt lat="-27.3471036" lon="152.8955343">
<ele>94.107</ele>
<time>2017-05-17T06:37:26.722Z</time>
</trkpt>
<trkpt lat="-27.3473525" lon="152.8961387">
<ele>95.818</ele>
<time>2017-05-17T06:37:29.728Z</time>
</trkpt>
<trkpt lat="-27.3475671" lon="152.8967562">
<ele>97.332</ele>
<time>2017-05-17T06:37:32.710Z</time>
</trkpt>
<trkpt lat="-27.3477099" lon="152.8971693">
<ele>99.065</ele>
<time>2017-05-17T06:37:34.705Z</time>
</trkpt>
<trkpt lat="-27.3478331" lon="152.8978031">
<ele>101.239</ele>
<time>2017-05-17T06:37:37.650Z</time>
</trkpt>
<trkpt lat="-27.3479037" lon="152.8982317">
<ele>103.586</ele>
<time>2017-05-17T06:37:39.635Z</time>
</trkpt>
<trkpt lat="-27.3479147" lon="152.8986722">
<ele>105.657</ele>
<time>2017-05-17T06:37:41.623Z</time>
</trkpt>
<trkpt lat="-27.3478697" lon="152.8991232">
<ele>107.071</ele>
<time>2017-05-17T06:37:43.637Z</time>
</trkpt>
<trkpt lat="-27.3478331" lon="152.8998203">
<ele>107.655</ele>
<time>2017-05-17T06:37:46.686Z</time>
</trkpt>
<trkpt lat="-27.3478946" lon="152.9004975">
<ele>107.651</ele>
<time>2017-05-17T06:37:49.661Z</time>
</trkpt>
<trkpt lat="-27.3480237" lon="152.9011413">
<ele>107.466</ele>
<time>2017-05-17T06:37:52.596Z</time>
</trkpt>
<trkpt lat="-27.3481749" lon="152.9017992">
<ele>107.554</ele>
<time>2017-05-17T06:37:55.620Z</time>
</trkpt>
<trkpt lat="-27.3482288" lon="152.9024876">
<ele>108.364</ele>
<time>2017-05-17T06:37:58.640Z</time>
</trkpt>
<trkpt lat="-27.3482143" lon="152.9031723">
<ele>109.850</ele>
<time>2017-05-17T06:38:01.609Z</time>
</trkpt>
<trkpt lat="-27.3479833" lon="152.9038514">
<ele>111.319</ele>
<time>2017-05-17T06:38:04.735Z</time>
</trkpt>
<trkpt lat="-27.3477762" lon="152.9042580">
<ele>112.115</ele>
<time>2017-05-17T06:38:06.759Z</time>
</trkpt>
<trkpt lat="-27.3475635" lon="152.9046548">
<ele>111.962</ele>
<time>2017-05-17T06:38:08.778Z</time>
</trkpt>
<trkpt lat="-27.3472414" lon="152.9052508">
<ele>110.779</ele>
<time>2017-05-17T06:38:11.806Z</time>
</trkpt>
<trkpt lat="-27.3468931" lon="152.9058183">
<ele>108.472</ele>
<time>2017-05-17T06:38:14.794Z</time>
</trkpt>
<trkpt lat="-27.3466522" lon="152.9061890">
<ele>105.527</ele>
<time>2017-05-17T06:38:16.795Z</time>
</trkpt>
<trkpt lat="-27.3463816" lon="152.9065223">
<ele>103.143</ele>
<time>2017-05-17T06:38:18.771Z</time>
</trkpt>
<trkpt lat="-27.3461410" lon="152.9068951">
<ele>102.021</ele>
<time>2017-05-17T06:38:20.802Z</time>
</trkpt>
<trkpt lat="-27.3457014" lon="152.9073315">
<ele>101.738</ele>
<time>2017-05-17T06:38:23.739Z</time>
</trkpt>
<trkpt lat="-27.3454255" lon="152.9076428">
<ele>101.544</ele>
<time>2017-05-17T06:38:25.711Z</time>
</trkpt>
<trkpt lat="-27.3451532" lon="152.9079927">
<ele>100.967</ele>
<time>2017-05-17T06:38:27.773Z</time>
</trkpt>
<trkpt lat="-27.3448679" lon="152.9083139">
<ele>99.969</ele>
<time>2017-05-17T06:38:29.758Z</time>
</trkpt>
<trkpt lat="-27.3444527" lon="152.9088138">
<ele>98.465</ele>
<time>2017-05-17T06:38:32.743Z</time>
</trkpt>
<trkpt lat="-27.3440338" lon="152.9092887">
<ele>95.827</ele>
<time>2017-05-17T06:38:35.681Z</time>
</trkpt>
<trkpt lat="-27.3436285" lon="152.9097978">
<ele>91.540</ele>
<time>2017-05-17T06:38:38.684Z</time>
</trkpt>
<trkpt lat="-27.3434097" lon="152.9101807">
<ele>85.992</ele>
<time>2017-05-17T06:38:40.671Z</time>
</trkpt>
<trkpt lat="-27.3432001" lon="152.9108551">
<ele>80.282</ele>
<time>2017-05-17T06:38:43.741Z</time>
</trkpt>
<trkpt lat="-27.3431513" lon="152.9113215">
<ele>75.131</ele>
<time>2017-05-17T06:38:45.726Z</time>
</trkpt>
<trkpt lat="-27.3432329" lon="152.9120485">
<ele>70.541</ele>
<time>2017-05-17T06:38:48.800Z</time>
</trkpt>
<trkpt lat="-27.3433517" lon="152.9127488">
<ele>66.209</ele>
<time>2017-05-17T06:38:51.780Z</time>
</trkpt>
<trkpt lat="-27.3434370" lon="152.9132111">
<ele>62.479</ele>
<time>2017-05-17T06:38:53.776Z</time>
</trkpt>
<trkpt lat="-27.3435548" lon="152.9138852">
<ele>60.384</ele>
<time>2017-05-17T06:38:56.744Z</time>
</trkpt>
<trkpt lat="-27.3435563" lon="152.9143147">
<ele>60.604</ele>
<time>2017-05-17T06:38:58.682Z</time>
</trkpt>
<trkpt lat="-27.3434034" lon="152.9147116">
<ele>62.734</ele>
<time>2017-05-17T06:39:00.694Z</time>
</trkpt>
<trkpt lat="-27.3431266" lon="152.9152707">
<ele>65.441</ele>
<time>2017-05-17T06:39:03.721Z</time>
</trkpt>
<trkpt lat="-27.3427034" lon="152.9156713">
<ele>66.395</ele>
<time>2017-05-17T06:39:06.686Z</time>
</trkpt>
<trkpt lat="-27.3421883" lon="152.9159169">
<ele>64.610</ele>
<time>2017-05-17T06:39:09.670Z</time>
</trkpt>
<trkpt lat="-27.3416288" lon="152.9159902">
<ele>61.894</ele>
<time>2017-05-17T06:39:12.634Z</time>
</trkpt>
<trkpt lat="-27.3412423" lon="152.9158982">
<ele>60.489</ele>
<time>2017-05-17T06:39:14.660Z</time>
</trkpt>
<trkpt lat="-27.3408549" lon="152.9157582">
<ele>60.873</ele>
<time>2017-05-17T06:39:16.684Z</time>
</trkpt>
<trkpt lat="-27.3404542" lon="152.9156222">
<ele>62.355</ele>
<time>2017-05-17T06:39:18.706Z</time>
</trkpt>
<trkpt lat="-27.3398420" lon="152.9154259">
<ele>64.064</ele>
<time>2017-05-17T06:39:21.726Z</time>
</trkpt>
<trkpt lat="-27.3394324" lon="152.9152828">
<ele>65.662</ele>
<time>2017-05-17T06:39:23.738Z</time>
</trkpt>
<trkpt lat="-27.3390183" lon="152.9151447">
<ele>67.195</ele>
<time>2017-05-17T06:39:25.750Z</time>
</trkpt>
<trkpt lat="-27.3383819" lon="152.9149773">
<ele>68.745</ele>
<time>2017-05-17T06:39:28.789Z</time>
</trkpt>
<trkpt lat="-27.3377585" lon="152.9148386">
<ele>70.363</ele>
<time>2017-05-17T06:39:31.782Z</time>
</trkpt>
<trkpt lat="-27.3371441" lon="152.9149279">
<ele>72.018</ele>
<time>2017-05-17T06:39:34.761Z</time>
</trkpt>
<trkpt lat="-27.3365851" lon="152.9152030">
<ele>73.567</ele>
<time>2017-05-17T06:39:37.735Z</time>
</trkpt>
<trkpt lat="-27.3362796" lon="152.9155224">
<ele>74.883</ele>
<time>2017-05-17T06:39:39.759Z</time>
</trkpt>
<trkpt lat="-27.3358662" lon="152.9160741">
<ele>75.870</ele>
<time>2017-05-17T06:39:42.846Z</time>
</trkpt>
<trkpt lat="-27.3355037" lon="152.9166316">
<ele>76.613</ele>
<time>2017-05-17T06:39:45.845Z</time>
</trkpt>
<trkpt lat="-27.3351365" lon="152.9168913">
<ele>77.516</ele>
<time>2017-05-17T06:39:48.022Z</time>
</trkpt>
<trkpt lat="-27.3345541" lon="152.9169972">
<ele>78.938</ele>
<time>2017-05-17T06:39:51.030Z</time>
</trkpt>
<trkpt lat="-27.3341793" lon="152.9169264">
<ele>81.153</ele>
<time>2017-05-17T06:39:53.032Z</time>
</trkpt>
<trkpt lat="-27.3338399" lon="152.9168159">
<ele>84.097</ele>
<time>2017-05-17T06:39:54.997Z</time>
</trkpt>
<trkpt lat="-27.3335146" lon="152.9167482">
<ele>87.071</ele>
<time>2017-05-17T06:39:56.980Z</time>
</trkpt>
<trkpt lat="-27.3330662" lon="152.9168197">
<ele>89.523</ele>
<time>2017-05-17T06:39:59.868Z</time>
</trkpt>
<trkpt lat="-27.3327896" lon="152.9170730">
<ele>91.763</ele>
<time>2017-05-17T06:40:02.178Z</time>
</trkpt>
<trkpt lat="-27.3326053" lon="152.9175782">
<ele>94.082</ele>
<time>2017-05-17T06:40:05.153Z</time>
</trkpt>
<trkpt lat="-27.3325947" lon="152.9179843">
<ele>96.283</ele>
<time>2017-05-17T06:40:07.200Z</time>
</trkpt>
<trkpt lat="-27.3325662" lon="152.9184044">
<ele>98.094</ele>
<time>2017-05-17T06:40:09.255Z</time>
</trkpt>
<trkpt lat="-27.3324699" lon="152.9190218">
<ele>99.371</ele>
<time>2017-05-17T06:40:12.290Z</time>
</trkpt>
<trkpt lat="-27.3322611" lon="152.9193830">
<ele>100.088</ele>
<time>2017-05-17T06:40:14.350Z</time>
</trkpt>
<trkpt lat="-27.3319866" lon="152.9196915">
<ele>100.401</ele>
<time>2017-05-17T06:40:16.388Z</time>
</trkpt>
<trkpt lat="-27.3314562" lon="152.9199987">
<ele>100.422</ele>
<time>2017-05-17T06:40:19.484Z</time>
</trkpt>
<trkpt lat="-27.3309657" lon="152.9203265">
<ele>100.104</ele>
<time>2017-05-17T06:40:22.462Z</time>
</trkpt>
<trkpt lat="-27.3305291" lon="152.9207208">
<ele>99.215</ele>
<time>2017-05-17T06:40:25.449Z</time>
</trkpt>
<trkpt lat="-27.3303421" lon="152.9212858">
<ele>97.637</ele>
<time>2017-05-17T06:40:28.361Z</time>
</trkpt>
<trkpt lat="-27.3302910" lon="152.9217203">
<ele>95.720</ele>
<time>2017-05-17T06:40:30.462Z</time>
</trkpt>
<trkpt lat="-27.3303656" lon="152.9221452">
<ele>94.053</ele>
<time>2017-05-17T06:40:32.473Z</time>
</trkpt>
<trkpt lat="-27.3304827" lon="152.9225781">
<ele>92.928</ele>
<time>2017-05-17T06:40:34.516Z</time>
</trkpt>
<trkpt lat="-27.3306220" lon="152.9229964">
<ele>92.169</ele>
<time>2017-05-17T06:40:36.501Z</time>
</trkpt>
<trkpt lat="-27.3307778" lon="152.9236723">
<ele>91.360</ele>
<time>2017-05-17T06:40:39.604Z</time>
</trkpt>
<trkpt lat="-27.3308146" lon="152.9243574">
<ele>90.117</ele>
<time>2017-05-17T06:40:42.708Z</time>
</trkpt>
<trkpt lat="-27.3308038" lon="152.9249992">
<ele>88.336</ele>
<time>2017-05-17T06:40:45.688Z</time>
</trkpt>
<trkpt lat="-27.3308243" lon="152.9256227">
<ele>86.479</ele>
<time>2017-05-17T06:40:48.648Z</time>
</trkpt>
<trkpt lat="-27.3308855" lon="152.9260366">
<ele>85.235</ele>
<time>2017-05-17T06:40:50.626Z</time>
</trkpt>
<trkpt lat="-27.3311022" lon="152.9266460">
<ele>84.783</ele>
<time>2017-05-17T06:40:53.686Z</time>
</trkpt>
<trkpt lat="-27.3312603" lon="152.9272644">
<ele>84.742</ele>
<time>2017-05-17T06:40:56.682Z</time>
</trkpt>
<trkpt lat="-27.3312431" lon="152.9276889">
<ele>84.552</ele>
<time>2017-05-17T06:40:58.665Z</time>
</trkpt>
<trkpt lat="-27.3311850" lon="152.9281107">
<ele>83.876</ele>
<time>2017-05-17T06:41:00.659Z</time>
</trkpt>
<trkpt lat="-27.3311300" lon="152.9285299">
<ele>82.838</ele>
<time>2017-05-17T06:41:02.665Z</time>
</trkpt>
<trkpt lat="-27.3309674" lon="152.9291345">
<ele>81.761</ele>
<time>2017-05-17T06:41:05.699Z</time>
</trkpt>
<trkpt lat="-27.3307482" lon="152.9294614">
<ele>80.923</ele>
<time>2017-05-17T06:41:07.655Z</time>
</trkpt>
<trkpt lat="-27.3303573" lon="152.9299165">
<ele>80.535</ele>
<time>2017-05-17T06:41:10.626Z</time>
</trkpt>
<trkpt lat="-27.3300578" lon="152.9301824">
<ele>80.742</ele>
<time>2017-05-17T06:41:12.606Z</time>
</trkpt>
<trkpt lat="-27.3296043" lon="152.9305939">
<ele>81.395</ele>
<time>2017-05-17T06:41:15.603Z</time>
</trkpt>
<trkpt lat="-27.3293731" lon="152.9309573">
<ele>82.000</ele>
<time>2017-05-17T06:41:17.597Z</time>
</trkpt>
<trkpt lat="-27.3290671" lon="152.9315503">
<ele>82.109</ele>
<time>2017-05-17T06:41:20.640Z</time>
</trkpt>
<trkpt lat="-27.3287738" lon="152.9321310">
<ele>81.448</ele>
<time>2017-05-17T06:41:23.632Z</time>
</trkpt>
<trkpt lat="-27.3285757" lon="152.9325034">
<ele>79.812</ele>
<time>2017-05-17T06:41:25.631Z</time>
</trkpt>
<trkpt lat="-27.3284167" lon="152.9328865">
<ele>77.454</ele>
<time>2017-05-17T06:41:27.644Z</time>
</trkpt>
<trkpt lat="-27.3281497" lon="152.9334153">
<ele>75.123</ele>
<time>2017-05-17T06:41:30.670Z</time>
</trkpt>
<trkpt lat="-27.3279140" lon="152.9338984">
<ele>73.386</ele>
<time>2017-05-17T06:41:33.583Z</time>
</trkpt>
<trkpt lat="-27.3277782" lon="152.9342260">
<ele>72.246</ele>
<time>2017-05-17T06:41:35.543Z</time>
</trkpt>
<trkpt lat="-27.3276796" lon="152.9345918">
<ele>71.473</ele>
<time>2017-05-17T06:41:37.570Z</time>
</trkpt>
<trkpt lat="-27.3277856" lon="152.9351730">
<ele>70.829</ele>
<time>2017-05-17T06:41:40.648Z</time>
</trkpt>
<trkpt lat="-27.3281166" lon="152.9356694">
<ele>69.895</ele>
<time>2017-05-17T06:41:43.796Z</time>
</trkpt>
<trkpt lat="-27.3284113" lon="152.9359165">
<ele>68.278</ele>
<time>2017-05-17T06:41:45.863Z</time>
</trkpt>
<trkpt lat="-27.3287056" lon="152.9361484">
<ele>66.279</ele>
<time>2017-05-17T06:41:47.863Z</time>
</trkpt>
<trkpt lat="-27.3291358" lon="152.9365293">
<ele>64.625</ele>
<time>2017-05-17T06:41:50.846Z</time>
</trkpt>
<trkpt lat="-27.3293633" lon="152.9368691">
<ele>63.550</ele>
<time>2017-05-17T06:41:52.831Z</time>
</trkpt>
<trkpt lat="-27.3295996" lon="152.9374608">
<ele>62.753</ele>
<time>2017-05-17T06:41:55.831Z</time>
</trkpt>
<trkpt lat="-27.3296600" lon="152.9379019">
<ele>61.819</ele>
<time>2017-05-17T06:41:57.851Z</time>
</trkpt>
<trkpt lat="-27.3296518" lon="152.9385603">
<ele>60.519</ele>
<time>2017-05-17T06:42:00.781Z</time>
</trkpt>
<trkpt lat="-27.3296407" lon="152.9390167">
<ele>58.789</ele>
<time>2017-05-17T06:42:02.750Z</time>
</trkpt>
<trkpt lat="-27.3295838" lon="152.9397180">
<ele>56.641</ele>
<time>2017-05-17T06:42:05.750Z</time>
</trkpt>
<trkpt lat="-27.3295560" lon="152.9401875">
<ele>54.577</ele>
<time>2017-05-17T06:42:07.724Z</time>
</trkpt>
<trkpt lat="-27.3295217" lon="152.9406620">
<ele>53.974</ele>
<time>2017-05-17T06:42:09.731Z</time>
</trkpt>
<trkpt lat="-27.3294446" lon="152.9413575">
<ele>55.595</ele>
<time>2017-05-17T06:42:12.737Z</time>
</trkpt>
<trkpt lat="-27.3294252" lon="152.9417974">
<ele>58.293</ele>
<time>2017-05-17T06:42:14.688Z</time>
</trkpt>
<trkpt lat="-27.3294166" lon="152.9424613">
<ele>60.343</ele>
<time>2017-05-17T06:42:17.645Z</time>
</trkpt>
<trkpt lat="-27.3293834" lon="152.9429086">
<ele>60.893</ele>
<time>2017-05-17T06:42:19.639Z</time>
</trkpt>
<trkpt lat="-27.3293386" lon="152.9435789">
<ele>59.976</ele>
<time>2017-05-17T06:42:22.624Z</time>
</trkpt>
<trkpt lat="-27.3293154" lon="152.9442427">
<ele>58.301</ele>
<time>2017-05-17T06:42:25.584Z</time>
</trkpt>
<trkpt lat="-27.3292532" lon="152.9449035">
<ele>56.747</ele>
<time>2017-05-17T06:42:28.549Z</time>
</trkpt>
<trkpt lat="-27.3292227" lon="152.9453489">
<ele>56.049</ele>
<time>2017-05-17T06:42:30.531Z</time>
</trkpt>
<trkpt lat="-27.3291883" lon="152.9457962">
<ele>56.576</ele>
<time>2017-05-17T06:42:32.497Z</time>
</trkpt>
<trkpt lat="-27.3291238" lon="152.9464838">
<ele>58.022</ele>
<time>2017-05-17T06:42:35.499Z</time>
</trkpt>
<trkpt lat="-27.3291327" lon="152.9471761">
<ele>59.598</ele>
<time>2017-05-17T06:42:38.516Z</time>
</trkpt>
<trkpt lat="-27.3292218" lon="152.9478430">
<ele>60.452</ele>
<time>2017-05-17T06:42:41.516Z</time>
</trkpt>
<trkpt lat="-27.3294647" lon="152.9484487">
<ele>60.380</ele>
<time>2017-05-17T06:42:44.500Z</time>
</trkpt>
<trkpt lat="-27.3295954" lon="152.9488721">
<ele>59.943</ele>
<time>2017-05-17T06:42:46.486Z</time>
</trkpt>
<trkpt lat="-27.3298672" lon="152.9494819">
<ele>59.745</ele>
<time>2017-05-17T06:42:49.483Z</time>
</trkpt>
<trkpt lat="-27.3300251" lon="152.9499024">
<ele>59.920</ele>
<time>2017-05-17T06:42:51.463Z</time>
</trkpt>
<trkpt lat="-27.3302177" lon="152.9505537">
<ele>60.130</ele>
<time>2017-05-17T06:42:54.440Z</time>
</trkpt>
<trkpt lat="-27.3303371" lon="152.9509989">
<ele>59.700</ele>
<time>2017-05-17T06:42:56.488Z</time>
</trkpt>
<trkpt lat="-27.3306334" lon="152.9515806">
<ele>58.263</ele>
<time>2017-05-17T06:42:59.562Z</time>
</trkpt>
<trkpt lat="-27.3308221" lon="152.9521294">
<ele>56.070</ele>
<time>2017-05-17T06:43:02.481Z</time>
</trkpt>
<trkpt lat="-27.3310146" lon="152.9524242">
<ele>53.529</ele>
<time>2017-05-17T06:43:04.464Z</time>
</trkpt>
<trkpt lat="-27.3312237" lon="152.9526922">
<ele>50.936</ele>
<time>2017-05-17T06:43:06.473Z</time>
</trkpt>
<trkpt lat="-27.3314866" lon="152.9531264">
<ele>48.617</ele>
<time>2017-05-17T06:43:09.459Z</time>
</trkpt>
<trkpt lat="-27.3316518" lon="152.9534218">
<ele>46.652</ele>
<time>2017-05-17T06:43:11.444Z</time>
</trkpt>
<trkpt lat="-27.3318345" lon="152.9537040">
<ele>44.971</ele>
<time>2017-05-17T06:43:13.426Z</time>
</trkpt>
<trkpt lat="-27.3321428" lon="152.9541104">
<ele>43.593</ele>
<time>2017-05-17T06:43:16.455Z</time>
</trkpt>
<trkpt lat="-27.3323232" lon="152.9544032">
<ele>42.474</ele>
<time>2017-05-17T06:43:18.465Z</time>
</trkpt>
<trkpt lat="-27.3325144" lon="152.9546853">
<ele>41.492</ele>
<time>2017-05-17T06:43:20.472Z</time>
</trkpt>
<trkpt lat="-27.3327827" lon="152.9551115">
<ele>40.652</ele>
<time>2017-05-17T06:43:23.513Z</time>
</trkpt>
<trkpt lat="-27.3329202" lon="152.9553807">
<ele>39.942</ele>
<time>2017-05-17T06:43:25.581Z</time>
</trkpt>
<trkpt lat="-27.3330932" lon="152.9557031">
<ele>39.211</ele>
<time>2017-05-17T06:43:28.445Z</time>
</trkpt>
<trkpt lat="-27.3331844" lon="152.9558703">
<ele>38.183</ele>
<time>2017-05-17T06:43:30.514Z</time>
</trkpt>
<trkpt lat="-27.3332555" lon="152.9560548">
<ele>36.709</ele>
<time>2017-05-17T06:43:33.636Z</time>
</trkpt>
<trkpt lat="-27.3333110" lon="152.9561403">
<ele>34.947</ele>
<time>2017-05-17T06:43:36.000Z</time>
</trkpt>
<trkpt lat="-27.3333110" lon="152.9561403">
<ele>33.346</ele>
<time>2017-05-17T06:43:38.000Z</time>
</trkpt>
<trkpt lat="-27.3333110" lon="152.9561403">
<ele>32.506</ele>
<time>2017-05-17T06:43:41.489Z</time>
</trkpt>
<trkpt lat="-27.3333870" lon="152.9562997">
<ele>32.567</ele>
<time>2017-05-17T06:43:46.029Z</time>
</trkpt>
<trkpt lat="-27.3335766" lon="152.9565736">
<ele>32.654</ele>
<time>2017-05-17T06:43:49.403Z</time>
</trkpt>
<trkpt lat="-27.3337447" lon="152.9568499">
<ele>32.101</ele>
<time>2017-05-17T06:43:51.628Z</time>
</trkpt>
<trkpt lat="-27.3340574" lon="152.9572240">
<ele>31.396</ele>
<time>2017-05-17T06:43:54.622Z</time>
</trkpt>
<trkpt lat="-27.3343152" lon="152.9574767">
<ele>31.221</ele>
<time>2017-05-17T06:43:56.673Z</time>
</trkpt>
<trkpt lat="-27.3346974" lon="152.9578260">
<ele>31.535</ele>
<time>2017-05-17T06:43:59.655Z</time>
</trkpt>
<trkpt lat="-27.3348869" lon="152.9580941">
<ele>31.960</ele>
<time>2017-05-17T06:44:01.592Z</time>
</trkpt>
<trkpt lat="-27.3350793" lon="152.9583394">
<ele>32.227</ele>
<time>2017-05-17T06:44:03.493Z</time>
</trkpt>
<trkpt lat="-27.3354155" lon="152.9586693">
<ele>32.351</ele>
<time>2017-05-17T06:44:06.431Z</time>
</trkpt>
<trkpt lat="-27.3356322" lon="152.9588958">
<ele>32.553</ele>
<time>2017-05-17T06:44:08.434Z</time>
</trkpt>
<trkpt lat="-27.3358827" lon="152.9592731">
<ele>33.033</ele>
<time>2017-05-17T06:44:11.412Z</time>
</trkpt>
<trkpt lat="-27.3359809" lon="152.9596712">
<ele>33.793</ele>
<time>2017-05-17T06:44:14.260Z</time>
</trkpt>
<trkpt lat="-27.3360112" lon="152.9599215">
<ele>34.669</ele>
<time>2017-05-17T06:44:16.211Z</time>
</trkpt>
<trkpt lat="-27.3360190" lon="152.9601412">
<ele>35.395</ele>
<time>2017-05-17T06:44:18.499Z</time>
</trkpt>
<trkpt lat="-27.3360288" lon="152.9602625">
<ele>35.717</ele>
<time>2017-05-17T06:44:20.000Z</time>
</trkpt>
<trkpt lat="-27.3360288" lon="152.9602625">
<ele>35.649</ele>
<time>2017-05-17T06:44:23.000Z</time>
</trkpt>
<trkpt lat="-27.3360288" lon="152.9602625">
<ele>35.492</ele>
<time>2017-05-17T06:45:51.827Z</time>
</trkpt>
<trkpt lat="-27.3359968" lon="152.9604132">
<ele>35.468</ele>
<time>2017-05-17T06:45:58.317Z</time>
</trkpt>
<trkpt lat="-27.3361055" lon="152.9606280">
<ele>35.347</ele>
<time>2017-05-17T06:46:01.932Z</time>
</trkpt>
<trkpt lat="-27.3361791" lon="152.9608679">
<ele>34.912</ele>
<time>2017-05-17T06:46:04.982Z</time>
</trkpt>
<trkpt lat="-27.3363844" lon="152.9609020">
<ele>34.477</ele>
<time>2017-05-17T06:46:07.472Z</time>
</trkpt>
<trkpt lat="-27.3365875" lon="152.9608388">
<ele>34.391</ele>
<time>2017-05-17T06:46:09.576Z</time>
</trkpt>
<trkpt lat="-27.3368895" lon="152.9607824">
<ele>34.625</ele>
<time>2017-05-17T06:46:12.531Z</time>
</trkpt>
<trkpt lat="-27.3370799" lon="152.9607558">
<ele>35.032</ele>
<time>2017-05-17T06:46:14.429Z</time>
</trkpt>
<trkpt lat="-27.3372695" lon="152.9607448">
<ele>35.449</ele>
<time>2017-05-17T06:46:16.432Z</time>
</trkpt>
<trkpt lat="-27.3374344" lon="152.9607221">
<ele>35.760</ele>
<time>2017-05-17T06:46:18.484Z</time>
</trkpt>
<trkpt lat="-27.3376278" lon="152.9607021">
<ele>35.960</ele>
<time>2017-05-17T06:46:21.355Z</time>
</trkpt>
<trkpt lat="-27.3377579" lon="152.9606706">
<ele>36.064</ele>
<time>2017-05-17T06:46:24.118Z</time>
</trkpt>
<trkpt lat="-27.3378558" lon="152.9606757">
<ele>36.074</ele>
<time>2017-05-17T06:46:27.000Z</time>
</trkpt>
<trkpt lat="-27.3378558" lon="152.9606757">
<ele>36.016</ele>
<time>2017-05-17T06:46:29.000Z</time>
</trkpt>
<trkpt lat="-27.3378558" lon="152.9606757">
<ele>35.957</ele>
<time>2017-05-17T06:46:42.623Z</time>
</trkpt>
<trkpt lat="-27.3380580" lon="152.9606421">
<ele>35.950</ele>
<time>2017-05-17T06:46:47.274Z</time>
</trkpt>
<trkpt lat="-27.3382571" lon="152.9606404">
<ele>36.055</ele>
<time>2017-05-17T06:46:49.296Z</time>
</trkpt>
<trkpt lat="-27.3386312" lon="152.9606820">
<ele>36.344</ele>
<time>2017-05-17T06:46:52.336Z</time>
</trkpt>
<trkpt lat="-27.3390891" lon="152.9608210">
<ele>36.852</ele>
<time>2017-05-17T06:46:55.455Z</time>
</trkpt>
<trkpt lat="-27.3394332" lon="152.9609470">
<ele>37.514</ele>
<time>2017-05-17T06:46:57.497Z</time>
</trkpt>
<trkpt lat="-27.3399766" lon="152.9611222">
<ele>38.120</ele>
<time>2017-05-17T06:47:00.533Z</time>
</trkpt>
<trkpt lat="-27.3403407" lon="152.9611699">
<ele>38.457</ele>
<time>2017-05-17T06:47:02.473Z</time>
</trkpt>
<trkpt lat="-27.3408919" lon="152.9611800">
<ele>38.347</ele>
<time>2017-05-17T06:47:05.400Z</time>
</trkpt>
<trkpt lat="-27.3414408" lon="152.9612649">
<ele>37.411</ele>
<time>2017-05-17T06:47:08.348Z</time>
</trkpt>
<trkpt lat="-27.3418045" lon="152.9612942">
<ele>35.448</ele>
<time>2017-05-17T06:47:10.308Z</time>
</trkpt>
<trkpt lat="-27.3423459" lon="152.9613107">
<ele>33.003</ele>
<time>2017-05-17T06:47:13.240Z</time>
</trkpt>
<trkpt lat="-27.3427049" lon="152.9613140">
<ele>30.843</ele>
<time>2017-05-17T06:47:15.195Z</time>
</trkpt>
<trkpt lat="-27.3430670" lon="152.9613695">
<ele>29.249</ele>
<time>2017-05-17T06:47:17.188Z</time>
</trkpt>
<trkpt lat="-27.3436005" lon="152.9614805">
<ele>28.147</ele>
<time>2017-05-17T06:47:20.145Z</time>
</trkpt>
<trkpt lat="-27.3439463" lon="152.9616068">
<ele>27.473</ele>
<time>2017-05-17T06:47:22.160Z</time>
</trkpt>
<trkpt lat="-27.3443993" lon="152.9618877">
<ele>27.256</ele>
<time>2017-05-17T06:47:25.143Z</time>
</trkpt>
<trkpt lat="-27.3446554" lon="152.9620642">
<ele>27.547</ele>
<time>2017-05-17T06:47:27.043Z</time>
</trkpt>
<trkpt lat="-27.3449938" lon="152.9623402">
<ele>28.240</ele>
<time>2017-05-17T06:47:29.882Z</time>
</trkpt>
<trkpt lat="-27.3451444" lon="152.9625561">
<ele>29.120</ele>
<time>2017-05-17T06:47:31.726Z</time>
</trkpt>
<trkpt lat="-27.3453042" lon="152.9627351">
<ele>29.997</ele>
<time>2017-05-17T06:47:33.701Z</time>
</trkpt>
<trkpt lat="-27.3453795" lon="152.9629718">
<ele>30.674</ele>
<time>2017-05-17T06:47:36.000Z</time>
</trkpt>
<trkpt lat="-27.3453795" lon="152.9629718">
<ele>30.991</ele>
<time>2017-05-17T06:47:42.000Z</time>
</trkpt>
<trkpt lat="-27.3453795" lon="152.9629718">
<ele>31.017</ele>
<time>2017-05-17T06:48:24.494Z</time>
</trkpt>
<trkpt lat="-27.3455147" lon="152.9632121">
<ele>30.906</ele>
<time>2017-05-17T06:48:32.257Z</time>
</trkpt>
<trkpt lat="-27.3456050" lon="152.9633211">
<ele>30.768</ele>
<time>2017-05-17T06:48:34.319Z</time>
</trkpt>
<trkpt lat="-27.3458573" lon="152.9632924">
<ele>30.682</ele>
<time>2017-05-17T06:48:37.334Z</time>
</trkpt>
<trkpt lat="-27.3461085" lon="152.9630366">
<ele>30.732</ele>
<time>2017-05-17T06:48:40.357Z</time>
</trkpt>
<trkpt lat="-27.3463644" lon="152.9627502">
<ele>31.145</ele>
<time>2017-05-17T06:48:43.197Z</time>
</trkpt>
<trkpt lat="-27.3466645" lon="152.9624522">
<ele>32.184</ele>
<time>2017-05-17T06:48:46.232Z</time>
</trkpt>
<trkpt lat="-27.3469740" lon="152.9621816">
<ele>33.727</ele>
<time>2017-05-17T06:48:49.218Z</time>
</trkpt>
<trkpt lat="-27.3471571" lon="152.9619758">
<ele>35.177</ele>
<time>2017-05-17T06:48:51.195Z</time>
</trkpt>
<trkpt lat="-27.3473746" lon="152.9617973">
<ele>35.991</ele>
<time>2017-05-17T06:48:53.255Z</time>
</trkpt>
<trkpt lat="-27.3475785" lon="152.9616303">
<ele>36.065</ele>
<time>2017-05-17T06:48:55.211Z</time>
</trkpt>
<trkpt lat="-27.3477507" lon="152.9614252">
<ele>35.558</ele>
<time>2017-05-17T06:48:57.175Z</time>
</trkpt>
<trkpt lat="-27.3479303" lon="152.9610424">
<ele>34.705</ele>
<time>2017-05-17T06:49:00.167Z</time>
</trkpt>
<trkpt lat="-27.3480223" lon="152.9606183">
<ele>33.741</ele>
<time>2017-05-17T06:49:03.168Z</time>
</trkpt>
<trkpt lat="-27.3480842" lon="152.9601918">
<ele>32.730</ele>
<time>2017-05-17T06:49:06.102Z</time>
</trkpt>
<trkpt lat="-27.3479900" lon="152.9597561">
<ele>31.516</ele>
<time>2017-05-17T06:49:09.126Z</time>
</trkpt>
<trkpt lat="-27.3479325" lon="152.9594750">
<ele>29.873</ele>
<time>2017-05-17T06:49:11.145Z</time>
</trkpt>
<trkpt lat="-27.3478806" lon="152.9592088">
<ele>27.928</ele>
<time>2017-05-17T06:49:13.110Z</time>
</trkpt>
<trkpt lat="-27.3478165" lon="152.9588031">
<ele>26.188</ele>
<time>2017-05-17T06:49:16.096Z</time>
</trkpt>
<trkpt lat="-27.3477907" lon="152.9585356">
<ele>25.065</ele>
<time>2017-05-17T06:49:18.046Z</time>
</trkpt>
<trkpt lat="-27.3477570" lon="152.9582648">
<ele>24.614</ele>
<time>2017-05-17T06:49:20.024Z</time>
</trkpt>
<trkpt lat="-27.3477601" lon="152.9578575">
<ele>24.732</ele>
<time>2017-05-17T06:49:22.963Z</time>
</trkpt>
<trkpt lat="-27.3477711" lon="152.9574448">
<ele>25.468</ele>
<time>2017-05-17T06:49:25.919Z</time>
</trkpt>
<trkpt lat="-27.3479251" lon="152.9570654">
<ele>27.017</ele>
<time>2017-05-17T06:49:28.875Z</time>
</trkpt>
<trkpt lat="-27.3480549" lon="152.9568233">
<ele>29.368</ele>
<time>2017-05-17T06:49:30.853Z</time>
</trkpt>
<trkpt lat="-27.3483279" lon="152.9565240">
<ele>32.047</ele>
<time>2017-05-17T06:49:33.820Z</time>
</trkpt>
<trkpt lat="-27.3485982" lon="152.9562262">
<ele>34.483</ele>
<time>2017-05-17T06:49:36.714Z</time>
</trkpt>
<trkpt lat="-27.3488923" lon="152.9559257">
<ele>36.411</ele>
<time>2017-05-17T06:49:39.707Z</time>
</trkpt>
<trkpt lat="-27.3492066" lon="152.9556552">
<ele>37.674</ele>
<time>2017-05-17T06:49:42.658Z</time>
</trkpt>
<trkpt lat="-27.3494581" lon="152.9555453">
<ele>38.091</ele>
<time>2017-05-17T06:49:44.669Z</time>
</trkpt>
<trkpt lat="-27.3498297" lon="152.9554000">
<ele>37.688</ele>
<time>2017-05-17T06:49:47.676Z</time>
</trkpt>
<trkpt lat="-27.3500586" lon="152.9553132">
<ele>36.598</ele>
<time>2017-05-17T06:49:49.623Z</time>
</trkpt>
<trkpt lat="-27.3502896" lon="152.9552377">
<ele>35.241</ele>
<time>2017-05-17T06:49:51.575Z</time>
</trkpt>
<trkpt lat="-27.3505145" lon="152.9551327">
<ele>34.273</ele>
<time>2017-05-17T06:49:53.559Z</time>
</trkpt>
<trkpt lat="-27.3508541" lon="152.9550062">
<ele>34.049</ele>
<time>2017-05-17T06:49:56.476Z</time>
</trkpt>
<trkpt lat="-27.3510823" lon="152.9549126">
<ele>34.564</ele>
<time>2017-05-17T06:49:58.437Z</time>
</trkpt>
<trkpt lat="-27.3513207" lon="152.9548328">
<ele>35.719</ele>
<time>2017-05-17T06:50:00.365Z</time>
</trkpt>
<trkpt lat="-27.3516939" lon="152.9546640">
<ele>37.219</ele>
<time>2017-05-17T06:50:03.366Z</time>
</trkpt>
<trkpt lat="-27.3519509" lon="152.9545709">
<ele>38.560</ele>
<time>2017-05-17T06:50:05.351Z</time>
</trkpt>
<trkpt lat="-27.3523066" lon="152.9544041">
<ele>39.304</ele>
<time>2017-05-17T06:50:08.256Z</time>
</trkpt>
<trkpt lat="-27.3525480" lon="152.9543321">
<ele>39.287</ele>
<time>2017-05-17T06:50:10.285Z</time>
</trkpt>
<trkpt lat="-27.3528693" lon="152.9542706">
<ele>38.660</ele>
<time>2017-05-17T06:50:13.122Z</time>
</trkpt>
<trkpt lat="-27.3531695" lon="152.9542500">
<ele>37.889</ele>
<time>2017-05-17T06:50:15.906Z</time>
</trkpt>
<trkpt lat="-27.3533989" lon="152.9542701">
<ele>37.507</ele>
<time>2017-05-17T06:50:17.956Z</time>
</trkpt>
<trkpt lat="-27.3537529" lon="152.9543804">
<ele>37.817</ele>
<time>2017-05-17T06:50:21.046Z</time>
</trkpt>
<trkpt lat="-27.3539734" lon="152.9545009">
<ele>38.971</ele>
<time>2017-05-17T06:50:23.077Z</time>
</trkpt>
<trkpt lat="-27.3542633" lon="152.9547306">
<ele>40.694</ele>
<time>2017-05-17T06:50:26.165Z</time>
</trkpt>
<trkpt lat="-27.3544644" lon="152.9549770">
<ele>42.202</ele>
<time>2017-05-17T06:50:29.036Z</time>
</trkpt>
<trkpt lat="-27.3545837" lon="152.9551320">
<ele>42.947</ele>
<time>2017-05-17T06:50:30.946Z</time>
</trkpt>
<trkpt lat="-27.3547295" lon="152.9554225">
<ele>43.061</ele>
<time>2017-05-17T06:50:33.949Z</time>
</trkpt>
<trkpt lat="-27.3548193" lon="152.9556630">
<ele>42.852</ele>
<time>2017-05-17T06:50:35.982Z</time>
</trkpt>
<trkpt lat="-27.3548732" lon="152.9560828">
<ele>42.391</ele>
<time>2017-05-17T06:50:39.042Z</time>
</trkpt>
<trkpt lat="-27.3548752" lon="152.9563709">
<ele>41.370</ele>
<time>2017-05-17T06:50:41.067Z</time>
</trkpt>
<trkpt lat="-27.3548855" lon="152.9566438">
<ele>39.519</ele>
<time>2017-05-17T06:50:43.043Z</time>
</trkpt>
<trkpt lat="-27.3548817" lon="152.9570191">
<ele>37.161</ele>
<time>2017-05-17T06:50:45.972Z</time>
</trkpt>
<trkpt lat="-27.3548727" lon="152.9572097">
<ele>34.811</ele>
<time>2017-05-17T06:50:47.864Z</time>
</trkpt>
<trkpt lat="-27.3548299" lon="152.9574087">
<ele>32.691</ele>
<time>2017-05-17T06:50:50.409Z</time>
</trkpt>
<trkpt lat="-27.3549216" lon="152.9574467">
<ele>30.901</ele>
<time>2017-05-17T06:50:52.190Z</time>
</trkpt>
<trkpt lat="-27.3551543" lon="152.9573562">
<ele>29.535</ele>
<time>2017-05-17T06:50:55.735Z</time>
</trkpt>
<trkpt lat="-27.3554847" lon="152.9573070">
<ele>28.691</ele>
<time>2017-05-17T06:50:59.100Z</time>
</trkpt>
<trkpt lat="-27.3557993" lon="152.9572074">
<ele>28.407</ele>
<time>2017-05-17T06:51:02.149Z</time>
</trkpt>
<trkpt lat="-27.3559859" lon="152.9571249">
<ele>28.498</ele>
<time>2017-05-17T06:51:04.083Z</time>
</trkpt>
<trkpt lat="-27.3562373" lon="152.9569294">
<ele>28.691</ele>
<time>2017-05-17T06:51:07.087Z</time>
</trkpt>
<trkpt lat="-27.3564744" lon="152.9567446">
<ele>28.848</ele>
<time>2017-05-17T06:51:10.128Z</time>
</trkpt>
<trkpt lat="-27.3566548" lon="152.9566045">
<ele>28.961</ele>
<time>2017-05-17T06:51:13.019Z</time>
</trkpt>
<trkpt lat="-27.3567510" lon="152.9565379">
<ele>29.020</ele>
<time>2017-05-17T06:51:14.996Z</time>
</trkpt>
<trkpt lat="-27.3567510" lon="152.9565379">
<ele>29.017</ele>
<time>2017-05-17T06:51:17.996Z</time>
</trkpt>
<trkpt lat="-27.3567510" lon="152.9565379">
<ele>28.991</ele>
<time>2017-05-17T06:51:49.996Z</time>
</trkpt>
<trkpt lat="-27.3568730" lon="152.9566253">
<ele>31.606</ele>
<time>2017-05-17T06:52:01.996Z</time>
</trkpt>
<trkpt lat="-27.3568730" lon="152.9566253">
<ele>31.592</ele>
<time>2017-05-17T06:54:05.999Z</time>
</trkpt>
<trkpt lat="-27.3568730" lon="152.9566253">
<ele>31.584</ele>
<time>2017-05-17T06:54:22.999Z</time>
</trkpt>
<trkpt lat="-27.3568833" lon="152.9566758">
<ele>31.902</ele>
<time>2017-05-17T06:54:35.999Z</time>
</trkpt>
</trkseg>
</trk>
<extensions>
<fpdata xmlns="http://www.motionx.com/GPX-Extensions/1/1" sfv="10" origin="MotionXGPSFull 24.1 Build 5049R64">
<bin enc="base64">
RgIAAAACAAAAoYWRxuNG1kEBAAAAyeeNKv1G1kEAAFYNrlzZQFgZAAAXVtEBqEKAtCnR
TEAclNsK8uY/QAAAAAAQAAAAQ2hyaXN0aW5lJ3MgUnVuABUAAAAxNyBNYXkgMjAxNyAg
OTo0NSBhbQAAAAAA8+eNKv1G1kFq+qAv/UbWQUp/iAEZrq1eBlmSQCwAAAABAAAAdM+/
7JoeY0ATwYJfXVs7wKhCgLQp0UxAAAAAAAAAMEAAAAAgjhZJQAAAAAAANKlAAAAAAAAA
AAAAAAAAcT0K16MQX0BQCxXlaX88QAEAAAARnRhR87+dvwEAAAABAAAAIFTMNngMyT8M
Hu8Bj7bGvwEAAAABAAAAAQAAAKhCgLQp0UxAAAAAAAAAAAABAAAAFAAAAENocmlzdGlu
ZSdzX1J1bi5ncHgAAQAAADyeoS/9RtZBCgAAAAEAAAAQAAAAQ2hyaXN0aW5lJ3MgUnVu
AAAAAAAAAAAAAAAAAAAAAAAqAAAAkvn/6vxG1kEAAAAAAAAAAAAAAAAAAAAA/yVEvAIA
AAAAAAAAAAAAAAEAAAAnAAAAMjQuMSBCdWlsZCA1MDQ5UjY0LCBNWEFFIDguMSBiLiA2
MjZSNjQAAAAAAKhyAAABAAAAAQYAAAAajxtZjPQbWQTer8rL40bWQd6vysvjRtZBAAAA
46jkNEAAAAAAAxfyo8H8RtZBF/KjwfxG1kEAQHJsEvvYQAAAAAAEur+JxPxG1kG6v4nE
/EbWQQCADDr4/dhAAAAAAAOsjOTn/EbWQayM5Of8RtZBAIAHB1Mh2UAAAAAABLlRB+v8
RtZBuVEH6/xG1kEAwAfMdSTZQAAAAAABvoWRxuNG1kEUkz8j/UbWQQAAVg2uXNlAAAAA
AAAAAAA=
</bin>
</fpdata>
</extensions>
</gpx>